<?xml version="1.0" encoding="UTF-8"?>
<gpx version="1.1" creator="https://www.youtrack.es" xsi:schemaLocation="http://www.topografix.com/GPX/1/1 http://www.topografix.com/GPX/1/1/gpx.xsd http://www.garmin.com/xmlschemas/GpxExtensions/v3 http://www.garmin.com/xmlschemas/GpxExtensionsv3.xsd http://www.garmin.com/xmlschemas/TrackPointExtension/v1 http://www.garmin.com/xmlschemas/TrackPointExtensionv1.xsd" xmlns:gpxtpx="http://www.garmin.com/xmlschemas/TrackPointExtension/v1" xmlns:gpxx="http://www.garmin.com/xmlschemas/GpxExtensions/v3" xmlns:xsi="http://www.w3.org/2001/XMLSchema-instance">
  <metadata>
    <link href="https://www.youtrack.es">
      <text>YouTrack.es</text>
    </link>
    <time>2026-05-08T02:52:53Z</time>
  </metadata>
  <trk>
    <src>https://www.youtrack.es</src>
    <link href="https://www.youtrack.es/ruta/24721-aa-astorga-total">
      <text>YouTrack.es</text>
    </link>
    <trkseg>
      <trkpt lat="42.451500026509166" lon="-6.058069970458746">
        <ele>846.02300000000002</ele>
        <time>2021-07-09T07:37:28Z</time>
      </trkpt>
      <trkpt lat="42.45151000097394" lon="-6.057929992675781">
        <ele>846.08299999999997</ele>
        <time>2021-07-09T07:37:30Z</time>
      </trkpt>
      <trkpt lat="42.451709993183613" lon="-6.057040002197027">
        <ele>847.01099999999997</ele>
        <time>2021-07-09T07:37:42Z</time>
      </trkpt>
      <trkpt lat="42.451909985393286" lon="-6.055650031194091">
        <ele>845.00800000000004</ele>
        <time>2021-07-09T07:38:01Z</time>
      </trkpt>
      <trkpt lat="42.451900010928512" lon="-6.055430006235838">
        <ele>845.08900000000006</ele>
        <time>2021-07-09T07:38:04Z</time>
      </trkpt>
      <trkpt lat="42.451839996501803" lon="-6.055269995704293">
        <ele>845.01900000000001</ele>
        <time>2021-07-09T07:38:06Z</time>
      </trkpt>
      <trkpt lat="42.451819963753223" lon="-6.054990040138364">
        <ele>846.09900000000005</ele>
        <time>2021-07-09T07:38:10Z</time>
      </trkpt>
      <trkpt lat="42.451770007610321" lon="-6.054809996858239">
        <ele>846.01800000000003</ele>
        <time>2021-07-09T07:38:12Z</time>
      </trkpt>
      <trkpt lat="42.451170030981302" lon="-6.053940039128065">
        <ele>845.07299999999998</ele>
        <time>2021-07-09T07:38:28Z</time>
      </trkpt>
      <trkpt lat="42.450829977169633" lon="-6.053499989211559">
        <ele>845.05200000000002</ele>
        <time>2021-07-09T07:38:36Z</time>
      </trkpt>
      <trkpt lat="42.450459999963641" lon="-6.052909987047315">
        <ele>843.05799999999999</ele>
        <time>2021-07-09T07:38:46Z</time>
      </trkpt>
      <trkpt lat="42.449049996212125" lon="-6.050830017775297">
        <ele>840.07399999999996</ele>
        <time>2021-07-09T07:39:23Z</time>
      </trkpt>
      <trkpt lat="42.447779970243573" lon="-6.049060011282563">
        <ele>839.01300000000003</ele>
        <time>2021-07-09T07:39:56Z</time>
      </trkpt>
      <trkpt lat="42.446650005877018" lon="-6.047310037538409">
        <ele>841.04300000000001</ele>
        <time>2021-07-09T07:40:26Z</time>
      </trkpt>
      <trkpt lat="42.441479964181781" lon="-6.039700023829937">
        <ele>837.00699999999995</ele>
        <time>2021-07-09T07:42:42Z</time>
      </trkpt>
      <trkpt lat="42.441090038046241" lon="-6.039159977808595">
        <ele>836.00800000000004</ele>
        <time>2021-07-09T07:42:52Z</time>
      </trkpt>
      <trkpt lat="42.440909994766116" lon="-6.038980018347502">
        <ele>835.05799999999999</ele>
        <time>2021-07-09T07:42:56Z</time>
      </trkpt>
      <trkpt lat="42.440710002556443" lon="-6.038880022242665">
        <ele>835.07799999999997</ele>
        <time>2021-07-09T07:43:00Z</time>
      </trkpt>
      <trkpt lat="42.440540017560124" lon="-6.038720011711121">
        <ele>835.01800000000003</ele>
        <time>2021-07-09T07:43:04Z</time>
      </trkpt>
      <trkpt lat="42.44048997759819" lon="-6.038599982857704">
        <ele>835.01700000000005</ele>
        <time>2021-07-09T07:43:05Z</time>
      </trkpt>
      <trkpt lat="42.440429963171482" lon="-6.038290020078421">
        <ele>835.01199999999994</ele>
        <time>2021-07-09T07:43:10Z</time>
      </trkpt>
      <trkpt lat="42.440299959853292" lon="-6.037969999015331">
        <ele>835.02099999999996</ele>
        <time>2021-07-09T07:43:14Z</time>
      </trkpt>
      <trkpt lat="42.439720015972853" lon="-6.037159971892834">
        <ele>836.03700000000003</ele>
        <time>2021-07-09T07:43:29Z</time>
      </trkpt>
      <trkpt lat="42.439060024917126" lon="-6.036160010844469">
        <ele>836.08299999999997</ele>
        <time>2021-07-09T07:43:47Z</time>
      </trkpt>
      <trkpt lat="42.438219990581274" lon="-6.03498000651598">
        <ele>838.07500000000005</ele>
        <time>2021-07-09T07:44:08Z</time>
      </trkpt>
      <trkpt lat="42.437929976731539" lon="-6.034620003774762">
        <ele>838.02800000000002</ele>
        <time>2021-07-09T07:44:15Z</time>
      </trkpt>
      <trkpt lat="42.437620013952255" lon="-6.034299982711673">
        <ele>838.01999999999998</ele>
        <time>2021-07-09T07:44:22Z</time>
      </trkpt>
      <trkpt lat="42.437299992889166" lon="-6.034020027145743">
        <ele>837.00800000000004</ele>
        <time>2021-07-09T07:44:29Z</time>
      </trkpt>
      <trkpt lat="42.436800012364984" lon="-6.033679973334074">
        <ele>837.03399999999999</ele>
        <time>2021-07-09T07:44:39Z</time>
      </trkpt>
      <trkpt lat="42.435840032994747" lon="-6.033089971169829">
        <ele>832.05399999999997</ele>
        <time>2021-07-09T07:44:58Z</time>
      </trkpt>
      <trkpt lat="42.435640040785074" lon="-6.033040015026927">
        <ele>832.03399999999999</ele>
        <time>2021-07-09T07:45:01Z</time>
      </trkpt>
      <trkpt lat="42.435339968651533" lon="-6.033140011131764">
        <ele>833.04300000000001</ele>
        <time>2021-07-09T07:45:07Z</time>
      </trkpt>
      <trkpt lat="42.435239972546697" lon="-6.033149985596538">
        <ele>833.02800000000002</ele>
        <time>2021-07-09T07:45:09Z</time>
      </trkpt>
      <trkpt lat="42.435079962015152" lon="-6.033049989491701">
        <ele>833.05700000000002</ele>
        <time>2021-07-09T07:45:12Z</time>
      </trkpt>
      <trkpt lat="42.434939984232187" lon="-6.032659979537129">
        <ele>833.04300000000001</ele>
        <time>2021-07-09T07:45:17Z</time>
      </trkpt>
      <trkpt lat="42.433970030397177" lon="-6.032009962946177">
        <ele>835.029</ele>
        <time>2021-07-09T07:45:37Z</time>
      </trkpt>
      <trkpt lat="42.428829995915294" lon="-6.028740014880896">
        <ele>833.06600000000003</ele>
        <time>2021-07-09T07:47:18Z</time>
      </trkpt>
      <trkpt lat="42.428190037608147" lon="-6.028389986604452">
        <ele>835.029</ele>
        <time>2021-07-09T07:47:30Z</time>
      </trkpt>
      <trkpt lat="42.427819976583123" lon="-6.028259983286262">
        <ele>836.02099999999996</ele>
        <time>2021-07-09T07:47:37Z</time>
      </trkpt>
      <trkpt lat="42.427229974418879" lon="-6.028189994394779">
        <ele>838.00800000000004</ele>
        <time>2021-07-09T07:47:47Z</time>
      </trkpt>
      <trkpt lat="42.426620023325086" lon="-6.028259983286262">
        <ele>841.07299999999998</ele>
        <time>2021-07-09T07:47:58Z</time>
      </trkpt>
      <trkpt lat="42.426230013370514" lon="-6.028329972177744">
        <ele>840.053</ele>
        <time>2021-07-09T07:48:05Z</time>
      </trkpt>
      <trkpt lat="42.425080016255379" lon="-6.028640018776059">
        <ele>841.053</ele>
        <time>2021-07-09T07:48:26Z</time>
      </trkpt>
      <trkpt lat="42.424390017986298" lon="-6.028759963810444">
        <ele>843.03200000000004</ele>
        <time>2021-07-09T07:48:38Z</time>
      </trkpt>
      <trkpt lat="42.424039989709854" lon="-6.028779996559024">
        <ele>843.06700000000001</ele>
        <time>2021-07-09T07:48:45Z</time>
      </trkpt>
      <trkpt lat="42.423679986968637" lon="-6.028710007667542">
        <ele>844.096</ele>
        <time>2021-07-09T07:48:51Z</time>
      </trkpt>
      <trkpt lat="42.423300035297871" lon="-6.028559971600771">
        <ele>846.03200000000004</ele>
        <time>2021-07-09T07:48:58Z</time>
      </trkpt>
      <trkpt lat="42.422940032556653" lon="-6.02831999771297">
        <ele>847.07799999999997</ele>
        <time>2021-07-09T07:49:05Z</time>
      </trkpt>
      <trkpt lat="42.422599978744984" lon="-6.02802000939846">
        <ele>847.07399999999996</ele>
        <time>2021-07-09T07:49:13Z</time>
      </trkpt>
      <trkpt lat="42.418849999085069" lon="-6.024540010839701">
        <ele>846.05600000000004</ele>
        <time>2021-07-09T07:50:33Z</time>
      </trkpt>
      <trkpt lat="42.41868001408875" lon="-6.024359967559576">
        <ele>846.02099999999996</ele>
        <time>2021-07-09T07:50:37Z</time>
      </trkpt>
      <trkpt lat="42.418220015242696" lon="-6.023739958181977">
        <ele>845.00800000000004</ele>
        <time>2021-07-09T07:50:49Z</time>
      </trkpt>
      <trkpt lat="42.416499964892864" lon="-6.020769998431206">
        <ele>837.04399999999998</ele>
        <time>2021-07-09T07:51:38Z</time>
      </trkpt>
      <trkpt lat="42.41608003154397" lon="-6.020019985735416">
        <ele>837.024</ele>
        <time>2021-07-09T07:51:51Z</time>
      </trkpt>
      <trkpt lat="42.415270004421473" lon="-6.01847997866571">
        <ele>835.05399999999997</ele>
        <time>2021-07-09T07:52:16Z</time>
      </trkpt>
      <trkpt lat="42.414419995620847" lon="-6.016960004344583">
        <ele>830.06299999999999</ele>
        <time>2021-07-09T07:52:41Z</time>
      </trkpt>
      <trkpt lat="42.413980029523373" lon="-6.016270006075501">
        <ele>826.05799999999999</ele>
        <time>2021-07-09T07:52:53Z</time>
      </trkpt>
      <trkpt lat="42.413499997928739" lon="-6.015910003334284">
        <ele>824.08699999999999</ele>
        <time>2021-07-09T07:53:02Z</time>
      </trkpt>
      <trkpt lat="42.413090039044619" lon="-6.015529967844486">
        <ele>826.07299999999998</ele>
        <time>2021-07-09T07:53:11Z</time>
      </trkpt>
      <trkpt lat="42.412529960274696" lon="-6.014959998428822">
        <ele>829.01900000000001</ele>
        <time>2021-07-09T07:53:24Z</time>
      </trkpt>
      <trkpt lat="42.410210017114878" lon="-6.012430004775524">
        <ele>837.05799999999999</ele>
        <time>2021-07-09T07:54:17Z</time>
      </trkpt>
      <trkpt lat="42.408939991146326" lon="-6.011119997128844">
        <ele>838.05200000000002</ele>
        <time>2021-07-09T07:54:45Z</time>
      </trkpt>
      <trkpt lat="42.407150035724044" lon="-6.009159972891212">
        <ele>833.01700000000005</ele>
        <time>2021-07-09T07:55:26Z</time>
      </trkpt>
      <trkpt lat="42.406969992443919" lon="-6.008970038965344">
        <ele>833.00800000000004</ele>
        <time>2021-07-09T07:55:30Z</time>
      </trkpt>
      <trkpt lat="42.406609989702702" lon="-6.008659992367029">
        <ele>832.08199999999999</ele>
        <time>2021-07-09T07:55:38Z</time>
      </trkpt>
      <trkpt lat="42.406070027500391" lon="-6.008090022951365">
        <ele>830.03200000000004</ele>
        <time>2021-07-09T07:55:50Z</time>
      </trkpt>
      <trkpt lat="42.398690013214946" lon="-6.000250009819865">
        <ele>824.08199999999999</ele>
        <time>2021-07-09T07:58:37Z</time>
      </trkpt>
      <trkpt lat="42.397679993882775" lon="-5.999130019918084">
        <ele>823.09100000000001</ele>
        <time>2021-07-09T07:59:00Z</time>
      </trkpt>
      <trkpt lat="42.394480034708977" lon="-5.995820006355643">
        <ele>823.08600000000001</ele>
        <time>2021-07-09T08:00:12Z</time>
      </trkpt>
      <trkpt lat="42.384029980748892" lon="-5.984780034050345">
        <ele>818.06500000000005</ele>
        <time>2021-07-09T08:04:08Z</time>
      </trkpt>
      <trkpt lat="42.38090998493135" lon="-5.981530034914613">
        <ele>818.08100000000002</ele>
        <time>2021-07-09T08:05:18Z</time>
      </trkpt>
      <trkpt lat="42.375099984928966" lon="-5.975400013849139">
        <ele>811.06700000000001</ele>
        <time>2021-07-09T08:07:29Z</time>
      </trkpt>
      <trkpt lat="42.37338999286294" lon="-5.973669989034534">
        <ele>810.02300000000002</ele>
        <time>2021-07-09T08:08:07Z</time>
      </trkpt>
      <trkpt lat="42.372060036286712" lon="-5.972250010818243">
        <ele>810.08299999999997</ele>
        <time>2021-07-09T08:08:37Z</time>
      </trkpt>
      <trkpt lat="42.371319998055696" lon="-5.971400002017617">
        <ele>811.01099999999997</ele>
        <time>2021-07-09T08:08:54Z</time>
      </trkpt>
      <trkpt lat="42.36993002705276" lon="-5.969920009374619">
        <ele>810.00800000000004</ele>
        <time>2021-07-09T08:09:25Z</time>
      </trkpt>
      <trkpt lat="42.362480023875833" lon="-5.962130036205053">
        <ele>805.05899999999997</ele>
        <time>2021-07-09T08:12:13Z</time>
      </trkpt>
      <trkpt lat="42.361200023442507" lon="-5.960699999704957">
        <ele>806.01900000000001</ele>
        <time>2021-07-09T08:12:43Z</time>
      </trkpt>
      <trkpt lat="42.359160035848618" lon="-5.95862003043294">
        <ele>804.029</ele>
        <time>2021-07-09T08:13:28Z</time>
      </trkpt>
      <trkpt lat="42.358229979872704" lon="-5.957619985565543">
        <ele>804.03800000000001</ele>
        <time>2021-07-09T08:13:49Z</time>
      </trkpt>
      <trkpt lat="42.357109989970922" lon="-5.956469988450408">
        <ele>804.06299999999999</ele>
        <time>2021-07-09T08:14:14Z</time>
      </trkpt>
      <trkpt lat="42.35688996501267" lon="-5.956230014562607">
        <ele>804.02200000000005</ele>
        <time>2021-07-09T08:14:19Z</time>
      </trkpt>
      <trkpt lat="42.356580002233386" lon="-5.955830030143261">
        <ele>804.06799999999998</ele>
        <time>2021-07-09T08:14:27Z</time>
      </trkpt>
      <trkpt lat="42.356069963425398" lon="-5.955050010234118">
        <ele>802.05399999999997</ele>
        <time>2021-07-09T08:14:40Z</time>
      </trkpt>
      <trkpt lat="42.355839964002371" lon="-5.954750021919608">
        <ele>803.05499999999995</ele>
        <time>2021-07-09T08:14:46Z</time>
      </trkpt>
      <trkpt lat="42.355479961261153" lon="-5.954379960894585">
        <ele>803.00699999999995</ele>
        <time>2021-07-09T08:14:54Z</time>
      </trkpt>
      <trkpt lat="42.354819970205426" lon="-5.953779984265566">
        <ele>801.01700000000005</ele>
        <time>2021-07-09T08:15:08Z</time>
      </trkpt>
      <trkpt lat="42.354540014639497" lon="-5.953479995951057">
        <ele>799.00800000000004</ele>
        <time>2021-07-09T08:15:15Z</time>
      </trkpt>
      <trkpt lat="42.353950012475252" lon="-5.952740041539073">
        <ele>798.03200000000004</ele>
        <time>2021-07-09T08:15:29Z</time>
      </trkpt>
      <trkpt lat="42.350749969482422" lon="-5.947920028120279">
        <ele>791.01199999999994</ele>
        <time>2021-07-09T08:16:54Z</time>
      </trkpt>
      <trkpt lat="42.350100036710501" lon="-5.947070019319654">
        <ele>789.05200000000002</ele>
        <time>2021-07-09T08:17:10Z</time>
      </trkpt>
      <trkpt lat="42.349699968472123" lon="-5.946749998256564">
        <ele>789.04100000000005</ele>
        <time>2021-07-09T08:17:19Z</time>
      </trkpt>
      <trkpt lat="42.349269976839423" lon="-5.946499966084957">
        <ele>790.02599999999995</ele>
        <time>2021-07-09T08:17:27Z</time>
      </trkpt>
      <trkpt lat="42.347380025312304" lon="-5.945690022781491">
        <ele>786.03499999999997</ele>
        <time>2021-07-09T08:18:02Z</time>
      </trkpt>
      <trkpt lat="42.345269965007901" lon="-5.944729959592223">
        <ele>789.06100000000004</ele>
        <time>2021-07-09T08:18:42Z</time>
      </trkpt>
      <trkpt lat="42.344560017809272" lon="-5.944350007921457">
        <ele>788.04700000000003</ele>
        <time>2021-07-09T08:18:55Z</time>
      </trkpt>
      <trkpt lat="42.344319960102439" lon="-5.944189997389913">
        <ele>788.09500000000003</ele>
        <time>2021-07-09T08:19:00Z</time>
      </trkpt>
      <trkpt lat="42.343859961256385" lon="-5.943820020183921">
        <ele>788.04899999999998</ele>
        <time>2021-07-09T08:19:10Z</time>
      </trkpt>
      <trkpt lat="42.343640020117164" lon="-5.943609969690442">
        <ele>788.02300000000002</ele>
        <time>2021-07-09T08:19:14Z</time>
      </trkpt>
      <trkpt lat="42.341679995879531" lon="-5.941569982096553">
        <ele>786.00800000000004</ele>
        <time>2021-07-09T08:19:58Z</time>
      </trkpt>
      <trkpt lat="42.341259978711605" lon="-5.941160023212433">
        <ele>785.03599999999994</ele>
        <time>2021-07-09T08:20:08Z</time>
      </trkpt>
      <trkpt lat="42.340390020981431" lon="-5.940419984981418">
        <ele>785.02599999999995</ele>
        <time>2021-07-09T08:20:26Z</time>
      </trkpt>
      <trkpt lat="42.322760028764606" lon="-5.927519984543324">
        <ele>784.04600000000005</ele>
        <time>2021-07-09T08:26:23Z</time>
      </trkpt>
      <trkpt lat="42.321529984474182" lon="-5.926580037921667">
        <ele>784.04499999999996</ele>
        <time>2021-07-09T08:26:48Z</time>
      </trkpt>
      <trkpt lat="42.321060011163354" lon="-5.926139988005161">
        <ele>785.03999999999996</ele>
        <time>2021-07-09T08:26:58Z</time>
      </trkpt>
      <trkpt lat="42.320630019530654" lon="-5.925640007480979">
        <ele>784.03899999999999</ele>
        <time>2021-07-09T08:27:08Z</time>
      </trkpt>
      <trkpt lat="42.320219976827502" lon="-5.925089986994863">
        <ele>781.02499999999998</ele>
        <time>2021-07-09T08:27:18Z</time>
      </trkpt>
      <trkpt lat="42.318119974806905" lon="-5.922120027244091">
        <ele>783.02099999999996</ele>
        <time>2021-07-09T08:28:12Z</time>
      </trkpt>
      <trkpt lat="42.30914999730885" lon="-5.909669967368245">
        <ele>774.03499999999997</ele>
        <time>2021-07-09T08:32:01Z</time>
      </trkpt>
      <trkpt lat="42.308799969032407" lon="-5.909220026805997">
        <ele>773.08600000000001</ele>
        <time>2021-07-09T08:32:10Z</time>
      </trkpt>
      <trkpt lat="42.308539962396026" lon="-5.909109972417355">
        <ele>772.01400000000001</ele>
        <time>2021-07-09T08:32:14Z</time>
      </trkpt>
      <trkpt lat="42.308439966291189" lon="-5.90899002738297">
        <ele>772.00800000000004</ele>
        <time>2021-07-09T08:32:17Z</time>
      </trkpt>
      <trkpt lat="42.30829001404345" lon="-5.908509995788336">
        <ele>773.07000000000005</ele>
        <time>2021-07-09T08:32:24Z</time>
      </trkpt>
      <trkpt lat="42.308120029047132" lon="-5.908240014687181">
        <ele>774.02999999999997</ele>
        <time>2021-07-09T08:32:28Z</time>
      </trkpt>
      <trkpt lat="42.307119984179735" lon="-5.906749963760376">
        <ele>775.00999999999999</ele>
        <time>2021-07-09T08:32:55Z</time>
      </trkpt>
      <trkpt lat="42.306599970906973" lon="-5.906019983813167">
        <ele>775.03899999999999</ele>
        <time>2021-07-09T08:33:08Z</time>
      </trkpt>
      <trkpt lat="42.305649966001511" lon="-5.904760016128421">
        <ele>775.01400000000001</ele>
        <time>2021-07-09T08:33:32Z</time>
      </trkpt>
      <trkpt lat="42.305219974368811" lon="-5.904030036181212">
        <ele>774.08299999999997</ele>
        <time>2021-07-09T08:33:44Z</time>
      </trkpt>
      <trkpt lat="42.304710019379854" lon="-5.903459982946515">
        <ele>774.05899999999997</ele>
        <time>2021-07-09T08:33:56Z</time>
      </trkpt>
      <trkpt lat="42.303950032219291" lon="-5.902490029111505">
        <ele>775.05499999999995</ele>
        <time>2021-07-09T08:34:15Z</time>
      </trkpt>
      <trkpt lat="42.302749995142221" lon="-5.900869974866509">
        <ele>773.03700000000003</ele>
        <time>2021-07-09T08:34:45Z</time>
      </trkpt>
      <trkpt lat="42.302680006250739" lon="-5.900860000401735">
        <ele>774.04899999999998</ele>
        <time>2021-07-09T08:34:46Z</time>
      </trkpt>
      <trkpt lat="42.302540028467774" lon="-5.901029985398054">
        <ele>774.01300000000003</ele>
        <time>2021-07-09T08:34:49Z</time>
      </trkpt>
      <trkpt lat="42.301690019667149" lon="-5.9018599614501">
        <ele>776.00800000000004</ele>
        <time>2021-07-09T08:35:08Z</time>
      </trkpt>
      <trkpt lat="42.301579965278506" lon="-5.902119968086481">
        <ele>775.07000000000005</ele>
        <time>2021-07-09T08:35:12Z</time>
      </trkpt>
      <trkpt lat="42.301060035824776" lon="-5.903710015118122">
        <ele>774.02999999999997</ele>
        <time>2021-07-09T08:35:35Z</time>
      </trkpt>
      <trkpt lat="42.300970014184713" lon="-5.903870025649667">
        <ele>774.03999999999996</ele>
        <time>2021-07-09T08:35:37Z</time>
      </trkpt>
      <trkpt lat="42.300830036401749" lon="-5.903970021754503">
        <ele>774.07899999999995</ele>
        <time>2021-07-09T08:35:40Z</time>
      </trkpt>
      <trkpt lat="42.300299964845181" lon="-5.904119974002242">
        <ele>776.07399999999996</ele>
        <time>2021-07-09T08:35:50Z</time>
      </trkpt>
      <trkpt lat="42.299349959939718" lon="-5.904289958998561">
        <ele>777.04300000000001</ele>
        <time>2021-07-09T08:36:07Z</time>
      </trkpt>
      <trkpt lat="42.299079978838563" lon="-5.904400013387203">
        <ele>778.04899999999998</ele>
        <time>2021-07-09T08:36:12Z</time>
      </trkpt>
      <trkpt lat="42.29844999499619" lon="-5.904890019446611">
        <ele>779.07500000000005</ele>
        <time>2021-07-09T08:36:25Z</time>
      </trkpt>
      <trkpt lat="42.298329966142774" lon="-5.90493000112474">
        <ele>779.01499999999999</ele>
        <time>2021-07-09T08:36:27Z</time>
      </trkpt>
      <trkpt lat="42.298259977251291" lon="-5.90490996837616">
        <ele>779.06500000000005</ele>
        <time>2021-07-09T08:36:28Z</time>
      </trkpt>
      <trkpt lat="42.298129973933101" lon="-5.904790023341775">
        <ele>779.01099999999997</ele>
        <time>2021-07-09T08:36:31Z</time>
      </trkpt>
      <trkpt lat="42.297399993985891" lon="-5.903919981792569">
        <ele>781.00800000000004</ele>
        <time>2021-07-09T08:36:48Z</time>
      </trkpt>
      <trkpt lat="42.297200001776218" lon="-5.903759971261025">
        <ele>781.05799999999999</ele>
        <time>2021-07-09T08:36:53Z</time>
      </trkpt>
      <trkpt lat="42.297130012884736" lon="-5.903719989582896">
        <ele>781.09799999999996</ele>
        <time>2021-07-09T08:36:54Z</time>
      </trkpt>
      <trkpt lat="42.297069998458028" lon="-5.903719989582896">
        <ele>781.048</ele>
        <time>2021-07-09T08:36:55Z</time>
      </trkpt>
      <trkpt lat="42.296990035101771" lon="-5.903919981792569">
        <ele>781.06700000000001</ele>
        <time>2021-07-09T08:36:58Z</time>
      </trkpt>
      <trkpt lat="42.296570017933846" lon="-5.906029958277941">
        <ele>782.09199999999998</ele>
        <time>2021-07-09T08:37:27Z</time>
      </trkpt>
      <trkpt lat="42.296479996293783" lon="-5.906300023198128">
        <ele>783.08100000000002</ele>
        <time>2021-07-09T08:37:31Z</time>
      </trkpt>
      <trkpt lat="42.296289978548884" lon="-5.906639993190765">
        <ele>783.01700000000005</ele>
        <time>2021-07-09T08:37:36Z</time>
      </trkpt>
      <trkpt lat="42.294909982010722" lon="-5.908470014110208">
        <ele>792.09299999999996</ele>
        <time>2021-07-09T08:38:11Z</time>
      </trkpt>
      <trkpt lat="42.293810024857521" lon="-5.909720007330179">
        <ele>795.06600000000003</ele>
        <time>2021-07-09T08:38:36Z</time>
      </trkpt>
      <trkpt lat="42.29312002658844" lon="-5.910449987277389">
        <ele>791.029</ele>
        <time>2021-07-09T08:38:52Z</time>
      </trkpt>
      <trkpt lat="42.293069986626506" lon="-5.910519976168871">
        <ele>790.02099999999996</ele>
        <time>2021-07-09T08:38:53Z</time>
      </trkpt>
      <trkpt lat="42.293009972199798" lon="-5.910740001127124">
        <ele>789.00800000000004</ele>
        <time>2021-07-09T08:38:56Z</time>
      </trkpt>
      <trkpt lat="42.292939983308315" lon="-5.91086002998054">
        <ele>789.07299999999998</ele>
        <time>2021-07-09T08:38:58Z</time>
      </trkpt>
      <trkpt lat="42.292560031637549" lon="-5.910990033298731">
        <ele>787.07299999999998</ele>
        <time>2021-07-09T08:39:05Z</time>
      </trkpt>
      <trkpt lat="42.292479984462261" lon="-5.911049963906407">
        <ele>787.053</ele>
        <time>2021-07-09T08:39:07Z</time>
      </trkpt>
      <trkpt lat="42.292230036109686" lon="-5.91129002161324">
        <ele>787.03200000000004</ele>
        <time>2021-07-09T08:39:12Z</time>
      </trkpt>
      <trkpt lat="42.290530018508434" lon="-5.912749981507659">
        <ele>786.06700000000001</ele>
        <time>2021-07-09T08:39:48Z</time>
      </trkpt>
      <trkpt lat="42.290179990231991" lon="-5.913109984248877">
        <ele>785.01599999999996</ele>
        <time>2021-07-09T08:39:56Z</time>
      </trkpt>
      <trkpt lat="42.289959965273738" lon="-5.913379965350032">
        <ele>785.02200000000005</ele>
        <time>2021-07-09T08:40:01Z</time>
      </trkpt>
      <trkpt lat="42.289519999176264" lon="-5.913810040801764">
        <ele>782.09799999999996</ele>
        <time>2021-07-09T08:40:11Z</time>
      </trkpt>
      <trkpt lat="42.28921003639698" lon="-5.914020007476211">
        <ele>781.07399999999996</ele>
        <time>2021-07-09T08:40:17Z</time>
      </trkpt>
      <trkpt lat="42.288260031491518" lon="-5.914519988000393">
        <ele>780.05600000000004</ele>
        <time>2021-07-09T08:40:35Z</time>
      </trkpt>
      <trkpt lat="42.287930035963655" lon="-5.914730038493872">
        <ele>779.02099999999996</ele>
        <time>2021-07-09T08:40:42Z</time>
      </trkpt>
      <trkpt lat="42.287640022113919" lon="-5.915049975737929">
        <ele>778.00800000000004</ele>
        <time>2021-07-09T08:40:48Z</time>
      </trkpt>
      <trkpt lat="42.287310026586056" lon="-5.915539981797338">
        <ele>780.05399999999997</ele>
        <time>2021-07-09T08:40:57Z</time>
      </trkpt>
      <trkpt lat="42.286980031058192" lon="-5.915959998965263">
        <ele>780.09400000000005</ele>
        <time>2021-07-09T08:41:05Z</time>
      </trkpt>
      <trkpt lat="42.286829994991422" lon="-5.916289994493127">
        <ele>781.03399999999999</ele>
        <time>2021-07-09T08:41:10Z</time>
      </trkpt>
      <trkpt lat="42.286790013313293" lon="-5.91661999002099">
        <ele>781.07299999999998</ele>
        <time>2021-07-09T08:41:15Z</time>
      </trkpt>
      <trkpt lat="42.286690017208457" lon="-5.916759967803955">
        <ele>781.048</ele>
        <time>2021-07-09T08:41:17Z</time>
      </trkpt>
      <trkpt lat="42.286530006676912" lon="-5.916800033301115">
        <ele>781.01700000000005</ele>
        <time>2021-07-09T08:41:20Z</time>
      </trkpt>
      <trkpt lat="42.28646001778543" lon="-5.916749993339181">
        <ele>781.06299999999999</ele>
        <time>2021-07-09T08:41:21Z</time>
      </trkpt>
      <trkpt lat="42.286349963396788" lon="-5.916649997234345">
        <ele>781.08900000000006</ele>
        <time>2021-07-09T08:41:24Z</time>
      </trkpt>
      <trkpt lat="42.286079982295632" lon="-5.916259987279773">
        <ele>782.07399999999996</ele>
        <time>2021-07-09T08:41:31Z</time>
      </trkpt>
      <trkpt lat="42.285870015621185" lon="-5.916159991174936">
        <ele>782.05600000000004</ele>
        <time>2021-07-09T08:41:35Z</time>
      </trkpt>
      <trkpt lat="42.285749986767769" lon="-5.916159991174936">
        <ele>782.02099999999996</ele>
        <time>2021-07-09T08:41:37Z</time>
      </trkpt>
      <trkpt lat="42.285519987344742" lon="-5.916220005601645">
        <ele>783.00800000000004</ele>
        <time>2021-07-09T08:41:41Z</time>
      </trkpt>
      <trkpt lat="42.285389984026551" lon="-5.916269961744547">
        <ele>783.06399999999996</ele>
        <time>2021-07-09T08:41:44Z</time>
      </trkpt>
      <trkpt lat="42.28515001013875" lon="-5.916419997811317">
        <ele>784.01400000000001</ele>
        <time>2021-07-09T08:41:48Z</time>
      </trkpt>
      <trkpt lat="42.284899977967143" lon="-5.916610015556216">
        <ele>784.06399999999996</ele>
        <time>2021-07-09T08:41:53Z</time>
      </trkpt>
      <trkpt lat="42.28255002759397" lon="-5.918599963188171">
        <ele>787.09299999999996</ele>
        <time>2021-07-09T08:42:43Z</time>
      </trkpt>
      <trkpt lat="42.281849971041083" lon="-5.919159958139062">
        <ele>789.08799999999997</ele>
        <time>2021-07-09T08:42:57Z</time>
      </trkpt>
      <trkpt lat="42.281050002202392" lon="-5.919890021905303">
        <ele>790.09699999999998</ele>
        <time>2021-07-09T08:43:14Z</time>
      </trkpt>
      <trkpt lat="42.280439967289567" lon="-5.920359995216131">
        <ele>791.03300000000002</ele>
        <time>2021-07-09T08:43:27Z</time>
      </trkpt>
      <trkpt lat="42.280160011723638" lon="-5.920610027387738">
        <ele>792.01900000000001</ele>
        <time>2021-07-09T08:43:33Z</time>
      </trkpt>
      <trkpt lat="42.279400024563074" lon="-5.921179996803403">
        <ele>792.03899999999999</ele>
        <time>2021-07-09T08:43:48Z</time>
      </trkpt>
      <trkpt lat="42.274680007249117" lon="-5.924179963767529">
        <ele>792.00099999999998</ele>
        <time>2021-07-09T08:45:21Z</time>
      </trkpt>
      <trkpt lat="42.273839972913265" lon="-5.924750017002225">
        <ele>790.02099999999996</ele>
        <time>2021-07-09T08:45:38Z</time>
      </trkpt>
      <trkpt lat="42.272830037400126" lon="-5.925389975309372">
        <ele>785.00800000000004</ele>
        <time>2021-07-09T08:45:58Z</time>
      </trkpt>
      <trkpt lat="42.272510016337037" lon="-5.925630033016205">
        <ele>783.01999999999998</ele>
        <time>2021-07-09T08:46:04Z</time>
      </trkpt>
      <trkpt lat="42.272199969738722" lon="-5.925909988582134">
        <ele>781.00999999999999</ele>
        <time>2021-07-09T08:46:11Z</time>
      </trkpt>
      <trkpt lat="42.271790010854602" lon="-5.926399994641542">
        <ele>778.00999999999999</ele>
        <time>2021-07-09T08:46:21Z</time>
      </trkpt>
      <trkpt lat="42.271200008690357" lon="-5.927219996228814">
        <ele>776.029</ele>
        <time>2021-07-09T08:46:36Z</time>
      </trkpt>
      <trkpt lat="42.270889962092042" lon="-5.927719976752996">
        <ele>776.09400000000005</ele>
        <time>2021-07-09T08:46:44Z</time>
      </trkpt>
      <trkpt lat="42.270749984309077" lon="-5.927879987284541">
        <ele>777.04300000000001</ele>
        <time>2021-07-09T08:46:47Z</time>
      </trkpt>
      <trkpt lat="42.270630039274693" lon="-5.928109986707568">
        <ele>777.03899999999999</ele>
        <time>2021-07-09T08:46:51Z</time>
      </trkpt>
      <trkpt lat="42.270440021529794" lon="-5.928320037201047">
        <ele>777.03499999999997</ele>
        <time>2021-07-09T08:46:55Z</time>
      </trkpt>
      <trkpt lat="42.269890001043677" lon="-5.92905999161303">
        <ele>776.02800000000002</ele>
        <time>2021-07-09T08:47:09Z</time>
      </trkpt>
      <trkpt lat="42.269690008834004" lon="-5.929280016571283">
        <ele>775.08900000000006</ele>
        <time>2021-07-09T08:47:14Z</time>
      </trkpt>
      <trkpt lat="42.265720004215837" lon="-5.933120017871261">
        <ele>780.01700000000005</ele>
        <time>2021-07-09T08:48:41Z</time>
      </trkpt>
      <trkpt lat="42.265199990943074" lon="-5.933589991182089">
        <ele>782.00800000000004</ele>
        <time>2021-07-09T08:48:52Z</time>
      </trkpt>
      <trkpt lat="42.264879969879985" lon="-5.933789983391762">
        <ele>783.08900000000006</ele>
        <time>2021-07-09T08:48:58Z</time>
      </trkpt>
      <trkpt lat="42.263410035520792" lon="-5.934549970552325">
        <ele>786.01900000000001</ele>
        <time>2021-07-09T08:49:26Z</time>
      </trkpt>
      <trkpt lat="42.258230019360781" lon="-5.937339970842004">
        <ele>796.07899999999995</ele>
        <time>2021-07-09T08:51:05Z</time>
      </trkpt>
      <trkpt lat="42.257610009983182" lon="-5.937710031867027">
        <ele>798.06799999999998</ele>
        <time>2021-07-09T08:51:17Z</time>
      </trkpt>
      <trkpt lat="42.256399998441339" lon="-5.938489967957139">
        <ele>798.04300000000001</ele>
        <time>2021-07-09T08:51:41Z</time>
      </trkpt>
      <trkpt lat="42.254710039123893" lon="-5.939620016142726">
        <ele>794.08199999999999</ele>
        <time>2021-07-09T08:52:15Z</time>
      </trkpt>
      <trkpt lat="42.25406002253294" lon="-5.940110022202134">
        <ele>792.06799999999998</ele>
        <time>2021-07-09T08:52:28Z</time>
      </trkpt>
      <trkpt lat="42.253430038690567" lon="-5.940689966082573">
        <ele>790.08399999999995</ele>
        <time>2021-07-09T08:52:42Z</time>
      </trkpt>
      <trkpt lat="42.251579985022545" lon="-5.942589975893498">
        <ele>798.06100000000004</ele>
        <time>2021-07-09T08:53:23Z</time>
      </trkpt>
      <trkpt lat="42.244110032916069" lon="-5.950130000710487">
        <ele>815.02099999999996</ele>
        <time>2021-07-09T08:56:09Z</time>
      </trkpt>
      <trkpt lat="42.237659990787506" lon="-5.956609966233373">
        <ele>836.01300000000003</ele>
        <time>2021-07-09T08:58:32Z</time>
      </trkpt>
      <trkpt lat="42.237169984728098" lon="-5.957050016149879">
        <ele>838.00800000000004</ele>
        <time>2021-07-09T08:58:42Z</time>
      </trkpt>
      <trkpt lat="42.236389964818954" lon="-5.957559971138835">
        <ele>841.03300000000002</ele>
        <time>2021-07-09T08:58:58Z</time>
      </trkpt>
      <trkpt lat="42.233350016176701" lon="-5.95915999263525">
        <ele>855.03300000000002</ele>
        <time>2021-07-09T08:59:56Z</time>
      </trkpt>
      <trkpt lat="42.231770027428865" lon="-5.960049983114004">
        <ele>869.08299999999997</ele>
        <time>2021-07-09T09:00:26Z</time>
      </trkpt>
      <trkpt lat="42.23057996481657" lon="-5.960939973592758">
        <ele>878.06200000000001</ele>
        <time>2021-07-09T09:00:51Z</time>
      </trkpt>
      <trkpt lat="42.229429967701435" lon="-5.96175997518003">
        <ele>883.04700000000003</ele>
        <time>2021-07-09T09:01:14Z</time>
      </trkpt>
      <trkpt lat="42.229199968278408" lon="-5.96188997849822">
        <ele>885.04600000000005</ele>
        <time>2021-07-09T09:01:18Z</time>
      </trkpt>
      <trkpt lat="42.228720020502806" lon="-5.962040014564991">
        <ele>889.06200000000001</ele>
        <time>2021-07-09T09:01:27Z</time>
      </trkpt>
      <trkpt lat="42.228469988331199" lon="-5.962070021778345">
        <ele>891.06799999999998</ele>
        <time>2021-07-09T09:01:31Z</time>
      </trkpt>
      <trkpt lat="42.227979982271791" lon="-5.962070021778345">
        <ele>894.01199999999994</ele>
        <time>2021-07-09T09:01:40Z</time>
      </trkpt>
      <trkpt lat="42.227240027859807" lon="-5.961970025673509">
        <ele>898.03200000000004</ele>
        <time>2021-07-09T09:01:53Z</time>
      </trkpt>
      <trkpt lat="42.2265600040555" lon="-5.961919985711575">
        <ele>900.005</ele>
        <time>2021-07-09T09:02:05Z</time>
      </trkpt>
      <trkpt lat="42.2257000207901" lon="-5.962000032886863">
        <ele>897.00800000000004</ele>
        <time>2021-07-09T09:02:21Z</time>
      </trkpt>
      <trkpt lat="42.225280003622174" lon="-5.962010007351637">
        <ele>895.09799999999996</ele>
        <time>2021-07-09T09:02:28Z</time>
      </trkpt>
      <trkpt lat="42.225070036947727" lon="-5.961989974603057">
        <ele>894.02800000000002</ele>
        <time>2021-07-09T09:02:32Z</time>
      </trkpt>
      <trkpt lat="42.22466996870935" lon="-5.961849996820092">
        <ele>892.05799999999999</ele>
        <time>2021-07-09T09:02:39Z</time>
      </trkpt>
      <trkpt lat="42.223519971594214" lon="-5.961109958589077">
        <ele>884.04700000000003</ele>
        <time>2021-07-09T09:03:02Z</time>
      </trkpt>
      <trkpt lat="42.223310004919767" lon="-5.961029995232821">
        <ele>882.01199999999994</ele>
        <time>2021-07-09T09:03:06Z</time>
      </trkpt>
      <trkpt lat="42.222880013287067" lon="-5.960939973592758">
        <ele>879.07100000000003</ele>
        <time>2021-07-09T09:03:14Z</time>
      </trkpt>
      <trkpt lat="42.222439963370562" lon="-5.96092002466321">
        <ele>876.08699999999999</ele>
        <time>2021-07-09T09:03:21Z</time>
      </trkpt>
      <trkpt lat="42.22222002223134" lon="-5.960950031876564">
        <ele>876.07299999999998</ele>
        <time>2021-07-09T09:03:25Z</time>
      </trkpt>
      <trkpt lat="42.22179003059864" lon="-5.961120016872883">
        <ele>873.04600000000005</ele>
        <time>2021-07-09T09:03:33Z</time>
      </trkpt>
      <trkpt lat="42.221389962360263" lon="-5.961369965225458">
        <ele>870.08799999999997</ele>
        <time>2021-07-09T09:03:41Z</time>
      </trkpt>
      <trkpt lat="42.221200028434396" lon="-5.961529975757003">
        <ele>868.01599999999996</ele>
        <time>2021-07-09T09:03:45Z</time>
      </trkpt>
      <trkpt lat="42.220859974622726" lon="-5.961949992924929">
        <ele>865.00800000000004</ele>
        <time>2021-07-09T09:03:53Z</time>
      </trkpt>
      <trkpt lat="42.220550011843443" lon="-5.962430024519563">
        <ele>861.07100000000003</ele>
        <time>2021-07-09T09:04:02Z</time>
      </trkpt>
      <trkpt lat="42.220420008525252" lon="-5.962700005620718">
        <ele>859.06100000000004</ele>
        <time>2021-07-09T09:04:06Z</time>
      </trkpt>
      <trkpt lat="42.220320012420416" lon="-5.962990019470453">
        <ele>857.04100000000005</ele>
        <time>2021-07-09T09:04:10Z</time>
      </trkpt>
      <trkpt lat="42.220180034637451" lon="-5.9636299777776">
        <ele>854.08000000000004</ele>
        <time>2021-07-09T09:04:19Z</time>
      </trkpt>
      <trkpt lat="42.220029998570681" lon="-5.964540001004934">
        <ele>851.01499999999999</ele>
        <time>2021-07-09T09:04:31Z</time>
      </trkpt>
      <trkpt lat="42.219869988039136" lon="-5.965079963207245">
        <ele>850.05399999999997</ele>
        <time>2021-07-09T09:04:39Z</time>
      </trkpt>
      <trkpt lat="42.219669995829463" lon="-5.965559994801879">
        <ele>848.00999999999999</ele>
        <time>2021-07-09T09:04:46Z</time>
      </trkpt>
      <trkpt lat="42.219539992511272" lon="-5.965789994224906">
        <ele>847.01599999999996</ele>
        <time>2021-07-09T09:04:50Z</time>
      </trkpt>
      <trkpt lat="42.21893004141748" lon="-5.966709991917014">
        <ele>842.05899999999997</ele>
        <time>2021-07-09T09:05:06Z</time>
      </trkpt>
      <trkpt lat="42.216629963368177" lon="-5.969790006056428">
        <ele>835.00300000000004</ele>
        <time>2021-07-09T09:06:04Z</time>
      </trkpt>
      <trkpt lat="42.216159990057349" lon="-5.970529960468411">
        <ele>834.02300000000002</ele>
        <time>2021-07-09T09:06:17Z</time>
      </trkpt>
      <trkpt lat="42.215769980102777" lon="-5.971330013126135">
        <ele>833.00800000000004</ele>
        <time>2021-07-09T09:06:29Z</time>
      </trkpt>
      <trkpt lat="42.21553998067975" lon="-5.9718999825418">
        <ele>831.03200000000004</ele>
        <time>2021-07-09T09:06:38Z</time>
      </trkpt>
      <trkpt lat="42.21513002179563" lon="-5.973049979656935">
        <ele>826.01199999999994</ele>
        <time>2021-07-09T09:06:55Z</time>
      </trkpt>
      <trkpt lat="42.214860040694475" lon="-5.973600000143051">
        <ele>823.03200000000004</ele>
        <time>2021-07-09T09:07:03Z</time>
      </trkpt>
      <trkpt lat="42.21452996134758" lon="-5.974110038951039">
        <ele>820.08100000000002</ele>
        <time>2021-07-09T09:07:12Z</time>
      </trkpt>
      <trkpt lat="42.214159984141588" lon="-5.974589986726642">
        <ele>817.03599999999994</ele>
        <time>2021-07-09T09:07:22Z</time>
      </trkpt>
      <trkpt lat="42.213560007512569" lon="-5.975260036066175">
        <ele>816.08500000000004</ele>
        <time>2021-07-09T09:07:35Z</time>
      </trkpt>
      <trkpt lat="42.212970005348325" lon="-5.975879961624742">
        <ele>818.06100000000004</ele>
        <time>2021-07-09T09:07:49Z</time>
      </trkpt>
      <trkpt lat="42.212540013715625" lon="-5.976239964365959">
        <ele>820.09699999999998</ele>
        <time>2021-07-09T09:07:58Z</time>
      </trkpt>
      <trkpt lat="42.212089989334345" lon="-5.97652000375092">
        <ele>821.02200000000005</ele>
        <time>2021-07-09T09:08:07Z</time>
      </trkpt>
      <trkpt lat="42.210449986159801" lon="-5.977389961481094">
        <ele>825.06200000000001</ele>
        <time>2021-07-09T09:08:38Z</time>
      </trkpt>
      <trkpt lat="42.210040027275681" lon="-5.977670000866056">
        <ele>827.00800000000004</ele>
        <time>2021-07-09T09:08:46Z</time>
      </trkpt>
      <trkpt lat="42.20965001732111" lon="-5.978030003607273">
        <ele>830.00800000000004</ele>
        <time>2021-07-09T09:08:54Z</time>
      </trkpt>
      <trkpt lat="42.208969993516803" lon="-5.978850005194545">
        <ele>838.029</ele>
        <time>2021-07-09T09:09:11Z</time>
      </trkpt>
      <trkpt lat="42.208709986880422" lon="-5.979330036789179">
        <ele>841.03899999999999</ele>
        <time>2021-07-09T09:09:19Z</time>
      </trkpt>
      <trkpt lat="42.208259962499142" lon="-5.980290016159415">
        <ele>842.04899999999998</ele>
        <time>2021-07-09T09:09:33Z</time>
      </trkpt>
      <trkpt lat="42.207989981397986" lon="-5.980680026113987">
        <ele>841.06799999999998</ele>
        <time>2021-07-09T09:09:41Z</time>
      </trkpt>
      <trkpt lat="42.207650011405349" lon="-5.980970039963722">
        <ele>841.01300000000003</ele>
        <time>2021-07-09T09:09:48Z</time>
      </trkpt>
      <trkpt lat="42.207250026986003" lon="-5.981189981102943">
        <ele>840.03200000000004</ele>
        <time>2021-07-09T09:09:55Z</time>
      </trkpt>
      <trkpt lat="42.206179993227124" lon="-5.981619972735643">
        <ele>838.01800000000003</ele>
        <time>2021-07-09T09:10:15Z</time>
      </trkpt>
      <trkpt lat="42.205039970576763" lon="-5.982009982690215">
        <ele>839.07399999999996</ele>
        <time>2021-07-09T09:10:36Z</time>
      </trkpt>
      <trkpt lat="42.202660012990236" lon="-5.982889998704195">
        <ele>840.09100000000001</ele>
        <time>2021-07-09T09:11:20Z</time>
      </trkpt>
      <trkpt lat="42.202309984713793" lon="-5.982989994809032">
        <ele>838.08100000000002</ele>
        <time>2021-07-09T09:11:26Z</time>
      </trkpt>
      <trkpt lat="42.201949981972575" lon="-5.983020002022386">
        <ele>834.01900000000001</ele>
        <time>2021-07-09T09:11:33Z</time>
      </trkpt>
      <trkpt lat="42.201600037515163" lon="-5.982920005917549">
        <ele>831.00800000000004</ele>
        <time>2021-07-09T09:11:39Z</time>
      </trkpt>
      <trkpt lat="42.201310023665428" lon="-5.982769969850779">
        <ele>827.05600000000004</ele>
        <time>2021-07-09T09:11:45Z</time>
      </trkpt>
      <trkpt lat="42.200599992647767" lon="-5.982330003753305">
        <ele>823.06600000000003</ele>
        <time>2021-07-09T09:11:59Z</time>
      </trkpt>
      <trkpt lat="42.200149968266487" lon="-5.981860030442476">
        <ele>822.06600000000003</ele>
        <time>2021-07-09T09:12:09Z</time>
      </trkpt>
      <trkpt lat="42.200060030445457" lon="-5.981819964945316">
        <ele>821.09500000000003</ele>
        <time>2021-07-09T09:12:10Z</time>
      </trkpt>
      <trkpt lat="42.199870012700558" lon="-5.981819964945316">
        <ele>820.01999999999998</ele>
        <time>2021-07-09T09:12:14Z</time>
      </trkpt>
      <trkpt lat="42.199429962784052" lon="-5.981919961050153">
        <ele>817.07899999999995</ele>
        <time>2021-07-09T09:12:22Z</time>
      </trkpt>
      <trkpt lat="42.198539972305298" lon="-5.982309971004725">
        <ele>815.05499999999995</ele>
        <time>2021-07-09T09:12:38Z</time>
      </trkpt>
      <trkpt lat="42.198260016739368" lon="-5.982339978218079">
        <ele>814.07100000000003</ele>
        <time>2021-07-09T09:12:43Z</time>
      </trkpt>
      <trkpt lat="42.19806999899447" lon="-5.982290022075176">
        <ele>813.08500000000004</ele>
        <time>2021-07-09T09:12:47Z</time>
      </trkpt>
      <trkpt lat="42.196320025250316" lon="-5.981640005484223">
        <ele>812.08900000000006</ele>
        <time>2021-07-09T09:13:19Z</time>
      </trkpt>
      <trkpt lat="42.195739997550845" lon="-5.981400031596422">
        <ele>811.01700000000005</ele>
        <time>2021-07-09T09:13:30Z</time>
      </trkpt>
      <trkpt lat="42.194710029289126" lon="-5.981070036068559">
        <ele>811.00800000000004</ele>
        <time>2021-07-09T09:13:49Z</time>
      </trkpt>
      <trkpt lat="42.194499978795648" lon="-5.981070036068559">
        <ele>810.06500000000005</ele>
        <time>2021-07-09T09:13:53Z</time>
      </trkpt>
      <trkpt lat="42.194290012121201" lon="-5.981110017746687">
        <ele>810.09500000000003</ele>
        <time>2021-07-09T09:13:56Z</time>
      </trkpt>
      <trkpt lat="42.193879969418049" lon="-5.981359966099262">
        <ele>810.03499999999997</ele>
        <time>2021-07-09T09:14:04Z</time>
      </trkpt>
      <trkpt lat="42.193419970571995" lon="-5.981589965522289">
        <ele>810.05399999999997</ele>
        <time>2021-07-09T09:14:13Z</time>
      </trkpt>
      <trkpt lat="42.193310000002384" lon="-5.981630031019449">
        <ele>810.08900000000006</ele>
        <time>2021-07-09T09:14:15Z</time>
      </trkpt>
      <trkpt lat="42.193080000579357" lon="-5.981649979948998">
        <ele>810.02800000000002</ele>
        <time>2021-07-09T09:14:19Z</time>
      </trkpt>
      <trkpt lat="42.192640034481883" lon="-5.981570016592741">
        <ele>809.08399999999995</ele>
        <time>2021-07-09T09:14:27Z</time>
      </trkpt>
      <trkpt lat="42.191470004618168" lon="-5.981470020487905">
        <ele>809.07000000000005</ele>
        <time>2021-07-09T09:14:48Z</time>
      </trkpt>
      <trkpt lat="42.190150022506714" lon="-5.98131000995636">
        <ele>811.09199999999998</ele>
        <time>2021-07-09T09:15:11Z</time>
      </trkpt>
      <trkpt lat="42.189609976485372" lon="-5.981300035491586">
        <ele>810.07299999999998</ele>
        <time>2021-07-09T09:15:21Z</time>
      </trkpt>
      <trkpt lat="42.189149977639318" lon="-5.981359966099262">
        <ele>809.01999999999998</ele>
        <time>2021-07-09T09:15:29Z</time>
      </trkpt>
      <trkpt lat="42.188340034335852" lon="-5.981570016592741">
        <ele>811.00800000000004</ele>
        <time>2021-07-09T09:15:44Z</time>
      </trkpt>
      <trkpt lat="42.181889992207289" lon="-5.983619978651404">
        <ele>837.02599999999995</ele>
        <time>2021-07-09T09:17:42Z</time>
      </trkpt>
      <trkpt lat="42.180349985137582" lon="-5.984079977497459">
        <ele>839.03599999999994</ele>
        <time>2021-07-09T09:18:10Z</time>
      </trkpt>
      <trkpt lat="42.175979996100068" lon="-5.985480006784201">
        <ele>840.05600000000004</ele>
        <time>2021-07-09T09:19:30Z</time>
      </trkpt>
      <trkpt lat="42.175310030579567" lon="-5.985719980672002">
        <ele>837.01499999999999</ele>
        <time>2021-07-09T09:19:42Z</time>
      </trkpt>
      <trkpt lat="42.172320038080215" lon="-5.986980032175779">
        <ele>838.09000000000003</ele>
        <time>2021-07-09T09:20:38Z</time>
      </trkpt>
      <trkpt lat="42.163340002298355" lon="-5.990860015153885">
        <ele>841.09900000000005</ele>
        <time>2021-07-09T09:23:26Z</time>
      </trkpt>
      <trkpt lat="42.158529963344336" lon="-5.992900002747774">
        <ele>840.02499999999998</ele>
        <time>2021-07-09T09:24:55Z</time>
      </trkpt>
      <trkpt lat="42.1556599996984" lon="-5.994149995967746">
        <ele>839.04100000000005</ele>
        <time>2021-07-09T09:25:49Z</time>
      </trkpt>
      <trkpt lat="42.146309986710548" lon="-5.998150007799268">
        <ele>839.03099999999995</ele>
        <time>2021-07-09T09:28:44Z</time>
      </trkpt>
      <trkpt lat="42.145879995077848" lon="-5.998370032757521">
        <ele>840.06100000000004</ele>
        <time>2021-07-09T09:28:52Z</time>
      </trkpt>
      <trkpt lat="42.145680002868176" lon="-5.998500036075711">
        <ele>841.00699999999995</ele>
        <time>2021-07-09T09:28:56Z</time>
      </trkpt>
      <trkpt lat="42.14528001844883" lon="-5.998809998854995">
        <ele>843.00800000000004</ele>
        <time>2021-07-09T09:29:04Z</time>
      </trkpt>
      <trkpt lat="42.144920015707612" lon="-5.999179976060987">
        <ele>845.02999999999997</ele>
        <time>2021-07-09T09:29:12Z</time>
      </trkpt>
      <trkpt lat="42.144439984112978" lon="-5.999829992651939">
        <ele>847.02999999999997</ele>
        <time>2021-07-09T09:29:24Z</time>
      </trkpt>
      <trkpt lat="42.143749985843897" lon="-6.000960040837526">
        <ele>850.01999999999998</ele>
        <time>2021-07-09T09:29:43Z</time>
      </trkpt>
      <trkpt lat="42.143289986997843" lon="-6.001549959182739">
        <ele>850.08900000000006</ele>
        <time>2021-07-09T09:29:55Z</time>
      </trkpt>
      <trkpt lat="42.142939958721399" lon="-6.001880038529635">
        <ele>847.03399999999999</ele>
        <time>2021-07-09T09:30:02Z</time>
      </trkpt>
      <trkpt lat="42.142580039799213" lon="-6.002159994095564">
        <ele>843.07299999999998</ele>
        <time>2021-07-09T09:30:10Z</time>
      </trkpt>
      <trkpt lat="42.142190029844642" lon="-6.002369960770011">
        <ele>838.01900000000001</ele>
        <time>2021-07-09T09:30:17Z</time>
      </trkpt>
      <trkpt lat="42.141770012676716" lon="-6.002519996836782">
        <ele>833.06500000000005</ele>
        <time>2021-07-09T09:30:25Z</time>
      </trkpt>
      <trkpt lat="42.141340021044016" lon="-6.002640025690198">
        <ele>827.09299999999996</ele>
        <time>2021-07-09T09:30:33Z</time>
      </trkpt>
      <trkpt lat="42.141110021620989" lon="-6.002670032903552">
        <ele>824.06500000000005</ele>
        <time>2021-07-09T09:30:37Z</time>
      </trkpt>
      <trkpt lat="42.140880022197962" lon="-6.002680007368326">
        <ele>822.02099999999996</ele>
        <time>2021-07-09T09:30:41Z</time>
      </trkpt>
      <trkpt lat="42.140409965068102" lon="-6.002650000154972">
        <ele>817.00800000000004</ele>
        <time>2021-07-09T09:30:49Z</time>
      </trkpt>
      <trkpt lat="42.140169991180301" lon="-6.002610018476844">
        <ele>814.096</ele>
        <time>2021-07-09T09:30:54Z</time>
      </trkpt>
      <trkpt lat="42.138919997960329" lon="-6.002310030162334">
        <ele>803.096</ele>
        <time>2021-07-09T09:31:16Z</time>
      </trkpt>
      <trkpt lat="42.136480025947094" lon="-6.001650039106607">
        <ele>788.06600000000003</ele>
        <time>2021-07-09T09:32:00Z</time>
      </trkpt>
      <trkpt lat="42.134800041094422" lon="-6.00124997086823">
        <ele>782.02499999999998</ele>
        <time>2021-07-09T09:32:31Z</time>
      </trkpt>
      <trkpt lat="42.133960006758571" lon="-6.001100018620491">
        <ele>781.01999999999998</ele>
        <time>2021-07-09T09:32:46Z</time>
      </trkpt>
      <trkpt lat="42.133409986272454" lon="-6.001049978658557">
        <ele>781.01900000000001</ele>
        <time>2021-07-09T09:32:56Z</time>
      </trkpt>
      <trkpt lat="42.130659967660904" lon="-6.000910000875592">
        <ele>782.05499999999995</ele>
        <time>2021-07-09T09:33:45Z</time>
      </trkpt>
      <trkpt lat="42.127729989588261" lon="-6.000800030305982">
        <ele>783.07100000000003</ele>
        <time>2021-07-09T09:34:37Z</time>
      </trkpt>
      <trkpt lat="42.119759973138571" lon="-6.00038998760283">
        <ele>780.01800000000003</ele>
        <time>2021-07-09T09:36:59Z</time>
      </trkpt>
      <trkpt lat="42.118460023775697" lon="-6.000289991497994">
        <ele>777.09799999999996</ele>
        <time>2021-07-09T09:37:22Z</time>
      </trkpt>
      <trkpt lat="42.11793003603816" lon="-6.000199969857931">
        <ele>775.01700000000005</ele>
        <time>2021-07-09T09:37:31Z</time>
      </trkpt>
      <trkpt lat="42.116860002279282" lon="-5.999950021505356">
        <ele>770.00800000000004</ele>
        <time>2021-07-09T09:37:51Z</time>
      </trkpt>
      <trkpt lat="42.115329969674349" lon="-5.99953000433743">
        <ele>768.05799999999999</ele>
        <time>2021-07-09T09:38:19Z</time>
      </trkpt>
      <trkpt lat="42.114399997517467" lon="-5.999070005491376">
        <ele>763.08799999999997</ele>
        <time>2021-07-09T09:38:36Z</time>
      </trkpt>
      <trkpt lat="42.111779982224107" lon="-5.997420027852058">
        <ele>758.07799999999997</ele>
        <time>2021-07-09T09:39:28Z</time>
      </trkpt>
      <trkpt lat="42.111540008336306" lon="-5.99733998067677">
        <ele>757.08699999999999</ele>
        <time>2021-07-09T09:39:32Z</time>
      </trkpt>
      <trkpt lat="42.111300034448504" lon="-5.997390020638704">
        <ele>757.072</ele>
        <time>2021-07-09T09:39:36Z</time>
      </trkpt>
      <trkpt lat="42.111089983955026" lon="-5.997399995103478">
        <ele>756.02099999999996</ele>
        <time>2021-07-09T09:39:40Z</time>
      </trkpt>
      <trkpt lat="42.110929973423481" lon="-5.997299998998642">
        <ele>756.03700000000003</ele>
        <time>2021-07-09T09:39:43Z</time>
      </trkpt>
      <trkpt lat="42.110869958996773" lon="-5.99720997735858">
        <ele>756.07299999999998</ele>
        <time>2021-07-09T09:39:45Z</time>
      </trkpt>
      <trkpt lat="42.11068999953568" lon="-5.996749978512526">
        <ele>755.05600000000004</ele>
        <time>2021-07-09T09:39:52Z</time>
      </trkpt>
      <trkpt lat="42.110550021752715" lon="-5.996570019051433">
        <ele>754.05899999999997</ele>
        <time>2021-07-09T09:39:55Z</time>
      </trkpt>
      <trkpt lat="42.110380036756396" lon="-5.996430041268468">
        <ele>753.01400000000001</ele>
        <time>2021-07-09T09:39:59Z</time>
      </trkpt>
      <trkpt lat="42.1098099835217" lon="-5.996119994670153">
        <ele>752.00800000000004</ele>
        <time>2021-07-09T09:40:10Z</time>
      </trkpt>
      <trkpt lat="42.109409999102354" lon="-5.995840039104223">
        <ele>753.01199999999994</ele>
        <time>2021-07-09T09:40:18Z</time>
      </trkpt>
      <trkpt lat="42.109179999679327" lon="-5.995720010250807">
        <ele>753.05200000000002</ele>
        <time>2021-07-09T09:40:22Z</time>
      </trkpt>
      <trkpt lat="42.108819996938109" lon="-5.995639963075519">
        <ele>752.08199999999999</ele>
        <time>2021-07-09T09:40:29Z</time>
      </trkpt>
      <trkpt lat="42.108729975298047" lon="-5.995650021359325">
        <ele>752.08100000000002</ele>
        <time>2021-07-09T09:40:30Z</time>
      </trkpt>
      <trkpt lat="42.108439961448312" lon="-5.995789999142289">
        <ele>751.08600000000001</ele>
        <time>2021-07-09T09:40:36Z</time>
      </trkpt>
      <trkpt lat="42.108220020309091" lon="-5.995850013568997">
        <ele>751.01499999999999</ele>
        <time>2021-07-09T09:40:40Z</time>
      </trkpt>
      <trkpt lat="42.108109965920448" lon="-5.995850013568997">
        <ele>750.04100000000005</ele>
        <time>2021-07-09T09:40:42Z</time>
      </trkpt>
      <trkpt lat="42.10707999765873" lon="-5.995629988610745">
        <ele>748.077</ele>
        <time>2021-07-09T09:41:00Z</time>
      </trkpt>
      <trkpt lat="42.106750002130866" lon="-5.995590006932616">
        <ele>746.02099999999996</ele>
        <time>2021-07-09T09:41:06Z</time>
      </trkpt>
      <trkpt lat="42.106499969959259" lon="-5.995590006932616">
        <ele>746.04100000000005</ele>
        <time>2021-07-09T09:41:10Z</time>
      </trkpt>
      <trkpt lat="42.104550004005432" lon="-5.995820006355643">
        <ele>743.005</ele>
        <time>2021-07-09T09:41:45Z</time>
      </trkpt>
      <trkpt lat="42.104169968515635" lon="-5.995780024677515">
        <ele>743.00800000000004</ele>
        <time>2021-07-09T09:41:52Z</time>
      </trkpt>
      <trkpt lat="42.102989964187145" lon="-5.995420021936297">
        <ele>742.03899999999999</ele>
        <time>2021-07-09T09:42:14Z</time>
      </trkpt>
      <trkpt lat="42.102159988135099" lon="-5.995230004191399">
        <ele>742.04899999999998</ele>
        <time>2021-07-09T09:42:29Z</time>
      </trkpt>
      <trkpt lat="42.101300004869699" lon="-5.995079968124628">
        <ele>744.09900000000005</ele>
        <time>2021-07-09T09:42:44Z</time>
      </trkpt>
      <trkpt lat="42.100860038772225" lon="-5.994969997555018">
        <ele>745.09799999999996</ele>
        <time>2021-07-09T09:42:52Z</time>
      </trkpt>
      <trkpt lat="42.10041998885572" lon="-5.994790038093925">
        <ele>745.07299999999998</ele>
        <time>2021-07-09T09:43:00Z</time>
      </trkpt>
      <trkpt lat="42.09998999722302" lon="-5.994579987600446">
        <ele>746.03200000000004</ele>
        <time>2021-07-09T09:43:08Z</time>
      </trkpt>
      <trkpt lat="42.096730023622513" lon="-5.992879969999194">
        <ele>750.03800000000001</ele>
        <time>2021-07-09T09:44:10Z</time>
      </trkpt>
      <trkpt lat="42.096379995346069" lon="-5.992800006642938">
        <ele>749.08399999999995</ele>
        <time>2021-07-09T09:44:17Z</time>
      </trkpt>
      <trkpt lat="42.096070032566786" lon="-5.992939984425902">
        <ele>748.09900000000005</ele>
        <time>2021-07-09T09:44:23Z</time>
      </trkpt>
      <trkpt lat="42.095769960433245" lon="-5.993179958313704">
        <ele>748.00699999999995</ele>
        <time>2021-07-09T09:44:29Z</time>
      </trkpt>
      <trkpt lat="42.095429990440607" lon="-5.993399983271956">
        <ele>747.02700000000004</ele>
        <time>2021-07-09T09:44:36Z</time>
      </trkpt>
      <trkpt lat="42.095250030979514" lon="-5.993480030447245">
        <ele>747.00800000000004</ele>
        <time>2021-07-09T09:44:39Z</time>
      </trkpt>
      <trkpt lat="42.094070026651025" lon="-5.993899963796139">
        <ele>743.03599999999994</ele>
        <time>2021-07-09T09:45:01Z</time>
      </trkpt>
      <trkpt lat="42.092700004577637" lon="-5.994349988177419">
        <ele>742.04600000000005</ele>
        <time>2021-07-09T09:45:26Z</time>
      </trkpt>
      <trkpt lat="42.092140009626746" lon="-5.9946099948138">
        <ele>741.01599999999996</ele>
        <time>2021-07-09T09:45:36Z</time>
      </trkpt>
      <trkpt lat="42.09158998914063" lon="-5.995009979233146">
        <ele>741.09500000000003</ele>
        <time>2021-07-09T09:45:47Z</time>
      </trkpt>
      <trkpt lat="42.087299963459373" lon="-5.998549992218614">
        <ele>736.02999999999997</ele>
        <time>2021-07-09T09:47:17Z</time>
      </trkpt>
      <trkpt lat="42.086969967931509" lon="-5.998909994959831">
        <ele>735.04899999999998</ele>
        <time>2021-07-09T09:47:24Z</time>
      </trkpt>
      <trkpt lat="42.086829990148544" lon="-5.999130019918084">
        <ele>735.08500000000004</ele>
        <time>2021-07-09T09:47:28Z</time>
      </trkpt>
      <trkpt lat="42.086230013519526" lon="-6.00038998760283">
        <ele>733.04100000000005</ele>
        <time>2021-07-09T09:47:48Z</time>
      </trkpt>
      <trkpt lat="42.085649985820055" lon="-6.00137997418642">
        <ele>732.03700000000003</ele>
        <time>2021-07-09T09:48:05Z</time>
      </trkpt>
      <trkpt lat="42.085129972547293" lon="-6.002350011840463">
        <ele>732.04899999999998</ele>
        <time>2021-07-09T09:48:20Z</time>
      </trkpt>
      <trkpt lat="42.08505998365581" lon="-6.002740021795034">
        <ele>732.01300000000003</ele>
        <time>2021-07-09T09:48:26Z</time>
      </trkpt>
      <trkpt lat="42.084869965910912" lon="-6.003379980102181">
        <ele>732.00800000000004</ele>
        <time>2021-07-09T09:48:35Z</time>
      </trkpt>
      <trkpt lat="42.08465002477169" lon="-6.003939975053072">
        <ele>732.05999999999995</ele>
        <time>2021-07-09T09:48:43Z</time>
      </trkpt>
      <trkpt lat="42.084299996495247" lon="-6.004699962213635">
        <ele>733.00999999999999</ele>
        <time>2021-07-09T09:48:55Z</time>
      </trkpt>
      <trkpt lat="42.084039989858866" lon="-6.005149986594915">
        <ele>734.02999999999997</ele>
        <time>2021-07-09T09:49:03Z</time>
      </trkpt>
      <trkpt lat="42.08374997600913" lon="-6.005570003762841">
        <ele>734.03899999999999</ele>
        <time>2021-07-09T09:49:10Z</time>
      </trkpt>
      <trkpt lat="42.08230996504426" lon="-6.007319977506995">
        <ele>734.024</ele>
        <time>2021-07-09T09:49:45Z</time>
      </trkpt>
      <trkpt lat="42.081860024482012" lon="-6.007920037955046">
        <ele>735.04300000000001</ele>
        <time>2021-07-09T09:49:56Z</time>
      </trkpt>
      <trkpt lat="42.081679981201887" lon="-6.008079964667559">
        <ele>735.06899999999996</ele>
        <time>2021-07-09T09:50:00Z</time>
      </trkpt>
      <trkpt lat="42.081089979037642" lon="-6.008889991790056">
        <ele>735.07500000000005</ele>
        <time>2021-07-09T09:50:15Z</time>
      </trkpt>
      <trkpt lat="42.080209963023663" lon="-6.009930018335581">
        <ele>737.09699999999998</ele>
        <time>2021-07-09T09:50:36Z</time>
      </trkpt>
      <trkpt lat="42.079029958695173" lon="-6.011459967121482">
        <ele>741.02300000000002</ele>
        <time>2021-07-09T09:51:05Z</time>
      </trkpt>
      <trkpt lat="42.078510029241443" lon="-6.012039994820952">
        <ele>742.02499999999998</ele>
        <time>2021-07-09T09:51:17Z</time>
      </trkpt>
      <trkpt lat="42.078069979324937" lon="-6.012639971449971">
        <ele>743.00800000000004</ele>
        <time>2021-07-09T09:51:28Z</time>
      </trkpt>
      <trkpt lat="42.077600006014109" lon="-6.013120003044605">
        <ele>741.06600000000003</ele>
        <time>2021-07-09T09:51:38Z</time>
      </trkpt>
      <trkpt lat="42.077100025489926" lon="-6.013749986886978">
        <ele>740.03599999999994</ele>
        <time>2021-07-09T09:51:51Z</time>
      </trkpt>
      <trkpt lat="42.076910007745028" lon="-6.013889964669943">
        <ele>740.03599999999994</ele>
        <time>2021-07-09T09:51:54Z</time>
      </trkpt>
      <trkpt lat="42.07609998062253" lon="-6.014360021799803">
        <ele>741.07500000000005</ele>
        <time>2021-07-09T09:52:10Z</time>
      </trkpt>
      <trkpt lat="42.075920021161437" lon="-6.014439985156059">
        <ele>741.02999999999997</ele>
        <time>2021-07-09T09:52:13Z</time>
      </trkpt>
      <trkpt lat="42.075330018997192" lon="-6.01456998847425">
        <ele>742.05899999999997</ele>
        <time>2021-07-09T09:52:24Z</time>
      </trkpt>
      <trkpt lat="42.074940009042621" lon="-6.014620028436184">
        <ele>743.01499999999999</ele>
        <time>2021-07-09T09:52:31Z</time>
      </trkpt>
      <trkpt lat="42.074470035731792" lon="-6.014639977365732">
        <ele>742.08100000000002</ele>
        <time>2021-07-09T09:52:39Z</time>
      </trkpt>
      <trkpt lat="42.073460016399622" lon="-6.014829995110631">
        <ele>743.01400000000001</ele>
        <time>2021-07-09T09:52:58Z</time>
      </trkpt>
      <trkpt lat="42.072570025920868" lon="-6.01515001617372">
        <ele>746.05399999999997</ele>
        <time>2021-07-09T09:53:14Z</time>
      </trkpt>
      <trkpt lat="42.07208001986146" lon="-6.015220005065203">
        <ele>747.00900000000001</ele>
        <time>2021-07-09T09:53:23Z</time>
      </trkpt>
      <trkpt lat="42.071920009329915" lon="-6.015210030600429">
        <ele>747.00800000000004</ele>
        <time>2021-07-09T09:53:26Z</time>
      </trkpt>
      <trkpt lat="42.071850020438433" lon="-6.015159990638495">
        <ele>747.07799999999997</ele>
        <time>2021-07-09T09:53:27Z</time>
      </trkpt>
      <trkpt lat="42.071750024333596" lon="-6.01502001285553">
        <ele>748.03800000000001</ele>
        <time>2021-07-09T09:53:30Z</time>
      </trkpt>
      <trkpt lat="42.07162999548018" lon="-6.014430010691285">
        <ele>748.09799999999996</ele>
        <time>2021-07-09T09:53:38Z</time>
      </trkpt>
      <trkpt lat="42.071550032123923" lon="-6.014260025694966">
        <ele>748.04700000000003</ele>
        <time>2021-07-09T09:53:40Z</time>
      </trkpt>
      <trkpt lat="42.071399996057153" lon="-6.014190036803484">
        <ele>749.072</ele>
        <time>2021-07-09T09:53:43Z</time>
      </trkpt>
      <trkpt lat="42.071230011060834" lon="-6.014200011268258">
        <ele>750.05100000000004</ele>
        <time>2021-07-09T09:53:46Z</time>
      </trkpt>
      <trkpt lat="42.07087998278439" lon="-6.01427000015974">
        <ele>751.077</ele>
        <time>2021-07-09T09:53:52Z</time>
      </trkpt>
      <trkpt lat="42.070670016109943" lon="-6.01427000015974">
        <ele>750.03300000000002</ele>
        <time>2021-07-09T09:53:56Z</time>
      </trkpt>
      <trkpt lat="42.07047002390027" lon="-6.014239992946386">
        <ele>749.07799999999997</ele>
        <time>2021-07-09T09:54:00Z</time>
      </trkpt>
      <trkpt lat="42.069450030103326" lon="-6.013789968565106">
        <ele>745.03300000000002</ele>
        <time>2021-07-09T09:54:19Z</time>
      </trkpt>
      <trkpt lat="42.068619970232248" lon="-6.013610009104013">
        <ele>741.02599999999995</ele>
        <time>2021-07-09T09:54:34Z</time>
      </trkpt>
      <trkpt lat="42.066059969365597" lon="-6.013219999149442">
        <ele>740.00800000000004</ele>
        <time>2021-07-09T09:55:20Z</time>
      </trkpt>
      <trkpt lat="42.065680017694831" lon="-6.013140035793185">
        <ele>740.06399999999996</ele>
        <time>2021-07-09T09:55:26Z</time>
      </trkpt>
      <trkpt lat="42.065080041065812" lon="-6.012969966977835">
        <ele>738.06399999999996</ele>
        <time>2021-07-09T09:55:37Z</time>
      </trkpt>
      <trkpt lat="42.064040014520288" lon="-6.012629996985197">
        <ele>736.06399999999996</ele>
        <time>2021-07-09T09:55:56Z</time>
      </trkpt>
      <trkpt lat="42.062929999083281" lon="-6.012220038101077">
        <ele>737.04300000000001</ele>
        <time>2021-07-09T09:56:17Z</time>
      </trkpt>
      <trkpt lat="42.060400005429983" lon="-6.011359971016645">
        <ele>743.03800000000001</ele>
        <time>2021-07-09T09:57:03Z</time>
      </trkpt>
      <trkpt lat="42.059949981048703" lon="-6.011280007660389">
        <ele>744.077</ele>
        <time>2021-07-09T09:57:11Z</time>
      </trkpt>
      <trkpt lat="42.059500040486455" lon="-6.011280007660389">
        <ele>745.08299999999997</ele>
        <time>2021-07-09T09:57:19Z</time>
      </trkpt>
      <trkpt lat="42.058320036157966" lon="-6.011359971016645">
        <ele>747.05899999999997</ele>
        <time>2021-07-09T09:57:40Z</time>
      </trkpt>
      <trkpt lat="42.05396999605" lon="-6.011900017037988">
        <ele>759.08900000000006</ele>
        <time>2021-07-09T09:58:58Z</time>
      </trkpt>
      <trkpt lat="42.053730022162199" lon="-6.011939998716116">
        <ele>761.00599999999997</ele>
        <time>2021-07-09T09:59:02Z</time>
      </trkpt>
      <trkpt lat="42.05209999345243" lon="-6.01237996481359">
        <ele>771.02599999999995</ele>
        <time>2021-07-09T09:59:32Z</time>
      </trkpt>
      <trkpt lat="42.051860019564629" lon="-6.01242003031075">
        <ele>771.00800000000004</ele>
        <time>2021-07-09T09:59:36Z</time>
      </trkpt>
      <trkpt lat="42.05137001350522" lon="-6.01239999756217">
        <ele>773.04499999999996</ele>
        <time>2021-07-09T09:59:45Z</time>
      </trkpt>
      <trkpt lat="42.050880007445812" lon="-6.012330008670688">
        <ele>774.05499999999995</ele>
        <time>2021-07-09T09:59:54Z</time>
      </trkpt>
      <trkpt lat="42.050129994750023" lon="-6.012209979817271">
        <ele>774.06500000000005</ele>
        <time>2021-07-09T10:00:07Z</time>
      </trkpt>
      <trkpt lat="42.048880001530051" lon="-6.01194997318089">
        <ele>775.04399999999998</ele>
        <time>2021-07-09T10:00:30Z</time>
      </trkpt>
      <trkpt lat="42.048139963299036" lon="-6.01186003535986">
        <ele>775.07899999999995</ele>
        <time>2021-07-09T10:00:43Z</time>
      </trkpt>
      <trkpt lat="42.046570032835007" lon="-6.011900017037988">
        <ele>775.07799999999997</ele>
        <time>2021-07-09T10:01:11Z</time>
      </trkpt>
      <trkpt lat="42.043019961565733" lon="-6.012149965390563">
        <ele>773.01400000000001</ele>
        <time>2021-07-09T10:02:14Z</time>
      </trkpt>
      <trkpt lat="42.038709986954927" lon="-6.012390023097396">
        <ele>775.02999999999997</ele>
        <time>2021-07-09T10:03:31Z</time>
      </trkpt>
      <trkpt lat="42.03749000094831" lon="-6.012490019202232">
        <ele>774.03399999999999</ele>
        <time>2021-07-09T10:03:53Z</time>
      </trkpt>
      <trkpt lat="42.035380024462938" lon="-6.012729993090034">
        <ele>775.05499999999995</ele>
        <time>2021-07-09T10:04:30Z</time>
      </trkpt>
      <trkpt lat="42.031830037012696" lon="-6.013180017471314">
        <ele>773.00999999999999</ele>
        <time>2021-07-09T10:05:34Z</time>
      </trkpt>
      <trkpt lat="42.031069966033101" lon="-6.013340028002858">
        <ele>774.00800000000004</ele>
        <time>2021-07-09T10:05:48Z</time>
      </trkpt>
      <trkpt lat="42.029749983921647" lon="-6.013759961351752">
        <ele>774.09000000000003</ele>
        <time>2021-07-09T10:06:12Z</time>
      </trkpt>
      <trkpt lat="42.028399994596839" lon="-6.01427000015974">
        <ele>772.08000000000004</ele>
        <time>2021-07-09T10:06:37Z</time>
      </trkpt>
      <trkpt lat="42.024810025468469" lon="-6.01587999612093">
        <ele>775.03999999999996</ele>
        <time>2021-07-09T10:07:44Z</time>
      </trkpt>
      <trkpt lat="42.024260004982352" lon="-6.016070013865829">
        <ele>774.01900000000001</ele>
        <time>2021-07-09T10:07:54Z</time>
      </trkpt>
      <trkpt lat="42.02371995896101" lon="-6.016170009970665">
        <ele>774.03399999999999</ele>
        <time>2021-07-09T10:08:04Z</time>
      </trkpt>
      <trkpt lat="42.022640034556389" lon="-6.016339994966984">
        <ele>775.04300000000001</ele>
        <time>2021-07-09T10:08:23Z</time>
      </trkpt>
      <trkpt lat="42.021579975262284" lon="-6.01641995832324">
        <ele>774.08900000000006</ele>
        <time>2021-07-09T10:08:42Z</time>
      </trkpt>
      <trkpt lat="42.020800039172173" lon="-6.016400009393692">
        <ele>775.07500000000005</ele>
        <time>2021-07-09T10:08:56Z</time>
      </trkpt>
      <trkpt lat="42.019070014357567" lon="-6.016279980540276">
        <ele>775.08399999999995</ele>
        <time>2021-07-09T10:09:27Z</time>
      </trkpt>
      <trkpt lat="42.018359983339906" lon="-6.01633002050221">
        <ele>775.00699999999995</ele>
        <time>2021-07-09T10:09:39Z</time>
      </trkpt>
      <trkpt lat="42.017890010029078" lon="-6.0164600238204">
        <ele>775.01700000000005</ele>
        <time>2021-07-09T10:09:48Z</time>
      </trkpt>
      <trkpt lat="42.015629997476935" lon="-6.017389995977283">
        <ele>775.00800000000004</ele>
        <time>2021-07-09T10:10:30Z</time>
      </trkpt>
      <trkpt lat="42.01520998030901" lon="-6.017510024830699">
        <ele>774.05499999999995</ele>
        <time>2021-07-09T10:10:38Z</time>
      </trkpt>
      <trkpt lat="42.014530040323734" lon="-6.01759996265173">
        <ele>774.05499999999995</ele>
        <time>2021-07-09T10:10:50Z</time>
      </trkpt>
      <trkpt lat="42.013360010460019" lon="-6.017680009827018">
        <ele>774.09500000000003</ele>
        <time>2021-07-09T10:11:11Z</time>
      </trkpt>
      <trkpt lat="42.012189980596304" lon="-6.017699958756566">
        <ele>774.05399999999997</ele>
        <time>2021-07-09T10:11:31Z</time>
      </trkpt>
      <trkpt lat="42.010589959099889" lon="-6.017689984291792">
        <ele>774.01900000000001</ele>
        <time>2021-07-09T10:12:00Z</time>
      </trkpt>
      <trkpt lat="42.009359998628497" lon="-6.017719991505146">
        <ele>773.01800000000003</ele>
        <time>2021-07-09T10:12:22Z</time>
      </trkpt>
      <trkpt lat="42.008969988673925" lon="-6.017740024253726">
        <ele>772.08399999999995</ele>
        <time>2021-07-09T10:12:29Z</time>
      </trkpt>
      <trkpt lat="42.008490040898323" lon="-6.017810013145208">
        <ele>771.03999999999996</ele>
        <time>2021-07-09T10:12:37Z</time>
      </trkpt>
      <trkpt lat="42.008230034261942" lon="-6.017910009250045">
        <ele>770.08900000000006</ele>
        <time>2021-07-09T10:12:42Z</time>
      </trkpt>
      <trkpt lat="42.007970027625561" lon="-6.018059961497784">
        <ele>769.00599999999997</ele>
        <time>2021-07-09T10:12:47Z</time>
      </trkpt>
      <trkpt lat="42.007740028202534" lon="-6.018260037526488">
        <ele>768.02599999999995</ele>
        <time>2021-07-09T10:12:52Z</time>
      </trkpt>
      <trkpt lat="42.007510028779507" lon="-6.018470004200935">
        <ele>767.00800000000004</ele>
        <time>2021-07-09T10:12:57Z</time>
      </trkpt>
      <trkpt lat="42.006549965590239" lon="-6.019569961354137">
        <ele>762.04499999999996</ele>
        <time>2021-07-09T10:13:19Z</time>
      </trkpt>
      <trkpt lat="42.006040010601282" lon="-6.020059967413545">
        <ele>762.02499999999998</ele>
        <time>2021-07-09T10:13:31Z</time>
      </trkpt>
      <trkpt lat="42.005269965156913" lon="-6.020660027861595">
        <ele>759.06500000000005</ele>
        <time>2021-07-09T10:13:46Z</time>
      </trkpt>
      <trkpt lat="42.004920020699501" lon="-6.020900001749396">
        <ele>757.06399999999996</ele>
        <time>2021-07-09T10:13:53Z</time>
      </trkpt>
      <trkpt lat="42.004219964146614" lon="-6.021469971165061">
        <ele>756.05899999999997</ele>
        <time>2021-07-09T10:14:08Z</time>
      </trkpt>
      <trkpt lat="42.004040004685521" lon="-6.021669963374734">
        <ele>754.02800000000002</ele>
        <time>2021-07-09T10:14:12Z</time>
      </trkpt>
      <trkpt lat="42.003879994153976" lon="-6.022010017186403">
        <ele>753.07399999999996</ele>
        <time>2021-07-09T10:14:17Z</time>
      </trkpt>
      <trkpt lat="42.003810005262494" lon="-6.022070031613112">
        <ele>753.02999999999997</ele>
        <time>2021-07-09T10:14:19Z</time>
      </trkpt>
      <trkpt lat="42.003689976409078" lon="-6.022059973329306">
        <ele>753.096</ele>
        <time>2021-07-09T10:14:21Z</time>
      </trkpt>
      <trkpt lat="42.00332997366786" lon="-6.021929970011115">
        <ele>752.03099999999995</ele>
        <time>2021-07-09T10:14:28Z</time>
      </trkpt>
      <trkpt lat="42.002750029787421" lon="-6.021889988332987">
        <ele>750.024</ele>
        <time>2021-07-09T10:14:38Z</time>
      </trkpt>
      <trkpt lat="42.002539979293942" lon="-6.021850006654859">
        <ele>749.00800000000004</ele>
        <time>2021-07-09T10:14:42Z</time>
      </trkpt>
      <trkpt lat="42.00203999876976" lon="-6.021620007231832">
        <ele>744.02599999999995</ele>
        <time>2021-07-09T10:14:51Z</time>
      </trkpt>
      <trkpt lat="42.001759959384799" lon="-6.02138003334403">
        <ele>742.08600000000001</ele>
        <time>2021-07-09T10:14:57Z</time>
      </trkpt>
      <trkpt lat="42.001170041039586" lon="-6.020619962364435">
        <ele>739.02599999999995</ele>
        <time>2021-07-09T10:15:12Z</time>
      </trkpt>
      <trkpt lat="42.0002799667418" lon="-6.019580019637942">
        <ele>736.06500000000005</ele>
        <time>2021-07-09T10:15:33Z</time>
      </trkpt>
      <trkpt lat="42.00019002892077" lon="-6.019390001893044">
        <ele>736.00999999999999</ele>
        <time>2021-07-09T10:15:36Z</time>
      </trkpt>
      <trkpt lat="42.000109981745481" lon="-6.019069980829954">
        <ele>737.06899999999996</ele>
        <time>2021-07-09T10:15:40Z</time>
      </trkpt>
      <trkpt lat="41.999909989535809" lon="-6.017629969865084">
        <ele>738.04499999999996</ele>
        <time>2021-07-09T10:15:59Z</time>
      </trkpt>
      <trkpt lat="41.999860033392906" lon="-6.017559980973601">
        <ele>737.06100000000004</ele>
        <time>2021-07-09T10:16:01Z</time>
      </trkpt>
      <trkpt lat="41.999789960682392" lon="-6.017519999295473">
        <ele>737.06799999999998</ele>
        <time>2021-07-09T10:16:02Z</time>
      </trkpt>
      <trkpt lat="41.999709997326136" lon="-6.017550006508827">
        <ele>736.04200000000003</ele>
        <time>2021-07-09T10:16:03Z</time>
      </trkpt>
      <trkpt lat="41.999600026756525" lon="-6.01772996596992">
        <ele>736.02599999999995</ele>
        <time>2021-07-09T10:16:07Z</time>
      </trkpt>
      <trkpt lat="41.999519979581237" lon="-6.018209997564554">
        <ele>735.00800000000004</ele>
        <time>2021-07-09T10:16:13Z</time>
      </trkpt>
      <trkpt lat="41.999370027333498" lon="-6.018720036372542">
        <ele>735.02300000000002</ele>
        <time>2021-07-09T10:16:20Z</time>
      </trkpt>
      <trkpt lat="41.99888002127409" lon="-6.019740030169487">
        <ele>735.01300000000003</ele>
        <time>2021-07-09T10:16:36Z</time>
      </trkpt>
      <trkpt lat="41.998169990256429" lon="-6.02093000896275">
        <ele>734.09299999999996</ele>
        <time>2021-07-09T10:16:57Z</time>
      </trkpt>
      <trkpt lat="41.997949965298176" lon="-6.02136000059545">
        <ele>734.04200000000003</ele>
        <time>2021-07-09T10:17:03Z</time>
      </trkpt>
      <trkpt lat="41.997770005837083" lon="-6.021880013868213">
        <ele>733.08699999999999</ele>
        <time>2021-07-09T10:17:11Z</time>
      </trkpt>
      <trkpt lat="41.997589962556958" lon="-6.022229958325625">
        <ele>733.04600000000005</ele>
        <time>2021-07-09T10:17:17Z</time>
      </trkpt>
      <trkpt lat="41.996390009298921" lon="-6.024890039116144">
        <ele>733.09199999999998</ele>
        <time>2021-07-09T10:17:58Z</time>
      </trkpt>
      <trkpt lat="41.996060013771057" lon="-6.025739964097738">
        <ele>734.05799999999999</ele>
        <time>2021-07-09T10:18:10Z</time>
      </trkpt>
      <trkpt lat="41.996060013771057" lon="-6.025739964097738">
        <ele>734.05799999999999</ele>
        <time>2021-07-09T10:18:10Z</time>
      </trkpt>
      <trkpt lat="41.995709985494614" lon="-6.026779990643263">
        <ele>735.06200000000001</ele>
        <time>2021-07-09T10:18:26Z</time>
      </trkpt>
      <trkpt lat="41.995130041614175" lon="-6.02829996496439">
        <ele>736.08299999999997</ele>
        <time>2021-07-09T10:18:48Z</time>
      </trkpt>
      <trkpt lat="41.993879964575171" lon="-6.031980039551854">
        <ele>737.01099999999997</ele>
        <time>2021-07-09T10:19:42Z</time>
      </trkpt>
      <trkpt lat="41.993370009586215" lon="-6.033330028876662">
        <ele>739.00800000000004</ele>
        <time>2021-07-09T10:20:02Z</time>
      </trkpt>
      <trkpt lat="41.993300020694733" lon="-6.033349977806211">
        <ele>739.07299999999998</ele>
        <time>2021-07-09T10:20:03Z</time>
      </trkpt>
      <trkpt lat="41.993010006844997" lon="-6.033119978383184">
        <ele>737.02300000000002</ele>
        <time>2021-07-09T10:20:09Z</time>
      </trkpt>
      <trkpt lat="41.9909100048244" lon="-6.031750040128827">
        <ele>733.07299999999998</ele>
        <time>2021-07-09T10:20:50Z</time>
      </trkpt>
      <trkpt lat="41.989950025454164" lon="-6.031100023537874">
        <ele>733.05200000000002</ele>
        <time>2021-07-09T10:21:10Z</time>
      </trkpt>
      <trkpt lat="41.989760007709265" lon="-6.03094001300633">
        <ele>733.09699999999998</ele>
        <time>2021-07-09T10:21:14Z</time>
      </trkpt>
      <trkpt lat="41.98788003064692" lon="-6.029709968715906">
        <ele>733.04600000000005</ele>
        <time>2021-07-09T10:21:51Z</time>
      </trkpt>
      <trkpt lat="41.985980020835996" lon="-6.02842996828258">
        <ele>733.09199999999998</ele>
        <time>2021-07-09T10:22:29Z</time>
      </trkpt>
      <trkpt lat="41.985780028626323" lon="-6.028310023248196">
        <ele>733.05799999999999</ele>
        <time>2021-07-09T10:22:33Z</time>
      </trkpt>
      <trkpt lat="41.985369985923171" lon="-6.028140038251877">
        <ele>733.02499999999998</ele>
        <time>2021-07-09T10:22:40Z</time>
      </trkpt>
      <trkpt lat="41.985169993713498" lon="-6.028099972754717">
        <ele>734.02599999999995</ele>
        <time>2021-07-09T10:22:44Z</time>
      </trkpt>
      <trkpt lat="41.984760034829378" lon="-6.028099972754717">
        <ele>733.00800000000004</ele>
        <time>2021-07-09T10:22:51Z</time>
      </trkpt>
      <trkpt lat="41.984559958800673" lon="-6.028129979968071">
        <ele>733.00800000000004</ele>
        <time>2021-07-09T10:22:55Z</time>
      </trkpt>
      <trkpt lat="41.984189981594682" lon="-6.028240034356713">
        <ele>733.09900000000005</ele>
        <time>2021-07-09T10:23:01Z</time>
      </trkpt>
      <trkpt lat="41.983069991692901" lon="-6.028830036520958">
        <ele>732.06899999999996</ele>
        <time>2021-07-09T10:23:23Z</time>
      </trkpt>
      <trkpt lat="41.98250999674201" lon="-6.029089959338307">
        <ele>731.04899999999998</ele>
        <time>2021-07-09T10:23:33Z</time>
      </trkpt>
      <trkpt lat="41.982000041753054" lon="-6.029360024258494">
        <ele>730.06799999999998</ele>
        <time>2021-07-09T10:23:43Z</time>
      </trkpt>
      <trkpt lat="41.980549972504377" lon="-6.03003996424377">
        <ele>734.053</ele>
        <time>2021-07-09T10:24:10Z</time>
      </trkpt>
      <trkpt lat="41.980040017515421" lon="-6.030369959771633">
        <ele>733.06200000000001</ele>
        <time>2021-07-09T10:24:20Z</time>
      </trkpt>
      <trkpt lat="41.979699963703752" lon="-6.030659973621368">
        <ele>733.02800000000002</ele>
        <time>2021-07-09T10:24:28Z</time>
      </trkpt>
      <trkpt lat="41.978590032085776" lon="-6.031490033492446">
        <ele>734.08399999999995</ele>
        <time>2021-07-09T10:24:50Z</time>
      </trkpt>
      <trkpt lat="41.977700041607022" lon="-6.032080035656691">
        <ele>734.02599999999995</ele>
        <time>2021-07-09T10:25:08Z</time>
      </trkpt>
      <trkpt lat="41.977340038865805" lon="-6.032250020653009">
        <ele>734.04700000000003</ele>
        <time>2021-07-09T10:25:15Z</time>
      </trkpt>
      <trkpt lat="41.976549960672855" lon="-6.032429980114102">
        <ele>734.01099999999997</ele>
        <time>2021-07-09T10:25:29Z</time>
      </trkpt>
      <trkpt lat="41.973610008135438" lon="-6.033189967274666">
        <ele>737.00800000000004</ele>
        <time>2021-07-09T10:26:22Z</time>
      </trkpt>
      <trkpt lat="41.973299961537123" lon="-6.033289963379502">
        <ele>738.03899999999999</ele>
        <time>2021-07-09T10:26:28Z</time>
      </trkpt>
      <trkpt lat="41.973180016502738" lon="-6.033400017768145">
        <ele>738.03899999999999</ele>
        <time>2021-07-09T10:26:30Z</time>
      </trkpt>
      <trkpt lat="41.973089994862676" lon="-6.033560028299689">
        <ele>738.06899999999996</ele>
        <time>2021-07-09T10:26:33Z</time>
      </trkpt>
      <trkpt lat="41.973020005971193" lon="-6.033609984442592">
        <ele>738.01800000000003</ele>
        <time>2021-07-09T10:26:34Z</time>
      </trkpt>
      <trkpt lat="41.972750024870038" lon="-6.033570002764463">
        <ele>737.07299999999998</ele>
        <time>2021-07-09T10:26:39Z</time>
      </trkpt>
      <trkpt lat="41.972650028765202" lon="-6.033600009977818">
        <ele>737.09199999999998</ele>
        <time>2021-07-09T10:26:41Z</time>
      </trkpt>
      <trkpt lat="41.971840001642704" lon="-6.034150030463934">
        <ele>740.07799999999997</ele>
        <time>2021-07-09T10:26:57Z</time>
      </trkpt>
      <trkpt lat="41.970920003950596" lon="-6.034880010411143">
        <ele>740.04399999999998</ele>
        <time>2021-07-09T10:27:16Z</time>
      </trkpt>
      <trkpt lat="41.969419978559017" lon="-6.035930011421442">
        <ele>741.03800000000001</ele>
        <time>2021-07-09T10:27:46Z</time>
      </trkpt>
      <trkpt lat="41.969159971922636" lon="-6.036139978095889">
        <ele>741.07000000000005</ele>
        <time>2021-07-09T10:27:52Z</time>
      </trkpt>
      <trkpt lat="41.969040026888251" lon="-6.03626998141408">
        <ele>741.01700000000005</ele>
        <time>2021-07-09T10:27:55Z</time>
      </trkpt>
      <trkpt lat="41.968840034678578" lon="-6.036599976941943">
        <ele>740.00800000000004</ele>
        <time>2021-07-09T10:28:00Z</time>
      </trkpt>
      <trkpt lat="41.967960018664598" lon="-6.038250038400292">
        <ele>742.09000000000003</ele>
        <time>2021-07-09T10:28:27Z</time>
      </trkpt>
      <trkpt lat="41.967230038717389" lon="-6.039229966700077">
        <ele>743.02999999999997</ele>
        <time>2021-07-09T10:28:45Z</time>
      </trkpt>
      <trkpt lat="41.967059969902039" lon="-6.039419984444976">
        <ele>743.00999999999999</ele>
        <time>2021-07-09T10:28:49Z</time>
      </trkpt>
      <trkpt lat="41.965460032224655" lon="-6.04078003205359">
        <ele>746.07899999999995</ele>
        <time>2021-07-09T10:29:23Z</time>
      </trkpt>
      <trkpt lat="41.964610023424029" lon="-6.041529960930347">
        <ele>747.01400000000001</ele>
        <time>2021-07-09T10:29:41Z</time>
      </trkpt>
      <trkpt lat="41.963530015200377" lon="-6.042530005797744">
        <ele>748.07299999999998</ele>
        <time>2021-07-09T10:30:04Z</time>
      </trkpt>
      <trkpt lat="41.96284999139607" lon="-6.043090000748634">
        <ele>749.01900000000001</ele>
        <time>2021-07-09T10:30:19Z</time>
      </trkpt>
      <trkpt lat="41.961750034242868" lon="-6.044079987332225">
        <ele>749.02499999999998</ele>
        <time>2021-07-09T10:30:42Z</time>
      </trkpt>
      <trkpt lat="41.959249963983893" lon="-6.046249978244305">
        <ele>753.01800000000003</ele>
        <time>2021-07-09T10:31:35Z</time>
      </trkpt>
      <trkpt lat="41.958800023421645" lon="-6.046720035374165">
        <ele>753.09799999999996</ele>
        <time>2021-07-09T10:31:45Z</time>
      </trkpt>
      <trkpt lat="41.95808001793921" lon="-6.047380026429892">
        <ele>754.01700000000005</ele>
        <time>2021-07-09T10:32:01Z</time>
      </trkpt>
      <trkpt lat="41.956370025873184" lon="-6.048849960789084">
        <ele>761.00800000000004</ele>
        <time>2021-07-09T10:32:37Z</time>
      </trkpt>
      <trkpt lat="41.954440008848906" lon="-6.050609992817044">
        <ele>769.048</ele>
        <time>2021-07-09T10:33:18Z</time>
      </trkpt>
      <trkpt lat="41.954180002212524" lon="-6.050749970600009">
        <ele>771.05799999999999</ele>
        <time>2021-07-09T10:33:23Z</time>
      </trkpt>
      <trkpt lat="41.95329001173377" lon="-6.051650019362569">
        <ele>780.09799999999996</ele>
        <time>2021-07-09T10:33:43Z</time>
      </trkpt>
      <trkpt lat="41.951599968597293" lon="-6.053160019218922">
        <ele>797.05700000000002</ele>
        <time>2021-07-09T10:34:19Z</time>
      </trkpt>
      <trkpt lat="41.949989972636104" lon="-6.054679993540049">
        <ele>800.06200000000001</ele>
        <time>2021-07-09T10:34:54Z</time>
      </trkpt>
      <trkpt lat="41.948660016059875" lon="-6.055850023403764">
        <ele>800.02099999999996</ele>
        <time>2021-07-09T10:35:23Z</time>
      </trkpt>
      <trkpt lat="41.947979992255569" lon="-6.056410018354654">
        <ele>800.02700000000004</ele>
        <time>2021-07-09T10:35:37Z</time>
      </trkpt>
      <trkpt lat="41.947540026158094" lon="-6.056849984452128">
        <ele>800.01300000000003</ele>
        <time>2021-07-09T10:35:46Z</time>
      </trkpt>
      <trkpt lat="41.945940004661679" lon="-6.058259988203645">
        <ele>802.07100000000003</ele>
        <time>2021-07-09T10:36:20Z</time>
      </trkpt>
      <trkpt lat="41.945010032504797" lon="-6.058989968150854">
        <ele>801.04100000000005</ele>
        <time>2021-07-09T10:36:40Z</time>
      </trkpt>
      <trkpt lat="41.943939998745918" lon="-6.060029994696379">
        <ele>799.01499999999999</ele>
        <time>2021-07-09T10:37:03Z</time>
      </trkpt>
      <trkpt lat="41.9429100304842" lon="-6.060929959639907">
        <ele>799.00800000000004</ele>
        <time>2021-07-09T10:37:25Z</time>
      </trkpt>
      <trkpt lat="41.940120030194521" lon="-6.063140016049147">
        <ele>802.01400000000001</ele>
        <time>2021-07-09T10:38:23Z</time>
      </trkpt>
      <trkpt lat="41.939460039138794" lon="-6.063619963824749">
        <ele>803.09400000000005</ele>
        <time>2021-07-09T10:38:36Z</time>
      </trkpt>
      <trkpt lat="41.93809999153018" lon="-6.064689997583628">
        <ele>805.08399999999995</ele>
        <time>2021-07-09T10:39:04Z</time>
      </trkpt>
      <trkpt lat="41.9376499671489" lon="-6.064989985898137">
        <ele>805.06299999999999</ele>
        <time>2021-07-09T10:39:13Z</time>
      </trkpt>
      <trkpt lat="41.936849998310208" lon="-6.065679984167218">
        <ele>806.05799999999999</ele>
        <time>2021-07-09T10:39:30Z</time>
      </trkpt>
      <trkpt lat="41.934689981862903" lon="-6.067410008981824">
        <ele>807.08699999999999</ele>
        <time>2021-07-09T10:40:15Z</time>
      </trkpt>
      <trkpt lat="41.933679962530732" lon="-6.068309973925352">
        <ele>805.02300000000002</ele>
        <time>2021-07-09T10:40:36Z</time>
      </trkpt>
      <trkpt lat="41.933089960366488" lon="-6.068929983302951">
        <ele>805.03899999999999</ele>
        <time>2021-07-09T10:40:49Z</time>
      </trkpt>
      <trkpt lat="41.932499958202243" lon="-6.069600032642484">
        <ele>805.01099999999997</ele>
        <time>2021-07-09T10:41:03Z</time>
      </trkpt>
      <trkpt lat="41.930919969454408" lon="-6.071549998596311">
        <ele>807.02099999999996</ele>
        <time>2021-07-09T10:41:41Z</time>
      </trkpt>
      <trkpt lat="41.930540017783642" lon="-6.072070011869073">
        <ele>807.00300000000004</ele>
        <time>2021-07-09T10:41:51Z</time>
      </trkpt>
      <trkpt lat="41.929220035672188" lon="-6.073710015043616">
        <ele>810.00800000000004</ele>
        <time>2021-07-09T10:42:23Z</time>
      </trkpt>
      <trkpt lat="41.928630033507943" lon="-6.074309991672635">
        <ele>810.08799999999997</ele>
        <time>2021-07-09T10:42:36Z</time>
      </trkpt>
      <trkpt lat="41.92798001691699" lon="-6.074830004945397">
        <ele>811.06799999999998</ele>
        <time>2021-07-09T10:42:50Z</time>
      </trkpt>
      <trkpt lat="41.927290018647909" lon="-6.075310036540031">
        <ele>811.08799999999997</ele>
        <time>2021-07-09T10:43:03Z</time>
      </trkpt>
      <trkpt lat="41.926430035382509" lon="-6.075959969311953">
        <ele>812.077</ele>
        <time>2021-07-09T10:43:21Z</time>
      </trkpt>
      <trkpt lat="41.924879970028996" lon="-6.076979963108897">
        <ele>812.06200000000001</ele>
        <time>2021-07-09T10:43:52Z</time>
      </trkpt>
      <trkpt lat="41.924409996718168" lon="-6.077269976958633">
        <ele>813.07100000000003</ele>
        <time>2021-07-09T10:44:01Z</time>
      </trkpt>
      <trkpt lat="41.923900041729212" lon="-6.077469969168305">
        <ele>816.03700000000003</ele>
        <time>2021-07-09T10:44:10Z</time>
      </trkpt>
      <trkpt lat="41.921919984742999" lon="-6.078000040724874">
        <ele>821.08299999999997</ele>
        <time>2021-07-09T10:44:46Z</time>
      </trkpt>
      <trkpt lat="41.920360028743744" lon="-6.078379992395639">
        <ele>818.053</ele>
        <time>2021-07-09T10:45:15Z</time>
      </trkpt>
      <trkpt lat="41.919159991666675" lon="-6.078700013458729">
        <ele>815.00400000000002</ele>
        <time>2021-07-09T10:45:36Z</time>
      </trkpt>
      <trkpt lat="41.918439986184239" lon="-6.078920038416982">
        <ele>814.01400000000001</ele>
        <time>2021-07-09T10:45:49Z</time>
      </trkpt>
      <trkpt lat="41.917900023981929" lon="-6.079130005091429">
        <ele>814.00800000000004</ele>
        <time>2021-07-09T10:45:59Z</time>
      </trkpt>
      <trkpt lat="41.917540021240711" lon="-6.079299990087748">
        <ele>814.072</ele>
        <time>2021-07-09T10:46:06Z</time>
      </trkpt>
      <trkpt lat="41.916469987481833" lon="-6.079650018364191">
        <ele>817.01199999999994</ele>
        <time>2021-07-09T10:46:26Z</time>
      </trkpt>
      <trkpt lat="41.916300002485514" lon="-6.079680025577545">
        <ele>818.072</ele>
        <time>2021-07-09T10:46:29Z</time>
      </trkpt>
      <trkpt lat="41.91581997089088" lon="-6.079850010573864">
        <ele>820.07100000000003</ele>
        <time>2021-07-09T10:46:38Z</time>
      </trkpt>
      <trkpt lat="41.915500033646822" lon="-6.079919999465346">
        <ele>820.096</ele>
        <time>2021-07-09T10:46:43Z</time>
      </trkpt>
      <trkpt lat="41.914880024269223" lon="-6.080110017210245">
        <ele>821.03499999999997</ele>
        <time>2021-07-09T10:46:55Z</time>
      </trkpt>
      <trkpt lat="41.914299996569753" lon="-6.08024999499321">
        <ele>820.02099999999996</ele>
        <time>2021-07-09T10:47:05Z</time>
      </trkpt>
      <trkpt lat="41.913730027154088" lon="-6.080329958349466">
        <ele>820.01700000000005</ele>
        <time>2021-07-09T10:47:15Z</time>
      </trkpt>
      <trkpt lat="41.912989988923073" lon="-6.080389972776175">
        <ele>819.07500000000005</ele>
        <time>2021-07-09T10:47:29Z</time>
      </trkpt>
      <trkpt lat="41.912710033357143" lon="-6.080389972776175">
        <ele>819.02800000000002</ele>
        <time>2021-07-09T10:47:34Z</time>
      </trkpt>
      <trkpt lat="41.911979969590902" lon="-6.080470019951463">
        <ele>817.01999999999998</ele>
        <time>2021-07-09T10:47:47Z</time>
      </trkpt>
      <trkpt lat="41.911790035665035" lon="-6.080560041591525">
        <ele>817.00800000000004</ele>
        <time>2021-07-09T10:47:50Z</time>
      </trkpt>
      <trkpt lat="41.911660032346845" lon="-6.080470019951463">
        <ele>817.08399999999995</ele>
        <time>2021-07-09T10:47:53Z</time>
      </trkpt>
      <trkpt lat="41.910689994692802" lon="-6.079039983451366">
        <ele>812.024</ele>
        <time>2021-07-09T10:48:18Z</time>
      </trkpt>
      <trkpt lat="41.910450020805001" lon="-6.078730020672083">
        <ele>812.05399999999997</ele>
        <time>2021-07-09T10:48:24Z</time>
      </trkpt>
      <trkpt lat="41.909449975937605" lon="-6.077229995280504">
        <ele>809.09299999999996</ele>
        <time>2021-07-09T10:48:51Z</time>
      </trkpt>
      <trkpt lat="41.908440040424466" lon="-6.075799958780408">
        <ele>807.03800000000001</ele>
        <time>2021-07-09T10:49:17Z</time>
      </trkpt>
      <trkpt lat="41.908009964972734" lon="-6.075229989364743">
        <ele>806.04700000000003</ele>
        <time>2021-07-09T10:49:28Z</time>
      </trkpt>
      <trkpt lat="41.906099980697036" lon="-6.072449963539839">
        <ele>807.03300000000002</ele>
        <time>2021-07-09T10:50:18Z</time>
      </trkpt>
      <trkpt lat="41.905549960210919" lon="-6.071540024131537">
        <ele>806.01900000000001</ele>
        <time>2021-07-09T10:50:34Z</time>
      </trkpt>
      <trkpt lat="41.905319960787892" lon="-6.070869974792004">
        <ele>807.08600000000001</ele>
        <time>2021-07-09T10:50:43Z</time>
      </trkpt>
      <trkpt lat="41.904870020225644" lon="-6.068959990516305">
        <ele>804.05999999999995</ele>
        <time>2021-07-09T10:51:10Z</time>
      </trkpt>
      <trkpt lat="41.904740016907454" lon="-6.068490017205477">
        <ele>803.02599999999995</ele>
        <time>2021-07-09T10:51:16Z</time>
      </trkpt>
      <trkpt lat="41.904580006375909" lon="-6.067779986187816">
        <ele>802.00800000000004</ele>
        <time>2021-07-09T10:51:26Z</time>
      </trkpt>
      <trkpt lat="41.904359981417656" lon="-6.066569974645972">
        <ele>801.08500000000004</ele>
        <time>2021-07-09T10:51:43Z</time>
      </trkpt>
      <trkpt lat="41.904069967567921" lon="-6.065300032496452">
        <ele>800.07500000000005</ele>
        <time>2021-07-09T10:52:00Z</time>
      </trkpt>
      <trkpt lat="41.903469990938902" lon="-6.062980005517602">
        <ele>794.01499999999999</ele>
        <time>2021-07-09T10:52:33Z</time>
      </trkpt>
      <trkpt lat="41.902900021523237" lon="-6.060929959639907">
        <ele>793.05399999999997</ele>
        <time>2021-07-09T10:53:02Z</time>
      </trkpt>
      <trkpt lat="41.90224003046751" lon="-6.058419998735189">
        <ele>791.01900000000001</ele>
        <time>2021-07-09T10:53:37Z</time>
      </trkpt>
      <trkpt lat="41.901369988918304" lon="-6.054770015180111">
        <ele>789.06799999999998</ele>
        <time>2021-07-09T10:54:28Z</time>
      </trkpt>
      <trkpt lat="41.89994003623724" lon="-6.049150032922626">
        <ele>797.03399999999999</ele>
        <time>2021-07-09T10:55:47Z</time>
      </trkpt>
      <trkpt lat="41.899160016328096" lon="-6.045870026573539">
        <ele>797.01999999999998</ele>
        <time>2021-07-09T10:56:32Z</time>
      </trkpt>
      <trkpt lat="41.898619970306754" lon="-6.043710010126233">
        <ele>789.03099999999995</ele>
        <time>2021-07-09T10:57:02Z</time>
      </trkpt>
      <trkpt lat="41.898289974778891" lon="-6.042860001325607">
        <ele>791.06100000000004</ele>
        <time>2021-07-09T10:57:15Z</time>
      </trkpt>
      <trkpt lat="41.897999960929155" lon="-6.042349962517619">
        <ele>794.00699999999995</ele>
        <time>2021-07-09T10:57:24Z</time>
      </trkpt>
      <trkpt lat="41.897380035370588" lon="-6.041459972038865">
        <ele>797.00800000000004</ele>
        <time>2021-07-09T10:57:40Z</time>
      </trkpt>
      <trkpt lat="41.89499999396503" lon="-6.038269987329841">
        <ele>801.01999999999998</ele>
        <time>2021-07-09T10:58:39Z</time>
      </trkpt>
      <trkpt lat="41.894490038976073" lon="-6.037549981847405">
        <ele>799.00999999999999</ele>
        <time>2021-07-09T10:58:53Z</time>
      </trkpt>
      <trkpt lat="41.894340002909303" lon="-6.03730003349483">
        <ele>798.01999999999998</ele>
        <time>2021-07-09T10:58:57Z</time>
      </trkpt>
      <trkpt lat="41.893610022962093" lon="-6.036360003054142">
        <ele>796.07899999999995</ele>
        <time>2021-07-09T10:59:15Z</time>
      </trkpt>
      <trkpt lat="41.893269969150424" lon="-6.035849964246154">
        <ele>794.07399999999996</ele>
        <time>2021-07-09T10:59:24Z</time>
      </trkpt>
      <trkpt lat="41.891619991511106" lon="-6.033679973334074">
        <ele>796.03300000000002</ele>
        <time>2021-07-09T11:00:05Z</time>
      </trkpt>
      <trkpt lat="41.888509970158339" lon="-6.029449962079525">
        <ele>796.04899999999998</ele>
        <time>2021-07-09T11:01:24Z</time>
      </trkpt>
      <trkpt lat="41.887700026854873" lon="-6.028410019353032">
        <ele>796.01499999999999</ele>
        <time>2021-07-09T11:01:44Z</time>
      </trkpt>
      <trkpt lat="41.887140031903982" lon="-6.027609966695309">
        <ele>799.08500000000004</ele>
        <time>2021-07-09T11:01:58Z</time>
      </trkpt>
      <trkpt lat="41.885400032624602" lon="-6.025250041857362">
        <ele>803.08900000000006</ele>
        <time>2021-07-09T11:02:42Z</time>
      </trkpt>
      <trkpt lat="41.884999964386225" lon="-6.024719970300794">
        <ele>803.01700000000005</ele>
        <time>2021-07-09T11:02:52Z</time>
      </trkpt>
      <trkpt lat="41.884599979966879" lon="-6.024240022525191">
        <ele>805.00800000000004</ele>
        <time>2021-07-09T11:03:02Z</time>
      </trkpt>
      <trkpt lat="41.884230002760887" lon="-6.023690002039075">
        <ele>804.04499999999996</ele>
        <time>2021-07-09T11:03:12Z</time>
      </trkpt>
      <trkpt lat="41.88268999569118" lon="-6.021599974483252">
        <ele>804.01499999999999</ele>
        <time>2021-07-09T11:03:51Z</time>
      </trkpt>
      <trkpt lat="41.881579980254173" lon="-6.020029960200191">
        <ele>808.09500000000003</ele>
        <time>2021-07-09T11:04:19Z</time>
      </trkpt>
      <trkpt lat="41.880420008674264" lon="-6.018490036949515">
        <ele>811.08399999999995</ele>
        <time>2021-07-09T11:04:48Z</time>
      </trkpt>
      <trkpt lat="41.879869988188148" lon="-6.017719991505146">
        <ele>813.06899999999996</ele>
        <time>2021-07-09T11:05:02Z</time>
      </trkpt>
      <trkpt lat="41.878759972751141" lon="-6.016279980540276">
        <ele>818.06799999999998</ele>
        <time>2021-07-09T11:05:30Z</time>
      </trkpt>
      <trkpt lat="41.877799993380904" lon="-6.014890009537339">
        <ele>820.08399999999995</ele>
        <time>2021-07-09T11:05:55Z</time>
      </trkpt>
      <trkpt lat="41.877070013433695" lon="-6.013930030167103">
        <ele>819.05999999999995</ele>
        <time>2021-07-09T11:06:13Z</time>
      </trkpt>
      <trkpt lat="41.875439984723926" lon="-6.012160023674369">
        <ele>816.09400000000005</ele>
        <time>2021-07-09T11:06:50Z</time>
      </trkpt>
      <trkpt lat="41.874600034207106" lon="-6.011310014873743">
        <ele>816.05700000000002</ele>
        <time>2021-07-09T11:07:09Z</time>
      </trkpt>
      <trkpt lat="41.873149964958429" lon="-6.009740000590682">
        <ele>816.02200000000005</ele>
        <time>2021-07-09T11:07:42Z</time>
      </trkpt>
      <trkpt lat="41.86966996639967" lon="-6.006050035357475">
        <ele>820.00800000000004</ele>
        <time>2021-07-09T11:09:01Z</time>
      </trkpt>
      <trkpt lat="41.867980007082224" lon="-6.004180032759905">
        <ele>820.04600000000005</ele>
        <time>2021-07-09T11:09:40Z</time>
      </trkpt>
      <trkpt lat="41.86535001732409" lon="-6.001349966973066">
        <ele>809.01599999999996</ele>
        <time>2021-07-09T11:10:40Z</time>
      </trkpt>
      <trkpt lat="41.864270009100437" lon="-6.000259984284639">
        <ele>803.04600000000005</ele>
        <time>2021-07-09T11:11:04Z</time>
      </trkpt>
      <trkpt lat="41.862999983131886" lon="-5.998849980533123">
        <ele>799.02499999999998</ele>
        <time>2021-07-09T11:11:34Z</time>
      </trkpt>
      <trkpt lat="41.862119967117906" lon="-5.997969964519143">
        <ele>797.05999999999995</ele>
        <time>2021-07-09T11:11:53Z</time>
      </trkpt>
      <trkpt lat="41.859219996258616" lon="-5.994830019772053">
        <ele>792.01900000000001</ele>
        <time>2021-07-09T11:12:59Z</time>
      </trkpt>
      <trkpt lat="41.858799979090691" lon="-5.994440009817481">
        <ele>790.07500000000005</ele>
        <time>2021-07-09T11:13:08Z</time>
      </trkpt>
      <trkpt lat="41.858350038528442" lon="-5.994140021502972">
        <ele>789.01099999999997</ele>
        <time>2021-07-09T11:13:17Z</time>
      </trkpt>
      <trkpt lat="41.857879981398582" lon="-5.993880014866591">
        <ele>787.09500000000003</ele>
        <time>2021-07-09T11:13:26Z</time>
      </trkpt>
      <trkpt lat="41.857370026409626" lon="-5.993659989908338">
        <ele>786.04899999999998</ele>
        <time>2021-07-09T11:13:36Z</time>
      </trkpt>
      <trkpt lat="41.855839993804693" lon="-5.992909977212548">
        <ele>786.02300000000002</ele>
        <time>2021-07-09T11:14:05Z</time>
      </trkpt>
      <trkpt lat="41.854850007221103" lon="-5.99228996783495">
        <ele>787.00800000000004</ele>
        <time>2021-07-09T11:14:24Z</time>
      </trkpt>
      <trkpt lat="41.854160008952022" lon="-5.991669958457351">
        <ele>786.06600000000003</ele>
        <time>2021-07-09T11:14:39Z</time>
      </trkpt>
      <trkpt lat="41.853709984570742" lon="-5.991209959611297">
        <ele>785.08600000000001</ele>
        <time>2021-07-09T11:14:49Z</time>
      </trkpt>
      <trkpt lat="41.853500017896295" lon="-5.990939978510141">
        <ele>784.05600000000004</ele>
        <time>2021-07-09T11:14:54Z</time>
      </trkpt>
      <trkpt lat="41.852689990773797" lon="-5.989770032465458">
        <ele>783.03499999999997</ele>
        <time>2021-07-09T11:15:16Z</time>
      </trkpt>
      <trkpt lat="41.852299980819225" lon="-5.989150023087859">
        <ele>783.02999999999997</ele>
        <time>2021-07-09T11:15:26Z</time>
      </trkpt>
      <trkpt lat="41.849830001592636" lon="-5.985570028424263">
        <ele>787.07899999999995</ele>
        <time>2021-07-09T11:16:31Z</time>
      </trkpt>
      <trkpt lat="41.847999980673194" lon="-5.982850017026067">
        <ele>792.01499999999999</ele>
        <time>2021-07-09T11:17:20Z</time>
      </trkpt>
      <trkpt lat="41.847270000725985" lon="-5.981979975476861">
        <ele>790.01099999999997</ele>
        <time>2021-07-09T11:17:37Z</time>
      </trkpt>
      <trkpt lat="41.846240032464266" lon="-5.980920000001788">
        <ele>790.09100000000001</ele>
        <time>2021-07-09T11:18:00Z</time>
      </trkpt>
      <trkpt lat="41.844189986586571" lon="-5.978699969127774">
        <ele>786.08100000000002</ele>
        <time>2021-07-09T11:18:47Z</time>
      </trkpt>
      <trkpt lat="41.843309970572591" lon="-5.977590037509799">
        <ele>784.01900000000001</ele>
        <time>2021-07-09T11:19:08Z</time>
      </trkpt>
      <trkpt lat="41.842939993366599" lon="-5.977210002020001">
        <ele>782.00800000000004</ele>
        <time>2021-07-09T11:19:17Z</time>
      </trkpt>
      <trkpt lat="41.84186995960772" lon="-5.976489996537566">
        <ele>780.01599999999996</ele>
        <time>2021-07-09T11:19:38Z</time>
      </trkpt>
      <trkpt lat="41.840949961915612" lon="-5.975909968838096">
        <ele>775.01599999999996</ele>
        <time>2021-07-09T11:19:56Z</time>
      </trkpt>
      <trkpt lat="41.839390005916357" lon="-5.974819986149669">
        <ele>771.03599999999994</ele>
        <time>2021-07-09T11:20:27Z</time>
      </trkpt>
      <trkpt lat="41.836160039529204" lon="-5.972680002450943">
        <ele>754.01499999999999</ele>
        <time>2021-07-09T11:21:31Z</time>
      </trkpt>
      <trkpt lat="41.835740022361279" lon="-5.972340032458305">
        <ele>752.03999999999996</ele>
        <time>2021-07-09T11:21:40Z</time>
      </trkpt>
      <trkpt lat="41.835359986871481" lon="-5.971950022503734">
        <ele>751.01900000000001</ele>
        <time>2021-07-09T11:21:49Z</time>
      </trkpt>
      <trkpt lat="41.835020016878843" lon="-5.971509972587228">
        <ele>751.09500000000003</ele>
        <time>2021-07-09T11:21:57Z</time>
      </trkpt>
      <trkpt lat="41.833729958161712" lon="-5.969609962776303">
        <ele>753.08100000000002</ele>
        <time>2021-07-09T11:22:31Z</time>
      </trkpt>
      <trkpt lat="41.832799986004829" lon="-5.968059981241822">
        <ele>752.04700000000003</ele>
        <time>2021-07-09T11:22:58Z</time>
      </trkpt>
      <trkpt lat="41.832119962200522" lon="-5.967000005766749">
        <ele>752.029</ele>
        <time>2021-07-09T11:23:16Z</time>
      </trkpt>
      <trkpt lat="41.830980023369193" lon="-5.965360002592206">
        <ele>746.02099999999996</ele>
        <time>2021-07-09T11:23:46Z</time>
      </trkpt>
      <trkpt lat="41.829089988023043" lon="-5.962389959022403">
        <ele>744.00800000000004</ele>
        <time>2021-07-09T11:24:38Z</time>
      </trkpt>
      <trkpt lat="41.827159970998764" lon="-5.959440032020211">
        <ele>742.08100000000002</ele>
        <time>2021-07-09T11:25:30Z</time>
      </trkpt>
      <trkpt lat="41.82626998052001" lon="-5.958139998838306">
        <ele>746.08100000000002</ele>
        <time>2021-07-09T11:25:53Z</time>
      </trkpt>
      <trkpt lat="41.824789987877011" lon="-5.955819971859455">
        <ele>735.07100000000003</ele>
        <time>2021-07-09T11:26:34Z</time>
      </trkpt>
      <trkpt lat="41.824220018461347" lon="-5.955029977485538">
        <ele>735.09000000000003</ele>
        <time>2021-07-09T11:26:48Z</time>
      </trkpt>
      <trkpt lat="41.823660023510456" lon="-5.954190026968718">
        <ele>736.07500000000005</ele>
        <time>2021-07-09T11:27:03Z</time>
      </trkpt>
      <trkpt lat="41.821990013122559" lon="-5.951570011675358">
        <ele>737.06399999999996</ele>
        <time>2021-07-09T11:27:49Z</time>
      </trkpt>
      <trkpt lat="41.821330022066832" lon="-5.950640039518476">
        <ele>739.08000000000004</ele>
        <time>2021-07-09T11:28:06Z</time>
      </trkpt>
      <trkpt lat="41.820689979940653" lon="-5.949670001864433">
        <ele>739.03599999999994</ele>
        <time>2021-07-09T11:28:23Z</time>
      </trkpt>
      <trkpt lat="41.820440031588078" lon="-5.949249984696508">
        <ele>739.03200000000004</ele>
        <time>2021-07-09T11:28:30Z</time>
      </trkpt>
      <trkpt lat="41.819609971717" lon="-5.94802999868989">
        <ele>736.09199999999998</ele>
        <time>2021-07-09T11:28:52Z</time>
      </trkpt>
      <trkpt lat="41.819349965080619" lon="-5.947590032592416">
        <ele>736.01099999999997</ele>
        <time>2021-07-09T11:28:59Z</time>
      </trkpt>
      <trkpt lat="41.818140037357807" lon="-5.945769986137748">
        <ele>738.00800000000004</ele>
        <time>2021-07-09T11:29:32Z</time>
      </trkpt>
      <trkpt lat="41.817799983546138" lon="-5.94530001282692">
        <ele>739.07000000000005</ele>
        <time>2021-07-09T11:29:40Z</time>
      </trkpt>
      <trkpt lat="41.816299958154559" lon="-5.942979985848069">
        <ele>739.04999999999995</ele>
        <time>2021-07-09T11:30:21Z</time>
      </trkpt>
      <trkpt lat="41.815980020910501" lon="-5.942429965361953">
        <ele>739.00999999999999</ele>
        <time>2021-07-09T11:30:30Z</time>
      </trkpt>
      <trkpt lat="41.815629992634058" lon="-5.941899977624416">
        <ele>738.01900000000001</ele>
        <time>2021-07-09T11:30:40Z</time>
      </trkpt>
      <trkpt lat="41.815079972147942" lon="-5.941130015999079">
        <ele>738.09400000000005</ele>
        <time>2021-07-09T11:30:54Z</time>
      </trkpt>
      <trkpt lat="41.814740002155304" lon="-5.940589969977737">
        <ele>738.06299999999999</ele>
        <time>2021-07-09T11:31:03Z</time>
      </trkpt>
      <trkpt lat="41.81385001167655" lon="-5.939279962331057">
        <ele>738.03899999999999</ele>
        <time>2021-07-09T11:31:27Z</time>
      </trkpt>
      <trkpt lat="41.813350031152368" lon="-5.938459960743785">
        <ele>738.07500000000005</ele>
        <time>2021-07-09T11:31:41Z</time>
      </trkpt>
      <trkpt lat="41.812790036201477" lon="-5.937699973583221">
        <ele>738.09500000000003</ele>
        <time>2021-07-09T11:31:55Z</time>
      </trkpt>
      <trkpt lat="41.812440007925034" lon="-5.937169985845685">
        <ele>737.04899999999998</ele>
        <time>2021-07-09T11:32:04Z</time>
      </trkpt>
      <trkpt lat="41.811060011386871" lon="-5.934979962185025">
        <ele>737.02300000000002</ele>
        <time>2021-07-09T11:32:42Z</time>
      </trkpt>
      <trkpt lat="41.809799959883094" lon="-5.933099985122681">
        <ele>738.00800000000004</ele>
        <time>2021-07-09T11:33:16Z</time>
      </trkpt>
      <trkpt lat="41.808760017156601" lon="-5.931440033018589">
        <ele>740.03599999999994</ele>
        <time>2021-07-09T11:33:45Z</time>
      </trkpt>
      <trkpt lat="41.808209996670485" lon="-5.930650038644671">
        <ele>740.07600000000002</ele>
        <time>2021-07-09T11:33:59Z</time>
      </trkpt>
      <trkpt lat="41.807499965652823" lon="-5.929559972137213">
        <ele>740.04600000000005</ele>
        <time>2021-07-09T11:34:18Z</time>
      </trkpt>
      <trkpt lat="41.806300012394786" lon="-5.927630038931966">
        <ele>739.07500000000005</ele>
        <time>2021-07-09T11:34:52Z</time>
      </trkpt>
      <trkpt lat="41.804769979789853" lon="-5.925349993631244">
        <ele>738.01999999999998</ele>
        <time>2021-07-09T11:35:32Z</time>
      </trkpt>
      <trkpt lat="41.802899977192283" lon="-5.922380033880472">
        <ele>730.08900000000006</ele>
        <time>2021-07-09T11:36:24Z</time>
      </trkpt>
      <trkpt lat="41.802560007199645" lon="-5.921900002285838">
        <ele>730.07500000000005</ele>
        <time>2021-07-09T11:36:33Z</time>
      </trkpt>
      <trkpt lat="41.802230011671782" lon="-5.921379989013076">
        <ele>730.04100000000005</ele>
        <time>2021-07-09T11:36:42Z</time>
      </trkpt>
      <trkpt lat="41.801909990608692" lon="-5.920829968526959">
        <ele>728.06100000000004</ele>
        <time>2021-07-09T11:36:51Z</time>
      </trkpt>
      <trkpt lat="41.8015400134027" lon="-5.920320013538003">
        <ele>728.02099999999996</ele>
        <time>2021-07-09T11:37:00Z</time>
      </trkpt>
      <trkpt lat="41.800139984115958" lon="-5.918159997090697">
        <ele>726.01300000000003</ele>
        <time>2021-07-09T11:37:38Z</time>
      </trkpt>
      <trkpt lat="41.799630029127002" lon="-5.917319962754846">
        <ele>724.00800000000004</ele>
        <time>2021-07-09T11:37:53Z</time>
      </trkpt>
      <trkpt lat="41.799430036917329" lon="-5.91707001440227">
        <ele>724.09299999999996</ele>
        <time>2021-07-09T11:37:58Z</time>
      </trkpt>
      <trkpt lat="41.798550020903349" lon="-5.915679959580302">
        <ele>723.09299999999996</ele>
        <time>2021-07-09T11:38:22Z</time>
      </trkpt>
      <trkpt lat="41.797790033742785" lon="-5.914600035175681">
        <ele>721.06299999999999</ele>
        <time>2021-07-09T11:38:42Z</time>
      </trkpt>
      <trkpt lat="41.797419972717762" lon="-5.914029981940985">
        <ele>719.09199999999998</ele>
        <time>2021-07-09T11:38:52Z</time>
      </trkpt>
      <trkpt lat="41.796710025519133" lon="-5.912840003147721">
        <ele>718.077</ele>
        <time>2021-07-09T11:39:12Z</time>
      </trkpt>
      <trkpt lat="41.795600010082126" lon="-5.911079971119762">
        <ele>719.06600000000003</ele>
        <time>2021-07-09T11:39:42Z</time>
      </trkpt>
      <trkpt lat="41.794420005753636" lon="-5.909360004588962">
        <ele>718.09199999999998</ele>
        <time>2021-07-09T11:40:13Z</time>
      </trkpt>
      <trkpt lat="41.792529970407486" lon="-5.906389961019158">
        <ele>715.05799999999999</ele>
        <time>2021-07-09T11:41:05Z</time>
      </trkpt>
      <trkpt lat="41.791760008782148" lon="-5.905250022187829">
        <ele>717.06399999999996</ele>
        <time>2021-07-09T11:41:26Z</time>
      </trkpt>
      <trkpt lat="41.791230021044612" lon="-5.904419962316752">
        <ele>715.00599999999997</ele>
        <time>2021-07-09T11:41:40Z</time>
      </trkpt>
      <trkpt lat="41.790480008348823" lon="-5.903050024062395">
        <ele>714.01599999999996</ele>
        <time>2021-07-09T11:42:03Z</time>
      </trkpt>
      <trkpt lat="41.790140038356185" lon="-5.902539985254407">
        <ele>714.00800000000004</ele>
        <time>2021-07-09T11:42:12Z</time>
      </trkpt>
      <trkpt lat="41.789799984544516" lon="-5.902060037478805">
        <ele>714.07299999999998</ele>
        <time>2021-07-09T11:42:20Z</time>
      </trkpt>
      <trkpt lat="41.78910001181066" lon="-5.901159988716245">
        <ele>712.09299999999996</ele>
        <time>2021-07-09T11:42:38Z</time>
      </trkpt>
      <trkpt lat="41.787520023062825" lon="-5.899040037766099">
        <ele>707.06299999999999</ele>
        <time>2021-07-09T11:43:17Z</time>
      </trkpt>
      <trkpt lat="41.785820005461574" lon="-5.89663996361196">
        <ele>704.03200000000004</ele>
        <time>2021-07-09T11:44:01Z</time>
      </trkpt>
      <trkpt lat="41.782259959727526" lon="-5.891370009630919">
        <ele>700.06700000000001</ele>
        <time>2021-07-09T11:45:36Z</time>
      </trkpt>
      <trkpt lat="41.778360027819872" lon="-5.885780034586787">
        <ele>707.04600000000005</ele>
        <time>2021-07-09T11:47:17Z</time>
      </trkpt>
      <trkpt lat="41.777320001274347" lon="-5.884159980341792">
        <ele>701.01199999999994</ele>
        <time>2021-07-09T11:47:46Z</time>
      </trkpt>
      <trkpt lat="41.776520032435656" lon="-5.883020041510463">
        <ele>702.05799999999999</ele>
        <time>2021-07-09T11:48:06Z</time>
      </trkpt>
      <trkpt lat="41.776339989155531" lon="-5.882809991016984">
        <ele>704.05600000000004</ele>
        <time>2021-07-09T11:48:11Z</time>
      </trkpt>
      <trkpt lat="41.775519987568259" lon="-5.881680026650429">
        <ele>706.05899999999997</ele>
        <time>2021-07-09T11:48:32Z</time>
      </trkpt>
      <trkpt lat="41.773779988288879" lon="-5.87919001467526">
        <ele>704.01400000000001</ele>
        <time>2021-07-09T11:49:17Z</time>
      </trkpt>
      <trkpt lat="41.773140029981732" lon="-5.878210002556443">
        <ele>703.00800000000004</ele>
        <time>2021-07-09T11:49:34Z</time>
      </trkpt>
      <trkpt lat="41.772109977900982" lon="-5.876730009913445">
        <ele>707.04200000000003</ele>
        <time>2021-07-09T11:50:01Z</time>
      </trkpt>
      <trkpt lat="41.771540008485317" lon="-5.875970022752881">
        <ele>706.09199999999998</ele>
        <time>2021-07-09T11:50:15Z</time>
      </trkpt>
      <trkpt lat="41.770250033587217" lon="-5.874089961871505">
        <ele>704.05200000000002</ele>
        <time>2021-07-09T11:50:49Z</time>
      </trkpt>
      <trkpt lat="41.768399979919195" lon="-5.871529961004853">
        <ele>705.07100000000003</ele>
        <time>2021-07-09T11:51:37Z</time>
      </trkpt>
      <trkpt lat="41.759000010788441" lon="-5.857990002259612">
        <ele>710.04600000000005</ele>
        <time>2021-07-09T11:55:42Z</time>
      </trkpt>
      <trkpt lat="41.758660040795803" lon="-5.857539977878332">
        <ele>710.06500000000005</ele>
        <time>2021-07-09T11:55:51Z</time>
      </trkpt>
      <trkpt lat="41.758280005306005" lon="-5.85717000067234">
        <ele>710.07100000000003</ele>
        <time>2021-07-09T11:55:59Z</time>
      </trkpt>
      <trkpt lat="41.758059980347753" lon="-5.857049971818924">
        <ele>710.04700000000003</ele>
        <time>2021-07-09T11:56:03Z</time>
      </trkpt>
      <trkpt lat="41.757659995928407" lon="-5.85663003847003">
        <ele>710.09199999999998</ele>
        <time>2021-07-09T11:56:12Z</time>
      </trkpt>
      <trkpt lat="41.75584003329277" lon="-5.85529999807477">
        <ele>705.07299999999998</ele>
        <time>2021-07-09T11:56:49Z</time>
      </trkpt>
      <trkpt lat="41.755139976739883" lon="-5.85487000644207">
        <ele>702.01999999999998</ele>
        <time>2021-07-09T11:57:03Z</time>
      </trkpt>
      <trkpt lat="41.754649970680475" lon="-5.854649981483817">
        <ele>702.00800000000004</ele>
        <time>2021-07-09T11:57:12Z</time>
      </trkpt>
      <trkpt lat="41.753850001841784" lon="-5.854510003700852">
        <ele>700.01599999999996</ele>
        <time>2021-07-09T11:57:26Z</time>
      </trkpt>
      <trkpt lat="41.753050033003092" lon="-5.854479996487498">
        <ele>698.06600000000003</ele>
        <time>2021-07-09T11:57:41Z</time>
      </trkpt>
      <trkpt lat="41.752460030838847" lon="-5.854689963161945">
        <ele>697.05600000000004</ele>
        <time>2021-07-09T11:57:51Z</time>
      </trkpt>
      <trkpt lat="41.75218996591866" lon="-5.854730028659105">
        <ele>698.04499999999996</ele>
        <time>2021-07-09T11:57:56Z</time>
      </trkpt>
      <trkpt lat="41.751659978181124" lon="-5.854779984802008">
        <ele>699.02999999999997</ele>
        <time>2021-07-09T11:58:06Z</time>
      </trkpt>
      <trkpt lat="41.75092002376914" lon="-5.854809992015362">
        <ele>705.029</ele>
        <time>2021-07-09T11:58:19Z</time>
      </trkpt>
      <trkpt lat="41.75049003213644" lon="-5.854800017550588">
        <ele>706.04499999999996</ele>
        <time>2021-07-09T11:58:27Z</time>
      </trkpt>
      <trkpt lat="41.750070014968514" lon="-5.854700021445751">
        <ele>707.06100000000004</ele>
        <time>2021-07-09T11:58:34Z</time>
      </trkpt>
      <trkpt lat="41.749740019440651" lon="-5.85444001480937">
        <ele>710.08299999999997</ele>
        <time>2021-07-09T11:58:41Z</time>
      </trkpt>
      <trkpt lat="41.749540027230978" lon="-5.854329960420728">
        <ele>711.02499999999998</ele>
        <time>2021-07-09T11:58:45Z</time>
      </trkpt>
      <trkpt lat="41.749369958415627" lon="-5.854180008172989">
        <ele>711.01700000000005</ele>
        <time>2021-07-09T11:58:48Z</time>
      </trkpt>
      <trkpt lat="41.749110035598278" lon="-5.853789998218417">
        <ele>713.00800000000004</ele>
        <time>2021-07-09T11:58:55Z</time>
      </trkpt>
      <trkpt lat="41.748999981209636" lon="-5.853569973260164">
        <ele>715.04499999999996</ele>
        <time>2021-07-09T11:58:59Z</time>
      </trkpt>
      <trkpt lat="41.748760007321835" lon="-5.852819960564375">
        <ele>720.06500000000005</ele>
        <time>2021-07-09T11:59:10Z</time>
      </trkpt>
      <trkpt lat="41.747909998521209" lon="-5.848570000380278">
        <ele>735.06500000000005</ele>
        <time>2021-07-09T12:00:08Z</time>
      </trkpt>
      <trkpt lat="41.747629959136248" lon="-5.84692002274096">
        <ele>741.09400000000005</ele>
        <time>2021-07-09T12:00:31Z</time>
      </trkpt>
      <trkpt lat="41.747519988566637" lon="-5.846109995618463">
        <ele>744.03899999999999</ele>
        <time>2021-07-09T12:00:41Z</time>
      </trkpt>
      <trkpt lat="41.747319996356964" lon="-5.845289994031191">
        <ele>743.07799999999997</ele>
        <time>2021-07-09T12:00:53Z</time>
      </trkpt>
      <trkpt lat="41.746929986402392" lon="-5.842950018122792">
        <ele>750.04399999999998</ele>
        <time>2021-07-09T12:01:25Z</time>
      </trkpt>
      <trkpt lat="41.746820015832782" lon="-5.842439979314804">
        <ele>751.04999999999995</ele>
        <time>2021-07-09T12:01:32Z</time>
      </trkpt>
      <trkpt lat="41.746090035885572" lon="-5.840379958972335">
        <ele>750.01400000000001</ele>
        <time>2021-07-09T12:02:02Z</time>
      </trkpt>
      <trkpt lat="41.745809996500611" lon="-5.839760033413768">
        <ele>751.05399999999997</ele>
        <time>2021-07-09T12:02:12Z</time>
      </trkpt>
      <trkpt lat="41.745700025931001" lon="-5.839570015668869">
        <ele>751.00900000000001</ele>
        <time>2021-07-09T12:02:15Z</time>
      </trkpt>
      <trkpt lat="41.745449993759394" lon="-5.839210012927651">
        <ele>750.00800000000004</ele>
        <time>2021-07-09T12:02:21Z</time>
      </trkpt>
      <trkpt lat="41.745180012658238" lon="-5.838880017399788">
        <ele>749.02800000000002</ele>
        <time>2021-07-09T12:02:28Z</time>
      </trkpt>
      <trkpt lat="41.743449987843633" lon="-5.836910018697381">
        <ele>747.048</ele>
        <time>2021-07-09T12:03:08Z</time>
      </trkpt>
      <trkpt lat="41.74065001308918" lon="-5.833630012348294">
        <ele>745.06799999999998</ele>
        <time>2021-07-09T12:04:14Z</time>
      </trkpt>
      <trkpt lat="41.739800004288554" lon="-5.83258998580277">
        <ele>742.08699999999999</ele>
        <time>2021-07-09T12:04:35Z</time>
      </trkpt>
      <trkpt lat="41.737960008904338" lon="-5.830450002104044">
        <ele>738.06200000000001</ele>
        <time>2021-07-09T12:05:18Z</time>
      </trkpt>
      <trkpt lat="41.734670028090477" lon="-5.826760036870837">
        <ele>740.06100000000004</ele>
        <time>2021-07-09T12:06:35Z</time>
      </trkpt>
      <trkpt lat="41.724990019574761" lon="-5.815629959106445">
        <ele>728.09699999999998</ele>
        <time>2021-07-09T12:10:22Z</time>
      </trkpt>
      <trkpt lat="41.724619958549738" lon="-5.815350003540516">
        <ele>726.07299999999998</ele>
        <time>2021-07-09T12:10:29Z</time>
      </trkpt>
      <trkpt lat="41.72430002130568" lon="-5.814869971945882">
        <ele>726.03300000000002</ele>
        <time>2021-07-09T12:10:38Z</time>
      </trkpt>
      <trkpt lat="41.724130036309361" lon="-5.814660005271435">
        <ele>727.02300000000002</ele>
        <time>2021-07-09T12:10:42Z</time>
      </trkpt>
      <trkpt lat="41.721659973263741" lon="-5.8117900416255">
        <ele>722.01499999999999</ele>
        <time>2021-07-09T12:11:40Z</time>
      </trkpt>
      <trkpt lat="41.721320003271103" lon="-5.811459962278605">
        <ele>721.00800000000004</ele>
        <time>2021-07-09T12:11:47Z</time>
      </trkpt>
      <trkpt lat="41.720960000529885" lon="-5.811200039461255">
        <ele>722.08000000000004</ele>
        <time>2021-07-09T12:11:55Z</time>
      </trkpt>
      <trkpt lat="41.720569990575314" lon="-5.811010021716356">
        <ele>721.08000000000004</ele>
        <time>2021-07-09T12:12:02Z</time>
      </trkpt>
      <trkpt lat="41.719740014523268" lon="-5.81048003397882">
        <ele>718.04999999999995</ele>
        <time>2021-07-09T12:12:18Z</time>
      </trkpt>
      <trkpt lat="41.719289990141988" lon="-5.810250034555793">
        <ele>717.029</ele>
        <time>2021-07-09T12:12:27Z</time>
      </trkpt>
      <trkpt lat="41.71882001683116" lon="-5.810099998489022">
        <ele>717.03399999999999</ele>
        <time>2021-07-09T12:12:36Z</time>
      </trkpt>
      <trkpt lat="41.717840004712343" lon="-5.809900006279349">
        <ele>716.01300000000003</ele>
        <time>2021-07-09T12:12:53Z</time>
      </trkpt>
      <trkpt lat="41.716090030968189" lon="-5.809470014646649">
        <ele>712.01900000000001</ele>
        <time>2021-07-09T12:13:25Z</time>
      </trkpt>
      <trkpt lat="41.714559998363256" lon="-5.809140019118786">
        <ele>712.01499999999999</ele>
        <time>2021-07-09T12:13:53Z</time>
      </trkpt>
      <trkpt lat="41.712380032986403" lon="-5.808589998632669">
        <ele>711.06299999999999</ele>
        <time>2021-07-09T12:14:32Z</time>
      </trkpt>
      <trkpt lat="41.71098000369966" lon="-5.80829001031816">
        <ele>709.04399999999998</ele>
        <time>2021-07-09T12:14:57Z</time>
      </trkpt>
      <trkpt lat="41.70881001278758" lon="-5.807760022580624">
        <ele>709.01800000000003</ele>
        <time>2021-07-09T12:15:36Z</time>
      </trkpt>
      <trkpt lat="41.707609975710511" lon="-5.807509990409017">
        <ele>705.00800000000004</ele>
        <time>2021-07-09T12:15:58Z</time>
      </trkpt>
      <trkpt lat="41.707420041784644" lon="-5.807509990409017">
        <ele>705.053</ele>
        <time>2021-07-09T12:16:01Z</time>
      </trkpt>
      <trkpt lat="41.707030031830072" lon="-5.807590037584305">
        <ele>704.06299999999999</ele>
        <time>2021-07-09T12:16:08Z</time>
      </trkpt>
      <trkpt lat="41.706640021875501" lon="-5.80770998261869">
        <ele>701.08299999999997</ele>
        <time>2021-07-09T12:16:16Z</time>
      </trkpt>
      <trkpt lat="41.705839969217777" lon="-5.808020029217005">
        <ele>696.09199999999998</ele>
        <time>2021-07-09T12:16:30Z</time>
      </trkpt>
      <trkpt lat="41.705460017547011" lon="-5.808129999786615">
        <ele>693.09699999999998</ele>
        <time>2021-07-09T12:16:37Z</time>
      </trkpt>
      <trkpt lat="41.70507000759244" lon="-5.808099992573261">
        <ele>691.08600000000001</ele>
        <time>2021-07-09T12:16:44Z</time>
      </trkpt>
      <trkpt lat="41.704389983788133" lon="-5.807990022003651">
        <ele>687.04200000000003</ele>
        <time>2021-07-09T12:16:56Z</time>
      </trkpt>
      <trkpt lat="41.704259980469942" lon="-5.807999996468425">
        <ele>686.02800000000002</ele>
        <time>2021-07-09T12:16:59Z</time>
      </trkpt>
      <trkpt lat="41.704020006582141" lon="-5.808079959824681">
        <ele>687.06700000000001</ele>
        <time>2021-07-09T12:17:03Z</time>
      </trkpt>
      <trkpt lat="41.703799981623888" lon="-5.80826997756958">
        <ele>690.08100000000002</ele>
        <time>2021-07-09T12:17:08Z</time>
      </trkpt>
      <trkpt lat="41.703569982200861" lon="-5.808410039171577">
        <ele>692.01900000000001</ele>
        <time>2021-07-09T12:17:12Z</time>
      </trkpt>
      <trkpt lat="41.70335004106164" lon="-5.808599973097444">
        <ele>692.00800000000004</ele>
        <time>2021-07-09T12:17:17Z</time>
      </trkpt>
      <trkpt lat="41.703190030530095" lon="-5.808789990842342">
        <ele>690.04300000000001</ele>
        <time>2021-07-09T12:17:21Z</time>
      </trkpt>
      <trkpt lat="41.702549988403916" lon="-5.809389967471361">
        <ele>690.06299999999999</ele>
        <time>2021-07-09T12:17:35Z</time>
      </trkpt>
      <trkpt lat="41.702370028942823" lon="-5.80957998521626">
        <ele>689.01300000000003</ele>
        <time>2021-07-09T12:17:39Z</time>
      </trkpt>
      <trkpt lat="41.702250000089407" lon="-5.809770002961159">
        <ele>687.06200000000001</ele>
        <time>2021-07-09T12:17:42Z</time>
      </trkpt>
      <trkpt lat="41.702219992876053" lon="-5.809879973530769">
        <ele>686.05700000000002</ele>
        <time>2021-07-09T12:17:44Z</time>
      </trkpt>
      <trkpt lat="41.702219992876053" lon="-5.810109972953796">
        <ele>683.096</ele>
        <time>2021-07-09T12:17:47Z</time>
      </trkpt>
      <trkpt lat="41.702370028942823" lon="-5.810729982331395">
        <ele>672.06200000000001</ele>
        <time>2021-07-09T12:17:55Z</time>
      </trkpt>
      <trkpt lat="41.702410010620952" lon="-5.810820003971458">
        <ele>670.06799999999998</ele>
        <time>2021-07-09T12:17:57Z</time>
      </trkpt>
      <trkpt lat="41.702400036156178" lon="-5.810989988967776">
        <ele>670.053</ele>
        <time>2021-07-09T12:17:59Z</time>
      </trkpt>
      <trkpt lat="41.70247002504766" lon="-5.811189981177449">
        <ele>670.00400000000002</ele>
        <time>2021-07-09T12:18:02Z</time>
      </trkpt>
      <trkpt lat="41.702489973977208" lon="-5.811549983918667">
        <ele>670.01400000000001</ele>
        <time>2021-07-09T12:18:07Z</time>
      </trkpt>
      <trkpt lat="41.702649984508753" lon="-5.812409967184067">
        <ele>670.00800000000004</ele>
        <time>2021-07-09T12:18:19Z</time>
      </trkpt>
      <trkpt lat="41.702909991145134" lon="-5.8143699914217">
        <ele>689.01199999999994</ele>
        <time>2021-07-09T12:18:45Z</time>
      </trkpt>
      <trkpt lat="41.702709998935461" lon="-5.814609965309501">
        <ele>692.01199999999994</ele>
        <time>2021-07-09T12:18:50Z</time>
      </trkpt>
      <trkpt lat="41.702329963445663" lon="-5.814969968050718">
        <ele>698.06200000000001</ele>
        <time>2021-07-09T12:18:58Z</time>
      </trkpt>
      <trkpt lat="41.702110022306442" lon="-5.815050015226007">
        <ele>699.04100000000005</ele>
        <time>2021-07-09T12:19:02Z</time>
      </trkpt>
      <trkpt lat="41.701910030096769" lon="-5.815010033547878">
        <ele>699.03599999999994</ele>
        <time>2021-07-09T12:19:06Z</time>
      </trkpt>
      <trkpt lat="41.701509961858392" lon="-5.814839964732528">
        <ele>695.07500000000005</ele>
        <time>2021-07-09T12:19:13Z</time>
      </trkpt>
      <trkpt lat="41.701409965753555" lon="-5.814829990267754">
        <ele>694.07100000000003</ele>
        <time>2021-07-09T12:19:15Z</time>
      </trkpt>
      <trkpt lat="41.701230006292462" lon="-5.814910037443042">
        <ele>695.077</ele>
        <time>2021-07-09T12:19:18Z</time>
      </trkpt>
      <trkpt lat="41.70116001740098" lon="-5.814999975264072">
        <ele>696.03899999999999</ele>
        <time>2021-07-09T12:19:20Z</time>
      </trkpt>
      <trkpt lat="41.701100002974272" lon="-5.815289989113808">
        <ele>696.00099999999998</ele>
        <time>2021-07-09T12:19:24Z</time>
      </trkpt>
      <trkpt lat="41.701100002974272" lon="-5.815449999645352">
        <ele>697.02099999999996</ele>
        <time>2021-07-09T12:19:26Z</time>
      </trkpt>
      <trkpt lat="41.701580034568906" lon="-5.817269962280989">
        <ele>707.00800000000004</ele>
        <time>2021-07-09T12:19:52Z</time>
      </trkpt>
      <trkpt lat="41.701669972389936" lon="-5.818179985508323">
        <ele>708.05999999999995</ele>
        <time>2021-07-09T12:20:04Z</time>
      </trkpt>
      <trkpt lat="41.701639965176582" lon="-5.818530013784766">
        <ele>708.03999999999996</ele>
        <time>2021-07-09T12:20:09Z</time>
      </trkpt>
      <trkpt lat="41.701520020142198" lon="-5.818820027634502">
        <ele>708.08000000000004</ele>
        <time>2021-07-09T12:20:13Z</time>
      </trkpt>
      <trkpt lat="41.701299995183945" lon="-5.81899001263082">
        <ele>710.04899999999998</ele>
        <time>2021-07-09T12:20:18Z</time>
      </trkpt>
      <trkpt lat="41.70116001740098" lon="-5.819020019844174">
        <ele>710.05399999999997</ele>
        <time>2021-07-09T12:20:20Z</time>
      </trkpt>
      <trkpt lat="41.700919959694147" lon="-5.818950030952692">
        <ele>711.02300000000002</ele>
        <time>2021-07-09T12:20:24Z</time>
      </trkpt>
      <trkpt lat="41.700819963589311" lon="-5.818830002099276">
        <ele>711.08900000000006</ele>
        <time>2021-07-09T12:20:27Z</time>
      </trkpt>
      <trkpt lat="41.699959980323911" lon="-5.816560015082359">
        <ele>710.03499999999997</ele>
        <time>2021-07-09T12:21:01Z</time>
      </trkpt>
      <trkpt lat="41.699710031971335" lon="-5.816119965165854">
        <ele>710.01700000000005</ele>
        <time>2021-07-09T12:21:08Z</time>
      </trkpt>
      <trkpt lat="41.69939998537302" lon="-5.81578996963799">
        <ele>710.08699999999999</ele>
        <time>2021-07-09T12:21:15Z</time>
      </trkpt>
      <trkpt lat="41.699150037020445" lon="-5.815619984641671">
        <ele>710.01499999999999</ele>
        <time>2021-07-09T12:21:20Z</time>
      </trkpt>
      <trkpt lat="41.698869997635484" lon="-5.815489981323481">
        <ele>709.00800000000004</ele>
        <time>2021-07-09T12:21:25Z</time>
      </trkpt>
      <trkpt lat="41.697280034422874" lon="-5.815059989690781">
        <ele>704.09799999999996</ele>
        <time>2021-07-09T12:21:54Z</time>
      </trkpt>
      <trkpt lat="41.696969987824559" lon="-5.814869971945882">
        <ele>703.01800000000003</ele>
        <time>2021-07-09T12:22:00Z</time>
      </trkpt>
      <trkpt lat="41.696330029517412" lon="-5.81434995867312">
        <ele>700.01800000000003</ele>
        <time>2021-07-09T12:22:14Z</time>
      </trkpt>
      <trkpt lat="41.696019982919097" lon="-5.814060028642416">
        <ele>699.08699999999999</ele>
        <time>2021-07-09T12:22:20Z</time>
      </trkpt>
      <trkpt lat="41.695680012926459" lon="-5.813830029219389">
        <ele>697.09199999999998</ele>
        <time>2021-07-09T12:22:27Z</time>
      </trkpt>
      <trkpt lat="41.695020021870732" lon="-5.813319990411401">
        <ele>695.09100000000001</ele>
        <time>2021-07-09T12:22:41Z</time>
      </trkpt>
      <trkpt lat="41.690369993448257" lon="-5.80960001796484">
        <ele>697.01700000000005</ele>
        <time>2021-07-09T12:24:17Z</time>
      </trkpt>
      <trkpt lat="41.690019965171814" lon="-5.809270022436976">
        <ele>696.07299999999998</ele>
        <time>2021-07-09T12:24:25Z</time>
      </trkpt>
      <trkpt lat="41.689749984070659" lon="-5.808880012482405">
        <ele>698.05100000000004</ele>
        <time>2021-07-09T12:24:32Z</time>
      </trkpt>
      <trkpt lat="41.689459970220923" lon="-5.808239970356226">
        <ele>700.00099999999998</ele>
        <time>2021-07-09T12:24:42Z</time>
      </trkpt>
      <trkpt lat="41.689400039613247" lon="-5.808190014213324">
        <ele>700.01099999999997</ele>
        <time>2021-07-09T12:24:43Z</time>
      </trkpt>
      <trkpt lat="41.689040036872029" lon="-5.808050036430359">
        <ele>701.00800000000004</ele>
        <time>2021-07-09T12:24:50Z</time>
      </trkpt>
      <trkpt lat="41.688790004700422" lon="-5.807779971510172">
        <ele>702.06200000000001</ele>
        <time>2021-07-09T12:24:55Z</time>
      </trkpt>
      <trkpt lat="41.688620019704103" lon="-5.807690033689141">
        <ele>702.05200000000002</ele>
        <time>2021-07-09T12:24:59Z</time>
      </trkpt>
      <trkpt lat="41.68826999142766" lon="-5.807630019262433">
        <ele>703.03200000000004</ele>
        <time>2021-07-09T12:25:05Z</time>
      </trkpt>
      <trkpt lat="41.688009984791279" lon="-5.807539997622371">
        <ele>704.03099999999995</ele>
        <time>2021-07-09T12:25:10Z</time>
      </trkpt>
      <trkpt lat="41.687150001525879" lon="-5.80700003542006">
        <ele>707.03599999999994</ele>
        <time>2021-07-09T12:25:27Z</time>
      </trkpt>
      <trkpt lat="41.686360007151961" lon="-5.806540036574006">
        <ele>709.05499999999995</ele>
        <time>2021-07-09T12:25:42Z</time>
      </trkpt>
      <trkpt lat="41.685879975557327" lon="-5.806269971653819">
        <ele>708.03099999999995</ele>
        <time>2021-07-09T12:25:51Z</time>
      </trkpt>
      <trkpt lat="41.68556003831327" lon="-5.806139968335629">
        <ele>708.02700000000004</ele>
        <time>2021-07-09T12:25:57Z</time>
      </trkpt>
      <trkpt lat="41.684950003400445" lon="-5.805999990552664">
        <ele>708.03599999999994</ele>
        <time>2021-07-09T12:26:08Z</time>
      </trkpt>
      <trkpt lat="41.684529986232519" lon="-5.805980041623116">
        <ele>707.01700000000005</ele>
        <time>2021-07-09T12:26:16Z</time>
      </trkpt>
      <trkpt lat="41.68337001465261" lon="-5.806039972230792">
        <ele>709.01800000000003</ele>
        <time>2021-07-09T12:26:36Z</time>
      </trkpt>
      <trkpt lat="41.682299980893731" lon="-5.806039972230792">
        <ele>710.00800000000004</ele>
        <time>2021-07-09T12:26:55Z</time>
      </trkpt>
      <trkpt lat="41.682020025327802" lon="-5.806069979444146">
        <ele>710.02999999999997</ele>
        <time>2021-07-09T12:27:00Z</time>
      </trkpt>
      <trkpt lat="41.681419964879751" lon="-5.806080037727952">
        <ele>709.07000000000005</ele>
        <time>2021-07-09T12:27:11Z</time>
      </trkpt>
      <trkpt lat="41.68059996329248" lon="-5.806060004979372">
        <ele>706.09000000000003</ele>
        <time>2021-07-09T12:27:25Z</time>
      </trkpt>
      <trkpt lat="41.680429978296161" lon="-5.806029997766018">
        <ele>706.029</ele>
        <time>2021-07-09T12:27:29Z</time>
      </trkpt>
      <trkpt lat="41.679660016670823" lon="-5.806050030514598">
        <ele>704.09400000000005</ele>
        <time>2021-07-09T12:27:42Z</time>
      </trkpt>
      <trkpt lat="41.67946002446115" lon="-5.806090012192726">
        <ele>704.09299999999996</ele>
        <time>2021-07-09T12:27:46Z</time>
      </trkpt>
      <trkpt lat="41.679049981757998" lon="-5.80612001940608">
        <ele>703.09900000000005</ele>
        <time>2021-07-09T12:27:53Z</time>
      </trkpt>
      <trkpt lat="41.678389990702271" lon="-5.806080037727952">
        <ele>702.01499999999999</ele>
        <time>2021-07-09T12:28:05Z</time>
      </trkpt>
      <trkpt lat="41.677950024604797" lon="-5.806109961122274">
        <ele>703.03099999999995</ele>
        <time>2021-07-09T12:28:13Z</time>
      </trkpt>
      <trkpt lat="41.676099970936775" lon="-5.806060004979372">
        <ele>703.06100000000004</ele>
        <time>2021-07-09T12:28:46Z</time>
      </trkpt>
      <trkpt lat="41.675409972667694" lon="-5.806090012192726">
        <ele>702.00699999999995</ele>
        <time>2021-07-09T12:28:58Z</time>
      </trkpt>
      <trkpt lat="41.672849971801043" lon="-5.806129993870854">
        <ele>700.00800000000004</ele>
        <time>2021-07-09T12:29:44Z</time>
      </trkpt>
      <trkpt lat="41.666630012914538" lon="-5.806150026619434">
        <ele>702.01999999999998</ele>
        <time>2021-07-09T12:31:34Z</time>
      </trkpt>
      <trkpt lat="41.662999978289008" lon="-5.806210041046143">
        <ele>702.01999999999998</ele>
        <time>2021-07-09T12:32:39Z</time>
      </trkpt>
      <trkpt lat="41.660200003534555" lon="-5.806220015510917">
        <ele>706.02999999999997</ele>
        <time>2021-07-09T12:33:29Z</time>
      </trkpt>
      <trkpt lat="41.656759986653924" lon="-5.806290004402399">
        <ele>709.03899999999999</ele>
        <time>2021-07-09T12:34:30Z</time>
      </trkpt>
      <trkpt lat="41.656329995021224" lon="-5.806280029937625">
        <ele>707.06399999999996</ele>
        <time>2021-07-09T12:34:37Z</time>
      </trkpt>
      <trkpt lat="41.655909977853298" lon="-5.806210041046143">
        <ele>705.02300000000002</ele>
        <time>2021-07-09T12:34:45Z</time>
      </trkpt>
      <trkpt lat="41.655479986220598" lon="-5.806080037727952">
        <ele>702.08900000000006</ele>
        <time>2021-07-09T12:34:53Z</time>
      </trkpt>
      <trkpt lat="41.655070027336478" lon="-5.805890019983053">
        <ele>698.01499999999999</ele>
        <time>2021-07-09T12:35:01Z</time>
      </trkpt>
      <trkpt lat="41.654680017381907" lon="-5.805630013346672">
        <ele>696.06500000000005</ele>
        <time>2021-07-09T12:35:08Z</time>
      </trkpt>
      <trkpt lat="41.653739986941218" lon="-5.804849993437529">
        <ele>689.06799999999998</ele>
        <time>2021-07-09T12:35:28Z</time>
      </trkpt>
      <trkpt lat="41.653340002521873" lon="-5.804610019549727">
        <ele>685.01400000000001</ele>
        <time>2021-07-09T12:35:36Z</time>
      </trkpt>
      <trkpt lat="41.652900036424398" lon="-5.804440034553409">
        <ele>683.00800000000004</ele>
        <time>2021-07-09T12:35:44Z</time>
      </trkpt>
      <trkpt lat="41.651690024882555" lon="-5.804069973528385">
        <ele>684.08299999999997</ele>
        <time>2021-07-09T12:36:06Z</time>
      </trkpt>
      <trkpt lat="41.647869972512126" lon="-5.802749991416931">
        <ele>692.02300000000002</ele>
        <time>2021-07-09T12:37:16Z</time>
      </trkpt>
      <trkpt lat="41.640189969912171" lon="-5.800199965015054">
        <ele>698.07299999999998</ele>
        <time>2021-07-09T12:39:37Z</time>
      </trkpt>
      <trkpt lat="41.636779960244894" lon="-5.79903001897037">
        <ele>704.09199999999998</ele>
        <time>2021-07-09T12:40:40Z</time>
      </trkpt>
      <trkpt lat="41.634260024875402" lon="-5.798189984634519">
        <ele>707.05700000000002</ele>
        <time>2021-07-09T12:41:26Z</time>
      </trkpt>
      <trkpt lat="41.633679997175932" lon="-5.798029974102974">
        <ele>707.096</ele>
        <time>2021-07-09T12:41:36Z</time>
      </trkpt>
      <trkpt lat="41.632009986788034" lon="-5.797399990260601">
        <ele>705.09199999999998</ele>
        <time>2021-07-09T12:42:07Z</time>
      </trkpt>
      <trkpt lat="41.631900016218424" lon="-5.797390015795827">
        <ele>704.02800000000002</ele>
        <time>2021-07-09T12:42:09Z</time>
      </trkpt>
      <trkpt lat="41.631800020113587" lon="-5.797420023009181">
        <ele>704.01300000000003</ele>
        <time>2021-07-09T12:42:11Z</time>
      </trkpt>
      <trkpt lat="41.63157002069056" lon="-5.7975900080055">
        <ele>704.04300000000001</ele>
        <time>2021-07-09T12:42:16Z</time>
      </trkpt>
      <trkpt lat="41.631479999050498" lon="-5.797599982470274">
        <ele>704.00699999999995</ele>
        <time>2021-07-09T12:42:17Z</time>
      </trkpt>
      <trkpt lat="41.631319988518953" lon="-5.797509960830212">
        <ele>704.00800000000004</ele>
        <time>2021-07-09T12:42:20Z</time>
      </trkpt>
      <trkpt lat="41.631170036271214" lon="-5.797190023586154">
        <ele>706.03800000000001</ele>
        <time>2021-07-09T12:42:25Z</time>
      </trkpt>
      <trkpt lat="41.630999967455864" lon="-5.797039987519383">
        <ele>706.07799999999997</ele>
        <time>2021-07-09T12:42:29Z</time>
      </trkpt>
      <trkpt lat="41.630520019680262" lon="-5.796819962561131">
        <ele>708.048</ele>
        <time>2021-07-09T12:42:38Z</time>
      </trkpt>
      <trkpt lat="41.629800014197826" lon="-5.796619970351458">
        <ele>708.09699999999998</ele>
        <time>2021-07-09T12:42:51Z</time>
      </trkpt>
      <trkpt lat="41.629170030355453" lon="-5.796359963715076">
        <ele>708.072</ele>
        <time>2021-07-09T12:43:03Z</time>
      </trkpt>
      <trkpt lat="41.627930011600256" lon="-5.795959979295731">
        <ele>709.05100000000004</ele>
        <time>2021-07-09T12:43:26Z</time>
      </trkpt>
      <trkpt lat="41.627419972792268" lon="-5.795720005407929">
        <ele>710.01700000000005</ele>
        <time>2021-07-09T12:43:35Z</time>
      </trkpt>
      <trkpt lat="41.626599971204996" lon="-5.795439966022968">
        <ele>711.07299999999998</ele>
        <time>2021-07-09T12:43:50Z</time>
      </trkpt>
      <trkpt lat="41.624919986352324" lon="-5.794979967176914">
        <ele>715.05600000000004</ele>
        <time>2021-07-09T12:44:21Z</time>
      </trkpt>
      <trkpt lat="41.620879992842674" lon="-5.793819995597005">
        <ele>717.05899999999997</ele>
        <time>2021-07-09T12:45:34Z</time>
      </trkpt>
      <trkpt lat="41.620319997891784" lon="-5.793480025604367">
        <ele>718.01400000000001</ele>
        <time>2021-07-09T12:45:45Z</time>
      </trkpt>
      <trkpt lat="41.620039958506823" lon="-5.793339964002371">
        <ele>719.00800000000004</ele>
        <time>2021-07-09T12:45:51Z</time>
      </trkpt>
      <trkpt lat="41.619179975241423" lon="-5.793020026758313">
        <ele>719.08199999999999</ele>
        <time>2021-07-09T12:46:06Z</time>
      </trkpt>
      <trkpt lat="41.61100996658206" lon="-5.790170012041926">
        <ele>724.09199999999998</ele>
        <time>2021-07-09T12:48:37Z</time>
      </trkpt>
      <trkpt lat="41.603199960663915" lon="-5.787489982321858">
        <ele>721.06200000000001</ele>
        <time>2021-07-09T12:51:00Z</time>
      </trkpt>
      <trkpt lat="41.598459994420409" lon="-5.785800023004413">
        <ele>718.04100000000005</ele>
        <time>2021-07-09T12:52:27Z</time>
      </trkpt>
      <trkpt lat="41.597579978406429" lon="-5.785519983619452">
        <ele>719.01599999999996</ele>
        <time>2021-07-09T12:52:44Z</time>
      </trkpt>
      <trkpt lat="41.596989976242185" lon="-5.785410013049841">
        <ele>718.02499999999998</ele>
        <time>2021-07-09T12:52:54Z</time>
      </trkpt>
      <trkpt lat="41.59642000682652" lon="-5.785319991409779">
        <ele>718.02099999999996</ele>
        <time>2021-07-09T12:53:04Z</time>
      </trkpt>
      <trkpt lat="41.594819985330105" lon="-5.785140031948686">
        <ele>719.06700000000001</ele>
        <time>2021-07-09T12:53:33Z</time>
      </trkpt>
      <trkpt lat="41.59425001591444" lon="-5.784660000354052">
        <ele>718.07399999999996</ele>
        <time>2021-07-09T12:53:45Z</time>
      </trkpt>
      <trkpt lat="41.593679962679744" lon="-5.784309972077608">
        <ele>717.05600000000004</ele>
        <time>2021-07-09T12:53:56Z</time>
      </trkpt>
      <trkpt lat="41.593119967728853" lon="-5.784039990976453">
        <ele>717.02099999999996</ele>
        <time>2021-07-09T12:54:07Z</time>
      </trkpt>
      <trkpt lat="41.592020010575652" lon="-5.783600024878979">
        <ele>721.00800000000004</ele>
        <time>2021-07-09T12:54:27Z</time>
      </trkpt>
      <trkpt lat="41.590129975229502" lon="-5.782929975539446">
        <ele>723.07399999999996</ele>
        <time>2021-07-09T12:55:02Z</time>
      </trkpt>
      <trkpt lat="41.583280032500625" lon="-5.780589999631047">
        <ele>720.04399999999998</ele>
        <time>2021-07-09T12:57:08Z</time>
      </trkpt>
      <trkpt lat="41.579900030046701" lon="-5.779409995302558">
        <ele>718.04399999999998</ele>
        <time>2021-07-09T12:58:10Z</time>
      </trkpt>
      <trkpt lat="41.578100016340613" lon="-5.778819993138313">
        <ele>720.01300000000003</ele>
        <time>2021-07-09T12:58:43Z</time>
      </trkpt>
      <trkpt lat="41.577370036393404" lon="-5.778629975393415">
        <ele>720.05799999999999</ele>
        <time>2021-07-09T12:58:56Z</time>
      </trkpt>
      <trkpt lat="41.576629998162389" lon="-5.778499972075224">
        <ele>720.04700000000003</ele>
        <time>2021-07-09T12:59:09Z</time>
      </trkpt>
      <trkpt lat="41.575199961662292" lon="-5.778410034254193">
        <ele>719.07299999999998</ele>
        <time>2021-07-09T12:59:35Z</time>
      </trkpt>
      <trkpt lat="41.574759995564818" lon="-5.778359994292259">
        <ele>719.06899999999996</ele>
        <time>2021-07-09T12:59:43Z</time>
      </trkpt>
      <trkpt lat="41.574220033362508" lon="-5.777850039303303">
        <ele>720.09900000000005</ele>
        <time>2021-07-09T12:59:54Z</time>
      </trkpt>
      <trkpt lat="41.573960026726127" lon="-5.777649963274598">
        <ele>720.00699999999995</ele>
        <time>2021-07-09T13:00:00Z</time>
      </trkpt>
      <trkpt lat="41.573459962382913" lon="-5.777330026030541">
        <ele>719.02700000000004</ele>
        <time>2021-07-09T13:00:10Z</time>
      </trkpt>
      <trkpt lat="41.572450026869774" lon="-5.776880001649261">
        <ele>714.00800000000004</ele>
        <time>2021-07-09T13:00:29Z</time>
      </trkpt>
      <trkpt lat="41.570439962670207" lon="-5.776139963418245">
        <ele>718.01599999999996</ele>
        <time>2021-07-09T13:01:06Z</time>
      </trkpt>
      <trkpt lat="41.56268997117877" lon="-5.773469991981983">
        <ele>711.02599999999995</ele>
        <time>2021-07-09T13:03:28Z</time>
      </trkpt>
      <trkpt lat="41.56215000897646" lon="-5.773300006985664">
        <ele>711.07600000000002</ele>
        <time>2021-07-09T13:03:38Z</time>
      </trkpt>
      <trkpt lat="41.561599988490343" lon="-5.773209985345602">
        <ele>710.05499999999995</ele>
        <time>2021-07-09T13:03:48Z</time>
      </trkpt>
      <trkpt lat="41.56086003407836" lon="-5.773179978132248">
        <ele>707.04999999999995</ele>
        <time>2021-07-09T13:04:01Z</time>
      </trkpt>
      <trkpt lat="41.5603899769485" lon="-5.772940004244447">
        <ele>706.01900000000001</ele>
        <time>2021-07-09T13:04:10Z</time>
      </trkpt>
      <trkpt lat="41.5595299936831" lon="-5.772749986499548">
        <ele>706.07500000000005</ele>
        <time>2021-07-09T13:04:25Z</time>
      </trkpt>
      <trkpt lat="41.559139983728528" lon="-5.772640015929937">
        <ele>706.01099999999997</ele>
        <time>2021-07-09T13:04:32Z</time>
      </trkpt>
      <trkpt lat="41.55864997766912" lon="-5.772310020402074">
        <ele>706.03599999999994</ele>
        <time>2021-07-09T13:04:42Z</time>
      </trkpt>
      <trkpt lat="41.558140022680163" lon="-5.772029981017113">
        <ele>705.01700000000005</ele>
        <time>2021-07-09T13:04:52Z</time>
      </trkpt>
      <trkpt lat="41.557699972763658" lon="-5.771920010447502">
        <ele>704.01800000000003</ele>
        <time>2021-07-09T13:05:00Z</time>
      </trkpt>
      <trkpt lat="41.553570041432977" lon="-5.771269993856549">
        <ele>696.00800000000004</ele>
        <time>2021-07-09T13:06:14Z</time>
      </trkpt>
      <trkpt lat="41.55259002931416" lon="-5.771090034395456">
        <ele>697.03999999999996</ele>
        <time>2021-07-09T13:06:32Z</time>
      </trkpt>
      <trkpt lat="41.551190000027418" lon="-5.771049968898296">
        <ele>699.07000000000005</ele>
        <time>2021-07-09T13:06:57Z</time>
      </trkpt>
      <trkpt lat="41.550960000604391" lon="-5.771030019968748">
        <ele>699.07000000000005</ele>
        <time>2021-07-09T13:07:01Z</time>
      </trkpt>
      <trkpt lat="41.55027000233531" lon="-5.770889958366752">
        <ele>701.04899999999998</ele>
        <time>2021-07-09T13:07:13Z</time>
      </trkpt>
      <trkpt lat="41.550260027870536" lon="-5.77097000554204">
        <ele>701.03399999999999</ele>
        <time>2021-07-09T13:07:14Z</time>
      </trkpt>
      <trkpt lat="41.550139999017119" lon="-5.77099003829062">
        <ele>701.053</ele>
        <time>2021-07-09T13:07:16Z</time>
      </trkpt>
      <trkpt lat="41.548220040276647" lon="-5.76968003064394">
        <ele>697.07899999999995</ele>
        <time>2021-07-09T13:07:55Z</time>
      </trkpt>
      <trkpt lat="41.545749977231026" lon="-5.768110016360879">
        <ele>696.08500000000004</ele>
        <time>2021-07-09T13:08:43Z</time>
      </trkpt>
      <trkpt lat="41.545159975066781" lon="-5.768010020256043">
        <ele>694.04700000000003</ele>
        <time>2021-07-09T13:08:54Z</time>
      </trkpt>
      <trkpt lat="41.544829979538918" lon="-5.767680024728179">
        <ele>695.029</ele>
        <time>2021-07-09T13:09:01Z</time>
      </trkpt>
      <trkpt lat="41.544460002332926" lon="-5.767480032518506">
        <ele>696.02099999999996</ele>
        <time>2021-07-09T13:09:08Z</time>
      </trkpt>
      <trkpt lat="41.544290017336607" lon="-5.767590003088117">
        <ele>696.00800000000004</ele>
        <time>2021-07-09T13:09:12Z</time>
      </trkpt>
      <trkpt lat="41.544139981269836" lon="-5.767599977552891">
        <ele>697.06100000000004</ele>
        <time>2021-07-09T13:09:14Z</time>
      </trkpt>
      <trkpt lat="41.54406001791358" lon="-5.767559995874763">
        <ele>696.06100000000004</ele>
        <time>2021-07-09T13:09:16Z</time>
      </trkpt>
      <trkpt lat="41.544000003486872" lon="-5.767480032518506">
        <ele>696.03099999999995</ele>
        <time>2021-07-09T13:09:17Z</time>
      </trkpt>
      <trkpt lat="41.543879974633455" lon="-5.767179960384965">
        <ele>695.02999999999997</ele>
        <time>2021-07-09T13:09:22Z</time>
      </trkpt>
      <trkpt lat="41.543749971315265" lon="-5.766969993710518">
        <ele>694.09500000000003</ele>
        <time>2021-07-09T13:09:26Z</time>
      </trkpt>
      <trkpt lat="41.542980009689927" lon="-5.766319977119565">
        <ele>693.08399999999995</ele>
        <time>2021-07-09T13:09:42Z</time>
      </trkpt>
      <trkpt lat="41.542569966986775" lon="-5.76602996326983">
        <ele>692.02999999999997</ele>
        <time>2021-07-09T13:09:50Z</time>
      </trkpt>
      <trkpt lat="41.54171995818615" lon="-5.765490001067519">
        <ele>693.02599999999995</ele>
        <time>2021-07-09T13:10:07Z</time>
      </trkpt>
      <trkpt lat="41.541630020365119" lon="-5.765480026602745">
        <ele>693.07899999999995</ele>
        <time>2021-07-09T13:10:08Z</time>
      </trkpt>
      <trkpt lat="41.541200028732419" lon="-5.765810022130609">
        <ele>696.005</ele>
        <time>2021-07-09T13:10:17Z</time>
      </trkpt>
      <trkpt lat="41.541100032627583" lon="-5.765840029343963">
        <ele>697.02499999999998</ele>
        <time>2021-07-09T13:10:19Z</time>
      </trkpt>
      <trkpt lat="41.54098997823894" lon="-5.765840029343963">
        <ele>698.00800000000004</ele>
        <time>2021-07-09T13:10:21Z</time>
      </trkpt>
      <trkpt lat="41.540799960494041" lon="-5.76577004045248">
        <ele>699.08399999999995</ele>
        <time>2021-07-09T13:10:24Z</time>
      </trkpt>
      <trkpt lat="41.540640033781528" lon="-5.76559997163713">
        <ele>699.01400000000001</ele>
        <time>2021-07-09T13:10:28Z</time>
      </trkpt>
      <trkpt lat="41.54042998328805" lon="-5.764990020543337">
        <ele>697.03399999999999</ele>
        <time>2021-07-09T13:10:37Z</time>
      </trkpt>
      <trkpt lat="41.540359994396567" lon="-5.764899998903275">
        <ele>698.053</ele>
        <time>2021-07-09T13:10:39Z</time>
      </trkpt>
      <trkpt lat="41.540169976651669" lon="-5.764779970049858">
        <ele>698.03800000000001</ele>
        <time>2021-07-09T13:10:43Z</time>
      </trkpt>
      <trkpt lat="41.539939977228642" lon="-5.76473998837173">
        <ele>699.077</ele>
        <time>2021-07-09T13:10:47Z</time>
      </trkpt>
      <trkpt lat="41.539479978382587" lon="-5.76473998837173">
        <ele>699.06299999999999</ele>
        <time>2021-07-09T13:10:55Z</time>
      </trkpt>
      <trkpt lat="41.538740023970604" lon="-5.764649966731668">
        <ele>697.08900000000006</ele>
        <time>2021-07-09T13:11:08Z</time>
      </trkpt>
      <trkpt lat="41.538129989057779" lon="-5.764509988948703">
        <ele>695.02800000000002</ele>
        <time>2021-07-09T13:11:19Z</time>
      </trkpt>
      <trkpt lat="41.537799993529916" lon="-5.764379985630512">
        <ele>694.08900000000006</ele>
        <time>2021-07-09T13:11:25Z</time>
      </trkpt>
      <trkpt lat="41.536919977515936" lon="-5.763750001788139">
        <ele>694.01700000000005</ele>
        <time>2021-07-09T13:11:43Z</time>
      </trkpt>
      <trkpt lat="41.535899983718991" lon="-5.762909967452288">
        <ele>694.00800000000004</ele>
        <time>2021-07-09T13:12:04Z</time>
      </trkpt>
      <trkpt lat="41.533309975638986" lon="-5.760929994285107">
        <ele>699.03899999999999</ele>
        <time>2021-07-09T13:12:57Z</time>
      </trkpt>
      <trkpt lat="41.533049969002604" lon="-5.760760009288788">
        <ele>698.03899999999999</ele>
        <time>2021-07-09T13:13:03Z</time>
      </trkpt>
      <trkpt lat="41.532779987901449" lon="-5.760639980435371">
        <ele>697.07899999999995</ele>
        <time>2021-07-09T13:13:08Z</time>
      </trkpt>
      <trkpt lat="41.531350035220385" lon="-5.760260028764606">
        <ele>694.01800000000003</ele>
        <time>2021-07-09T13:13:34Z</time>
      </trkpt>
      <trkpt lat="41.530689960345626" lon="-5.760030029341579">
        <ele>695.02300000000002</ele>
        <time>2021-07-09T13:13:46Z</time>
      </trkpt>
      <trkpt lat="41.530359964817762" lon="-5.760000022128224">
        <ele>694.03200000000004</ele>
        <time>2021-07-09T13:13:52Z</time>
      </trkpt>
      <trkpt lat="41.530180005356669" lon="-5.759960040450096">
        <ele>693.048</ele>
        <time>2021-07-09T13:13:55Z</time>
      </trkpt>
      <trkpt lat="41.529929973185062" lon="-5.759800029918551">
        <ele>693.09400000000005</ele>
        <time>2021-07-09T13:14:00Z</time>
      </trkpt>
      <trkpt lat="41.529599977657199" lon="-5.759419994428754">
        <ele>691.08299999999997</ele>
        <time>2021-07-09T13:14:07Z</time>
      </trkpt>
      <trkpt lat="41.529039982706308" lon="-5.759129980579019">
        <ele>690.02499999999998</ele>
        <time>2021-07-09T13:14:18Z</time>
      </trkpt>
      <trkpt lat="41.525659980252385" lon="-5.757770016789436">
        <ele>682.01700000000005</ele>
        <time>2021-07-09T13:15:21Z</time>
      </trkpt>
      <trkpt lat="41.525139966979623" lon="-5.757600031793118">
        <ele>683.00800000000004</ele>
        <time>2021-07-09T13:15:31Z</time>
      </trkpt>
      <trkpt lat="41.523910006508231" lon="-5.757270036265254">
        <ele>683.04499999999996</ele>
        <time>2021-07-09T13:15:53Z</time>
      </trkpt>
      <trkpt lat="41.523259989917278" lon="-5.757050011307001">
        <ele>683.03499999999997</ele>
        <time>2021-07-09T13:16:05Z</time>
      </trkpt>
      <trkpt lat="41.52263998053968" lon="-5.756759997457266">
        <ele>682.02499999999998</ele>
        <time>2021-07-09T13:16:16Z</time>
      </trkpt>
      <trkpt lat="41.522049978375435" lon="-5.756350038573146">
        <ele>680.09400000000005</ele>
        <time>2021-07-09T13:16:28Z</time>
      </trkpt>
      <trkpt lat="41.520530004054308" lon="-5.755709996446967">
        <ele>678.04899999999998</ele>
        <time>2021-07-09T13:16:57Z</time>
      </trkpt>
      <trkpt lat="41.519870012998581" lon="-5.755380000919104">
        <ele>676.048</ele>
        <time>2021-07-09T13:17:09Z</time>
      </trkpt>
      <trkpt lat="41.519670020788908" lon="-5.755319986492395">
        <ele>676.09400000000005</ele>
        <time>2021-07-09T13:17:13Z</time>
      </trkpt>
      <trkpt lat="41.51963003911078" lon="-5.755359968170524">
        <ele>676.09000000000003</ele>
        <time>2021-07-09T13:17:14Z</time>
      </trkpt>
      <trkpt lat="41.519440021365881" lon="-5.755449989810586">
        <ele>676.02599999999995</ele>
        <time>2021-07-09T13:17:17Z</time>
      </trkpt>
      <trkpt lat="41.519359974190593" lon="-5.755470022559166">
        <ele>676.04700000000003</ele>
        <time>2021-07-09T13:17:19Z</time>
      </trkpt>
      <trkpt lat="41.519199963659048" lon="-5.75545996427536">
        <ele>675.01099999999997</ele>
        <time>2021-07-09T13:17:22Z</time>
      </trkpt>
      <trkpt lat="41.519080018624663" lon="-5.755319986492395">
        <ele>676.00800000000004</ele>
        <time>2021-07-09T13:17:24Z</time>
      </trkpt>
      <trkpt lat="41.519029978662729" lon="-5.754989990964532">
        <ele>676.01900000000001</ele>
        <time>2021-07-09T13:17:29Z</time>
      </trkpt>
      <trkpt lat="41.519189989194274" lon="-5.75446997769177">
        <ele>675.06899999999996</ele>
        <time>2021-07-09T13:17:36Z</time>
      </trkpt>
      <trkpt lat="41.519329966977239" lon="-5.754160014912486">
        <ele>675.03899999999999</ele>
        <time>2021-07-09T13:17:41Z</time>
      </trkpt>
      <trkpt lat="41.519389981403947" lon="-5.753960022702813">
        <ele>675.048</ele>
        <time>2021-07-09T13:17:44Z</time>
      </trkpt>
      <trkpt lat="41.519500035792589" lon="-5.753170028328896">
        <ele>673.053</ele>
        <time>2021-07-09T13:17:55Z</time>
      </trkpt>
      <trkpt lat="41.519529959186912" lon="-5.752559993416071">
        <ele>671.02200000000005</ele>
        <time>2021-07-09T13:18:03Z</time>
      </trkpt>
      <trkpt lat="41.519519984722137" lon="-5.752169983461499">
        <ele>669.06799999999998</ele>
        <time>2021-07-09T13:18:08Z</time>
      </trkpt>
      <trkpt lat="41.519440021365881" lon="-5.751700010150671">
        <ele>666.024</ele>
        <time>2021-07-09T13:18:15Z</time>
      </trkpt>
      <trkpt lat="41.519359974190593" lon="-5.751489959657192">
        <ele>665.08399999999995</ele>
        <time>2021-07-09T13:18:18Z</time>
      </trkpt>
      <trkpt lat="41.519229970872402" lon="-5.751370014622808">
        <ele>665.00699999999995</ele>
        <time>2021-07-09T13:18:21Z</time>
      </trkpt>
      <trkpt lat="41.519110025838017" lon="-5.751170022413135">
        <ele>665.01700000000005</ele>
        <time>2021-07-09T13:18:24Z</time>
      </trkpt>
      <trkpt lat="41.519120000302792" lon="-5.750929964706302">
        <ele>665.00800000000004</ele>
        <time>2021-07-09T13:18:27Z</time>
      </trkpt>
      <trkpt lat="41.519089993089437" lon="-5.750689990818501">
        <ele>665.03499999999997</ele>
        <time>2021-07-09T13:18:30Z</time>
      </trkpt>
      <trkpt lat="41.518989996984601" lon="-5.750459991395474">
        <ele>666.06500000000005</ele>
        <time>2021-07-09T13:18:34Z</time>
      </trkpt>
      <trkpt lat="41.51845003478229" lon="-5.74967997148633">
        <ele>664.09500000000003</ele>
        <time>2021-07-09T13:18:48Z</time>
      </trkpt>
      <trkpt lat="41.516169989481568" lon="-5.746749993413687">
        <ele>638.04399999999998</ele>
        <time>2021-07-09T13:19:44Z</time>
      </trkpt>
      <trkpt lat="41.516090026125312" lon="-5.746680004522204">
        <ele>638.03899999999999</ele>
        <time>2021-07-09T13:19:46Z</time>
      </trkpt>
      <trkpt lat="41.515860026702285" lon="-5.746619990095496">
        <ele>636.06799999999998</ele>
        <time>2021-07-09T13:19:50Z</time>
      </trkpt>
      <trkpt lat="41.515800012275577" lon="-5.746580008417368">
        <ele>636.09400000000005</ele>
        <time>2021-07-09T13:19:51Z</time>
      </trkpt>
      <trkpt lat="41.515749972313643" lon="-5.746510019525886">
        <ele>637.00999999999999</ele>
        <time>2021-07-09T13:19:53Z</time>
      </trkpt>
      <trkpt lat="41.51567998342216" lon="-5.746229980140925">
        <ele>638.03599999999994</ele>
        <time>2021-07-09T13:19:57Z</time>
      </trkpt>
      <trkpt lat="41.515560038387775" lon="-5.745950024574995">
        <ele>639.01700000000005</ele>
        <time>2021-07-09T13:20:01Z</time>
      </trkpt>
      <trkpt lat="41.515080006793141" lon="-5.745300007984042">
        <ele>640.01800000000003</ele>
        <time>2021-07-09T13:20:13Z</time>
      </trkpt>
      <trkpt lat="41.514090020209551" lon="-5.744040040299296">
        <ele>640.00800000000004</ele>
        <time>2021-07-09T13:20:37Z</time>
      </trkpt>
      <trkpt lat="41.513999998569489" lon="-5.743939960375428">
        <ele>642.02999999999997</ele>
        <time>2021-07-09T13:20:40Z</time>
      </trkpt>
      <trkpt lat="41.513719959184527" lon="-5.743760000914335">
        <ele>645.02999999999997</ele>
        <time>2021-07-09T13:20:45Z</time>
      </trkpt>
      <trkpt lat="41.513639995828271" lon="-5.743639972060919">
        <ele>647.05999999999995</ele>
        <time>2021-07-09T13:20:47Z</time>
      </trkpt>
      <trkpt lat="41.51353002525866" lon="-5.743070002645254">
        <ele>654.03899999999999</ele>
        <time>2021-07-09T13:20:55Z</time>
      </trkpt>
      <trkpt lat="41.513189971446991" lon="-5.742280008271337">
        <ele>663.03399999999999</ele>
        <time>2021-07-09T13:21:07Z</time>
      </trkpt>
      <trkpt lat="41.512750005349517" lon="-5.740960026159883">
        <ele>667.09299999999996</ele>
        <time>2021-07-09T13:21:26Z</time>
      </trkpt>
      <trkpt lat="41.51206998154521" lon="-5.738389967009425">
        <ele>664.03899999999999</ele>
        <time>2021-07-09T13:22:03Z</time>
      </trkpt>
      <trkpt lat="41.511779967695475" lon="-5.73771002702415">
        <ele>663.06500000000005</ele>
        <time>2021-07-09T13:22:13Z</time>
      </trkpt>
      <trkpt lat="41.511649964377284" lon="-5.737499976530671">
        <ele>662.08199999999999</ele>
        <time>2021-07-09T13:22:17Z</time>
      </trkpt>
      <trkpt lat="41.511219972744584" lon="-5.736979963257909">
        <ele>659.04300000000001</ele>
        <time>2021-07-09T13:22:27Z</time>
      </trkpt>
      <trkpt lat="41.510859970003366" lon="-5.736570004373789">
        <ele>656.01700000000005</ele>
        <time>2021-07-09T13:22:36Z</time>
      </trkpt>
      <trkpt lat="41.510599963366985" lon="-5.736330030485988">
        <ele>656.00800000000004</ele>
        <time>2021-07-09T13:22:41Z</time>
      </trkpt>
      <trkpt lat="41.510469960048795" lon="-5.736149987205863">
        <ele>656.02499999999998</ele>
        <time>2021-07-09T13:22:45Z</time>
      </trkpt>
      <trkpt lat="41.510150022804737" lon="-5.735789984464645">
        <ele>656.06500000000005</ele>
        <time>2021-07-09T13:22:52Z</time>
      </trkpt>
      <trkpt lat="41.509750038385391" lon="-5.735210040584207">
        <ele>655.02499999999998</ele>
        <time>2021-07-09T13:23:02Z</time>
      </trkpt>
      <trkpt lat="41.509430017322302" lon="-5.734850037842989">
        <ele>654.05399999999997</ele>
        <time>2021-07-09T13:23:10Z</time>
      </trkpt>
      <trkpt lat="41.509089963510633" lon="-5.734379980713129">
        <ele>654.05899999999997</ele>
        <time>2021-07-09T13:23:19Z</time>
      </trkpt>
      <trkpt lat="41.508759967982769" lon="-5.734000029042363">
        <ele>653.02800000000002</ele>
        <time>2021-07-09T13:23:26Z</time>
      </trkpt>
      <trkpt lat="41.508410023525357" lon="-5.733700040727854">
        <ele>654.09400000000005</ele>
        <time>2021-07-09T13:23:34Z</time>
      </trkpt>
      <trkpt lat="41.507520033046603" lon="-5.733180027455092">
        <ele>648.03999999999996</ele>
        <time>2021-07-09T13:23:51Z</time>
      </trkpt>
      <trkpt lat="41.50719003751874" lon="-5.732960002496839">
        <ele>646.02499999999998</ele>
        <time>2021-07-09T13:23:58Z</time>
      </trkpt>
      <trkpt lat="41.506730038672686" lon="-5.732809966430068">
        <ele>644.02599999999995</ele>
        <time>2021-07-09T13:24:06Z</time>
      </trkpt>
      <trkpt lat="41.506480006501079" lon="-5.732669988647103">
        <ele>642.00800000000004</ele>
        <time>2021-07-09T13:24:11Z</time>
      </trkpt>
      <trkpt lat="41.506280014291406" lon="-5.732609974220395">
        <ele>641.00800000000004</ele>
        <time>2021-07-09T13:24:15Z</time>
      </trkpt>
      <trkpt lat="41.505760001018643" lon="-5.732349967584014">
        <ele>638.01900000000001</ele>
        <time>2021-07-09T13:24:24Z</time>
      </trkpt>
      <trkpt lat="41.505119958892465" lon="-5.732070012018085">
        <ele>637.08900000000006</ele>
        <time>2021-07-09T13:24:36Z</time>
      </trkpt>
      <trkpt lat="41.5041199978441" lon="-5.731659969314933">
        <ele>630.06899999999996</ele>
        <time>2021-07-09T13:24:55Z</time>
      </trkpt>
      <trkpt lat="41.503659998998046" lon="-5.731499958783388">
        <ele>627.08799999999997</ele>
        <time>2021-07-09T13:25:03Z</time>
      </trkpt>
      <trkpt lat="41.503320029005408" lon="-5.731310024857521">
        <ele>626.06299999999999</ele>
        <time>2021-07-09T13:25:10Z</time>
      </trkpt>
      <trkpt lat="41.502970000728965" lon="-5.731169963255525">
        <ele>626.02200000000005</ele>
        <time>2021-07-09T13:25:17Z</time>
      </trkpt>
      <trkpt lat="41.502619972452521" lon="-5.730939963832498">
        <ele>628.09799999999996</ele>
        <time>2021-07-09T13:25:23Z</time>
      </trkpt>
      <trkpt lat="41.502440012991428" lon="-5.730850026011467">
        <ele>629.06399999999996</ele>
        <time>2021-07-09T13:25:27Z</time>
      </trkpt>
      <trkpt lat="41.50136997923255" lon="-5.730390027165413">
        <ele>627.02800000000002</ele>
        <time>2021-07-09T13:25:47Z</time>
      </trkpt>
      <trkpt lat="41.500990027561784" lon="-5.730049973353744">
        <ele>626.08900000000006</ele>
        <time>2021-07-09T13:25:55Z</time>
      </trkpt>
      <trkpt lat="41.500600017607212" lon="-5.729809999465942">
        <ele>625.01700000000005</ele>
        <time>2021-07-09T13:26:03Z</time>
      </trkpt>
      <trkpt lat="41.50018997490406" lon="-5.729630040004849">
        <ele>625.00800000000004</ele>
        <time>2021-07-09T13:26:10Z</time>
      </trkpt>
      <trkpt lat="41.499750008806586" lon="-5.729500036686659">
        <ele>626.01900000000001</ele>
        <time>2021-07-09T13:26:18Z</time>
      </trkpt>
      <trkpt lat="41.499299984425306" lon="-5.729449996724725">
        <ele>627.07899999999995</ele>
        <time>2021-07-09T13:26:26Z</time>
      </trkpt>
      <trkpt lat="41.498839985579252" lon="-5.729429963976145">
        <ele>627.06899999999996</ele>
        <time>2021-07-09T13:26:35Z</time>
      </trkpt>
      <trkpt lat="41.498370012268424" lon="-5.729500036686659">
        <ele>626.02800000000002</ele>
        <time>2021-07-09T13:26:43Z</time>
      </trkpt>
      <trkpt lat="41.498130038380623" lon="-5.729570025578141">
        <ele>626.09299999999996</ele>
        <time>2021-07-09T13:26:47Z</time>
      </trkpt>
      <trkpt lat="41.497420007362962" lon="-5.729889962822199">
        <ele>625.04200000000003</ele>
        <time>2021-07-09T13:27:01Z</time>
      </trkpt>
      <trkpt lat="41.496969982981682" lon="-5.73019003495574">
        <ele>626.05799999999999</ele>
        <time>2021-07-09T13:27:10Z</time>
      </trkpt>
      <trkpt lat="41.496519958600402" lon="-5.730569986626506">
        <ele>628.06399999999996</ele>
        <time>2021-07-09T13:27:19Z</time>
      </trkpt>
      <trkpt lat="41.495559979230165" lon="-5.731259984895587">
        <ele>628.05899999999997</ele>
        <time>2021-07-09T13:27:39Z</time>
      </trkpt>
      <trkpt lat="41.495099980384111" lon="-5.731619987636805">
        <ele>630.00300000000004</ele>
        <time>2021-07-09T13:27:48Z</time>
      </trkpt>
      <trkpt lat="41.494639981538057" lon="-5.731989964842796">
        <ele>630.02300000000002</ele>
        <time>2021-07-09T13:27:58Z</time>
      </trkpt>
      <trkpt lat="41.492660008370876" lon="-5.733689982444048">
        <ele>633.00800000000004</ele>
        <time>2021-07-09T13:28:39Z</time>
      </trkpt>
      <trkpt lat="41.49213002063334" lon="-5.733949989080429">
        <ele>633.08199999999999</ele>
        <time>2021-07-09T13:28:49Z</time>
      </trkpt>
      <trkpt lat="41.490660002455115" lon="-5.734999990090728">
        <ele>632.08199999999999</ele>
        <time>2021-07-09T13:29:19Z</time>
      </trkpt>
      <trkpt lat="41.487930016592145" lon="-5.737160006538034">
        <ele>632.05200000000002</ele>
        <time>2021-07-09T13:30:16Z</time>
      </trkpt>
      <trkpt lat="41.487430036067963" lon="-5.737499976530671">
        <ele>632.09100000000001</ele>
        <time>2021-07-09T13:30:26Z</time>
      </trkpt>
      <trkpt lat="41.484859976917505" lon="-5.739439968019724">
        <ele>636.07600000000002</ele>
        <time>2021-07-09T13:31:18Z</time>
      </trkpt>
      <trkpt lat="41.484420010820031" lon="-5.739829977974296">
        <ele>636.09500000000003</ele>
        <time>2021-07-09T13:31:28Z</time>
      </trkpt>
      <trkpt lat="41.483479980379343" lon="-5.740500027313829">
        <ele>637.07100000000003</ele>
        <time>2021-07-09T13:31:46Z</time>
      </trkpt>
      <trkpt lat="41.482750000432134" lon="-5.740949967876077">
        <ele>637.05700000000002</ele>
        <time>2021-07-09T13:32:01Z</time>
      </trkpt>
      <trkpt lat="41.481980038806796" lon="-5.741250040009618">
        <ele>641.06700000000001</ele>
        <time>2021-07-09T13:32:15Z</time>
      </trkpt>
      <trkpt lat="41.481460025534034" lon="-5.741390017792583">
        <ele>642.08100000000002</ele>
        <time>2021-07-09T13:32:25Z</time>
      </trkpt>
      <trkpt lat="41.481189960613847" lon="-5.741429999470711">
        <ele>641.01900000000001</ele>
        <time>2021-07-09T13:32:29Z</time>
      </trkpt>
      <trkpt lat="41.480380017310381" lon="-5.741469981148839">
        <ele>641.00800000000004</ele>
        <time>2021-07-09T13:32:44Z</time>
      </trkpt>
      <trkpt lat="41.479550041258335" lon="-5.741260014474392">
        <ele>640.07299999999998</ele>
        <time>2021-07-09T13:32:59Z</time>
      </trkpt>
      <trkpt lat="41.478150011971593" lon="-5.740779982879758">
        <ele>639.08299999999997</ele>
        <time>2021-07-09T13:33:25Z</time>
      </trkpt>
      <trkpt lat="41.475929981097579" lon="-5.740099959075451">
        <ele>642.02300000000002</ele>
        <time>2021-07-09T13:34:05Z</time>
      </trkpt>
      <trkpt lat="41.473840037360787" lon="-5.739380037412047">
        <ele>647.04200000000003</ele>
        <time>2021-07-09T13:34:43Z</time>
      </trkpt>
      <trkpt lat="41.472540004178882" lon="-5.738900005817413">
        <ele>648.03700000000003</ele>
        <time>2021-07-09T13:35:07Z</time>
      </trkpt>
      <trkpt lat="41.472340011969209" lon="-5.738920038565993">
        <ele>648.096</ele>
        <time>2021-07-09T13:35:11Z</time>
      </trkpt>
      <trkpt lat="41.47217002697289" lon="-5.739050041884184">
        <ele>647.04200000000003</ele>
        <time>2021-07-09T13:35:14Z</time>
      </trkpt>
      <trkpt lat="41.471989983692765" lon="-5.739120030775666">
        <ele>646.08799999999997</ele>
        <time>2021-07-09T13:35:18Z</time>
      </trkpt>
      <trkpt lat="41.471899962052703" lon="-5.73910997249186">
        <ele>646.01199999999994</ele>
        <time>2021-07-09T13:35:19Z</time>
      </trkpt>
      <trkpt lat="41.471810024231672" lon="-5.739060016348958">
        <ele>646.03200000000004</ele>
        <time>2021-07-09T13:35:21Z</time>
      </trkpt>
      <trkpt lat="41.471610032021999" lon="-5.738749969750643">
        <ele>647.005</ele>
        <time>2021-07-09T13:35:27Z</time>
      </trkpt>
      <trkpt lat="41.471459995955229" lon="-5.73857001028955">
        <ele>649.00800000000004</ele>
        <time>2021-07-09T13:35:30Z</time>
      </trkpt>
      <trkpt lat="41.469880007207394" lon="-5.737959975376725">
        <ele>657.08799999999997</ele>
        <time>2021-07-09T13:35:59Z</time>
      </trkpt>
      <trkpt lat="41.469280030578375" lon="-5.73768999427557">
        <ele>655.09799999999996</ele>
        <time>2021-07-09T13:36:11Z</time>
      </trkpt>
      <trkpt lat="41.468860013410449" lon="-5.737459994852543">
        <ele>656.05799999999999</ele>
        <time>2021-07-09T13:36:19Z</time>
      </trkpt>
      <trkpt lat="41.468439996242523" lon="-5.737180039286614">
        <ele>656.06700000000001</ele>
        <time>2021-07-09T13:36:27Z</time>
      </trkpt>
      <trkpt lat="41.465740017592907" lon="-5.735020022839308">
        <ele>657.05200000000002</ele>
        <time>2021-07-09T13:37:23Z</time>
      </trkpt>
      <trkpt lat="41.465020012110472" lon="-5.734549965709448">
        <ele>660.01099999999997</ele>
        <time>2021-07-09T13:37:37Z</time>
      </trkpt>
      <trkpt lat="41.464509973302484" lon="-5.734309991821647">
        <ele>662.02700000000004</ele>
        <time>2021-07-09T13:37:47Z</time>
      </trkpt>
      <trkpt lat="41.463459972292185" lon="-5.733910007402301">
        <ele>664.09299999999996</ele>
        <time>2021-07-09T13:38:07Z</time>
      </trkpt>
      <trkpt lat="41.462929984554648" lon="-5.733810011297464">
        <ele>665.05600000000004</ele>
        <time>2021-07-09T13:38:16Z</time>
      </trkpt>
      <trkpt lat="41.46190001629293" lon="-5.733369961380959">
        <ele>666.05899999999997</ele>
        <time>2021-07-09T13:38:35Z</time>
      </trkpt>
      <trkpt lat="41.461419984698296" lon="-5.733110038563609">
        <ele>666.01400000000001</ele>
        <time>2021-07-09T13:38:44Z</time>
      </trkpt>
      <trkpt lat="41.460940036922693" lon="-5.732909962534905">
        <ele>666.00800000000004</ele>
        <time>2021-07-09T13:38:53Z</time>
      </trkpt>
      <trkpt lat="41.460710037499666" lon="-5.732829999178648">
        <ele>666.01199999999994</ele>
        <time>2021-07-09T13:38:58Z</time>
      </trkpt>
      <trkpt lat="41.460250038653612" lon="-5.732720028609037">
        <ele>667.04200000000003</ele>
        <time>2021-07-09T13:39:06Z</time>
      </trkpt>
      <trkpt lat="41.459830021485686" lon="-5.732539985328913">
        <ele>667.03200000000004</ele>
        <time>2021-07-09T13:39:14Z</time>
      </trkpt>
      <trkpt lat="41.459470018744469" lon="-5.73233999311924">
        <ele>668.04100000000005</ele>
        <time>2021-07-09T13:39:21Z</time>
      </trkpt>
      <trkpt lat="41.458820002153516" lon="-5.73188996873796">
        <ele>669.04600000000005</ele>
        <time>2021-07-09T13:39:34Z</time>
      </trkpt>
      <trkpt lat="41.45839998498559" lon="-5.731840012595058">
        <ele>670.08500000000004</ele>
        <time>2021-07-09T13:39:41Z</time>
      </trkpt>
      <trkpt lat="41.458060014992952" lon="-5.731740016490221">
        <ele>670.06100000000004</ele>
        <time>2021-07-09T13:39:47Z</time>
      </trkpt>
      <trkpt lat="41.457639997825027" lon="-5.731700034812093">
        <ele>669.08699999999999</ele>
        <time>2021-07-09T13:39:55Z</time>
      </trkpt>
      <trkpt lat="41.456770040094852" lon="-5.731519991531968">
        <ele>673.04499999999996</ele>
        <time>2021-07-09T13:40:11Z</time>
      </trkpt>
      <trkpt lat="41.455769995227456" lon="-5.731250010430813">
        <ele>677.04700000000003</ele>
        <time>2021-07-09T13:40:29Z</time>
      </trkpt>
      <trkpt lat="41.454150024801493" lon="-5.730910040438175">
        <ele>680.01099999999997</ele>
        <time>2021-07-09T13:40:58Z</time>
      </trkpt>
      <trkpt lat="41.453379979357123" lon="-5.730780037119985">
        <ele>684.00800000000004</ele>
        <time>2021-07-09T13:41:12Z</time>
      </trkpt>
      <trkpt lat="41.453189961612225" lon="-5.730769978836179">
        <ele>685.03099999999995</ele>
        <time>2021-07-09T13:41:15Z</time>
      </trkpt>
      <trkpt lat="41.453040009364486" lon="-5.730860000476241">
        <ele>685.04100000000005</ele>
        <time>2021-07-09T13:41:18Z</time>
      </trkpt>
      <trkpt lat="41.452659973874688" lon="-5.730750029906631">
        <ele>687.08100000000002</ele>
        <time>2021-07-09T13:41:25Z</time>
      </trkpt>
      <trkpt lat="41.452110037207603" lon="-5.730729997158051">
        <ele>688.04999999999995</ele>
        <time>2021-07-09T13:41:35Z</time>
      </trkpt>
      <trkpt lat="41.451460020616651" lon="-5.730969971045852">
        <ele>689.08500000000004</ele>
        <time>2021-07-09T13:41:47Z</time>
      </trkpt>
      <trkpt lat="41.451179981231689" lon="-5.731180021539331">
        <ele>689.03399999999999</ele>
        <time>2021-07-09T13:41:53Z</time>
      </trkpt>
      <trkpt lat="41.451019970700145" lon="-5.731259984895587">
        <ele>689.04999999999995</ele>
        <time>2021-07-09T13:41:56Z</time>
      </trkpt>
      <trkpt lat="41.450559971854091" lon="-5.73161001317203">
        <ele>690.06600000000003</ele>
        <time>2021-07-09T13:42:05Z</time>
      </trkpt>
      <trkpt lat="41.448940001428127" lon="-5.733450008556247">
        <ele>697.03399999999999</ele>
        <time>2021-07-09T13:42:43Z</time>
      </trkpt>
      <trkpt lat="41.448440020903945" lon="-5.733930040150881">
        <ele>699.05499999999995</ele>
        <time>2021-07-09T13:42:54Z</time>
      </trkpt>
      <trkpt lat="41.448189988732338" lon="-5.7341000251472">
        <ele>700.00999999999999</ele>
        <time>2021-07-09T13:42:59Z</time>
      </trkpt>
      <trkpt lat="41.44737996160984" lon="-5.734549965709448">
        <ele>701.00800000000004</ele>
        <time>2021-07-09T13:43:14Z</time>
      </trkpt>
      <trkpt lat="41.447209976613522" lon="-5.734730008989573">
        <ele>701.04999999999995</ele>
        <time>2021-07-09T13:43:18Z</time>
      </trkpt>
      <trkpt lat="41.446939995512366" lon="-5.734950033947825">
        <ele>702.08000000000004</ele>
        <time>2021-07-09T13:43:24Z</time>
      </trkpt>
      <trkpt lat="41.446589967235923" lon="-5.735139967873693">
        <ele>703.07000000000005</ele>
        <time>2021-07-09T13:43:31Z</time>
      </trkpt>
      <trkpt lat="41.446380000561476" lon="-5.735210040584207">
        <ele>704.08900000000006</ele>
        <time>2021-07-09T13:43:34Z</time>
      </trkpt>
      <trkpt lat="41.446270029991865" lon="-5.735220015048981">
        <ele>704.08399999999995</ele>
        <time>2021-07-09T13:43:36Z</time>
      </trkpt>
      <trkpt lat="41.446029972285032" lon="-5.735210040584207">
        <ele>705.06299999999999</ele>
        <time>2021-07-09T13:43:41Z</time>
      </trkpt>
      <trkpt lat="41.445910027250648" lon="-5.735180033370853">
        <ele>705.03899999999999</ele>
        <time>2021-07-09T13:43:43Z</time>
      </trkpt>
      <trkpt lat="41.445680027827621" lon="-5.735080037266016">
        <ele>705.01499999999999</ele>
        <time>2021-07-09T13:43:47Z</time>
      </trkpt>
      <trkpt lat="41.445469977334142" lon="-5.734920026734471">
        <ele>705.09100000000001</ele>
        <time>2021-07-09T13:43:51Z</time>
      </trkpt>
      <trkpt lat="41.445369981229305" lon="-5.734809972345829">
        <ele>705.08100000000002</ele>
        <time>2021-07-09T13:43:54Z</time>
      </trkpt>
      <trkpt lat="41.443439964205027" lon="-5.732219964265823">
        <ele>704.01900000000001</ele>
        <time>2021-07-09T13:44:42Z</time>
      </trkpt>
      <trkpt lat="41.442999998107553" lon="-5.731710009276867">
        <ele>703.00800000000004</ele>
        <time>2021-07-09T13:44:53Z</time>
      </trkpt>
      <trkpt lat="41.442639995366335" lon="-5.731359981000423">
        <ele>703.08600000000001</ele>
        <time>2021-07-09T13:45:01Z</time>
      </trkpt>
      <trkpt lat="41.442240010946989" lon="-5.731039959937334">
        <ele>704.05600000000004</ele>
        <time>2021-07-09T13:45:09Z</time>
      </trkpt>
      <trkpt lat="41.441959971562028" lon="-5.730869974941015">
        <ele>704.03599999999994</ele>
        <time>2021-07-09T13:45:15Z</time>
      </trkpt>
      <trkpt lat="41.440479978919029" lon="-5.73017000220716">
        <ele>709.02499999999998</ele>
        <time>2021-07-09T13:45:43Z</time>
      </trkpt>
      <trkpt lat="41.440079994499683" lon="-5.730100013315678">
        <ele>711.02999999999997</ele>
        <time>2021-07-09T13:45:50Z</time>
      </trkpt>
      <trkpt lat="41.439480017870665" lon="-5.729919970035553">
        <ele>712.04899999999998</ele>
        <time>2021-07-09T13:46:01Z</time>
      </trkpt>
      <trkpt lat="41.435510013252497" lon="-5.728550031781197">
        <ele>716.02499999999998</ele>
        <time>2021-07-09T13:47:14Z</time>
      </trkpt>
      <trkpt lat="41.434699986129999" lon="-5.728249959647656">
        <ele>717.04100000000005</ele>
        <time>2021-07-09T13:47:29Z</time>
      </trkpt>
      <trkpt lat="41.431839996948838" lon="-5.727280005812645">
        <ele>722.029</ele>
        <time>2021-07-09T13:48:21Z</time>
      </trkpt>
      <trkpt lat="41.430079964920878" lon="-5.726629989221692">
        <ele>721</ele>
        <time>2021-07-09T13:48:54Z</time>
      </trkpt>
      <trkpt lat="41.429210007190704" lon="-5.726360008120537">
        <ele>719.01999999999998</ele>
        <time>2021-07-09T13:49:09Z</time>
      </trkpt>
      <trkpt lat="41.428629979491234" lon="-5.726139983162284">
        <ele>719.00800000000004</ele>
        <time>2021-07-09T13:49:20Z</time>
      </trkpt>
      <trkpt lat="41.427809977903962" lon="-5.725719965994358">
        <ele>720.01900000000001</ele>
        <time>2021-07-09T13:49:36Z</time>
      </trkpt>
      <trkpt lat="41.427219975739717" lon="-5.725589962676168">
        <ele>720.05899999999997</ele>
        <time>2021-07-09T13:49:46Z</time>
      </trkpt>
      <trkpt lat="41.426659980788827" lon="-5.725419977679849">
        <ele>721.06899999999996</ele>
        <time>2021-07-09T13:49:57Z</time>
      </trkpt>
      <trkpt lat="41.425349973142147" lon="-5.724950004369021">
        <ele>721.05799999999999</ele>
        <time>2021-07-09T13:50:21Z</time>
      </trkpt>
      <trkpt lat="41.424840018153191" lon="-5.72479996830225">
        <ele>721.06299999999999</ele>
        <time>2021-07-09T13:50:30Z</time>
      </trkpt>
      <trkpt lat="41.42329003661871" lon="-5.724260006099939">
        <ele>725.08199999999999</ele>
        <time>2021-07-09T13:50:59Z</time>
      </trkpt>
      <trkpt lat="41.422259984537959" lon="-5.72396001778543">
        <ele>725.05799999999999</ele>
        <time>2021-07-09T13:51:17Z</time>
      </trkpt>
      <trkpt lat="41.420830031856894" lon="-5.723379990085959">
        <ele>725.03399999999999</ele>
        <time>2021-07-09T13:51:44Z</time>
      </trkpt>
      <trkpt lat="41.419950015842915" lon="-5.723049994558096">
        <ele>728.06299999999999</ele>
        <time>2021-07-09T13:52:00Z</time>
      </trkpt>
      <trkpt lat="41.419350039213896" lon="-5.72292996570468">
        <ele>730.04399999999998</ele>
        <time>2021-07-09T13:52:11Z</time>
      </trkpt>
      <trkpt lat="41.418990036472678" lon="-5.722919991239905">
        <ele>732.01800000000003</ele>
        <time>2021-07-09T13:52:17Z</time>
      </trkpt>
      <trkpt lat="41.418660040944815" lon="-5.722970031201839">
        <ele>734.00800000000004</ele>
        <time>2021-07-09T13:52:23Z</time>
      </trkpt>
      <trkpt lat="41.417279960587621" lon="-5.723479986190796">
        <ele>735.02300000000002</ele>
        <time>2021-07-09T13:52:49Z</time>
      </trkpt>
      <trkpt lat="41.417100001126528" lon="-5.723590040579438">
        <ele>736.053</ele>
        <time>2021-07-09T13:52:52Z</time>
      </trkpt>
      <trkpt lat="41.416860027238727" lon="-5.723920036107302">
        <ele>737.06299999999999</ele>
        <time>2021-07-09T13:52:58Z</time>
      </trkpt>
      <trkpt lat="41.416790038347244" lon="-5.723949959501624">
        <ele>738.03200000000004</ele>
        <time>2021-07-09T13:53:00Z</time>
      </trkpt>
      <trkpt lat="41.416709991171956" lon="-5.723949959501624">
        <ele>738.08699999999999</ele>
        <time>2021-07-09T13:53:01Z</time>
      </trkpt>
      <trkpt lat="41.416570013388991" lon="-5.723839988932014">
        <ele>739.06600000000003</ele>
        <time>2021-07-09T13:53:04Z</time>
      </trkpt>
      <trkpt lat="41.416519973427057" lon="-5.723760025575757">
        <ele>739.02200000000005</ele>
        <time>2021-07-09T13:53:05Z</time>
      </trkpt>
      <trkpt lat="41.416500024497509" lon="-5.723660029470921">
        <ele>739.06799999999998</ele>
        <time>2021-07-09T13:53:07Z</time>
      </trkpt>
      <trkpt lat="41.416509998962283" lon="-5.723549975082278">
        <ele>740.06399999999996</ele>
        <time>2021-07-09T13:53:08Z</time>
      </trkpt>
      <trkpt lat="41.416679983958602" lon="-5.72310003452003">
        <ele>739.00599999999997</ele>
        <time>2021-07-09T13:53:15Z</time>
      </trkpt>
      <trkpt lat="41.416689958423376" lon="-5.722789987921715">
        <ele>739.01599999999996</ele>
        <time>2021-07-09T13:53:19Z</time>
      </trkpt>
      <trkpt lat="41.416530031710863" lon="-5.72091001085937">
        <ele>740.00800000000004</ele>
        <time>2021-07-09T13:53:44Z</time>
      </trkpt>
      <trkpt lat="41.416470017284155" lon="-5.720550008118153">
        <ele>739.08299999999997</ele>
        <time>2021-07-09T13:53:49Z</time>
      </trkpt>
      <trkpt lat="41.416430035606027" lon="-5.72048001922667">
        <ele>739.01300000000003</ele>
        <time>2021-07-09T13:53:51Z</time>
      </trkpt>
      <trkpt lat="41.416240017861128" lon="-5.720320008695126">
        <ele>739.08299999999997</ele>
        <time>2021-07-09T13:53:55Z</time>
      </trkpt>
      <trkpt lat="41.416149996221066" lon="-5.720299975946546">
        <ele>739.03200000000004</ele>
        <time>2021-07-09T13:53:56Z</time>
      </trkpt>
      <trkpt lat="41.415959978476167" lon="-5.720340041443706">
        <ele>739.03700000000003</ele>
        <time>2021-07-09T13:54:00Z</time>
      </trkpt>
      <trkpt lat="41.415510037913918" lon="-5.720640029758215">
        <ele>741.01599999999996</ele>
        <time>2021-07-09T13:54:09Z</time>
      </trkpt>
      <trkpt lat="41.415239972993731" lon="-5.720750000327826">
        <ele>742.08199999999999</ele>
        <time>2021-07-09T13:54:14Z</time>
      </trkpt>
      <trkpt lat="41.414949959143996" lon="-5.72078000754118">
        <ele>743.01800000000003</ele>
        <time>2021-07-09T13:54:19Z</time>
      </trkpt>
      <trkpt lat="41.414800006896257" lon="-5.7207599747926">
        <ele>744.02499999999998</ele>
        <time>2021-07-09T13:54:21Z</time>
      </trkpt>
      <trkpt lat="41.414489960297942" lon="-5.720680011436343">
        <ele>745.02599999999995</ele>
        <time>2021-07-09T13:54:27Z</time>
      </trkpt>
      <trkpt lat="41.412830008193851" lon="-5.720069976523519">
        <ele>747.00800000000004</ele>
        <time>2021-07-09T13:54:58Z</time>
      </trkpt>
      <trkpt lat="41.406079977750778" lon="-5.71770996786654">
        <ele>760.00800000000004</ele>
        <time>2021-07-09T13:57:02Z</time>
      </trkpt>
      <trkpt lat="41.405370030552149" lon="-5.717500001192093">
        <ele>761.08900000000006</ele>
        <time>2021-07-09T13:57:15Z</time>
      </trkpt>
      <trkpt lat="41.404639966785908" lon="-5.717339990660548">
        <ele>759.04899999999998</ele>
        <time>2021-07-09T13:57:28Z</time>
      </trkpt>
      <trkpt lat="41.404130011796951" lon="-5.717260027304292">
        <ele>757.08900000000006</ele>
        <time>2021-07-09T13:57:37Z</time>
      </trkpt>
      <trkpt lat="41.403410006314516" lon="-5.717230020090938">
        <ele>756.03800000000001</ele>
        <time>2021-07-09T13:57:50Z</time>
      </trkpt>
      <trkpt lat="41.40210997313261" lon="-5.71730000898242">
        <ele>757.06299999999999</ele>
        <time>2021-07-09T13:58:13Z</time>
      </trkpt>
      <trkpt lat="41.401749970391393" lon="-5.717260027304292">
        <ele>756.02200000000005</ele>
        <time>2021-07-09T13:58:19Z</time>
      </trkpt>
      <trkpt lat="41.401029964908957" lon="-5.717130023986101">
        <ele>752.048</ele>
        <time>2021-07-09T13:58:32Z</time>
      </trkpt>
      <trkpt lat="41.400889987125993" lon="-5.717170005664229">
        <ele>751.09400000000005</ele>
        <time>2021-07-09T13:58:35Z</time>
      </trkpt>
      <trkpt lat="41.40079996548593" lon="-5.71727997623384">
        <ele>751.03200000000004</ele>
        <time>2021-07-09T13:58:37Z</time>
      </trkpt>
      <trkpt lat="41.400780016556382" lon="-5.717360023409128">
        <ele>751.09199999999998</ele>
        <time>2021-07-09T13:58:38Z</time>
      </trkpt>
      <trkpt lat="41.400759983807802" lon="-5.717569990083575">
        <ele>752.01099999999997</ele>
        <time>2021-07-09T13:58:41Z</time>
      </trkpt>
      <trkpt lat="41.400769958272576" lon="-5.718120010569692">
        <ele>754.00800000000004</ele>
        <time>2021-07-09T13:58:48Z</time>
      </trkpt>
      <trkpt lat="41.40081999823451" lon="-5.718450006097555">
        <ele>756.05999999999995</ele>
        <time>2021-07-09T13:58:53Z</time>
      </trkpt>
      <trkpt lat="41.400919994339347" lon="-5.718700038269162">
        <ele>757.02999999999997</ele>
        <time>2021-07-09T13:58:57Z</time>
      </trkpt>
      <trkpt lat="41.400919994339347" lon="-5.718780001625419">
        <ele>757.03999999999996</ele>
        <time>2021-07-09T13:58:58Z</time>
      </trkpt>
      <trkpt lat="41.400889987125993" lon="-5.718849990516901">
        <ele>758.06899999999996</ele>
        <time>2021-07-09T13:58:59Z</time>
      </trkpt>
      <trkpt lat="41.400769958272576" lon="-5.718919979408383">
        <ele>758.05399999999997</ele>
        <time>2021-07-09T13:59:01Z</time>
      </trkpt>
      <trkpt lat="41.400050036609173" lon="-5.718649998307228">
        <ele>756.03300000000002</ele>
        <time>2021-07-09T13:59:14Z</time>
      </trkpt>
      <trkpt lat="41.399779971688986" lon="-5.7186100166291">
        <ele>757.08900000000006</ele>
        <time>2021-07-09T13:59:19Z</time>
      </trkpt>
      <trkpt lat="41.397980041801929" lon="-5.718710012733936">
        <ele>760.02499999999998</ele>
        <time>2021-07-09T13:59:51Z</time>
      </trkpt>
      <trkpt lat="41.394310025498271" lon="-5.719049982726574">
        <ele>757.04100000000005</ele>
        <time>2021-07-09T14:00:57Z</time>
      </trkpt>
      <trkpt lat="41.39317000284791" lon="-5.719130029901862">
        <ele>759.08100000000002</ele>
        <time>2021-07-09T14:01:17Z</time>
      </trkpt>
      <trkpt lat="41.392280012369156" lon="-5.71906004101038">
        <ele>761.00900000000001</ele>
        <time>2021-07-09T14:01:33Z</time>
      </trkpt>
      <trkpt lat="41.391829987987876" lon="-5.718910004943609">
        <ele>762.00800000000004</ele>
        <time>2021-07-09T14:01:41Z</time>
      </trkpt>
      <trkpt lat="41.391399996355176" lon="-5.718640023842454">
        <ele>765.01099999999997</ele>
        <time>2021-07-09T14:01:50Z</time>
      </trkpt>
      <trkpt lat="41.390380002558231" lon="-5.717869978398085">
        <ele>772.04100000000005</ele>
        <time>2021-07-09T14:02:11Z</time>
      </trkpt>
      <trkpt lat="41.389739960432053" lon="-5.717500001192093">
        <ele>774.01099999999997</ele>
        <time>2021-07-09T14:02:23Z</time>
      </trkpt>
      <trkpt lat="41.389060020446777" lon="-5.717290034517646">
        <ele>776.04999999999995</ele>
        <time>2021-07-09T14:02:35Z</time>
      </trkpt>
      <trkpt lat="41.38883002102375" lon="-5.717249969020486">
        <ele>777.07500000000005</ele>
        <time>2021-07-09T14:02:40Z</time>
      </trkpt>
      <trkpt lat="41.388370022177696" lon="-5.717230020090938">
        <ele>779.08399999999995</ele>
        <time>2021-07-09T14:02:48Z</time>
      </trkpt>
      <trkpt lat="41.387899965047836" lon="-5.71727997623384">
        <ele>780.01999999999998</ele>
        <time>2021-07-09T14:02:56Z</time>
      </trkpt>
      <trkpt lat="41.387659991160035" lon="-5.717339990660548">
        <ele>781.04600000000005</ele>
        <time>2021-07-09T14:03:00Z</time>
      </trkpt>
      <trkpt lat="41.385970031842589" lon="-5.717850029468536">
        <ele>782.04899999999998</ele>
        <time>2021-07-09T14:03:31Z</time>
      </trkpt>
      <trkpt lat="41.385499974712729" lon="-5.718020014464855">
        <ele>781.00199999999995</ele>
        <time>2021-07-09T14:03:40Z</time>
      </trkpt>
      <trkpt lat="41.384539995342493" lon="-5.718499962240458">
        <ele>780.02200000000005</ele>
        <time>2021-07-09T14:03:58Z</time>
      </trkpt>
      <trkpt lat="41.383859971538186" lon="-5.718749994412065">
        <ele>779.00800000000004</ele>
        <time>2021-07-09T14:04:11Z</time>
      </trkpt>
      <trkpt lat="41.383440038189292" lon="-5.718870023265481">
        <ele>779.05100000000004</ele>
        <time>2021-07-09T14:04:18Z</time>
      </trkpt>
      <trkpt lat="41.382290041074157" lon="-5.719309989362955">
        <ele>775.02099999999996</ele>
        <time>2021-07-09T14:04:40Z</time>
      </trkpt>
      <trkpt lat="41.381680006161332" lon="-5.719500007107854">
        <ele>773.02099999999996</ele>
        <time>2021-07-09T14:04:51Z</time>
      </trkpt>
      <trkpt lat="41.374239977449179" lon="-5.722080040723085">
        <ele>772.03999999999996</ele>
        <time>2021-07-09T14:07:08Z</time>
      </trkpt>
      <trkpt lat="41.371349981054664" lon="-5.723049994558096">
        <ele>767.07500000000005</ele>
        <time>2021-07-09T14:08:01Z</time>
      </trkpt>
      <trkpt lat="41.3701600022614" lon="-5.723479986190796">
        <ele>764.03399999999999</ele>
        <time>2021-07-09T14:08:23Z</time>
      </trkpt>
      <trkpt lat="41.369549967348576" lon="-5.723670003935695">
        <ele>761.08000000000004</ele>
        <time>2021-07-09T14:08:34Z</time>
      </trkpt>
      <trkpt lat="41.369040012359619" lon="-5.723790032789111">
        <ele>759.04600000000005</ele>
        <time>2021-07-09T14:08:43Z</time>
      </trkpt>
      <trkpt lat="41.367339994758368" lon="-5.724329994991422">
        <ele>758.077</ele>
        <time>2021-07-09T14:09:14Z</time>
      </trkpt>
      <trkpt lat="41.365880034863949" lon="-5.724850008264184">
        <ele>760.06100000000004</ele>
        <time>2021-07-09T14:09:41Z</time>
      </trkpt>
      <trkpt lat="41.365309981629252" lon="-5.725089982151985">
        <ele>762.02700000000004</ele>
        <time>2021-07-09T14:09:52Z</time>
      </trkpt>
      <trkpt lat="41.364580001682043" lon="-5.72535996325314">
        <ele>763.00800000000004</ele>
        <time>2021-07-09T14:10:05Z</time>
      </trkpt>
      <trkpt lat="41.363309975713491" lon="-5.72580998763442">
        <ele>760.04399999999998</ele>
        <time>2021-07-09T14:10:28Z</time>
      </trkpt>
      <trkpt lat="41.360140023753047" lon="-5.726850014179945">
        <ele>763.024</ele>
        <time>2021-07-09T14:11:26Z</time>
      </trkpt>
      <trkpt lat="41.358400024473667" lon="-5.727389976382256">
        <ele>769.09400000000005</ele>
        <time>2021-07-09T14:11:58Z</time>
      </trkpt>
      <trkpt lat="41.357520008459687" lon="-5.727730030193925">
        <ele>769.06299999999999</ele>
        <time>2021-07-09T14:12:15Z</time>
      </trkpt>
      <trkpt lat="41.356679974123836" lon="-5.727990036830306">
        <ele>767.05799999999999</ele>
        <time>2021-07-09T14:12:30Z</time>
      </trkpt>
      <trkpt lat="41.353440033271909" lon="-5.728580038994551">
        <ele>767.077</ele>
        <time>2021-07-09T14:13:28Z</time>
      </trkpt>
      <trkpt lat="41.351840011775494" lon="-5.728899976238608">
        <ele>764.06299999999999</ele>
        <time>2021-07-09T14:13:57Z</time>
      </trkpt>
      <trkpt lat="41.351749990135431" lon="-5.728929983451963">
        <ele>764.07899999999995</ele>
        <time>2021-07-09T14:13:59Z</time>
      </trkpt>
      <trkpt lat="41.351389987394214" lon="-5.729199964553118">
        <ele>765.048</ele>
        <time>2021-07-09T14:14:06Z</time>
      </trkpt>
      <trkpt lat="41.351310024037957" lon="-5.729189990088344">
        <ele>765.06100000000004</ele>
        <time>2021-07-09T14:14:07Z</time>
      </trkpt>
      <trkpt lat="41.35108002461493" lon="-5.729059986770153">
        <ele>765.01700000000005</ele>
        <time>2021-07-09T14:14:12Z</time>
      </trkpt>
      <trkpt lat="41.349500035867095" lon="-5.72931001894176">
        <ele>766.00800000000004</ele>
        <time>2021-07-09T14:14:40Z</time>
      </trkpt>
      <trkpt lat="41.341279987245798" lon="-5.730939963832498">
        <ele>766.08100000000002</ele>
        <time>2021-07-09T14:17:08Z</time>
      </trkpt>
      <trkpt lat="41.33720001205802" lon="-5.731680002063513">
        <ele>775.03099999999995</ele>
        <time>2021-07-09T14:18:21Z</time>
      </trkpt>
      <trkpt lat="41.329260002821684" lon="-5.73322000913322">
        <ele>765.04100000000005</ele>
        <time>2021-07-09T14:20:44Z</time>
      </trkpt>
      <trkpt lat="41.325350012630224" lon="-5.733930040150881">
        <ele>769.02999999999997</ele>
        <time>2021-07-09T14:21:54Z</time>
      </trkpt>
      <trkpt lat="41.321099968627095" lon="-5.734760016202927">
        <ele>777.09500000000003</ele>
        <time>2021-07-09T14:23:11Z</time>
      </trkpt>
      <trkpt lat="41.320699984207749" lon="-5.734830005094409">
        <ele>777.04399999999998</ele>
        <time>2021-07-09T14:23:18Z</time>
      </trkpt>
      <trkpt lat="41.320079974830151" lon="-5.734830005094409">
        <ele>778.07000000000005</ele>
        <time>2021-07-09T14:23:29Z</time>
      </trkpt>
      <trkpt lat="41.319429958239198" lon="-5.734709976240993">
        <ele>782.07600000000002</ele>
        <time>2021-07-09T14:23:41Z</time>
      </trkpt>
      <trkpt lat="41.318989992141724" lon="-5.734600005671382">
        <ele>784.06100000000004</ele>
        <time>2021-07-09T14:23:48Z</time>
      </trkpt>
      <trkpt lat="41.31855002604425" lon="-5.734419962391257">
        <ele>784.02099999999996</ele>
        <time>2021-07-09T14:23:57Z</time>
      </trkpt>
      <trkpt lat="41.316659990698099" lon="-5.733099980279803">
        <ele>788.01300000000003</ele>
        <time>2021-07-09T14:24:35Z</time>
      </trkpt>
      <trkpt lat="41.316239973530173" lon="-5.732839973643422">
        <ele>789.00800000000004</ele>
        <time>2021-07-09T14:24:43Z</time>
      </trkpt>
      <trkpt lat="41.316009974107146" lon="-5.732739977538586">
        <ele>789.03300000000002</ele>
        <time>2021-07-09T14:24:47Z</time>
      </trkpt>
      <trkpt lat="41.315330034121871" lon="-5.732539985328913">
        <ele>792.053</ele>
        <time>2021-07-09T14:25:00Z</time>
      </trkpt>
      <trkpt lat="41.314180037006736" lon="-5.732349967584014">
        <ele>798.04300000000001</ele>
        <time>2021-07-09T14:25:20Z</time>
      </trkpt>
      <trkpt lat="41.313730012625456" lon="-5.732239997014403">
        <ele>800.03200000000004</ele>
        <time>2021-07-09T14:25:28Z</time>
      </trkpt>
      <trkpt lat="41.31328996270895" lon="-5.73206003755331">
        <ele>802.09699999999998</ele>
        <time>2021-07-09T14:25:37Z</time>
      </trkpt>
      <trkpt lat="41.31288000382483" lon="-5.731800030916929">
        <ele>805.05600000000004</ele>
        <time>2021-07-09T14:25:45Z</time>
      </trkpt>
      <trkpt lat="41.312510026618838" lon="-5.73145997710526">
        <ele>808.08199999999999</ele>
        <time>2021-07-09T14:25:53Z</time>
      </trkpt>
      <trkpt lat="41.311990013346076" lon="-5.730850026011467">
        <ele>808.08799999999997</ele>
        <time>2021-07-09T14:26:05Z</time>
      </trkpt>
      <trkpt lat="41.311330022290349" lon="-5.729989958927035">
        <ele>810.06899999999996</ele>
        <time>2021-07-09T14:26:21Z</time>
      </trkpt>
      <trkpt lat="41.311000026762486" lon="-5.72958997450769">
        <ele>814.00400000000002</ele>
        <time>2021-07-09T14:26:29Z</time>
      </trkpt>
      <trkpt lat="41.310819983482361" lon="-5.729410015046597">
        <ele>814.024</ele>
        <time>2021-07-09T14:26:33Z</time>
      </trkpt>
      <trkpt lat="41.310419999063015" lon="-5.729110026732087">
        <ele>815.00800000000004</ele>
        <time>2021-07-09T14:26:41Z</time>
      </trkpt>
      <trkpt lat="41.309750033542514" lon="-5.728690009564161">
        <ele>817.02300000000002</ele>
        <time>2021-07-09T14:26:55Z</time>
      </trkpt>
      <trkpt lat="41.3083899859339" lon="-5.727879982441664">
        <ele>820.04300000000001</ele>
        <time>2021-07-09T14:27:21Z</time>
      </trkpt>
      <trkpt lat="41.307739969342947" lon="-5.727559961378574">
        <ele>821.08299999999997</ele>
        <time>2021-07-09T14:27:34Z</time>
      </trkpt>
      <trkpt lat="41.307300003245473" lon="-5.72744001634419">
        <ele>822.05200000000002</ele>
        <time>2021-07-09T14:27:41Z</time>
      </trkpt>
      <trkpt lat="41.306840004399419" lon="-5.727380001917481">
        <ele>824.03700000000003</ele>
        <time>2021-07-09T14:27:50Z</time>
      </trkpt>
      <trkpt lat="41.306370031088591" lon="-5.727380001917481">
        <ele>826.05600000000004</ele>
        <time>2021-07-09T14:27:58Z</time>
      </trkpt>
      <trkpt lat="41.305190026760101" lon="-5.727589968591929">
        <ele>833.08199999999999</ele>
        <time>2021-07-09T14:28:19Z</time>
      </trkpt>
      <trkpt lat="41.304709995165467" lon="-5.727649983018637">
        <ele>835.02800000000002</ele>
        <time>2021-07-09T14:28:28Z</time>
      </trkpt>
      <trkpt lat="41.304229963570833" lon="-5.727640008553863">
        <ele>838.024</ele>
        <time>2021-07-09T14:28:36Z</time>
      </trkpt>
      <trkpt lat="41.303980015218258" lon="-5.727600026875734">
        <ele>838.00400000000002</ele>
        <time>2021-07-09T14:28:41Z</time>
      </trkpt>
      <trkpt lat="41.30349000915885" lon="-5.727459965273738">
        <ele>838.01400000000001</ele>
        <time>2021-07-09T14:28:50Z</time>
      </trkpt>
      <trkpt lat="41.303009977564216" lon="-5.727229965850711">
        <ele>841.00800000000004</ele>
        <time>2021-07-09T14:28:59Z</time>
      </trkpt>
      <trkpt lat="41.302540004253387" lon="-5.726910028606653">
        <ele>845.07899999999995</ele>
        <time>2021-07-09T14:29:08Z</time>
      </trkpt>
      <trkpt lat="41.300950041040778" lon="-5.725719965994358">
        <ele>854.06899999999996</ele>
        <time>2021-07-09T14:29:41Z</time>
      </trkpt>
      <trkpt lat="41.300270017236471" lon="-5.72527002543211">
        <ele>861.09900000000005</ele>
        <time>2021-07-09T14:29:54Z</time>
      </trkpt>
      <trkpt lat="41.299789985641837" lon="-5.725050000473857">
        <ele>864.06799999999998</ele>
        <time>2021-07-09T14:30:03Z</time>
      </trkpt>
      <trkpt lat="41.299290005117655" lon="-5.724899964407086">
        <ele>864.053</ele>
        <time>2021-07-09T14:30:12Z</time>
      </trkpt>
      <trkpt lat="41.298779966309667" lon="-5.72482000105083">
        <ele>866.09199999999998</ele>
        <time>2021-07-09T14:30:22Z</time>
      </trkpt>
      <trkpt lat="41.297220010310411" lon="-5.724810026586056">
        <ele>876.06799999999998</ele>
        <time>2021-07-09T14:30:49Z</time>
      </trkpt>
      <trkpt lat="41.296460023149848" lon="-5.724740037694573">
        <ele>880.05399999999997</ele>
        <time>2021-07-09T14:31:03Z</time>
      </trkpt>
      <trkpt lat="41.294839968904853" lon="-5.724469972774386">
        <ele>876.08600000000001</ele>
        <time>2021-07-09T14:31:32Z</time>
      </trkpt>
      <trkpt lat="41.289059976115823" lon="-5.723379990085959">
        <ele>864.05999999999995</ele>
        <time>2021-07-09T14:33:16Z</time>
      </trkpt>
      <trkpt lat="41.28853996284306" lon="-5.723210005089641">
        <ele>866.02599999999995</ele>
        <time>2021-07-09T14:33:25Z</time>
      </trkpt>
      <trkpt lat="41.288060015067458" lon="-5.722959972918034">
        <ele>869.00800000000004</ele>
        <time>2021-07-09T14:33:34Z</time>
      </trkpt>
      <trkpt lat="41.287609990686178" lon="-5.722669959068298">
        <ele>872.05499999999995</ele>
        <time>2021-07-09T14:33:43Z</time>
      </trkpt>
      <trkpt lat="41.285600010305643" lon="-5.721140010282397">
        <ele>874.05499999999995</ele>
        <time>2021-07-09T14:34:25Z</time>
      </trkpt>
      <trkpt lat="41.283569997176528" lon="-5.719639984890819">
        <ele>873.02499999999998</ele>
        <time>2021-07-09T14:35:06Z</time>
      </trkpt>
      <trkpt lat="41.282930038869381" lon="-5.719240000471473">
        <ele>873.09400000000005</ele>
        <time>2021-07-09T14:35:18Z</time>
      </trkpt>
      <trkpt lat="41.282229982316494" lon="-5.718930037692189">
        <ele>872.07899999999995</ele>
        <time>2021-07-09T14:35:32Z</time>
      </trkpt>
      <trkpt lat="41.281219962984324" lon="-5.7186100166291">
        <ele>871.06799999999998</ele>
        <time>2021-07-09T14:35:50Z</time>
      </trkpt>
      <trkpt lat="41.274609994143248" lon="-5.716770021244884">
        <ele>856.06399999999996</ele>
        <time>2021-07-09T14:37:50Z</time>
      </trkpt>
      <trkpt lat="41.264420030638576" lon="-5.71379997767508">
        <ele>843.01999999999998</ele>
        <time>2021-07-09T14:40:56Z</time>
      </trkpt>
      <trkpt lat="41.262729987502098" lon="-5.713330004364252">
        <ele>844.07299999999998</ele>
        <time>2021-07-09T14:41:27Z</time>
      </trkpt>
      <trkpt lat="41.262130010873079" lon="-5.713139986619353">
        <ele>844.08500000000004</ele>
        <time>2021-07-09T14:41:37Z</time>
      </trkpt>
      <trkpt lat="41.261660037562251" lon="-5.712930019944906">
        <ele>845.01300000000003</ele>
        <time>2021-07-09T14:41:46Z</time>
      </trkpt>
      <trkpt lat="41.261370023712516" lon="-5.712749976664782">
        <ele>845.00800000000004</ele>
        <time>2021-07-09T14:41:52Z</time>
      </trkpt>
      <trkpt lat="41.26097003929317" lon="-5.712449988350272">
        <ele>846.03399999999999</ele>
        <time>2021-07-09T14:42:00Z</time>
      </trkpt>
      <trkpt lat="41.260759988799691" lon="-5.712340017780662">
        <ele>845.03399999999999</ele>
        <time>2021-07-09T14:42:04Z</time>
      </trkpt>
      <trkpt lat="41.260550022125244" lon="-5.712329959496856">
        <ele>844.08399999999995</ele>
        <time>2021-07-09T14:42:08Z</time>
      </trkpt>
      <trkpt lat="41.260380037128925" lon="-5.712440013885498">
        <ele>843.053</ele>
        <time>2021-07-09T14:42:11Z</time>
      </trkpt>
      <trkpt lat="41.260179961100221" lon="-5.712519977241755">
        <ele>842.08799999999997</ele>
        <time>2021-07-09T14:42:15Z</time>
      </trkpt>
      <trkpt lat="41.259960019960999" lon="-5.7124899700284">
        <ele>841.06700000000001</ele>
        <time>2021-07-09T14:42:19Z</time>
      </trkpt>
      <trkpt lat="41.258910018950701" lon="-5.712170032784343">
        <ele>838.09299999999996</ele>
        <time>2021-07-09T14:42:38Z</time>
      </trkpt>
      <trkpt lat="41.256329985335469" lon="-5.711439969018102">
        <ele>839.08900000000006</ele>
        <time>2021-07-09T14:43:25Z</time>
      </trkpt>
      <trkpt lat="41.256109960377216" lon="-5.711329998448491">
        <ele>840.03700000000003</ele>
        <time>2021-07-09T14:43:29Z</time>
      </trkpt>
      <trkpt lat="41.25557997263968" lon="-5.710809985175729">
        <ele>840.04899999999998</ele>
        <time>2021-07-09T14:43:41Z</time>
      </trkpt>
      <trkpt lat="41.254859967157245" lon="-5.710219983011484">
        <ele>840.01300000000003</ele>
        <time>2021-07-09T14:43:56Z</time>
      </trkpt>
      <trkpt lat="41.254580011591315" lon="-5.710080005228519">
        <ele>841.00800000000004</ele>
        <time>2021-07-09T14:44:01Z</time>
      </trkpt>
      <trkpt lat="41.253769984468818" lon="-5.709589999169111">
        <ele>841.08000000000004</ele>
        <time>2021-07-09T14:44:17Z</time>
      </trkpt>
      <trkpt lat="41.253479970619082" lon="-5.709429988637567">
        <ele>841.08000000000004</ele>
        <time>2021-07-09T14:44:23Z</time>
      </trkpt>
      <trkpt lat="41.253379974514246" lon="-5.709399981424213">
        <ele>841.08000000000004</ele>
        <time>2021-07-09T14:44:25Z</time>
      </trkpt>
      <trkpt lat="41.251820018514991" lon="-5.709039978682995">
        <ele>838.05899999999997</ele>
        <time>2021-07-09T14:44:53Z</time>
      </trkpt>
      <trkpt lat="41.246870001778007" lon="-5.707980003207922">
        <ele>843.01400000000001</ele>
        <time>2021-07-09T14:46:22Z</time>
      </trkpt>
      <trkpt lat="41.246760031208396" lon="-5.707929963245988">
        <ele>843.08299999999997</ele>
        <time>2021-07-09T14:46:24Z</time>
      </trkpt>
      <trkpt lat="41.246570013463497" lon="-5.707740029320121">
        <ele>843.03899999999999</ele>
        <time>2021-07-09T14:46:28Z</time>
      </trkpt>
      <trkpt lat="41.246349988505244" lon="-5.707410033792257">
        <ele>844.01499999999999</ele>
        <time>2021-07-09T14:46:34Z</time>
      </trkpt>
      <trkpt lat="41.246259966865182" lon="-5.707339961081743">
        <ele>844.04399999999998</ele>
        <time>2021-07-09T14:46:36Z</time>
      </trkpt>
      <trkpt lat="41.246070032939315" lon="-5.707250023260713">
        <ele>844.005</ele>
        <time>2021-07-09T14:46:40Z</time>
      </trkpt>
      <trkpt lat="41.245239973068237" lon="-5.707299979403615">
        <ele>846.01499999999999</ele>
        <time>2021-07-09T14:46:54Z</time>
      </trkpt>
      <trkpt lat="41.244509993121028" lon="-5.707290004938841">
        <ele>846.00800000000004</ele>
        <time>2021-07-09T14:47:07Z</time>
      </trkpt>
      <trkpt lat="41.244119983166456" lon="-5.707259997725487">
        <ele>846.03099999999995</ele>
        <time>2021-07-09T14:47:14Z</time>
      </trkpt>
      <trkpt lat="41.243299981579185" lon="-5.707129994407296">
        <ele>847.05100000000004</ele>
        <time>2021-07-09T14:47:29Z</time>
      </trkpt>
      <trkpt lat="41.241949992254376" lon="-5.706869987770915">
        <ele>843.01099999999997</ele>
        <time>2021-07-09T14:47:53Z</time>
      </trkpt>
      <trkpt lat="41.241269968450069" lon="-5.706700002774596">
        <ele>840.09000000000003</ele>
        <time>2021-07-09T14:48:06Z</time>
      </trkpt>
      <trkpt lat="41.241039969027042" lon="-5.70662003941834">
        <ele>839.09500000000003</ele>
        <time>2021-07-09T14:48:10Z</time>
      </trkpt>
      <trkpt lat="41.240609977394342" lon="-5.706419963389635">
        <ele>839.08399999999995</ele>
        <time>2021-07-09T14:48:18Z</time>
      </trkpt>
      <trkpt lat="41.240200018510222" lon="-5.70614998228848">
        <ele>840.08000000000004</ele>
        <time>2021-07-09T14:48:26Z</time>
      </trkpt>
      <trkpt lat="41.239649998024106" lon="-5.705680008977652">
        <ele>843.096</ele>
        <time>2021-07-09T14:48:38Z</time>
      </trkpt>
      <trkpt lat="41.238980032503605" lon="-5.705039966851473">
        <ele>846.05899999999997</ele>
        <time>2021-07-09T14:48:52Z</time>
      </trkpt>
      <trkpt lat="41.238449960947037" lon="-5.704650040715933">
        <ele>848.00300000000004</ele>
        <time>2021-07-09T14:49:03Z</time>
      </trkpt>
      <trkpt lat="41.238079983741045" lon="-5.704439990222454">
        <ele>849.02300000000002</ele>
        <time>2021-07-09T14:49:10Z</time>
      </trkpt>
      <trkpt lat="41.2374899815768" lon="-5.704230023548007">
        <ele>851.00800000000004</ele>
        <time>2021-07-09T14:49:21Z</time>
      </trkpt>
      <trkpt lat="41.237280014902353" lon="-5.704190041869879">
        <ele>852.04200000000003</ele>
        <time>2021-07-09T14:49:25Z</time>
      </trkpt>
      <trkpt lat="41.236850023269653" lon="-5.704160034656525">
        <ele>853.05200000000002</ele>
        <time>2021-07-09T14:49:33Z</time>
      </trkpt>
      <trkpt lat="41.236409973353148" lon="-5.704179983586073">
        <ele>852.01199999999994</ele>
        <time>2021-07-09T14:49:40Z</time>
      </trkpt>
      <trkpt lat="41.235979981720448" lon="-5.704279979690909">
        <ele>852.01099999999997</ele>
        <time>2021-07-09T14:49:48Z</time>
      </trkpt>
      <trkpt lat="41.235559964552522" lon="-5.70443001575768">
        <ele>851.06600000000003</ele>
        <time>2021-07-09T14:49:56Z</time>
      </trkpt>
      <trkpt lat="41.234699981287122" lon="-5.704799992963672">
        <ele>850.01499999999999</ele>
        <time>2021-07-09T14:50:12Z</time>
      </trkpt>
      <trkpt lat="41.234469981864095" lon="-5.704869981855154">
        <ele>850.05100000000004</ele>
        <time>2021-07-09T14:50:16Z</time>
      </trkpt>
      <trkpt lat="41.234009983018041" lon="-5.704960003495216">
        <ele>850.04700000000003</ele>
        <time>2021-07-09T14:50:24Z</time>
      </trkpt>
      <trkpt lat="41.233530035242438" lon="-5.704969977959991">
        <ele>848.03099999999995</ele>
        <time>2021-07-09T14:50:33Z</time>
      </trkpt>
      <trkpt lat="41.233029970899224" lon="-5.704920021817088">
        <ele>847.06100000000004</ele>
        <time>2021-07-09T14:50:42Z</time>
      </trkpt>
      <trkpt lat="41.229370012879372" lon="-5.704079987481237">
        <ele>854.00699999999995</ele>
        <time>2021-07-09T14:51:48Z</time>
      </trkpt>
      <trkpt lat="41.227779965847731" lon="-5.703749991953373">
        <ele>857.00800000000004</ele>
        <time>2021-07-09T14:52:17Z</time>
      </trkpt>
      <trkpt lat="41.226759972050786" lon="-5.703610014170408">
        <ele>856.05999999999995</ele>
        <time>2021-07-09T14:52:35Z</time>
      </trkpt>
      <trkpt lat="41.225720029324293" lon="-5.703619988635182">
        <ele>851.07000000000005</ele>
        <time>2021-07-09T14:52:53Z</time>
      </trkpt>
      <trkpt lat="41.225190041586757" lon="-5.703680003061891">
        <ele>848.02999999999997</ele>
        <time>2021-07-09T14:53:03Z</time>
      </trkpt>
      <trkpt lat="41.223009992390871" lon="-5.704100020229816">
        <ele>846.06899999999996</ele>
        <time>2021-07-09T14:53:42Z</time>
      </trkpt>
      <trkpt lat="41.222480004653335" lon="-5.704160034656525">
        <ele>847.08399999999995</ele>
        <time>2021-07-09T14:53:52Z</time>
      </trkpt>
      <trkpt lat="41.221690010279417" lon="-5.704200016334653">
        <ele>845.03300000000002</ele>
        <time>2021-07-09T14:54:06Z</time>
      </trkpt>
      <trkpt lat="41.221169997006655" lon="-5.704200016334653">
        <ele>843.03899999999999</ele>
        <time>2021-07-09T14:54:15Z</time>
      </trkpt>
      <trkpt lat="41.220649983733892" lon="-5.704170009121299">
        <ele>841.06500000000005</ele>
        <time>2021-07-09T14:54:24Z</time>
      </trkpt>
      <trkpt lat="41.21956997551024" lon="-5.704009998589754">
        <ele>835.03300000000002</ele>
        <time>2021-07-09T14:54:43Z</time>
      </trkpt>
      <trkpt lat="41.218459960073233" lon="-5.703749991953373">
        <ele>832.02300000000002</ele>
        <time>2021-07-09T14:55:04Z</time>
      </trkpt>
      <trkpt lat="41.208079978823662" lon="-5.701120002195239">
        <ele>839.01499999999999</ele>
        <time>2021-07-09T14:58:12Z</time>
      </trkpt>
      <trkpt lat="41.201430028304458" lon="-5.699479999020696">
        <ele>844.00800000000004</ele>
        <time>2021-07-09T15:00:12Z</time>
      </trkpt>
      <trkpt lat="41.197690023109317" lon="-5.698509961366653">
        <ele>850.04999999999995</ele>
        <time>2021-07-09T15:01:20Z</time>
      </trkpt>
      <trkpt lat="41.187659986317158" lon="-5.696000000461936">
        <ele>853.05999999999995</ele>
        <time>2021-07-09T15:04:21Z</time>
      </trkpt>
      <trkpt lat="41.18328002281487" lon="-5.694870036095381">
        <ele>856.05999999999995</ele>
        <time>2021-07-09T15:05:41Z</time>
      </trkpt>
      <trkpt lat="41.182730002328753" lon="-5.694799963384867">
        <ele>858.09900000000005</ele>
        <time>2021-07-09T15:05:50Z</time>
      </trkpt>
      <trkpt lat="41.182160032913089" lon="-5.69458999671042">
        <ele>858.03399999999999</ele>
        <time>2021-07-09T15:06:01Z</time>
      </trkpt>
      <trkpt lat="41.181319998577237" lon="-5.694380030035973">
        <ele>856.06299999999999</ele>
        <time>2021-07-09T15:06:16Z</time>
      </trkpt>
      <trkpt lat="41.180760003626347" lon="-5.694299982860684">
        <ele>855.01900000000001</ele>
        <time>2021-07-09T15:06:26Z</time>
      </trkpt>
      <trkpt lat="41.179900020360947" lon="-5.694280033931136">
        <ele>853.03499999999997</ele>
        <time>2021-07-09T15:06:42Z</time>
      </trkpt>
      <trkpt lat="41.179040037095547" lon="-5.69431004114449">
        <ele>853.048</ele>
        <time>2021-07-09T15:06:57Z</time>
      </trkpt>
      <trkpt lat="41.176659995689988" lon="-5.694510033354163">
        <ele>844.06100000000004</ele>
        <time>2021-07-09T15:07:39Z</time>
      </trkpt>
      <trkpt lat="41.174469972029328" lon="-5.694640036672354">
        <ele>841.01700000000005</ele>
        <time>2021-07-09T15:08:18Z</time>
      </trkpt>
      <trkpt lat="41.165049970149994" lon="-5.694910017773509">
        <ele>838.00800000000004</ele>
        <time>2021-07-09T15:11:06Z</time>
      </trkpt>
      <trkpt lat="41.160879973322153" lon="-5.695089977234602">
        <ele>841.03099999999995</ele>
        <time>2021-07-09T15:12:20Z</time>
      </trkpt>
      <trkpt lat="41.158999996259809" lon="-5.695140017196536">
        <ele>839.04100000000005</ele>
        <time>2021-07-09T15:12:54Z</time>
      </trkpt>
      <trkpt lat="41.151619981974363" lon="-5.695249987766147">
        <ele>829.04100000000005</ele>
        <time>2021-07-09T15:15:05Z</time>
      </trkpt>
      <trkpt lat="41.149129969999194" lon="-5.695319976657629">
        <ele>827.09000000000003</ele>
        <time>2021-07-09T15:15:49Z</time>
      </trkpt>
      <trkpt lat="41.146009974181652" lon="-5.695340009406209">
        <ele>826.01499999999999</ele>
        <time>2021-07-09T15:16:45Z</time>
      </trkpt>
      <trkpt lat="41.14548996090889" lon="-5.695300027728081">
        <ele>825.05399999999997</ele>
        <time>2021-07-09T15:16:54Z</time>
      </trkpt>
      <trkpt lat="41.145219979807734" lon="-5.695379991084337">
        <ele>825.00999999999999</ele>
        <time>2021-07-09T15:16:59Z</time>
      </trkpt>
      <trkpt lat="41.144689992070198" lon="-5.6954700127244">
        <ele>825.096</ele>
        <time>2021-07-09T15:17:08Z</time>
      </trkpt>
      <trkpt lat="41.144180037081242" lon="-5.695419972762466">
        <ele>825.02300000000002</ele>
        <time>2021-07-09T15:17:18Z</time>
      </trkpt>
      <trkpt lat="41.143660023808479" lon="-5.695560034364462">
        <ele>826.08299999999997</ele>
        <time>2021-07-09T15:17:27Z</time>
      </trkpt>
      <trkpt lat="41.143149985000491" lon="-5.695649972185493">
        <ele>826.01099999999997</ele>
        <time>2021-07-09T15:17:36Z</time>
      </trkpt>
      <trkpt lat="41.141690025106072" lon="-5.695790033787489">
        <ele>825.00800000000004</ele>
        <time>2021-07-09T15:18:02Z</time>
      </trkpt>
      <trkpt lat="41.140450006350875" lon="-5.695949960500002">
        <ele>822.04899999999998</ele>
        <time>2021-07-09T15:18:24Z</time>
      </trkpt>
      <trkpt lat="41.139679960906506" lon="-5.696000000461936">
        <ele>818.01900000000001</ele>
        <time>2021-07-09T15:18:38Z</time>
      </trkpt>
      <trkpt lat="41.13943001255393" lon="-5.696039982140064">
        <ele>817.03899999999999</ele>
        <time>2021-07-09T15:18:43Z</time>
      </trkpt>
      <trkpt lat="41.138930032029748" lon="-5.696000000461936">
        <ele>814.048</ele>
        <time>2021-07-09T15:18:51Z</time>
      </trkpt>
      <trkpt lat="41.13839996047318" lon="-5.696020033210516">
        <ele>812.09299999999996</ele>
        <time>2021-07-09T15:19:01Z</time>
      </trkpt>
      <trkpt lat="41.136819971725345" lon="-5.696290014311671">
        <ele>808.01199999999994</ele>
        <time>2021-07-09T15:19:29Z</time>
      </trkpt>
      <trkpt lat="41.133639961481094" lon="-5.696699973195791">
        <ele>799.02800000000002</ele>
        <time>2021-07-09T15:20:26Z</time>
      </trkpt>
      <trkpt lat="41.131569966673851" lon="-5.69691002368927">
        <ele>796.03399999999999</ele>
        <time>2021-07-09T15:21:03Z</time>
      </trkpt>
      <trkpt lat="41.129970028996468" lon="-5.696980012580752">
        <ele>798.07299999999998</ele>
        <time>2021-07-09T15:21:32Z</time>
      </trkpt>
      <trkpt lat="41.128630014136434" lon="-5.697089983150363">
        <ele>800.08500000000004</ele>
        <time>2021-07-09T15:21:55Z</time>
      </trkpt>
      <trkpt lat="41.125629963353276" lon="-5.697430036962032">
        <ele>811.01300000000003</ele>
        <time>2021-07-09T15:22:49Z</time>
      </trkpt>
      <trkpt lat="41.125280018895864" lon="-5.697440011426806">
        <ele>812.00800000000004</ele>
        <time>2021-07-09T15:22:55Z</time>
      </trkpt>
      <trkpt lat="41.124950023368001" lon="-5.697370022535324">
        <ele>813.06399999999996</ele>
        <time>2021-07-09T15:23:01Z</time>
      </trkpt>
      <trkpt lat="41.12479998730123" lon="-5.697300033643842">
        <ele>813.08399999999995</ele>
        <time>2021-07-09T15:23:04Z</time>
      </trkpt>
      <trkpt lat="41.124509973451495" lon="-5.697100041434169">
        <ele>814.04399999999998</ele>
        <time>2021-07-09T15:23:10Z</time>
      </trkpt>
      <trkpt lat="41.124040000140667" lon="-5.696610035374761">
        <ele>815.03300000000002</ele>
        <time>2021-07-09T15:23:20Z</time>
      </trkpt>
      <trkpt lat="41.123800026252866" lon="-5.696409959346056">
        <ele>815.07799999999997</ele>
        <time>2021-07-09T15:23:26Z</time>
      </trkpt>
      <trkpt lat="41.123410016298294" lon="-5.696209967136383">
        <ele>817.01700000000005</ele>
        <time>2021-07-09T15:23:33Z</time>
      </trkpt>
      <trkpt lat="41.123120002448559" lon="-5.696229999884963">
        <ele>817.01300000000003</ele>
        <time>2021-07-09T15:23:38Z</time>
      </trkpt>
      <trkpt lat="41.122850021347404" lon="-5.696339970454574">
        <ele>818.01900000000001</ele>
        <time>2021-07-09T15:23:43Z</time>
      </trkpt>
      <trkpt lat="41.122539974749088" lon="-5.696629984304309">
        <ele>819.07100000000003</ele>
        <time>2021-07-09T15:23:50Z</time>
      </trkpt>
      <trkpt lat="41.122379964217544" lon="-5.69686995819211">
        <ele>820.04100000000005</ele>
        <time>2021-07-09T15:23:54Z</time>
      </trkpt>
      <trkpt lat="41.122309975326061" lon="-5.697019994258881">
        <ele>821.01499999999999</ele>
        <time>2021-07-09T15:23:57Z</time>
      </trkpt>
      <trkpt lat="41.122249960899353" lon="-5.69731998257339">
        <ele>822.00800000000004</ele>
        <time>2021-07-09T15:24:01Z</time>
      </trkpt>
      <trkpt lat="41.122279968112707" lon="-5.697589963674545">
        <ele>822.06399999999996</ele>
        <time>2021-07-09T15:24:04Z</time>
      </trkpt>
      <trkpt lat="41.122369989752769" lon="-5.697949966415763">
        <ele>822.024</ele>
        <time>2021-07-09T15:24:09Z</time>
      </trkpt>
      <trkpt lat="41.122369989752769" lon="-5.698030013591051">
        <ele>822.08399999999995</ele>
        <time>2021-07-09T15:24:11Z</time>
      </trkpt>
      <trkpt lat="41.122190030291677" lon="-5.698469979688525">
        <ele>823.08299999999997</ele>
        <time>2021-07-09T15:24:17Z</time>
      </trkpt>
      <trkpt lat="41.122109983116388" lon="-5.698910029605031">
        <ele>823.05799999999999</ele>
        <time>2021-07-09T15:24:23Z</time>
      </trkpt>
      <trkpt lat="41.122209979221225" lon="-5.699809994548559">
        <ele>822.01700000000005</ele>
        <time>2021-07-09T15:24:35Z</time>
      </trkpt>
      <trkpt lat="41.122350040823221" lon="-5.700100008398294">
        <ele>822.03300000000002</ele>
        <time>2021-07-09T15:24:40Z</time>
      </trkpt>
      <trkpt lat="41.122369989752769" lon="-5.700209978967905">
        <ele>822.07899999999995</ele>
        <time>2021-07-09T15:24:42Z</time>
      </trkpt>
      <trkpt lat="41.122279968112707" lon="-5.70039002224803">
        <ele>822.06500000000005</ele>
        <time>2021-07-09T15:24:45Z</time>
      </trkpt>
      <trkpt lat="41.122139990329742" lon="-5.700550032779574">
        <ele>822.06799999999998</ele>
        <time>2021-07-09T15:24:48Z</time>
      </trkpt>
      <trkpt lat="41.121930023655295" lon="-5.700939958915114">
        <ele>823.01400000000001</ele>
        <time>2021-07-09T15:24:54Z</time>
      </trkpt>
      <trkpt lat="41.121760038658977" lon="-5.701199965551496">
        <ele>823.00800000000004</ele>
        <time>2021-07-09T15:24:59Z</time>
      </trkpt>
      <trkpt lat="41.12164000980556" lon="-5.701319994404912">
        <ele>823.03300000000002</ele>
        <time>2021-07-09T15:25:02Z</time>
      </trkpt>
      <trkpt lat="41.121380003169179" lon="-5.701489979401231">
        <ele>822.02300000000002</ele>
        <time>2021-07-09T15:25:07Z</time>
      </trkpt>
      <trkpt lat="41.12108001485467" lon="-5.701559968292713">
        <ele>821.06299999999999</ele>
        <time>2021-07-09T15:25:12Z</time>
      </trkpt>
      <trkpt lat="41.120790001004934" lon="-5.701510012149811">
        <ele>820.02200000000005</ele>
        <time>2021-07-09T15:25:17Z</time>
      </trkpt>
      <trkpt lat="41.120499987155199" lon="-5.701370034366846">
        <ele>820.01700000000005</ele>
        <time>2021-07-09T15:25:23Z</time>
      </trkpt>
      <trkpt lat="41.120250038802624" lon="-5.701110027730465">
        <ele>819.08600000000001</ele>
        <time>2021-07-09T15:25:28Z</time>
      </trkpt>
      <trkpt lat="41.119870003312826" lon="-5.70036998949945">
        <ele>820.03200000000004</ele>
        <time>2021-07-09T15:25:40Z</time>
      </trkpt>
      <trkpt lat="41.119649978354573" lon="-5.700009986758232">
        <ele>821.02800000000002</ele>
        <time>2021-07-09T15:25:47Z</time>
      </trkpt>
      <trkpt lat="41.119379997253418" lon="-5.699689965695143">
        <ele>822.09400000000005</ele>
        <time>2021-07-09T15:25:53Z</time>
      </trkpt>
      <trkpt lat="41.119050001725554" lon="-5.699459966272116">
        <ele>823.05700000000002</ele>
        <time>2021-07-09T15:26:00Z</time>
      </trkpt>
      <trkpt lat="41.118659991770983" lon="-5.699329962953925">
        <ele>824.02200000000005</ele>
        <time>2021-07-09T15:26:07Z</time>
      </trkpt>
      <trkpt lat="41.117560034617782" lon="-5.699219992384315">
        <ele>823.00800000000004</ele>
        <time>2021-07-09T15:26:27Z</time>
      </trkpt>
      <trkpt lat="41.11444003880024" lon="-5.69905998185277">
        <ele>818.096</ele>
        <time>2021-07-09T15:27:22Z</time>
      </trkpt>
      <trkpt lat="41.112979995086789" lon="-5.69905998185277">
        <ele>819.06600000000003</ele>
        <time>2021-07-09T15:27:48Z</time>
      </trkpt>
      <trkpt lat="41.110269958153367" lon="-5.699219992384315">
        <ele>825.08600000000001</ele>
        <time>2021-07-09T15:28:36Z</time>
      </trkpt>
      <trkpt lat="41.109660007059574" lon="-5.699300039559603">
        <ele>825.09500000000003</ele>
        <time>2021-07-09T15:28:47Z</time>
      </trkpt>
      <trkpt lat="41.109060030430555" lon="-5.699429959058762">
        <ele>825.03999999999996</ele>
        <time>2021-07-09T15:28:58Z</time>
      </trkpt>
      <trkpt lat="41.107799978926778" lon="-5.699400035664439">
        <ele>826.06899999999996</ele>
        <time>2021-07-09T15:29:20Z</time>
      </trkpt>
      <trkpt lat="41.10690001398325" lon="-5.699440017342567">
        <ele>827.02499999999998</ele>
        <time>2021-07-09T15:29:36Z</time>
      </trkpt>
      <trkpt lat="41.106050005182624" lon="-5.699400035664439">
        <ele>829.06100000000004</ele>
        <time>2021-07-09T15:29:52Z</time>
      </trkpt>
      <trkpt lat="41.105509959161282" lon="-5.699270032346249">
        <ele>829.01599999999996</ele>
        <time>2021-07-09T15:30:01Z</time>
      </trkpt>
      <trkpt lat="41.104960022494197" lon="-5.699180010706186">
        <ele>828.07600000000002</ele>
        <time>2021-07-09T15:30:11Z</time>
      </trkpt>
      <trkpt lat="41.104679983109236" lon="-5.699159977957606">
        <ele>827.01300000000003</ele>
        <time>2021-07-09T15:30:16Z</time>
      </trkpt>
      <trkpt lat="41.104129962623119" lon="-5.699170036241412">
        <ele>825.00800000000004</ele>
        <time>2021-07-09T15:30:26Z</time>
      </trkpt>
      <trkpt lat="41.103030005469918" lon="-5.699310014024377">
        <ele>823.05799999999999</ele>
        <time>2021-07-09T15:30:46Z</time>
      </trkpt>
      <trkpt lat="41.101310038939118" lon="-5.699479999020696">
        <ele>819.09799999999996</ele>
        <time>2021-07-09T15:31:16Z</time>
      </trkpt>
      <trkpt lat="41.096260026097298" lon="-5.699890041723847">
        <ele>816.07799999999997</ele>
        <time>2021-07-09T15:32:46Z</time>
      </trkpt>
      <trkpt lat="41.093610003590584" lon="-5.700019961223006">
        <ele>817.03700000000003</ele>
        <time>2021-07-09T15:33:34Z</time>
      </trkpt>
      <trkpt lat="41.092739962041378" lon="-5.699930023401976">
        <ele>816.03200000000004</ele>
        <time>2021-07-09T15:33:49Z</time>
      </trkpt>
      <trkpt lat="41.092190025374293" lon="-5.699800020083785">
        <ele>815.05100000000004</ele>
        <time>2021-07-09T15:33:59Z</time>
      </trkpt>
      <trkpt lat="41.091660037636757" lon="-5.69961997680366">
        <ele>813.09699999999998</ele>
        <time>2021-07-09T15:34:09Z</time>
      </trkpt>
      <trkpt lat="41.091149998828769" lon="-5.699400035664439">
        <ele>810.02300000000002</ele>
        <time>2021-07-09T15:34:18Z</time>
      </trkpt>
      <trkpt lat="41.088710026815534" lon="-5.698209973052144">
        <ele>801.04600000000005</ele>
        <time>2021-07-09T15:35:05Z</time>
      </trkpt>
      <trkpt lat="41.082389988005161" lon="-5.695249987766147">
        <ele>810.08799999999997</ele>
        <time>2021-07-09T15:37:04Z</time>
      </trkpt>
      <trkpt lat="41.07912003993988" lon="-5.693809976801276">
        <ele>811.01599999999996</ele>
        <time>2021-07-09T15:38:05Z</time>
      </trkpt>
      <trkpt lat="41.071599964052439" lon="-5.690340036526322">
        <ele>811.00800000000004</ele>
        <time>2021-07-09T15:40:27Z</time>
      </trkpt>
      <trkpt lat="41.069610016420484" lon="-5.689449962228537">
        <ele>812.07100000000003</ele>
        <time>2021-07-09T15:41:04Z</time>
      </trkpt>
      <trkpt lat="41.06620998121798" lon="-5.687859999015927">
        <ele>814.01099999999997</ele>
        <time>2021-07-09T15:42:08Z</time>
      </trkpt>
      <trkpt lat="41.05406996794045" lon="-5.682319980114698">
        <ele>813.07100000000003</ele>
        <time>2021-07-09T15:45:57Z</time>
      </trkpt>
      <trkpt lat="41.051810039207339" lon="-5.681329993531108">
        <ele>813.05999999999995</ele>
        <time>2021-07-09T15:46:39Z</time>
      </trkpt>
      <trkpt lat="41.045740032568574" lon="-5.678519960492849">
        <ele>817.03499999999997</ele>
        <time>2021-07-09T15:48:33Z</time>
      </trkpt>
      <trkpt lat="41.043440038338304" lon="-5.677499966695905">
        <ele>817.05399999999997</ele>
        <time>2021-07-09T15:49:17Z</time>
      </trkpt>
      <trkpt lat="41.042370004579425" lon="-5.677090007811785">
        <ele>816.04999999999995</ele>
        <time>2021-07-09T15:49:36Z</time>
      </trkpt>
      <trkpt lat="41.039719982072711" lon="-5.676330020651221">
        <ele>803.02599999999995</ele>
        <time>2021-07-09T15:50:25Z</time>
      </trkpt>
      <trkpt lat="41.034970041364431" lon="-5.674869976937771">
        <ele>788.04100000000005</ele>
        <time>2021-07-09T15:51:51Z</time>
      </trkpt>
      <trkpt lat="41.033300030976534" lon="-5.674390029162169">
        <ele>800.08100000000002</ele>
        <time>2021-07-09T15:52:22Z</time>
      </trkpt>
      <trkpt lat="41.033029966056347" lon="-5.674360021948814">
        <ele>800.00900000000001</ele>
        <time>2021-07-09T15:52:27Z</time>
      </trkpt>
      <trkpt lat="41.032829973846674" lon="-5.674260025843978">
        <ele>801.00800000000004</ele>
        <time>2021-07-09T15:52:30Z</time>
      </trkpt>
      <trkpt lat="41.031839987263083" lon="-5.673889964818955">
        <ele>805.07100000000003</ele>
        <time>2021-07-09T15:52:49Z</time>
      </trkpt>
      <trkpt lat="41.031230036169291" lon="-5.67377001978457">
        <ele>810.01099999999997</ele>
        <time>2021-07-09T15:53:00Z</time>
      </trkpt>
      <trkpt lat="41.03108000010252" lon="-5.673700030893087">
        <ele>811.05100000000004</ele>
        <time>2021-07-09T15:53:03Z</time>
      </trkpt>
      <trkpt lat="41.030620001256466" lon="-5.673600034788251">
        <ele>815.09000000000003</ele>
        <time>2021-07-09T15:53:11Z</time>
      </trkpt>
      <trkpt lat="41.030239965766668" lon="-5.6734299659729">
        <ele>817.09500000000003</ele>
        <time>2021-07-09T15:53:18Z</time>
      </trkpt>
      <trkpt lat="41.029899995774031" lon="-5.67331999540329">
        <ele>818.01400000000001</ele>
        <time>2021-07-09T15:53:24Z</time>
      </trkpt>
      <trkpt lat="41.028250018134713" lon="-5.67289000377059">
        <ele>820.01999999999998</ele>
        <time>2021-07-09T15:53:54Z</time>
      </trkpt>
      <trkpt lat="41.025769980624318" lon="-5.672049969434738">
        <ele>819.02599999999995</ele>
        <time>2021-07-09T15:54:40Z</time>
      </trkpt>
      <trkpt lat="41.023139990866184" lon="-5.671270033344626">
        <ele>814.01900000000001</ele>
        <time>2021-07-09T15:55:28Z</time>
      </trkpt>
      <trkpt lat="41.022289982065558" lon="-5.670989993959665">
        <ele>813.00900000000001</ele>
        <time>2021-07-09T15:55:43Z</time>
      </trkpt>
      <trkpt lat="41.021599983796477" lon="-5.670799976214767">
        <ele>813.01900000000001</ele>
        <time>2021-07-09T15:55:56Z</time>
      </trkpt>
      <trkpt lat="41.021290021017194" lon="-5.670739961788058">
        <ele>815.00800000000004</ele>
        <time>2021-07-09T15:56:01Z</time>
      </trkpt>
      <trkpt lat="41.021199999377131" lon="-5.67069998010993">
        <ele>815.048</ele>
        <time>2021-07-09T15:56:03Z</time>
      </trkpt>
      <trkpt lat="41.021100003272295" lon="-5.67069998010993">
        <ele>816.09799999999996</ele>
        <time>2021-07-09T15:56:05Z</time>
      </trkpt>
      <trkpt lat="41.020890036597848" lon="-5.670639965683222">
        <ele>817.02800000000002</ele>
        <time>2021-07-09T15:56:09Z</time>
      </trkpt>
      <trkpt lat="41.020149998366833" lon="-5.670509962365031">
        <ele>815.03700000000003</ele>
        <time>2021-07-09T15:56:22Z</time>
      </trkpt>
      <trkpt lat="41.019710032269359" lon="-5.670399991795421">
        <ele>814.05200000000002</ele>
        <time>2021-07-09T15:56:30Z</time>
      </trkpt>
      <trkpt lat="41.019590003415942" lon="-5.670390017330647">
        <ele>813.01099999999997</ele>
        <time>2021-07-09T15:56:32Z</time>
      </trkpt>
      <trkpt lat="41.019130004569888" lon="-5.670260014012456">
        <ele>812.03700000000003</ele>
        <time>2021-07-09T15:56:40Z</time>
      </trkpt>
      <trkpt lat="41.018349984660745" lon="-5.670109977945685">
        <ele>811.07299999999998</ele>
        <time>2021-07-09T15:56:54Z</time>
      </trkpt>
      <trkpt lat="41.017959974706173" lon="-5.670069996267557">
        <ele>812.09500000000003</ele>
        <time>2021-07-09T15:57:01Z</time>
      </trkpt>
      <trkpt lat="41.016349978744984" lon="-5.66981996409595">
        <ele>811.04899999999998</ele>
        <time>2021-07-09T15:57:30Z</time>
      </trkpt>
      <trkpt lat="41.014850037172437" lon="-5.669579990208149">
        <ele>806.02300000000002</ele>
        <time>2021-07-09T15:57:57Z</time>
      </trkpt>
      <trkpt lat="41.013359986245632" lon="-5.66930003464222">
        <ele>799.00800000000004</ele>
        <time>2021-07-09T15:58:24Z</time>
      </trkpt>
      <trkpt lat="41.011389987543225" lon="-5.66898001357913">
        <ele>804.096</ele>
        <time>2021-07-09T15:58:59Z</time>
      </trkpt>
      <trkpt lat="41.010999977588654" lon="-5.668940031901002">
        <ele>805.05600000000004</ele>
        <time>2021-07-09T15:59:06Z</time>
      </trkpt>
      <trkpt lat="41.00892998278141" lon="-5.668480033054948">
        <ele>806.02599999999995</ele>
        <time>2021-07-09T15:59:44Z</time>
      </trkpt>
      <trkpt lat="41.006610039621592" lon="-5.66812003031373">
        <ele>801.04499999999996</ele>
        <time>2021-07-09T16:00:25Z</time>
      </trkpt>
      <trkpt lat="41.005939990282059" lon="-5.667960019782186">
        <ele>804.09000000000003</ele>
        <time>2021-07-09T16:00:37Z</time>
      </trkpt>
      <trkpt lat="41.005330039188266" lon="-5.667879972606897">
        <ele>805.029</ele>
        <time>2021-07-09T16:00:48Z</time>
      </trkpt>
      <trkpt lat="41.004139976575971" lon="-5.66767000593245">
        <ele>807.08500000000004</ele>
        <time>2021-07-09T16:01:09Z</time>
      </trkpt>
      <trkpt lat="41.002669958397746" lon="-5.667379992082715">
        <ele>806.04100000000005</ele>
        <time>2021-07-09T16:01:36Z</time>
      </trkpt>
      <trkpt lat="41.002510031685233" lon="-5.667389966547489">
        <ele>806.01300000000003</ele>
        <time>2021-07-09T16:01:39Z</time>
      </trkpt>
      <trkpt lat="41.002429984509945" lon="-5.667419973760843">
        <ele>806.04300000000001</ele>
        <time>2021-07-09T16:01:40Z</time>
      </trkpt>
      <trkpt lat="41.002190010622144" lon="-5.667589958757162">
        <ele>807.00699999999995</ele>
        <time>2021-07-09T16:01:45Z</time>
      </trkpt>
      <trkpt lat="41.002129996195436" lon="-5.667579984292388">
        <ele>807.00800000000004</ele>
        <time>2021-07-09T16:01:46Z</time>
      </trkpt>
      <trkpt lat="41.002039974555373" lon="-5.667509995400906">
        <ele>807.08799999999997</ele>
        <time>2021-07-09T16:01:48Z</time>
      </trkpt>
      <trkpt lat="41.001920029520988" lon="-5.667330035939813">
        <ele>808.048</ele>
        <time>2021-07-09T16:01:51Z</time>
      </trkpt>
      <trkpt lat="41.001509986817837" lon="-5.667159967124462">
        <ele>809.06799999999998</ele>
        <time>2021-07-09T16:01:59Z</time>
      </trkpt>
      <trkpt lat="41.00143002346158" lon="-5.667140018194914">
        <ele>809.077</ele>
        <time>2021-07-09T16:02:00Z</time>
      </trkpt>
      <trkpt lat="41.001070020720363" lon="-5.667140018194914">
        <ele>810.03200000000004</ele>
        <time>2021-07-09T16:02:07Z</time>
      </trkpt>
      <trkpt lat="41.000290000811219" lon="-5.666959974914789">
        <ele>812.01099999999997</ele>
        <time>2021-07-09T16:02:21Z</time>
      </trkpt>
      <trkpt lat="40.999709973111749" lon="-5.666870037093759">
        <ele>812.06700000000001</ele>
        <time>2021-07-09T16:02:31Z</time>
      </trkpt>
      <trkpt lat="40.999430017545819" lon="-5.666889986023307">
        <ele>811.01300000000003</ele>
        <time>2021-07-09T16:02:36Z</time>
      </trkpt>
      <trkpt lat="40.999290039762855" lon="-5.666950000450015">
        <ele>811.01800000000003</ele>
        <time>2021-07-09T16:02:39Z</time>
      </trkpt>
      <trkpt lat="40.99908996373415" lon="-5.667070029303432">
        <ele>810.09799999999996</ele>
        <time>2021-07-09T16:02:43Z</time>
      </trkpt>
      <trkpt lat="40.998770026490092" lon="-5.667389966547489">
        <ele>810.01700000000005</ele>
        <time>2021-07-09T16:02:50Z</time>
      </trkpt>
      <trkpt lat="40.998559975996614" lon="-5.667440006509423">
        <ele>809.00800000000004</ele>
        <time>2021-07-09T16:02:54Z</time>
      </trkpt>
      <trkpt lat="40.998380016535521" lon="-5.667400024831295">
        <ele>809.048</ele>
        <time>2021-07-09T16:02:57Z</time>
      </trkpt>
      <trkpt lat="40.998280020430684" lon="-5.667330035939813">
        <ele>809.03800000000001</ele>
        <time>2021-07-09T16:02:59Z</time>
      </trkpt>
      <trkpt lat="40.998199973255396" lon="-5.667230039834976">
        <ele>808.05799999999999</ele>
        <time>2021-07-09T16:03:01Z</time>
      </trkpt>
      <trkpt lat="40.998090002685785" lon="-5.666989982128143">
        <ele>808.04700000000003</ele>
        <time>2021-07-09T16:03:05Z</time>
      </trkpt>
      <trkpt lat="40.998039962723851" lon="-5.666770040988922">
        <ele>807.02200000000005</ele>
        <time>2021-07-09T16:03:08Z</time>
      </trkpt>
      <trkpt lat="40.997929992154241" lon="-5.666629979386926">
        <ele>807.02099999999996</ele>
        <time>2021-07-09T16:03:10Z</time>
      </trkpt>
      <trkpt lat="40.997780039906502" lon="-5.666569964960218">
        <ele>806.03700000000003</ele>
        <time>2021-07-09T16:03:13Z</time>
      </trkpt>
      <trkpt lat="40.997170004993677" lon="-5.666480027139187">
        <ele>805.07299999999998</ele>
        <time>2021-07-09T16:03:24Z</time>
      </trkpt>
      <trkpt lat="40.996859958395362" lon="-5.666399979963899">
        <ele>806.05600000000004</ele>
        <time>2021-07-09T16:03:30Z</time>
      </trkpt>
      <trkpt lat="40.996589977294207" lon="-5.666399979963899">
        <ele>807.05899999999997</ele>
        <time>2021-07-09T16:03:35Z</time>
      </trkpt>
      <trkpt lat="40.996350003406405" lon="-5.666329991072416">
        <ele>809.01400000000001</ele>
        <time>2021-07-09T16:03:39Z</time>
      </trkpt>
      <trkpt lat="40.99605998955667" lon="-5.666309958323836">
        <ele>811.00800000000004</ele>
        <time>2021-07-09T16:03:44Z</time>
      </trkpt>
      <trkpt lat="40.995209980756044" lon="-5.666160006076098">
        <ele>813.01199999999994</ele>
        <time>2021-07-09T16:03:59Z</time>
      </trkpt>
      <trkpt lat="40.993850016966462" lon="-5.665969988331199">
        <ele>814.04200000000003</ele>
        <time>2021-07-09T16:04:24Z</time>
      </trkpt>
      <trkpt lat="40.992949968203902" lon="-5.6657799705863">
        <ele>816.02200000000005</ele>
        <time>2021-07-09T16:04:40Z</time>
      </trkpt>
      <trkpt lat="40.992790041491389" lon="-5.6657799705863">
        <ele>815.03099999999995</ele>
        <time>2021-07-09T16:04:43Z</time>
      </trkpt>
      <trkpt lat="40.992640005424619" lon="-5.665849959477782">
        <ele>815.01599999999996</ele>
        <time>2021-07-09T16:04:46Z</time>
      </trkpt>
      <trkpt lat="40.992479994893074" lon="-5.665830010548234">
        <ele>815.02499999999998</ele>
        <time>2021-07-09T16:04:48Z</time>
      </trkpt>
      <trkpt lat="40.992340017110109" lon="-5.665700007230043">
        <ele>815.07100000000003</ele>
        <time>2021-07-09T16:04:51Z</time>
      </trkpt>
      <trkpt lat="40.992159973829985" lon="-5.665619960054755">
        <ele>815.09699999999998</ele>
        <time>2021-07-09T16:04:55Z</time>
      </trkpt>
      <trkpt lat="40.991510041058064" lon="-5.665490040555596">
        <ele>817.02700000000004</ele>
        <time>2021-07-09T16:05:07Z</time>
      </trkpt>
      <trkpt lat="40.990530028939247" lon="-5.665249982848764">
        <ele>823.06799999999998</ele>
        <time>2021-07-09T16:05:24Z</time>
      </trkpt>
      <trkpt lat="40.989959975704551" lon="-5.665170019492507">
        <ele>826.01400000000001</ele>
        <time>2021-07-09T16:05:34Z</time>
      </trkpt>
      <trkpt lat="40.989689994603395" lon="-5.665089972317219">
        <ele>825.00800000000004</ele>
        <time>2021-07-09T16:05:39Z</time>
      </trkpt>
      <trkpt lat="40.988820036873221" lon="-5.664989976212382">
        <ele>826.05899999999997</ele>
        <time>2021-07-09T16:05:55Z</time>
      </trkpt>
      <trkpt lat="40.986839979887009" lon="-5.664680013433099">
        <ele>836.04899999999998</ele>
        <time>2021-07-09T16:06:30Z</time>
      </trkpt>
      <trkpt lat="40.986549966037273" lon="-5.664670038968325">
        <ele>838.07899999999995</ele>
        <time>2021-07-09T16:06:36Z</time>
      </trkpt>
      <trkpt lat="40.986000029370189" lon="-5.664529977366328">
        <ele>840.03800000000001</ele>
        <time>2021-07-09T16:06:46Z</time>
      </trkpt>
      <trkpt lat="40.983789972960949" lon="-5.664150025695562">
        <ele>839.01300000000003</ele>
        <time>2021-07-09T16:07:25Z</time>
      </trkpt>
      <trkpt lat="40.982390027493238" lon="-5.663839979097247">
        <ele>834.03200000000004</ele>
        <time>2021-07-09T16:07:50Z</time>
      </trkpt>
      <trkpt lat="40.981410015374422" lon="-5.663709975779057">
        <ele>831.05799999999999</ele>
        <time>2021-07-09T16:08:08Z</time>
      </trkpt>
      <trkpt lat="40.980320032685995" lon="-5.663509983569384">
        <ele>829.05399999999997</ele>
        <time>2021-07-09T16:08:28Z</time>
      </trkpt>
      <trkpt lat="40.97970999777317" lon="-5.663449969142675">
        <ele>826.06399999999996</ele>
        <time>2021-07-09T16:08:38Z</time>
      </trkpt>
      <trkpt lat="40.979479998350143" lon="-5.663400012999773">
        <ele>824.00599999999997</ele>
        <time>2021-07-09T16:08:43Z</time>
      </trkpt>
      <trkpt lat="40.979389976710081" lon="-5.663470001891255">
        <ele>824.01599999999996</ele>
        <time>2021-07-09T16:08:44Z</time>
      </trkpt>
      <trkpt lat="40.97930003888905" lon="-5.66360997967422">
        <ele>823.00800000000004</ele>
        <time>2021-07-09T16:08:47Z</time>
      </trkpt>
      <trkpt lat="40.979180010035634" lon="-5.663730008527637">
        <ele>822.06299999999999</ele>
        <time>2021-07-09T16:08:50Z</time>
      </trkpt>
      <trkpt lat="40.979040032252669" lon="-5.663769990205765">
        <ele>822.06299999999999</ele>
        <time>2021-07-09T16:08:52Z</time>
      </trkpt>
      <trkpt lat="40.978980017825961" lon="-5.663760015740991">
        <ele>821.09299999999996</ele>
        <time>2021-07-09T16:08:53Z</time>
      </trkpt>
      <trkpt lat="40.978859988972545" lon="-5.663679968565702">
        <ele>821.01199999999994</ele>
        <time>2021-07-09T16:08:56Z</time>
      </trkpt>
      <trkpt lat="40.978769967332482" lon="-5.663569997996092">
        <ele>821.08699999999999</ele>
        <time>2021-07-09T16:08:58Z</time>
      </trkpt>
      <trkpt lat="40.978710036724806" lon="-5.663379980251193">
        <ele>820.03599999999994</ele>
        <time>2021-07-09T16:09:01Z</time>
      </trkpt>
      <trkpt lat="40.978869963437319" lon="-5.662959963083267">
        <ele>820.08199999999999</ele>
        <time>2021-07-09T16:09:07Z</time>
      </trkpt>
      <trkpt lat="40.978869963437319" lon="-5.662959963083267">
        <ele>820.08199999999999</ele>
        <time>2021-07-09T16:09:07Z</time>
      </trkpt>
      <trkpt lat="40.979089988395572" lon="-5.662710014730692">
        <ele>821.05799999999999</ele>
        <time>2021-07-09T16:09:12Z</time>
      </trkpt>
      <trkpt lat="40.97915000282228" lon="-5.662470040842891">
        <ele>821.07899999999995</ele>
        <time>2021-07-09T16:09:15Z</time>
      </trkpt>
      <trkpt lat="40.979199958965182" lon="-5.661390032619238">
        <ele>820.005</ele>
        <time>2021-07-09T16:09:30Z</time>
      </trkpt>
      <trkpt lat="40.979229966178536" lon="-5.661149974912405">
        <ele>821.02499999999998</ele>
        <time>2021-07-09T16:09:33Z</time>
      </trkpt>
      <trkpt lat="40.979400034993887" lon="-5.660350006073713">
        <ele>822.00800000000004</ele>
        <time>2021-07-09T16:09:44Z</time>
      </trkpt>
      <trkpt lat="40.979530038312078" lon="-5.659520030021668">
        <ele>824.06399999999996</ele>
        <time>2021-07-09T16:09:56Z</time>
      </trkpt>
      <trkpt lat="40.97957999445498" lon="-5.659379968419671">
        <ele>824.08399999999995</ele>
        <time>2021-07-09T16:09:58Z</time>
      </trkpt>
      <trkpt lat="40.97957999445498" lon="-5.659090038388968">
        <ele>824.09400000000005</ele>
        <time>2021-07-09T16:10:02Z</time>
      </trkpt>
      <trkpt lat="40.979470023885369" lon="-5.657920008525252">
        <ele>823.08299999999997</ele>
        <time>2021-07-09T16:10:18Z</time>
      </trkpt>
      <trkpt lat="40.979329962283373" lon="-5.657729990780354">
        <ele>823.02800000000002</ele>
        <time>2021-07-09T16:10:21Z</time>
      </trkpt>
      <trkpt lat="40.979259973391891" lon="-5.657539973035455">
        <ele>823.05700000000002</ele>
        <time>2021-07-09T16:10:24Z</time>
      </trkpt>
      <trkpt lat="40.979280006140471" lon="-5.657239984720945">
        <ele>824.06299999999999</ele>
        <time>2021-07-09T16:10:28Z</time>
      </trkpt>
      <trkpt lat="40.979489972814918" lon="-5.656770011410117">
        <ele>826.01900000000001</ele>
        <time>2021-07-09T16:10:35Z</time>
      </trkpt>
      <trkpt lat="40.979530038312078" lon="-5.656400034204125">
        <ele>827.04700000000003</ele>
        <time>2021-07-09T16:10:40Z</time>
      </trkpt>
      <trkpt lat="40.979479998350143" lon="-5.654640002176166">
        <ele>828.029</ele>
        <time>2021-07-09T16:11:04Z</time>
      </trkpt>
      <trkpt lat="40.979400034993887" lon="-5.65306001342833">
        <ele>822.02099999999996</ele>
        <time>2021-07-09T16:11:25Z</time>
      </trkpt>
      <trkpt lat="40.979349995031953" lon="-5.652719959616661">
        <ele>822.00800000000004</ele>
        <time>2021-07-09T16:11:30Z</time>
      </trkpt>
      <trkpt lat="40.979380002245307" lon="-5.652530025690794">
        <ele>822.08100000000002</ele>
        <time>2021-07-09T16:11:33Z</time>
      </trkpt>
      <trkpt lat="40.979280006140471" lon="-5.652379989624023">
        <ele>822.06100000000004</ele>
        <time>2021-07-09T16:11:35Z</time>
      </trkpt>
      <trkpt lat="40.979210017248988" lon="-5.652219979092479">
        <ele>822.03099999999995</ele>
        <time>2021-07-09T16:11:38Z</time>
      </trkpt>
      <trkpt lat="40.979199958965182" lon="-5.652130041271448">
        <ele>822.00999999999999</ele>
        <time>2021-07-09T16:11:39Z</time>
      </trkpt>
      <trkpt lat="40.979280006140471" lon="-5.651439959183335">
        <ele>820.03499999999997</ele>
        <time>2021-07-09T16:11:48Z</time>
      </trkpt>
      <trkpt lat="40.979229966178536" lon="-5.651310039684176">
        <ele>820.04399999999998</ele>
        <time>2021-07-09T16:11:50Z</time>
      </trkpt>
      <trkpt lat="40.979110021144152" lon="-5.651139970868826">
        <ele>821.04999999999995</ele>
        <time>2021-07-09T16:11:53Z</time>
      </trkpt>
      <trkpt lat="40.979010025039315" lon="-5.650879964232445">
        <ele>821.02599999999995</ele>
        <time>2021-07-09T16:11:57Z</time>
      </trkpt>
      <trkpt lat="40.978439971804619" lon="-5.650400016456842">
        <ele>822.08199999999999</ele>
        <time>2021-07-09T16:12:09Z</time>
      </trkpt>
      <trkpt lat="40.978139983490109" lon="-5.650189965963364">
        <ele>820.04300000000001</ele>
        <time>2021-07-09T16:12:15Z</time>
      </trkpt>
      <trkpt lat="40.977809987962246" lon="-5.649889977648854">
        <ele>818.01700000000005</ele>
        <time>2021-07-09T16:12:23Z</time>
      </trkpt>
      <trkpt lat="40.977489966899157" lon="-5.649710018187761">
        <ele>818.00800000000004</ele>
        <time>2021-07-09T16:12:29Z</time>
      </trkpt>
      <trkpt lat="40.977010019123554" lon="-5.649389997124672">
        <ele>817.02499999999998</ele>
        <time>2021-07-09T16:12:38Z</time>
      </trkpt>
      <trkpt lat="40.976369976997375" lon="-5.648839976638556">
        <ele>815.02499999999998</ele>
        <time>2021-07-09T16:12:52Z</time>
      </trkpt>
      <trkpt lat="40.975700011476874" lon="-5.648370003327727">
        <ele>814.02499999999998</ele>
        <time>2021-07-09T16:13:05Z</time>
      </trkpt>
      <trkpt lat="40.975049994885921" lon="-5.647849990054965">
        <ele>813.08399999999995</ele>
        <time>2021-07-09T16:13:19Z</time>
      </trkpt>
      <trkpt lat="40.974650010466576" lon="-5.64758000895381">
        <ele>814.06899999999996</ele>
        <time>2021-07-09T16:13:27Z</time>
      </trkpt>
      <trkpt lat="40.974269974976778" lon="-5.647250013425946">
        <ele>815.02800000000002</ele>
        <time>2021-07-09T16:13:35Z</time>
      </trkpt>
      <trkpt lat="40.974050033837557" lon="-5.647090002894402">
        <ele>815.04399999999998</ele>
        <time>2021-07-09T16:13:39Z</time>
      </trkpt>
      <trkpt lat="40.973979961127043" lon="-5.647010039538145">
        <ele>815.04999999999995</ele>
        <time>2021-07-09T16:13:41Z</time>
      </trkpt>
      <trkpt lat="40.973590034991503" lon="-5.646709967404604">
        <ele>813.04300000000001</ele>
        <time>2021-07-09T16:13:49Z</time>
      </trkpt>
      <trkpt lat="40.97347998060286" lon="-5.646669985726476">
        <ele>813.06399999999996</ele>
        <time>2021-07-09T16:13:51Z</time>
      </trkpt>
      <trkpt lat="40.973360035568476" lon="-5.64669999293983">
        <ele>812.00999999999999</ele>
        <time>2021-07-09T16:13:53Z</time>
      </trkpt>
      <trkpt lat="40.973319970071316" lon="-5.646660011261702">
        <ele>812.00800000000004</ele>
        <time>2021-07-09T16:13:54Z</time>
      </trkpt>
      <trkpt lat="40.973260039463639" lon="-5.646500000730157">
        <ele>811.08100000000002</ele>
        <time>2021-07-09T16:13:57Z</time>
      </trkpt>
      <trkpt lat="40.973000032827258" lon="-5.646230019629002">
        <ele>809.01099999999997</ele>
        <time>2021-07-09T16:14:02Z</time>
      </trkpt>
      <trkpt lat="40.972109958529472" lon="-5.645080022513866">
        <ele>811.05100000000004</ele>
        <time>2021-07-09T16:14:25Z</time>
      </trkpt>
      <trkpt lat="40.971760014072061" lon="-5.644690012559295">
        <ele>814.00999999999999</ele>
        <time>2021-07-09T16:14:33Z</time>
      </trkpt>
      <trkpt lat="40.971569996327162" lon="-5.644520027562976">
        <ele>815.04499999999996</ele>
        <time>2021-07-09T16:14:37Z</time>
      </trkpt>
      <trkpt lat="40.971170011907816" lon="-5.644260020926595">
        <ele>816.03399999999999</ele>
        <time>2021-07-09T16:14:45Z</time>
      </trkpt>
      <trkpt lat="40.970550002530217" lon="-5.643789963796735">
        <ele>816.05999999999995</ele>
        <time>2021-07-09T16:14:57Z</time>
      </trkpt>
      <trkpt lat="40.970429973676801" lon="-5.643789963796735">
        <ele>816.03599999999994</ele>
        <time>2021-07-09T16:15:00Z</time>
      </trkpt>
      <trkpt lat="40.970329977571964" lon="-5.643889959901571">
        <ele>816.09500000000003</ele>
        <time>2021-07-09T16:15:02Z</time>
      </trkpt>
      <trkpt lat="40.970240039750934" lon="-5.643930025398731">
        <ele>815.04899999999998</ele>
        <time>2021-07-09T16:15:03Z</time>
      </trkpt>
      <trkpt lat="40.970180025324225" lon="-5.643919967114925">
        <ele>815.02300000000002</ele>
        <time>2021-07-09T16:15:05Z</time>
      </trkpt>
      <trkpt lat="40.970039963722229" lon="-5.643789963796735">
        <ele>815.00800000000004</ele>
        <time>2021-07-09T16:15:08Z</time>
      </trkpt>
      <trkpt lat="40.969349965453148" lon="-5.643740007653832">
        <ele>813.02599999999995</ele>
        <time>2021-07-09T16:15:20Z</time>
      </trkpt>
      <trkpt lat="40.969300009310246" lon="-5.643760040402412">
        <ele>813.03599999999994</ele>
        <time>2021-07-09T16:15:21Z</time>
      </trkpt>
      <trkpt lat="40.968519989401102" lon="-5.643640011548996">
        <ele>811.07600000000002</ele>
        <time>2021-07-09T16:15:35Z</time>
      </trkpt>
      <trkpt lat="40.967009989544749" lon="-5.643579997122288">
        <ele>799.02499999999998</ele>
        <time>2021-07-09T16:16:02Z</time>
      </trkpt>
      <trkpt lat="40.966589972376823" lon="-5.643600029870868">
        <ele>795.00999999999999</ele>
        <time>2021-07-09T16:16:09Z</time>
      </trkpt>
      <trkpt lat="40.966380005702376" lon="-5.64364998601377">
        <ele>794.07899999999995</ele>
        <time>2021-07-09T16:16:13Z</time>
      </trkpt>
      <trkpt lat="40.966080017387867" lon="-5.643789963796735">
        <ele>792.03499999999997</ele>
        <time>2021-07-09T16:16:19Z</time>
      </trkpt>
      <trkpt lat="40.965750021860003" lon="-5.644090035930276">
        <ele>790.05100000000004</ele>
        <time>2021-07-09T16:16:26Z</time>
      </trkpt>
      <trkpt lat="40.965609960258007" lon="-5.644260020926595">
        <ele>791.09699999999998</ele>
        <time>2021-07-09T16:16:29Z</time>
      </trkpt>
      <trkpt lat="40.965539971366525" lon="-5.644439980387688">
        <ele>791.02300000000002</ele>
        <time>2021-07-09T16:16:32Z</time>
      </trkpt>
      <trkpt lat="40.96539999358356" lon="-5.644599990919232">
        <ele>792.02499999999998</ele>
        <time>2021-07-09T16:16:35Z</time>
      </trkpt>
      <trkpt lat="40.965290023013949" lon="-5.644799983128905">
        <ele>792.00800000000004</ele>
        <time>2021-07-09T16:16:38Z</time>
      </trkpt>
      <trkpt lat="40.964919961988926" lon="-5.64581997692585">
        <ele>792.01599999999996</ele>
        <time>2021-07-09T16:16:54Z</time>
      </trkpt>
      <trkpt lat="40.964770009741187" lon="-5.646119965240359">
        <ele>792.06600000000003</ele>
        <time>2021-07-09T16:16:58Z</time>
      </trkpt>
      <trkpt lat="40.964660039171576" lon="-5.646620029583573">
        <ele>793.07600000000002</ele>
        <time>2021-07-09T16:17:05Z</time>
      </trkpt>
      <trkpt lat="40.964559959247708" lon="-5.646769981831312">
        <ele>793.01499999999999</ele>
        <time>2021-07-09T16:17:08Z</time>
      </trkpt>
      <trkpt lat="40.964489970356226" lon="-5.64680996350944">
        <ele>793.08000000000004</ele>
        <time>2021-07-09T16:17:10Z</time>
      </trkpt>
      <trkpt lat="40.964340018108487" lon="-5.64680996350944">
        <ele>792.03899999999999</ele>
        <time>2021-07-09T16:17:12Z</time>
      </trkpt>
      <trkpt lat="40.964210014790297" lon="-5.64672002568841">
        <ele>791.02499999999998</ele>
        <time>2021-07-09T16:17:15Z</time>
      </trkpt>
      <trkpt lat="40.964010022580624" lon="-5.646509975194931">
        <ele>789.01099999999997</ele>
        <time>2021-07-09T16:17:19Z</time>
      </trkpt>
      <trkpt lat="40.963840037584305" lon="-5.646390030160546">
        <ele>787.08100000000002</ele>
        <time>2021-07-09T16:17:23Z</time>
      </trkpt>
      <trkpt lat="40.962990028783679" lon="-5.645859958603978">
        <ele>782.06100000000004</ele>
        <time>2021-07-09T16:17:39Z</time>
      </trkpt>
      <trkpt lat="40.962300030514598" lon="-5.645470032468438">
        <ele>781.01700000000005</ele>
        <time>2021-07-09T16:17:53Z</time>
      </trkpt>
      <trkpt lat="40.962210008874536" lon="-5.645380010828376">
        <ele>781.00800000000004</ele>
        <time>2021-07-09T16:17:55Z</time>
      </trkpt>
      <trkpt lat="40.962080005556345" lon="-5.645329970866442">
        <ele>780.08500000000004</ele>
        <time>2021-07-09T16:17:57Z</time>
      </trkpt>
      <trkpt lat="40.96181002445519" lon="-5.645099971443415">
        <ele>779.03499999999997</ele>
        <time>2021-07-09T16:18:03Z</time>
      </trkpt>
      <trkpt lat="40.961599973961711" lon="-5.644999975338578">
        <ele>778.06500000000005</ele>
        <time>2021-07-09T16:18:07Z</time>
      </trkpt>
      <trkpt lat="40.961499977856874" lon="-5.64498002640903">
        <ele>777.08399999999995</ele>
        <time>2021-07-09T16:18:09Z</time>
      </trkpt>
      <trkpt lat="40.961220022290945" lon="-5.644990000873804">
        <ele>775.08900000000006</ele>
        <time>2021-07-09T16:18:14Z</time>
      </trkpt>
      <trkpt lat="40.961150033399463" lon="-5.64495999366045">
        <ele>775.06799999999998</ele>
        <time>2021-07-09T16:18:15Z</time>
      </trkpt>
      <trkpt lat="40.960960015654564" lon="-5.644799983128905">
        <ele>774.01400000000001</ele>
        <time>2021-07-09T16:18:19Z</time>
      </trkpt>
      <trkpt lat="40.960879968479276" lon="-5.644790008664131">
        <ele>773.01999999999998</ele>
        <time>2021-07-09T16:18:20Z</time>
      </trkpt>
      <trkpt lat="40.960649969056249" lon="-5.644839964807034">
        <ele>773.05700000000002</ele>
        <time>2021-07-09T16:18:25Z</time>
      </trkpt>
      <trkpt lat="40.959429983049631" lon="-5.644969968125224">
        <ele>775</ele>
        <time>2021-07-09T16:18:46Z</time>
      </trkpt>
      <trkpt lat="40.958140008151531" lon="-5.645199967548251">
        <ele>774.01999999999998</ele>
        <time>2021-07-09T16:19:10Z</time>
      </trkpt>
      <trkpt lat="40.958000030368567" lon="-5.645250007510185">
        <ele>775.00800000000004</ele>
        <time>2021-07-09T16:19:12Z</time>
      </trkpt>
      <trkpt lat="40.95785996876657" lon="-5.645399959757924">
        <ele>776.04200000000003</ele>
        <time>2021-07-09T16:19:15Z</time>
      </trkpt>
      <trkpt lat="40.957759972661734" lon="-5.645570028573275">
        <ele>778.02200000000005</ele>
        <time>2021-07-09T16:19:18Z</time>
      </trkpt>
      <trkpt lat="40.957489991560578" lon="-5.645440025255084">
        <ele>778.03200000000004</ele>
        <time>2021-07-09T16:19:23Z</time>
      </trkpt>
      <trkpt lat="40.957120014354587" lon="-5.644560009241104">
        <ele>776.02099999999996</ele>
        <time>2021-07-09T16:19:37Z</time>
      </trkpt>
      <trkpt lat="40.956339994445443" lon="-5.643500033766031">
        <ele>776.06600000000003</ele>
        <time>2021-07-09T16:19:57Z</time>
      </trkpt>
      <trkpt lat="40.9534100163728" lon="-5.641830023378134">
        <ele>776.04499999999996</ele>
        <time>2021-07-09T16:20:54Z</time>
      </trkpt>
      <trkpt lat="40.953250005841255" lon="-5.641700020059943">
        <ele>776.06100000000004</ele>
        <time>2021-07-09T16:20:57Z</time>
      </trkpt>
      <trkpt lat="40.953080020844936" lon="-5.641619972884655">
        <ele>776.09699999999998</ele>
        <time>2021-07-09T16:21:00Z</time>
      </trkpt>
      <trkpt lat="40.952699985355139" lon="-5.64137002453208">
        <ele>777.06299999999999</ele>
        <time>2021-07-09T16:21:08Z</time>
      </trkpt>
      <trkpt lat="40.952650029212236" lon="-5.641359966248274">
        <ele>777.04399999999998</ele>
        <time>2021-07-09T16:21:09Z</time>
      </trkpt>
      <trkpt lat="40.952479960396886" lon="-5.641210014000535">
        <ele>777.01800000000003</ele>
        <time>2021-07-09T16:21:12Z</time>
      </trkpt>
      <trkpt lat="40.951930023729801" lon="-5.640880018472672">
        <ele>779.00800000000004</ele>
        <time>2021-07-09T16:21:23Z</time>
      </trkpt>
      <trkpt lat="40.951819969341159" lon="-5.640840036794543">
        <ele>779.053</ele>
        <time>2021-07-09T16:21:25Z</time>
      </trkpt>
      <trkpt lat="40.951370028778911" lon="-5.640590004622936">
        <ele>781.09299999999996</ele>
        <time>2021-07-09T16:21:34Z</time>
      </trkpt>
      <trkpt lat="40.95119995996356" lon="-5.640529990196228">
        <ele>781.07299999999998</ele>
        <time>2021-07-09T16:21:37Z</time>
      </trkpt>
      <trkpt lat="40.951029974967241" lon="-5.640559997409582">
        <ele>781.08199999999999</ele>
        <time>2021-07-09T16:21:40Z</time>
      </trkpt>
      <trkpt lat="40.95079000107944" lon="-5.640769964084029">
        <ele>781.01700000000005</ele>
        <time>2021-07-09T16:21:45Z</time>
      </trkpt>
      <trkpt lat="40.950650023296475" lon="-5.640780022367835">
        <ele>780.05600000000004</ele>
        <time>2021-07-09T16:21:47Z</time>
      </trkpt>
      <trkpt lat="40.950529994443059" lon="-5.640690000727773">
        <ele>780.06200000000001</ele>
        <time>2021-07-09T16:21:50Z</time>
      </trkpt>
      <trkpt lat="40.950469980016351" lon="-5.640610037371516">
        <ele>779.02800000000002</ele>
        <time>2021-07-09T16:21:51Z</time>
      </trkpt>
      <trkpt lat="40.950439972802997" lon="-5.640399986878038">
        <ele>780.096</ele>
        <time>2021-07-09T16:21:54Z</time>
      </trkpt>
      <trkpt lat="40.950580034404993" lon="-5.639890031889081">
        <ele>780.03099999999995</ele>
        <time>2021-07-09T16:22:02Z</time>
      </trkpt>
      <trkpt lat="40.950599983334541" lon="-5.63958995975554">
        <ele>781.024</ele>
        <time>2021-07-09T16:22:06Z</time>
      </trkpt>
      <trkpt lat="40.950450031086802" lon="-5.637909974902868">
        <ele>781.00800000000004</ele>
        <time>2021-07-09T16:22:28Z</time>
      </trkpt>
      <trkpt lat="40.950439972802997" lon="-5.63744000159204">
        <ele>780.05600000000004</ele>
        <time>2021-07-09T16:22:35Z</time>
      </trkpt>
      <trkpt lat="40.950239980593324" lon="-5.635579973459244">
        <ele>778.02599999999995</ele>
        <time>2021-07-09T16:23:00Z</time>
      </trkpt>
      <trkpt lat="40.950199998915195" lon="-5.634729964658618">
        <ele>778.08600000000001</ele>
        <time>2021-07-09T16:23:11Z</time>
      </trkpt>
      <trkpt lat="40.950079970061779" lon="-5.63382999971509">
        <ele>779.06500000000005</ele>
        <time>2021-07-09T16:23:24Z</time>
      </trkpt>
      <trkpt lat="40.950000006705523" lon="-5.633650040253997">
        <ele>779.00999999999999</ele>
        <time>2021-07-09T16:23:26Z</time>
      </trkpt>
      <trkpt lat="40.949979973956943" lon="-5.633500004187226">
        <ele>780.08900000000006</ele>
        <time>2021-07-09T16:23:28Z</time>
      </trkpt>
      <trkpt lat="40.950020039454103" lon="-5.633339993655682">
        <ele>780.01499999999999</ele>
        <time>2021-07-09T16:23:31Z</time>
      </trkpt>
      <trkpt lat="40.950030013918877" lon="-5.633160034194589">
        <ele>780.08100000000002</ele>
        <time>2021-07-09T16:23:33Z</time>
      </trkpt>
      <trkpt lat="40.950009981170297" lon="-5.63251999206841">
        <ele>782.02099999999996</ele>
        <time>2021-07-09T16:23:42Z</time>
      </trkpt>
      <trkpt lat="40.950039988383651" lon="-5.632299967110157">
        <ele>782.04100000000005</ele>
        <time>2021-07-09T16:23:45Z</time>
      </trkpt>
      <trkpt lat="40.950020039454103" lon="-5.631899982690811">
        <ele>782.005</ele>
        <time>2021-07-09T16:23:50Z</time>
      </trkpt>
      <trkpt lat="40.950109977275133" lon="-5.631569987162948">
        <ele>781.00800000000004</ele>
        <time>2021-07-09T16:23:55Z</time>
      </trkpt>
      <trkpt lat="40.950149958953261" lon="-5.631249966099858">
        <ele>781.09900000000005</ele>
        <time>2021-07-09T16:23:59Z</time>
      </trkpt>
      <trkpt lat="40.950149958953261" lon="-5.630879988893867">
        <ele>781.029</ele>
        <time>2021-07-09T16:24:04Z</time>
      </trkpt>
      <trkpt lat="40.950120035558939" lon="-5.630600033327937">
        <ele>782.04899999999998</ele>
        <time>2021-07-09T16:24:08Z</time>
      </trkpt>
      <trkpt lat="40.950139984488487" lon="-5.630259979516268">
        <ele>783.07799999999997</ele>
        <time>2021-07-09T16:24:13Z</time>
      </trkpt>
      <trkpt lat="40.950130010023713" lon="-5.629869969561696">
        <ele>784.06299999999999</ele>
        <time>2021-07-09T16:24:18Z</time>
      </trkpt>
      <trkpt lat="40.950100002810359" lon="-5.629509966820478">
        <ele>786.06200000000001</ele>
        <time>2021-07-09T16:24:23Z</time>
      </trkpt>
      <trkpt lat="40.950120035558939" lon="-5.629290025681257">
        <ele>786.09799999999996</ele>
        <time>2021-07-09T16:24:26Z</time>
      </trkpt>
      <trkpt lat="40.950090028345585" lon="-5.628640009090304">
        <ele>787.07399999999996</ele>
        <time>2021-07-09T16:24:34Z</time>
      </trkpt>
      <trkpt lat="40.950100002810359" lon="-5.628080014139414">
        <ele>787.08600000000001</ele>
        <time>2021-07-09T16:24:42Z</time>
      </trkpt>
      <trkpt lat="40.950079970061779" lon="-5.627780025824904">
        <ele>787.05999999999995</ele>
        <time>2021-07-09T16:24:46Z</time>
      </trkpt>
      <trkpt lat="40.950030013918877" lon="-5.627520019188523">
        <ele>787.02599999999995</ele>
        <time>2021-07-09T16:24:50Z</time>
      </trkpt>
      <trkpt lat="40.950060021132231" lon="-5.627060020342469">
        <ele>788.00800000000004</ele>
        <time>2021-07-09T16:24:56Z</time>
      </trkpt>
      <trkpt lat="40.950060021132231" lon="-5.62588001601398">
        <ele>787.04499999999996</ele>
        <time>2021-07-09T16:25:12Z</time>
      </trkpt>
      <trkpt lat="40.949969999492168" lon="-5.624029962345958">
        <ele>787.06500000000005</ele>
        <time>2021-07-09T16:25:37Z</time>
      </trkpt>
      <trkpt lat="40.94990998506546" lon="-5.622140010818839">
        <ele>790.07500000000005</ele>
        <time>2021-07-09T16:26:02Z</time>
      </trkpt>
      <trkpt lat="40.94990998506546" lon="-5.62149996869266">
        <ele>791.01400000000001</ele>
        <time>2021-07-09T16:26:11Z</time>
      </trkpt>
      <trkpt lat="40.949849970638752" lon="-5.621359990909696">
        <ele>791.029</ele>
        <time>2021-07-09T16:26:13Z</time>
      </trkpt>
      <trkpt lat="40.949900010600686" lon="-5.62096000649035">
        <ele>791.03800000000001</ele>
        <time>2021-07-09T16:26:18Z</time>
      </trkpt>
      <trkpt lat="40.949809988960624" lon="-5.619180025532842">
        <ele>790.04399999999998</ele>
        <time>2021-07-09T16:26:42Z</time>
      </trkpt>
      <trkpt lat="40.949200037866831" lon="-5.60065995901823">
        <ele>792.05999999999995</ele>
        <time>2021-07-09T16:30:51Z</time>
      </trkpt>
      <trkpt lat="40.949170030653477" lon="-5.600070040673018">
        <ele>792.01700000000005</ele>
        <time>2021-07-09T16:30:59Z</time>
      </trkpt>
      <trkpt lat="40.949100041761994" lon="-5.599629990756512">
        <ele>792.08699999999999</ele>
        <time>2021-07-09T16:31:05Z</time>
      </trkpt>
      <trkpt lat="40.949059976264834" lon="-5.599520020186901">
        <ele>792.01499999999999</ele>
        <time>2021-07-09T16:31:07Z</time>
      </trkpt>
      <trkpt lat="40.948959980159998" lon="-5.599360009655356">
        <ele>792.00800000000004</ele>
        <time>2021-07-09T16:31:10Z</time>
      </trkpt>
      <trkpt lat="40.948750013485551" lon="-5.599220031872392">
        <ele>792.07799999999997</ele>
        <time>2021-07-09T16:31:14Z</time>
      </trkpt>
      <trkpt lat="40.948699973523617" lon="-5.599139984697104">
        <ele>792.07799999999997</ele>
        <time>2021-07-09T16:31:15Z</time>
      </trkpt>
      <trkpt lat="40.948659991845489" lon="-5.598949966952205">
        <ele>792.07799999999997</ele>
        <time>2021-07-09T16:31:18Z</time>
      </trkpt>
      <trkpt lat="40.948669966310263" lon="-5.598849970847368">
        <ele>792.05700000000002</ele>
        <time>2021-07-09T16:31:19Z</time>
      </trkpt>
      <trkpt lat="40.948759987950325" lon="-5.598679985851049">
        <ele>792.09199999999998</ele>
        <time>2021-07-09T16:31:22Z</time>
      </trkpt>
      <trkpt lat="40.948840035125613" lon="-5.598630029708147">
        <ele>792.04100000000005</ele>
        <time>2021-07-09T16:31:24Z</time>
      </trkpt>
      <trkpt lat="40.94907003454864" lon="-5.598549982532859">
        <ele>792.01700000000005</ele>
        <time>2021-07-09T16:31:28Z</time>
      </trkpt>
      <trkpt lat="40.949129965156317" lon="-5.598479993641377">
        <ele>792.02300000000002</ele>
        <time>2021-07-09T16:31:29Z</time>
      </trkpt>
      <trkpt lat="40.949159972369671" lon="-5.598259968683124">
        <ele>792.03499999999997</ele>
        <time>2021-07-09T16:31:32Z</time>
      </trkpt>
      <trkpt lat="40.94905000180006" lon="-5.596389966085553">
        <ele>793.08600000000001</ele>
        <time>2021-07-09T16:31:58Z</time>
      </trkpt>
      <trkpt lat="40.948959980159998" lon="-5.593780009075999">
        <ele>794.01400000000001</ele>
        <time>2021-07-09T16:32:33Z</time>
      </trkpt>
      <trkpt lat="40.949080009013414" lon="-5.592799996957183">
        <ele>794.00800000000004</ele>
        <time>2021-07-09T16:32:46Z</time>
      </trkpt>
      <trkpt lat="40.94894003123045" lon="-5.591649999842048">
        <ele>794.03999999999996</ele>
        <time>2021-07-09T16:33:02Z</time>
      </trkpt>
      <trkpt lat="40.948810027912259" lon="-5.589370038360357">
        <ele>793.04999999999995</ele>
        <time>2021-07-09T16:33:32Z</time>
      </trkpt>
      <trkpt lat="40.948799969628453" lon="-5.588200008496642">
        <ele>793.01999999999998</ele>
        <time>2021-07-09T16:33:48Z</time>
      </trkpt>
      <trkpt lat="40.948720006272197" lon="-5.58591996319592">
        <ele>796.07899999999995</ele>
        <time>2021-07-09T16:34:19Z</time>
      </trkpt>
      <trkpt lat="40.948680024594069" lon="-5.585370026528835">
        <ele>797.08399999999995</ele>
        <time>2021-07-09T16:34:26Z</time>
      </trkpt>
      <trkpt lat="40.948639959096909" lon="-5.58331998065114">
        <ele>797.053</ele>
        <time>2021-07-09T16:34:54Z</time>
      </trkpt>
      <trkpt lat="40.948539962992072" lon="-5.580859975889325">
        <ele>794.04899999999998</ele>
        <time>2021-07-09T16:35:27Z</time>
      </trkpt>
      <trkpt lat="40.94846997410059" lon="-5.578380022197962">
        <ele>794.06500000000005</ele>
        <time>2021-07-09T16:36:00Z</time>
      </trkpt>
      <trkpt lat="40.948459999635816" lon="-5.578239960595965">
        <ele>794.06899999999996</ele>
        <time>2021-07-09T16:36:02Z</time>
      </trkpt>
      <trkpt lat="40.948369977995753" lon="-5.577899990603328">
        <ele>794.00400000000002</ele>
        <time>2021-07-09T16:36:07Z</time>
      </trkpt>
      <trkpt lat="40.948459999635816" lon="-5.577400010079145">
        <ele>794.024</ele>
        <time>2021-07-09T16:36:14Z</time>
      </trkpt>
      <trkpt lat="40.948260007426143" lon="-5.572240026667714">
        <ele>801.00800000000004</ele>
        <time>2021-07-09T16:37:23Z</time>
      </trkpt>
      <trkpt lat="40.948139978572726" lon="-5.570949967950583">
        <ele>801.09299999999996</ele>
        <time>2021-07-09T16:37:41Z</time>
      </trkpt>
      <trkpt lat="40.947590041905642" lon="-5.566730014979839">
        <ele>800.03300000000002</ele>
        <time>2021-07-09T16:38:38Z</time>
      </trkpt>
      <trkpt lat="40.947080003097653" lon="-5.563159994781017">
        <ele>798.07299999999998</ele>
        <time>2021-07-09T16:39:27Z</time>
      </trkpt>
      <trkpt lat="40.945779969915748" lon="-5.553310001268983">
        <ele>800.04200000000003</ele>
        <time>2021-07-09T16:41:42Z</time>
      </trkpt>
      <trkpt lat="40.945549970492721" lon="-5.55212002247572">
        <ele>801.04700000000003</ele>
        <time>2021-07-09T16:41:58Z</time>
      </trkpt>
      <trkpt lat="40.94541996717453" lon="-5.550659978762269">
        <ele>798.08600000000001</ele>
        <time>2021-07-09T16:42:18Z</time>
      </trkpt>
      <trkpt lat="40.945279989391565" lon="-5.549620036035776">
        <ele>797.08199999999999</ele>
        <time>2021-07-09T16:42:32Z</time>
      </trkpt>
      <trkpt lat="40.944870030507445" lon="-5.54733001627028">
        <ele>797.05799999999999</ele>
        <time>2021-07-09T16:43:04Z</time>
      </trkpt>
      <trkpt lat="40.944229988381267" lon="-5.54329002276063">
        <ele>796.09799999999996</ele>
        <time>2021-07-09T16:43:59Z</time>
      </trkpt>
      <trkpt lat="40.940779997035861" lon="-5.520210033282638">
        <ele>793.01499999999999</ele>
        <time>2021-07-09T16:49:15Z</time>
      </trkpt>
      <trkpt lat="40.939300004392862" lon="-5.510609988123179">
        <ele>790.02599999999995</ele>
        <time>2021-07-09T16:51:27Z</time>
      </trkpt>
      <trkpt lat="40.937200002372265" lon="-5.496499976143241">
        <ele>792.00800000000004</ele>
        <time>2021-07-09T16:54:40Z</time>
      </trkpt>
      <trkpt lat="40.93607003800571" lon="-5.489239990711212">
        <ele>790.07600000000002</ele>
        <time>2021-07-09T16:56:20Z</time>
      </trkpt>
      <trkpt lat="40.935929976403713" lon="-5.488489978015423">
        <ele>790.04600000000005</ele>
        <time>2021-07-09T16:56:30Z</time>
      </trkpt>
      <trkpt lat="40.93575001694262" lon="-5.487759998068214">
        <ele>789.096</ele>
        <time>2021-07-09T16:56:41Z</time>
      </trkpt>
      <trkpt lat="40.935539966449142" lon="-5.487049967050552">
        <ele>790.08500000000004</ele>
        <time>2021-07-09T16:56:51Z</time>
      </trkpt>
      <trkpt lat="40.934939989820123" lon="-5.485390014946461">
        <ele>791.07000000000005</ele>
        <time>2021-07-09T16:57:16Z</time>
      </trkpt>
      <trkpt lat="40.932990023866296" lon="-5.480270013213158">
        <ele>790.07899999999995</ele>
        <time>2021-07-09T16:58:33Z</time>
      </trkpt>
      <trkpt lat="40.932760024443269" lon="-5.47935001552105">
        <ele>790.01499999999999</ele>
        <time>2021-07-09T16:58:46Z</time>
      </trkpt>
      <trkpt lat="40.932630021125078" lon="-5.478339996188879">
        <ele>791.08100000000002</ele>
        <time>2021-07-09T16:59:00Z</time>
      </trkpt>
      <trkpt lat="40.932530025020242" lon="-5.476449960842729">
        <ele>788.02700000000004</ele>
        <time>2021-07-09T16:59:25Z</time>
      </trkpt>
      <trkpt lat="40.932430028915405" lon="-5.472639966756105">
        <ele>791.06799999999998</ele>
        <time>2021-07-09T17:00:16Z</time>
      </trkpt>
      <trkpt lat="40.932089975103736" lon="-5.466310037299991">
        <ele>792.01400000000001</ele>
        <time>2021-07-09T17:01:42Z</time>
      </trkpt>
      <trkpt lat="40.932049993425608" lon="-5.46484999358654">
        <ele>793.00800000000004</ele>
        <time>2021-07-09T17:02:01Z</time>
      </trkpt>
      <trkpt lat="40.931900041177869" lon="-5.461729997768998">
        <ele>799.029</ele>
        <time>2021-07-09T17:02:43Z</time>
      </trkpt>
      <trkpt lat="40.931650009006262" lon="-5.455139977857471">
        <ele>804.03899999999999</ele>
        <time>2021-07-09T17:04:12Z</time>
      </trkpt>
      <trkpt lat="40.931369969621301" lon="-5.449499962851405">
        <ele>806.08900000000006</ele>
        <time>2021-07-09T17:05:28Z</time>
      </trkpt>
      <trkpt lat="40.930939977988601" lon="-5.43943002820015">
        <ele>806.06799999999998</ele>
        <time>2021-07-09T17:07:43Z</time>
      </trkpt>
      <trkpt lat="40.93085004016757" lon="-5.438060006126761">
        <ele>805.08299999999997</ele>
        <time>2021-07-09T17:08:02Z</time>
      </trkpt>
      <trkpt lat="40.930709978565574" lon="-5.434629963710904">
        <ele>809.02200000000005</ele>
        <time>2021-07-09T17:08:48Z</time>
      </trkpt>
      <trkpt lat="40.930590033531189" lon="-5.432489980012178">
        <ele>808.02800000000002</ele>
        <time>2021-07-09T17:09:17Z</time>
      </trkpt>
      <trkpt lat="40.930460030212998" lon="-5.429199999198318">
        <ele>814.01400000000001</ele>
        <time>2021-07-09T17:10:01Z</time>
      </trkpt>
      <trkpt lat="40.930089969187975" lon="-5.421459982171655">
        <ele>823.01099999999997</ele>
        <time>2021-07-09T17:11:45Z</time>
      </trkpt>
      <trkpt lat="40.929889976978302" lon="-5.416650027036667">
        <ele>834.02099999999996</ele>
        <time>2021-07-09T17:12:50Z</time>
      </trkpt>
      <trkpt lat="40.929689984768629" lon="-5.413040025159717">
        <ele>842.00300000000004</ele>
        <time>2021-07-09T17:13:39Z</time>
      </trkpt>
      <trkpt lat="40.929699959233403" lon="-5.412130001932383">
        <ele>846.00800000000004</ele>
        <time>2021-07-09T17:13:51Z</time>
      </trkpt>
      <trkpt lat="40.929680010303855" lon="-5.411249985918403">
        <ele>852.06799999999998</ele>
        <time>2021-07-09T17:14:03Z</time>
      </trkpt>
      <trkpt lat="40.929529974237084" lon="-5.409010006114841">
        <ele>862.03800000000001</ele>
        <time>2021-07-09T17:14:33Z</time>
      </trkpt>
      <trkpt lat="40.929489992558956" lon="-5.405390029773116">
        <ele>859.09799999999996</ele>
        <time>2021-07-09T17:15:22Z</time>
      </trkpt>
      <trkpt lat="40.929450010880828" lon="-5.40438998490572">
        <ele>859.05700000000002</ele>
        <time>2021-07-09T17:15:35Z</time>
      </trkpt>
      <trkpt lat="40.929459985345602" lon="-5.401330003514886">
        <ele>859.04200000000003</ele>
        <time>2021-07-09T17:16:16Z</time>
      </trkpt>
      <trkpt lat="40.92936996370554" lon="-5.400140024721623">
        <ele>864.08100000000002</ele>
        <time>2021-07-09T17:16:33Z</time>
      </trkpt>
      <trkpt lat="40.929380021989346" lon="-5.398430032655597">
        <ele>866.04700000000003</ele>
        <time>2021-07-09T17:16:56Z</time>
      </trkpt>
      <trkpt lat="40.929290000349283" lon="-5.394709976390004">
        <ele>866.06299999999999</ele>
        <time>2021-07-09T17:17:46Z</time>
      </trkpt>
      <trkpt lat="40.929250018671155" lon="-5.387089988216758">
        <ele>851.03800000000001</ele>
        <time>2021-07-09T17:19:28Z</time>
      </trkpt>
      <trkpt lat="40.929210036993027" lon="-5.384229999035597">
        <ele>843.07000000000005</ele>
        <time>2021-07-09T17:20:06Z</time>
      </trkpt>
      <trkpt lat="40.929280025884509" lon="-5.38354997523129">
        <ele>841.01700000000005</ele>
        <time>2021-07-09T17:20:16Z</time>
      </trkpt>
      <trkpt lat="40.929350014775991" lon="-5.383349983021617">
        <ele>841.00800000000004</ele>
        <time>2021-07-09T17:20:19Z</time>
      </trkpt>
      <trkpt lat="40.929550006985664" lon="-5.382989980280399">
        <ele>841.07000000000005</ele>
        <time>2021-07-09T17:20:25Z</time>
      </trkpt>
      <trkpt lat="40.929780006408691" lon="-5.382740031927824">
        <ele>842.08000000000004</ele>
        <time>2021-07-09T17:20:30Z</time>
      </trkpt>
      <trkpt lat="40.930330026894808" lon="-5.382369970902801">
        <ele>843.07000000000005</ele>
        <time>2021-07-09T17:20:41Z</time>
      </trkpt>
      <trkpt lat="40.930500011891127" lon="-5.382180036976934">
        <ele>843.07899999999995</ele>
        <time>2021-07-09T17:20:45Z</time>
      </trkpt>
      <trkpt lat="40.930579975247383" lon="-5.381939979270101">
        <ele>843.06399999999996</ele>
        <time>2021-07-09T17:20:48Z</time>
      </trkpt>
      <trkpt lat="40.930560026317835" lon="-5.381690030917525">
        <ele>843.07299999999998</ele>
        <time>2021-07-09T17:20:52Z</time>
      </trkpt>
      <trkpt lat="40.930449971929193" lon="-5.381500013172627">
        <ele>842.05899999999997</ele>
        <time>2021-07-09T17:20:55Z</time>
      </trkpt>
      <trkpt lat="40.930370008572936" lon="-5.381449973210692">
        <ele>842.07500000000005</ele>
        <time>2021-07-09T17:20:57Z</time>
      </trkpt>
      <trkpt lat="40.930179990828037" lon="-5.381419965997338">
        <ele>842.05200000000002</ele>
        <time>2021-07-09T17:21:00Z</time>
      </trkpt>
      <trkpt lat="40.930010005831718" lon="-5.381330028176308">
        <ele>842.053</ele>
        <time>2021-07-09T17:21:03Z</time>
      </trkpt>
      <trkpt lat="40.929880002513528" lon="-5.381170017644763">
        <ele>841.00800000000004</ele>
        <time>2021-07-09T17:21:06Z</time>
      </trkpt>
      <trkpt lat="40.929699959233403" lon="-5.381040014326572">
        <ele>841.00800000000004</ele>
        <time>2021-07-09T17:21:10Z</time>
      </trkpt>
      <trkpt lat="40.929580014199018" lon="-5.381000032648444">
        <ele>841.09199999999998</ele>
        <time>2021-07-09T17:21:12Z</time>
      </trkpt>
      <trkpt lat="40.929350014775991" lon="-5.38094999268651">
        <ele>840.01199999999994</ele>
        <time>2021-07-09T17:21:16Z</time>
      </trkpt>
      <trkpt lat="40.928690023720264" lon="-5.380900036543608">
        <ele>840.06200000000001</ele>
        <time>2021-07-09T17:21:28Z</time>
      </trkpt>
      <trkpt lat="40.928490031510592" lon="-5.380919985473156">
        <ele>839.09100000000001</ele>
        <time>2021-07-09T17:21:32Z</time>
      </trkpt>
      <trkpt lat="40.928300013765693" lon="-5.380979999899864">
        <ele>839.03599999999994</ele>
        <time>2021-07-09T17:21:35Z</time>
      </trkpt>
      <trkpt lat="40.927989967167377" lon="-5.381189966574311">
        <ele>839.09500000000003</ele>
        <time>2021-07-09T17:21:41Z</time>
      </trkpt>
      <trkpt lat="40.927830040454865" lon="-5.381189966574311">
        <ele>839.03099999999995</ele>
        <time>2021-07-09T17:21:44Z</time>
      </trkpt>
      <trkpt lat="40.927710011601448" lon="-5.381070021539927">
        <ele>839.06700000000001</ele>
        <time>2021-07-09T17:21:47Z</time>
      </trkpt>
      <trkpt lat="40.927580008283257" lon="-5.380529975518584">
        <ele>839.07399999999996</ele>
        <time>2021-07-09T17:21:55Z</time>
      </trkpt>
      <trkpt lat="40.927480012178421" lon="-5.380290001630783">
        <ele>838.05600000000004</ele>
        <time>2021-07-09T17:21:58Z</time>
      </trkpt>
      <trkpt lat="40.927459979429841" lon="-5.379999987781048">
        <ele>838.02099999999996</ele>
        <time>2021-07-09T17:22:02Z</time>
      </trkpt>
      <trkpt lat="40.927489986643195" lon="-5.379850035533309">
        <ele>838.00800000000004</ele>
        <time>2021-07-09T17:22:04Z</time>
      </trkpt>
      <trkpt lat="40.92762996442616" lon="-5.379569996148348">
        <ele>837.09400000000005</ele>
        <time>2021-07-09T17:22:09Z</time>
      </trkpt>
      <trkpt lat="40.928330020979047" lon="-5.378919979557395">
        <ele>837.09400000000005</ele>
        <time>2021-07-09T17:22:24Z</time>
      </trkpt>
      <trkpt lat="40.928439991548657" lon="-5.378770027309656">
        <ele>838.05399999999997</ele>
        <time>2021-07-09T17:22:27Z</time>
      </trkpt>
      <trkpt lat="40.928630009293556" lon="-5.378429973497987">
        <ele>838.03300000000002</ele>
        <time>2021-07-09T17:22:32Z</time>
      </trkpt>
      <trkpt lat="40.928860008716583" lon="-5.377809964120388">
        <ele>838.08799999999997</ele>
        <time>2021-07-09T17:22:42Z</time>
      </trkpt>
      <trkpt lat="40.929029993712902" lon="-5.377149973064661">
        <ele>839.05700000000002</ele>
        <time>2021-07-09T17:22:51Z</time>
      </trkpt>
      <trkpt lat="40.929120015352964" lon="-5.376659967005253">
        <ele>840.07299999999998</ele>
        <time>2021-07-09T17:22:58Z</time>
      </trkpt>
      <trkpt lat="40.929169971495867" lon="-5.376140037551522">
        <ele>840.03899999999999</ele>
        <time>2021-07-09T17:23:05Z</time>
      </trkpt>
      <trkpt lat="40.929190004244447" lon="-5.37559999153018">
        <ele>840.05899999999997</ele>
        <time>2021-07-09T17:23:12Z</time>
      </trkpt>
      <trkpt lat="40.929029993712902" lon="-5.367420008406043">
        <ele>840.00300000000004</ele>
        <time>2021-07-09T17:25:02Z</time>
      </trkpt>
      <trkpt lat="40.929009960964322" lon="-5.362780038267374">
        <ele>843.02300000000002</ele>
        <time>2021-07-09T17:26:05Z</time>
      </trkpt>
      <trkpt lat="40.92898003757" lon="-5.361410016193986">
        <ele>840.00800000000004</ele>
        <time>2021-07-09T17:26:23Z</time>
      </trkpt>
      <trkpt lat="40.92898003757" lon="-5.356869958341122">
        <ele>838.05200000000002</ele>
        <time>2021-07-09T17:27:24Z</time>
      </trkpt>
      <trkpt lat="40.92893997207284" lon="-5.355349984019995">
        <ele>840.05200000000002</ele>
        <time>2021-07-09T17:27:44Z</time>
      </trkpt>
      <trkpt lat="40.928950030356646" lon="-5.353419966995716">
        <ele>849.01199999999994</ele>
        <time>2021-07-09T17:28:10Z</time>
      </trkpt>
      <trkpt lat="40.928929997608066" lon="-5.352659979835153">
        <ele>853.01099999999997</ele>
        <time>2021-07-09T17:28:21Z</time>
      </trkpt>
      <trkpt lat="40.928950030356646" lon="-5.352410031482577">
        <ele>853.01599999999996</ele>
        <time>2021-07-09T17:28:24Z</time>
      </trkpt>
      <trkpt lat="40.928880041465163" lon="-5.350659973919392">
        <ele>853.02499999999998</ele>
        <time>2021-07-09T17:28:48Z</time>
      </trkpt>
      <trkpt lat="40.928880041465163" lon="-5.343480035662651">
        <ele>852.02099999999996</ele>
        <time>2021-07-09T17:30:24Z</time>
      </trkpt>
      <trkpt lat="40.928920023143291" lon="-5.342870000749826">
        <ele>851.077</ele>
        <time>2021-07-09T17:30:32Z</time>
      </trkpt>
      <trkpt lat="40.928830001503229" lon="-5.339329987764359">
        <ele>849.02099999999996</ele>
        <time>2021-07-09T17:31:20Z</time>
      </trkpt>
      <trkpt lat="40.928630009293556" lon="-5.335879996418953">
        <ele>839.04100000000005</ele>
        <time>2021-07-09T17:32:06Z</time>
      </trkpt>
      <trkpt lat="40.928449966013432" lon="-5.331150004640222">
        <ele>833.005</ele>
        <time>2021-07-09T17:33:10Z</time>
      </trkpt>
      <trkpt lat="40.928200017660856" lon="-5.32583998516202">
        <ele>839.00800000000004</ele>
        <time>2021-07-09T17:34:22Z</time>
      </trkpt>
      <trkpt lat="40.928170010447502" lon="-5.324480021372438">
        <ele>837.03899999999999</ele>
        <time>2021-07-09T17:34:40Z</time>
      </trkpt>
      <trkpt lat="40.928119970485568" lon="-5.323430020362139">
        <ele>839.07899999999995</ele>
        <time>2021-07-09T17:34:54Z</time>
      </trkpt>
      <trkpt lat="40.928060039877892" lon="-5.322710014879704">
        <ele>840.04899999999998</ele>
        <time>2021-07-09T17:35:04Z</time>
      </trkpt>
      <trkpt lat="40.927959959954023" lon="-5.321980034932494">
        <ele>840.06799999999998</ele>
        <time>2021-07-09T17:35:14Z</time>
      </trkpt>
      <trkpt lat="40.927810007706285" lon="-5.321230022236705">
        <ele>838.06299999999999</ele>
        <time>2021-07-09T17:35:24Z</time>
      </trkpt>
      <trkpt lat="40.927259987220168" lon="-5.318860039114952">
        <ele>839.072</ele>
        <time>2021-07-09T17:35:58Z</time>
      </trkpt>
      <trkpt lat="40.926890010014176" lon="-5.317560005933046">
        <ele>839.05799999999999</ele>
        <time>2021-07-09T17:36:16Z</time>
      </trkpt>
      <trkpt lat="40.925840009003878" lon="-5.313650015741587">
        <ele>849.04399999999998</ele>
        <time>2021-07-09T17:37:12Z</time>
      </trkpt>
      <trkpt lat="40.925329970195889" lon="-5.311550013720989">
        <ele>853.02200000000005</ele>
        <time>2021-07-09T17:37:42Z</time>
      </trkpt>
      <trkpt lat="40.924409972503781" lon="-5.306829996407032">
        <ele>851.06200000000001</ele>
        <time>2021-07-09T17:38:47Z</time>
      </trkpt>
      <trkpt lat="40.924360016360879" lon="-5.306409979239106">
        <ele>852.00800000000004</ele>
        <time>2021-07-09T17:38:53Z</time>
      </trkpt>
      <trkpt lat="40.924369990825653" lon="-5.30587999150157">
        <ele>852.00800000000004</ele>
        <time>2021-07-09T17:39:00Z</time>
      </trkpt>
      <trkpt lat="40.924350041896105" lon="-5.305770020931959">
        <ele>852.03899999999999</ele>
        <time>2021-07-09T17:39:02Z</time>
      </trkpt>
      <trkpt lat="40.924079976975918" lon="-5.304959993809462">
        <ele>851.09900000000005</ele>
        <time>2021-07-09T17:39:13Z</time>
      </trkpt>
      <trkpt lat="40.923970006406307" lon="-5.304520027711988">
        <ele>852.07899999999995</ele>
        <time>2021-07-09T17:39:20Z</time>
      </trkpt>
      <trkpt lat="40.923349997028708" lon="-5.301379999145865">
        <ele>850.02800000000002</ele>
        <time>2021-07-09T17:40:03Z</time>
      </trkpt>
      <trkpt lat="40.921879978850484" lon="-5.294280024245381">
        <ele>857.01300000000003</ele>
        <time>2021-07-09T17:41:42Z</time>
      </trkpt>
      <trkpt lat="40.92101002112031" lon="-5.289920009672642">
        <ele>857.05200000000002</ele>
        <time>2021-07-09T17:42:43Z</time>
      </trkpt>
      <trkpt lat="40.919549977406859" lon="-5.282279988750815">
        <ele>853.05799999999999</ele>
        <time>2021-07-09T17:44:29Z</time>
      </trkpt>
      <trkpt lat="40.917979963123798" lon="-5.274399993941188">
        <ele>864.024</ele>
        <time>2021-07-09T17:46:18Z</time>
      </trkpt>
      <trkpt lat="40.91480003669858" lon="-5.258040027692914">
        <ele>870.09400000000005</ele>
        <time>2021-07-09T17:50:06Z</time>
      </trkpt>
      <trkpt lat="40.913750035688281" lon="-5.252960007637739">
        <ele>872.05700000000002</ele>
        <time>2021-07-09T17:51:16Z</time>
      </trkpt>
      <trkpt lat="40.912619987502694" lon="-5.247250003740192">
        <ele>875.02200000000005</ele>
        <time>2021-07-09T17:52:36Z</time>
      </trkpt>
      <trkpt lat="40.911339987069368" lon="-5.241010012105107">
        <ele>881.00800000000004</ele>
        <time>2021-07-09T17:54:03Z</time>
      </trkpt>
      <trkpt lat="40.909120040014386" lon="-5.229940032586455">
        <ele>890.02599999999995</ele>
        <time>2021-07-09T17:56:37Z</time>
      </trkpt>
      <trkpt lat="40.90897997841239" lon="-5.229150038212538">
        <ele>892.03599999999994</ele>
        <time>2021-07-09T17:56:48Z</time>
      </trkpt>
      <trkpt lat="40.908870007842779" lon="-5.228349985554814">
        <ele>891.05600000000004</ele>
        <time>2021-07-09T17:56:59Z</time>
      </trkpt>
      <trkpt lat="40.908800018951297" lon="-5.227550016716123">
        <ele>892.02499999999998</ele>
        <time>2021-07-09T17:57:09Z</time>
      </trkpt>
      <trkpt lat="40.908740004524589" lon="-5.226330030709505">
        <ele>893.08000000000004</ele>
        <time>2021-07-09T17:57:26Z</time>
      </trkpt>
      <trkpt lat="40.908400034531951" lon="-5.210510026663542">
        <ele>889.04899999999998</ele>
        <time>2021-07-09T18:00:59Z</time>
      </trkpt>
      <trkpt lat="40.908240024000406" lon="-5.205269996076822">
        <ele>890.07500000000005</ele>
        <time>2021-07-09T18:02:09Z</time>
      </trkpt>
      <trkpt lat="40.908129969611764" lon="-5.203420026227832">
        <ele>892.01099999999997</ele>
        <time>2021-07-09T18:02:34Z</time>
      </trkpt>
      <trkpt lat="40.908019999042153" lon="-5.202180007472634">
        <ele>894.01499999999999</ele>
        <time>2021-07-09T18:02:51Z</time>
      </trkpt>
      <trkpt lat="40.907659996300936" lon="-5.199429988861084">
        <ele>893.06500000000005</ele>
        <time>2021-07-09T18:03:28Z</time>
      </trkpt>
      <trkpt lat="40.907380040735006" lon="-5.197919989004731">
        <ele>895.01099999999997</ele>
        <time>2021-07-09T18:03:49Z</time>
      </trkpt>
      <trkpt lat="40.90635996311903" lon="-5.193159990012646">
        <ele>903.00800000000004</ele>
        <time>2021-07-09T18:04:56Z</time>
      </trkpt>
      <trkpt lat="40.906159970909357" lon="-5.192279973998666">
        <ele>905.05799999999999</ele>
        <time>2021-07-09T18:05:08Z</time>
      </trkpt>
      <trkpt lat="40.905689997598529" lon="-5.190539974719286">
        <ele>911.048</ele>
        <time>2021-07-09T18:05:33Z</time>
      </trkpt>
      <trkpt lat="40.905309962108731" lon="-5.189410010352731">
        <ele>912.048</ele>
        <time>2021-07-09T18:05:50Z</time>
      </trkpt>
      <trkpt lat="40.903269974514842" lon="-5.184180038049817">
        <ele>915.08699999999999</ele>
        <time>2021-07-09T18:07:09Z</time>
      </trkpt>
      <trkpt lat="40.901489993557334" lon="-5.17946002073586">
        <ele>922.09199999999998</ele>
        <time>2021-07-09T18:08:20Z</time>
      </trkpt>
      <trkpt lat="40.901129990816116" lon="-5.178289990872145">
        <ele>921.01099999999997</ele>
        <time>2021-07-09T18:08:37Z</time>
      </trkpt>
      <trkpt lat="40.900820028036833" lon="-5.177109986543655">
        <ele>917.03700000000003</ele>
        <time>2021-07-09T18:08:54Z</time>
      </trkpt>
      <trkpt lat="40.900520039722323" lon="-5.175609961152077">
        <ele>917.04300000000001</ele>
        <time>2021-07-09T18:09:14Z</time>
      </trkpt>
      <trkpt lat="40.900339996442199" lon="-5.174389975145459">
        <ele>916.07899999999995</ele>
        <time>2021-07-09T18:09:31Z</time>
      </trkpt>
      <trkpt lat="40.90017001144588" lon="-5.172849968075752">
        <ele>916.005</ele>
        <time>2021-07-09T18:09:52Z</time>
      </trkpt>
      <trkpt lat="40.899900030344725" lon="-5.169780012220144">
        <ele>910.02499999999998</ele>
        <time>2021-07-09T18:10:34Z</time>
      </trkpt>
      <trkpt lat="40.8997199870646" lon="-5.168240005150437">
        <ele>909.00800000000004</ele>
        <time>2021-07-09T18:10:55Z</time>
      </trkpt>
      <trkpt lat="40.899280020967126" lon="-5.163979986682534">
        <ele>911.07399999999996</ele>
        <time>2021-07-09T18:11:52Z</time>
      </trkpt>
      <trkpt lat="40.899139959365129" lon="-5.1630699634552">
        <ele>914.09400000000005</ele>
        <time>2021-07-09T18:12:05Z</time>
      </trkpt>
      <trkpt lat="40.898999981582165" lon="-5.162479961290956">
        <ele>915.08399999999995</ele>
        <time>2021-07-09T18:12:13Z</time>
      </trkpt>
      <trkpt lat="40.898739974945784" lon="-5.161630036309362">
        <ele>917.06299999999999</ele>
        <time>2021-07-09T18:12:26Z</time>
      </trkpt>
      <trkpt lat="40.898630004376173" lon="-5.1613499969244">
        <ele>917.03800000000001</ele>
        <time>2021-07-09T18:12:30Z</time>
      </trkpt>
      <trkpt lat="40.898400004953146" lon="-5.16081003472209">
        <ele>918.03700000000003</ele>
        <time>2021-07-09T18:12:38Z</time>
      </trkpt>
      <trkpt lat="40.898130023851991" lon="-5.160290021449328">
        <ele>918.01300000000003</ele>
        <time>2021-07-09T18:12:47Z</time>
      </trkpt>
      <trkpt lat="40.894880024716258" lon="-5.154629973694682">
        <ele>928.06899999999996</ele>
        <time>2021-07-09T18:14:22Z</time>
      </trkpt>
      <trkpt lat="40.891839992254972" lon="-5.149160027503967">
        <ele>929.08600000000001</ele>
        <time>2021-07-09T18:15:54Z</time>
      </trkpt>
      <trkpt lat="40.890499977394938" lon="-5.146809993311763">
        <ele>931.05999999999995</ele>
        <time>2021-07-09T18:16:33Z</time>
      </trkpt>
      <trkpt lat="40.890209963545203" lon="-5.146210016682744">
        <ele>930.02599999999995</ele>
        <time>2021-07-09T18:16:43Z</time>
      </trkpt>
      <trkpt lat="40.887909969314933" lon="-5.140920029953122">
        <ele>927.00800000000004</ele>
        <time>2021-07-09T18:18:05Z</time>
      </trkpt>
      <trkpt lat="40.887630013749003" lon="-5.140409991145134">
        <ele>927.09500000000003</ele>
        <time>2021-07-09T18:18:13Z</time>
      </trkpt>
      <trkpt lat="40.887119974941015" lon="-5.139780007302761">
        <ele>931.04499999999996</ele>
        <time>2021-07-09T18:18:26Z</time>
      </trkpt>
      <trkpt lat="40.886930041015148" lon="-5.139589989557862">
        <ele>933.02499999999998</ele>
        <time>2021-07-09T18:18:30Z</time>
      </trkpt>
      <trkpt lat="40.886550005525351" lon="-5.139280026778579">
        <ele>936.07399999999996</ele>
        <time>2021-07-09T18:18:38Z</time>
      </trkpt>
      <trkpt lat="40.886340038850904" lon="-5.139139965176582">
        <ele>937.08900000000006</ele>
        <time>2021-07-09T18:18:42Z</time>
      </trkpt>
      <trkpt lat="40.885190041735768" lon="-5.138579970225692">
        <ele>942.02800000000002</ele>
        <time>2021-07-09T18:19:04Z</time>
      </trkpt>
      <trkpt lat="40.884749991819263" lon="-5.138279981911182">
        <ele>944.08399999999995</ele>
        <time>2021-07-09T18:19:13Z</time>
      </trkpt>
      <trkpt lat="40.884310025721788" lon="-5.137910004705191">
        <ele>945.02999999999997</ele>
        <time>2021-07-09T18:19:22Z</time>
      </trkpt>
      <trkpt lat="40.884090000763535" lon="-5.137689979746938">
        <ele>946.09299999999996</ele>
        <time>2021-07-09T18:19:27Z</time>
      </trkpt>
      <trkpt lat="40.883680041879416" lon="-5.137189999222755">
        <ele>947.06500000000005</ele>
        <time>2021-07-09T18:19:37Z</time>
      </trkpt>
      <trkpt lat="40.883339988067746" lon="-5.136569989845157">
        <ele>947.02099999999996</ele>
        <time>2021-07-09T18:19:47Z</time>
      </trkpt>
      <trkpt lat="40.883039999753237" lon="-5.135900024324656">
        <ele>947.00800000000004</ele>
        <time>2021-07-09T18:19:58Z</time>
      </trkpt>
      <trkpt lat="40.882630040869117" lon="-5.134790008887649">
        <ele>945.01599999999996</ele>
        <time>2021-07-09T18:20:14Z</time>
      </trkpt>
      <trkpt lat="40.882370034232736" lon="-5.134039996191859">
        <ele>943.01599999999996</ele>
        <time>2021-07-09T18:20:25Z</time>
      </trkpt>
      <trkpt lat="40.881899977102876" lon="-5.132529996335506">
        <ele>940.06600000000003</ele>
        <time>2021-07-09T18:20:47Z</time>
      </trkpt>
      <trkpt lat="40.881390022113919" lon="-5.130680026486516">
        <ele>938.03499999999997</ele>
        <time>2021-07-09T18:21:14Z</time>
      </trkpt>
      <trkpt lat="40.881019961088896" lon="-5.129219982773066">
        <ele>935.04999999999995</ele>
        <time>2021-07-09T18:21:34Z</time>
      </trkpt>
      <trkpt lat="40.880319988355041" lon="-5.126770036295056">
        <ele>929.029</ele>
        <time>2021-07-09T18:22:10Z</time>
      </trkpt>
      <trkpt lat="40.877229999750853" lon="-5.116579988971353">
        <ele>957.06500000000005</ele>
        <time>2021-07-09T18:24:37Z</time>
      </trkpt>
      <trkpt lat="40.875680018216372" lon="-5.111640030518174">
        <ele>958.05100000000004</ele>
        <time>2021-07-09T18:25:49Z</time>
      </trkpt>
      <trkpt lat="40.875480026006699" lon="-5.110909966751933">
        <ele>960.06899999999996</ele>
        <time>2021-07-09T18:26:00Z</time>
      </trkpt>
      <trkpt lat="40.87531004101038" lon="-5.11017001233995">
        <ele>959.00400000000002</ele>
        <time>2021-07-09T18:26:10Z</time>
      </trkpt>
      <trkpt lat="40.875260001048446" lon="-5.109800035133958">
        <ele>959.024</ele>
        <time>2021-07-09T18:26:15Z</time>
      </trkpt>
      <trkpt lat="40.875220019370317" lon="-5.109069971367717">
        <ele>958.00800000000004</ele>
        <time>2021-07-09T18:26:25Z</time>
      </trkpt>
      <trkpt lat="40.875220019370317" lon="-5.108339991420507">
        <ele>958.09299999999996</ele>
        <time>2021-07-09T18:26:35Z</time>
      </trkpt>
      <trkpt lat="40.875329989939928" lon="-5.106479963287711">
        <ele>954.06299999999999</ele>
        <time>2021-07-09T18:27:00Z</time>
      </trkpt>
      <trkpt lat="40.875569963827729" lon="-5.103689962998033">
        <ele>951.053</ele>
        <time>2021-07-09T18:27:38Z</time>
      </trkpt>
      <trkpt lat="40.875589996576309" lon="-5.103029971942306">
        <ele>950.08199999999999</ele>
        <time>2021-07-09T18:27:47Z</time>
      </trkpt>
      <trkpt lat="40.875550014898181" lon="-5.102710034698248">
        <ele>950.077</ele>
        <time>2021-07-09T18:27:51Z</time>
      </trkpt>
      <trkpt lat="40.875629978254437" lon="-5.102030010893941">
        <ele>949.08600000000001</ele>
        <time>2021-07-09T18:28:00Z</time>
      </trkpt>
      <trkpt lat="40.875650011003017" lon="-5.101089980453253">
        <ele>948.08199999999999</ele>
        <time>2021-07-09T18:28:13Z</time>
      </trkpt>
      <trkpt lat="40.875640036538243" lon="-5.098620001226664">
        <ele>949.09799999999996</ele>
        <time>2021-07-09T18:28:46Z</time>
      </trkpt>
      <trkpt lat="40.875680018216372" lon="-5.09526003152132">
        <ele>948.08199999999999</ele>
        <time>2021-07-09T18:29:31Z</time>
      </trkpt>
      <trkpt lat="40.875940024852753" lon="-5.087699973955751">
        <ele>942.04300000000001</ele>
        <time>2021-07-09T18:31:13Z</time>
      </trkpt>
      <trkpt lat="40.875970032066107" lon="-5.08625996299088">
        <ele>940.01700000000005</ele>
        <time>2021-07-09T18:31:33Z</time>
      </trkpt>
      <trkpt lat="40.875959973782301" lon="-5.085160005837679">
        <ele>938.00800000000004</ele>
        <time>2021-07-09T18:31:47Z</time>
      </trkpt>
      <trkpt lat="40.87585000321269" lon="-5.083689987659454">
        <ele>937.05499999999995</ele>
        <time>2021-07-09T18:32:07Z</time>
      </trkpt>
      <trkpt lat="40.87526997551322" lon="-5.078119961544871">
        <ele>927.09500000000003</ele>
        <time>2021-07-09T18:33:23Z</time>
      </trkpt>
      <trkpt lat="40.874579977244139" lon="-5.071070026606321">
        <ele>914.07500000000005</ele>
        <time>2021-07-09T18:34:59Z</time>
      </trkpt>
      <trkpt lat="40.874530021101236" lon="-5.069809975102544">
        <ele>915.06399999999996</ele>
        <time>2021-07-09T18:35:16Z</time>
      </trkpt>
      <trkpt lat="40.87456002831459" lon="-5.06950001232326">
        <ele>917.09900000000005</ele>
        <time>2021-07-09T18:35:20Z</time>
      </trkpt>
      <trkpt lat="40.874679973348975" lon="-5.068889977410436">
        <ele>920.09799999999996</ele>
        <time>2021-07-09T18:35:28Z</time>
      </trkpt>
      <trkpt lat="40.874960012733936" lon="-5.067990012466908">
        <ele>923.05399999999997</ele>
        <time>2021-07-09T18:35:41Z</time>
      </trkpt>
      <trkpt lat="40.875120023265481" lon="-5.067370003089309">
        <ele>924.04999999999995</ele>
        <time>2021-07-09T18:35:50Z</time>
      </trkpt>
      <trkpt lat="40.875180037692189" lon="-5.067040007561445">
        <ele>925.06600000000003</ele>
        <time>2021-07-09T18:35:55Z</time>
      </trkpt>
      <trkpt lat="40.875499974936247" lon="-5.064259981736541">
        <ele>927.029</ele>
        <time>2021-07-09T18:36:33Z</time>
      </trkpt>
      <trkpt lat="40.875599971041083" lon="-5.062610004097223">
        <ele>933.02099999999996</ele>
        <time>2021-07-09T18:36:55Z</time>
      </trkpt>
      <trkpt lat="40.875689992681146" lon="-5.061710039153695">
        <ele>935.00800000000004</ele>
        <time>2021-07-09T18:37:07Z</time>
      </trkpt>
      <trkpt lat="40.875789988785982" lon="-5.061169993132353">
        <ele>936.06299999999999</ele>
        <time>2021-07-09T18:37:15Z</time>
      </trkpt>
      <trkpt lat="40.875949999317527" lon="-5.060700019821525">
        <ele>937.08299999999997</ele>
        <time>2021-07-09T18:37:21Z</time>
      </trkpt>
      <trkpt lat="40.876140017062426" lon="-5.060310009866953">
        <ele>938.04300000000001</ele>
        <time>2021-07-09T18:37:28Z</time>
      </trkpt>
      <trkpt lat="40.876440005376935" lon="-5.059840036556125">
        <ele>940.03200000000004</ele>
        <time>2021-07-09T18:37:36Z</time>
      </trkpt>
      <trkpt lat="40.876670004799962" lon="-5.059590004384518">
        <ele>942.03700000000003</ele>
        <time>2021-07-09T18:37:41Z</time>
      </trkpt>
      <trkpt lat="40.877420017495751" lon="-5.058900006115437">
        <ele>944.08600000000001</ele>
        <time>2021-07-09T18:37:58Z</time>
      </trkpt>
      <trkpt lat="40.877529988065362" lon="-5.05877997726202">
        <ele>944.05200000000002</ele>
        <time>2021-07-09T18:38:00Z</time>
      </trkpt>
      <trkpt lat="40.877699973061681" lon="-5.058509996160865">
        <ele>944.02800000000002</ele>
        <time>2021-07-09T18:38:05Z</time>
      </trkpt>
      <trkpt lat="40.877859983593225" lon="-5.058129960671067">
        <ele>944.03599999999994</ele>
        <time>2021-07-09T18:38:11Z</time>
      </trkpt>
      <trkpt lat="40.877929972484708" lon="-5.057889986783266">
        <ele>944.01700000000005</ele>
        <time>2021-07-09T18:38:14Z</time>
      </trkpt>
      <trkpt lat="40.87799996137619" lon="-5.057520009577274">
        <ele>944.01800000000003</ele>
        <time>2021-07-09T18:38:19Z</time>
      </trkpt>
      <trkpt lat="40.87801999412477" lon="-5.057260002940893">
        <ele>944.00800000000004</ele>
        <time>2021-07-09T18:38:23Z</time>
      </trkpt>
      <trkpt lat="40.877980012446642" lon="-5.056920032948256">
        <ele>943.01999999999998</ele>
        <time>2021-07-09T18:38:27Z</time>
      </trkpt>
      <trkpt lat="40.877880016341805" lon="-5.056739989668131">
        <ele>943.02999999999997</ele>
        <time>2021-07-09T18:38:30Z</time>
      </trkpt>
      <trkpt lat="40.877680024132133" lon="-5.05647998303175">
        <ele>942.01999999999998</ele>
        <time>2021-07-09T18:38:35Z</time>
      </trkpt>
      <trkpt lat="40.877559995278716" lon="-5.056110005825758">
        <ele>942.01900000000001</ele>
        <time>2021-07-09T18:38:41Z</time>
      </trkpt>
      <trkpt lat="40.877390010282397" lon="-5.055919988080859">
        <ele>942.09400000000005</ele>
        <time>2021-07-09T18:38:45Z</time>
      </trkpt>
      <trkpt lat="40.876679979264736" lon="-5.055510029196739">
        <ele>941.06299999999999</ele>
        <time>2021-07-09T18:38:59Z</time>
      </trkpt>
      <trkpt lat="40.876549975946546" lon="-5.055459989234805">
        <ele>941.04899999999998</ele>
        <time>2021-07-09T18:39:01Z</time>
      </trkpt>
      <trkpt lat="40.876479987055063" lon="-5.055450014770031">
        <ele>941.07500000000005</ele>
        <time>2021-07-09T18:39:02Z</time>
      </trkpt>
      <trkpt lat="40.87617002427578" lon="-5.055569959804416">
        <ele>941.05600000000004</ele>
        <time>2021-07-09T18:39:08Z</time>
      </trkpt>
      <trkpt lat="40.876000039279461" lon="-5.055569959804416">
        <ele>941.05899999999997</ele>
        <time>2021-07-09T18:39:11Z</time>
      </trkpt>
      <trkpt lat="40.875840028747916" lon="-5.055459989234805">
        <ele>941.01400000000001</ele>
        <time>2021-07-09T18:39:14Z</time>
      </trkpt>
      <trkpt lat="40.875780014321208" lon="-5.055359993129969">
        <ele>942.00800000000004</ele>
        <time>2021-07-09T18:39:16Z</time>
      </trkpt>
      <trkpt lat="40.875729974359274" lon="-5.055090012028813">
        <ele>942.02200000000005</ele>
        <time>2021-07-09T18:39:20Z</time>
      </trkpt>
      <trkpt lat="40.875810021534562" lon="-5.054809972643852">
        <ele>942.04200000000003</ele>
        <time>2021-07-09T18:39:24Z</time>
      </trkpt>
      <trkpt lat="40.876029962673783" lon="-5.054419962689281">
        <ele>942.04200000000003</ele>
        <time>2021-07-09T18:39:30Z</time>
      </trkpt>
      <trkpt lat="40.876070028170943" lon="-5.054260035976768">
        <ele>941.07100000000003</ele>
        <time>2021-07-09T18:39:32Z</time>
      </trkpt>
      <trkpt lat="40.87625996209681" lon="-5.052790017798543">
        <ele>944.08600000000001</ele>
        <time>2021-07-09T18:39:53Z</time>
      </trkpt>
      <trkpt lat="40.876570008695126" lon="-5.049449997022748">
        <ele>943.05499999999995</ele>
        <time>2021-07-09T18:40:38Z</time>
      </trkpt>
      <trkpt lat="40.876739993691444" lon="-5.04721999168396">
        <ele>944.06100000000004</ele>
        <time>2021-07-09T18:41:08Z</time>
      </trkpt>
      <trkpt lat="40.877169985324144" lon="-5.040180031210184">
        <ele>948.04700000000003</ele>
        <time>2021-07-09T18:42:43Z</time>
      </trkpt>
      <trkpt lat="40.87713997811079" lon="-5.039439992979169">
        <ele>946.03099999999995</ele>
        <time>2021-07-09T18:42:53Z</time>
      </trkpt>
      <trkpt lat="40.877090021967888" lon="-5.039049983024597">
        <ele>946.06100000000004</ele>
        <time>2021-07-09T18:42:58Z</time>
      </trkpt>
      <trkpt lat="40.876770000904799" lon="-5.03707998432219">
        <ele>940.00699999999995</ele>
        <time>2021-07-09T18:43:25Z</time>
      </trkpt>
      <trkpt lat="40.875320015475154" lon="-5.028409995138645">
        <ele>941.00800000000004</ele>
        <time>2021-07-09T18:45:25Z</time>
      </trkpt>
      <trkpt lat="40.875180037692189" lon="-5.027670040726662">
        <ele>941.03999999999996</ele>
        <time>2021-07-09T18:45:35Z</time>
      </trkpt>
      <trkpt lat="40.874899998307228" lon="-5.026569999754429">
        <ele>940.09000000000003</ele>
        <time>2021-07-09T18:45:51Z</time>
      </trkpt>
      <trkpt lat="40.874509988352656" lon="-5.025489991530776">
        <ele>941.07000000000005</ele>
        <time>2021-07-09T18:46:07Z</time>
      </trkpt>
      <trkpt lat="40.874040015041828" lon="-5.024439990520477">
        <ele>941.06899999999996</ele>
        <time>2021-07-09T18:46:23Z</time>
      </trkpt>
      <trkpt lat="40.87352997623384" lon="-5.023429971188307">
        <ele>938.03399999999999</ele>
        <time>2021-07-09T18:46:40Z</time>
      </trkpt>
      <trkpt lat="40.870969975367188" lon="-5.018580034375191">
        <ele>940.04300000000001</ele>
        <time>2021-07-09T18:47:59Z</time>
      </trkpt>
      <trkpt lat="40.869299964979291" lon="-5.015289969742298">
        <ele>945.01900000000001</ele>
        <time>2021-07-09T18:48:52Z</time>
      </trkpt>
      <trkpt lat="40.869010034948587" lon="-5.014610029757023">
        <ele>942.04499999999996</ele>
        <time>2021-07-09T18:49:03Z</time>
      </trkpt>
      <trkpt lat="40.86833001114428" lon="-5.012429980561137">
        <ele>932.08799999999997</ele>
        <time>2021-07-09T18:49:35Z</time>
      </trkpt>
      <trkpt lat="40.867930026724935" lon="-5.010949987918139">
        <ele>931.024</ele>
        <time>2021-07-09T18:49:56Z</time>
      </trkpt>
      <trkpt lat="40.867860037833452" lon="-5.010580010712147">
        <ele>931.02599999999995</ele>
        <time>2021-07-09T18:50:01Z</time>
      </trkpt>
      <trkpt lat="40.86777001619339" lon="-5.009850030764937">
        <ele>932.00800000000004</ele>
        <time>2021-07-09T18:50:11Z</time>
      </trkpt>
      <trkpt lat="40.86774998344481" lon="-5.009089959785342">
        <ele>933.02499999999998</ele>
        <time>2021-07-09T18:50:21Z</time>
      </trkpt>
      <trkpt lat="40.86777001619339" lon="-5.008710008114576">
        <ele>933.03499999999997</ele>
        <time>2021-07-09T18:50:26Z</time>
      </trkpt>
      <trkpt lat="40.868049971759319" lon="-5.006020003929734">
        <ele>931.09500000000003</ele>
        <time>2021-07-09T18:51:03Z</time>
      </trkpt>
      <trkpt lat="40.868049971759319" lon="-5.005260016769171">
        <ele>929.024</ele>
        <time>2021-07-09T18:51:13Z</time>
      </trkpt>
      <trkpt lat="40.867979982867837" lon="-5.004510004073381">
        <ele>927.08900000000006</ele>
        <time>2021-07-09T18:51:23Z</time>
      </trkpt>
      <trkpt lat="40.867740008980036" lon="-5.003360006958246">
        <ele>926.08799999999997</ele>
        <time>2021-07-09T18:51:39Z</time>
      </trkpt>
      <trkpt lat="40.866850018501282" lon="-4.99975997954607">
        <ele>922.03399999999999</ele>
        <time>2021-07-09T18:52:30Z</time>
      </trkpt>
      <trkpt lat="40.86600998416543" lon="-4.99713996425271">
        <ele>919.09000000000003</ele>
        <time>2021-07-09T18:53:09Z</time>
      </trkpt>
      <trkpt lat="40.865890039131045" lon="-4.996790019795299">
        <ele>918.024</ele>
        <time>2021-07-09T18:53:14Z</time>
      </trkpt>
      <trkpt lat="40.865609999746084" lon="-4.996130028739572">
        <ele>915.00400000000002</ele>
        <time>2021-07-09T18:53:24Z</time>
      </trkpt>
      <trkpt lat="40.86544998921454" lon="-4.995810007676482">
        <ele>913.01400000000001</ele>
        <time>2021-07-09T18:53:29Z</time>
      </trkpt>
      <trkpt lat="40.865080012008548" lon="-4.995220005512238">
        <ele>912.00800000000004</ele>
        <time>2021-07-09T18:53:39Z</time>
      </trkpt>
      <trkpt lat="40.86255001835525" lon="-4.991579996421933">
        <ele>913.07899999999995</ele>
        <time>2021-07-09T18:54:46Z</time>
      </trkpt>
      <trkpt lat="40.861400021240115" lon="-4.989849971607328">
        <ele>919.06899999999996</ele>
        <time>2021-07-09T18:55:17Z</time>
      </trkpt>
      <trkpt lat="40.861059967428446" lon="-4.989289976656437">
        <ele>921.07899999999995</ele>
        <time>2021-07-09T18:55:27Z</time>
      </trkpt>
      <trkpt lat="40.860780011862516" lon="-4.988720007240772">
        <ele>923.048</ele>
        <time>2021-07-09T18:55:36Z</time>
      </trkpt>
      <trkpt lat="40.860540037974715" lon="-4.988099997863174">
        <ele>926.04300000000001</ele>
        <time>2021-07-09T18:55:45Z</time>
      </trkpt>
      <trkpt lat="40.860339961946011" lon="-4.987440006807447">
        <ele>932.06200000000001</ele>
        <time>2021-07-09T18:55:55Z</time>
      </trkpt>
      <trkpt lat="40.860169976949692" lon="-4.98675998300314">
        <ele>936.01800000000003</ele>
        <time>2021-07-09T18:56:04Z</time>
      </trkpt>
      <trkpt lat="40.859600007534027" lon="-4.984329985454679">
        <ele>952.024</ele>
        <time>2021-07-09T18:56:38Z</time>
      </trkpt>
      <trkpt lat="40.859209997579455" lon="-4.983349973335862">
        <ele>953.048</ele>
        <time>2021-07-09T18:56:53Z</time>
      </trkpt>
      <trkpt lat="40.858329981565475" lon="-4.981500003486872">
        <ele>953.06100000000004</ele>
        <time>2021-07-09T18:57:23Z</time>
      </trkpt>
      <trkpt lat="40.856889970600605" lon="-4.978700028732419">
        <ele>958.01700000000005</ele>
        <time>2021-07-09T18:58:08Z</time>
      </trkpt>
      <trkpt lat="40.855109989643097" lon="-4.975150041282177">
        <ele>960.00800000000004</ele>
        <time>2021-07-09T18:59:06Z</time>
      </trkpt>
      <trkpt lat="40.852040033787489" lon="-4.968909965828061">
        <ele>960.09100000000001</ele>
        <time>2021-07-09T19:00:46Z</time>
      </trkpt>
      <trkpt lat="40.84923000074923" lon="-4.96334002353251">
        <ele>960.08100000000002</ele>
        <time>2021-07-09T19:02:16Z</time>
      </trkpt>
      <trkpt lat="40.84909999743104" lon="-4.963089991360903">
        <ele>960.07100000000003</ele>
        <time>2021-07-09T19:02:20Z</time>
      </trkpt>
      <trkpt lat="40.848860023543239" lon="-4.962769970297813">
        <ele>960.00999999999999</ele>
        <time>2021-07-09T19:02:26Z</time>
      </trkpt>
      <trkpt lat="40.848770001903176" lon="-4.962580036371946">
        <ele>960.07500000000005</ele>
        <time>2021-07-09T19:02:29Z</time>
      </trkpt>
      <trkpt lat="40.848700013011694" lon="-4.962330004200339">
        <ele>960.03399999999999</ele>
        <time>2021-07-09T19:02:33Z</time>
      </trkpt>
      <trkpt lat="40.848489962518215" lon="-4.961849972605705">
        <ele>960.02999999999997</ele>
        <time>2021-07-09T19:02:40Z</time>
      </trkpt>
      <trkpt lat="40.84794002585113" lon="-4.960680026561022">
        <ele>961.06600000000003</ele>
        <time>2021-07-09T19:02:59Z</time>
      </trkpt>
      <trkpt lat="40.846530022099614" lon="-4.957890026271343">
        <ele>962.03399999999999</ele>
        <time>2021-07-09T19:03:44Z</time>
      </trkpt>
      <trkpt lat="40.845959968864918" lon="-4.957100031897426">
        <ele>959.05499999999995</ele>
        <time>2021-07-09T19:03:59Z</time>
      </trkpt>
      <trkpt lat="40.84551002830267" lon="-4.956599967554212">
        <ele>957.00999999999999</ele>
        <time>2021-07-09T19:04:09Z</time>
      </trkpt>
      <trkpt lat="40.844560023397207" lon="-4.955569999292493">
        <ele>953.00800000000004</ele>
        <time>2021-07-09T19:04:31Z</time>
      </trkpt>
      <trkpt lat="40.843580011278391" lon="-4.954570038244128">
        <ele>953.02999999999997</ele>
        <time>2021-07-09T19:04:53Z</time>
      </trkpt>
      <trkpt lat="40.841399962082505" lon="-4.952259985730052">
        <ele>954.05999999999995</ele>
        <time>2021-07-09T19:05:43Z</time>
      </trkpt>
      <trkpt lat="40.838650027289987" lon="-4.949279967695475">
        <ele>949.07000000000005</ele>
        <time>2021-07-09T19:06:46Z</time>
      </trkpt>
      <trkpt lat="40.836650021374226" lon="-4.947069995105267">
        <ele>961.01900000000001</ele>
        <time>2021-07-09T19:07:32Z</time>
      </trkpt>
      <trkpt lat="40.836450029164553" lon="-4.94681996293366">
        <ele>960.05399999999997</ele>
        <time>2021-07-09T19:07:37Z</time>
      </trkpt>
      <trkpt lat="40.836100000888109" lon="-4.946280000731349">
        <ele>959.08299999999997</ele>
        <time>2021-07-09T19:07:47Z</time>
      </trkpt>
      <trkpt lat="40.835939990356565" lon="-4.945970037952066">
        <ele>958.04899999999998</ele>
        <time>2021-07-09T19:07:52Z</time>
      </trkpt>
      <trkpt lat="40.83302996121347" lon="-4.939800035208464">
        <ele>946.04499999999996</ele>
        <time>2021-07-09T19:09:30Z</time>
      </trkpt>
      <trkpt lat="40.827720025554299" lon="-4.928699964657426">
        <ele>941.09799999999996</ele>
        <time>2021-07-09T19:12:27Z</time>
      </trkpt>
      <trkpt lat="40.827160030603409" lon="-4.92728996090591">
        <ele>939.01499999999999</ele>
        <time>2021-07-09T19:12:48Z</time>
      </trkpt>
      <trkpt lat="40.824679993093014" lon="-4.920110022649169">
        <ele>930.02599999999995</ele>
        <time>2021-07-09T19:14:34Z</time>
      </trkpt>
      <trkpt lat="40.823999969288707" lon="-4.91845996119082">
        <ele>926.00800000000004</ele>
        <time>2021-07-09T19:15:00Z</time>
      </trkpt>
      <trkpt lat="40.821610037237406" lon="-4.91328002884984">
        <ele>920.02599999999995</ele>
        <time>2021-07-09T19:16:21Z</time>
      </trkpt>
      <trkpt lat="40.819239970296621" lon="-4.908260023221374">
        <ele>915.04600000000005</ele>
        <time>2021-07-09T19:17:41Z</time>
      </trkpt>
      <trkpt lat="40.816000029444695" lon="-4.901289967820048">
        <ele>916.05600000000004</ele>
        <time>2021-07-09T19:19:31Z</time>
      </trkpt>
      <trkpt lat="40.81453001126647" lon="-4.898039968684316">
        <ele>920.02499999999998</ele>
        <time>2021-07-09T19:20:22Z</time>
      </trkpt>
      <trkpt lat="40.811919970437884" lon="-4.892530040815473">
        <ele>923.08000000000004</ele>
        <time>2021-07-09T19:21:50Z</time>
      </trkpt>
      <trkpt lat="40.809559961780906" lon="-4.887359999120235">
        <ele>926.03899999999999</ele>
        <time>2021-07-09T19:23:11Z</time>
      </trkpt>
      <trkpt lat="40.806850008666515" lon="-4.881580006331205">
        <ele>929.04499999999996</ele>
        <time>2021-07-09T19:24:42Z</time>
      </trkpt>
      <trkpt lat="40.802099984139204" lon="-4.871309995651245">
        <ele>937.02099999999996</ele>
        <time>2021-07-09T19:27:25Z</time>
      </trkpt>
      <trkpt lat="40.801960006356239" lon="-4.870970025658608">
        <ele>937.06899999999996</ele>
        <time>2021-07-09T19:27:30Z</time>
      </trkpt>
      <trkpt lat="40.801539989188313" lon="-4.869439993053675">
        <ele>938.00400000000002</ele>
        <time>2021-07-09T19:27:52Z</time>
      </trkpt>
      <trkpt lat="40.801330022513866" lon="-4.867730000987649">
        <ele>934.024</ele>
        <time>2021-07-09T19:28:15Z</time>
      </trkpt>
      <trkpt lat="40.801179986447096" lon="-4.867019969969988">
        <ele>933.00800000000004</ele>
        <time>2021-07-09T19:28:25Z</time>
      </trkpt>
      <trkpt lat="40.801030034199357" lon="-4.86652996391058">
        <ele>934.04300000000001</ele>
        <time>2021-07-09T19:28:32Z</time>
      </trkpt>
      <trkpt lat="40.800659973174334" lon="-4.865809958428145">
        <ele>937.09299999999996</ele>
        <time>2021-07-09T19:28:44Z</time>
      </trkpt>
      <trkpt lat="40.800090003758669" lon="-4.865109985694289">
        <ele>941.01300000000003</ele>
        <time>2021-07-09T19:28:58Z</time>
      </trkpt>
      <trkpt lat="40.799660012125969" lon="-4.864670019596815">
        <ele>945.08199999999999</ele>
        <time>2021-07-09T19:29:07Z</time>
      </trkpt>
      <trkpt lat="40.799200013279915" lon="-4.864259976893663">
        <ele>949.08699999999999</ele>
        <time>2021-07-09T19:29:17Z</time>
      </trkpt>
      <trkpt lat="40.796979982405901" lon="-4.862849973142147">
        <ele>960.08600000000001</ele>
        <time>2021-07-09T19:30:01Z</time>
      </trkpt>
      <trkpt lat="40.796789964661002" lon="-4.862670013681054">
        <ele>961.072</ele>
        <time>2021-07-09T19:30:05Z</time>
      </trkpt>
      <trkpt lat="40.796449994668365" lon="-4.862240022048354">
        <ele>963.05799999999999</ele>
        <time>2021-07-09T19:30:13Z</time>
      </trkpt>
      <trkpt lat="40.796159980818629" lon="-4.861740041524172">
        <ele>965.07500000000005</ele>
        <time>2021-07-09T19:30:22Z</time>
      </trkpt>
      <trkpt lat="40.795850018039346" lon="-4.86087997443974">
        <ele>970.02800000000002</ele>
        <time>2021-07-09T19:30:35Z</time>
      </trkpt>
      <trkpt lat="40.795509964227676" lon="-4.860029965639114">
        <ele>976.01999999999998</ele>
        <time>2021-07-09T19:30:48Z</time>
      </trkpt>
      <trkpt lat="40.79454998485744" lon="-4.858179995790124">
        <ele>984.00800000000004</ele>
        <time>2021-07-09T19:31:18Z</time>
      </trkpt>
      <trkpt lat="40.794259971007705" lon="-4.857689989730716">
        <ele>985.07399999999996</ele>
        <time>2021-07-09T19:31:26Z</time>
      </trkpt>
      <trkpt lat="40.792080005630851" lon="-4.854609975591302">
        <ele>993.04399999999998</ele>
        <time>2021-07-09T19:32:23Z</time>
      </trkpt>
      <trkpt lat="40.791339967399836" lon="-4.853499960154295">
        <ele>995.06399999999996</ele>
        <time>2021-07-09T19:32:43Z</time>
      </trkpt>
      <trkpt lat="40.78834000043571" lon="-4.849140029400587">
        <ele>1005.073</ele>
        <time>2021-07-09T19:34:02Z</time>
      </trkpt>
      <trkpt lat="40.787740023806691" lon="-4.848079970106483">
        <ele>1003.028</ele>
        <time>2021-07-09T19:34:20Z</time>
      </trkpt>
      <trkpt lat="40.784040000289679" lon="-4.842259995639324">
        <ele>1006.057</ele>
        <time>2021-07-09T19:36:03Z</time>
      </trkpt>
      <trkpt lat="40.783800026401877" lon="-4.84166999347508">
        <ele>1006.053</ele>
        <time>2021-07-09T19:36:12Z</time>
      </trkpt>
      <trkpt lat="40.782910035923123" lon="-4.838900025933981">
        <ele>1006.029</ele>
        <time>2021-07-09T19:36:52Z</time>
      </trkpt>
      <trkpt lat="40.782729992642999" lon="-4.838629961013794">
        <ele>1006.047</ele>
        <time>2021-07-09T19:36:57Z</time>
      </trkpt>
      <trkpt lat="40.782469986006618" lon="-4.838480008766055">
        <ele>1006.029</ele>
        <time>2021-07-09T19:37:02Z</time>
      </trkpt>
      <trkpt lat="40.781300039961934" lon="-4.838199969381094">
        <ele>1003.021</ele>
        <time>2021-07-09T19:37:23Z</time>
      </trkpt>
      <trkpt lat="40.781070040538907" lon="-4.838089998811483">
        <ele>1003.008</ele>
        <time>2021-07-09T19:37:28Z</time>
      </trkpt>
      <trkpt lat="40.780969960615039" lon="-4.838010035455227">
        <ele>1003.081</ele>
        <time>2021-07-09T19:37:30Z</time>
      </trkpt>
      <trkpt lat="40.780729986727238" lon="-4.837639974430203">
        <ele>1001.021</ele>
        <time>2021-07-09T19:37:36Z</time>
      </trkpt>
      <trkpt lat="40.779630029574037" lon="-4.835369987413287">
        <ele>992.03099999999995</ele>
        <time>2021-07-09T19:38:13Z</time>
      </trkpt>
      <trkpt lat="40.7791000418365" lon="-4.834340019151568">
        <ele>1000.08</ele>
        <time>2021-07-09T19:38:29Z</time>
      </trkpt>
      <trkpt lat="40.778699973598123" lon="-4.83372000977397">
        <ele>1004.0549999999999</ele>
        <time>2021-07-09T19:38:40Z</time>
      </trkpt>
      <trkpt lat="40.778269981965423" lon="-4.833150040358305">
        <ele>1006.0940000000001</ele>
        <time>2021-07-09T19:38:51Z</time>
      </trkpt>
      <trkpt lat="40.777839990332723" lon="-4.832679983228445">
        <ele>1008.02</ele>
        <time>2021-07-09T19:39:01Z</time>
      </trkpt>
      <trkpt lat="40.777370017021894" lon="-4.832310006022453">
        <ele>1013.096</ele>
        <time>2021-07-09T19:39:11Z</time>
      </trkpt>
      <trkpt lat="40.776870036497712" lon="-4.832010017707944">
        <ele>1017.016</ele>
        <time>2021-07-09T19:39:21Z</time>
      </trkpt>
      <trkpt lat="40.776520008221269" lon="-4.831840032711625">
        <ele>1019.076</ele>
        <time>2021-07-09T19:39:27Z</time>
      </trkpt>
      <trkpt lat="40.775579977780581" lon="-4.831459997221828">
        <ele>1026.0129999999999</ele>
        <time>2021-07-09T19:39:45Z</time>
      </trkpt>
      <trkpt lat="40.773990014567971" lon="-4.830939983949065">
        <ele>1033.008</ele>
        <time>2021-07-09T19:40:14Z</time>
      </trkpt>
      <trkpt lat="40.771300010383129" lon="-4.829970030114055">
        <ele>1048.038</ele>
        <time>2021-07-09T19:41:03Z</time>
      </trkpt>
      <trkpt lat="40.77057003043592" lon="-4.829670041799545">
        <ele>1049.048</ele>
        <time>2021-07-09T19:41:17Z</time>
      </trkpt>
      <trkpt lat="40.770050017163157" lon="-4.829399976879358">
        <ele>1049.048</ele>
        <time>2021-07-09T19:41:27Z</time>
      </trkpt>
      <trkpt lat="40.769720021635294" lon="-4.829199984669685">
        <ele>1051.097</ele>
        <time>2021-07-09T19:41:33Z</time>
      </trkpt>
      <trkpt lat="40.769230015575886" lon="-4.828809974715114">
        <ele>1054.0319999999999</ele>
        <time>2021-07-09T19:41:44Z</time>
      </trkpt>
      <trkpt lat="40.768909994512796" lon="-4.828470004722476">
        <ele>1056.0809999999999</ele>
        <time>2021-07-09T19:41:51Z</time>
      </trkpt>
      <trkpt lat="40.768459970131516" lon="-4.82791998423636">
        <ele>1056.047</ele>
        <time>2021-07-09T19:42:02Z</time>
      </trkpt>
      <trkpt lat="40.768180014565587" lon="-4.82746995985508">
        <ele>1055.0530000000001</ele>
        <time>2021-07-09T19:42:10Z</time>
      </trkpt>
      <trkpt lat="40.767920007929206" lon="-4.826939972117543">
        <ele>1055.088</ele>
        <time>2021-07-09T19:42:18Z</time>
      </trkpt>
      <trkpt lat="40.767669975757599" lon="-4.82633002102375">
        <ele>1056.0239999999999</ele>
        <time>2021-07-09T19:42:28Z</time>
      </trkpt>
      <trkpt lat="40.765429995954037" lon="-4.81997000053525">
        <ele>1073.0260000000001</ele>
        <time>2021-07-09T19:44:02Z</time>
      </trkpt>
      <trkpt lat="40.764359962195158" lon="-4.816829971969128">
        <ele>1075.008</ele>
        <time>2021-07-09T19:44:49Z</time>
      </trkpt>
      <trkpt lat="40.763120027258992" lon="-4.813430020585656">
        <ele>1061.0150000000001</ele>
        <time>2021-07-09T19:45:39Z</time>
      </trkpt>
      <trkpt lat="40.762639995664358" lon="-4.812510022893548">
        <ele>1058.0450000000001</ele>
        <time>2021-07-09T19:45:54Z</time>
      </trkpt>
      <trkpt lat="40.761589994654059" lon="-4.810749990865588">
        <ele>1045.0450000000001</ele>
        <time>2021-07-09T19:46:25Z</time>
      </trkpt>
      <trkpt lat="40.761199984699488" lon="-4.810229977592826">
        <ele>1043.0940000000001</ele>
        <time>2021-07-09T19:46:34Z</time>
      </trkpt>
      <trkpt lat="40.760979959741235" lon="-4.809999978169799">
        <ele>1043.019</ele>
        <time>2021-07-09T19:46:39Z</time>
      </trkpt>
      <trkpt lat="40.760739985853434" lon="-4.809799985960126">
        <ele>1042.028</ele>
        <time>2021-07-09T19:46:45Z</time>
      </trkpt>
      <trkpt lat="40.760240005329251" lon="-4.809460015967488">
        <ele>1043.0540000000001</ele>
        <time>2021-07-09T19:46:55Z</time>
      </trkpt>
      <trkpt lat="40.759429978206754" lon="-4.808960035443306">
        <ele>1041.01</ele>
        <time>2021-07-09T19:47:10Z</time>
      </trkpt>
      <trkpt lat="40.758270006626844" lon="-4.808289986103773">
        <ele>1034.0260000000001</ele>
        <time>2021-07-09T19:47:33Z</time>
      </trkpt>
      <trkpt lat="40.754910036921501" lon="-4.806440016254783">
        <ele>1052.047</ele>
        <time>2021-07-09T19:48:38Z</time>
      </trkpt>
      <trkpt lat="40.754369990900159" lon="-4.806210016831756">
        <ele>1055.011</ele>
        <time>2021-07-09T19:48:48Z</time>
      </trkpt>
      <trkpt lat="40.75246000662446" lon="-4.805569974705577">
        <ele>1066.008</ele>
        <time>2021-07-09T19:49:23Z</time>
      </trkpt>
      <trkpt lat="40.751939993351698" lon="-4.805330000817776">
        <ele>1065.049</ele>
        <time>2021-07-09T19:49:33Z</time>
      </trkpt>
      <trkpt lat="40.751689961180091" lon="-4.805179964751005">
        <ele>1065.019</ele>
        <time>2021-07-09T19:49:38Z</time>
      </trkpt>
      <trkpt lat="40.751200038939714" lon="-4.804819962009788">
        <ele>1062.059</ele>
        <time>2021-07-09T19:49:48Z</time>
      </trkpt>
      <trkpt lat="40.750759989023209" lon="-4.804400028660893">
        <ele>1057.058</ele>
        <time>2021-07-09T19:49:57Z</time>
      </trkpt>
      <trkpt lat="40.750329997390509" lon="-4.803940029814839">
        <ele>1053.0830000000001</ele>
        <time>2021-07-09T19:50:07Z</time>
      </trkpt>
      <trkpt lat="40.749920038506389" lon="-4.803399983793497">
        <ele>1048.0820000000001</ele>
        <time>2021-07-09T19:50:17Z</time>
      </trkpt>
      <trkpt lat="40.74973002076149" lon="-4.803090021014214">
        <ele>1045.068</ele>
        <time>2021-07-09T19:50:23Z</time>
      </trkpt>
      <trkpt lat="40.74887003749609" lon="-4.801489999517798">
        <ele>1042.0740000000001</ele>
        <time>2021-07-09T19:50:49Z</time>
      </trkpt>
      <trkpt lat="40.748640038073063" lon="-4.799829963594675">
        <ele>1051.069</ele>
        <time>2021-07-09T19:51:12Z</time>
      </trkpt>
      <trkpt lat="40.748589998111129" lon="-4.79824997484684">
        <ele>1053.0039999999999</ele>
        <time>2021-07-09T19:51:33Z</time>
      </trkpt>
      <trkpt lat="40.748510034754872" lon="-4.797510020434856">
        <ele>1056.0239999999999</ele>
        <time>2021-07-09T19:51:43Z</time>
      </trkpt>
      <trkpt lat="40.748439962044358" lon="-4.797139959409833">
        <ele>1058.008</ele>
        <time>2021-07-09T19:51:48Z</time>
      </trkpt>
      <trkpt lat="40.748250028118491" lon="-4.796469993889332">
        <ele>1062.0730000000001</ele>
        <time>2021-07-09T19:51:58Z</time>
      </trkpt>
      <trkpt lat="40.74799002148211" lon="-4.795810002833605">
        <ele>1065.0530000000001</ele>
        <time>2021-07-09T19:52:08Z</time>
      </trkpt>
      <trkpt lat="40.747490040957928" lon="-4.794920012354851">
        <ele>1071.0329999999999</ele>
        <time>2021-07-09T19:52:23Z</time>
      </trkpt>
      <trkpt lat="40.747119979932904" lon="-4.794399999082089">
        <ele>1075.0419999999999</ele>
        <time>2021-07-09T19:52:33Z</time>
      </trkpt>
      <trkpt lat="40.746699962764978" lon="-4.793979981914163">
        <ele>1077.087</ele>
        <time>2021-07-09T19:52:42Z</time>
      </trkpt>
      <trkpt lat="40.745809972286224" lon="-4.793229969218373">
        <ele>1082.046</ele>
        <time>2021-07-09T19:53:01Z</time>
      </trkpt>
      <trkpt lat="40.745330024510622" lon="-4.792889999225736">
        <ele>1087.0619999999999</ele>
        <time>2021-07-09T19:53:11Z</time>
      </trkpt>
      <trkpt lat="40.744840018451214" lon="-4.792599985376">
        <ele>1091.068</ele>
        <time>2021-07-09T19:53:20Z</time>
      </trkpt>
      <trkpt lat="40.74360997416079" lon="-4.791939994320273">
        <ele>1094.0830000000001</ele>
        <time>2021-07-09T19:53:44Z</time>
      </trkpt>
      <trkpt lat="40.743330018594861" lon="-4.791870005428791">
        <ele>1093.0250000000001</ele>
        <time>2021-07-09T19:53:49Z</time>
      </trkpt>
      <trkpt lat="40.743060037493706" lon="-4.791770009323955">
        <ele>1092.0170000000001</ele>
        <time>2021-07-09T19:53:54Z</time>
      </trkpt>
      <trkpt lat="40.742289992049336" lon="-4.791430039331317">
        <ele>1086.008</ele>
        <time>2021-07-09T19:54:08Z</time>
      </trkpt>
      <trkpt lat="40.739499991759658" lon="-4.789960021153092">
        <ele>1064.085</ele>
        <time>2021-07-09T19:55:02Z</time>
      </trkpt>
      <trkpt lat="40.73900998570025" lon="-4.789649974554777">
        <ele>1060.0150000000001</ele>
        <time>2021-07-09T19:55:11Z</time>
      </trkpt>
      <trkpt lat="40.737090026959777" lon="-4.788079960271716">
        <ele>1056.0650000000001</ele>
        <time>2021-07-09T19:55:52Z</time>
      </trkpt>
      <trkpt lat="40.735729979351163" lon="-4.78684002533555">
        <ele>1071.0840000000001</ele>
        <time>2021-07-09T19:56:21Z</time>
      </trkpt>
      <trkpt lat="40.733750006183982" lon="-4.785110000520945">
        <ele>1100.019</ele>
        <time>2021-07-09T19:57:03Z</time>
      </trkpt>
      <trkpt lat="40.733399977907538" lon="-4.784900033846498">
        <ele>1103.028</ele>
        <time>2021-07-09T19:57:10Z</time>
      </trkpt>
      <trkpt lat="40.73322999291122" lon="-4.784840019419789">
        <ele>1104.0239999999999</ele>
        <time>2021-07-09T19:57:13Z</time>
      </trkpt>
      <trkpt lat="40.732860015705228" lon="-4.784759972244501">
        <ele>1107.0599999999999</ele>
        <time>2021-07-09T19:57:20Z</time>
      </trkpt>
      <trkpt lat="40.732470005750656" lon="-4.784759972244501">
        <ele>1110.0429999999999</ele>
        <time>2021-07-09T19:57:27Z</time>
      </trkpt>
      <trkpt lat="40.73207002133131" lon="-4.784849993884563">
        <ele>1113.0640000000001</ele>
        <time>2021-07-09T19:57:34Z</time>
      </trkpt>
      <trkpt lat="40.731870029121637" lon="-4.784919982776046">
        <ele>1114.01</ele>
        <time>2021-07-09T19:57:38Z</time>
      </trkpt>
      <trkpt lat="40.731659978628159" lon="-4.785030037164688">
        <ele>1116.008</ele>
        <time>2021-07-09T19:57:42Z</time>
      </trkpt>
      <trkpt lat="40.731250019744039" lon="-4.785270011052489">
        <ele>1119.0609999999999</ele>
        <time>2021-07-09T19:57:50Z</time>
      </trkpt>
      <trkpt lat="40.730830002576113" lon="-4.785569999366999">
        <ele>1124.0609999999999</ele>
        <time>2021-07-09T19:57:58Z</time>
      </trkpt>
      <trkpt lat="40.730379978194833" lon="-4.78583000600338">
        <ele>1128.0709999999999</ele>
        <time>2021-07-09T19:58:07Z</time>
      </trkpt>
      <trkpt lat="40.730149978771806" lon="-4.785909969359636">
        <ele>1129.0899999999999</ele>
        <time>2021-07-09T19:58:11Z</time>
      </trkpt>
      <trkpt lat="40.726890005171299" lon="-4.786610025912523">
        <ele>1147.0550000000001</ele>
        <time>2021-07-09T19:59:10Z</time>
      </trkpt>
      <trkpt lat="40.726450039073825" lon="-4.786670040339232">
        <ele>1149.0340000000001</ele>
        <time>2021-07-09T19:59:18Z</time>
      </trkpt>
      <trkpt lat="40.725990040227771" lon="-4.786659982055426">
        <ele>1152.05</ele>
        <time>2021-07-09T19:59:26Z</time>
      </trkpt>
      <trkpt lat="40.725530041381717" lon="-4.786559985950589">
        <ele>1156.046</ele>
        <time>2021-07-09T19:59:34Z</time>
      </trkpt>
      <trkpt lat="40.725299958139658" lon="-4.786480022594333">
        <ele>1157.049</ele>
        <time>2021-07-09T19:59:39Z</time>
      </trkpt>
      <trkpt lat="40.724839959293604" lon="-4.786269972100854">
        <ele>1159.002</ele>
        <time>2021-07-09T19:59:47Z</time>
      </trkpt>
      <trkpt lat="40.723389973863959" lon="-4.785519959405065">
        <ele>1165.0219999999999</ele>
        <time>2021-07-09T20:00:15Z</time>
      </trkpt>
      <trkpt lat="40.720299985259771" lon="-4.783999985083938">
        <ele>1172.008</ele>
        <time>2021-07-09T20:01:14Z</time>
      </trkpt>
      <trkpt lat="40.716289998963475" lon="-4.782090000808239">
        <ele>1185.0509999999999</ele>
        <time>2021-07-09T20:02:29Z</time>
      </trkpt>
      <trkpt lat="40.715869981795549" lon="-4.781829994171858">
        <ele>1187.0909999999999</ele>
        <time>2021-07-09T20:02:38Z</time>
      </trkpt>
      <trkpt lat="40.715300012379885" lon="-4.781349962577224">
        <ele>1190.0809999999999</ele>
        <time>2021-07-09T20:02:50Z</time>
      </trkpt>
      <trkpt lat="40.714549999684095" lon="-4.780429964885116">
        <ele>1190.0699999999999</ele>
        <time>2021-07-09T20:03:08Z</time>
      </trkpt>
      <trkpt lat="40.713139995932579" lon="-4.778600027784705">
        <ele>1187.0150000000001</ele>
        <time>2021-07-09T20:03:43Z</time>
      </trkpt>
      <trkpt lat="40.711699984967709" lon="-4.776809988543391">
        <ele>1202.0239999999999</ele>
        <time>2021-07-09T20:04:18Z</time>
      </trkpt>
      <trkpt lat="40.711200004443526" lon="-4.77611999027431">
        <ele>1206.0799999999999</ele>
        <time>2021-07-09T20:04:31Z</time>
      </trkpt>
      <trkpt lat="40.710930023342371" lon="-4.775620009750128">
        <ele>1209.056</ele>
        <time>2021-07-09T20:04:39Z</time>
      </trkpt>
      <trkpt lat="40.710819968953729" lon="-4.775329995900393">
        <ele>1210.0630000000001</ele>
        <time>2021-07-09T20:04:44Z</time>
      </trkpt>
      <trkpt lat="40.710659958422184" lon="-4.774739993736148">
        <ele>1213.0440000000001</ele>
        <time>2021-07-09T20:04:52Z</time>
      </trkpt>
      <trkpt lat="40.710389977321029" lon="-4.773220019415021">
        <ele>1218.018</ele>
        <time>2021-07-09T20:05:13Z</time>
      </trkpt>
      <trkpt lat="40.710229966789484" lon="-4.77266002446413">
        <ele>1220.008</ele>
        <time>2021-07-09T20:05:21Z</time>
      </trkpt>
      <trkpt lat="40.709780026227236" lon="-4.771359991282225">
        <ele>1219.0329999999999</ele>
        <time>2021-07-09T20:05:41Z</time>
      </trkpt>
      <trkpt lat="40.709580034017563" lon="-4.770830003544688">
        <ele>1217.0229999999999</ele>
        <time>2021-07-09T20:05:49Z</time>
      </trkpt>
      <trkpt lat="40.709350034594536" lon="-4.770330023020506">
        <ele>1217.0129999999999</ele>
        <time>2021-07-09T20:05:57Z</time>
      </trkpt>
      <trkpt lat="40.709090027958155" lon="-4.769889973104">
        <ele>1216.0619999999999</ele>
        <time>2021-07-09T20:06:04Z</time>
      </trkpt>
      <trkpt lat="40.708900010213256" lon="-4.769410025328398">
        <ele>1214.097</ele>
        <time>2021-07-09T20:06:11Z</time>
      </trkpt>
      <trkpt lat="40.708589963614941" lon="-4.768509976565838">
        <ele>1214.076</ele>
        <time>2021-07-09T20:06:25Z</time>
      </trkpt>
      <trkpt lat="40.708389971405268" lon="-4.767840011045337">
        <ele>1212.0920000000001</ele>
        <time>2021-07-09T20:06:34Z</time>
      </trkpt>
      <trkpt lat="40.708289975300431" lon="-4.767410019412637">
        <ele>1209.098</ele>
        <time>2021-07-09T20:06:41Z</time>
      </trkpt>
      <trkpt lat="40.707929972559214" lon="-4.76632003672421">
        <ele>1204.028</ele>
        <time>2021-07-09T20:06:57Z</time>
      </trkpt>
      <trkpt lat="40.706879971548915" lon="-4.763530036434531">
        <ele>1197.0889999999999</ele>
        <time>2021-07-09T20:07:39Z</time>
      </trkpt>
      <trkpt lat="40.706709986552596" lon="-4.76314002647996">
        <ele>1196.0170000000001</ele>
        <time>2021-07-09T20:07:45Z</time>
      </trkpt>
      <trkpt lat="40.706089977174997" lon="-4.761259965598583">
        <ele>1196.008</ele>
        <time>2021-07-09T20:08:12Z</time>
      </trkpt>
      <trkpt lat="40.705669960007071" lon="-4.760160008445382">
        <ele>1195.079</ele>
        <time>2021-07-09T20:08:29Z</time>
      </trkpt>
      <trkpt lat="40.705380029976368" lon="-4.759579980745912">
        <ele>1196.059</ele>
        <time>2021-07-09T20:08:38Z</time>
      </trkpt>
      <trkpt lat="40.704619958996773" lon="-4.757590033113957">
        <ele>1197.019</ele>
        <time>2021-07-09T20:09:08Z</time>
      </trkpt>
      <trkpt lat="40.704040015116334" lon="-4.755990011617541">
        <ele>1197.028</ele>
        <time>2021-07-09T20:09:32Z</time>
      </trkpt>
      <trkpt lat="40.702920025214553" lon="-4.752500038594008">
        <ele>1190.0930000000001</ele>
        <time>2021-07-09T20:10:23Z</time>
      </trkpt>
      <trkpt lat="40.701910005882382" lon="-4.749209973961115">
        <ele>1181.0319999999999</ele>
        <time>2021-07-09T20:11:11Z</time>
      </trkpt>
      <trkpt lat="40.701359985396266" lon="-4.747390011325479">
        <ele>1180.088</ele>
        <time>2021-07-09T20:11:38Z</time>
      </trkpt>
      <trkpt lat="40.700590023770928" lon="-4.744649967178702">
        <ele>1187.0340000000001</ele>
        <time>2021-07-09T20:12:17Z</time>
      </trkpt>
      <trkpt lat="40.700360024347901" lon="-4.744089972227812">
        <ele>1188.0160000000001</ele>
        <time>2021-07-09T20:12:26Z</time>
      </trkpt>
      <trkpt lat="40.699399961158633" lon="-4.742330024018884">
        <ele>1187.076</ele>
        <time>2021-07-09T20:12:55Z</time>
      </trkpt>
      <trkpt lat="40.698439981788397" lon="-4.740709969773889">
        <ele>1190.0129999999999</ele>
        <time>2021-07-09T20:13:23Z</time>
      </trkpt>
      <trkpt lat="40.698030022904277" lon="-4.740119967609644">
        <ele>1189.008</ele>
        <time>2021-07-09T20:13:33Z</time>
      </trkpt>
      <trkpt lat="40.697730034589767" lon="-4.739759964868426">
        <ele>1188.058</ele>
        <time>2021-07-09T20:13:41Z</time>
      </trkpt>
      <trkpt lat="40.697410013526678" lon="-4.739440027624369">
        <ele>1186.028</ele>
        <time>2021-07-09T20:13:48Z</time>
      </trkpt>
      <trkpt lat="40.696729989722371" lon="-4.738890007138252">
        <ele>1183.038</ele>
        <time>2021-07-09T20:14:02Z</time>
      </trkpt>
      <trkpt lat="40.696000009775162" lon="-4.738639974966645">
        <ele>1178.0170000000001</ele>
        <time>2021-07-09T20:14:15Z</time>
      </trkpt>
      <trkpt lat="40.695380000397563" lon="-4.738230016082525">
        <ele>1176.0820000000001</ele>
        <time>2021-07-09T20:14:28Z</time>
      </trkpt>
      <trkpt lat="40.695150000974536" lon="-4.738000016659498">
        <ele>1175.0609999999999</ele>
        <time>2021-07-09T20:14:33Z</time>
      </trkpt>
      <trkpt lat="40.694959983229637" lon="-4.737710002809763">
        <ele>1173.037</ele>
        <time>2021-07-09T20:14:38Z</time>
      </trkpt>
      <trkpt lat="40.694559998810291" lon="-4.736899975687265">
        <ele>1167.0229999999999</ele>
        <time>2021-07-09T20:14:51Z</time>
      </trkpt>
      <trkpt lat="40.694380039349198" lon="-4.736690009012818">
        <ele>1165.048</ele>
        <time>2021-07-09T20:14:55Z</time>
      </trkpt>
      <trkpt lat="40.694290017709136" lon="-4.73665002733469">
        <ele>1165.0609999999999</ele>
        <time>2021-07-09T20:14:57Z</time>
      </trkpt>
      <trkpt lat="40.694130007177591" lon="-4.736710041761398">
        <ele>1164.0170000000001</ele>
        <time>2021-07-09T20:15:00Z</time>
      </trkpt>
      <trkpt lat="40.693990029394627" lon="-4.736720016226172">
        <ele>1164.008</ele>
        <time>2021-07-09T20:15:03Z</time>
      </trkpt>
      <trkpt lat="40.693920040503144" lon="-4.736690009012818">
        <ele>1163.0309999999999</ele>
        <time>2021-07-09T20:15:04Z</time>
      </trkpt>
      <trkpt lat="40.69373999722302" lon="-4.736450035125017">
        <ele>1162.0509999999999</ele>
        <time>2021-07-09T20:15:08Z</time>
      </trkpt>
      <trkpt lat="40.693549979478121" lon="-4.736379962414503">
        <ele>1161.0709999999999</ele>
        <time>2021-07-09T20:15:12Z</time>
      </trkpt>
      <trkpt lat="40.693210009485483" lon="-4.7365200240165">
        <ele>1160.01</ele>
        <time>2021-07-09T20:15:18Z</time>
      </trkpt>
      <trkpt lat="40.692699970677495" lon="-4.736810037866235">
        <ele>1161.0250000000001</ele>
        <time>2021-07-09T20:15:28Z</time>
      </trkpt>
      <trkpt lat="40.69255999289453" lon="-4.736859994009137">
        <ele>1161.0239999999999</ele>
        <time>2021-07-09T20:15:31Z</time>
      </trkpt>
      <trkpt lat="40.692280037328601" lon="-4.736899975687265">
        <ele>1161.0799999999999</ele>
        <time>2021-07-09T20:15:36Z</time>
      </trkpt>
      <trkpt lat="40.692120026797056" lon="-4.736880026757717">
        <ele>1161.0260000000001</ele>
        <time>2021-07-09T20:15:39Z</time>
      </trkpt>
      <trkpt lat="40.691110007464886" lon="-4.736509965732694">
        <ele>1156.0429999999999</ele>
        <time>2021-07-09T20:15:57Z</time>
      </trkpt>
      <trkpt lat="40.689999992027879" lon="-4.736019959673286">
        <ele>1153.0640000000001</ele>
        <time>2021-07-09T20:16:18Z</time>
      </trkpt>
      <trkpt lat="40.689439997076988" lon="-4.735800018534064">
        <ele>1150.01</ele>
        <time>2021-07-09T20:16:28Z</time>
      </trkpt>
      <trkpt lat="40.689070019870996" lon="-4.735719971358776">
        <ele>1149.008</ele>
        <time>2021-07-09T20:16:35Z</time>
      </trkpt>
      <trkpt lat="40.688359988853335" lon="-4.735349994152784">
        <ele>1148.0509999999999</ele>
        <time>2021-07-09T20:16:49Z</time>
      </trkpt>
      <trkpt lat="40.6872099917382" lon="-4.73488999530673">
        <ele>1144.0309999999999</ele>
        <time>2021-07-09T20:17:10Z</time>
      </trkpt>
      <trkpt lat="40.685179978609085" lon="-4.733960023149848">
        <ele>1137.0609999999999</ele>
        <time>2021-07-09T20:17:48Z</time>
      </trkpt>
      <trkpt lat="40.684299962595105" lon="-4.733790038153529">
        <ele>1135.03</ele>
        <time>2021-07-09T20:18:04Z</time>
      </trkpt>
      <trkpt lat="40.683769974857569" lon="-4.733739998191595">
        <ele>1132.085</ele>
        <time>2021-07-09T20:18:14Z</time>
      </trkpt>
      <trkpt lat="40.68271997384727" lon="-4.733830019831657">
        <ele>1128.0239999999999</ele>
        <time>2021-07-09T20:18:32Z</time>
      </trkpt>
      <trkpt lat="40.682370029389858" lon="-4.733830019831657">
        <ele>1127.02</ele>
        <time>2021-07-09T20:18:39Z</time>
      </trkpt>
      <trkpt lat="40.681840041652322" lon="-4.733700016513467">
        <ele>1123.076</ele>
        <time>2021-07-09T20:18:48Z</time>
      </trkpt>
      <trkpt lat="40.681460006162524" lon="-4.733560038730502">
        <ele>1122.0440000000001</ele>
        <time>2021-07-09T20:18:55Z</time>
      </trkpt>
      <trkpt lat="40.681060021743178" lon="-4.733340013772249">
        <ele>1122.0050000000001</ele>
        <time>2021-07-09T20:19:03Z</time>
      </trkpt>
      <trkpt lat="40.680670011788607" lon="-4.733049999922514">
        <ele>1122.0150000000001</ele>
        <time>2021-07-09T20:19:11Z</time>
      </trkpt>
      <trkpt lat="40.67840002477169" lon="-4.731189971789718">
        <ele>1119.008</ele>
        <time>2021-07-09T20:19:58Z</time>
      </trkpt>
      <trkpt lat="40.676990021020174" lon="-4.730099989101291">
        <ele>1115.0609999999999</ele>
        <time>2021-07-09T20:20:28Z</time>
      </trkpt>
      <trkpt lat="40.676000034436584" lon="-4.729379983618856">
        <ele>1114.0809999999999</ele>
        <time>2021-07-09T20:20:48Z</time>
      </trkpt>
      <trkpt lat="40.674079991877079" lon="-4.728139964863658">
        <ele>1108.0409999999999</ele>
        <time>2021-07-09T20:21:26Z</time>
      </trkpt>
      <trkpt lat="40.672360025346279" lon="-4.727089963853359">
        <ele>1094.0899999999999</ele>
        <time>2021-07-09T20:21:59Z</time>
      </trkpt>
      <trkpt lat="40.671830037608743" lon="-4.726740019395948">
        <ele>1089.0150000000001</ele>
        <time>2021-07-09T20:22:10Z</time>
      </trkpt>
      <trkpt lat="40.670400001108646" lon="-4.725899985060096">
        <ele>1081.0440000000001</ele>
        <time>2021-07-09T20:22:38Z</time>
      </trkpt>
      <trkpt lat="40.667159976437688" lon="-4.723850023001432">
        <ele>1105.03</ele>
        <time>2021-07-09T20:23:42Z</time>
      </trkpt>
      <trkpt lat="40.666759992018342" lon="-4.723639972507954">
        <ele>1107.096</ele>
        <time>2021-07-09T20:23:49Z</time>
      </trkpt>
      <trkpt lat="40.666599981486797" lon="-4.723590016365051">
        <ele>1108.095</ele>
        <time>2021-07-09T20:23:52Z</time>
      </trkpt>
      <trkpt lat="40.666179964318871" lon="-4.723580041900277">
        <ele>1111.049</ele>
        <time>2021-07-09T20:24:00Z</time>
      </trkpt>
      <trkpt lat="40.666000004857779" lon="-4.723669979721308">
        <ele>1112.0229999999999</ele>
        <time>2021-07-09T20:24:03Z</time>
      </trkpt>
      <trkpt lat="40.665920041501522" lon="-4.72373996861279">
        <ele>1113.008</ele>
        <time>2021-07-09T20:24:05Z</time>
      </trkpt>
      <trkpt lat="40.665849968791008" lon="-4.723750026896596">
        <ele>1114.0260000000001</ele>
        <time>2021-07-09T20:24:06Z</time>
      </trkpt>
      <trkpt lat="40.665800012648106" lon="-4.723690012469888">
        <ele>1114.056</ele>
        <time>2021-07-09T20:24:07Z</time>
      </trkpt>
      <trkpt lat="40.665749972686172" lon="-4.723599990829825">
        <ele>1114.076</ele>
        <time>2021-07-09T20:24:09Z</time>
      </trkpt>
      <trkpt lat="40.665689958259463" lon="-4.723349958658218">
        <ele>1113.0650000000001</ele>
        <time>2021-07-09T20:24:12Z</time>
      </trkpt>
      <trkpt lat="40.66550999879837" lon="-4.722860036417842">
        <ele>1110.05</ele>
        <time>2021-07-09T20:24:20Z</time>
      </trkpt>
      <trkpt lat="40.665330039337277" lon="-4.722489975392819">
        <ele>1109.079</ele>
        <time>2021-07-09T20:24:26Z</time>
      </trkpt>
      <trkpt lat="40.664769960567355" lon="-4.721490014344454">
        <ele>1110.0150000000001</ele>
        <time>2021-07-09T20:24:42Z</time>
      </trkpt>
      <trkpt lat="40.664580026641488" lon="-4.721049964427948">
        <ele>1108.0809999999999</ele>
        <time>2021-07-09T20:24:49Z</time>
      </trkpt>
      <trkpt lat="40.664420016109943" lon="-4.720609998330474">
        <ele>1107.0239999999999</ele>
        <time>2021-07-09T20:24:56Z</time>
      </trkpt>
      <trkpt lat="40.664130002260208" lon="-4.719299990683794">
        <ele>1106.0039999999999</ele>
        <time>2021-07-09T20:25:14Z</time>
      </trkpt>
      <trkpt lat="40.664130002260208" lon="-4.718279996886849">
        <ele>1104.0139999999999</ele>
        <time>2021-07-09T20:25:28Z</time>
      </trkpt>
      <trkpt lat="40.664190016686916" lon="-4.717770041897893">
        <ele>1104.008</ele>
        <time>2021-07-09T20:25:35Z</time>
      </trkpt>
      <trkpt lat="40.664510037750006" lon="-4.716530023142695">
        <ele>1099.029</ele>
        <time>2021-07-09T20:25:53Z</time>
      </trkpt>
      <trkpt lat="40.664610033854842" lon="-4.716029958799481">
        <ele>1097.029</ele>
        <time>2021-07-09T20:26:00Z</time>
      </trkpt>
      <trkpt lat="40.66462998278439" lon="-4.715510029345751">
        <ele>1095.0989999999999</ele>
        <time>2021-07-09T20:26:07Z</time>
      </trkpt>
      <trkpt lat="40.664580026641488" lon="-4.715009965002537">
        <ele>1095.088</ele>
        <time>2021-07-09T20:26:14Z</time>
      </trkpt>
      <trkpt lat="40.664480030536652" lon="-4.714539991691709">
        <ele>1094.0229999999999</ele>
        <time>2021-07-09T20:26:20Z</time>
      </trkpt>
      <trkpt lat="40.664250031113625" lon="-4.713710015639663">
        <ele>1092.0119999999999</ele>
        <time>2021-07-09T20:26:32Z</time>
      </trkpt>
      <trkpt lat="40.664179958403111" lon="-4.713340038433671">
        <ele>1091.078</ele>
        <time>2021-07-09T20:26:37Z</time>
      </trkpt>
      <trkpt lat="40.66409002058208" lon="-4.712620032951236">
        <ele>1088.0740000000001</ele>
        <time>2021-07-09T20:26:47Z</time>
      </trkpt>
      <trkpt lat="40.663979966193438" lon="-4.712300011888146">
        <ele>1086.056</ele>
        <time>2021-07-09T20:26:52Z</time>
      </trkpt>
      <trkpt lat="40.663890028372407" lon="-4.712160034105182">
        <ele>1085.059</ele>
        <time>2021-07-09T20:26:54Z</time>
      </trkpt>
      <trkpt lat="40.663820039480925" lon="-4.712100019678474">
        <ele>1085.0139999999999</ele>
        <time>2021-07-09T20:26:56Z</time>
      </trkpt>
      <trkpt lat="40.66318997181952" lon="-4.711789973080158">
        <ele>1086.008</ele>
        <time>2021-07-09T20:27:08Z</time>
      </trkpt>
      <trkpt lat="40.6623500213027" lon="-4.711629962548614">
        <ele>1084.0719999999999</ele>
        <time>2021-07-09T20:27:23Z</time>
      </trkpt>
      <trkpt lat="40.661460030823946" lon="-4.711519991979003">
        <ele>1081.0419999999999</ele>
        <time>2021-07-09T20:27:39Z</time>
      </trkpt>
      <trkpt lat="40.661010006442666" lon="-4.711419995874167">
        <ele>1078.0519999999999</ele>
        <time>2021-07-09T20:27:47Z</time>
      </trkpt>
      <trkpt lat="40.660940017551184" lon="-4.711489984765649">
        <ele>1078.0409999999999</ele>
        <time>2021-07-09T20:27:48Z</time>
      </trkpt>
      <trkpt lat="40.660770032554865" lon="-4.711570031940937">
        <ele>1078.066</ele>
        <time>2021-07-09T20:27:52Z</time>
      </trkpt>
      <trkpt lat="40.660580014809966" lon="-4.711470035836101">
        <ele>1077.075</ele>
        <time>2021-07-09T20:27:55Z</time>
      </trkpt>
      <trkpt lat="40.660450011491776" lon="-4.711470035836101">
        <ele>1077.0509999999999</ele>
        <time>2021-07-09T20:27:58Z</time>
      </trkpt>
      <trkpt lat="40.660150023177266" lon="-4.711549999192357">
        <ele>1077.067</ele>
        <time>2021-07-09T20:28:03Z</time>
      </trkpt>
      <trkpt lat="40.659639984369278" lon="-4.71174999140203">
        <ele>1077.029</ele>
        <time>2021-07-09T20:28:12Z</time>
      </trkpt>
      <trkpt lat="40.659360028803349" lon="-4.711810005828738">
        <ele>1077</ele>
        <time>2021-07-09T20:28:18Z</time>
      </trkpt>
      <trkpt lat="40.659070014953613" lon="-4.711819980293512">
        <ele>1078.02</ele>
        <time>2021-07-09T20:28:23Z</time>
      </trkpt>
      <trkpt lat="40.65887002274394" lon="-4.711789973080158">
        <ele>1078.008</ele>
        <time>2021-07-09T20:28:26Z</time>
      </trkpt>
      <trkpt lat="40.658589983358979" lon="-4.711619988083839">
        <ele>1078.079</ele>
        <time>2021-07-09T20:28:32Z</time>
      </trkpt>
      <trkpt lat="40.658410023897886" lon="-4.711289992555976">
        <ele>1076.029</ele>
        <time>2021-07-09T20:28:37Z</time>
      </trkpt>
      <trkpt lat="40.65788003616035" lon="-4.710090039297938">
        <ele>1072.069</ele>
        <time>2021-07-09T20:28:56Z</time>
      </trkpt>
      <trkpt lat="40.657769981771708" lon="-4.709889963269234">
        <ele>1071.098</ele>
        <time>2021-07-09T20:28:59Z</time>
      </trkpt>
      <trkpt lat="40.657550040632486" lon="-4.709589974954724">
        <ele>1069.0429999999999</ele>
        <time>2021-07-09T20:29:05Z</time>
      </trkpt>
      <trkpt lat="40.657469993457198" lon="-4.709500037133694">
        <ele>1068.0719999999999</ele>
        <time>2021-07-09T20:29:07Z</time>
      </trkpt>
      <trkpt lat="40.657349964603782" lon="-4.709440022706986">
        <ele>1067.088</ele>
        <time>2021-07-09T20:29:09Z</time>
      </trkpt>
      <trkpt lat="40.657290033996105" lon="-4.709229972213507">
        <ele>1065.0640000000001</ele>
        <time>2021-07-09T20:29:12Z</time>
      </trkpt>
      <trkpt lat="40.657360022887588" lon="-4.70902000553906">
        <ele>1064.0450000000001</ele>
        <time>2021-07-09T20:29:15Z</time>
      </trkpt>
      <trkpt lat="40.657460018992424" lon="-4.70826999284327">
        <ele>1062.047</ele>
        <time>2021-07-09T20:29:26Z</time>
      </trkpt>
      <trkpt lat="40.657479967921972" lon="-4.70786003395915">
        <ele>1067.011</ele>
        <time>2021-07-09T20:29:31Z</time>
      </trkpt>
      <trkpt lat="40.657420037314296" lon="-4.707640009000897">
        <ele>1070.008</ele>
        <time>2021-07-09T20:29:34Z</time>
      </trkpt>
      <trkpt lat="40.657420037314296" lon="-4.707500031217933">
        <ele>1072.0509999999999</ele>
        <time>2021-07-09T20:29:36Z</time>
      </trkpt>
      <trkpt lat="40.657520033419132" lon="-4.707419984042645">
        <ele>1073.0409999999999</ele>
        <time>2021-07-09T20:29:38Z</time>
      </trkpt>
      <trkpt lat="40.657809963449836" lon="-4.707349995151162">
        <ele>1073.0909999999999</ele>
        <time>2021-07-09T20:29:43Z</time>
      </trkpt>
      <trkpt lat="40.658359983935952" lon="-4.707129970192909">
        <ele>1074.05</ele>
        <time>2021-07-09T20:29:54Z</time>
      </trkpt>
      <trkpt lat="40.658989967778325" lon="-4.706799974665046">
        <ele>1073.0550000000001</ele>
        <time>2021-07-09T20:30:06Z</time>
      </trkpt>
      <trkpt lat="40.65914997830987" lon="-4.706659996882081">
        <ele>1073.0840000000001</ele>
        <time>2021-07-09T20:30:09Z</time>
      </trkpt>
      <trkpt lat="40.659290039911866" lon="-4.706480037420988">
        <ele>1074.05</ele>
        <time>2021-07-09T20:30:13Z</time>
      </trkpt>
      <trkpt lat="40.659379977732897" lon="-4.706269986927509">
        <ele>1075.0260000000001</ele>
        <time>2021-07-09T20:30:16Z</time>
      </trkpt>
      <trkpt lat="40.659469999372959" lon="-4.705909984186292">
        <ele>1077.0309999999999</ele>
        <time>2021-07-09T20:30:21Z</time>
      </trkpt>
      <trkpt lat="40.659649958834052" lon="-4.704940030351281">
        <ele>1084.0609999999999</ele>
        <time>2021-07-09T20:30:34Z</time>
      </trkpt>
      <trkpt lat="40.659690024331212" lon="-4.704329995438457">
        <ele>1088.0070000000001</ele>
        <time>2021-07-09T20:30:43Z</time>
      </trkpt>
      <trkpt lat="40.659679966047406" lon="-4.704169984906912">
        <ele>1089.008</ele>
        <time>2021-07-09T20:30:45Z</time>
      </trkpt>
      <trkpt lat="40.659609977155924" lon="-4.703879971057177">
        <ele>1090.01</ele>
        <time>2021-07-09T20:30:49Z</time>
      </trkpt>
      <trkpt lat="40.659639984369278" lon="-4.703730018809438">
        <ele>1090.0799999999999</ele>
        <time>2021-07-09T20:30:51Z</time>
      </trkpt>
      <trkpt lat="40.659739980474114" lon="-4.703519968315959">
        <ele>1089.0699999999999</ele>
        <time>2021-07-09T20:30:54Z</time>
      </trkpt>
      <trkpt lat="40.65975003875792" lon="-4.703279994428158">
        <ele>1090.059</ele>
        <time>2021-07-09T20:30:58Z</time>
      </trkpt>
      <trkpt lat="40.659649958834052" lon="-4.702589996159077">
        <ele>1093.0239999999999</ele>
        <time>2021-07-09T20:31:07Z</time>
      </trkpt>
      <trkpt lat="40.659530013799667" lon="-4.702139971777797">
        <ele>1096.0930000000001</ele>
        <time>2021-07-09T20:31:14Z</time>
      </trkpt>
      <trkpt lat="40.659530013799667" lon="-4.702139971777797">
        <ele>1096.0930000000001</ele>
        <time>2021-07-09T20:31:14Z</time>
      </trkpt>
      <trkpt lat="40.659400010481477" lon="-4.701869990676642">
        <ele>1098.029</ele>
        <time>2021-07-09T20:31:18Z</time>
      </trkpt>
      <trkpt lat="40.659339996054769" lon="-4.701309995725751">
        <ele>1101.0250000000001</ele>
        <time>2021-07-09T20:31:26Z</time>
      </trkpt>
      <trkpt lat="40.659070014953613" lon="-4.700109958648682">
        <ele>1104.0719999999999</ele>
        <time>2021-07-09T20:31:42Z</time>
      </trkpt>
      <trkpt lat="40.659010000526905" lon="-4.699969980865717">
        <ele>1105.0129999999999</ele>
        <time>2021-07-09T20:31:45Z</time>
      </trkpt>
      <trkpt lat="40.658940011635423" lon="-4.699530014768243">
        <ele>1105.0139999999999</ele>
        <time>2021-07-09T20:31:51Z</time>
      </trkpt>
      <trkpt lat="40.658680004999042" lon="-4.698380017653108">
        <ele>1111.008</ele>
        <time>2021-07-09T20:32:07Z</time>
      </trkpt>
      <trkpt lat="40.658649997785687" lon="-4.698129985481501">
        <ele>1113.0540000000001</ele>
        <time>2021-07-09T20:32:10Z</time>
      </trkpt>
      <trkpt lat="40.658659972250462" lon="-4.697449961677194">
        <ele>1115.0139999999999</ele>
        <time>2021-07-09T20:32:19Z</time>
      </trkpt>
      <trkpt lat="40.658629965037107" lon="-4.697249969467521">
        <ele>1116.0239999999999</ele>
        <time>2021-07-09T20:32:22Z</time>
      </trkpt>
      <trkpt lat="40.658090002834797" lon="-4.695260021835566">
        <ele>1119.0530000000001</ele>
        <time>2021-07-09T20:32:51Z</time>
      </trkpt>
      <trkpt lat="40.658020013943315" lon="-4.694909993559122">
        <ele>1119.048</ele>
        <time>2021-07-09T20:32:56Z</time>
      </trkpt>
      <trkpt lat="40.657959999516606" lon="-4.694359973073006">
        <ele>1122.027</ele>
        <time>2021-07-09T20:33:03Z</time>
      </trkpt>
      <trkpt lat="40.65801003947854" lon="-4.693820010870695">
        <ele>1123.0830000000001</ele>
        <time>2021-07-09T20:33:11Z</time>
      </trkpt>
      <trkpt lat="40.657980032265186" lon="-4.693299997597933">
        <ele>1125.079</ele>
        <time>2021-07-09T20:33:18Z</time>
      </trkpt>
      <trkpt lat="40.657869977876544" lon="-4.692489970475435">
        <ele>1126.038</ele>
        <time>2021-07-09T20:33:29Z</time>
      </trkpt>
      <trkpt lat="40.65783997066319" lon="-4.691869961097837">
        <ele>1124.0699999999999</ele>
        <time>2021-07-09T20:33:37Z</time>
      </trkpt>
      <trkpt lat="40.657769981771708" lon="-4.691390013322234">
        <ele>1123.0170000000001</ele>
        <time>2021-07-09T20:33:44Z</time>
      </trkpt>
      <trkpt lat="40.657669985666871" lon="-4.690939988940954">
        <ele>1123.008</ele>
        <time>2021-07-09T20:33:50Z</time>
      </trkpt>
      <trkpt lat="40.657339990139008" lon="-4.68989996239543">
        <ele>1124.05</ele>
        <time>2021-07-09T20:34:05Z</time>
      </trkpt>
      <trkpt lat="40.657090041786432" lon="-4.689650014042854">
        <ele>1127.04</ele>
        <time>2021-07-09T20:34:11Z</time>
      </trkpt>
      <trkpt lat="40.657040001824498" lon="-4.689529985189438">
        <ele>1127.0899999999999</ele>
        <time>2021-07-09T20:34:13Z</time>
      </trkpt>
      <trkpt lat="40.65700002014637" lon="-4.689239971339703">
        <ele>1128.079</ele>
        <time>2021-07-09T20:34:17Z</time>
      </trkpt>
      <trkpt lat="40.65700002014637" lon="-4.689030004665256">
        <ele>1128.0740000000001</ele>
        <time>2021-07-09T20:34:19Z</time>
      </trkpt>
      <trkpt lat="40.656960038468242" lon="-4.688920034095645">
        <ele>1128.0229999999999</ele>
        <time>2021-07-09T20:34:21Z</time>
      </trkpt>
      <trkpt lat="40.656949980184436" lon="-4.688730016350746">
        <ele>1128.0989999999999</ele>
        <time>2021-07-09T20:34:24Z</time>
      </trkpt>
      <trkpt lat="40.656900024041533" lon="-4.688489958643913">
        <ele>1128.075</ele>
        <time>2021-07-09T20:34:27Z</time>
      </trkpt>
      <trkpt lat="40.656789969652891" lon="-4.688340006396174">
        <ele>1128.0219999999999</ele>
        <time>2021-07-09T20:34:30Z</time>
      </trkpt>
      <trkpt lat="40.656640017405152" lon="-4.688189970329404">
        <ele>1129.0619999999999</ele>
        <time>2021-07-09T20:34:33Z</time>
      </trkpt>
      <trkpt lat="40.65652996301651" lon="-4.687959970906377">
        <ele>1130.008</ele>
        <time>2021-07-09T20:34:37Z</time>
      </trkpt>
      <trkpt lat="40.656299963593483" lon="-4.687670040875673">
        <ele>1131.008</ele>
        <time>2021-07-09T20:34:43Z</time>
      </trkpt>
      <trkpt lat="40.654589971527457" lon="-4.685789979994297">
        <ele>1139.0989999999999</ele>
        <time>2021-07-09T20:35:22Z</time>
      </trkpt>
      <trkpt lat="40.654300041496754" lon="-4.685389995574951">
        <ele>1140.059</ele>
        <time>2021-07-09T20:35:30Z</time>
      </trkpt>
      <trkpt lat="40.654119998216629" lon="-4.685080032795668">
        <ele>1140.039</ele>
        <time>2021-07-09T20:35:35Z</time>
      </trkpt>
      <trkpt lat="40.65392998047173" lon="-4.684909963980317">
        <ele>1138.018</ele>
        <time>2021-07-09T20:35:39Z</time>
      </trkpt>
      <trkpt lat="40.653829984366894" lon="-4.684560019522905">
        <ele>1137.0329999999999</ele>
        <time>2021-07-09T20:35:44Z</time>
      </trkpt>
      <trkpt lat="40.652410006150603" lon="-4.681879989802837">
        <ele>1123.0119999999999</ele>
        <time>2021-07-09T20:36:28Z</time>
      </trkpt>
      <trkpt lat="40.652159973978996" lon="-4.681169958785176">
        <ele>1122.018</ele>
        <time>2021-07-09T20:36:39Z</time>
      </trkpt>
      <trkpt lat="40.652089985087514" lon="-4.680759999901056">
        <ele>1122.0239999999999</ele>
        <time>2021-07-09T20:36:44Z</time>
      </trkpt>
      <trkpt lat="40.651899967342615" lon="-4.680070001631975">
        <ele>1120.068</ele>
        <time>2021-07-09T20:36:54Z</time>
      </trkpt>
      <trkpt lat="40.651130005717278" lon="-4.677540007978678">
        <ele>1112.0419999999999</ele>
        <time>2021-07-09T20:37:31Z</time>
      </trkpt>
      <trkpt lat="40.650530029088259" lon="-4.676000000908971">
        <ele>1108.0260000000001</ele>
        <time>2021-07-09T20:37:54Z</time>
      </trkpt>
      <trkpt lat="40.650400025770068" lon="-4.675770001485944">
        <ele>1107.008</ele>
        <time>2021-07-09T20:37:58Z</time>
      </trkpt>
      <trkpt lat="40.650279996916652" lon="-4.675630023702979">
        <ele>1106.0429999999999</ele>
        <time>2021-07-09T20:38:01Z</time>
      </trkpt>
      <trkpt lat="40.650230040773749" lon="-4.675500020384789">
        <ele>1106.0930000000001</ele>
        <time>2021-07-09T20:38:03Z</time>
      </trkpt>
      <trkpt lat="40.650200033560395" lon="-4.675189973786473">
        <ele>1106.0930000000001</ele>
        <time>2021-07-09T20:38:07Z</time>
      </trkpt>
      <trkpt lat="40.650049997493625" lon="-4.674819996580482">
        <ele>1105.0820000000001</ele>
        <time>2021-07-09T20:38:13Z</time>
      </trkpt>
      <trkpt lat="40.649220021441579" lon="-4.673170018941164">
        <ele>1108.027</ele>
        <time>2021-07-09T20:38:40Z</time>
      </trkpt>
      <trkpt lat="40.648939982056618" lon="-4.672800041735172">
        <ele>1105.086</ele>
        <time>2021-07-09T20:38:47Z</time>
      </trkpt>
      <trkpt lat="40.648860018700361" lon="-4.672429980710149">
        <ele>1104.0119999999999</ele>
        <time>2021-07-09T20:38:52Z</time>
      </trkpt>
      <trkpt lat="40.648249983787537" lon="-4.671119973063469">
        <ele>1099.058</ele>
        <time>2021-07-09T20:39:13Z</time>
      </trkpt>
      <trkpt lat="40.647919988259673" lon="-4.670470040291548">
        <ele>1096.068</ele>
        <time>2021-07-09T20:39:23Z</time>
      </trkpt>
      <trkpt lat="40.647540036588907" lon="-4.669869979843497">
        <ele>1094.0419999999999</ele>
        <time>2021-07-09T20:39:34Z</time>
      </trkpt>
      <trkpt lat="40.646110000088811" lon="-4.667809959501028">
        <ele>1086.0260000000001</ele>
        <time>2021-07-09T20:40:12Z</time>
      </trkpt>
      <trkpt lat="40.642809960991144" lon="-4.663499984890223">
        <ele>1077.008</ele>
        <time>2021-07-09T20:41:34Z</time>
      </trkpt>
      <trkpt lat="40.642499998211861" lon="-4.663190022110939">
        <ele>1077.0830000000001</ele>
        <time>2021-07-09T20:41:41Z</time>
      </trkpt>
      <trkpt lat="40.6422199588269" lon="-4.662770004943013">
        <ele>1076.0830000000001</ele>
        <time>2021-07-09T20:41:49Z</time>
      </trkpt>
      <trkpt lat="40.641180016100407" lon="-4.661380033940077">
        <ele>1078.0129999999999</ele>
        <time>2021-07-09T20:42:15Z</time>
      </trkpt>
      <trkpt lat="40.640859995037317" lon="-4.66083001345396">
        <ele>1079.0319999999999</ele>
        <time>2021-07-09T20:42:24Z</time>
      </trkpt>
      <trkpt lat="40.639449991285801" lon="-4.657979998737574">
        <ele>1081.087</ele>
        <time>2021-07-09T20:43:10Z</time>
      </trkpt>
      <trkpt lat="40.63833000138402" lon="-4.655550001189113">
        <ele>1085.046</ele>
        <time>2021-07-09T20:43:49Z</time>
      </trkpt>
      <trkpt lat="40.637189978733659" lon="-4.653310021385551">
        <ele>1085.0319999999999</ele>
        <time>2021-07-09T20:44:25Z</time>
      </trkpt>
      <trkpt lat="40.636539962142706" lon="-4.651879984885454">
        <ele>1091.028</ele>
        <time>2021-07-09T20:44:48Z</time>
      </trkpt>
      <trkpt lat="40.63487003557384" lon="-4.648929974064231">
        <ele>1087.038</ele>
        <time>2021-07-09T20:45:37Z</time>
      </trkpt>
      <trkpt lat="40.633879965171218" lon="-4.647110011428595">
        <ele>1089.0699999999999</ele>
        <time>2021-07-09T20:46:08Z</time>
      </trkpt>
      <trkpt lat="40.633509987965226" lon="-4.646020028740168">
        <ele>1091.0170000000001</ele>
        <time>2021-07-09T20:46:24Z</time>
      </trkpt>
      <trkpt lat="40.633189966902137" lon="-4.645289964973927">
        <ele>1096.008</ele>
        <time>2021-07-09T20:46:35Z</time>
      </trkpt>
      <trkpt lat="40.624660039320588" lon="-4.628049982711673">
        <ele>1170.04</ele>
        <time>2021-07-09T20:51:13Z</time>
      </trkpt>
      <trkpt lat="40.624419981613755" lon="-4.627510020509362">
        <ele>1174.03</ele>
        <time>2021-07-09T20:51:21Z</time>
      </trkpt>
      <trkpt lat="40.624119993299246" lon="-4.626650037243962">
        <ele>1179.0799999999999</ele>
        <time>2021-07-09T20:51:34Z</time>
      </trkpt>
      <trkpt lat="40.623989989981055" lon="-4.626019969582558">
        <ele>1184.079</ele>
        <time>2021-07-09T20:51:43Z</time>
      </trkpt>
      <trkpt lat="40.623859986662865" lon="-4.625020008534193">
        <ele>1186.0940000000001</ele>
        <time>2021-07-09T20:51:57Z</time>
      </trkpt>
      <trkpt lat="40.623639961704612" lon="-4.623649986460805">
        <ele>1189.0530000000001</ele>
        <time>2021-07-09T20:52:16Z</time>
      </trkpt>
      <trkpt lat="40.622949963435531" lon="-4.619860025122762">
        <ele>1201.029</ele>
        <time>2021-07-09T20:53:08Z</time>
      </trkpt>
      <trkpt lat="40.622990028932691" lon="-4.619460040703416">
        <ele>1202.085</ele>
        <time>2021-07-09T20:53:14Z</time>
      </trkpt>
      <trkpt lat="40.622969996184111" lon="-4.618769958615303">
        <ele>1204.079</ele>
        <time>2021-07-09T20:53:23Z</time>
      </trkpt>
      <trkpt lat="40.622920040041208" lon="-4.618150033056736">
        <ele>1205.0050000000001</ele>
        <time>2021-07-09T20:53:31Z</time>
      </trkpt>
      <trkpt lat="40.622779978439212" lon="-4.616980003193021">
        <ele>1207.0250000000001</ele>
        <time>2021-07-09T20:53:47Z</time>
      </trkpt>
      <trkpt lat="40.622579986229539" lon="-4.61583998054266">
        <ele>1206.008</ele>
        <time>2021-07-09T20:54:03Z</time>
      </trkpt>
      <trkpt lat="40.622419975697994" lon="-4.614640027284622">
        <ele>1200.0840000000001</ele>
        <time>2021-07-09T20:54:20Z</time>
      </trkpt>
      <trkpt lat="40.62225996516645" lon="-4.613709971308708">
        <ele>1195.0840000000001</ele>
        <time>2021-07-09T20:54:33Z</time>
      </trkpt>
      <trkpt lat="40.622089980170131" lon="-4.613060038536787">
        <ele>1191.0239999999999</ele>
        <time>2021-07-09T20:54:42Z</time>
      </trkpt>
      <trkpt lat="40.621880013495684" lon="-4.612419996410608">
        <ele>1186.0329999999999</ele>
        <time>2021-07-09T20:54:51Z</time>
      </trkpt>
      <trkpt lat="40.621039979159832" lon="-4.610500037670136">
        <ele>1195.048</ele>
        <time>2021-07-09T20:55:21Z</time>
      </trkpt>
      <trkpt lat="40.62051996588707" lon="-4.609239986166358">
        <ele>1204.037</ele>
        <time>2021-07-09T20:55:41Z</time>
      </trkpt>
      <trkpt lat="40.620300024747849" lon="-4.608610002323985">
        <ele>1209.0329999999999</ele>
        <time>2021-07-09T20:55:50Z</time>
      </trkpt>
      <trkpt lat="40.620189970359206" lon="-4.60786996409297">
        <ele>1213.0989999999999</ele>
        <time>2021-07-09T20:56:00Z</time>
      </trkpt>
      <trkpt lat="40.620040018111467" lon="-4.607179965823889">
        <ele>1217.0340000000001</ele>
        <time>2021-07-09T20:56:10Z</time>
      </trkpt>
      <trkpt lat="40.618690028786659" lon="-4.602389959618449">
        <ele>1245.0550000000001</ele>
        <time>2021-07-09T20:57:19Z</time>
      </trkpt>
      <trkpt lat="40.618379982188344" lon="-4.601139966398478">
        <ele>1252.01</ele>
        <time>2021-07-09T20:57:37Z</time>
      </trkpt>
      <trkpt lat="40.618330026045442" lon="-4.60082002915442">
        <ele>1255.008</ele>
        <time>2021-07-09T20:57:41Z</time>
      </trkpt>
      <trkpt lat="40.618300018832088" lon="-4.600140005350113">
        <ele>1259.0799999999999</ele>
        <time>2021-07-09T20:57:50Z</time>
      </trkpt>
      <trkpt lat="40.618360033258796" lon="-4.599450007081032">
        <ele>1260.0599999999999</ele>
        <time>2021-07-09T20:58:00Z</time>
      </trkpt>
      <trkpt lat="40.618430022150278" lon="-4.599099978804588">
        <ele>1262.01</ele>
        <time>2021-07-09T20:58:04Z</time>
      </trkpt>
      <trkpt lat="40.618620039895177" lon="-4.598449962213635">
        <ele>1266.069</ele>
        <time>2021-07-09T20:58:14Z</time>
      </trkpt>
      <trkpt lat="40.618879962712526" lon="-4.597849985584617">
        <ele>1270.0139999999999</ele>
        <time>2021-07-09T20:58:23Z</time>
      </trkpt>
      <trkpt lat="40.619299979880452" lon="-4.597010035067797">
        <ele>1275.0830000000001</ele>
        <time>2021-07-09T20:58:37Z</time>
      </trkpt>
      <trkpt lat="40.619510030373931" lon="-4.596430007368326">
        <ele>1279.0889999999999</ele>
        <time>2021-07-09T20:58:45Z</time>
      </trkpt>
      <trkpt lat="40.619640033692122" lon="-4.595849979668856">
        <ele>1283.0550000000001</ele>
        <time>2021-07-09T20:58:54Z</time>
      </trkpt>
      <trkpt lat="40.619670040905476" lon="-4.595240028575063">
        <ele>1286.0889999999999</ele>
        <time>2021-07-09T20:59:02Z</time>
      </trkpt>
      <trkpt lat="40.619650008156896" lon="-4.594929981976748">
        <ele>1286.0060000000001</ele>
        <time>2021-07-09T20:59:06Z</time>
      </trkpt>
      <trkpt lat="40.619540037587285" lon="-4.594339979812503">
        <ele>1287.0260000000001</ele>
        <time>2021-07-09T20:59:14Z</time>
      </trkpt>
      <trkpt lat="40.61935999430716" lon="-4.593779984861612">
        <ele>1286.008</ele>
        <time>2021-07-09T20:59:23Z</time>
      </trkpt>
      <trkpt lat="40.619239965453744" lon="-4.593510003760457">
        <ele>1287.0250000000001</ele>
        <time>2021-07-09T20:59:27Z</time>
      </trkpt>
      <trkpt lat="40.619090013206005" lon="-4.593249997124076">
        <ele>1287.0650000000001</ele>
        <time>2021-07-09T20:59:31Z</time>
      </trkpt>
      <trkpt lat="40.618769992142916" lon="-4.592799972742796">
        <ele>1289.0250000000001</ele>
        <time>2021-07-09T20:59:39Z</time>
      </trkpt>
      <trkpt lat="40.618569999933243" lon="-4.592610038816929">
        <ele>1290.0340000000001</ele>
        <time>2021-07-09T20:59:44Z</time>
      </trkpt>
      <trkpt lat="40.618160041049123" lon="-4.59229001775384">
        <ele>1290.059</ele>
        <time>2021-07-09T20:59:52Z</time>
      </trkpt>
      <trkpt lat="40.617220010608435" lon="-4.591779978945851">
        <ele>1286.018</ele>
        <time>2021-07-09T21:00:10Z</time>
      </trkpt>
      <trkpt lat="40.615719985216856" lon="-4.590899962931871">
        <ele>1275.0740000000001</ele>
        <time>2021-07-09T21:00:40Z</time>
      </trkpt>
      <trkpt lat="40.615280019119382" lon="-4.590510036796331">
        <ele>1274.0699999999999</ele>
        <time>2021-07-09T21:00:49Z</time>
      </trkpt>
      <trkpt lat="40.614920016378164" lon="-4.589999997988343">
        <ele>1275.059</ele>
        <time>2021-07-09T21:00:59Z</time>
      </trkpt>
      <trkpt lat="40.6147800385952" lon="-4.589719958603382">
        <ele>1278.0029999999999</ele>
        <time>2021-07-09T21:01:03Z</time>
      </trkpt>
      <trkpt lat="40.614579962566495" lon="-4.589089974761009">
        <ele>1283.0229999999999</ele>
        <time>2021-07-09T21:01:12Z</time>
      </trkpt>
      <trkpt lat="40.614509973675013" lon="-4.588759979233146">
        <ele>1284.008</ele>
        <time>2021-07-09T21:01:17Z</time>
      </trkpt>
      <trkpt lat="40.614479966461658" lon="-4.588099988177419">
        <ele>1286.0119999999999</ele>
        <time>2021-07-09T21:01:26Z</time>
      </trkpt>
      <trkpt lat="40.614550039172173" lon="-4.586120015010238">
        <ele>1299.0619999999999</ele>
        <time>2021-07-09T21:01:53Z</time>
      </trkpt>
      <trkpt lat="40.614469991996884" lon="-4.585469998419285">
        <ele>1302.0820000000001</ele>
        <time>2021-07-09T21:02:01Z</time>
      </trkpt>
      <trkpt lat="40.614400003105402" lon="-4.585170010104775">
        <ele>1303.021</ele>
        <time>2021-07-09T21:02:06Z</time>
      </trkpt>
      <trkpt lat="40.614139996469021" lon="-4.584610015153885">
        <ele>1304.096</ele>
        <time>2021-07-09T21:02:15Z</time>
      </trkpt>
      <trkpt lat="40.613970011472702" lon="-4.584370041266084">
        <ele>1305.0250000000001</ele>
        <time>2021-07-09T21:02:19Z</time>
      </trkpt>
      <trkpt lat="40.61358000151813" lon="-4.583950024098158">
        <ele>1310.0609999999999</ele>
        <time>2021-07-09T21:02:28Z</time>
      </trkpt>
      <trkpt lat="40.61272001825273" lon="-4.583130022510886">
        <ele>1318.097</ele>
        <time>2021-07-09T21:02:47Z</time>
      </trkpt>
      <trkpt lat="40.612350041046739" lon="-4.582679998129606">
        <ele>1321.0340000000001</ele>
        <time>2021-07-09T21:02:56Z</time>
      </trkpt>
      <trkpt lat="40.612060027197003" lon="-4.582110028713942">
        <ele>1323.0550000000001</ele>
        <time>2021-07-09T21:03:05Z</time>
      </trkpt>
      <trkpt lat="40.611979980021715" lon="-4.581350041553378">
        <ele>1327.01</ele>
        <time>2021-07-09T21:03:15Z</time>
      </trkpt>
      <trkpt lat="40.611919965595007" lon="-4.580210018903017">
        <ele>1331.008</ele>
        <time>2021-07-09T21:03:31Z</time>
      </trkpt>
      <trkpt lat="40.611779987812042" lon="-4.578700019046664">
        <ele>1334.0599999999999</ele>
        <time>2021-07-09T21:03:51Z</time>
      </trkpt>
      <trkpt lat="40.611559962853789" lon="-4.576869998127222">
        <ele>1343.0699999999999</ele>
        <time>2021-07-09T21:04:16Z</time>
      </trkpt>
      <trkpt lat="40.611370028927922" lon="-4.575799964368343">
        <ele>1344.05</ele>
        <time>2021-07-09T21:04:31Z</time>
      </trkpt>
      <trkpt lat="40.609790040180087" lon="-4.568320037797093">
        <ele>1314.059</ele>
        <time>2021-07-09T21:06:16Z</time>
      </trkpt>
      <trkpt lat="40.609630029648542" lon="-4.567029979079962">
        <ele>1321.0940000000001</ele>
        <time>2021-07-09T21:06:34Z</time>
      </trkpt>
      <trkpt lat="40.609579989686608" lon="-4.5656499825418">
        <ele>1327.0229999999999</ele>
        <time>2021-07-09T21:06:53Z</time>
      </trkpt>
      <trkpt lat="40.609619971364737" lon="-4.564160015434027">
        <ele>1336.029</ele>
        <time>2021-07-09T21:07:13Z</time>
      </trkpt>
      <trkpt lat="40.609700018540025" lon="-4.562480030581355">
        <ele>1338.095</ele>
        <time>2021-07-09T21:07:35Z</time>
      </trkpt>
      <trkpt lat="40.609679985791445" lon="-4.558599963784218">
        <ele>1319.0319999999999</ele>
        <time>2021-07-09T21:08:28Z</time>
      </trkpt>
      <trkpt lat="40.609700018540025" lon="-4.558220012113452">
        <ele>1321.0920000000001</ele>
        <time>2021-07-09T21:08:33Z</time>
      </trkpt>
      <trkpt lat="40.609790040180087" lon="-4.557939972728491">
        <ele>1325.011</ele>
        <time>2021-07-09T21:08:37Z</time>
      </trkpt>
      <trkpt lat="40.609870003536344" lon="-4.557439992204309">
        <ele>1332.008</ele>
        <time>2021-07-09T21:08:44Z</time>
      </trkpt>
      <trkpt lat="40.609930017963052" lon="-4.556749993935227">
        <ele>1338.02</ele>
        <time>2021-07-09T21:08:53Z</time>
      </trkpt>
      <trkpt lat="40.610060021281242" lon="-4.553499994799495">
        <ele>1346.03</ele>
        <time>2021-07-09T21:09:37Z</time>
      </trkpt>
      <trkpt lat="40.610030014067888" lon="-4.552749982103705">
        <ele>1349.01</ele>
        <time>2021-07-09T21:09:47Z</time>
      </trkpt>
      <trkpt lat="40.609960025176406" lon="-4.55237003043294">
        <ele>1350.0989999999999</ele>
        <time>2021-07-09T21:09:53Z</time>
      </trkpt>
      <trkpt lat="40.609790040180087" lon="-4.551810035482049">
        <ele>1351.0239999999999</ele>
        <time>2021-07-09T21:10:01Z</time>
      </trkpt>
      <trkpt lat="40.609619971364737" lon="-4.551429999992251">
        <ele>1351.0630000000001</ele>
        <time>2021-07-09T21:10:07Z</time>
      </trkpt>
      <trkpt lat="40.609400030225515" lon="-4.551079971715808">
        <ele>1350.079</ele>
        <time>2021-07-09T21:10:13Z</time>
      </trkpt>
      <trkpt lat="40.609140023589134" lon="-4.550770008936524">
        <ele>1350.0450000000001</ele>
        <time>2021-07-09T21:10:19Z</time>
      </trkpt>
      <trkpt lat="40.608459999784827" lon="-4.550110017880797">
        <ele>1346.046</ele>
        <time>2021-07-09T21:10:34Z</time>
      </trkpt>
      <trkpt lat="40.607709987089038" lon="-4.549309965223074">
        <ele>1345.088</ele>
        <time>2021-07-09T21:10:51Z</time>
      </trkpt>
      <trkpt lat="40.60734998434782" lon="-4.548719963058829">
        <ele>1347.0160000000001</ele>
        <time>2021-07-09T21:11:02Z</time>
      </trkpt>
      <trkpt lat="40.607049996033311" lon="-4.548040023073554">
        <ele>1349.008</ele>
        <time>2021-07-09T21:11:12Z</time>
      </trkpt>
      <trkpt lat="40.606889985501766" lon="-4.547550017014146">
        <ele>1353.021</ele>
        <time>2021-07-09T21:11:19Z</time>
      </trkpt>
      <trkpt lat="40.606720000505447" lon="-4.5467200409621">
        <ele>1357.021</ele>
        <time>2021-07-09T21:11:31Z</time>
      </trkpt>
      <trkpt lat="40.606680018827319" lon="-4.546210002154112">
        <ele>1360.021</ele>
        <time>2021-07-09T21:11:38Z</time>
      </trkpt>
      <trkpt lat="40.606710026040673" lon="-4.545659981667996">
        <ele>1362.01</ele>
        <time>2021-07-09T21:11:45Z</time>
      </trkpt>
      <trkpt lat="40.606750007718801" lon="-4.545469963923097">
        <ele>1363.085</ele>
        <time>2021-07-09T21:11:48Z</time>
      </trkpt>
      <trkpt lat="40.606889985501766" lon="-4.544219970703125">
        <ele>1365.0440000000001</ele>
        <time>2021-07-09T21:12:05Z</time>
      </trkpt>
      <trkpt lat="40.607129959389567" lon="-4.543029991909862">
        <ele>1365.0799999999999</ele>
        <time>2021-07-09T21:12:22Z</time>
      </trkpt>
      <trkpt lat="40.6073700170964" lon="-4.540990004315972">
        <ele>1368.046</ele>
        <time>2021-07-09T21:12:50Z</time>
      </trkpt>
      <trkpt lat="40.607589958235621" lon="-4.539770018309355">
        <ele>1375.077</ele>
        <time>2021-07-09T21:13:07Z</time>
      </trkpt>
      <trkpt lat="40.607809983193874" lon="-4.538910035043955">
        <ele>1374.0609999999999</ele>
        <time>2021-07-09T21:13:19Z</time>
      </trkpt>
      <trkpt lat="40.608780020847917" lon="-4.53597997315228">
        <ele>1378.027</ele>
        <time>2021-07-09T21:14:02Z</time>
      </trkpt>
      <trkpt lat="40.608910024166107" lon="-4.535509999841452">
        <ele>1378.008</ele>
        <time>2021-07-09T21:14:09Z</time>
      </trkpt>
      <trkpt lat="40.609070034697652" lon="-4.534780019894242">
        <ele>1378.0840000000001</ele>
        <time>2021-07-09T21:14:19Z</time>
      </trkpt>
      <trkpt lat="40.609500026330352" lon="-4.532220019027591">
        <ele>1373.0440000000001</ele>
        <time>2021-07-09T21:14:55Z</time>
      </trkpt>
      <trkpt lat="40.609809989109635" lon="-4.531600009649992">
        <ele>1370.0139999999999</ele>
        <time>2021-07-09T21:15:05Z</time>
      </trkpt>
      <trkpt lat="40.609919959679246" lon="-4.531309995800257">
        <ele>1370.0630000000001</ele>
        <time>2021-07-09T21:15:09Z</time>
      </trkpt>
      <trkpt lat="40.610079970210791" lon="-4.530750000849366">
        <ele>1369.028</ele>
        <time>2021-07-09T21:15:17Z</time>
      </trkpt>
      <trkpt lat="40.610529994592071" lon="-4.528829958289862">
        <ele>1373.097</ele>
        <time>2021-07-09T21:15:44Z</time>
      </trkpt>
      <trkpt lat="40.610629990696907" lon="-4.528269963338971">
        <ele>1376.0329999999999</ele>
        <time>2021-07-09T21:15:52Z</time>
      </trkpt>
      <trkpt lat="40.610699979588389" lon="-4.527420038357377">
        <ele>1380.0889999999999</ele>
        <time>2021-07-09T21:16:03Z</time>
      </trkpt>
      <trkpt lat="40.610820008441806" lon="-4.524500034749508">
        <ele>1394.076</ele>
        <time>2021-07-09T21:16:43Z</time>
      </trkpt>
      <trkpt lat="40.610899971798062" lon="-4.524059984833002">
        <ele>1396.0899999999999</ele>
        <time>2021-07-09T21:16:49Z</time>
      </trkpt>
      <trkpt lat="40.611040033400059" lon="-4.523639967665076">
        <ele>1398.019</ele>
        <time>2021-07-09T21:16:55Z</time>
      </trkpt>
      <trkpt lat="40.611270032823086" lon="-4.523269990459085">
        <ele>1400.008</ele>
        <time>2021-07-09T21:17:02Z</time>
      </trkpt>
      <trkpt lat="40.612750025466084" lon="-4.521309966221452">
        <ele>1397.0239999999999</ele>
        <time>2021-07-09T21:17:39Z</time>
      </trkpt>
      <trkpt lat="40.614060033112764" lon="-4.519260004162788">
        <ele>1411.0239999999999</ele>
        <time>2021-07-09T21:18:15Z</time>
      </trkpt>
      <trkpt lat="40.614620028063655" lon="-4.518590038642287">
        <ele>1413.0139999999999</ele>
        <time>2021-07-09T21:18:29Z</time>
      </trkpt>
      <trkpt lat="40.614909958094358" lon="-4.518289966508746">
        <ele>1414.0329999999999</ele>
        <time>2021-07-09T21:18:35Z</time>
      </trkpt>
      <trkpt lat="40.61561998911202" lon="-4.517870033159852">
        <ele>1420.068</ele>
        <time>2021-07-09T21:18:49Z</time>
      </trkpt>
      <trkpt lat="40.616360027343035" lon="-4.517269972711802">
        <ele>1424.0170000000001</ele>
        <time>2021-07-09T21:19:05Z</time>
      </trkpt>
      <trkpt lat="40.616709971800447" lon="-4.517029998824">
        <ele>1426.0930000000001</ele>
        <time>2021-07-09T21:19:12Z</time>
      </trkpt>
      <trkpt lat="40.617259992286563" lon="-4.516760017722845">
        <ele>1429.039</ele>
        <time>2021-07-09T21:19:22Z</time>
      </trkpt>
      <trkpt lat="40.619069980457425" lon="-4.51604001224041">
        <ele>1438.088</ele>
        <time>2021-07-09T21:19:56Z</time>
      </trkpt>
      <trkpt lat="40.619559986516833" lon="-4.515759972855449">
        <ele>1440.0239999999999</ele>
        <time>2021-07-09T21:20:05Z</time>
      </trkpt>
      <trkpt lat="40.620019985362887" lon="-4.515420002862811">
        <ele>1442.0260000000001</ele>
        <time>2021-07-09T21:20:15Z</time>
      </trkpt>
      <trkpt lat="40.620719958096743" lon="-4.514799993485212">
        <ele>1444.008</ele>
        <time>2021-07-09T21:20:30Z</time>
      </trkpt>
      <trkpt lat="40.620960015803576" lon="-4.514509979635477">
        <ele>1445.085</ele>
        <time>2021-07-09T21:20:35Z</time>
      </trkpt>
      <trkpt lat="40.621130000799894" lon="-4.514119969680905">
        <ele>1443.0350000000001</ele>
        <time>2021-07-09T21:20:41Z</time>
      </trkpt>
      <trkpt lat="40.621199989691377" lon="-4.513649996370077">
        <ele>1443.075</ele>
        <time>2021-07-09T21:20:48Z</time>
      </trkpt>
      <trkpt lat="40.621180040761828" lon="-4.513189997524023">
        <ele>1442.0740000000001</ele>
        <time>2021-07-09T21:20:54Z</time>
      </trkpt>
      <trkpt lat="40.621050037443638" lon="-4.512750031426549">
        <ele>1444.0989999999999</ele>
        <time>2021-07-09T21:21:01Z</time>
      </trkpt>
      <trkpt lat="40.620309999212623" lon="-4.511080021038652">
        <ele>1453.048</ele>
        <time>2021-07-09T21:21:27Z</time>
      </trkpt>
      <trkpt lat="40.62008997425437" lon="-4.510409971699119">
        <ele>1452.0640000000001</ele>
        <time>2021-07-09T21:21:37Z</time>
      </trkpt>
      <trkpt lat="40.620040018111467" lon="-4.510169997811317">
        <ele>1451.03</ele>
        <time>2021-07-09T21:21:40Z</time>
      </trkpt>
      <trkpt lat="40.620049992576241" lon="-4.509349996224046">
        <ele>1451.0350000000001</ele>
        <time>2021-07-09T21:21:51Z</time>
      </trkpt>
      <trkpt lat="40.619959970936179" lon="-4.508160017430782">
        <ele>1447.086</ele>
        <time>2021-07-09T21:22:07Z</time>
      </trkpt>
      <trkpt lat="40.61933996155858" lon="-4.503470007330179">
        <ele>1423.0139999999999</ele>
        <time>2021-07-09T21:23:11Z</time>
      </trkpt>
      <trkpt lat="40.619269972667098" lon="-4.503210000693798">
        <ele>1423.008</ele>
        <time>2021-07-09T21:23:15Z</time>
      </trkpt>
      <trkpt lat="40.619050031527877" lon="-4.50274002738297">
        <ele>1422.0599999999999</ele>
        <time>2021-07-09T21:23:23Z</time>
      </trkpt>
      <trkpt lat="40.618749959394336" lon="-4.502339959144592">
        <ele>1420.0699999999999</ele>
        <time>2021-07-09T21:23:30Z</time>
      </trkpt>
      <trkpt lat="40.61839004047215" lon="-4.502029996365309">
        <ele>1417.0799999999999</ele>
        <time>2021-07-09T21:23:38Z</time>
      </trkpt>
      <trkpt lat="40.617180028930306" lon="-4.501289958134294">
        <ele>1408.0889999999999</ele>
        <time>2021-07-09T21:24:02Z</time>
      </trkpt>
      <trkpt lat="40.615789974108338" lon="-4.500640025362372">
        <ele>1392.0940000000001</ele>
        <time>2021-07-09T21:24:28Z</time>
      </trkpt>
      <trkpt lat="40.615419996902347" lon="-4.500559978187084">
        <ele>1389.0730000000001</ele>
        <time>2021-07-09T21:24:34Z</time>
      </trkpt>
      <trkpt lat="40.614449959248304" lon="-4.5004400331527">
        <ele>1384.079</ele>
        <time>2021-07-09T21:24:52Z</time>
      </trkpt>
      <trkpt lat="40.614279974251986" lon="-4.50039996765554">
        <ele>1384.0150000000001</ele>
        <time>2021-07-09T21:24:55Z</time>
      </trkpt>
      <trkpt lat="40.613840008154511" lon="-4.500050023198128">
        <ele>1386.0619999999999</ele>
        <time>2021-07-09T21:25:04Z</time>
      </trkpt>
      <trkpt lat="40.613630041480064" lon="-4.499820023775101">
        <ele>1384.0830000000001</ele>
        <time>2021-07-09T21:25:09Z</time>
      </trkpt>
      <trkpt lat="40.613440023735166" lon="-4.499469995498657">
        <ele>1380.011</ele>
        <time>2021-07-09T21:25:15Z</time>
      </trkpt>
      <trkpt lat="40.613359976559877" lon="-4.499200014397502">
        <ele>1378.008</ele>
        <time>2021-07-09T21:25:19Z</time>
      </trkpt>
      <trkpt lat="40.613319994881749" lon="-4.49868000112474">
        <ele>1374.0329999999999</ele>
        <time>2021-07-09T21:25:26Z</time>
      </trkpt>
      <trkpt lat="40.613370034843683" lon="-4.498189995065332">
        <ele>1374.0730000000001</ele>
        <time>2021-07-09T21:25:32Z</time>
      </trkpt>
      <trkpt lat="40.613630041480064" lon="-4.496589973568916">
        <ele>1373.0830000000001</ele>
        <time>2021-07-09T21:25:54Z</time>
      </trkpt>
      <trkpt lat="40.613640015944839" lon="-4.496380006894469">
        <ele>1372.0419999999999</ele>
        <time>2021-07-09T21:25:57Z</time>
      </trkpt>
      <trkpt lat="40.613540019840002" lon="-4.495950015261769">
        <ele>1366.067</ele>
        <time>2021-07-09T21:26:03Z</time>
      </trkpt>
      <trkpt lat="40.613440023735166" lon="-4.495759997516871">
        <ele>1364.0360000000001</ele>
        <time>2021-07-09T21:26:06Z</time>
      </trkpt>
      <trkpt lat="40.613319994881749" lon="-4.495599986985326">
        <ele>1363.0519999999999</ele>
        <time>2021-07-09T21:26:10Z</time>
      </trkpt>
      <trkpt lat="40.61302000656724" lon="-4.495369987562299">
        <ele>1369.048</ele>
        <time>2021-07-09T21:26:16Z</time>
      </trkpt>
      <trkpt lat="40.612850021570921" lon="-4.495320031419396">
        <ele>1373.046</ele>
        <time>2021-07-09T21:26:19Z</time>
      </trkpt>
      <trkpt lat="40.612680036574602" lon="-4.495299998670816">
        <ele>1376.088</ele>
        <time>2021-07-09T21:26:22Z</time>
      </trkpt>
      <trkpt lat="40.612360015511513" lon="-4.495369987562299">
        <ele>1380.0160000000001</ele>
        <time>2021-07-09T21:26:28Z</time>
      </trkpt>
      <trkpt lat="40.612230012193322" lon="-4.495490016415715">
        <ele>1381.008</ele>
        <time>2021-07-09T21:26:30Z</time>
      </trkpt>
      <trkpt lat="40.611990038305521" lon="-4.495899975299835">
        <ele>1381.021</ele>
        <time>2021-07-09T21:26:37Z</time>
      </trkpt>
      <trkpt lat="40.611800020560622" lon="-4.496340025216341">
        <ele>1380.0809999999999</ele>
        <time>2021-07-09T21:26:44Z</time>
      </trkpt>
      <trkpt lat="40.611440017819405" lon="-4.497330011799932">
        <ele>1377.0709999999999</ele>
        <time>2021-07-09T21:26:59Z</time>
      </trkpt>
      <trkpt lat="40.61130004003644" lon="-4.497620025649667">
        <ele>1377.01</ele>
        <time>2021-07-09T21:27:04Z</time>
      </trkpt>
      <trkpt lat="40.611080015078187" lon="-4.498010035604239">
        <ele>1380.075</ele>
        <time>2021-07-09T21:27:10Z</time>
      </trkpt>
      <trkpt lat="40.610690005123615" lon="-4.498510016128421">
        <ele>1384.0540000000001</ele>
        <time>2021-07-09T21:27:20Z</time>
      </trkpt>
      <trkpt lat="40.61042002402246" lon="-4.498749990016222">
        <ele>1385.01</ele>
        <time>2021-07-09T21:27:26Z</time>
      </trkpt>
      <trkpt lat="40.609879978001118" lon="-4.499119967222214">
        <ele>1391.046</ele>
        <time>2021-07-09T21:27:37Z</time>
      </trkpt>
      <trkpt lat="40.609470019116998" lon="-4.499330017715693">
        <ele>1390.037</ele>
        <time>2021-07-09T21:27:44Z</time>
      </trkpt>
      <trkpt lat="40.609099958091974" lon="-4.499430013820529">
        <ele>1390.049</ele>
        <time>2021-07-09T21:27:51Z</time>
      </trkpt>
      <trkpt lat="40.608520014211535" lon="-4.499460021033883">
        <ele>1389.0129999999999</ele>
        <time>2021-07-09T21:28:01Z</time>
      </trkpt>
      <trkpt lat="40.608329996466637" lon="-4.499430013820529">
        <ele>1388.008</ele>
        <time>2021-07-09T21:28:05Z</time>
      </trkpt>
      <trkpt lat="40.607930012047291" lon="-4.499319959431887">
        <ele>1387.01</ele>
        <time>2021-07-09T21:28:12Z</time>
      </trkpt>
      <trkpt lat="40.606459993869066" lon="-4.498819978907704">
        <ele>1384.01</ele>
        <time>2021-07-09T21:28:39Z</time>
      </trkpt>
      <trkpt lat="40.604220014065504" lon="-4.498419994488359">
        <ele>1383.0699999999999</ele>
        <time>2021-07-09T21:29:19Z</time>
      </trkpt>
      <trkpt lat="40.60330999083817" lon="-4.49835998006165">
        <ele>1380.079</ele>
        <time>2021-07-09T21:29:36Z</time>
      </trkpt>
      <trkpt lat="40.602139960974455" lon="-4.498410020023584">
        <ele>1377.0940000000001</ele>
        <time>2021-07-09T21:29:56Z</time>
      </trkpt>
      <trkpt lat="40.601469995453954" lon="-4.49868000112474">
        <ele>1378.0830000000001</ele>
        <time>2021-07-09T21:30:09Z</time>
      </trkpt>
      <trkpt lat="40.600519990548491" lon="-4.498949982225895">
        <ele>1378.049</ele>
        <time>2021-07-09T21:30:26Z</time>
      </trkpt>
      <trkpt lat="40.598789965733886" lon="-4.499360024929047">
        <ele>1379.095</ele>
        <time>2021-07-09T21:30:57Z</time>
      </trkpt>
      <trkpt lat="40.598600031808019" lon="-4.499390032142401">
        <ele>1380.049</ele>
        <time>2021-07-09T21:31:01Z</time>
      </trkpt>
      <trkpt lat="40.598059985786676" lon="-4.499400006607175">
        <ele>1380.002</ele>
        <time>2021-07-09T21:31:10Z</time>
      </trkpt>
      <trkpt lat="40.59755003079772" lon="-4.499279977753758">
        <ele>1379.0219999999999</ele>
        <time>2021-07-09T21:31:20Z</time>
      </trkpt>
      <trkpt lat="40.597390020266175" lon="-4.499209988862276">
        <ele>1378.008</ele>
        <time>2021-07-09T21:31:23Z</time>
      </trkpt>
      <trkpt lat="40.596070038154721" lon="-4.498150013387203">
        <ele>1363.021</ele>
        <time>2021-07-09T21:31:50Z</time>
      </trkpt>
      <trkpt lat="40.595550024881959" lon="-4.497639974579215">
        <ele>1360.021</ele>
        <time>2021-07-09T21:32:02Z</time>
      </trkpt>
      <trkpt lat="40.595069993287325" lon="-4.497079979628325">
        <ele>1356.0509999999999</ele>
        <time>2021-07-09T21:32:13Z</time>
      </trkpt>
      <trkpt lat="40.59493001550436" lon="-4.496879987418652">
        <ele>1355.0799999999999</ele>
        <time>2021-07-09T21:32:17Z</time>
      </trkpt>
      <trkpt lat="40.594540005549788" lon="-4.496189989149571">
        <ele>1351.075</ele>
        <time>2021-07-09T21:32:28Z</time>
      </trkpt>
      <trkpt lat="40.59362000785768" lon="-4.494170034304261">
        <ele>1343.0640000000001</ele>
        <time>2021-07-09T21:33:00Z</time>
      </trkpt>
      <trkpt lat="40.592479985207319" lon="-4.492340013384819">
        <ele>1339.0799999999999</ele>
        <time>2021-07-09T21:33:32Z</time>
      </trkpt>
      <trkpt lat="40.592300025746226" lon="-4.491929970681667">
        <ele>1340.0360000000001</ele>
        <time>2021-07-09T21:33:39Z</time>
      </trkpt>
      <trkpt lat="40.592230036854744" lon="-4.491710029542446">
        <ele>1340.0630000000001</ele>
        <time>2021-07-09T21:33:42Z</time>
      </trkpt>
      <trkpt lat="40.592080000787973" lon="-4.490830013528466">
        <ele>1347.0440000000001</ele>
        <time>2021-07-09T21:33:54Z</time>
      </trkpt>
      <trkpt lat="40.591949997469783" lon="-4.489880008623004">
        <ele>1351.018</ele>
        <time>2021-07-09T21:34:07Z</time>
      </trkpt>
      <trkpt lat="40.591919990256429" lon="-4.489009967073798">
        <ele>1352.008</ele>
        <time>2021-07-09T21:34:19Z</time>
      </trkpt>
      <trkpt lat="40.591989979147911" lon="-4.488179991021752">
        <ele>1350.0129999999999</ele>
        <time>2021-07-09T21:34:30Z</time>
      </trkpt>
      <trkpt lat="40.592549974098802" lon="-4.485320001840591">
        <ele>1335.0429999999999</ele>
        <time>2021-07-09T21:35:10Z</time>
      </trkpt>
      <trkpt lat="40.592600014060736" lon="-4.484760006889701">
        <ele>1332.0129999999999</ele>
        <time>2021-07-09T21:35:18Z</time>
      </trkpt>
      <trkpt lat="40.592590039595962" lon="-4.484490025788546">
        <ele>1330.0719999999999</ele>
        <time>2021-07-09T21:35:21Z</time>
      </trkpt>
      <trkpt lat="40.592500017955899" lon="-4.483970012515783">
        <ele>1328.057</ele>
        <time>2021-07-09T21:35:29Z</time>
      </trkpt>
      <trkpt lat="40.592279992997646" lon="-4.483259981498122">
        <ele>1327.0360000000001</ele>
        <time>2021-07-09T21:35:39Z</time>
      </trkpt>
      <trkpt lat="40.59220002964139" lon="-4.483050014823675">
        <ele>1327.0820000000001</ele>
        <time>2021-07-09T21:35:42Z</time>
      </trkpt>
      <trkpt lat="40.591910015791655" lon="-4.482490019872785">
        <ele>1329.088</ele>
        <time>2021-07-09T21:35:51Z</time>
      </trkpt>
      <trkpt lat="40.591799961403012" lon="-4.482060028240085">
        <ele>1331.0319999999999</ele>
        <time>2021-07-09T21:35:57Z</time>
      </trkpt>
      <trkpt lat="40.591540038585663" lon="-4.481440018862486">
        <ele>1334.0920000000001</ele>
        <time>2021-07-09T21:36:07Z</time>
      </trkpt>
      <trkpt lat="40.591390002518892" lon="-4.481170037761331">
        <ele>1334.011</ele>
        <time>2021-07-09T21:36:11Z</time>
      </trkpt>
      <trkpt lat="40.588839976117015" lon="-4.477189974859357">
        <ele>1319.008</ele>
        <time>2021-07-09T21:37:22Z</time>
      </trkpt>
      <trkpt lat="40.588609976693988" lon="-4.476689994335175">
        <ele>1317.0599999999999</ele>
        <time>2021-07-09T21:37:30Z</time>
      </trkpt>
      <trkpt lat="40.588439991697669" lon="-4.476129999384284">
        <ele>1313.04</ele>
        <time>2021-07-09T21:37:38Z</time>
      </trkpt>
      <trkpt lat="40.588309988379478" lon="-4.475560029968619">
        <ele>1309.0599999999999</ele>
        <time>2021-07-09T21:37:46Z</time>
      </trkpt>
      <trkpt lat="40.588279981166124" lon="-4.475279990583658">
        <ele>1309.0989999999999</ele>
        <time>2021-07-09T21:37:50Z</time>
      </trkpt>
      <trkpt lat="40.58827000670135" lon="-4.474729970097542">
        <ele>1305.0540000000001</ele>
        <time>2021-07-09T21:37:57Z</time>
      </trkpt>
      <trkpt lat="40.58829003944993" lon="-4.474459988996387">
        <ele>1303.0830000000001</ele>
        <time>2021-07-09T21:38:01Z</time>
      </trkpt>
      <trkpt lat="40.588430017232895" lon="-4.473969982936978">
        <ele>1300.029</ele>
        <time>2021-07-09T21:38:08Z</time>
      </trkpt>
      <trkpt lat="40.588909965008497" lon="-4.473309991881251">
        <ele>1299.0550000000001</ele>
        <time>2021-07-09T21:38:20Z</time>
      </trkpt>
      <trkpt lat="40.589389996603131" lon="-4.472480015829206">
        <ele>1297.021</ele>
        <time>2021-07-09T21:38:34Z</time>
      </trkpt>
      <trkpt lat="40.590089969336987" lon="-4.471119968220592">
        <ele>1288.0409999999999</ele>
        <time>2021-07-09T21:38:57Z</time>
      </trkpt>
      <trkpt lat="40.59043999761343" lon="-4.470259984955192">
        <ele>1282.0050000000001</ele>
        <time>2021-07-09T21:39:10Z</time>
      </trkpt>
      <trkpt lat="40.590620040893555" lon="-4.469650033861399">
        <ele>1281.008</ele>
        <time>2021-07-09T21:39:19Z</time>
      </trkpt>
      <trkpt lat="40.591109963133931" lon="-4.46729002520442">
        <ele>1286.029</ele>
        <time>2021-07-09T21:39:52Z</time>
      </trkpt>
      <trkpt lat="40.591199984773993" lon="-4.466589968651533">
        <ele>1288.019</ele>
        <time>2021-07-09T21:40:01Z</time>
      </trkpt>
      <trkpt lat="40.59129998087883" lon="-4.465020038187504">
        <ele>1291.019</ele>
        <time>2021-07-09T21:40:22Z</time>
      </trkpt>
      <trkpt lat="40.591339962556958" lon="-4.464739998802543">
        <ele>1291.088</ele>
        <time>2021-07-09T21:40:26Z</time>
      </trkpt>
      <trkpt lat="40.591550013050437" lon="-4.464340014383197">
        <ele>1291.0229999999999</ele>
        <time>2021-07-09T21:40:33Z</time>
      </trkpt>
      <trkpt lat="40.591799961403012" lon="-4.463629983365536">
        <ele>1292.0419999999999</ele>
        <time>2021-07-09T21:40:43Z</time>
      </trkpt>
      <trkpt lat="40.592249985784292" lon="-4.461740031838417">
        <ele>1294.048</ele>
        <time>2021-07-09T21:41:10Z</time>
      </trkpt>
      <trkpt lat="40.592549974098802" lon="-4.460860015824437">
        <ele>1290.0540000000001</ele>
        <time>2021-07-09T21:41:23Z</time>
      </trkpt>
      <trkpt lat="40.592909976840019" lon="-4.460010007023811">
        <ele>1291.0540000000001</ele>
        <time>2021-07-09T21:41:36Z</time>
      </trkpt>
      <trkpt lat="40.593959977850318" lon="-4.457840016111732">
        <ele>1293.056</ele>
        <time>2021-07-09T21:42:11Z</time>
      </trkpt>
      <trkpt lat="40.594149995595217" lon="-4.457259988412261">
        <ele>1292.011</ele>
        <time>2021-07-09T21:42:20Z</time>
      </trkpt>
      <trkpt lat="40.594240017235279" lon="-4.456690018996596">
        <ele>1291.008</ele>
        <time>2021-07-09T21:42:28Z</time>
      </trkpt>
      <trkpt lat="40.594259966164827" lon="-4.455629959702492">
        <ele>1285.0519999999999</ele>
        <time>2021-07-09T21:42:42Z</time>
      </trkpt>
      <trkpt lat="40.594400027766824" lon="-4.455040041357279">
        <ele>1281.0419999999999</ele>
        <time>2021-07-09T21:42:50Z</time>
      </trkpt>
      <trkpt lat="40.594549980014563" lon="-4.454209981486201">
        <ele>1276.0820000000001</ele>
        <time>2021-07-09T21:43:02Z</time>
      </trkpt>
      <trkpt lat="40.594649976119399" lon="-4.453470027074218">
        <ele>1272.011</ele>
        <time>2021-07-09T21:43:12Z</time>
      </trkpt>
      <trkpt lat="40.594979971647263" lon="-4.451730027794838">
        <ele>1269.0260000000001</ele>
        <time>2021-07-09T21:43:36Z</time>
      </trkpt>
      <trkpt lat="40.595350032672286" lon="-4.449370019137859">
        <ele>1257.075</ele>
        <time>2021-07-09T21:44:09Z</time>
      </trkpt>
      <trkpt lat="40.595610039308667" lon="-4.448069985955954">
        <ele>1254.0309999999999</ele>
        <time>2021-07-09T21:44:27Z</time>
      </trkpt>
      <trkpt lat="40.595759991556406" lon="-4.446659982204437">
        <ele>1249.027</ele>
        <time>2021-07-09T21:44:46Z</time>
      </trkpt>
      <trkpt lat="40.596229964867234" lon="-4.446069980040193">
        <ele>1247.097</ele>
        <time>2021-07-09T21:44:58Z</time>
      </trkpt>
      <trkpt lat="40.596540011465549" lon="-4.44543999619782">
        <ele>1243.0229999999999</ele>
        <time>2021-07-09T21:45:08Z</time>
      </trkpt>
      <trkpt lat="40.596660040318966" lon="-4.444770030677319">
        <ele>1240.0250000000001</ele>
        <time>2021-07-09T21:45:17Z</time>
      </trkpt>
      <trkpt lat="40.596619974821806" lon="-4.444110039621592">
        <ele>1237.008</ele>
        <time>2021-07-09T21:45:26Z</time>
      </trkpt>
      <trkpt lat="40.596449989825487" lon="-4.443520037457347">
        <ele>1239.056</ele>
        <time>2021-07-09T21:45:35Z</time>
      </trkpt>
      <trkpt lat="40.596189983189106" lon="-4.443000024184585">
        <ele>1244.096</ele>
        <time>2021-07-09T21:45:43Z</time>
      </trkpt>
      <trkpt lat="40.596019998192787" lon="-4.442759966477752">
        <ele>1246.086</ele>
        <time>2021-07-09T21:45:47Z</time>
      </trkpt>
      <trkpt lat="40.59563996270299" lon="-4.44238998927176">
        <ele>1250.075</ele>
        <time>2021-07-09T21:45:56Z</time>
      </trkpt>
      <trkpt lat="40.594359962269664" lon="-4.441499998793006">
        <ele>1256.0699999999999</ele>
        <time>2021-07-09T21:46:22Z</time>
      </trkpt>
      <trkpt lat="40.593759985640645" lon="-4.440960036590695">
        <ele>1256.059</ele>
        <time>2021-07-09T21:46:35Z</time>
      </trkpt>
      <trkpt lat="40.592700010165572" lon="-4.4397699739784">
        <ele>1259.0250000000001</ele>
        <time>2021-07-09T21:46:59Z</time>
      </trkpt>
      <trkpt lat="40.592460036277771" lon="-4.439330007880926">
        <ele>1260.0909999999999</ele>
        <time>2021-07-09T21:47:07Z</time>
      </trkpt>
      <trkpt lat="40.592319974675775" lon="-4.438719972968102">
        <ele>1261.018</ele>
        <time>2021-07-09T21:47:15Z</time>
      </trkpt>
      <trkpt lat="40.592219978570938" lon="-4.437859989702702">
        <ele>1263.098</ele>
        <time>2021-07-09T21:47:27Z</time>
      </trkpt>
      <trkpt lat="40.592100033536553" lon="-4.437199998646975">
        <ele>1264.0170000000001</ele>
        <time>2021-07-09T21:47:36Z</time>
      </trkpt>
      <trkpt lat="40.591209959238768" lon="-4.433529982343316">
        <ele>1253.008</ele>
        <time>2021-07-09T21:48:28Z</time>
      </trkpt>
      <trkpt lat="40.591009967029095" lon="-4.432960012927651">
        <ele>1251.018</ele>
        <time>2021-07-09T21:48:37Z</time>
      </trkpt>
      <trkpt lat="40.590679971501231" lon="-4.432210000231862">
        <ele>1249.058</ele>
        <time>2021-07-09T21:48:48Z</time>
      </trkpt>
      <trkpt lat="40.590509986504912" lon="-4.431759975850582">
        <ele>1249.018</ele>
        <time>2021-07-09T21:48:55Z</time>
      </trkpt>
      <trkpt lat="40.590379983186722" lon="-4.431310035288334">
        <ele>1248.037</ele>
        <time>2021-07-09T21:49:02Z</time>
      </trkpt>
      <trkpt lat="40.590300019830465" lon="-4.430820029228926">
        <ele>1246.0219999999999</ele>
        <time>2021-07-09T21:49:09Z</time>
      </trkpt>
      <trkpt lat="40.590270012617111" lon="-4.430270008742809">
        <ele>1245.0809999999999</ele>
        <time>2021-07-09T21:49:16Z</time>
      </trkpt>
      <trkpt lat="40.590159958228469" lon="-4.429459981620312">
        <ele>1243.077</ele>
        <time>2021-07-09T21:49:27Z</time>
      </trkpt>
      <trkpt lat="40.589640028774738" lon="-4.427150012925267">
        <ele>1245.0329999999999</ele>
        <time>2021-07-09T21:50:00Z</time>
      </trkpt>
      <trkpt lat="40.589410029351711" lon="-4.426379967480898">
        <ele>1249.0630000000001</ele>
        <time>2021-07-09T21:50:11Z</time>
      </trkpt>
      <trkpt lat="40.588939972221851" lon="-4.425299959257245">
        <ele>1254.0440000000001</ele>
        <time>2021-07-09T21:50:28Z</time>
      </trkpt>
      <trkpt lat="40.588820027187467" lon="-4.424899974837899">
        <ele>1255.018</ele>
        <time>2021-07-09T21:50:33Z</time>
      </trkpt>
      <trkpt lat="40.588739980012178" lon="-4.424480041489005">
        <ele>1254.008</ele>
        <time>2021-07-09T21:50:39Z</time>
      </trkpt>
      <trkpt lat="40.58872003108263" lon="-4.424000009894371">
        <ele>1254.0730000000001</ele>
        <time>2021-07-09T21:50:46Z</time>
      </trkpt>
      <trkpt lat="40.588630009442568" lon="-4.42328997887671">
        <ele>1252.0930000000001</ele>
        <time>2021-07-09T21:50:56Z</time>
      </trkpt>
      <trkpt lat="40.588520038872957" lon="-4.422720009461045">
        <ele>1250.0129999999999</ele>
        <time>2021-07-09T21:51:03Z</time>
      </trkpt>
      <trkpt lat="40.58768997900188" lon="-4.419319974258542">
        <ele>1243.0820000000001</ele>
        <time>2021-07-09T21:51:52Z</time>
      </trkpt>
      <trkpt lat="40.587550001218915" lon="-4.418880008161068">
        <ele>1243.057</ele>
        <time>2021-07-09T21:51:58Z</time>
      </trkpt>
      <trkpt lat="40.587229980155826" lon="-4.418029999360442">
        <ele>1243.066</ele>
        <time>2021-07-09T21:52:11Z</time>
      </trkpt>
      <trkpt lat="40.587180024012923" lon="-4.41750998608768">
        <ele>1242.0419999999999</ele>
        <time>2021-07-09T21:52:18Z</time>
      </trkpt>
      <trkpt lat="40.587090002372861" lon="-4.417230030521751">
        <ele>1242.038</ele>
        <time>2021-07-09T21:52:22Z</time>
      </trkpt>
      <trkpt lat="40.587020013481379" lon="-4.416719991713762">
        <ele>1242.039</ele>
        <time>2021-07-09T21:52:29Z</time>
      </trkpt>
      <trkpt lat="40.586799988523126" lon="-4.415690023452044">
        <ele>1244.001</ele>
        <time>2021-07-09T21:52:44Z</time>
      </trkpt>
      <trkpt lat="40.585229974240065" lon="-4.409509962424636">
        <ele>1266.021</ele>
        <time>2021-07-09T21:54:12Z</time>
      </trkpt>
      <trkpt lat="40.585099970921874" lon="-4.408689960837364">
        <ele>1269.008</ele>
        <time>2021-07-09T21:54:23Z</time>
      </trkpt>
      <trkpt lat="40.58506996370852" lon="-4.408319983631373">
        <ele>1270.0699999999999</ele>
        <time>2021-07-09T21:54:28Z</time>
      </trkpt>
      <trkpt lat="40.585080021992326" lon="-4.407940031960607">
        <ele>1271.0799999999999</ele>
        <time>2021-07-09T21:54:33Z</time>
      </trkpt>
      <trkpt lat="40.585120003670454" lon="-4.407569970935583">
        <ele>1272.03</ele>
        <time>2021-07-09T21:54:38Z</time>
      </trkpt>
      <trkpt lat="40.585210025310516" lon="-4.407199993729591">
        <ele>1273.049</ele>
        <time>2021-07-09T21:54:43Z</time>
      </trkpt>
      <trkpt lat="40.585849983617663" lon="-4.405350023880601">
        <ele>1281.0440000000001</ele>
        <time>2021-07-09T21:55:11Z</time>
      </trkpt>
      <trkpt lat="40.58607998304069" lon="-4.404579978436232">
        <ele>1283.0429999999999</ele>
        <time>2021-07-09T21:55:22Z</time>
      </trkpt>
      <trkpt lat="40.586650036275387" lon="-4.403029996901751">
        <ele>1287.019</ele>
        <time>2021-07-09T21:55:45Z</time>
      </trkpt>
      <trkpt lat="40.586839970201254" lon="-4.402209995314479">
        <ele>1289.085</ele>
        <time>2021-07-09T21:55:57Z</time>
      </trkpt>
      <trkpt lat="40.587399965152144" lon="-4.400390032678843">
        <ele>1290.0139999999999</ele>
        <time>2021-07-09T21:56:24Z</time>
      </trkpt>
      <trkpt lat="40.587910003960133" lon="-4.398809960111976">
        <ele>1291.0540000000001</ele>
        <time>2021-07-09T21:56:47Z</time>
      </trkpt>
      <trkpt lat="40.588649958372116" lon="-4.39666997641325">
        <ele>1294.009</ele>
        <time>2021-07-09T21:57:18Z</time>
      </trkpt>
      <trkpt lat="40.588839976117015" lon="-4.395979978144169">
        <ele>1293.008</ele>
        <time>2021-07-09T21:57:28Z</time>
      </trkpt>
      <trkpt lat="40.589810013771057" lon="-4.392889989539981">
        <ele>1282.028</ele>
        <time>2021-07-09T21:58:14Z</time>
      </trkpt>
      <trkpt lat="40.592340007424355" lon="-4.38523999415338">
        <ele>1253.068</ele>
        <time>2021-07-09T22:00:06Z</time>
      </trkpt>
      <trkpt lat="40.592749966308475" lon="-4.383929986506701">
        <ele>1252.078</ele>
        <time>2021-07-09T22:00:25Z</time>
      </trkpt>
      <trkpt lat="40.592790031805634" lon="-4.383699987083674">
        <ele>1252.067</ele>
        <time>2021-07-09T22:00:29Z</time>
      </trkpt>
      <trkpt lat="40.592820039018989" lon="-4.383039996027947">
        <ele>1250.0319999999999</ele>
        <time>2021-07-09T22:00:38Z</time>
      </trkpt>
      <trkpt lat="40.592790031805634" lon="-4.382619978860021">
        <ele>1249.0709999999999</ele>
        <time>2021-07-09T22:00:43Z</time>
      </trkpt>
      <trkpt lat="40.59271995909512" lon="-4.382229968905449">
        <ele>1251.037</ele>
        <time>2021-07-09T22:00:49Z</time>
      </trkpt>
      <trkpt lat="40.592489959672093" lon="-4.381430000066757">
        <ele>1258.0329999999999</ele>
        <time>2021-07-09T22:01:00Z</time>
      </trkpt>
      <trkpt lat="40.591399976983666" lon="-4.377950001507998">
        <ele>1280.019</ele>
        <time>2021-07-09T22:01:51Z</time>
      </trkpt>
      <trkpt lat="40.59132001362741" lon="-4.377539958804846">
        <ele>1280.009</ele>
        <time>2021-07-09T22:01:57Z</time>
      </trkpt>
      <trkpt lat="40.591250024735928" lon="-4.376920033246279">
        <ele>1278.019</ele>
        <time>2021-07-09T22:02:05Z</time>
      </trkpt>
      <trkpt lat="40.591280031949282" lon="-4.376309998333454">
        <ele>1277.008</ele>
        <time>2021-07-09T22:02:14Z</time>
      </trkpt>
      <trkpt lat="40.591359995305538" lon="-4.375880006700754">
        <ele>1275.078</ele>
        <time>2021-07-09T22:02:20Z</time>
      </trkpt>
      <trkpt lat="40.591489998623729" lon="-4.375369967892766">
        <ele>1274.068</ele>
        <time>2021-07-09T22:02:27Z</time>
      </trkpt>
      <trkpt lat="40.592489959672093" lon="-4.370320038869977">
        <ele>1257.068</ele>
        <time>2021-07-09T22:03:37Z</time>
      </trkpt>
      <trkpt lat="40.592590039595962" lon="-4.369429964572191">
        <ele>1252.027</ele>
        <time>2021-07-09T22:03:49Z</time>
      </trkpt>
      <trkpt lat="40.592549974098802" lon="-4.368529999628663">
        <ele>1248.0419999999999</ele>
        <time>2021-07-09T22:04:02Z</time>
      </trkpt>
      <trkpt lat="40.591989979147911" lon="-4.363310001790524">
        <ele>1224.0409999999999</ele>
        <time>2021-07-09T22:05:13Z</time>
      </trkpt>
      <trkpt lat="40.591989979147911" lon="-4.362719999626279">
        <ele>1222.057</ele>
        <time>2021-07-09T22:05:21Z</time>
      </trkpt>
      <trkpt lat="40.592070026323199" lon="-4.362150030210614">
        <ele>1224.0429999999999</ele>
        <time>2021-07-09T22:05:29Z</time>
      </trkpt>
      <trkpt lat="40.592310000211" lon="-4.361379984766245">
        <ele>1229.0309999999999</ele>
        <time>2021-07-09T22:05:40Z</time>
      </trkpt>
      <trkpt lat="40.592549974098802" lon="-4.360919985920191">
        <ele>1235.0609999999999</ele>
        <time>2021-07-09T22:05:47Z</time>
      </trkpt>
      <trkpt lat="40.592960016801953" lon="-4.360310034826398">
        <ele>1242.0070000000001</ele>
        <time>2021-07-09T22:05:58Z</time>
      </trkpt>
      <trkpt lat="40.593569967895746" lon="-4.359230026602745">
        <ele>1249.008</ele>
        <time>2021-07-09T22:06:17Z</time>
      </trkpt>
      <trkpt lat="40.593880014494061" lon="-4.358770027756691">
        <ele>1249.02</ele>
        <time>2021-07-09T22:06:25Z</time>
      </trkpt>
      <trkpt lat="40.594159970059991" lon="-4.358280021697283">
        <ele>1249.03</ele>
        <time>2021-07-09T22:06:33Z</time>
      </trkpt>
      <trkpt lat="40.594379995018244" lon="-4.357739975675941">
        <ele>1247.02</ele>
        <time>2021-07-09T22:06:42Z</time>
      </trkpt>
      <trkpt lat="40.594470016658306" lon="-4.357449961826205">
        <ele>1247.059</ele>
        <time>2021-07-09T22:06:46Z</time>
      </trkpt>
      <trkpt lat="40.598250003531575" lon="-4.342479966580868">
        <ele>1307.0940000000001</ele>
        <time>2021-07-09T22:10:19Z</time>
      </trkpt>
      <trkpt lat="40.598340025171638" lon="-4.342040000483394">
        <ele>1307.0229999999999</ele>
        <time>2021-07-09T22:10:25Z</time>
      </trkpt>
      <trkpt lat="40.59838998131454" lon="-4.34160003438592">
        <ele>1308.049</ele>
        <time>2021-07-09T22:10:31Z</time>
      </trkpt>
      <trkpt lat="40.598400039598346" lon="-4.341370034962893">
        <ele>1309.075</ele>
        <time>2021-07-09T22:10:34Z</time>
      </trkpt>
      <trkpt lat="40.598340025171638" lon="-4.34069998562336">
        <ele>1312.087</ele>
        <time>2021-07-09T22:10:43Z</time>
      </trkpt>
      <trkpt lat="40.598259977996349" lon="-4.34029002673924">
        <ele>1313.0419999999999</ele>
        <time>2021-07-09T22:10:49Z</time>
      </trkpt>
      <trkpt lat="40.597969964146614" lon="-4.339380003511906">
        <ele>1317.0260000000001</ele>
        <time>2021-07-09T22:11:02Z</time>
      </trkpt>
      <trkpt lat="40.597869968041778" lon="-4.339140029624105">
        <ele>1318.008</ele>
        <time>2021-07-09T22:11:06Z</time>
      </trkpt>
      <trkpt lat="40.597820011898875" lon="-4.339070040732622">
        <ele>1319.0650000000001</ele>
        <time>2021-07-09T22:11:07Z</time>
      </trkpt>
      <trkpt lat="40.597620019689202" lon="-4.338899971917272">
        <ele>1320.075</ele>
        <time>2021-07-09T22:11:12Z</time>
      </trkpt>
      <trkpt lat="40.597590012475848" lon="-4.338799975812435">
        <ele>1320.0250000000001</ele>
        <time>2021-07-09T22:11:13Z</time>
      </trkpt>
      <trkpt lat="40.597590012475848" lon="-4.338699979707599">
        <ele>1321.0139999999999</ele>
        <time>2021-07-09T22:11:14Z</time>
      </trkpt>
      <trkpt lat="40.597669975832105" lon="-4.338350035250187">
        <ele>1323.0989999999999</ele>
        <time>2021-07-09T22:11:19Z</time>
      </trkpt>
      <trkpt lat="40.597639968618751" lon="-4.33807997033">
        <ele>1324.058</ele>
        <time>2021-07-09T22:11:23Z</time>
      </trkpt>
      <trkpt lat="40.597490016371012" lon="-4.337379997596145">
        <ele>1326.0640000000001</ele>
        <time>2021-07-09T22:11:33Z</time>
      </trkpt>
      <trkpt lat="40.597369987517595" lon="-4.337019994854927">
        <ele>1326.0699999999999</ele>
        <time>2021-07-09T22:11:38Z</time>
      </trkpt>
      <trkpt lat="40.597299998626113" lon="-4.336840035393834">
        <ele>1326.0630000000001</ele>
        <time>2021-07-09T22:11:41Z</time>
      </trkpt>
      <trkpt lat="40.59710000641644" lon="-4.336499981582165">
        <ele>1326.0440000000001</ele>
        <time>2021-07-09T22:11:47Z</time>
      </trkpt>
      <trkpt lat="40.596860032528639" lon="-4.336190018802881">
        <ele>1327.018</ele>
        <time>2021-07-09T22:11:53Z</time>
      </trkpt>
      <trkpt lat="40.59576996602118" lon="-4.335119985044003">
        <ele>1331.008</ele>
        <time>2021-07-09T22:12:17Z</time>
      </trkpt>
      <trkpt lat="40.595420021563768" lon="-4.334819996729493">
        <ele>1331.0129999999999</ele>
        <time>2021-07-09T22:12:24Z</time>
      </trkpt>
      <trkpt lat="40.595079967752099" lon="-4.334450019523501">
        <ele>1330.0630000000001</ele>
        <time>2021-07-09T22:12:32Z</time>
      </trkpt>
      <trkpt lat="40.594089981168509" lon="-4.333490040153265">
        <ele>1331.0229999999999</ele>
        <time>2021-07-09T22:12:54Z</time>
      </trkpt>
      <trkpt lat="40.59391999617219" lon="-4.333349978551269">
        <ele>1330.0719999999999</ele>
        <time>2021-07-09T22:12:58Z</time>
      </trkpt>
      <trkpt lat="40.593559993430972" lon="-4.333170019090176">
        <ele>1328.057</ele>
        <time>2021-07-09T22:13:04Z</time>
      </trkpt>
      <trkpt lat="40.592600014060736" lon="-4.332870030775666">
        <ele>1326.0360000000001</ele>
        <time>2021-07-09T22:13:22Z</time>
      </trkpt>
      <trkpt lat="40.591359995305538" lon="-4.332580016925931">
        <ele>1323.0920000000001</ele>
        <time>2021-07-09T22:13:44Z</time>
      </trkpt>
      <trkpt lat="40.591129995882511" lon="-4.332589991390705">
        <ele>1323.018</ele>
        <time>2021-07-09T22:13:49Z</time>
      </trkpt>
      <trkpt lat="40.590479979291558" lon="-4.33242998085916">
        <ele>1324.0809999999999</ele>
        <time>2021-07-09T22:14:00Z</time>
      </trkpt>
      <trkpt lat="40.589340040460229" lon="-4.332310035824776">
        <ele>1329.0609999999999</ele>
        <time>2021-07-09T22:14:21Z</time>
      </trkpt>
      <trkpt lat="40.588200017809868" lon="-4.332080036401749">
        <ele>1327.0170000000001</ele>
        <time>2021-07-09T22:14:41Z</time>
      </trkpt>
      <trkpt lat="40.587480012327433" lon="-4.331839978694916">
        <ele>1323.008</ele>
        <time>2021-07-09T22:14:54Z</time>
      </trkpt>
      <trkpt lat="40.586190037429333" lon="-4.331330023705959">
        <ele>1320.0650000000001</ele>
        <time>2021-07-09T22:15:18Z</time>
      </trkpt>
      <trkpt lat="40.584599990397692" lon="-4.330749996006489">
        <ele>1312.0150000000001</ele>
        <time>2021-07-09T22:15:48Z</time>
      </trkpt>
      <trkpt lat="40.582639966160059" lon="-4.329880038276315">
        <ele>1307.095</ele>
        <time>2021-07-09T22:16:24Z</time>
      </trkpt>
      <trkpt lat="40.582190025597811" lon="-4.329630006104708">
        <ele>1305.0440000000001</ele>
        <time>2021-07-09T22:16:33Z</time>
      </trkpt>
      <trkpt lat="40.581790041178465" lon="-4.329300010576844">
        <ele>1304.079</ele>
        <time>2021-07-09T22:16:42Z</time>
      </trkpt>
      <trkpt lat="40.581110017374158" lon="-4.328629961237311">
        <ele>1299.068</ele>
        <time>2021-07-09T22:16:57Z</time>
      </trkpt>
      <trkpt lat="40.579779976978898" lon="-4.327160026878119">
        <ele>1293.0640000000001</ele>
        <time>2021-07-09T22:17:28Z</time>
      </trkpt>
      <trkpt lat="40.579110011458397" lon="-4.326470028609037">
        <ele>1291.05</ele>
        <time>2021-07-09T22:17:43Z</time>
      </trkpt>
      <trkpt lat="40.578789990395308" lon="-4.326080018654466">
        <ele>1291.0239999999999</ele>
        <time>2021-07-09T22:17:50Z</time>
      </trkpt>
      <trkpt lat="40.578640038147569" lon="-4.325859993696213">
        <ele>1291.0039999999999</ele>
        <time>2021-07-09T22:17:54Z</time>
      </trkpt>
      <trkpt lat="40.577460033819079" lon="-4.323850013315678">
        <ele>1279.0139999999999</ele>
        <time>2021-07-09T22:18:29Z</time>
      </trkpt>
      <trkpt lat="40.576390000060201" lon="-4.322170028463006">
        <ele>1267.008</ele>
        <time>2021-07-09T22:18:58Z</time>
      </trkpt>
      <trkpt lat="40.576269971206784" lon="-4.32218000292778">
        <ele>1267.0889999999999</ele>
        <time>2021-07-09T22:19:01Z</time>
      </trkpt>
      <trkpt lat="40.57610996067524" lon="-4.322270024567843">
        <ele>1268.029</ele>
        <time>2021-07-09T22:19:04Z</time>
      </trkpt>
      <trkpt lat="40.575969982892275" lon="-4.322219984605908">
        <ele>1268.049</ele>
        <time>2021-07-09T22:19:06Z</time>
      </trkpt>
      <trkpt lat="40.575530016794801" lon="-4.321740036830306">
        <ele>1265.058</ele>
        <time>2021-07-09T22:19:16Z</time>
      </trkpt>
      <trkpt lat="40.57527001015842" lon="-4.321559993550181">
        <ele>1264.0730000000001</ele>
        <time>2021-07-09T22:19:22Z</time>
      </trkpt>
      <trkpt lat="40.575130032375455" lon="-4.321469971910119">
        <ele>1264.0619999999999</ele>
        <time>2021-07-09T22:19:24Z</time>
      </trkpt>
      <trkpt lat="40.574829960241914" lon="-4.321350026875734">
        <ele>1262.018</ele>
        <time>2021-07-09T22:19:30Z</time>
      </trkpt>
      <trkpt lat="40.574670033529401" lon="-4.32132001966238">
        <ele>1261.0940000000001</ele>
        <time>2021-07-09T22:19:33Z</time>
      </trkpt>
      <trkpt lat="40.574350012466311" lon="-4.3212999869138">
        <ele>1260.0260000000001</ele>
        <time>2021-07-09T22:19:39Z</time>
      </trkpt>
      <trkpt lat="40.574029991403222" lon="-4.32132001966238">
        <ele>1259.047</ele>
        <time>2021-07-09T22:19:44Z</time>
      </trkpt>
      <trkpt lat="40.573539985343814" lon="-4.321439964696765">
        <ele>1256.011</ele>
        <time>2021-07-09T22:19:53Z</time>
      </trkpt>
      <trkpt lat="40.573040004819632" lon="-4.321610033512116">
        <ele>1252.008</ele>
        <time>2021-07-09T22:20:02Z</time>
      </trkpt>
      <trkpt lat="40.571699989959598" lon="-4.321999959647656">
        <ele>1239.059</ele>
        <time>2021-07-09T22:20:27Z</time>
      </trkpt>
      <trkpt lat="40.571469990536571" lon="-4.3221599701792">
        <ele>1236.049</ele>
        <time>2021-07-09T22:20:31Z</time>
      </trkpt>
      <trkpt lat="40.571279972791672" lon="-4.322410002350807">
        <ele>1234.019</ele>
        <time>2021-07-09T22:20:36Z</time>
      </trkpt>
      <trkpt lat="40.571149969473481" lon="-4.322749972343445">
        <ele>1233.098</ele>
        <time>2021-07-09T22:20:41Z</time>
      </trkpt>
      <trkpt lat="40.57093002833426" lon="-4.323539966717362">
        <ele>1231.0730000000001</ele>
        <time>2021-07-09T22:20:53Z</time>
      </trkpt>
      <trkpt lat="40.570759959518909" lon="-4.32392000220716">
        <ele>1230.0519999999999</ele>
        <time>2021-07-09T22:20:59Z</time>
      </trkpt>
      <trkpt lat="40.570429963991046" lon="-4.324419982731342">
        <ele>1228.088</ele>
        <time>2021-07-09T22:21:08Z</time>
      </trkpt>
      <trkpt lat="40.56946998462081" lon="-4.32568003423512">
        <ele>1220.0239999999999</ele>
        <time>2021-07-09T22:21:32Z</time>
      </trkpt>
      <trkpt lat="40.569100007414818" lon="-4.326050011441112">
        <ele>1216.038</ele>
        <time>2021-07-09T22:21:40Z</time>
      </trkpt>
      <trkpt lat="40.568789960816503" lon="-4.326229970902205">
        <ele>1214.0699999999999</ele>
        <time>2021-07-09T22:21:46Z</time>
      </trkpt>
      <trkpt lat="40.568129969760776" lon="-4.32654001750052">
        <ele>1208.0170000000001</ele>
        <time>2021-07-09T22:21:58Z</time>
      </trkpt>
      <trkpt lat="40.567690003663301" lon="-4.326860038563609">
        <ele>1204.008</ele>
        <time>2021-07-09T22:22:07Z</time>
      </trkpt>
      <trkpt lat="40.567469978705049" lon="-4.327139994129539">
        <ele>1202.02</ele>
        <time>2021-07-09T22:22:13Z</time>
      </trkpt>
      <trkpt lat="40.567369982600212" lon="-4.327309979125857">
        <ele>1201.04</ele>
        <time>2021-07-09T22:22:16Z</time>
      </trkpt>
      <trkpt lat="40.567139983177185" lon="-4.327899981290102">
        <ele>1199.03</ele>
        <time>2021-07-09T22:22:25Z</time>
      </trkpt>
      <trkpt lat="40.567009979858994" lon="-4.328310023993254">
        <ele>1198.0989999999999</ele>
        <time>2021-07-09T22:22:31Z</time>
      </trkpt>
      <trkpt lat="40.566819962114096" lon="-4.328670026734471">
        <ele>1197.0139999999999</ele>
        <time>2021-07-09T22:22:37Z</time>
      </trkpt>
      <trkpt lat="40.56654998101294" lon="-4.328970015048981">
        <ele>1196.0730000000001</ele>
        <time>2021-07-09T22:22:43Z</time>
      </trkpt>
      <trkpt lat="40.566240018233657" lon="-4.329190040007234">
        <ele>1196.019</ele>
        <time>2021-07-09T22:22:49Z</time>
      </trkpt>
      <trkpt lat="40.56528003886342" lon="-4.329779958352447">
        <ele>1194.0350000000001</ele>
        <time>2021-07-09T22:23:08Z</time>
      </trkpt>
      <trkpt lat="40.565039981156588" lon="-4.330010041594505">
        <ele>1194.098</ele>
        <time>2021-07-09T22:23:13Z</time>
      </trkpt>
      <trkpt lat="40.564869996160269" lon="-4.330310029909015">
        <ele>1192.0150000000001</ele>
        <time>2021-07-09T22:23:18Z</time>
      </trkpt>
      <trkpt lat="40.564820040017366" lon="-4.330489989370108">
        <ele>1191.0260000000001</ele>
        <time>2021-07-09T22:23:21Z</time>
      </trkpt>
      <trkpt lat="40.564519967883825" lon="-4.332009963691235">
        <ele>1186.008</ele>
        <time>2021-07-09T22:23:42Z</time>
      </trkpt>
      <trkpt lat="40.564470011740923" lon="-4.332169974222779">
        <ele>1185.046</ele>
        <time>2021-07-09T22:23:45Z</time>
      </trkpt>
      <trkpt lat="40.564409997314215" lon="-4.33232001028955">
        <ele>1184.0360000000001</ele>
        <time>2021-07-09T22:23:47Z</time>
      </trkpt>
      <trkpt lat="40.56424998678267" lon="-4.332520002499223">
        <ele>1182.0260000000001</ele>
        <time>2021-07-09T22:23:51Z</time>
      </trkpt>
      <trkpt lat="40.564029961824417" lon="-4.332569958642125">
        <ele>1180.0450000000001</ele>
        <time>2021-07-09T22:23:55Z</time>
      </trkpt>
      <trkpt lat="40.563910016790032" lon="-4.332550009712577">
        <ele>1178.0899999999999</ele>
        <time>2021-07-09T22:23:57Z</time>
      </trkpt>
      <trkpt lat="40.5636699590832" lon="-4.332410031929612">
        <ele>1176.029</ele>
        <time>2021-07-09T22:24:02Z</time>
      </trkpt>
      <trkpt lat="40.563569962978363" lon="-4.332280028611422">
        <ele>1175.095</ele>
        <time>2021-07-09T22:24:04Z</time>
      </trkpt>
      <trkpt lat="40.563439959660172" lon="-4.331939974799752">
        <ele>1177.0709999999999</ele>
        <time>2021-07-09T22:24:09Z</time>
      </trkpt>
      <trkpt lat="40.563030000776052" lon="-4.329920019954443">
        <ele>1171.0350000000001</ele>
        <time>2021-07-09T22:24:37Z</time>
      </trkpt>
      <trkpt lat="40.562549969181418" lon="-4.3278500251472">
        <ele>1161.086</ele>
        <time>2021-07-09T22:25:07Z</time>
      </trkpt>
      <trkpt lat="40.562439998611808" lon="-4.327190034091473">
        <ele>1159.0139999999999</ele>
        <time>2021-07-09T22:25:16Z</time>
      </trkpt>
      <trkpt lat="40.562289962545037" lon="-4.325009984895587">
        <ele>1150.008</ele>
        <time>2021-07-09T22:25:45Z</time>
      </trkpt>
      <trkpt lat="40.562249980866909" lon="-4.324070038273931">
        <ele>1147.02</ele>
        <time>2021-07-09T22:25:58Z</time>
      </trkpt>
      <trkpt lat="40.562189966440201" lon="-4.323710035532713">
        <ele>1148.05</ele>
        <time>2021-07-09T22:26:03Z</time>
      </trkpt>
      <trkpt lat="40.562019981443882" lon="-4.323399988934398">
        <ele>1147.04</ele>
        <time>2021-07-09T22:26:08Z</time>
      </trkpt>
      <trkpt lat="40.561770033091307" lon="-4.323179963976145">
        <ele>1146.0889999999999</ele>
        <time>2021-07-09T22:26:14Z</time>
      </trkpt>
      <trkpt lat="40.561029994860291" lon="-4.322739997878671">
        <ele>1143.0239999999999</ele>
        <time>2021-07-09T22:26:28Z</time>
      </trkpt>
      <trkpt lat="40.559310028329492" lon="-4.32164004072547">
        <ele>1131.0329999999999</ele>
        <time>2021-07-09T22:27:02Z</time>
      </trkpt>
      <trkpt lat="40.558969974517822" lon="-4.321539960801601">
        <ele>1130.039</ele>
        <time>2021-07-09T22:27:08Z</time>
      </trkpt>
      <trkpt lat="40.55862003006041" lon="-4.321529986336827">
        <ele>1128.0350000000001</ele>
        <time>2021-07-09T22:27:15Z</time>
      </trkpt>
      <trkpt lat="40.558439986780286" lon="-4.321550019085407">
        <ele>1127.095</ele>
        <time>2021-07-09T22:27:18Z</time>
      </trkpt>
      <trkpt lat="40.558270001783967" lon="-4.321580026298761">
        <ele>1126.049</ele>
        <time>2021-07-09T22:27:21Z</time>
      </trkpt>
      <trkpt lat="40.557770021259785" lon="-4.321820000186563">
        <ele>1123.0229999999999</ele>
        <time>2021-07-09T22:27:30Z</time>
      </trkpt>
      <trkpt lat="40.557459974661469" lon="-4.32207003235817">
        <ele>1120.008</ele>
        <time>2021-07-09T22:27:37Z</time>
      </trkpt>
      <trkpt lat="40.557189993560314" lon="-4.322400027886033">
        <ele>1118.046</ele>
        <time>2021-07-09T22:27:43Z</time>
      </trkpt>
      <trkpt lat="40.55662002414465" lon="-4.323399988934398">
        <ele>1114.066</ele>
        <time>2021-07-09T22:28:00Z</time>
      </trkpt>
      <trkpt lat="40.556079978123307" lon="-4.324229964986444">
        <ele>1107.056</ele>
        <time>2021-07-09T22:28:15Z</time>
      </trkpt>
      <trkpt lat="40.555879985913634" lon="-4.324449989944696">
        <ele>1107.075</ele>
        <time>2021-07-09T22:28:20Z</time>
      </trkpt>
      <trkpt lat="40.555659960955381" lon="-4.324570018798113">
        <ele>1107.0899999999999</ele>
        <time>2021-07-09T22:28:24Z</time>
      </trkpt>
      <trkpt lat="40.554499989375472" lon="-4.324649982154369">
        <ele>1102.049</ele>
        <time>2021-07-09T22:28:45Z</time>
      </trkpt>
      <trkpt lat="40.554190026596189" lon="-4.324630033224821">
        <ele>1101.085</ele>
        <time>2021-07-09T22:28:50Z</time>
      </trkpt>
      <trkpt lat="40.553900012746453" lon="-4.324519978836179">
        <ele>1099.0909999999999</ele>
        <time>2021-07-09T22:28:55Z</time>
      </trkpt>
      <trkpt lat="40.55322996340692" lon="-4.324180008843541">
        <ele>1094.0909999999999</ele>
        <time>2021-07-09T22:29:08Z</time>
      </trkpt>
      <trkpt lat="40.552989989519119" lon="-4.324219990521669">
        <ele>1092.0809999999999</ele>
        <time>2021-07-09T22:29:13Z</time>
      </trkpt>
      <trkpt lat="40.552510041743517" lon="-4.324549986049533">
        <ele>1091.019</ele>
        <time>2021-07-09T22:29:22Z</time>
      </trkpt>
      <trkpt lat="40.552380038425326" lon="-4.324589967727661">
        <ele>1090.008</ele>
        <time>2021-07-09T22:29:25Z</time>
      </trkpt>
      <trkpt lat="40.552090024575591" lon="-4.324579993262887">
        <ele>1089.066</ele>
        <time>2021-07-09T22:29:30Z</time>
      </trkpt>
      <trkpt lat="40.551949962973595" lon="-4.324510004371405">
        <ele>1087.076</ele>
        <time>2021-07-09T22:29:32Z</time>
      </trkpt>
      <trkpt lat="40.551389968022704" lon="-4.324059979990125">
        <ele>1080.046</ele>
        <time>2021-07-09T22:29:44Z</time>
      </trkpt>
      <trkpt lat="40.550840031355619" lon="-4.323659995570779">
        <ele>1073.085</ele>
        <time>2021-07-09T22:29:55Z</time>
      </trkpt>
      <trkpt lat="40.550589999184012" lon="-4.323550025001168">
        <ele>1069.05</ele>
        <time>2021-07-09T22:30:00Z</time>
      </trkpt>
      <trkpt lat="40.550459995865822" lon="-4.323539966717362">
        <ele>1068.0989999999999</ele>
        <time>2021-07-09T22:30:02Z</time>
      </trkpt>
      <trkpt lat="40.550180040299892" lon="-4.323620013892651">
        <ele>1066.0250000000001</ele>
        <time>2021-07-09T22:30:07Z</time>
      </trkpt>
      <trkpt lat="40.549179995432496" lon="-4.32434999383986">
        <ele>1061.0509999999999</ele>
        <time>2021-07-09T22:30:28Z</time>
      </trkpt>
      <trkpt lat="40.548849999904633" lon="-4.324479997158051">
        <ele>1060.019</ele>
        <time>2021-07-09T22:30:34Z</time>
      </trkpt>
      <trkpt lat="40.54867004044354" lon="-4.324500029906631">
        <ele>1059.009</ele>
        <time>2021-07-09T22:30:37Z</time>
      </trkpt>
      <trkpt lat="40.54832998663187" lon="-4.324470022693276">
        <ele>1057.019</ele>
        <time>2021-07-09T22:30:43Z</time>
      </trkpt>
      <trkpt lat="40.546680008992553" lon="-4.324019998311997">
        <ele>1051.008</ele>
        <time>2021-07-09T22:31:13Z</time>
      </trkpt>
      <trkpt lat="40.546359987929463" lon="-4.323959983885288">
        <ele>1051.058</ele>
        <time>2021-07-09T22:31:19Z</time>
      </trkpt>
      <trkpt lat="40.546229984611273" lon="-4.32394003495574">
        <ele>1050.028</ele>
        <time>2021-07-09T22:31:21Z</time>
      </trkpt>
      <trkpt lat="40.545939970761538" lon="-4.323969958350062">
        <ele>1050.098</ele>
        <time>2021-07-09T22:31:26Z</time>
      </trkpt>
      <trkpt lat="40.545790018513799" lon="-4.324019998311997">
        <ele>1050.087</ele>
        <time>2021-07-09T22:31:29Z</time>
      </trkpt>
      <trkpt lat="40.545530011877418" lon="-4.324150001630187">
        <ele>1050.0419999999999</ele>
        <time>2021-07-09T22:31:34Z</time>
      </trkpt>
      <trkpt lat="40.5451700091362" lon="-4.324510004371405">
        <ele>1051.0409999999999</ele>
        <time>2021-07-09T22:31:42Z</time>
      </trkpt>
      <trkpt lat="40.544440029188991" lon="-4.325569979846478">
        <ele>1052.087</ele>
        <time>2021-07-09T22:32:01Z</time>
      </trkpt>
      <trkpt lat="40.543599994853139" lon="-4.327520029619336">
        <ele>1050.0730000000001</ele>
        <time>2021-07-09T22:32:32Z</time>
      </trkpt>
      <trkpt lat="40.543309981003404" lon="-4.328080024570227">
        <ele>1047.098</ele>
        <time>2021-07-09T22:32:41Z</time>
      </trkpt>
      <trkpt lat="40.543070007115602" lon="-4.328429969027638">
        <ele>1046.0150000000001</ele>
        <time>2021-07-09T22:32:47Z</time>
      </trkpt>
      <trkpt lat="40.541929984465241" lon="-4.329950027167797">
        <ele>1043.0260000000001</ele>
        <time>2021-07-09T22:33:16Z</time>
      </trkpt>
      <trkpt lat="40.539509961381555" lon="-4.333270015195012">
        <ele>1039.008</ele>
        <time>2021-07-09T22:34:18Z</time>
      </trkpt>
      <trkpt lat="40.537350028753281" lon="-4.336130004376173">
        <ele>1023.066</ele>
        <time>2021-07-09T22:35:13Z</time>
      </trkpt>
      <trkpt lat="40.536110009998083" lon="-4.337839996442199">
        <ele>1013.076</ele>
        <time>2021-07-09T22:35:45Z</time>
      </trkpt>
      <trkpt lat="40.535880010575056" lon="-4.338109977543354">
        <ele>1012.026</ele>
        <time>2021-07-09T22:35:50Z</time>
      </trkpt>
      <trkpt lat="40.535599971190095" lon="-4.338290020823479">
        <ele>1010.0549999999999</ele>
        <time>2021-07-09T22:35:56Z</time>
      </trkpt>
      <trkpt lat="40.535269975662231" lon="-4.338369984179735">
        <ele>1008.05</ele>
        <time>2021-07-09T22:36:02Z</time>
      </trkpt>
      <trkpt lat="40.534909972921014" lon="-4.338360009714961">
        <ele>1006.079</ele>
        <time>2021-07-09T22:36:08Z</time>
      </trkpt>
      <trkpt lat="40.533259995281696" lon="-4.337749974802136">
        <ele>997.06500000000005</ele>
        <time>2021-07-09T22:36:39Z</time>
      </trkpt>
      <trkpt lat="40.532890018075705" lon="-4.337630029767752">
        <ele>995.02099999999996</ele>
        <time>2021-07-09T22:36:45Z</time>
      </trkpt>
      <trkpt lat="40.532330023124814" lon="-4.337510000914335">
        <ele>992.03399999999999</ele>
        <time>2021-07-09T22:36:56Z</time>
      </trkpt>
      <trkpt lat="40.532000027596951" lon="-4.337410004809499">
        <ele>990.05499999999995</ele>
        <time>2021-07-09T22:37:02Z</time>
      </trkpt>
      <trkpt lat="40.529749989509583" lon="-4.336450025439262">
        <ele>980.00999999999999</ele>
        <time>2021-07-09T22:37:44Z</time>
      </trkpt>
      <trkpt lat="40.529410019516945" lon="-4.336329996585846">
        <ele>978.00800000000004</ele>
        <time>2021-07-09T22:37:50Z</time>
      </trkpt>
      <trkpt lat="40.52912000566721" lon="-4.336169986054301">
        <ele>975.08000000000004</ele>
        <time>2021-07-09T22:37:56Z</time>
      </trkpt>
      <trkpt lat="40.528090037405491" lon="-4.335340010002255">
        <ele>966.01999999999998</ele>
        <time>2021-07-09T22:38:17Z</time>
      </trkpt>
      <trkpt lat="40.527849979698658" lon="-4.335230039432645">
        <ele>964.05999999999995</ele>
        <time>2021-07-09T22:38:22Z</time>
      </trkpt>
      <trkpt lat="40.526560004800558" lon="-4.335010014474392">
        <ele>958.029</ele>
        <time>2021-07-09T22:38:45Z</time>
      </trkpt>
      <trkpt lat="40.525289978832006" lon="-4.335179999470711">
        <ele>956.08399999999995</ele>
        <time>2021-07-09T22:39:07Z</time>
      </trkpt>
      <trkpt lat="40.525159975513816" lon="-4.335159966722131">
        <ele>955.07299999999998</ele>
        <time>2021-07-09T22:39:10Z</time>
      </trkpt>
      <trkpt lat="40.524889994412661" lon="-4.3350700289011">
        <ele>952.01900000000001</ele>
        <time>2021-07-09T22:39:15Z</time>
      </trkpt>
      <trkpt lat="40.524480035528541" lon="-4.334799963980913">
        <ele>950.08500000000004</ele>
        <time>2021-07-09T22:39:23Z</time>
      </trkpt>
      <trkpt lat="40.524190021678805" lon="-4.334650011733174">
        <ele>949.02099999999996</ele>
        <time>2021-07-09T22:39:28Z</time>
      </trkpt>
      <trkpt lat="40.523560037836432" lon="-4.334120023995638">
        <ele>944.04100000000005</ele>
        <time>2021-07-09T22:39:42Z</time>
      </trkpt>
      <trkpt lat="40.523259965702891" lon="-4.333950038999319">
        <ele>942.005</ele>
        <time>2021-07-09T22:39:48Z</time>
      </trkpt>
      <trkpt lat="40.522280037403107" lon="-4.333530021831393">
        <ele>940.00800000000004</ele>
        <time>2021-07-09T22:40:06Z</time>
      </trkpt>
      <trkpt lat="40.521470010280609" lon="-4.333460032939911">
        <ele>940.07899999999995</ele>
        <time>2021-07-09T22:40:20Z</time>
      </trkpt>
      <trkpt lat="40.521130040287971" lon="-4.333479981869459">
        <ele>940.07899999999995</ele>
        <time>2021-07-09T22:40:26Z</time>
      </trkpt>
      <trkpt lat="40.520599968731403" lon="-4.333570003509522">
        <ele>937.07899999999995</ele>
        <time>2021-07-09T22:40:36Z</time>
      </trkpt>
      <trkpt lat="40.520209958776832" lon="-4.333679974079132">
        <ele>934.048</ele>
        <time>2021-07-09T22:40:43Z</time>
      </trkpt>
      <trkpt lat="40.519869988784194" lon="-4.333809977397323">
        <ele>932.06299999999999</ele>
        <time>2021-07-09T22:40:49Z</time>
      </trkpt>
      <trkpt lat="40.519570000469685" lon="-4.334009969606996">
        <ele>930.04200000000003</ele>
        <time>2021-07-09T22:40:55Z</time>
      </trkpt>
      <trkpt lat="40.519319968298078" lon="-4.334310041740537">
        <ele>928.01800000000003</ele>
        <time>2021-07-09T22:41:01Z</time>
      </trkpt>
      <trkpt lat="40.518949991092086" lon="-4.334819996729493">
        <ele>927.03399999999999</ele>
        <time>2021-07-09T22:41:11Z</time>
      </trkpt>
      <trkpt lat="40.518589988350868" lon="-4.335230039432645">
        <ele>927.09199999999998</ele>
        <time>2021-07-09T22:41:19Z</time>
      </trkpt>
      <trkpt lat="40.518310032784939" lon="-4.33534998446703">
        <ele>926.07299999999998</ele>
        <time>2021-07-09T22:41:25Z</time>
      </trkpt>
      <trkpt lat="40.518150022253394" lon="-4.335359958931804">
        <ele>925.01999999999998</ele>
        <time>2021-07-09T22:41:27Z</time>
      </trkpt>
      <trkpt lat="40.517990011721849" lon="-4.335319977253676">
        <ele>924.00800000000004</ele>
        <time>2021-07-09T22:41:30Z</time>
      </trkpt>
      <trkpt lat="40.517709972336888" lon="-4.335129959508777">
        <ele>920.01599999999996</ele>
        <time>2021-07-09T22:41:36Z</time>
      </trkpt>
      <trkpt lat="40.51665997132659" lon="-4.333860017359257">
        <ele>912.07600000000002</ele>
        <time>2021-07-09T22:42:01Z</time>
      </trkpt>
      <trkpt lat="40.516459979116917" lon="-4.333389960229397">
        <ele>910.07600000000002</ele>
        <time>2021-07-09T22:42:09Z</time>
      </trkpt>
      <trkpt lat="40.516259986907244" lon="-4.332629973068833">
        <ele>908.03499999999997</ele>
        <time>2021-07-09T22:42:19Z</time>
      </trkpt>
      <trkpt lat="40.516120009124279" lon="-4.332229988649488">
        <ele>908.08000000000004</ele>
        <time>2021-07-09T22:42:25Z</time>
      </trkpt>
      <trkpt lat="40.515939965844154" lon="-4.331830004230142">
        <ele>907.07899999999995</ele>
        <time>2021-07-09T22:42:32Z</time>
      </trkpt>
      <trkpt lat="40.514970012009144" lon="-4.329929994419217">
        <ele>901.06500000000005</ele>
        <time>2021-07-09T22:43:03Z</time>
      </trkpt>
      <trkpt lat="40.514679998159409" lon="-4.329449962824583">
        <ele>902.08100000000002</ele>
        <time>2021-07-09T22:43:11Z</time>
      </trkpt>
      <trkpt lat="40.514529962092638" lon="-4.329279977828264">
        <ele>901.08299999999997</ele>
        <time>2021-07-09T22:43:14Z</time>
      </trkpt>
      <trkpt lat="40.514500038698316" lon="-4.328770022839308">
        <ele>900.02499999999998</ele>
        <time>2021-07-09T22:43:21Z</time>
      </trkpt>
      <trkpt lat="40.514310020953417" lon="-4.327330011874437">
        <ele>898.01700000000005</ele>
        <time>2021-07-09T22:43:41Z</time>
      </trkpt>
      <trkpt lat="40.514289988204837" lon="-4.326870013028383">
        <ele>899.00800000000004</ele>
        <time>2021-07-09T22:43:47Z</time>
      </trkpt>
      <trkpt lat="40.514319995418191" lon="-4.326419988647103">
        <ele>899.04499999999996</ele>
        <time>2021-07-09T22:43:53Z</time>
      </trkpt>
      <trkpt lat="40.514359977096319" lon="-4.326189989224076">
        <ele>898.05499999999995</ele>
        <time>2021-07-09T22:43:57Z</time>
      </trkpt>
      <trkpt lat="40.514700030907989" lon="-4.324939996004105">
        <ele>895.03499999999997</ele>
        <time>2021-07-09T22:44:15Z</time>
      </trkpt>
      <trkpt lat="40.515019968152046" lon="-4.324010023847222">
        <ele>893.09400000000005</ele>
        <time>2021-07-09T22:44:28Z</time>
      </trkpt>
      <trkpt lat="40.515119964256883" lon="-4.323529992252588">
        <ele>892.029</ele>
        <time>2021-07-09T22:44:35Z</time>
      </trkpt>
      <trkpt lat="40.515130022540689" lon="-4.323290018364787">
        <ele>891.09799999999996</ele>
        <time>2021-07-09T22:44:38Z</time>
      </trkpt>
      <trkpt lat="40.514870015904307" lon="-4.321840032935143">
        <ele>894.05399999999997</ele>
        <time>2021-07-09T22:44:59Z</time>
      </trkpt>
      <trkpt lat="40.514710005372763" lon="-4.31988000869751">
        <ele>906.08000000000004</ele>
        <time>2021-07-09T22:45:25Z</time>
      </trkpt>
      <trkpt lat="40.51464001648128" lon="-4.319459991529584">
        <ele>907.053</ele>
        <time>2021-07-09T22:45:31Z</time>
      </trkpt>
      <trkpt lat="40.514529962092638" lon="-4.319050032645464">
        <ele>908.00400000000002</ele>
        <time>2021-07-09T22:45:37Z</time>
      </trkpt>
      <trkpt lat="40.514319995418191" lon="-4.318000031635165">
        <ele>911.01400000000001</ele>
        <time>2021-07-09T22:45:52Z</time>
      </trkpt>
      <trkpt lat="40.514250006526709" lon="-4.317169971764088">
        <ele>909.00800000000004</ele>
        <time>2021-07-09T22:46:03Z</time>
      </trkpt>
      <trkpt lat="40.514120003208518" lon="-4.316300014033914">
        <ele>905.072</ele>
        <time>2021-07-09T22:46:15Z</time>
      </trkpt>
      <trkpt lat="40.513530001044273" lon="-4.313549995422363">
        <ele>892.06200000000001</ele>
        <time>2021-07-09T22:46:54Z</time>
      </trkpt>
      <trkpt lat="40.513209979981184" lon="-4.312599990516901">
        <ele>886.05200000000002</ele>
        <time>2021-07-09T22:47:08Z</time>
      </trkpt>
      <trkpt lat="40.513130016624928" lon="-4.312209980562329">
        <ele>884.03099999999995</ele>
        <time>2021-07-09T22:47:13Z</time>
      </trkpt>
      <trkpt lat="40.512949973344803" lon="-4.309560041874647">
        <ele>874.01599999999996</ele>
        <time>2021-07-09T22:47:49Z</time>
      </trkpt>
      <trkpt lat="40.512979980558157" lon="-4.308239975944161">
        <ele>864.02499999999998</ele>
        <time>2021-07-09T22:48:07Z</time>
      </trkpt>
      <trkpt lat="40.5129000172019" lon="-4.307860024273396">
        <ele>864.01099999999997</ele>
        <time>2021-07-09T22:48:12Z</time>
      </trkpt>
      <trkpt lat="40.512840002775192" lon="-4.307700013741851">
        <ele>863.05700000000002</ele>
        <time>2021-07-09T22:48:15Z</time>
      </trkpt>
      <trkpt lat="40.512579996138811" lon="-4.307319978252053">
        <ele>861.05399999999997</ele>
        <time>2021-07-09T22:48:22Z</time>
      </trkpt>
      <trkpt lat="40.512519981712103" lon="-4.307170026004314">
        <ele>861.05600000000004</ele>
        <time>2021-07-09T22:48:24Z</time>
      </trkpt>
      <trkpt lat="40.512329963967204" lon="-4.306050036102533">
        <ele>867.01099999999997</ele>
        <time>2021-07-09T22:48:39Z</time>
      </trkpt>
      <trkpt lat="40.512329963967204" lon="-4.305709982290864">
        <ele>869.00800000000004</ele>
        <time>2021-07-09T22:48:44Z</time>
      </trkpt>
      <trkpt lat="40.512210018932819" lon="-4.304250022396445">
        <ele>863.01199999999994</ele>
        <time>2021-07-09T22:49:04Z</time>
      </trkpt>
      <trkpt lat="40.512150004506111" lon="-4.303909968584776">
        <ele>863.05200000000002</ele>
        <time>2021-07-09T22:49:09Z</time>
      </trkpt>
      <trkpt lat="40.512050008401275" lon="-4.302780004218221">
        <ele>864.05200000000002</ele>
        <time>2021-07-09T22:49:24Z</time>
      </trkpt>
      <trkpt lat="40.512010026723146" lon="-4.302559979259968">
        <ele>864.02099999999996</ele>
        <time>2021-07-09T22:49:27Z</time>
      </trkpt>
      <trkpt lat="40.511989993974566" lon="-4.30211003869772">
        <ele>865.04600000000005</ele>
        <time>2021-07-09T22:49:33Z</time>
      </trkpt>
      <trkpt lat="40.51191003061831" lon="-4.30131996050477">
        <ele>864.07500000000005</ele>
        <time>2021-07-09T22:49:44Z</time>
      </trkpt>
      <trkpt lat="40.511940037831664" lon="-4.300540024414659">
        <ele>864.04100000000005</ele>
        <time>2021-07-09T22:49:54Z</time>
      </trkpt>
      <trkpt lat="40.511850016191602" lon="-4.299569986760616">
        <ele>861.09699999999998</ele>
        <time>2021-07-09T22:50:08Z</time>
      </trkpt>
      <trkpt lat="40.511829983443022" lon="-4.298800025135279">
        <ele>860.06399999999996</ele>
        <time>2021-07-09T22:50:18Z</time>
      </trkpt>
      <trkpt lat="40.511769969016314" lon="-4.298540018498898">
        <ele>859.00599999999997</ele>
        <time>2021-07-09T22:50:22Z</time>
      </trkpt>
      <trkpt lat="40.511569976806641" lon="-4.297969965264201">
        <ele>858.01599999999996</ele>
        <time>2021-07-09T22:50:30Z</time>
      </trkpt>
      <trkpt lat="40.511490013450384" lon="-4.297609962522984">
        <ele>859.00800000000004</ele>
        <time>2021-07-09T22:50:35Z</time>
      </trkpt>
      <trkpt lat="40.511520020663738" lon="-4.297160021960735">
        <ele>861.08299999999997</ele>
        <time>2021-07-09T22:50:41Z</time>
      </trkpt>
      <trkpt lat="40.51143997348845" lon="-4.296389976516366">
        <ele>864.07299999999998</ele>
        <time>2021-07-09T22:50:52Z</time>
      </trkpt>
      <trkpt lat="40.511279962956905" lon="-4.293740037828684">
        <ele>871.03300000000002</ele>
        <time>2021-07-09T22:51:28Z</time>
      </trkpt>
      <trkpt lat="40.510949967429042" lon="-4.292489960789681">
        <ele>878.05200000000002</ele>
        <time>2021-07-09T22:51:46Z</time>
      </trkpt>
      <trkpt lat="40.510839996859431" lon="-4.292230037972331">
        <ele>878.08699999999999</ele>
        <time>2021-07-09T22:51:50Z</time>
      </trkpt>
      <trkpt lat="40.510549983009696" lon="-4.291129997000098">
        <ele>885.07600000000002</ele>
        <time>2021-07-09T22:52:06Z</time>
      </trkpt>
      <trkpt lat="40.510099958628416" lon="-4.290519962087274">
        <ele>886.03200000000004</ele>
        <time>2021-07-09T22:52:17Z</time>
      </trkpt>
      <trkpt lat="40.51004002802074" lon="-4.290389958769083">
        <ele>886.06799999999998</ele>
        <time>2021-07-09T22:52:19Z</time>
      </trkpt>
      <trkpt lat="40.509729981422424" lon="-4.2892200127244">
        <ele>896.03300000000002</ele>
        <time>2021-07-09T22:52:36Z</time>
      </trkpt>
      <trkpt lat="40.509450025856495" lon="-4.288379978388548">
        <ele>899.02300000000002</ele>
        <time>2021-07-09T22:52:48Z</time>
      </trkpt>
      <trkpt lat="40.509280040860176" lon="-4.287499962374568">
        <ele>896.01499999999999</ele>
        <time>2021-07-09T22:53:01Z</time>
      </trkpt>
      <trkpt lat="40.509199993684888" lon="-4.287220006808639">
        <ele>894.00800000000004</ele>
        <time>2021-07-09T22:53:05Z</time>
      </trkpt>
      <trkpt lat="40.509130004793406" lon="-4.286609971895814">
        <ele>892.09000000000003</ele>
        <time>2021-07-09T22:53:13Z</time>
      </trkpt>
      <trkpt lat="40.509000001475215" lon="-4.285849984735251">
        <ele>889.05999999999995</ele>
        <time>2021-07-09T22:53:24Z</time>
      </trkpt>
      <trkpt lat="40.509030008688569" lon="-4.285340029746294">
        <ele>885.02999999999997</ele>
        <time>2021-07-09T22:53:30Z</time>
      </trkpt>
      <trkpt lat="40.509190019220114" lon="-4.28443000651896">
        <ele>879.07899999999995</ele>
        <time>2021-07-09T22:53:43Z</time>
      </trkpt>
      <trkpt lat="40.509429993107915" lon="-4.283519983291626">
        <ele>875.07399999999996</ele>
        <time>2021-07-09T22:53:56Z</time>
      </trkpt>
      <trkpt lat="40.509480033069849" lon="-4.283180013298988">
        <ele>874.08299999999997</ele>
        <time>2021-07-09T22:54:01Z</time>
      </trkpt>
      <trkpt lat="40.509199993684888" lon="-4.282490015029907">
        <ele>869.06899999999996</ele>
        <time>2021-07-09T22:54:11Z</time>
      </trkpt>
      <trkpt lat="40.509000001475215" lon="-4.282169993966818">
        <ele>867.06500000000005</ele>
        <time>2021-07-09T22:54:17Z</time>
      </trkpt>
      <trkpt lat="40.508779976516962" lon="-4.281879980117083">
        <ele>864.048</ele>
        <time>2021-07-09T22:54:23Z</time>
      </trkpt>
      <trkpt lat="40.508630024269223" lon="-4.281500028446317">
        <ele>861.06100000000004</ele>
        <time>2021-07-09T22:54:28Z</time>
      </trkpt>
      <trkpt lat="40.508500020951033" lon="-4.280899967998266">
        <ele>859.01700000000005</ele>
        <time>2021-07-09T22:54:37Z</time>
      </trkpt>
      <trkpt lat="40.508340010419488" lon="-4.280550023540855">
        <ele>857.00800000000004</ele>
        <time>2021-07-09T22:54:42Z</time>
      </trkpt>
      <trkpt lat="40.508029963821173" lon="-4.280109973624349">
        <ele>854.07100000000003</ele>
        <time>2021-07-09T22:54:50Z</time>
      </trkpt>
      <trkpt lat="40.507910018786788" lon="-4.279760029166937">
        <ele>851.08100000000002</ele>
        <time>2021-07-09T22:54:56Z</time>
      </trkpt>
      <trkpt lat="40.50785000436008" lon="-4.278929969295859">
        <ele>846.07100000000003</ele>
        <time>2021-07-09T22:55:07Z</time>
      </trkpt>
      <trkpt lat="40.50785000436008" lon="-4.278529984876514">
        <ele>844.05999999999995</ele>
        <time>2021-07-09T22:55:12Z</time>
      </trkpt>
      <trkpt lat="40.508029963821173" lon="-4.277389962226152">
        <ele>844.04499999999996</ele>
        <time>2021-07-09T22:55:28Z</time>
      </trkpt>
      <trkpt lat="40.508040022104979" lon="-4.277029959484935">
        <ele>842.08399999999995</ele>
        <time>2021-07-09T22:55:33Z</time>
      </trkpt>
      <trkpt lat="40.508019989356399" lon="-4.276850000023842">
        <ele>841.01999999999998</ele>
        <time>2021-07-09T22:55:35Z</time>
      </trkpt>
      <trkpt lat="40.507859978824854" lon="-4.276090012863278">
        <ele>835.096</ele>
        <time>2021-07-09T22:55:46Z</time>
      </trkpt>
      <trkpt lat="40.507759982720017" lon="-4.275790024548769">
        <ele>833.01199999999994</ele>
        <time>2021-07-09T22:55:51Z</time>
      </trkpt>
      <trkpt lat="40.507520008832216" lon="-4.275479977950454">
        <ele>830.03200000000004</ele>
        <time>2021-07-09T22:55:57Z</time>
      </trkpt>
      <trkpt lat="40.507309958338737" lon="-4.275309992954135">
        <ele>827.005</ele>
        <time>2021-07-09T22:56:01Z</time>
      </trkpt>
      <trkpt lat="40.507190013304353" lon="-4.275089967995882">
        <ele>824.00800000000004</ele>
        <time>2021-07-09T22:56:05Z</time>
      </trkpt>
      <trkpt lat="40.507169980555773" lon="-4.274959964677692">
        <ele>823.03800000000001</ele>
        <time>2021-07-09T22:56:06Z</time>
      </trkpt>
      <trkpt lat="40.507250027731061" lon="-4.274689983576536">
        <ele>823.08799999999997</ele>
        <time>2021-07-09T22:56:10Z</time>
      </trkpt>
      <trkpt lat="40.507459994405508" lon="-4.274320006370544">
        <ele>823.08799999999997</ele>
        <time>2021-07-09T22:56:17Z</time>
      </trkpt>
      <trkpt lat="40.507540041580796" lon="-4.274059999734163">
        <ele>822.03700000000003</ele>
        <time>2021-07-09T22:56:20Z</time>
      </trkpt>
      <trkpt lat="40.507520008832216" lon="-4.273779960349202">
        <ele>819.06200000000001</ele>
        <time>2021-07-09T22:56:24Z</time>
      </trkpt>
      <trkpt lat="40.507390005514026" lon="-4.273530011996627">
        <ele>817.07100000000003</ele>
        <time>2021-07-09T22:56:28Z</time>
      </trkpt>
      <trkpt lat="40.507309958338737" lon="-4.27343001589179">
        <ele>817.077</ele>
        <time>2021-07-09T22:56:30Z</time>
      </trkpt>
      <trkpt lat="40.507009970024228" lon="-4.273189958184958">
        <ele>817.09299999999996</ele>
        <time>2021-07-09T22:56:36Z</time>
      </trkpt>
      <trkpt lat="40.506700007244945" lon="-4.272989965975285">
        <ele>819.01499999999999</ele>
        <time>2021-07-09T22:56:43Z</time>
      </trkpt>
      <trkpt lat="40.506619960069656" lon="-4.272900028154254">
        <ele>821.06500000000005</ele>
        <time>2021-07-09T22:56:44Z</time>
      </trkpt>
      <trkpt lat="40.50656002946198" lon="-4.272670028731227">
        <ele>824.01099999999997</ele>
        <time>2021-07-09T22:56:48Z</time>
      </trkpt>
      <trkpt lat="40.506679974496365" lon="-4.272459978237748">
        <ele>822.00800000000004</ele>
        <time>2021-07-09T22:56:51Z</time>
      </trkpt>
      <trkpt lat="40.507180038839579" lon="-4.271959997713566">
        <ele>822.08799999999997</ele>
        <time>2021-07-09T22:57:02Z</time>
      </trkpt>
      <trkpt lat="40.507260002195835" lon="-4.271829994395375">
        <ele>821.05799999999999</ele>
        <time>2021-07-09T22:57:05Z</time>
      </trkpt>
      <trkpt lat="40.507329991087317" lon="-4.271550038829446">
        <ele>821.03800000000001</ele>
        <time>2021-07-09T22:57:09Z</time>
      </trkpt>
      <trkpt lat="40.507269976660609" lon="-4.270640015602112">
        <ele>826.05700000000002</ele>
        <time>2021-07-09T22:57:21Z</time>
      </trkpt>
      <trkpt lat="40.507280034944415" lon="-4.27022997289896">
        <ele>826.01199999999994</ele>
        <time>2021-07-09T22:57:27Z</time>
      </trkpt>
      <trkpt lat="40.507150031626225" lon="-4.269019961357117">
        <ele>831.03099999999995</ele>
        <time>2021-07-09T22:57:43Z</time>
      </trkpt>
      <trkpt lat="40.50707995891571" lon="-4.268089989200234">
        <ele>831.05700000000002</ele>
        <time>2021-07-09T22:57:56Z</time>
      </trkpt>
      <trkpt lat="40.506950039416552" lon="-4.266960024833679">
        <ele>829.04300000000001</ele>
        <time>2021-07-09T22:58:11Z</time>
      </trkpt>
      <trkpt lat="40.507030002772808" lon="-4.265989987179637">
        <ele>831.03599999999994</ele>
        <time>2021-07-09T22:58:24Z</time>
      </trkpt>
      <trkpt lat="40.50712002441287" lon="-4.264259962365031">
        <ele>832.01700000000005</ele>
        <time>2021-07-09T22:58:48Z</time>
      </trkpt>
      <trkpt lat="40.50707995891571" lon="-4.263880010694265">
        <ele>832.01800000000003</ele>
        <time>2021-07-09T22:58:53Z</time>
      </trkpt>
      <trkpt lat="40.506879966706038" lon="-4.263069983571768">
        <ele>835.00800000000004</ele>
        <time>2021-07-09T22:59:05Z</time>
      </trkpt>
      <trkpt lat="40.506849959492683" lon="-4.262639991939068">
        <ele>836.00999999999999</ele>
        <time>2021-07-09T22:59:10Z</time>
      </trkpt>
      <trkpt lat="40.506909973919392" lon="-4.261929960921407">
        <ele>834.08000000000004</ele>
        <time>2021-07-09T22:59:20Z</time>
      </trkpt>
      <trkpt lat="40.506979962810874" lon="-4.261459987610579">
        <ele>833.09000000000003</ele>
        <time>2021-07-09T22:59:27Z</time>
      </trkpt>
      <trkpt lat="40.507320016622543" lon="-4.260370004922152">
        <ele>834.06899999999996</ele>
        <time>2021-07-09T22:59:43Z</time>
      </trkpt>
      <trkpt lat="40.507390005514026" lon="-4.259959962219">
        <ele>834.01400000000001</ele>
        <time>2021-07-09T22:59:48Z</time>
      </trkpt>
      <trkpt lat="40.507329991087317" lon="-4.259559977799654">
        <ele>835.06299999999999</ele>
        <time>2021-07-09T22:59:54Z</time>
      </trkpt>
      <trkpt lat="40.506660025566816" lon="-4.257900025695562">
        <ele>845.06899999999996</ele>
        <time>2021-07-09T23:00:19Z</time>
      </trkpt>
      <trkpt lat="40.506549971178174" lon="-4.257470034062862">
        <ele>849.08500000000004</ele>
        <time>2021-07-09T23:00:25Z</time>
      </trkpt>
      <trkpt lat="40.506430026143789" lon="-4.256119960919023">
        <ele>856.08900000000006</ele>
        <time>2021-07-09T23:00:44Z</time>
      </trkpt>
      <trkpt lat="40.506419967859983" lon="-4.255770016461611">
        <ele>857.00599999999997</ele>
        <time>2021-07-09T23:00:48Z</time>
      </trkpt>
      <trkpt lat="40.506360037252307" lon="-4.255449995398521">
        <ele>857.02599999999995</ele>
        <time>2021-07-09T23:00:53Z</time>
      </trkpt>
      <trkpt lat="40.5061100050807" lon="-4.254409968852997">
        <ele>853.00800000000004</ele>
        <time>2021-07-09T23:01:08Z</time>
      </trkpt>
      <trkpt lat="40.506030041724443" lon="-4.254269991070032">
        <ele>852.07500000000005</ele>
        <time>2021-07-09T23:01:10Z</time>
      </trkpt>
      <trkpt lat="40.505919987335801" lon="-4.254139987751842">
        <ele>852.07500000000005</ele>
        <time>2021-07-09T23:01:13Z</time>
      </trkpt>
      <trkpt lat="40.505770035088062" lon="-4.253809992223978">
        <ele>853.04499999999996</ele>
        <time>2021-07-09T23:01:18Z</time>
      </trkpt>
      <trkpt lat="40.50565998069942" lon="-4.253180008381605">
        <ele>853.07399999999996</ele>
        <time>2021-07-09T23:01:27Z</time>
      </trkpt>
      <trkpt lat="40.505489995703101" lon="-4.251449983566999">
        <ele>861.029</ele>
        <time>2021-07-09T23:01:50Z</time>
      </trkpt>
      <trkpt lat="40.505469962954521" lon="-4.251040024682879">
        <ele>863.09799999999996</ele>
        <time>2021-07-09T23:01:56Z</time>
      </trkpt>
      <trkpt lat="40.505540035665035" lon="-4.250399982556701">
        <ele>860.04399999999998</ele>
        <time>2021-07-09T23:02:04Z</time>
      </trkpt>
      <trkpt lat="40.505599966272712" lon="-4.249479984864593">
        <ele>857.00999999999999</ele>
        <time>2021-07-09T23:02:17Z</time>
      </trkpt>
      <trkpt lat="40.505619999021292" lon="-4.249049993231893">
        <ele>856.05499999999995</ele>
        <time>2021-07-09T23:02:23Z</time>
      </trkpt>
      <trkpt lat="40.505599966272712" lon="-4.248840026557446">
        <ele>856.00699999999995</ele>
        <time>2021-07-09T23:02:26Z</time>
      </trkpt>
      <trkpt lat="40.505499970167875" lon="-4.248459991067648">
        <ele>858.01700000000005</ele>
        <time>2021-07-09T23:02:31Z</time>
      </trkpt>
      <trkpt lat="40.505339959636331" lon="-4.24812002107501">
        <ele>861.00800000000004</ele>
        <time>2021-07-09T23:02:37Z</time>
      </trkpt>
      <trkpt lat="40.505060004070401" lon="-4.24769002944231">
        <ele>863.03200000000004</ele>
        <time>2021-07-09T23:02:44Z</time>
      </trkpt>
      <trkpt lat="40.504879960790277" lon="-4.247490037232637">
        <ele>863.08199999999999</ele>
        <time>2021-07-09T23:02:48Z</time>
      </trkpt>
      <trkpt lat="40.504439994692802" lon="-4.247379982843995">
        <ele>871.01199999999994</ele>
        <time>2021-07-09T23:02:56Z</time>
      </trkpt>
      <trkpt lat="40.504260035231709" lon="-4.247279986739159">
        <ele>874.09100000000001</ele>
        <time>2021-07-09T23:03:00Z</time>
      </trkpt>
      <trkpt lat="40.504130031913519" lon="-4.247070020064712">
        <ele>876.04600000000005</ele>
        <time>2021-07-09T23:03:03Z</time>
      </trkpt>
      <trkpt lat="40.504079991951585" lon="-4.246759973466396">
        <ele>874.05499999999995</ele>
        <time>2021-07-09T23:03:08Z</time>
      </trkpt>
      <trkpt lat="40.504059959203005" lon="-4.246129989624023">
        <ele>870.08100000000002</ele>
        <time>2021-07-09T23:03:16Z</time>
      </trkpt>
      <trkpt lat="40.503979995846748" lon="-4.245869982987642">
        <ele>870.03700000000003</ele>
        <time>2021-07-09T23:03:20Z</time>
      </trkpt>
      <trkpt lat="40.503450008109212" lon="-4.245400009676814">
        <ele>874.03700000000003</ele>
        <time>2021-07-09T23:03:31Z</time>
      </trkpt>
      <trkpt lat="40.503139961510897" lon="-4.245049981400371">
        <ele>872.04899999999998</ele>
        <time>2021-07-09T23:03:39Z</time>
      </trkpt>
      <trkpt lat="40.503029990941286" lon="-4.244979992508888">
        <ele>872.01300000000003</ele>
        <time>2021-07-09T23:03:41Z</time>
      </trkpt>
      <trkpt lat="40.50290996208787" lon="-4.244959959760308">
        <ele>873.00800000000004</ele>
        <time>2021-07-09T23:03:43Z</time>
      </trkpt>
      <trkpt lat="40.502799991518259" lon="-4.244979992508888">
        <ele>874.01999999999998</ele>
        <time>2021-07-09T23:03:45Z</time>
      </trkpt>
      <trkpt lat="40.502699995413423" lon="-4.245040006935597">
        <ele>876.01999999999998</ele>
        <time>2021-07-09T23:03:47Z</time>
      </trkpt>
      <trkpt lat="40.502460021525621" lon="-4.245300013571978">
        <ele>883.02999999999997</ele>
        <time>2021-07-09T23:03:53Z</time>
      </trkpt>
      <trkpt lat="40.502290036529303" lon="-4.245319962501526">
        <ele>886.05899999999997</ele>
        <time>2021-07-09T23:03:56Z</time>
      </trkpt>
      <trkpt lat="40.502209989354014" lon="-4.245260031893849">
        <ele>887.03399999999999</ele>
        <time>2021-07-09T23:03:57Z</time>
      </trkpt>
      <trkpt lat="40.502140000462532" lon="-4.245019974187017">
        <ele>886.07299999999998</ele>
        <time>2021-07-09T23:04:01Z</time>
      </trkpt>
      <trkpt lat="40.502190040424466" lon="-4.244310026988387">
        <ele>882.06899999999996</ele>
        <time>2021-07-09T23:04:10Z</time>
      </trkpt>
      <trkpt lat="40.50220001488924" lon="-4.243219960480928">
        <ele>880.01499999999999</ele>
        <time>2021-07-09T23:04:25Z</time>
      </trkpt>
      <trkpt lat="40.502109993249178" lon="-4.242930030450225">
        <ele>880.05600000000004</ele>
        <time>2021-07-09T23:04:29Z</time>
      </trkpt>
      <trkpt lat="40.502030029892921" lon="-4.242800027132034">
        <ele>881.05899999999997</ele>
        <time>2021-07-09T23:04:32Z</time>
      </trkpt>
      <trkpt lat="40.501819979399443" lon="-4.242559969425201">
        <ele>882.01400000000001</ele>
        <time>2021-07-09T23:04:37Z</time>
      </trkpt>
      <trkpt lat="40.501199970021844" lon="-4.241950018331409">
        <ele>886.00800000000004</ele>
        <time>2021-07-09T23:04:50Z</time>
      </trkpt>
      <trkpt lat="40.500999977812171" lon="-4.241810040548444">
        <ele>887.09199999999998</ele>
        <time>2021-07-09T23:04:54Z</time>
      </trkpt>
      <trkpt lat="40.500750029459596" lon="-4.241720018908382">
        <ele>889.08199999999999</ele>
        <time>2021-07-09T23:04:59Z</time>
      </trkpt>
      <trkpt lat="40.500579960644245" lon="-4.241580041125417">
        <ele>890.072</ele>
        <time>2021-07-09T23:05:03Z</time>
      </trkpt>
      <trkpt lat="40.499170040711761" lon="-4.240059982985258">
        <ele>890.09100000000001</ele>
        <time>2021-07-09T23:05:35Z</time>
      </trkpt>
      <trkpt lat="40.498910034075379" lon="-4.239720012992621">
        <ele>891.03599999999994</ele>
        <time>2021-07-09T23:05:41Z</time>
      </trkpt>
      <trkpt lat="40.498729990795255" lon="-4.239100003615022">
        <ele>891.06500000000005</ele>
        <time>2021-07-09T23:05:50Z</time>
      </trkpt>
      <trkpt lat="40.498899975791574" lon="-4.238400030881167">
        <ele>891.06100000000004</ele>
        <time>2021-07-09T23:06:00Z</time>
      </trkpt>
      <trkpt lat="40.49899997189641" lon="-4.238219987601042">
        <ele>891.077</ele>
        <time>2021-07-09T23:06:03Z</time>
      </trkpt>
      <trkpt lat="40.499329967424273" lon="-4.237810028716922">
        <ele>892.01400000000001</ele>
        <time>2021-07-09T23:06:12Z</time>
      </trkpt>
      <trkpt lat="40.499519985169172" lon="-4.237510040402412">
        <ele>893.05399999999997</ele>
        <time>2021-07-09T23:06:17Z</time>
      </trkpt>
      <trkpt lat="40.499649988487363" lon="-4.237409960478544">
        <ele>893.00900000000001</ele>
        <time>2021-07-09T23:06:19Z</time>
      </trkpt>
      <trkpt lat="40.500239990651608" lon="-4.237069990485907">
        <ele>894.00800000000004</ele>
        <time>2021-07-09T23:06:31Z</time>
      </trkpt>
      <trkpt lat="40.501199970021844" lon="-4.236779976636171">
        <ele>894.02800000000002</ele>
        <time>2021-07-09T23:06:48Z</time>
      </trkpt>
      <trkpt lat="40.50134003162384" lon="-4.236760027706623">
        <ele>894.06799999999998</ele>
        <time>2021-07-09T23:06:51Z</time>
      </trkpt>
      <trkpt lat="40.501580005511642" lon="-4.236809983849526">
        <ele>893.01800000000003</ele>
        <time>2021-07-09T23:06:55Z</time>
      </trkpt>
      <trkpt lat="40.501819979399443" lon="-4.236779976636171">
        <ele>892.09699999999998</ele>
        <time>2021-07-09T23:07:00Z</time>
      </trkpt>
      <trkpt lat="40.502509977668524" lon="-4.236489962786436">
        <ele>889.04200000000003</ele>
        <time>2021-07-09T23:07:12Z</time>
      </trkpt>
      <trkpt lat="40.50265003927052" lon="-4.236449981108308">
        <ele>889.05100000000004</ele>
        <time>2021-07-09T23:07:15Z</time>
      </trkpt>
      <trkpt lat="40.502990009263158" lon="-4.23643003217876">
        <ele>889.09699999999998</ele>
        <time>2021-07-09T23:07:21Z</time>
      </trkpt>
      <trkpt lat="40.504330024123192" lon="-4.235799964517355">
        <ele>890.02300000000002</ele>
        <time>2021-07-09T23:07:46Z</time>
      </trkpt>
      <trkpt lat="40.504549965262413" lon="-4.235710026696324">
        <ele>889.01700000000005</ele>
        <time>2021-07-09T23:07:50Z</time>
      </trkpt>
      <trkpt lat="40.505180032923818" lon="-4.2355299834162">
        <ele>889.08699999999999</ele>
        <time>2021-07-09T23:08:02Z</time>
      </trkpt>
      <trkpt lat="40.505810016766191" lon="-4.235280035063624">
        <ele>890.01499999999999</ele>
        <time>2021-07-09T23:08:14Z</time>
      </trkpt>
      <trkpt lat="40.506509989500046" lon="-4.234960014000535">
        <ele>894.00800000000004</ele>
        <time>2021-07-09T23:08:27Z</time>
      </trkpt>
      <trkpt lat="40.506609985604882" lon="-4.234839985147119">
        <ele>895.03800000000001</ele>
        <time>2021-07-09T23:08:29Z</time>
      </trkpt>
      <trkpt lat="40.506679974496365" lon="-4.234200026839972">
        <ele>897.05799999999999</ele>
        <time>2021-07-09T23:08:38Z</time>
      </trkpt>
      <trkpt lat="40.507329991087317" lon="-4.232119973748922">
        <ele>907.07799999999997</ele>
        <time>2021-07-09T23:09:08Z</time>
      </trkpt>
      <trkpt lat="40.507429987192154" lon="-4.231729963794351">
        <ele>909.05700000000002</ele>
        <time>2021-07-09T23:09:14Z</time>
      </trkpt>
      <trkpt lat="40.507459994405508" lon="-4.231529971584678">
        <ele>910.01199999999994</ele>
        <time>2021-07-09T23:09:17Z</time>
      </trkpt>
      <trkpt lat="40.50742001272738" lon="-4.230860006064177">
        <ele>914.02099999999996</ele>
        <time>2021-07-09T23:09:26Z</time>
      </trkpt>
      <trkpt lat="40.507469968870282" lon="-4.230509977787733">
        <ele>919.077</ele>
        <time>2021-07-09T23:09:31Z</time>
      </trkpt>
      <trkpt lat="40.507940026000142" lon="-4.229710008949041">
        <ele>926.053</ele>
        <time>2021-07-09T23:09:44Z</time>
      </trkpt>
      <trkpt lat="40.508019989356399" lon="-4.229610012844205">
        <ele>927.05799999999999</ele>
        <time>2021-07-09T23:09:46Z</time>
      </trkpt>
      <trkpt lat="40.508210007101297" lon="-4.229459976777434">
        <ele>928.05200000000002</ele>
        <time>2021-07-09T23:09:50Z</time>
      </trkpt>
      <trkpt lat="40.510319983586669" lon="-4.228360019624233">
        <ele>947.01700000000005</ele>
        <time>2021-07-09T23:10:31Z</time>
      </trkpt>
      <trkpt lat="40.51087997853756" lon="-4.227940002456307">
        <ele>954.00800000000004</ele>
        <time>2021-07-09T23:10:42Z</time>
      </trkpt>
      <trkpt lat="40.511330002918839" lon="-4.227659963071346">
        <ele>957.01199999999994</ele>
        <time>2021-07-09T23:10:51Z</time>
      </trkpt>
      <trkpt lat="40.511859990656376" lon="-4.227159982547164">
        <ele>962.05200000000002</ele>
        <time>2021-07-09T23:11:03Z</time>
      </trkpt>
      <trkpt lat="40.512070041149855" lon="-4.226859994232655">
        <ele>964.03200000000004</ele>
        <time>2021-07-09T23:11:08Z</time>
      </trkpt>
      <trkpt lat="40.512250000610948" lon="-4.226539973169565">
        <ele>966.03099999999995</ele>
        <time>2021-07-09T23:11:13Z</time>
      </trkpt>
      <trkpt lat="40.512389978393912" lon="-4.226169995963574">
        <ele>969.05600000000004</ele>
        <time>2021-07-09T23:11:19Z</time>
      </trkpt>
      <trkpt lat="40.512449992820621" lon="-4.225770011544228">
        <ele>973.02499999999998</ele>
        <time>2021-07-09T23:11:25Z</time>
      </trkpt>
      <trkpt lat="40.512480000033975" lon="-4.224710036069155">
        <ele>978.06100000000004</ele>
        <time>2021-07-09T23:11:39Z</time>
      </trkpt>
      <trkpt lat="40.512470025569201" lon="-4.224309967830777">
        <ele>980.02700000000004</ele>
        <time>2021-07-09T23:11:44Z</time>
      </trkpt>
      <trkpt lat="40.512359971180558" lon="-4.223719965666533">
        <ele>985.05399999999997</ele>
        <time>2021-07-09T23:11:53Z</time>
      </trkpt>
      <trkpt lat="40.512170037254691" lon="-4.223129963502288">
        <ele>991.05600000000004</ele>
        <time>2021-07-09T23:12:01Z</time>
      </trkpt>
      <trkpt lat="40.512010026723146" lon="-4.222740037366748">
        <ele>994.01099999999997</ele>
        <time>2021-07-09T23:12:07Z</time>
      </trkpt>
      <trkpt lat="40.511799976229668" lon="-4.222399983555079">
        <ele>996.00800000000004</ele>
        <time>2021-07-09T23:12:13Z</time>
      </trkpt>
      <trkpt lat="40.511680031195283" lon="-4.22225003130734">
        <ele>997.01199999999994</ele>
        <time>2021-07-09T23:12:16Z</time>
      </trkpt>
      <trkpt lat="40.511409966275096" lon="-4.221990024670959">
        <ele>998.01199999999994</ele>
        <time>2021-07-09T23:12:22Z</time>
      </trkpt>
      <trkpt lat="40.511090029031038" lon="-4.22177997417748">
        <ele>999.01199999999994</ele>
        <time>2021-07-09T23:12:28Z</time>
      </trkpt>
      <trkpt lat="40.510619971901178" lon="-4.221560033038259">
        <ele>1003.061</ele>
        <time>2021-07-09T23:12:37Z</time>
      </trkpt>
      <trkpt lat="40.510459961369634" lon="-4.22150001861155">
        <ele>1006.056</ele>
        <time>2021-07-09T23:12:40Z</time>
      </trkpt>
      <trkpt lat="40.50929001532495" lon="-4.221530025824904">
        <ele>1018.095</ele>
        <time>2021-07-09T23:13:01Z</time>
      </trkpt>
      <trkpt lat="40.508979968726635" lon="-4.221449978649616">
        <ele>1021.011</ele>
        <time>2021-07-09T23:13:07Z</time>
      </trkpt>
      <trkpt lat="40.508690038695931" lon="-4.221249986439943">
        <ele>1025.077</ele>
        <time>2021-07-09T23:13:13Z</time>
      </trkpt>
      <trkpt lat="40.508549977093935" lon="-4.221119983121753">
        <ele>1026.0219999999999</ele>
        <time>2021-07-09T23:13:16Z</time>
      </trkpt>
      <trkpt lat="40.508440006524324" lon="-4.220970030874014">
        <ele>1028.0619999999999</ele>
        <time>2021-07-09T23:13:18Z</time>
      </trkpt>
      <trkpt lat="40.508289970457554" lon="-4.22062000259757">
        <ele>1032.008</ele>
        <time>2021-07-09T23:13:24Z</time>
      </trkpt>
      <trkpt lat="40.508249988779426" lon="-4.220420010387898">
        <ele>1034.008</ele>
        <time>2021-07-09T23:13:27Z</time>
      </trkpt>
      <trkpt lat="40.508270021528006" lon="-4.220020025968552">
        <ele>1035.069</ele>
        <time>2021-07-09T23:13:32Z</time>
      </trkpt>
      <trkpt lat="40.508370017632842" lon="-4.2196099832654">
        <ele>1039.079</ele>
        <time>2021-07-09T23:13:38Z</time>
      </trkpt>
      <trkpt lat="40.509539963677526" lon="-4.216700037941337">
        <ele>1055.0889999999999</ele>
        <time>2021-07-09T23:14:22Z</time>
      </trkpt>
      <trkpt lat="40.509729981422424" lon="-4.216489987447858">
        <ele>1057.098</ele>
        <time>2021-07-09T23:14:27Z</time>
      </trkpt>
      <trkpt lat="40.510400030761957" lon="-4.216039963066578">
        <ele>1058.0329999999999</ele>
        <time>2021-07-09T23:14:40Z</time>
      </trkpt>
      <trkpt lat="40.510939992964268" lon="-4.215630004182458">
        <ele>1060.0820000000001</ele>
        <time>2021-07-09T23:14:51Z</time>
      </trkpt>
      <trkpt lat="40.511060021817684" lon="-4.215509975329042">
        <ele>1060.078</ele>
        <time>2021-07-09T23:14:54Z</time>
      </trkpt>
      <trkpt lat="40.511250039562583" lon="-4.215239994227886">
        <ele>1063.0840000000001</ele>
        <time>2021-07-09T23:14:59Z</time>
      </trkpt>
      <trkpt lat="40.511469980701804" lon="-4.214759962633252">
        <ele>1070.0550000000001</ele>
        <time>2021-07-09T23:15:07Z</time>
      </trkpt>
      <trkpt lat="40.511629991233349" lon="-4.214480007067323">
        <ele>1072.0070000000001</ele>
        <time>2021-07-09T23:15:11Z</time>
      </trkpt>
      <trkpt lat="40.511810034513474" lon="-4.214250007644296">
        <ele>1075.0170000000001</ele>
        <time>2021-07-09T23:15:16Z</time>
      </trkpt>
      <trkpt lat="40.511940037831664" lon="-4.213999975472689">
        <ele>1077.008</ele>
        <time>2021-07-09T23:15:20Z</time>
      </trkpt>
      <trkpt lat="40.512040033936501" lon="-4.213669979944825">
        <ele>1079.0219999999999</ele>
        <time>2021-07-09T23:15:25Z</time>
      </trkpt>
      <trkpt lat="40.512170037254691" lon="-4.21294997446239">
        <ele>1076.0319999999999</ele>
        <time>2021-07-09T23:15:35Z</time>
      </trkpt>
      <trkpt lat="40.512289982289076" lon="-4.212619978934526">
        <ele>1072.0619999999999</ele>
        <time>2021-07-09T23:15:40Z</time>
      </trkpt>
      <trkpt lat="40.512380003929138" lon="-4.212480001151562">
        <ele>1069.0409999999999</ele>
        <time>2021-07-09T23:15:42Z</time>
      </trkpt>
      <trkpt lat="40.512600028887391" lon="-4.212259976193309">
        <ele>1065.0160000000001</ele>
        <time>2021-07-09T23:15:47Z</time>
      </trkpt>
      <trkpt lat="40.513009987771511" lon="-4.211999969556928">
        <ele>1063.085</ele>
        <time>2021-07-09T23:15:55Z</time>
      </trkpt>
      <trkpt lat="40.51322003826499" lon="-4.211750021204352">
        <ele>1060.0409999999999</ele>
        <time>2021-07-09T23:16:00Z</time>
      </trkpt>
      <trkpt lat="40.5133300088346" lon="-4.211460007354617">
        <ele>1056.097</ele>
        <time>2021-07-09T23:16:05Z</time>
      </trkpt>
      <trkpt lat="40.51335004158318" lon="-4.211290022358298">
        <ele>1054.0989999999999</ele>
        <time>2021-07-09T23:16:07Z</time>
      </trkpt>
      <trkpt lat="40.5133300088346" lon="-4.210949968546629">
        <ele>1050.0070000000001</ele>
        <time>2021-07-09T23:16:11Z</time>
      </trkpt>
      <trkpt lat="40.513269994407892" lon="-4.210790041834116">
        <ele>1048.027</ele>
        <time>2021-07-09T23:16:14Z</time>
      </trkpt>
      <trkpt lat="40.513079976662993" lon="-4.210519976913929">
        <ele>1045.008</ele>
        <time>2021-07-09T23:16:19Z</time>
      </trkpt>
      <trkpt lat="40.512960031628609" lon="-4.210419980809093">
        <ele>1044.046</ele>
        <time>2021-07-09T23:16:21Z</time>
      </trkpt>
      <trkpt lat="40.512389978393912" lon="-4.210200039669871">
        <ele>1042.076</ele>
        <time>2021-07-09T23:16:32Z</time>
      </trkpt>
      <trkpt lat="40.512110022827983" lon="-4.210050003603101">
        <ele>1042.086</ele>
        <time>2021-07-09T23:16:37Z</time>
      </trkpt>
      <trkpt lat="40.511989993974566" lon="-4.20992000028491">
        <ele>1041.075</ele>
        <time>2021-07-09T23:16:40Z</time>
      </trkpt>
      <trkpt lat="40.511790001764894" lon="-4.209590004757047">
        <ele>1039.0899999999999</ele>
        <time>2021-07-09T23:16:46Z</time>
      </trkpt>
      <trkpt lat="40.511739961802959" lon="-4.209390012547374">
        <ele>1037.019</ele>
        <time>2021-07-09T23:16:49Z</time>
      </trkpt>
      <trkpt lat="40.511690005660057" lon="-4.208969995379448">
        <ele>1032.0150000000001</ele>
        <time>2021-07-09T23:16:54Z</time>
      </trkpt>
      <trkpt lat="40.511599984019995" lon="-4.208649974316359">
        <ele>1029.011</ele>
        <time>2021-07-09T23:16:59Z</time>
      </trkpt>
      <trkpt lat="40.511509962379932" lon="-4.208519970998168">
        <ele>1027.0170000000001</ele>
        <time>2021-07-09T23:17:01Z</time>
      </trkpt>
      <trkpt lat="40.510939992964268" lon="-4.208230040967464">
        <ele>1025.087</ele>
        <time>2021-07-09T23:17:12Z</time>
      </trkpt>
      <trkpt lat="40.510070035234094" lon="-4.207850005477667">
        <ele>1018.015</ele>
        <time>2021-07-09T23:17:29Z</time>
      </trkpt>
      <trkpt lat="40.508890030905604" lon="-4.207239970564842">
        <ele>1006.008</ele>
        <time>2021-07-09T23:17:51Z</time>
      </trkpt>
      <trkpt lat="40.508519969880581" lon="-4.207009971141815">
        <ele>1003.058</ele>
        <time>2021-07-09T23:17:58Z</time>
      </trkpt>
      <trkpt lat="40.508349984884262" lon="-4.206869993358851">
        <ele>1001.068</ele>
        <time>2021-07-09T23:18:02Z</time>
      </trkpt>
      <trkpt lat="40.507889986038208" lon="-4.20630999840796">
        <ele>996.08799999999997</ele>
        <time>2021-07-09T23:18:13Z</time>
      </trkpt>
      <trkpt lat="40.50755001604557" lon="-4.205989977344871">
        <ele>994.03700000000003</ele>
        <time>2021-07-09T23:18:21Z</time>
      </trkpt>
      <trkpt lat="40.506999995559454" lon="-4.205629974603653">
        <ele>992.02200000000005</ele>
        <time>2021-07-09T23:18:32Z</time>
      </trkpt>
      <trkpt lat="40.506630018353462" lon="-4.205499971285462">
        <ele>990.02099999999996</ele>
        <time>2021-07-09T23:18:38Z</time>
      </trkpt>
      <trkpt lat="40.50624000839889" lon="-4.205499971285462">
        <ele>990.09699999999998</ele>
        <time>2021-07-09T23:18:45Z</time>
      </trkpt>
      <trkpt lat="40.505369966849685" lon="-4.205610025674105">
        <ele>990.07299999999998</ele>
        <time>2021-07-09T23:19:01Z</time>
      </trkpt>
      <trkpt lat="40.503229983150959" lon="-4.205819992348552">
        <ele>996.072</ele>
        <time>2021-07-09T23:19:39Z</time>
      </trkpt>
      <trkpt lat="40.50305999815464" lon="-4.205819992348552">
        <ele>996.01300000000003</ele>
        <time>2021-07-09T23:19:42Z</time>
      </trkpt>
      <trkpt lat="40.502750035375357" lon="-4.205689989030361">
        <ele>997.01400000000001</ele>
        <time>2021-07-09T23:19:48Z</time>
      </trkpt>
      <trkpt lat="40.502460021525621" lon="-4.205440040677786">
        <ele>999.00800000000004</ele>
        <time>2021-07-09T23:19:54Z</time>
      </trkpt>
      <trkpt lat="40.501240035519004" lon="-4.204260036349297">
        <ele>1001.024</ele>
        <time>2021-07-09T23:20:21Z</time>
      </trkpt>
      <trkpt lat="40.50086997449398" lon="-4.203930040821433">
        <ele>999.05399999999997</ele>
        <time>2021-07-09T23:20:29Z</time>
      </trkpt>
      <trkpt lat="40.499180015176535" lon="-4.202549960464239">
        <ele>1000.074</ele>
        <time>2021-07-09T23:21:04Z</time>
      </trkpt>
      <trkpt lat="40.498200003057718" lon="-4.201849987730384">
        <ele>1000.063</ele>
        <time>2021-07-09T23:21:24Z</time>
      </trkpt>
      <trkpt lat="40.497879981994629" lon="-4.201480010524392">
        <ele>1000.048</ele>
        <time>2021-07-09T23:21:32Z</time>
      </trkpt>
      <trkpt lat="40.497589968144894" lon="-4.201050018891692">
        <ele>999.06700000000001</ele>
        <time>2021-07-09T23:21:39Z</time>
      </trkpt>
      <trkpt lat="40.497380001470447" lon="-4.200599994510412">
        <ele>999.04300000000001</ele>
        <time>2021-07-09T23:21:47Z</time>
      </trkpt>
      <trkpt lat="40.496559999883175" lon="-4.197040032595396">
        <ele>992.09900000000005</ele>
        <time>2021-07-09T23:22:37Z</time>
      </trkpt>
      <trkpt lat="40.496460003778338" lon="-4.196509961038828">
        <ele>991.04600000000005</ele>
        <time>2021-07-09T23:22:44Z</time>
      </trkpt>
      <trkpt lat="40.49639998935163" lon="-4.195660036057234">
        <ele>988.08799999999997</ele>
        <time>2021-07-09T23:22:56Z</time>
      </trkpt>
      <trkpt lat="40.496350033208728" lon="-4.192629978060722">
        <ele>975.01599999999996</ele>
        <time>2021-07-09T23:23:37Z</time>
      </trkpt>
      <trkpt lat="40.49626998603344" lon="-4.192069983109832">
        <ele>971.00800000000004</ele>
        <time>2021-07-09T23:23:45Z</time>
      </trkpt>
      <trkpt lat="40.496020037680864" lon="-4.190949993208051">
        <ele>964.03099999999995</ele>
        <time>2021-07-09T23:24:00Z</time>
      </trkpt>
      <trkpt lat="40.495930016040802" lon="-4.190680012106895">
        <ele>962.03099999999995</ele>
        <time>2021-07-09T23:24:04Z</time>
      </trkpt>
      <trkpt lat="40.495589962229133" lon="-4.189969981089234">
        <ele>957.04100000000005</ele>
        <time>2021-07-09T23:24:16Z</time>
      </trkpt>
      <trkpt lat="40.49541000276804" lon="-4.18950998224318">
        <ele>954.05999999999995</ele>
        <time>2021-07-09T23:24:23Z</time>
      </trkpt>
      <trkpt lat="40.495379995554686" lon="-4.189019976183772">
        <ele>951.05499999999995</ele>
        <time>2021-07-09T23:24:29Z</time>
      </trkpt>
      <trkpt lat="40.495530031621456" lon="-4.187880037352443">
        <ele>946.01400000000001</ele>
        <time>2021-07-09T23:24:45Z</time>
      </trkpt>
      <trkpt lat="40.495630027726293" lon="-4.186500040814281">
        <ele>938.05999999999995</ele>
        <time>2021-07-09T23:25:04Z</time>
      </trkpt>
      <trkpt lat="40.495579987764359" lon="-4.186299964785576">
        <ele>936.07600000000002</ele>
        <time>2021-07-09T23:25:07Z</time>
      </trkpt>
      <trkpt lat="40.494989985600114" lon="-4.185149967670441">
        <ele>929.06600000000003</ele>
        <time>2021-07-09T23:25:25Z</time>
      </trkpt>
      <trkpt lat="40.494929971173406" lon="-4.18490999378264">
        <ele>928.029</ele>
        <time>2021-07-09T23:25:29Z</time>
      </trkpt>
      <trkpt lat="40.494889989495277" lon="-4.184419987723231">
        <ele>926.02099999999996</ele>
        <time>2021-07-09T23:25:36Z</time>
      </trkpt>
      <trkpt lat="40.494840033352375" lon="-4.182830024510622">
        <ele>921.00800000000004</ele>
        <time>2021-07-09T23:25:57Z</time>
      </trkpt>
      <trkpt lat="40.494650015607476" lon="-4.182089986279607">
        <ele>921.03300000000002</ele>
        <time>2021-07-09T23:26:08Z</time>
      </trkpt>
      <trkpt lat="40.494459997862577" lon="-4.181639961898327">
        <ele>923.07299999999998</ele>
        <time>2021-07-09T23:26:15Z</time>
      </trkpt>
      <trkpt lat="40.494339969009161" lon="-4.181420020759106">
        <ele>924.01300000000003</ele>
        <time>2021-07-09T23:26:18Z</time>
      </trkpt>
      <trkpt lat="40.493619963526726" lon="-4.180259965360165">
        <ele>924.01199999999994</ele>
        <time>2021-07-09T23:26:38Z</time>
      </trkpt>
      <trkpt lat="40.493310000747442" lon="-4.179780017584562">
        <ele>925.04700000000003</ele>
        <time>2021-07-09T23:26:47Z</time>
      </trkpt>
      <trkpt lat="40.492980005219579" lon="-4.179350025951862">
        <ele>927.03599999999994</ele>
        <time>2021-07-09T23:26:55Z</time>
      </trkpt>
      <trkpt lat="40.492640035226941" lon="-4.178960015997291">
        <ele>927.08199999999999</ele>
        <time>2021-07-09T23:27:03Z</time>
      </trkpt>
      <trkpt lat="40.492450017482042" lon="-4.178790031000972">
        <ele>926.09799999999996</ele>
        <time>2021-07-09T23:27:07Z</time>
      </trkpt>
      <trkpt lat="40.492050033062696" lon="-4.178500017151237">
        <ele>927.06299999999999</ele>
        <time>2021-07-09T23:27:16Z</time>
      </trkpt>
      <trkpt lat="40.490180030465126" lon="-4.177350020036101">
        <ele>936.04399999999998</ele>
        <time>2021-07-09T23:27:52Z</time>
      </trkpt>
      <trkpt lat="40.489730006083846" lon="-4.177009966224432">
        <ele>935.01800000000003</ele>
        <time>2021-07-09T23:28:01Z</time>
      </trkpt>
      <trkpt lat="40.489230025559664" lon="-4.176839981228113">
        <ele>931.00800000000004</ele>
        <time>2021-07-09T23:28:11Z</time>
      </trkpt>
      <trkpt lat="40.489010000601411" lon="-4.17666002176702">
        <ele>930.06299999999999</ele>
        <time>2021-07-09T23:28:15Z</time>
      </trkpt>
      <trkpt lat="40.488840015605092" lon="-4.176390040665865">
        <ele>931.06299999999999</ele>
        <time>2021-07-09T23:28:20Z</time>
      </trkpt>
      <trkpt lat="40.488740019500256" lon="-4.176049986854196">
        <ele>931.03300000000002</ele>
        <time>2021-07-09T23:28:25Z</time>
      </trkpt>
      <trkpt lat="40.488580008968711" lon="-4.174950029700995">
        <ele>927.072</ele>
        <time>2021-07-09T23:28:40Z</time>
      </trkpt>
      <trkpt lat="40.488480012863874" lon="-4.173529967665672">
        <ele>918.05700000000002</ele>
        <time>2021-07-09T23:28:59Z</time>
      </trkpt>
      <trkpt lat="40.488480012863874" lon="-4.172899983823299">
        <ele>915.096</ele>
        <time>2021-07-09T23:29:08Z</time>
      </trkpt>
      <trkpt lat="40.488350009545684" lon="-4.171410016715527">
        <ele>908.04200000000003</ele>
        <time>2021-07-09T23:29:28Z</time>
      </trkpt>
      <trkpt lat="40.48832000233233" lon="-4.171250006183982">
        <ele>907.05799999999999</ele>
        <time>2021-07-09T23:29:30Z</time>
      </trkpt>
      <trkpt lat="40.488210031762719" lon="-4.170980025082827">
        <ele>907.03899999999999</ele>
        <time>2021-07-09T23:29:35Z</time>
      </trkpt>
      <trkpt lat="40.488059995695949" lon="-4.1707500256598">
        <ele>906.00099999999998</ele>
        <time>2021-07-09T23:29:39Z</time>
      </trkpt>
      <trkpt lat="40.487820021808147" lon="-4.17045003734529">
        <ele>903.02099999999996</ele>
        <time>2021-07-09T23:29:45Z</time>
      </trkpt>
      <trkpt lat="40.487799989059567" lon="-4.170390022918582">
        <ele>903.00800000000004</ele>
        <time>2021-07-09T23:29:45Z</time>
      </trkpt>
      <trkpt lat="40.487820021808147" lon="-4.1703200340271">
        <ele>903.08000000000004</ele>
        <time>2021-07-09T23:29:47Z</time>
      </trkpt>
      <trkpt lat="40.488050021231174" lon="-4.170169997960329">
        <ele>905.01999999999998</ele>
        <time>2021-07-09T23:29:51Z</time>
      </trkpt>
      <trkpt lat="40.488259987905622" lon="-4.169990038499236">
        <ele>907.09000000000003</ele>
        <time>2021-07-09T23:29:56Z</time>
      </trkpt>
      <trkpt lat="40.488519994542003" lon="-4.169709999114275">
        <ele>910.029</ele>
        <time>2021-07-09T23:30:02Z</time>
      </trkpt>
      <trkpt lat="40.488870022818446" lon="-4.169259974732995">
        <ele>914.07399999999996</ele>
        <time>2021-07-09T23:30:10Z</time>
      </trkpt>
      <trkpt lat="40.489230025559664" lon="-4.168850015848875">
        <ele>917.06299999999999</ele>
        <time>2021-07-09T23:30:19Z</time>
      </trkpt>
      <trkpt lat="40.489349970594049" lon="-4.168729986995459">
        <ele>919.06899999999996</ele>
        <time>2021-07-09T23:30:21Z</time>
      </trkpt>
      <trkpt lat="40.489430017769337" lon="-4.168699979782105">
        <ele>920.06500000000005</ele>
        <time>2021-07-09T23:30:23Z</time>
      </trkpt>
      <trkpt lat="40.489660017192364" lon="-4.168720012530685">
        <ele>922.06200000000001</ele>
        <time>2021-07-09T23:30:27Z</time>
      </trkpt>
      <trkpt lat="40.489730006083846" lon="-4.168750019744039">
        <ele>922.08299999999997</ele>
        <time>2021-07-09T23:30:28Z</time>
      </trkpt>
      <trkpt lat="40.49006000161171" lon="-4.168999968096614">
        <ele>924.01099999999997</ele>
        <time>2021-07-09T23:30:35Z</time>
      </trkpt>
      <trkpt lat="40.49059996381402" lon="-4.169329963624477">
        <ele>931.00800000000004</ele>
        <time>2021-07-09T23:30:46Z</time>
      </trkpt>
      <trkpt lat="40.490719992667437" lon="-4.169380003586412">
        <ele>933.08299999999997</ele>
        <time>2021-07-09T23:30:48Z</time>
      </trkpt>
      <trkpt lat="40.490849995985627" lon="-4.169319989159703">
        <ele>934.02300000000002</ele>
        <time>2021-07-09T23:30:50Z</time>
      </trkpt>
      <trkpt lat="40.491140009835362" lon="-4.16871003806591">
        <ele>936.03300000000002</ele>
        <time>2021-07-09T23:31:00Z</time>
      </trkpt>
      <trkpt lat="40.491249980404973" lon="-4.168609958142042">
        <ele>937.05200000000002</ele>
        <time>2021-07-09T23:31:02Z</time>
      </trkpt>
      <trkpt lat="40.491370009258389" lon="-4.168599983677268">
        <ele>937.06700000000001</ele>
        <time>2021-07-09T23:31:05Z</time>
      </trkpt>
      <trkpt lat="40.491430023685098" lon="-4.168639965355396">
        <ele>938.096</ele>
        <time>2021-07-09T23:31:06Z</time>
      </trkpt>
      <trkpt lat="40.491519961506128" lon="-4.168780026957393">
        <ele>938.05200000000002</ele>
        <time>2021-07-09T23:31:08Z</time>
      </trkpt>
      <trkpt lat="40.491809975355864" lon="-4.169789962470532">
        <ele>940.06799999999998</ele>
        <time>2021-07-09T23:31:23Z</time>
      </trkpt>
      <trkpt lat="40.49195003695786" lon="-4.169909991323948">
        <ele>940.09100000000001</ele>
        <time>2021-07-09T23:31:26Z</time>
      </trkpt>
      <trkpt lat="40.492039974778891" lon="-4.169919965788722">
        <ele>940.08100000000002</ele>
        <time>2021-07-09T23:31:27Z</time>
      </trkpt>
      <trkpt lat="40.492640035226941" lon="-4.169730031862855">
        <ele>940.01900000000001</ele>
        <time>2021-07-09T23:31:38Z</time>
      </trkpt>
      <trkpt lat="40.49321997910738" lon="-4.169649984687567">
        <ele>939.00800000000004</ele>
        <time>2021-07-09T23:31:49Z</time>
      </trkpt>
      <trkpt lat="40.493479985743761" lon="-4.16957002133131">
        <ele>937.096</ele>
        <time>2021-07-09T23:31:54Z</time>
      </trkpt>
      <trkpt lat="40.494179958477616" lon="-4.169280007481575">
        <ele>933.02599999999995</ele>
        <time>2021-07-09T23:32:07Z</time>
      </trkpt>
      <trkpt lat="40.49465999007225" lon="-4.16914002969861">
        <ele>930.05600000000004</ele>
        <time>2021-07-09T23:32:15Z</time>
      </trkpt>
      <trkpt lat="40.496330000460148" lon="-4.168480038642883">
        <ele>928.01499999999999</ele>
        <time>2021-07-09T23:32:46Z</time>
      </trkpt>
      <trkpt lat="40.496999965980649" lon="-4.168309969827533">
        <ele>928.07000000000005</ele>
        <time>2021-07-09T23:32:59Z</time>
      </trkpt>
      <trkpt lat="40.497459964826703" lon="-4.168309969827533">
        <ele>927.06899999999996</ele>
        <time>2021-07-09T23:33:07Z</time>
      </trkpt>
      <trkpt lat="40.498379962518811" lon="-4.168429998680949">
        <ele>926.04499999999996</ele>
        <time>2021-07-09T23:33:23Z</time>
      </trkpt>
      <trkpt lat="40.498790005221963" lon="-4.168460005894303">
        <ele>926.06100000000004</ele>
        <time>2021-07-09T23:33:30Z</time>
      </trkpt>
      <trkpt lat="40.498989997431636" lon="-4.168429998680949">
        <ele>925.024</ele>
        <time>2021-07-09T23:33:34Z</time>
      </trkpt>
      <trkpt lat="40.500409975647926" lon="-4.168039988726378">
        <ele>919.00400000000002</ele>
        <time>2021-07-09T23:34:00Z</time>
      </trkpt>
      <trkpt lat="40.500809960067272" lon="-4.16783002205193">
        <ele>916.01400000000001</ele>
        <time>2021-07-09T23:34:08Z</time>
      </trkpt>
      <trkpt lat="40.501399962231517" lon="-4.167459961026907">
        <ele>910.00800000000004</ele>
        <time>2021-07-09T23:34:19Z</time>
      </trkpt>
      <trkpt lat="40.501979989930987" lon="-4.167210012674332">
        <ele>904.029</ele>
        <time>2021-07-09T23:34:30Z</time>
      </trkpt>
      <trkpt lat="40.502149974927306" lon="-4.167159972712398">
        <ele>903.09900000000005</ele>
        <time>2021-07-09T23:34:33Z</time>
      </trkpt>
      <trkpt lat="40.502699995413423" lon="-4.167129965499044">
        <ele>898.09900000000005</ele>
        <time>2021-07-09T23:34:43Z</time>
      </trkpt>
      <trkpt lat="40.50303996540606" lon="-4.16722996160388">
        <ele>896.06799999999998</ele>
        <time>2021-07-09T23:34:49Z</time>
      </trkpt>
      <trkpt lat="40.503740021958947" lon="-4.167649978771806">
        <ele>892.07299999999998</ele>
        <time>2021-07-09T23:35:03Z</time>
      </trkpt>
      <trkpt lat="40.504130031913519" lon="-4.167770007625222">
        <ele>889.08199999999999</ele>
        <time>2021-07-09T23:35:10Z</time>
      </trkpt>
      <trkpt lat="40.504760015755892" lon="-4.16780998930335">
        <ele>887.03800000000001</ele>
        <time>2021-07-09T23:35:21Z</time>
      </trkpt>
      <trkpt lat="40.505199981853366" lon="-4.167719967663288">
        <ele>884.09400000000005</ele>
        <time>2021-07-09T23:35:29Z</time>
      </trkpt>
      <trkpt lat="40.506809977814555" lon="-4.167050002142787">
        <ele>875.06399999999996</ele>
        <time>2021-07-09T23:35:59Z</time>
      </trkpt>
      <trkpt lat="40.507280034944415" lon="-4.166759988293052">
        <ele>874.00599999999997</ele>
        <time>2021-07-09T23:36:08Z</time>
      </trkpt>
      <trkpt lat="40.50840999931097" lon="-4.165969993919134">
        <ele>878.01599999999996</ele>
        <time>2021-07-09T23:36:31Z</time>
      </trkpt>
      <trkpt lat="40.508779976516962" lon="-4.165679980069399">
        <ele>880.00800000000004</ele>
        <time>2021-07-09T23:36:39Z</time>
      </trkpt>
      <trkpt lat="40.508920038118958" lon="-4.16553002782166">
        <ele>882.09299999999996</ele>
        <time>2021-07-09T23:36:42Z</time>
      </trkpt>
      <trkpt lat="40.509130004793406" lon="-4.165119985118508">
        <ele>884.02300000000002</ele>
        <time>2021-07-09T23:36:49Z</time>
      </trkpt>
      <trkpt lat="40.509629985317588" lon="-4.163690032437444">
        <ele>888.06299999999999</ele>
        <time>2021-07-09T23:37:10Z</time>
      </trkpt>
      <trkpt lat="40.509840035811067" lon="-4.163159960880876">
        <ele>890.06200000000001</ele>
        <time>2021-07-09T23:37:18Z</time>
      </trkpt>
      <trkpt lat="40.510640004649758" lon="-4.16157997213304">
        <ele>897.05700000000002</ele>
        <time>2021-07-09T23:37:44Z</time>
      </trkpt>
      <trkpt lat="40.511139985173941" lon="-4.160670032724738">
        <ele>900.06600000000003</ele>
        <time>2021-07-09T23:37:59Z</time>
      </trkpt>
      <trkpt lat="40.511379959061742" lon="-4.160320004448295">
        <ele>902.06200000000001</ele>
        <time>2021-07-09T23:38:05Z</time>
      </trkpt>
      <trkpt lat="40.511520020663738" lon="-4.160169968381524">
        <ele>902.01800000000003</ele>
        <time>2021-07-09T23:38:09Z</time>
      </trkpt>
      <trkpt lat="40.512719973921776" lon="-4.158979989588261">
        <ele>907.03899999999999</ele>
        <time>2021-07-09T23:38:35Z</time>
      </trkpt>
      <trkpt lat="40.513009987771511" lon="-4.158830037340522">
        <ele>909.00099999999998</ele>
        <time>2021-07-09T23:38:41Z</time>
      </trkpt>
      <trkpt lat="40.514659965410829" lon="-4.158410020172596">
        <ele>918.02099999999996</ele>
        <time>2021-07-09T23:39:11Z</time>
      </trkpt>
      <trkpt lat="40.51507000811398" lon="-4.158240035176277">
        <ele>919.00800000000004</ele>
        <time>2021-07-09T23:39:18Z</time>
      </trkpt>
      <trkpt lat="40.516110034659505" lon="-4.157750029116869">
        <ele>928.01999999999998</ele>
        <time>2021-07-09T23:39:38Z</time>
      </trkpt>
      <trkpt lat="40.516499960795045" lon="-4.157599993050098">
        <ele>929.04999999999995</ele>
        <time>2021-07-09T23:39:45Z</time>
      </trkpt>
      <trkpt lat="40.516710011288524" lon="-4.157569985836744">
        <ele>930.05999999999995</ele>
        <time>2021-07-09T23:39:49Z</time>
      </trkpt>
      <trkpt lat="40.518190003931522" lon="-4.157479964196682">
        <ele>935.09900000000005</ele>
        <time>2021-07-09T23:40:15Z</time>
      </trkpt>
      <trkpt lat="40.519609982147813" lon="-4.157170001417399">
        <ele>935.09400000000005</ele>
        <time>2021-07-09T23:40:41Z</time>
      </trkpt>
      <trkpt lat="40.520329987630248" lon="-4.1569799836725">
        <ele>932.03300000000002</ele>
        <time>2021-07-09T23:40:54Z</time>
      </trkpt>
      <trkpt lat="40.521539999172091" lon="-4.156710002571344">
        <ele>926.04899999999998</ele>
        <time>2021-07-09T23:41:16Z</time>
      </trkpt>
      <trkpt lat="40.523839993402362" lon="-4.15625000372529">
        <ele>925.02499999999998</ele>
        <time>2021-07-09T23:41:57Z</time>
      </trkpt>
      <trkpt lat="40.524409962818027" lon="-4.156040037050843">
        <ele>928.07899999999995</ele>
        <time>2021-07-09T23:42:08Z</time>
      </trkpt>
      <trkpt lat="40.524569973349571" lon="-4.155920008197427">
        <ele>929.005</ele>
        <time>2021-07-09T23:42:11Z</time>
      </trkpt>
      <trkpt lat="40.524840038269758" lon="-4.155660001561046">
        <ele>930.02499999999998</ele>
        <time>2021-07-09T23:42:17Z</time>
      </trkpt>
      <trkpt lat="40.524989990517497" lon="-4.155580038204789">
        <ele>931.00800000000004</ele>
        <time>2021-07-09T23:42:20Z</time>
      </trkpt>
      <trkpt lat="40.525310011580586" lon="-4.155490016564727">
        <ele>931.024</ele>
        <time>2021-07-09T23:42:26Z</time>
      </trkpt>
      <trkpt lat="40.526859993115067" lon="-4.15523998439312">
        <ele>930.03399999999999</ele>
        <time>2021-07-09T23:42:54Z</time>
      </trkpt>
      <trkpt lat="40.527270035818219" lon="-4.155209977179766">
        <ele>932.01400000000001</ele>
        <time>2021-07-09T23:43:01Z</time>
      </trkpt>
      <trkpt lat="40.527659961953759" lon="-4.155220035463572">
        <ele>934.02300000000002</ele>
        <time>2021-07-09T23:43:08Z</time>
      </trkpt>
      <trkpt lat="40.529459975659847" lon="-4.15536998771131">
        <ele>942.06799999999998</ele>
        <time>2021-07-09T23:43:40Z</time>
      </trkpt>
      <trkpt lat="40.52997998893261" lon="-4.155360013246536">
        <ele>945.06700000000001</ele>
        <time>2021-07-09T23:43:49Z</time>
      </trkpt>
      <trkpt lat="40.530309984460473" lon="-4.155269991606474">
        <ele>947.01300000000003</ele>
        <time>2021-07-09T23:43:55Z</time>
      </trkpt>
      <trkpt lat="40.530609972774982" lon="-4.155139988288283">
        <ele>948.08900000000006</ele>
        <time>2021-07-09T23:44:01Z</time>
      </trkpt>
      <trkpt lat="40.530909961089492" lon="-4.154949970543385">
        <ele>948.03099999999995</ele>
        <time>2021-07-09T23:44:07Z</time>
      </trkpt>
      <trkpt lat="40.531190000474453" lon="-4.154689963907003">
        <ele>948.06100000000004</ele>
        <time>2021-07-09T23:44:13Z</time>
      </trkpt>
      <trkpt lat="40.531589984893799" lon="-4.154229965060949">
        <ele>949.00699999999995</ele>
        <time>2021-07-09T23:44:22Z</time>
      </trkpt>
      <trkpt lat="40.532660018652678" lon="-4.152890034019947">
        <ele>951.00800000000004</ele>
        <time>2021-07-09T23:44:48Z</time>
      </trkpt>
      <trkpt lat="40.532879959791899" lon="-4.152779979631305">
        <ele>952.04999999999995</ele>
        <time>2021-07-09T23:44:53Z</time>
      </trkpt>
      <trkpt lat="40.533129991963506" lon="-4.152800012379885">
        <ele>953.05999999999995</ele>
        <time>2021-07-09T23:44:57Z</time>
      </trkpt>
      <trkpt lat="40.534070022404194" lon="-4.153109975159168">
        <ele>955.04999999999995</ele>
        <time>2021-07-09T23:45:14Z</time>
      </trkpt>
      <trkpt lat="40.534309996291995" lon="-4.153139982372522">
        <ele>955.08900000000006</ele>
        <time>2021-07-09T23:45:19Z</time>
      </trkpt>
      <trkpt lat="40.534909972921014" lon="-4.152930015698075">
        <ele>957.05399999999997</ele>
        <time>2021-07-09T23:45:30Z</time>
      </trkpt>
      <trkpt lat="40.536100035533309" lon="-4.152379995211959">
        <ele>958.08299999999997</ele>
        <time>2021-07-09T23:45:52Z</time>
      </trkpt>
      <trkpt lat="40.537190018221736" lon="-4.151919996365905">
        <ele>961.05899999999997</ele>
        <time>2021-07-09T23:46:13Z</time>
      </trkpt>
      <trkpt lat="40.537459999322891" lon="-4.151840033009648">
        <ele>962.02499999999998</ele>
        <time>2021-07-09T23:46:17Z</time>
      </trkpt>
      <trkpt lat="40.537740038707852" lon="-4.151910021901131">
        <ele>963.01900000000001</ele>
        <time>2021-07-09T23:46:23Z</time>
      </trkpt>
      <trkpt lat="40.537880016490817" lon="-4.151980010792613">
        <ele>964.00900000000001</ele>
        <time>2021-07-09T23:46:25Z</time>
      </trkpt>
      <trkpt lat="40.539160016924143" lon="-4.152700016275048">
        <ele>970.01900000000001</ele>
        <time>2021-07-09T23:46:50Z</time>
      </trkpt>
      <trkpt lat="40.539269987493753" lon="-4.152739997953177">
        <ele>971.00800000000004</ele>
        <time>2021-07-09T23:46:52Z</time>
      </trkpt>
      <trkpt lat="40.539490012452006" lon="-4.152739997953177">
        <ele>974.07799999999997</ele>
        <time>2021-07-09T23:46:56Z</time>
      </trkpt>
      <trkpt lat="40.539669971913099" lon="-4.152600020170212">
        <ele>976.05799999999999</ele>
        <time>2021-07-09T23:47:00Z</time>
      </trkpt>
      <trkpt lat="40.539729986339808" lon="-4.152479991316795">
        <ele>976.02800000000002</ele>
        <time>2021-07-09T23:47:02Z</time>
      </trkpt>
      <trkpt lat="40.539780026301742" lon="-4.152180003002286">
        <ele>977.05700000000002</ele>
        <time>2021-07-09T23:47:06Z</time>
      </trkpt>
      <trkpt lat="40.539699979126453" lon="-4.150679977610707">
        <ele>975.08199999999999</ele>
        <time>2021-07-09T23:47:26Z</time>
      </trkpt>
      <trkpt lat="40.539699979126453" lon="-4.150330033153296">
        <ele>975.08100000000002</ele>
        <time>2021-07-09T23:47:31Z</time>
      </trkpt>
      <trkpt lat="40.539729986339808" lon="-4.150170022621751">
        <ele>975.02700000000004</ele>
        <time>2021-07-09T23:47:33Z</time>
      </trkpt>
      <trkpt lat="40.53982000797987" lon="-4.149870034307241">
        <ele>975.01300000000003</ele>
        <time>2021-07-09T23:47:37Z</time>
      </trkpt>
      <trkpt lat="40.539940036833286" lon="-4.149620002135634">
        <ele>975.01499999999999</ele>
        <time>2021-07-09T23:47:41Z</time>
      </trkpt>
      <trkpt lat="40.540150003507733" lon="-4.149399977177382">
        <ele>975.06500000000005</ele>
        <time>2021-07-09T23:47:46Z</time>
      </trkpt>
      <trkpt lat="40.540259974077344" lon="-4.149339962750673">
        <ele>975.01099999999997</ele>
        <time>2021-07-09T23:47:48Z</time>
      </trkpt>
      <trkpt lat="40.540340021252632" lon="-4.14943995885551">
        <ele>976.00800000000004</ele>
        <time>2021-07-09T23:47:50Z</time>
      </trkpt>
      <trkpt lat="40.540329962968826" lon="-4.149510031566024">
        <ele>976.07799999999997</ele>
        <time>2021-07-09T23:47:51Z</time>
      </trkpt>
      <trkpt lat="40.540099963545799" lon="-4.150089975446463">
        <ele>976.05799999999999</ele>
        <time>2021-07-09T23:48:00Z</time>
      </trkpt>
      <trkpt lat="40.540010025724769" lon="-4.150419970974326">
        <ele>976.03800000000001</ele>
        <time>2021-07-09T23:48:05Z</time>
      </trkpt>
      <trkpt lat="40.539959985762835" lon="-4.150779973715544">
        <ele>977.04700000000003</ele>
        <time>2021-07-09T23:48:10Z</time>
      </trkpt>
      <trkpt lat="40.539959985762835" lon="-4.151150034740567">
        <ele>977.03200000000004</ele>
        <time>2021-07-09T23:48:15Z</time>
      </trkpt>
      <trkpt lat="40.540029974654317" lon="-4.151699971407652">
        <ele>979.08100000000002</ele>
        <time>2021-07-09T23:48:22Z</time>
      </trkpt>
      <trkpt lat="40.54027003236115" lon="-4.152700016275048">
        <ele>984.077</ele>
        <time>2021-07-09T23:48:36Z</time>
      </trkpt>
      <trkpt lat="40.540300039574504" lon="-4.15304996073246">
        <ele>984.053</ele>
        <time>2021-07-09T23:48:41Z</time>
      </trkpt>
      <trkpt lat="40.540280006825924" lon="-4.153429996222258">
        <ele>984.09699999999998</ele>
        <time>2021-07-09T23:48:46Z</time>
      </trkpt>
      <trkpt lat="40.540170036256313" lon="-4.154019998386502">
        <ele>984.02300000000002</ele>
        <time>2021-07-09T23:48:55Z</time>
      </trkpt>
      <trkpt lat="40.539910029619932" lon="-4.154719971120358">
        <ele>983.02499999999998</ele>
        <time>2021-07-09T23:49:05Z</time>
      </trkpt>
      <trkpt lat="40.539810033515096" lon="-4.155060024932027">
        <ele>983.00800000000004</ele>
        <time>2021-07-09T23:49:10Z</time>
      </trkpt>
      <trkpt lat="40.539739960804582" lon="-4.155529998242855">
        <ele>984.07600000000002</ele>
        <time>2021-07-09T23:49:17Z</time>
      </trkpt>
      <trkpt lat="40.539729986339808" lon="-4.156010029837489">
        <ele>986.02599999999995</ele>
        <time>2021-07-09T23:49:23Z</time>
      </trkpt>
      <trkpt lat="40.539790000766516" lon="-4.15839996188879">
        <ele>995.08600000000001</ele>
        <time>2021-07-09T23:49:55Z</time>
      </trkpt>
      <trkpt lat="40.539620015770197" lon="-4.159030029550195">
        <ele>995.08500000000004</ele>
        <time>2021-07-09T23:50:04Z</time>
      </trkpt>
      <trkpt lat="40.539580034092069" lon="-4.159109992906451">
        <ele>994.09000000000003</ele>
        <time>2021-07-09T23:50:06Z</time>
      </trkpt>
      <trkpt lat="40.539529994130135" lon="-4.159089960157871">
        <ele>994.03899999999999</ele>
        <time>2021-07-09T23:50:07Z</time>
      </trkpt>
      <trkpt lat="40.539356991648674" lon="-4.158898014575243">
        <ele>978.279</ele>
        <time>2021-07-10T07:19:43Z</time>
      </trkpt>
      <trkpt lat="40.539432009682059" lon="-4.158903965726495">
        <ele>976.20500000000004</ele>
        <time>2021-07-10T07:19:46Z</time>
      </trkpt>
      <trkpt lat="40.539471991360188" lon="-4.158988036215305">
        <ele>976.22500000000002</ele>
        <time>2021-07-10T07:19:48Z</time>
      </trkpt>
      <trkpt lat="40.539483977481723" lon="-4.159131031483412">
        <ele>977.70799999999997</ele>
        <time>2021-07-10T07:19:50Z</time>
      </trkpt>
      <trkpt lat="40.539495963603258" lon="-4.159225998446345">
        <ele>978.81399999999996</ele>
        <time>2021-07-10T07:19:51Z</time>
      </trkpt>
      <trkpt lat="40.539518008008599" lon="-4.15942900814116">
        <ele>981.63400000000001</ele>
        <time>2021-07-10T07:19:53Z</time>
      </trkpt>
      <trkpt lat="40.539530999958515" lon="-4.159539984539151">
        <ele>985.15499999999997</ele>
        <time>2021-07-10T07:19:54Z</time>
      </trkpt>
      <trkpt lat="40.539549021050334" lon="-4.159765960648656">
        <ele>986.73099999999999</ele>
        <time>2021-07-10T07:19:56Z</time>
      </trkpt>
      <trkpt lat="40.539560001343489" lon="-4.159888001158834">
        <ele>987.923</ele>
        <time>2021-07-10T07:19:57Z</time>
      </trkpt>
      <trkpt lat="40.539576010778546" lon="-4.160127975046635">
        <ele>990.18600000000004</ele>
        <time>2021-07-10T07:19:59Z</time>
      </trkpt>
      <trkpt lat="40.539595037698746" lon="-4.160373983904719">
        <ele>991.80999999999995</ele>
        <time>2021-07-10T07:20:01Z</time>
      </trkpt>
      <trkpt lat="40.539610963314772" lon="-4.160502981394529">
        <ele>992.92899999999997</ele>
        <time>2021-07-10T07:20:02Z</time>
      </trkpt>
      <trkpt lat="40.539637031033635" lon="-4.160763993859291">
        <ele>994.13099999999997</ele>
        <time>2021-07-10T07:20:04Z</time>
      </trkpt>
      <trkpt lat="40.539643988013268" lon="-4.160904977470636">
        <ele>994.36099999999999</ele>
        <time>2021-07-10T07:20:05Z</time>
      </trkpt>
      <trkpt lat="40.539654968306422" lon="-4.161183005198836">
        <ele>994.30700000000002</ele>
        <time>2021-07-10T07:20:07Z</time>
      </trkpt>
      <trkpt lat="40.539662009105086" lon="-4.161329017952085">
        <ele>994.10799999999995</ele>
        <time>2021-07-10T07:20:08Z</time>
      </trkpt>
      <trkpt lat="40.539668966084719" lon="-4.161616014316678">
        <ele>994.65999999999997</ele>
        <time>2021-07-10T07:20:10Z</time>
      </trkpt>
      <trkpt lat="40.539672989398241" lon="-4.161750040948391">
        <ele>994.91999999999996</ele>
        <time>2021-07-10T07:20:11Z</time>
      </trkpt>
      <trkpt lat="40.539676006883383" lon="-4.16196302510798">
        <ele>995.31100000000004</ele>
        <time>2021-07-10T07:20:13Z</time>
      </trkpt>
      <trkpt lat="40.539672989398241" lon="-4.162130998447537">
        <ele>994.93700000000001</ele>
        <time>2021-07-10T07:20:15Z</time>
      </trkpt>
      <trkpt lat="40.539667960256338" lon="-4.162324033677578">
        <ele>994.399</ele>
        <time>2021-07-10T07:20:17Z</time>
      </trkpt>
      <trkpt lat="40.539669971913099" lon="-4.162559984251857">
        <ele>994.43200000000002</ele>
        <time>2021-07-10T07:20:19Z</time>
      </trkpt>
      <trkpt lat="40.539675001055002" lon="-4.16269401088357">
        <ele>994.51599999999996</ele>
        <time>2021-07-10T07:20:20Z</time>
      </trkpt>
      <trkpt lat="40.539677012711763" lon="-4.162833988666534">
        <ele>994.02499999999998</ele>
        <time>2021-07-10T07:20:21Z</time>
      </trkpt>
      <trkpt lat="40.539678018540144" lon="-4.162983018904924">
        <ele>993.697</ele>
        <time>2021-07-10T07:20:22Z</time>
      </trkpt>
      <trkpt lat="40.539681036025286" lon="-4.163265991955996">
        <ele>993.52300000000002</ele>
        <time>2021-07-10T07:20:24Z</time>
      </trkpt>
      <trkpt lat="40.539682963863015" lon="-4.163550976663828">
        <ele>993.32500000000005</ele>
        <time>2021-07-10T07:20:26Z</time>
      </trkpt>
      <trkpt lat="40.539681036025286" lon="-4.163765972480178">
        <ele>993.00800000000004</ele>
        <time>2021-07-10T07:20:28Z</time>
      </trkpt>
      <trkpt lat="40.539681036025286" lon="-4.16394199244678">
        <ele>993.29600000000005</ele>
        <time>2021-07-10T07:20:30Z</time>
      </trkpt>
      <trkpt lat="40.539682963863015" lon="-4.164033019915223">
        <ele>993.71600000000001</ele>
        <time>2021-07-10T07:20:31Z</time>
      </trkpt>
      <trkpt lat="40.539681036025286" lon="-4.164229994639754">
        <ele>993.36699999999996</ele>
        <time>2021-07-10T07:20:33Z</time>
      </trkpt>
      <trkpt lat="40.539680030196905" lon="-4.164480026811361">
        <ele>993.48299999999995</ele>
        <time>2021-07-10T07:20:35Z</time>
      </trkpt>
      <trkpt lat="40.539678018540144" lon="-4.164762999862433">
        <ele>993.56500000000005</ele>
        <time>2021-07-10T07:20:37Z</time>
      </trkpt>
      <trkpt lat="40.539681036025286" lon="-4.165042033419013">
        <ele>995.25800000000004</ele>
        <time>2021-07-10T07:20:39Z</time>
      </trkpt>
      <trkpt lat="40.53969101049006" lon="-4.165190979838371">
        <ele>996.27200000000005</ele>
        <time>2021-07-10T07:20:40Z</time>
      </trkpt>
      <trkpt lat="40.539749013260007" lon="-4.165461966767907">
        <ele>997.01099999999997</ele>
        <time>2021-07-10T07:20:42Z</time>
      </trkpt>
      <trkpt lat="40.539837023243308" lon="-4.165708981454372">
        <ele>997.79700000000003</ele>
        <time>2021-07-10T07:20:44Z</time>
      </trkpt>
      <trkpt lat="40.539926961064339" lon="-4.165967982262373">
        <ele>998.52300000000002</ele>
        <time>2021-07-10T07:20:46Z</time>
      </trkpt>
      <trkpt lat="40.539969960227609" lon="-4.166090022772551">
        <ele>998.52499999999998</ele>
        <time>2021-07-10T07:20:47Z</time>
      </trkpt>
      <trkpt lat="40.540046989917755" lon="-4.166307030245662">
        <ele>999.00800000000004</ele>
        <time>2021-07-10T07:20:49Z</time>
      </trkpt>
      <trkpt lat="40.540118990465999" lon="-4.166506016626954">
        <ele>999.11599999999999</ele>
        <time>2021-07-10T07:20:51Z</time>
      </trkpt>
      <trkpt lat="40.540158972144127" lon="-4.166615987196565">
        <ele>999.46600000000001</ele>
        <time>2021-07-10T07:20:52Z</time>
      </trkpt>
      <trkpt lat="40.540245976299047" lon="-4.166855961084366">
        <ele>1000.227</ele>
        <time>2021-07-10T07:20:54Z</time>
      </trkpt>
      <trkpt lat="40.540296016260982" lon="-4.166987976059318">
        <ele>1000.273</ele>
        <time>2021-07-10T07:20:55Z</time>
      </trkpt>
      <trkpt lat="40.540410010144114" lon="-4.167257035151124">
        <ele>999.72500000000002</ele>
        <time>2021-07-10T07:20:57Z</time>
      </trkpt>
      <trkpt lat="40.540534984320402" lon="-4.167502960190177">
        <ele>999.678</ele>
        <time>2021-07-10T07:20:59Z</time>
      </trkpt>
      <trkpt lat="40.540601033717394" lon="-4.167632963508368">
        <ele>999.81200000000001</ele>
        <time>2021-07-10T07:21:00Z</time>
      </trkpt>
      <trkpt lat="40.540741011500359" lon="-4.167901016771793">
        <ele>1000.061</ele>
        <time>2021-07-10T07:21:02Z</time>
      </trkpt>
      <trkpt lat="40.540805971249938" lon="-4.168025990948081">
        <ele>999.81399999999996</ele>
        <time>2021-07-10T07:21:03Z</time>
      </trkpt>
      <trkpt lat="40.540924994274974" lon="-4.168265964835882">
        <ele>999.75400000000002</ele>
        <time>2021-07-10T07:21:05Z</time>
      </trkpt>
      <trkpt lat="40.541021972894669" lon="-4.168456988409162">
        <ele>1000.409</ele>
        <time>2021-07-10T07:21:07Z</time>
      </trkpt>
      <trkpt lat="40.541096990928054" lon="-4.168622028082609">
        <ele>1000.508</ele>
        <time>2021-07-10T07:21:09Z</time>
      </trkpt>
      <trkpt lat="40.541137978434563" lon="-4.168737027794123">
        <ele>1000.578</ele>
        <time>2021-07-10T07:21:10Z</time>
      </trkpt>
      <trkpt lat="40.541177960112691" lon="-4.168863007798791">
        <ele>1000.898</ele>
        <time>2021-07-10T07:21:11Z</time>
      </trkpt>
      <trkpt lat="40.541218025609851" lon="-4.168998040258884">
        <ele>1000.979</ele>
        <time>2021-07-10T07:21:12Z</time>
      </trkpt>
      <trkpt lat="40.541292037814856" lon="-4.169300962239504">
        <ele>1001.285</ele>
        <time>2021-07-10T07:21:14Z</time>
      </trkpt>
      <trkpt lat="40.541332019492984" lon="-4.16946298442781">
        <ele>1001.457</ele>
        <time>2021-07-10T07:21:15Z</time>
      </trkpt>
      <trkpt lat="40.541370995342731" lon="-4.169628024101257">
        <ele>1001.42</ele>
        <time>2021-07-10T07:21:16Z</time>
      </trkpt>
      <trkpt lat="40.541409971192479" lon="-4.169795997440815">
        <ele>1001.0940000000001</ele>
        <time>2021-07-10T07:21:17Z</time>
      </trkpt>
      <trkpt lat="40.541478032246232" lon="-4.170096991583705">
        <ele>1000.833</ele>
        <time>2021-07-10T07:21:19Z</time>
      </trkpt>
      <trkpt lat="40.541508961468935" lon="-4.170246021822095">
        <ele>1000.975</ele>
        <time>2021-07-10T07:21:20Z</time>
      </trkpt>
      <trkpt lat="40.541537962853909" lon="-4.170390022918582">
        <ele>1001.028</ele>
        <time>2021-07-10T07:21:21Z</time>
      </trkpt>
      <trkpt lat="40.541570987552404" lon="-4.17053502984345">
        <ele>1001.42</ele>
        <time>2021-07-10T07:21:22Z</time>
      </trkpt>
      <trkpt lat="40.541643993929029" lon="-4.170780032873154">
        <ele>1002.1079999999999</ele>
        <time>2021-07-10T07:21:24Z</time>
      </trkpt>
      <trkpt lat="40.541751030832529" lon="-4.170998968183994">
        <ele>1003.444</ele>
        <time>2021-07-10T07:21:26Z</time>
      </trkpt>
      <trkpt lat="40.541849015280604" lon="-4.171067029237747">
        <ele>1004.064</ele>
        <time>2021-07-10T07:21:27Z</time>
      </trkpt>
      <trkpt lat="40.54207599721849" lon="-4.171129977330566">
        <ele>1005.035</ele>
        <time>2021-07-10T07:21:29Z</time>
      </trkpt>
      <trkpt lat="40.542327035218477" lon="-4.171139029785991">
        <ele>1006.111</ele>
        <time>2021-07-10T07:21:31Z</time>
      </trkpt>
      <trkpt lat="40.542537001892924" lon="-4.17122402228415">
        <ele>1008.3630000000001</ele>
        <time>2021-07-10T07:21:33Z</time>
      </trkpt>
      <trkpt lat="40.54272098466754" lon="-4.171327035874128">
        <ele>1010.316</ele>
        <time>2021-07-10T07:21:35Z</time>
      </trkpt>
      <trkpt lat="40.54280798882246" lon="-4.171414040029049">
        <ele>1011.26</ele>
        <time>2021-07-10T07:21:36Z</time>
      </trkpt>
      <trkpt lat="40.542964981868863" lon="-4.171621995046735">
        <ele>1012.389</ele>
        <time>2021-07-10T07:21:38Z</time>
      </trkpt>
      <trkpt lat="40.543044023215771" lon="-4.171734983101487">
        <ele>1013.133</ele>
        <time>2021-07-10T07:21:39Z</time>
      </trkpt>
      <trkpt lat="40.543120969086885" lon="-4.171855011954904">
        <ele>1014.023</ele>
        <time>2021-07-10T07:21:40Z</time>
      </trkpt>
      <trkpt lat="40.543205039575696" lon="-4.171972023323178">
        <ele>1014.615</ele>
        <time>2021-07-10T07:21:41Z</time>
      </trkpt>
      <trkpt lat="40.543282991275191" lon="-4.172100014984608">
        <ele>1015.908</ele>
        <time>2021-07-10T07:21:42Z</time>
      </trkpt>
      <trkpt lat="40.54336303845048" lon="-4.172219960018992">
        <ele>1017.84</ele>
        <time>2021-07-10T07:21:43Z</time>
      </trkpt>
      <trkpt lat="40.543437972664833" lon="-4.172328002750874">
        <ele>1019.04</ele>
        <time>2021-07-10T07:21:44Z</time>
      </trkpt>
      <trkpt lat="40.543590020388365" lon="-4.172541992738843">
        <ele>1019.511</ele>
        <time>2021-07-10T07:21:46Z</time>
      </trkpt>
      <trkpt lat="40.54377400316298" lon="-4.172705020755529">
        <ele>1020.167</ele>
        <time>2021-07-10T07:21:48Z</time>
      </trkpt>
      <trkpt lat="40.543977012857795" lon="-4.172828989103437">
        <ele>1020.749</ele>
        <time>2021-07-10T07:21:50Z</time>
      </trkpt>
      <trkpt lat="40.544169964268804" lon="-4.172906018793583">
        <ele>1021.532</ele>
        <time>2021-07-10T07:21:52Z</time>
      </trkpt>
      <trkpt lat="40.544357970356941" lon="-4.172871988266707">
        <ele>1022.346</ele>
        <time>2021-07-10T07:21:54Z</time>
      </trkpt>
      <trkpt lat="40.544542958959937" lon="-4.172724969685078">
        <ele>1022.6950000000001</ele>
        <time>2021-07-10T07:21:56Z</time>
      </trkpt>
      <trkpt lat="40.544620994478464" lon="-4.17262296192348">
        <ele>1022.754</ele>
        <time>2021-07-10T07:21:57Z</time>
      </trkpt>
      <trkpt lat="40.544755021110177" lon="-4.172361027449369">
        <ele>1023.056</ele>
        <time>2021-07-10T07:21:59Z</time>
      </trkpt>
      <trkpt lat="40.544873038306832" lon="-4.172080988064408">
        <ele>1023.311</ele>
        <time>2021-07-10T07:22:01Z</time>
      </trkpt>
      <trkpt lat="40.545044029131532" lon="-4.171865992248058">
        <ele>1024.1079999999999</ele>
        <time>2021-07-10T07:22:03Z</time>
      </trkpt>
      <trkpt lat="40.545274028554559" lon="-4.171728026121855">
        <ele>1024.742</ele>
        <time>2021-07-10T07:22:05Z</time>
      </trkpt>
      <trkpt lat="40.545506039634347" lon="-4.171644961461425">
        <ele>1025.3420000000001</ele>
        <time>2021-07-10T07:22:07Z</time>
      </trkpt>
      <trkpt lat="40.545722963288426" lon="-4.171575978398323">
        <ele>1027.143</ele>
        <time>2021-07-10T07:22:09Z</time>
      </trkpt>
      <trkpt lat="40.545927984640002" lon="-4.171512024477124">
        <ele>1028.769</ele>
        <time>2021-07-10T07:22:11Z</time>
      </trkpt>
      <trkpt lat="40.546119008213282" lon="-4.171475982293487">
        <ele>1029.521</ele>
        <time>2021-07-10T07:22:13Z</time>
      </trkpt>
      <trkpt lat="40.546210035681725" lon="-4.171510012820363">
        <ele>1030.364</ele>
        <time>2021-07-10T07:22:14Z</time>
      </trkpt>
      <trkpt lat="40.546369962394238" lon="-4.171668011695147">
        <ele>1030.4580000000001</ele>
        <time>2021-07-10T07:22:16Z</time>
      </trkpt>
      <trkpt lat="40.546527961269021" lon="-4.171884013339877">
        <ele>1030.547</ele>
        <time>2021-07-10T07:22:18Z</time>
      </trkpt>
      <trkpt lat="40.546603985130787" lon="-4.171989960595965">
        <ele>1031.154</ele>
        <time>2021-07-10T07:22:19Z</time>
      </trkpt>
      <trkpt lat="40.546701969578862" lon="-4.172217026352882">
        <ele>1031.1559999999999</ele>
        <time>2021-07-10T07:22:21Z</time>
      </trkpt>
      <trkpt lat="40.546773970127106" lon="-4.172481978312135">
        <ele>1031.211</ele>
        <time>2021-07-10T07:22:23Z</time>
      </trkpt>
      <trkpt lat="40.54678201675415" lon="-4.172626985237002">
        <ele>1032.2080000000001</ele>
        <time>2021-07-10T07:22:24Z</time>
      </trkpt>
      <trkpt lat="40.546768018975854" lon="-4.172922028228641">
        <ele>1033.5920000000001</ele>
        <time>2021-07-10T07:22:26Z</time>
      </trkpt>
      <trkpt lat="40.546746980398893" lon="-4.173065023496747">
        <ele>1035.1420000000001</ele>
        <time>2021-07-10T07:22:27Z</time>
      </trkpt>
      <trkpt lat="40.54665301926434" lon="-4.173365011811256">
        <ele>1037.2329999999999</ele>
        <time>2021-07-10T07:22:29Z</time>
      </trkpt>
      <trkpt lat="40.546507006511092" lon="-4.173610014840961">
        <ele>1038.0889999999999</ele>
        <time>2021-07-10T07:22:31Z</time>
      </trkpt>
      <trkpt lat="40.54643802344799" lon="-4.173735994845629">
        <ele>1039.5609999999999</ele>
        <time>2021-07-10T07:22:32Z</time>
      </trkpt>
      <trkpt lat="40.546398963779211" lon="-4.173873038962483">
        <ele>1041.624</ele>
        <time>2021-07-10T07:22:33Z</time>
      </trkpt>
      <trkpt lat="40.546378009021282" lon="-4.174029026180506">
        <ele>1042.1679999999999</ele>
        <time>2021-07-10T07:22:34Z</time>
      </trkpt>
      <trkpt lat="40.546354036778212" lon="-4.174335971474648">
        <ele>1042.9469999999999</ele>
        <time>2021-07-10T07:22:36Z</time>
      </trkpt>
      <trkpt lat="40.546341966837645" lon="-4.174502016976476">
        <ele>1044.0519999999999</ele>
        <time>2021-07-10T07:22:37Z</time>
      </trkpt>
      <trkpt lat="40.546268038451672" lon="-4.174830000847578">
        <ele>1044.453</ele>
        <time>2021-07-10T07:22:39Z</time>
      </trkpt>
      <trkpt lat="40.546177010983229" lon="-4.175136024132371">
        <ele>1045.1079999999999</ele>
        <time>2021-07-10T07:22:41Z</time>
      </trkpt>
      <trkpt lat="40.5461370293051" lon="-4.175287988036871">
        <ele>1045.508</ele>
        <time>2021-07-10T07:22:42Z</time>
      </trkpt>
      <trkpt lat="40.546105010434985" lon="-4.175418997183442">
        <ele>1046.0119999999999</ele>
        <time>2021-07-10T07:22:43Z</time>
      </trkpt>
      <trkpt lat="40.54609696380794" lon="-4.175536008551717">
        <ele>1046.1220000000001</ele>
        <time>2021-07-10T07:22:44Z</time>
      </trkpt>
      <trkpt lat="40.546127976849675" lon="-4.17562996968627">
        <ele>1047.143</ele>
        <time>2021-07-10T07:22:45Z</time>
      </trkpt>
      <trkpt lat="40.546257980167866" lon="-4.175682021304965">
        <ele>1048.479</ele>
        <time>2021-07-10T07:22:47Z</time>
      </trkpt>
      <trkpt lat="40.546322017908096" lon="-4.175640027970076">
        <ele>1049.471</ele>
        <time>2021-07-10T07:22:48Z</time>
      </trkpt>
      <trkpt lat="40.546380020678043" lon="-4.175575990229845">
        <ele>1049.884</ele>
        <time>2021-07-10T07:22:49Z</time>
      </trkpt>
      <trkpt lat="40.54641799069941" lon="-4.175473982468247">
        <ele>1050.498</ele>
        <time>2021-07-10T07:22:50Z</time>
      </trkpt>
      <trkpt lat="40.546470964327455" lon="-4.175239959731698">
        <ele>1052.617</ele>
        <time>2021-07-10T07:22:52Z</time>
      </trkpt>
      <trkpt lat="40.546530978754163" lon="-4.174966039136052">
        <ele>1054.374</ele>
        <time>2021-07-10T07:22:54Z</time>
      </trkpt>
      <trkpt lat="40.546568026766181" lon="-4.174824971705675">
        <ele>1055.356</ele>
        <time>2021-07-10T07:22:55Z</time>
      </trkpt>
      <trkpt lat="40.546642960980535" lon="-4.174553984776139">
        <ele>1056.3209999999999</ele>
        <time>2021-07-10T07:22:57Z</time>
      </trkpt>
      <trkpt lat="40.546701969578862" lon="-4.174263970926404">
        <ele>1057.9079999999999</ele>
        <time>2021-07-10T07:22:59Z</time>
      </trkpt>
      <trkpt lat="40.546726025640965" lon="-4.174108989536762">
        <ele>1059.124</ele>
        <time>2021-07-10T07:23:00Z</time>
      </trkpt>
      <trkpt lat="40.546771036460996" lon="-4.173849988728762">
        <ele>1059.4739999999999</ele>
        <time>2021-07-10T07:23:02Z</time>
      </trkpt>
      <trkpt lat="40.546835996210575" lon="-4.173615965992212">
        <ele>1059.7850000000001</ele>
        <time>2021-07-10T07:23:04Z</time>
      </trkpt>
      <trkpt lat="40.54689098149538" lon="-4.173522004857659">
        <ele>1060.5309999999999</ele>
        <time>2021-07-10T07:23:05Z</time>
      </trkpt>
      <trkpt lat="40.547024002298713" lon="-4.173438018187881">
        <ele>1061.1130000000001</ele>
        <time>2021-07-10T07:23:07Z</time>
      </trkpt>
      <trkpt lat="40.547157023102045" lon="-4.173516975715756">
        <ele>1062.076</ele>
        <time>2021-07-10T07:23:09Z</time>
      </trkpt>
      <trkpt lat="40.547204967588186" lon="-4.173597022891045">
        <ele>1063.1099999999999</ele>
        <time>2021-07-10T07:23:10Z</time>
      </trkpt>
      <trkpt lat="40.547252995893359" lon="-4.173822999000549">
        <ele>1064.319</ele>
        <time>2021-07-10T07:23:12Z</time>
      </trkpt>
      <trkpt lat="40.547256013378501" lon="-4.174118964001536">
        <ele>1065.6969999999999</ele>
        <time>2021-07-10T07:23:14Z</time>
      </trkpt>
      <trkpt lat="40.547237992286682" lon="-4.174279980361462">
        <ele>1066.123</ele>
        <time>2021-07-10T07:23:15Z</time>
      </trkpt>
      <trkpt lat="40.547205973416567" lon="-4.174428004771471">
        <ele>1066.925</ele>
        <time>2021-07-10T07:23:16Z</time>
      </trkpt>
      <trkpt lat="40.547160962596536" lon="-4.174746014177799">
        <ele>1068.308</ele>
        <time>2021-07-10T07:23:18Z</time>
      </trkpt>
      <trkpt lat="40.547158028930426" lon="-4.174917005002499">
        <ele>1069.396</ele>
        <time>2021-07-10T07:23:19Z</time>
      </trkpt>
      <trkpt lat="40.547166997566819" lon="-4.175100987777114">
        <ele>1070.2260000000001</ele>
        <time>2021-07-10T07:23:20Z</time>
      </trkpt>
      <trkpt lat="40.547186024487019" lon="-4.175455961376429">
        <ele>1071.9269999999999</ele>
        <time>2021-07-10T07:23:22Z</time>
      </trkpt>
      <trkpt lat="40.547202033922076" lon="-4.175653019919992">
        <ele>1073.133</ele>
        <time>2021-07-10T07:23:23Z</time>
      </trkpt>
      <trkpt lat="40.547217037528753" lon="-4.176026014611125">
        <ele>1075.5450000000001</ele>
        <time>2021-07-10T07:23:25Z</time>
      </trkpt>
      <trkpt lat="40.547213014215231" lon="-4.176194993779063">
        <ele>1077.4880000000001</ele>
        <time>2021-07-10T07:23:26Z</time>
      </trkpt>
      <trkpt lat="40.547177977859974" lon="-4.176455000415444">
        <ele>1079.732</ele>
        <time>2021-07-10T07:23:28Z</time>
      </trkpt>
      <trkpt lat="40.547152999788523" lon="-4.176575029268861">
        <ele>1081.6210000000001</ele>
        <time>2021-07-10T07:23:29Z</time>
      </trkpt>
      <trkpt lat="40.547141013666987" lon="-4.176697991788387">
        <ele>1082.692</ele>
        <time>2021-07-10T07:23:30Z</time>
      </trkpt>
      <trkpt lat="40.547205973416567" lon="-4.176894966512919">
        <ele>1084.373</ele>
        <time>2021-07-10T07:23:32Z</time>
      </trkpt>
      <trkpt lat="40.547357015311718" lon="-4.177052965387702">
        <ele>1086.9200000000001</ele>
        <time>2021-07-10T07:23:34Z</time>
      </trkpt>
      <trkpt lat="40.547515014186502" lon="-4.177229991182685">
        <ele>1088.7080000000001</ele>
        <time>2021-07-10T07:23:36Z</time>
      </trkpt>
      <trkpt lat="40.547610986977816" lon="-4.177470970898867">
        <ele>1091.2560000000001</ele>
        <time>2021-07-10T07:23:38Z</time>
      </trkpt>
      <trkpt lat="40.547633031383157" lon="-4.17777699418366">
        <ele>1092.376</ele>
        <time>2021-07-10T07:23:40Z</time>
      </trkpt>
      <trkpt lat="40.54764200001955" lon="-4.177944967523217">
        <ele>1093.317</ele>
        <time>2021-07-10T07:23:41Z</time>
      </trkpt>
      <trkpt lat="40.54766203276813" lon="-4.178256019949913">
        <ele>1094.4829999999999</ele>
        <time>2021-07-10T07:23:43Z</time>
      </trkpt>
      <trkpt lat="40.547676030546427" lon="-4.178392980247736">
        <ele>1095.365</ele>
        <time>2021-07-10T07:23:44Z</time>
      </trkpt>
      <trkpt lat="40.547729004174471" lon="-4.178624991327524">
        <ele>1096.6780000000001</ele>
        <time>2021-07-10T07:23:46Z</time>
      </trkpt>
      <trkpt lat="40.547818019986153" lon="-4.178837975487113">
        <ele>1097.6120000000001</ele>
        <time>2021-07-10T07:23:48Z</time>
      </trkpt>
      <trkpt lat="40.54787702858448" lon="-4.178961021825671">
        <ele>1099.1310000000001</ele>
        <time>2021-07-10T07:23:49Z</time>
      </trkpt>
      <trkpt lat="40.547937965020537" lon="-4.179092030972242">
        <ele>1100.664</ele>
        <time>2021-07-10T07:23:50Z</time>
      </trkpt>
      <trkpt lat="40.548003008589149" lon="-4.179233014583588">
        <ele>1101.806</ele>
        <time>2021-07-10T07:23:51Z</time>
      </trkpt>
      <trkpt lat="40.548096969723701" lon="-4.179490003734827">
        <ele>1102.7159999999999</ele>
        <time>2021-07-10T07:23:53Z</time>
      </trkpt>
      <trkpt lat="40.548137035220861" lon="-4.179757973179221">
        <ele>1102.7080000000001</ele>
        <time>2021-07-10T07:23:55Z</time>
      </trkpt>
      <trkpt lat="40.548108033835888" lon="-4.179887976497412">
        <ele>1103.223</ele>
        <time>2021-07-10T07:23:56Z</time>
      </trkpt>
      <trkpt lat="40.548065034672618" lon="-4.180017979815602">
        <ele>1103.713</ele>
        <time>2021-07-10T07:23:57Z</time>
      </trkpt>
      <trkpt lat="40.547976018860936" lon="-4.180267006158829">
        <ele>1104.2139999999999</ele>
        <time>2021-07-10T07:23:59Z</time>
      </trkpt>
      <trkpt lat="40.54789999499917" lon="-4.180523995310068">
        <ele>1105.22</ele>
        <time>2021-07-10T07:24:01Z</time>
      </trkpt>
      <trkpt lat="40.547846015542746" lon="-4.180751983076334">
        <ele>1106.2919999999999</ele>
        <time>2021-07-10T07:24:03Z</time>
      </trkpt>
      <trkpt lat="40.547821037471294" lon="-4.180859019979835">
        <ele>1107.385</ele>
        <time>2021-07-10T07:24:04Z</time>
      </trkpt>
      <trkpt lat="40.547792036086321" lon="-4.181059012189508">
        <ele>1107.039</ele>
        <time>2021-07-10T07:24:06Z</time>
      </trkpt>
      <trkpt lat="40.547755993902683" lon="-4.181231008842588">
        <ele>1107.3879999999999</ele>
        <time>2021-07-10T07:24:08Z</time>
      </trkpt>
      <trkpt lat="40.547677958384156" lon="-4.181337961927056">
        <ele>1107.598</ele>
        <time>2021-07-10T07:24:10Z</time>
      </trkpt>
      <trkpt lat="40.54764099419117" lon="-4.181392025202513">
        <ele>1107.7149999999999</ele>
        <time>2021-07-10T07:24:11Z</time>
      </trkpt>
      <trkpt lat="40.5475789681077" lon="-4.181524040177465">
        <ele>1107.626</ele>
        <time>2021-07-10T07:24:13Z</time>
      </trkpt>
      <trkpt lat="40.54753596894443" lon="-4.181653959676623">
        <ele>1107.808</ele>
        <time>2021-07-10T07:24:15Z</time>
      </trkpt>
      <trkpt lat="40.547530017793179" lon="-4.181763008236885">
        <ele>1108.876</ele>
        <time>2021-07-10T07:24:17Z</time>
      </trkpt>
      <trkpt lat="40.54759900085628" lon="-4.181863004341722">
        <ele>1108.576</ele>
        <time>2021-07-10T07:24:19Z</time>
      </trkpt>
      <trkpt lat="40.547730010002851" lon="-4.181978004053235">
        <ele>1108.6769999999999</ele>
        <time>2021-07-10T07:24:21Z</time>
      </trkpt>
      <trkpt lat="40.547873005270958" lon="-4.182140026241541">
        <ele>1109.2929999999999</ele>
        <time>2021-07-10T07:24:23Z</time>
      </trkpt>
      <trkpt lat="40.547931008040905" lon="-4.182212026789784">
        <ele>1109.2950000000001</ele>
        <time>2021-07-10T07:24:24Z</time>
      </trkpt>
      <trkpt lat="40.5480279866606" lon="-4.182339012622833">
        <ele>1109.048</ele>
        <time>2021-07-10T07:24:26Z</time>
      </trkpt>
      <trkpt lat="40.54807199165225" lon="-4.182402966544032">
        <ele>1108.972</ele>
        <time>2021-07-10T07:24:27Z</time>
      </trkpt>
      <trkpt lat="40.548169976100326" lon="-4.182550990954042">
        <ele>1108.3209999999999</ele>
        <time>2021-07-10T07:24:29Z</time>
      </trkpt>
      <trkpt lat="40.548234013840556" lon="-4.182615028694272">
        <ele>1108.548</ele>
        <time>2021-07-10T07:24:30Z</time>
      </trkpt>
      <trkpt lat="40.548423025757074" lon="-4.182658027857542">
        <ele>1108.8610000000001</ele>
        <time>2021-07-10T07:24:32Z</time>
      </trkpt>
      <trkpt lat="40.548610026016831" lon="-4.182670013979077">
        <ele>1109.117</ele>
        <time>2021-07-10T07:24:34Z</time>
      </trkpt>
      <trkpt lat="40.548698036000133" lon="-4.182707984000444">
        <ele>1109.2080000000001</ele>
        <time>2021-07-10T07:24:35Z</time>
      </trkpt>
      <trkpt lat="40.548855029046535" lon="-4.182831030339003">
        <ele>1108.431</ele>
        <time>2021-07-10T07:24:37Z</time>
      </trkpt>
      <trkpt lat="40.548953013494611" lon="-4.18301903642714">
        <ele>1108.171</ele>
        <time>2021-07-10T07:24:39Z</time>
      </trkpt>
      <trkpt lat="40.548978997394443" lon="-4.183139987289906">
        <ele>1107.6220000000001</ele>
        <time>2021-07-10T07:24:40Z</time>
      </trkpt>
      <trkpt lat="40.549056027084589" lon="-4.183389013633132">
        <ele>1106.9680000000001</ele>
        <time>2021-07-10T07:24:42Z</time>
      </trkpt>
      <trkpt lat="40.549168009310961" lon="-4.183581965044141">
        <ele>1106.1700000000001</ele>
        <time>2021-07-10T07:24:44Z</time>
      </trkpt>
      <trkpt lat="40.549302035942674" lon="-4.183694031089544">
        <ele>1105.3330000000001</ele>
        <time>2021-07-10T07:24:46Z</time>
      </trkpt>
      <trkpt lat="40.549387028440833" lon="-4.183700988069177">
        <ele>1105.277</ele>
        <time>2021-07-10T07:24:47Z</time>
      </trkpt>
      <trkpt lat="40.549469003453851" lon="-4.183690007776022">
        <ele>1105.386</ele>
        <time>2021-07-10T07:24:48Z</time>
      </trkpt>
      <trkpt lat="40.549630019813776" lon="-4.183680033311248">
        <ele>1105.644</ele>
        <time>2021-07-10T07:24:50Z</time>
      </trkpt>
      <trkpt lat="40.54978801868856" lon="-4.183676009997726">
        <ele>1106.605</ele>
        <time>2021-07-10T07:24:52Z</time>
      </trkpt>
      <trkpt lat="40.549865970388055" lon="-4.183676009997726">
        <ele>1107.2149999999999</ele>
        <time>2021-07-10T07:24:53Z</time>
      </trkpt>
      <trkpt lat="40.550024975091219" lon="-4.183687996119261">
        <ele>1107.9079999999999</ele>
        <time>2021-07-10T07:24:55Z</time>
      </trkpt>
      <trkpt lat="40.550191020593047" lon="-4.183764019981027">
        <ele>1109.0509999999999</ele>
        <time>2021-07-10T07:24:57Z</time>
      </trkpt>
      <trkpt lat="40.550280958414078" lon="-4.183843983337283">
        <ele>1110.171</ele>
        <time>2021-07-10T07:24:58Z</time>
      </trkpt>
      <trkpt lat="40.550449015572667" lon="-4.184002988040447">
        <ele>1111.0219999999999</ele>
        <time>2021-07-10T07:25:00Z</time>
      </trkpt>
      <trkpt lat="40.550626963376999" lon="-4.184181019663811">
        <ele>1111.9480000000001</ele>
        <time>2021-07-10T07:25:02Z</time>
      </trkpt>
      <trkpt lat="40.550712961703539" lon="-4.184271963313222">
        <ele>1113.1700000000001</ele>
        <time>2021-07-10T07:25:03Z</time>
      </trkpt>
      <trkpt lat="40.550851011648774" lon="-4.184444965794683">
        <ele>1114.3630000000001</ele>
        <time>2021-07-10T07:25:05Z</time>
      </trkpt>
      <trkpt lat="40.550942961126566" lon="-4.184660967439413">
        <ele>1116.1569999999999</ele>
        <time>2021-07-10T07:25:07Z</time>
      </trkpt>
      <trkpt lat="40.550982020795345" lon="-4.184766998514533">
        <ele>1117.2159999999999</ele>
        <time>2021-07-10T07:25:08Z</time>
      </trkpt>
      <trkpt lat="40.551086962223053" lon="-4.184891972690821">
        <ele>1117.8610000000001</ele>
        <time>2021-07-10T07:25:10Z</time>
      </trkpt>
      <trkpt lat="40.551236998289824" lon="-4.184915022924542">
        <ele>1118.021</ele>
        <time>2021-07-10T07:25:12Z</time>
      </trkpt>
      <trkpt lat="40.551325008273125" lon="-4.184913011267781">
        <ele>1117.413</ele>
        <time>2021-07-10T07:25:13Z</time>
      </trkpt>
      <trkpt lat="40.551436990499496" lon="-4.184893984347582">
        <ele>1117.4079999999999</ele>
        <time>2021-07-10T07:25:15Z</time>
      </trkpt>
      <trkpt lat="40.551500022411346" lon="-4.184891972690821">
        <ele>1117.453</ele>
        <time>2021-07-10T07:25:16Z</time>
      </trkpt>
      <trkpt lat="40.551583003252745" lon="-4.184891972690821">
        <ele>1117.5830000000001</ele>
        <time>2021-07-10T07:25:17Z</time>
      </trkpt>
      <trkpt lat="40.551681993529201" lon="-4.184886021539569">
        <ele>1118.0440000000001</ele>
        <time>2021-07-10T07:25:18Z</time>
      </trkpt>
      <trkpt lat="40.551883997395635" lon="-4.184869006276131">
        <ele>1117.72</ele>
        <time>2021-07-10T07:25:20Z</time>
      </trkpt>
      <trkpt lat="40.552154984325171" lon="-4.184872023761272">
        <ele>1117.5820000000001</ele>
        <time>2021-07-10T07:25:22Z</time>
      </trkpt>
      <trkpt lat="40.552305020391941" lon="-4.184899013489485">
        <ele>1117.2249999999999</ele>
        <time>2021-07-10T07:25:23Z</time>
      </trkpt>
      <trkpt lat="40.552570978179574" lon="-4.185003032907844">
        <ele>1117.1990000000001</ele>
        <time>2021-07-10T07:25:25Z</time>
      </trkpt>
      <trkpt lat="40.552821010351181" lon="-4.185114009305835">
        <ele>1117.4580000000001</ele>
        <time>2021-07-10T07:25:27Z</time>
      </trkpt>
      <trkpt lat="40.552951013669372" lon="-4.18514896184206">
        <ele>1117.3489999999999</ele>
        <time>2021-07-10T07:25:28Z</time>
      </trkpt>
      <trkpt lat="40.553170032799244" lon="-4.185154996812344">
        <ele>1117.1020000000001</ele>
        <time>2021-07-10T07:25:30Z</time>
      </trkpt>
      <trkpt lat="40.55340196006" lon="-4.185093976557255">
        <ele>1118.0219999999999</ele>
        <time>2021-07-10T07:25:32Z</time>
      </trkpt>
      <trkpt lat="40.553524000570178" lon="-4.185035973787308">
        <ele>1117.308</ele>
        <time>2021-07-10T07:25:33Z</time>
      </trkpt>
      <trkpt lat="40.55365702137351" lon="-4.18497403152287">
        <ele>1117.8109999999999</ele>
        <time>2021-07-10T07:25:34Z</time>
      </trkpt>
      <trkpt lat="40.553933959454298" lon="-4.184857020154595">
        <ele>1118.231</ele>
        <time>2021-07-10T07:25:36Z</time>
      </trkpt>
      <trkpt lat="40.554093969985843" lon="-4.184798011556268">
        <ele>1119.162</ele>
        <time>2021-07-10T07:25:37Z</time>
      </trkpt>
      <trkpt lat="40.554250963032246" lon="-4.18473900295794">
        <ele>1120.078</ele>
        <time>2021-07-10T07:25:38Z</time>
      </trkpt>
      <trkpt lat="40.554546006023884" lon="-4.18460899963975">
        <ele>1120.3699999999999</ele>
        <time>2021-07-10T07:25:40Z</time>
      </trkpt>
      <trkpt lat="40.554690007120371" lon="-4.184541022405028">
        <ele>1120.0329999999999</ele>
        <time>2021-07-10T07:25:41Z</time>
      </trkpt>
      <trkpt lat="40.554971974343061" lon="-4.184391992166638">
        <ele>1121.057</ele>
        <time>2021-07-10T07:25:43Z</time>
      </trkpt>
      <trkpt lat="40.555116981267929" lon="-4.18430901132524">
        <ele>1122.076</ele>
        <time>2021-07-10T07:25:44Z</time>
      </trkpt>
      <trkpt lat="40.55535301566124" lon="-4.184102984145284">
        <ele>1124.116</ele>
        <time>2021-07-10T07:25:46Z</time>
      </trkpt>
      <trkpt lat="40.555602964013815" lon="-4.183913972228766">
        <ele>1126.576</ele>
        <time>2021-07-10T07:25:48Z</time>
      </trkpt>
      <trkpt lat="40.555739002302289" lon="-4.183847000822425">
        <ele>1127.8130000000001</ele>
        <time>2021-07-10T07:25:49Z</time>
      </trkpt>
      <trkpt lat="40.555876968428493" lon="-4.183781035244465">
        <ele>1129.1079999999999</ele>
        <time>2021-07-10T07:25:50Z</time>
      </trkpt>
      <trkpt lat="40.556164970621467" lon="-4.183636028319597">
        <ele>1129.9179999999999</ele>
        <time>2021-07-10T07:25:52Z</time>
      </trkpt>
      <trkpt lat="40.556453978642821" lon="-4.183498984202743">
        <ele>1131.278</ele>
        <time>2021-07-10T07:25:54Z</time>
      </trkpt>
      <trkpt lat="40.556669980287552" lon="-4.183340985327959">
        <ele>1132.8489999999999</ele>
        <time>2021-07-10T07:25:56Z</time>
      </trkpt>
      <trkpt lat="40.556765031069517" lon="-4.183262027800083">
        <ele>1134.6849999999999</ele>
        <time>2021-07-10T07:25:57Z</time>
      </trkpt>
      <trkpt lat="40.556955970823765" lon="-4.183187009766698">
        <ele>1137.4570000000001</ele>
        <time>2021-07-10T07:25:59Z</time>
      </trkpt>
      <trkpt lat="40.557108018547297" lon="-4.18323302641511">
        <ele>1138.6099999999999</ele>
        <time>2021-07-10T07:26:01Z</time>
      </trkpt>
      <trkpt lat="40.557158980518579" lon="-4.183310978114605">
        <ele>1139.684</ele>
        <time>2021-07-10T07:26:02Z</time>
      </trkpt>
      <trkpt lat="40.557179013267159" lon="-4.183411980047822">
        <ele>1140.623</ele>
        <time>2021-07-10T07:26:03Z</time>
      </trkpt>
      <trkpt lat="40.55713701993227" lon="-4.183644996955991">
        <ele>1142.4649999999999</ele>
        <time>2021-07-10T07:26:05Z</time>
      </trkpt>
      <trkpt lat="40.557072982192039" lon="-4.183899974450469">
        <ele>1144.568</ele>
        <time>2021-07-10T07:26:07Z</time>
      </trkpt>
      <trkpt lat="40.557025037705898" lon="-4.184207003563643">
        <ele>1147.3140000000001</ele>
        <time>2021-07-10T07:26:09Z</time>
      </trkpt>
      <trkpt lat="40.557007016614079" lon="-4.184367014095187">
        <ele>1149.508</ele>
        <time>2021-07-10T07:26:10Z</time>
      </trkpt>
      <trkpt lat="40.557001987472177" lon="-4.184527024626732">
        <ele>1151.0630000000001</ele>
        <time>2021-07-10T07:26:11Z</time>
      </trkpt>
      <trkpt lat="40.557025959715247" lon="-4.184838999062777">
        <ele>1152.693</ele>
        <time>2021-07-10T07:26:13Z</time>
      </trkpt>
      <trkpt lat="40.557058984413743" lon="-4.185007978230715">
        <ele>1154.0139999999999</ele>
        <time>2021-07-10T07:26:14Z</time>
      </trkpt>
      <trkpt lat="40.557100977748632" lon="-4.185295980423689">
        <ele>1156.28</ele>
        <time>2021-07-10T07:26:16Z</time>
      </trkpt>
      <trkpt lat="40.55707398802042" lon="-4.185439981520176">
        <ele>1157.932</ele>
        <time>2021-07-10T07:26:17Z</time>
      </trkpt>
      <trkpt lat="40.557016991078854" lon="-4.185561016201973">
        <ele>1159.135</ele>
        <time>2021-07-10T07:26:18Z</time>
      </trkpt>
      <trkpt lat="40.556942978873849" lon="-4.185665035620332">
        <ele>1160.1489999999999</ele>
        <time>2021-07-10T07:26:19Z</time>
      </trkpt>
      <trkpt lat="40.556859998032451" lon="-4.185768971219659">
        <ele>1161.3979999999999</ele>
        <time>2021-07-10T07:26:20Z</time>
      </trkpt>
      <trkpt lat="40.556691018864512" lon="-4.18598597869277">
        <ele>1161.877</ele>
        <time>2021-07-10T07:26:22Z</time>
      </trkpt>
      <trkpt lat="40.556611977517605" lon="-4.186125034466386">
        <ele>1163.3610000000001</ele>
        <time>2021-07-10T07:26:23Z</time>
      </trkpt>
      <trkpt lat="40.5565379653126" lon="-4.186272975057364">
        <ele>1164.2270000000001</ele>
        <time>2021-07-10T07:26:24Z</time>
      </trkpt>
      <trkpt lat="40.55647099390626" lon="-4.186430973932147">
        <ele>1165.9079999999999</ele>
        <time>2021-07-10T07:26:25Z</time>
      </trkpt>
      <trkpt lat="40.556358005851507" lon="-4.186763986945152">
        <ele>1167.894</ele>
        <time>2021-07-10T07:26:27Z</time>
      </trkpt>
      <trkpt lat="40.556222973391414" lon="-4.187067998573184">
        <ele>1170.0740000000001</ele>
        <time>2021-07-10T07:26:29Z</time>
      </trkpt>
      <trkpt lat="40.556029016152024" lon="-4.18731702491641">
        <ele>1173.1949999999999</ele>
        <time>2021-07-10T07:26:31Z</time>
      </trkpt>
      <trkpt lat="40.555840004235506" lon="-4.187579965218902">
        <ele>1175.711</ele>
        <time>2021-07-10T07:26:33Z</time>
      </trkpt>
      <trkpt lat="40.555711006745696" lon="-4.187900992110372">
        <ele>1178.193</ele>
        <time>2021-07-10T07:26:35Z</time>
      </trkpt>
      <trkpt lat="40.555669013410807" lon="-4.188072988763452">
        <ele>1179.6959999999999</ele>
        <time>2021-07-10T07:26:36Z</time>
      </trkpt>
      <trkpt lat="40.555598018690944" lon="-4.188449000939727">
        <ele>1181.03</ele>
        <time>2021-07-10T07:26:38Z</time>
      </trkpt>
      <trkpt lat="40.555529035627842" lon="-4.188883015885949">
        <ele>1182.1890000000001</ele>
        <time>2021-07-10T07:26:40Z</time>
      </trkpt>
      <trkpt lat="40.555489975959063" lon="-4.189106980338693">
        <ele>1183.3889999999999</ele>
        <time>2021-07-10T07:26:41Z</time>
      </trkpt>
      <trkpt lat="40.555410012602806" lon="-4.189519034698606">
        <ele>1184.7059999999999</ele>
        <time>2021-07-10T07:26:43Z</time>
      </trkpt>
      <trkpt lat="40.555302975699306" lon="-4.189863028004766">
        <ele>1185.7260000000001</ele>
        <time>2021-07-10T07:26:45Z</time>
      </trkpt>
      <trkpt lat="40.555228041484952" lon="-4.190015997737646">
        <ele>1186.9079999999999</ele>
        <time>2021-07-10T07:26:46Z</time>
      </trkpt>
      <trkpt lat="40.555146988481283" lon="-4.190156981348991">
        <ele>1188.0150000000001</ele>
        <time>2021-07-10T07:26:47Z</time>
      </trkpt>
      <trkpt lat="40.555018996819854" lon="-4.190445989370346">
        <ele>1189.5650000000001</ele>
        <time>2021-07-10T07:26:49Z</time>
      </trkpt>
      <trkpt lat="40.554955964908004" lon="-4.190590996295214">
        <ele>1190.2360000000001</ele>
        <time>2021-07-10T07:26:50Z</time>
      </trkpt>
      <trkpt lat="40.554882036522031" lon="-4.190730974078178">
        <ele>1190.7819999999999</ele>
        <time>2021-07-10T07:26:51Z</time>
      </trkpt>
      <trkpt lat="40.554792014881968" lon="-4.19086298905313">
        <ele>1192.4939999999999</ele>
        <time>2021-07-10T07:26:52Z</time>
      </trkpt>
      <trkpt lat="40.554599985480309" lon="-4.191134981811047">
        <ele>1194.557</ele>
        <time>2021-07-10T07:26:54Z</time>
      </trkpt>
      <trkpt lat="40.554518010467291" lon="-4.191288035362959">
        <ele>1196.751</ele>
        <time>2021-07-10T07:26:55Z</time>
      </trkpt>
      <trkpt lat="40.554399993270636" lon="-4.191632028669119">
        <ele>1199.25</ele>
        <time>2021-07-10T07:26:57Z</time>
      </trkpt>
      <trkpt lat="40.554255992174149" lon="-4.191955989226699">
        <ele>1201.931</ele>
        <time>2021-07-10T07:26:59Z</time>
      </trkpt>
      <trkpt lat="40.55404401384294" lon="-4.192204009741545">
        <ele>1203.3610000000001</ele>
        <time>2021-07-10T07:27:01Z</time>
      </trkpt>
      <trkpt lat="40.553920967504382" lon="-4.192312974482775">
        <ele>1204.0070000000001</ele>
        <time>2021-07-10T07:27:02Z</time>
      </trkpt>
      <trkpt lat="40.553643023595214" lon="-4.192517995834351">
        <ele>1206.008</ele>
        <time>2021-07-10T07:27:04Z</time>
      </trkpt>
      <trkpt lat="40.553366001695395" lon="-4.192687980830669">
        <ele>1208.02</ele>
        <time>2021-07-10T07:27:06Z</time>
      </trkpt>
      <trkpt lat="40.553094008937478" lon="-4.192823013290763">
        <ele>1210.6400000000001</ele>
        <time>2021-07-10T07:27:08Z</time>
      </trkpt>
      <trkpt lat="40.552814975380898" lon="-4.192953016608954">
        <ele>1212.971</ele>
        <time>2021-07-10T07:27:10Z</time>
      </trkpt>
      <trkpt lat="40.552552035078406" lon="-4.193086959421635">
        <ele>1215.2270000000001</ele>
        <time>2021-07-10T07:27:12Z</time>
      </trkpt>
      <trkpt lat="40.552424965426326" lon="-4.193158959969878">
        <ele>1216.539</ele>
        <time>2021-07-10T07:27:13Z</time>
      </trkpt>
      <trkpt lat="40.552179962396622" lon="-4.193312013521791">
        <ele>1218.172</ele>
        <time>2021-07-10T07:27:15Z</time>
      </trkpt>
      <trkpt lat="40.552059011533856" lon="-4.193392982706428">
        <ele>1220.116</ele>
        <time>2021-07-10T07:27:16Z</time>
      </trkpt>
      <trkpt lat="40.551827000454068" lon="-4.193585012108088">
        <ele>1221.5650000000001</ele>
        <time>2021-07-10T07:27:18Z</time>
      </trkpt>
      <trkpt lat="40.551718035712838" lon="-4.193707974627614">
        <ele>1223.0650000000001</ele>
        <time>2021-07-10T07:27:19Z</time>
      </trkpt>
      <trkpt lat="40.551605969667435" lon="-4.193839989602566">
        <ele>1223.8679999999999</ele>
        <time>2021-07-10T07:27:20Z</time>
      </trkpt>
      <trkpt lat="40.551497004926205" lon="-4.193973010405898">
        <ele>1224.7139999999999</ele>
        <time>2021-07-10T07:27:21Z</time>
      </trkpt>
      <trkpt lat="40.55133699439466" lon="-4.194200998172164">
        <ele>1225.9079999999999</ele>
        <time>2021-07-10T07:27:23Z</time>
      </trkpt>
      <trkpt lat="40.551233980804682" lon="-4.194452036172152">
        <ele>1226.713</ele>
        <time>2021-07-10T07:27:25Z</time>
      </trkpt>
      <trkpt lat="40.551213026046753" lon="-4.194595031440258">
        <ele>1227.143</ele>
        <time>2021-07-10T07:27:26Z</time>
      </trkpt>
      <trkpt lat="40.551272034645081" lon="-4.19485998339951">
        <ele>1228.0340000000001</ele>
        <time>2021-07-10T07:27:28Z</time>
      </trkpt>
      <trkpt lat="40.551434978842735" lon="-4.195084031671286">
        <ele>1228.96</ele>
        <time>2021-07-10T07:27:30Z</time>
      </trkpt>
      <trkpt lat="40.551541009917855" lon="-4.195158965885639">
        <ele>1229.5920000000001</ele>
        <time>2021-07-10T07:27:31Z</time>
      </trkpt>
      <trkpt lat="40.551649974659085" lon="-4.19520003721118">
        <ele>1229.9449999999999</ele>
        <time>2021-07-10T07:27:32Z</time>
      </trkpt>
      <trkpt lat="40.551889026537538" lon="-4.19520003721118">
        <ele>1230.999</ele>
        <time>2021-07-10T07:27:34Z</time>
      </trkpt>
      <trkpt lat="40.552147021517158" lon="-4.195151003077626">
        <ele>1232.1479999999999</ele>
        <time>2021-07-10T07:27:36Z</time>
      </trkpt>
      <trkpt lat="40.552286999300122" lon="-4.195096017792821">
        <ele>1233.048</ele>
        <time>2021-07-10T07:27:37Z</time>
      </trkpt>
      <trkpt lat="40.552423037588596" lon="-4.19505201280117">
        <ele>1234.1610000000001</ele>
        <time>2021-07-10T07:27:38Z</time>
      </trkpt>
      <trkpt lat="40.552687989547849" lon="-4.194955034181476">
        <ele>1235.117</ele>
        <time>2021-07-10T07:27:40Z</time>
      </trkpt>
      <trkpt lat="40.552824027836323" lon="-4.194894013926387">
        <ele>1235.9079999999999</ele>
        <time>2021-07-10T07:27:41Z</time>
      </trkpt>
      <trkpt lat="40.55307799950242" lon="-4.194841962307692">
        <ele>1236.8710000000001</ele>
        <time>2021-07-10T07:27:43Z</time>
      </trkpt>
      <trkpt lat="40.553372036665678" lon="-4.194873981177807">
        <ele>1238.0309999999999</ele>
        <time>2021-07-10T07:27:45Z</time>
      </trkpt>
      <trkpt lat="40.553531041368842" lon="-4.194897031411529">
        <ele>1239.3119999999999</ele>
        <time>2021-07-10T07:27:46Z</time>
      </trkpt>
      <trkpt lat="40.553681999444962" lon="-4.194919997826219">
        <ele>1239.9880000000001</ele>
        <time>2021-07-10T07:27:47Z</time>
      </trkpt>
      <trkpt lat="40.554008977487683" lon="-4.194971965625882">
        <ele>1240.8399999999999</ele>
        <time>2021-07-10T07:27:49Z</time>
      </trkpt>
      <trkpt lat="40.554353976622224" lon="-4.195012031123042">
        <ele>1241.7629999999999</ele>
        <time>2021-07-10T07:27:51Z</time>
      </trkpt>
      <trkpt lat="40.554525973275304" lon="-4.195019993931055">
        <ele>1242.2470000000001</ele>
        <time>2021-07-10T07:27:52Z</time>
      </trkpt>
      <trkpt lat="40.554822022095323" lon="-4.195023011416197">
        <ele>1242.546</ele>
        <time>2021-07-10T07:27:54Z</time>
      </trkpt>
      <trkpt lat="40.55509602651" lon="-4.195018988102675">
        <ele>1242.8340000000001</ele>
        <time>2021-07-10T07:27:56Z</time>
      </trkpt>
      <trkpt lat="40.555228963494301" lon="-4.195003984495997">
        <ele>1243.4549999999999</ele>
        <time>2021-07-10T07:27:57Z</time>
      </trkpt>
      <trkpt lat="40.555441025644541" lon="-4.19498797506094">
        <ele>1243.4100000000001</ele>
        <time>2021-07-10T07:27:59Z</time>
      </trkpt>
      <trkpt lat="40.555586032569408" lon="-4.195098029449582">
        <ele>1244.008</ele>
        <time>2021-07-10T07:28:01Z</time>
      </trkpt>
      <trkpt lat="40.555641017854214" lon="-4.195190984755755">
        <ele>1243.8399999999999</ele>
        <time>2021-07-10T07:28:02Z</time>
      </trkpt>
      <trkpt lat="40.555658033117652" lon="-4.195426013320684">
        <ele>1245.05</ele>
        <time>2021-07-10T07:28:04Z</time>
      </trkpt>
      <trkpt lat="40.55563498288393" lon="-4.195672022178769">
        <ele>1246.3810000000001</ele>
        <time>2021-07-10T07:28:06Z</time>
      </trkpt>
      <trkpt lat="40.55563397705555" lon="-4.195790039375424">
        <ele>1247.277</ele>
        <time>2021-07-10T07:28:07Z</time>
      </trkpt>
      <trkpt lat="40.555656021460891" lon="-4.195902021601796">
        <ele>1248.049</ele>
        <time>2021-07-10T07:28:08Z</time>
      </trkpt>
      <trkpt lat="40.555743025615811" lon="-4.196057002991438">
        <ele>1249.1420000000001</ele>
        <time>2021-07-10T07:28:10Z</time>
      </trkpt>
      <trkpt lat="40.555795999243855" lon="-4.19610695913434">
        <ele>1249.636</ele>
        <time>2021-07-10T07:28:11Z</time>
      </trkpt>
      <trkpt lat="40.555872023105621" lon="-4.196135038509965">
        <ele>1250.365</ele>
        <time>2021-07-10T07:28:12Z</time>
      </trkpt>
      <trkpt lat="40.55606396868825" lon="-4.196191029623151">
        <ele>1251.039</ele>
        <time>2021-07-10T07:28:14Z</time>
      </trkpt>
      <trkpt lat="40.556273013353348" lon="-4.196256995201111">
        <ele>1252.001</ele>
        <time>2021-07-10T07:28:16Z</time>
      </trkpt>
      <trkpt lat="40.556389018893242" lon="-4.196296976879239">
        <ele>1252.721</ele>
        <time>2021-07-10T07:28:17Z</time>
      </trkpt>
      <trkpt lat="40.556609965860844" lon="-4.196377024054527">
        <ele>1253.2080000000001</ele>
        <time>2021-07-10T07:28:19Z</time>
      </trkpt>
      <trkpt lat="40.556727983057499" lon="-4.196428991854191">
        <ele>1253.6400000000001</ele>
        <time>2021-07-10T07:28:20Z</time>
      </trkpt>
      <trkpt lat="40.556848011910915" lon="-4.196474002674222">
        <ele>1253.99</ele>
        <time>2021-07-10T07:28:21Z</time>
      </trkpt>
      <trkpt lat="40.557093014940619" lon="-4.196521025151014">
        <ele>1254.0609999999999</ele>
        <time>2021-07-10T07:28:23Z</time>
      </trkpt>
      <trkpt lat="40.557224024087191" lon="-4.196523036807776">
        <ele>1254.6469999999999</ele>
        <time>2021-07-10T07:28:24Z</time>
      </trkpt>
      <trkpt lat="40.557470032945275" lon="-4.196506021544337">
        <ele>1254.3889999999999</ele>
        <time>2021-07-10T07:28:26Z</time>
      </trkpt>
      <trkpt lat="40.557588972151279" lon="-4.196492023766041">
        <ele>1255.192</ele>
        <time>2021-07-10T07:28:27Z</time>
      </trkpt>
      <trkpt lat="40.557808997109532" lon="-4.196467967703939">
        <ele>1254.6659999999999</ele>
        <time>2021-07-10T07:28:29Z</time>
      </trkpt>
      <trkpt lat="40.558034973219037" lon="-4.19644801877439">
        <ele>1255.1849999999999</ele>
        <time>2021-07-10T07:28:31Z</time>
      </trkpt>
      <trkpt lat="40.55814603343606" lon="-4.196440977975726">
        <ele>1255.0219999999999</ele>
        <time>2021-07-10T07:28:32Z</time>
      </trkpt>
      <trkpt lat="40.558263966813684" lon="-4.196440977975726">
        <ele>1255.3620000000001</ele>
        <time>2021-07-10T07:28:33Z</time>
      </trkpt>
      <trkpt lat="40.558478962630033" lon="-4.196466961875558">
        <ele>1255.6079999999999</ele>
        <time>2021-07-10T07:28:35Z</time>
      </trkpt>
      <trkpt lat="40.558679960668087" lon="-4.196527982130647">
        <ele>1255.6079999999999</ele>
        <time>2021-07-10T07:28:37Z</time>
      </trkpt>
      <trkpt lat="40.55877098813653" lon="-4.196561006829143">
        <ele>1256.029</ele>
        <time>2021-07-10T07:28:38Z</time>
      </trkpt>
      <trkpt lat="40.55894298478961" lon="-4.196589002385736">
        <ele>1255.259</ele>
        <time>2021-07-10T07:28:40Z</time>
      </trkpt>
      <trkpt lat="40.559123028069735" lon="-4.196570981293917">
        <ele>1255.4100000000001</ele>
        <time>2021-07-10T07:28:42Z</time>
      </trkpt>
      <trkpt lat="40.559300975874066" lon="-4.196501998230815">
        <ele>1254.7660000000001</ele>
        <time>2021-07-10T07:28:44Z</time>
      </trkpt>
      <trkpt lat="40.559491999447346" lon="-4.196408959105611">
        <ele>1253.518</ele>
        <time>2021-07-10T07:28:46Z</time>
      </trkpt>
      <trkpt lat="40.559606999158859" lon="-4.196369983255863">
        <ele>1252.6510000000001</ele>
        <time>2021-07-10T07:28:47Z</time>
      </trkpt>
      <trkpt lat="40.559854013845325" lon="-4.196307035163045">
        <ele>1251.915</ele>
        <time>2021-07-10T07:28:49Z</time>
      </trkpt>
      <trkpt lat="40.56010102853179" lon="-4.196250960230827">
        <ele>1251.0239999999999</ele>
        <time>2021-07-10T07:28:51Z</time>
      </trkpt>
      <trkpt lat="40.560215022414923" lon="-4.19623201712966">
        <ele>1250.451</ele>
        <time>2021-07-10T07:28:52Z</time>
      </trkpt>
      <trkpt lat="40.560429012402892" lon="-4.196236962452531">
        <ele>1249.201</ele>
        <time>2021-07-10T07:28:54Z</time>
      </trkpt>
      <trkpt lat="40.560598997399211" lon="-4.196356991305947">
        <ele>1247.211</ele>
        <time>2021-07-10T07:28:56Z</time>
      </trkpt>
      <trkpt lat="40.560672003775835" lon="-4.196462016552687">
        <ele>1245.008</ele>
        <time>2021-07-10T07:28:57Z</time>
      </trkpt>
      <trkpt lat="40.560761019587517" lon="-4.196698972955346">
        <ele>1243.672</ele>
        <time>2021-07-10T07:28:59Z</time>
      </trkpt>
      <trkpt lat="40.560802007094026" lon="-4.196799974888563">
        <ele>1242.3820000000001</ele>
        <time>2021-07-10T07:29:00Z</time>
      </trkpt>
      <trkpt lat="40.560934022068977" lon="-4.196863006800413">
        <ele>1240.133</ele>
        <time>2021-07-10T07:29:02Z</time>
      </trkpt>
      <trkpt lat="40.561009962111712" lon="-4.19683400541544">
        <ele>1237.299</ele>
        <time>2021-07-10T07:29:03Z</time>
      </trkpt>
      <trkpt lat="40.561071988195181" lon="-4.196747001260519">
        <ele>1235.2809999999999</ele>
        <time>2021-07-10T07:29:04Z</time>
      </trkpt>
      <trkpt lat="40.561097972095013" lon="-4.196623032912612">
        <ele>1234.154</ele>
        <time>2021-07-10T07:29:05Z</time>
      </trkpt>
      <trkpt lat="40.561110964044929" lon="-4.196346011012793">
        <ele>1232.4280000000001</ele>
        <time>2021-07-10T07:29:07Z</time>
      </trkpt>
      <trkpt lat="40.561122028157115" lon="-4.196044011041522">
        <ele>1231.117</ele>
        <time>2021-07-10T07:29:09Z</time>
      </trkpt>
      <trkpt lat="40.561110964044929" lon="-4.195891041308641">
        <ele>1230.2339999999999</ele>
        <time>2021-07-10T07:29:10Z</time>
      </trkpt>
      <trkpt lat="40.56102697737515" lon="-4.195621982216835">
        <ele>1229.4549999999999</ele>
        <time>2021-07-10T07:29:12Z</time>
      </trkpt>
      <trkpt lat="40.560978027060628" lon="-4.19550497084856">
        <ele>1228.9100000000001</ele>
        <time>2021-07-10T07:29:13Z</time>
      </trkpt>
      <trkpt lat="40.560949025675654" lon="-4.195398017764092">
        <ele>1228.4079999999999</ele>
        <time>2021-07-10T07:29:14Z</time>
      </trkpt>
      <trkpt lat="40.560957994312048" lon="-4.195303972810507">
        <ele>1227.3399999999999</ele>
        <time>2021-07-10T07:29:15Z</time>
      </trkpt>
      <trkpt lat="40.561058996245265" lon="-4.195128958672285">
        <ele>1226.3499999999999</ele>
        <time>2021-07-10T07:29:17Z</time>
      </trkpt>
      <trkpt lat="40.561146000400186" lon="-4.195071961730719">
        <ele>1224.931</ele>
        <time>2021-07-10T07:29:18Z</time>
      </trkpt>
      <trkpt lat="40.561243984848261" lon="-4.195057963952422">
        <ele>1223.867</ele>
        <time>2021-07-10T07:29:19Z</time>
      </trkpt>
      <trkpt lat="40.561340963467956" lon="-4.195091994479299">
        <ele>1222.9490000000001</ele>
        <time>2021-07-10T07:29:20Z</time>
      </trkpt>
      <trkpt lat="40.561449006199837" lon="-4.195270026102662">
        <ele>1222.412</ele>
        <time>2021-07-10T07:29:22Z</time>
      </trkpt>
      <trkpt lat="40.561493011191487" lon="-4.195404974743724">
        <ele>1221.4559999999999</ele>
        <time>2021-07-10T07:29:23Z</time>
      </trkpt>
      <trkpt lat="40.561539027839899" lon="-4.19552399776876">
        <ele>1220.4949999999999</ele>
        <time>2021-07-10T07:29:24Z</time>
      </trkpt>
      <trkpt lat="40.561604993417859" lon="-4.19563103467226">
        <ele>1220.1489999999999</ele>
        <time>2021-07-10T07:29:25Z</time>
      </trkpt>
      <trkpt lat="40.561753017827868" lon="-4.195710998028517">
        <ele>1219.3019999999999</ele>
        <time>2021-07-10T07:29:27Z</time>
      </trkpt>
      <trkpt lat="40.561829041689634" lon="-4.195681996643543">
        <ele>1218.722</ele>
        <time>2021-07-10T07:29:28Z</time>
      </trkpt>
      <trkpt lat="40.562044959515333" lon="-4.195515029132366">
        <ele>1217.4079999999999</ele>
        <time>2021-07-10T07:29:30Z</time>
      </trkpt>
      <trkpt lat="40.562290968373418" lon="-4.195355018600822">
        <ele>1216.0709999999999</ele>
        <time>2021-07-10T07:29:32Z</time>
      </trkpt>
      <trkpt lat="40.562604032456875" lon="-4.195226021111012">
        <ele>1214.421</ele>
        <time>2021-07-10T07:29:34Z</time>
      </trkpt>
      <trkpt lat="40.562783991917968" lon="-4.195176986977458">
        <ele>1212.8320000000001</ele>
        <time>2021-07-10T07:29:35Z</time>
      </trkpt>
      <trkpt lat="40.563137959688902" lon="-4.195085037499666">
        <ele>1210.6479999999999</ele>
        <time>2021-07-10T07:29:37Z</time>
      </trkpt>
      <trkpt lat="40.563329989090562" lon="-4.195039020851255">
        <ele>1208.9200000000001</ele>
        <time>2021-07-10T07:29:38Z</time>
      </trkpt>
      <trkpt lat="40.563515983521938" lon="-4.194999039173126">
        <ele>1207.5530000000001</ele>
        <time>2021-07-10T07:29:39Z</time>
      </trkpt>
      <trkpt lat="40.56388596072793" lon="-4.19496601447463">
        <ele>1206.127</ele>
        <time>2021-07-10T07:29:41Z</time>
      </trkpt>
      <trkpt lat="40.564219979569316" lon="-4.194984035566449">
        <ele>1205.7159999999999</ele>
        <time>2021-07-10T07:29:43Z</time>
      </trkpt>
      <trkpt lat="40.564388036727905" lon="-4.194996021687985">
        <ele>1204.933</ele>
        <time>2021-07-10T07:29:44Z</time>
      </trkpt>
      <trkpt lat="40.564692970365286" lon="-4.194916980341077">
        <ele>1202.8230000000001</ele>
        <time>2021-07-10T07:29:46Z</time>
      </trkpt>
      <trkpt lat="40.564972003921866" lon="-4.194722017273307">
        <ele>1201.415</ele>
        <time>2021-07-10T07:29:48Z</time>
      </trkpt>
      <trkpt lat="40.565220024436712" lon="-4.194464022293687">
        <ele>1200.7080000000001</ele>
        <time>2021-07-10T07:29:50Z</time>
      </trkpt>
      <trkpt lat="40.565337035804987" lon="-4.194348016753793">
        <ele>1200.46</ele>
        <time>2021-07-10T07:29:51Z</time>
      </trkpt>
      <trkpt lat="40.565542979165912" lon="-4.19419202953577">
        <ele>1199.9200000000001</ele>
        <time>2021-07-10T07:29:53Z</time>
      </trkpt>
      <trkpt lat="40.565608022734523" lon="-4.194182977080345">
        <ele>1198.971</ele>
        <time>2021-07-10T07:29:54Z</time>
      </trkpt>
      <trkpt lat="40.565742971375585" lon="-4.194269981235266">
        <ele>1197.1969999999999</ele>
        <time>2021-07-10T07:29:56Z</time>
      </trkpt>
      <trkpt lat="40.565811032429338" lon="-4.194473996758461">
        <ele>1195.8689999999999</ele>
        <time>2021-07-10T07:29:58Z</time>
      </trkpt>
      <trkpt lat="40.565829975530505" lon="-4.194604000076652">
        <ele>1194.972</ele>
        <time>2021-07-10T07:29:59Z</time>
      </trkpt>
      <trkpt lat="40.565857971087098" lon="-4.194888984784484">
        <ele>1193.4760000000001</ele>
        <time>2021-07-10T07:30:01Z</time>
      </trkpt>
      <trkpt lat="40.56592402048409" lon="-4.195099035277963">
        <ele>1191.7950000000001</ele>
        <time>2021-07-10T07:30:03Z</time>
      </trkpt>
      <trkpt lat="40.566042959690094" lon="-4.195168018341065">
        <ele>1190.4880000000001</ele>
        <time>2021-07-10T07:30:05Z</time>
      </trkpt>
      <trkpt lat="40.566127030178905" lon="-4.195126025006175">
        <ele>1189.424</ele>
        <time>2021-07-10T07:30:06Z</time>
      </trkpt>
      <trkpt lat="40.566264996305108" lon="-4.194930978119373">
        <ele>1188.4259999999999</ele>
        <time>2021-07-10T07:30:08Z</time>
      </trkpt>
      <trkpt lat="40.566287962719798" lon="-4.194798963144422">
        <ele>1187.808</ele>
        <time>2021-07-10T07:30:09Z</time>
      </trkpt>
      <trkpt lat="40.56629098020494" lon="-4.194674994796515">
        <ele>1188.675</ele>
        <time>2021-07-10T07:30:10Z</time>
      </trkpt>
      <trkpt lat="40.566281005740166" lon="-4.194551026448607">
        <ele>1188.2850000000001</ele>
        <time>2021-07-10T07:30:11Z</time>
      </trkpt>
      <trkpt lat="40.566253010183573" lon="-4.194391015917063">
        <ele>1188.056</ele>
        <time>2021-07-10T07:30:12Z</time>
      </trkpt>
      <trkpt lat="40.56616298854351" lon="-4.194009974598885">
        <ele>1187.7619999999999</ele>
        <time>2021-07-10T07:30:14Z</time>
      </trkpt>
      <trkpt lat="40.56609601713717" lon="-4.193772012367845">
        <ele>1187.5640000000001</ele>
        <time>2021-07-10T07:30:15Z</time>
      </trkpt>
      <trkpt lat="40.566042959690094" lon="-4.193520974367857">
        <ele>1186.797</ele>
        <time>2021-07-10T07:30:16Z</time>
      </trkpt>
      <trkpt lat="40.566022004932165" lon="-4.193059969693422">
        <ele>1185.421</ele>
        <time>2021-07-10T07:30:18Z</time>
      </trkpt>
      <trkpt lat="40.566038014367223" lon="-4.192818989977241">
        <ele>1184.8199999999999</ele>
        <time>2021-07-10T07:30:19Z</time>
      </trkpt>
      <trkpt lat="40.566079001873732" lon="-4.19234499335289">
        <ele>1183.9179999999999</ele>
        <time>2021-07-10T07:30:21Z</time>
      </trkpt>
      <trkpt lat="40.566128036007285" lon="-4.191920030862093">
        <ele>1182.798</ele>
        <time>2021-07-10T07:30:23Z</time>
      </trkpt>
      <trkpt lat="40.566240018233657" lon="-4.191589029505849">
        <ele>1179.7170000000001</ele>
        <time>2021-07-10T07:30:25Z</time>
      </trkpt>
      <trkpt lat="40.566350994631648" lon="-4.19146497733891">
        <ele>1177.2080000000001</ele>
        <time>2021-07-10T07:30:26Z</time>
      </trkpt>
      <trkpt lat="40.566475968807936" lon="-4.191351989284158">
        <ele>1174.798</ele>
        <time>2021-07-10T07:30:27Z</time>
      </trkpt>
      <trkpt lat="40.566730024293065" lon="-4.191121989861131">
        <ele>1172.048</ele>
        <time>2021-07-10T07:30:29Z</time>
      </trkpt>
      <trkpt lat="40.566845024004579" lon="-4.190972037613392">
        <ele>1170.479</ele>
        <time>2021-07-10T07:30:30Z</time>
      </trkpt>
      <trkpt lat="40.566947031766176" lon="-4.190809009596705">
        <ele>1169.145</ele>
        <time>2021-07-10T07:30:31Z</time>
      </trkpt>
      <trkpt lat="40.567033030092716" lon="-4.190618991851807">
        <ele>1167.7370000000001</ele>
        <time>2021-07-10T07:30:32Z</time>
      </trkpt>
      <trkpt lat="40.567154986783862" lon="-4.190249014645815">
        <ele>1165.6600000000001</ele>
        <time>2021-07-10T07:30:34Z</time>
      </trkpt>
      <trkpt lat="40.56725800037384" lon="-4.189821034669876">
        <ele>1163.5940000000001</ele>
        <time>2021-07-10T07:30:36Z</time>
      </trkpt>
      <trkpt lat="40.567291025072336" lon="-4.189582988619804">
        <ele>1161.8530000000001</ele>
        <time>2021-07-10T07:30:37Z</time>
      </trkpt>
      <trkpt lat="40.567347016185522" lon="-4.189129024744034">
        <ele>1159.877</ele>
        <time>2021-07-10T07:30:39Z</time>
      </trkpt>
      <trkpt lat="40.567389009520411" lon="-4.188897013664246">
        <ele>1157.6610000000001</ele>
        <time>2021-07-10T07:30:40Z</time>
      </trkpt>
      <trkpt lat="40.567547008395195" lon="-4.188450006768107">
        <ele>1155.627</ele>
        <time>2021-07-10T07:30:42Z</time>
      </trkpt>
      <trkpt lat="40.567763010039926" lon="-4.188056979328394">
        <ele>1153.7080000000001</ele>
        <time>2021-07-10T07:30:44Z</time>
      </trkpt>
      <trkpt lat="40.567996026948094" lon="-4.187665041536093">
        <ele>1151.3440000000001</ele>
        <time>2021-07-10T07:30:46Z</time>
      </trkpt>
      <trkpt lat="40.568123012781143" lon="-4.187477035447955">
        <ele>1149.934</ele>
        <time>2021-07-10T07:30:47Z</time>
      </trkpt>
      <trkpt lat="40.568269025534391" lon="-4.187305038794875">
        <ele>1148.135</ele>
        <time>2021-07-10T07:30:48Z</time>
      </trkpt>
      <trkpt lat="40.568554010242224" lon="-4.186970014125109">
        <ele>1146.731</ele>
        <time>2021-07-10T07:30:50Z</time>
      </trkpt>
      <trkpt lat="40.568680996075273" lon="-4.186782008036971">
        <ele>1145.7329999999999</ele>
        <time>2021-07-10T07:30:51Z</time>
      </trkpt>
      <trkpt lat="40.568801024928689" lon="-4.186584027484059">
        <ele>1144.326</ele>
        <time>2021-07-10T07:30:52Z</time>
      </trkpt>
      <trkpt lat="40.569015014916658" lon="-4.186281021684408">
        <ele>1142.51</ele>
        <time>2021-07-10T07:30:54Z</time>
      </trkpt>
      <trkpt lat="40.56929899379611" lon="-4.186078011989594">
        <ele>1140.529</ele>
        <time>2021-07-10T07:30:56Z</time>
      </trkpt>
      <trkpt lat="40.56946998462081" lon="-4.186025960370898">
        <ele>1138.9880000000001</ele>
        <time>2021-07-10T07:30:57Z</time>
      </trkpt>
      <trkpt lat="40.569786988198757" lon="-4.185948008671403">
        <ele>1137.3240000000001</ele>
        <time>2021-07-10T07:30:59Z</time>
      </trkpt>
      <trkpt lat="40.570077002048492" lon="-4.185769977048039">
        <ele>1135.626</ele>
        <time>2021-07-10T07:31:01Z</time>
      </trkpt>
      <trkpt lat="40.570213962346315" lon="-4.185637040063739">
        <ele>1133.308</ele>
        <time>2021-07-10T07:31:02Z</time>
      </trkpt>
      <trkpt lat="40.570417977869511" lon="-4.18532095849514">
        <ele>1131.2850000000001</ele>
        <time>2021-07-10T07:31:04Z</time>
      </trkpt>
      <trkpt lat="40.570563990622759" lon="-4.18493002653122">
        <ele>1129.365</ele>
        <time>2021-07-10T07:31:06Z</time>
      </trkpt>
      <trkpt lat="40.570638002827764" lon="-4.184723999351263">
        <ele>1127.866</ele>
        <time>2021-07-10T07:31:07Z</time>
      </trkpt>
      <trkpt lat="40.570797007530928" lon="-4.184341030195355">
        <ele>1126.5920000000001</ele>
        <time>2021-07-10T07:31:09Z</time>
      </trkpt>
      <trkpt lat="40.571000017225742" lon="-4.183991001918912">
        <ele>1124.664</ele>
        <time>2021-07-10T07:31:11Z</time>
      </trkpt>
      <trkpt lat="40.571104036644101" lon="-4.183817999437451">
        <ele>1122.797</ele>
        <time>2021-07-10T07:31:12Z</time>
      </trkpt>
      <trkpt lat="40.57121098972857" lon="-4.183646002784371">
        <ele>1121.0309999999999</ele>
        <time>2021-07-10T07:31:13Z</time>
      </trkpt>
      <trkpt lat="40.571433026343584" lon="-4.183379961177707">
        <ele>1119.01</ele>
        <time>2021-07-10T07:31:15Z</time>
      </trkpt>
      <trkpt lat="40.571717005223036" lon="-4.18319103308022">
        <ele>1117.3240000000001</ele>
        <time>2021-07-10T07:31:17Z</time>
      </trkpt>
      <trkpt lat="40.5718760099262" lon="-4.183103023096919">
        <ele>1116.104</ele>
        <time>2021-07-10T07:31:18Z</time>
      </trkpt>
      <trkpt lat="40.572227966040373" lon="-4.182991962879896">
        <ele>1114.914</ele>
        <time>2021-07-10T07:31:20Z</time>
      </trkpt>
      <trkpt lat="40.572605989873409" lon="-4.182927003130317">
        <ele>1112.7080000000001</ele>
        <time>2021-07-10T07:31:22Z</time>
      </trkpt>
      <trkpt lat="40.57279902510345" lon="-4.182867994531989">
        <ele>1111.4290000000001</ele>
        <time>2021-07-10T07:31:23Z</time>
      </trkpt>
      <trkpt lat="40.573116028681397" lon="-4.182640006765723">
        <ele>1109.6289999999999</ele>
        <time>2021-07-10T07:31:25Z</time>
      </trkpt>
      <trkpt lat="40.573406964540482" lon="-4.18233297765255">
        <ele>1107.6900000000001</ele>
        <time>2021-07-10T07:31:27Z</time>
      </trkpt>
      <trkpt lat="40.573535040020943" lon="-4.182171961292625">
        <ele>1106.4259999999999</ele>
        <time>2021-07-10T07:31:28Z</time>
      </trkpt>
      <trkpt lat="40.57370200753212" lon="-4.181789997965097">
        <ele>1104.818</ele>
        <time>2021-07-10T07:31:30Z</time>
      </trkpt>
      <trkpt lat="40.573812983930111" lon="-4.1813650354743">
        <ele>1103.3710000000001</ele>
        <time>2021-07-10T07:31:32Z</time>
      </trkpt>
      <trkpt lat="40.573868975043297" lon="-4.181159008294344">
        <ele>1102.2850000000001</ele>
        <time>2021-07-10T07:31:33Z</time>
      </trkpt>
      <trkpt lat="40.573975006118417" lon="-4.180830018594861">
        <ele>1100.7139999999999</ele>
        <time>2021-07-10T07:31:35Z</time>
      </trkpt>
      <trkpt lat="40.574056981131434" lon="-4.180679982528091">
        <ele>1099.816</ele>
        <time>2021-07-10T07:31:36Z</time>
      </trkpt>
      <trkpt lat="40.574265019968152" lon="-4.180402960628271">
        <ele>1098.9760000000001</ele>
        <time>2021-07-10T07:31:38Z</time>
      </trkpt>
      <trkpt lat="40.574443973600864" lon="-4.180069025605917">
        <ele>1097.1130000000001</ele>
        <time>2021-07-10T07:31:40Z</time>
      </trkpt>
      <trkpt lat="40.574572971090674" lon="-4.179660994559526">
        <ele>1094.7080000000001</ele>
        <time>2021-07-10T07:31:42Z</time>
      </trkpt>
      <trkpt lat="40.574709009379148" lon="-4.179208958521485">
        <ele>1091.748</ele>
        <time>2021-07-10T07:31:44Z</time>
      </trkpt>
      <trkpt lat="40.57486399076879" lon="-4.17874300852418">
        <ele>1089.088</ele>
        <time>2021-07-10T07:31:46Z</time>
      </trkpt>
      <trkpt lat="40.575017966330051" lon="-4.178273035213351">
        <ele>1086.029</ele>
        <time>2021-07-10T07:31:48Z</time>
      </trkpt>
      <trkpt lat="40.575128020718694" lon="-4.177829967811704">
        <ele>1083.4749999999999</ele>
        <time>2021-07-10T07:31:50Z</time>
      </trkpt>
      <trkpt lat="40.575148975476623" lon="-4.177359994500876">
        <ele>1081.7670000000001</ele>
        <time>2021-07-10T07:31:52Z</time>
      </trkpt>
      <trkpt lat="40.575162973254919" lon="-4.177123038098216">
        <ele>1080.3599999999999</ele>
        <time>2021-07-10T07:31:53Z</time>
      </trkpt>
      <trkpt lat="40.575261041522026" lon="-4.176650969311595">
        <ele>1079.454</ele>
        <time>2021-07-10T07:31:55Z</time>
      </trkpt>
      <trkpt lat="40.575381992384791" lon="-4.176185019314289">
        <ele>1079.5930000000001</ele>
        <time>2021-07-10T07:31:57Z</time>
      </trkpt>
      <trkpt lat="40.57544301263988" lon="-4.175964994356036">
        <ele>1079.748</ele>
        <time>2021-07-10T07:31:58Z</time>
      </trkpt>
      <trkpt lat="40.575515013188124" lon="-4.17575603350997">
        <ele>1079.8610000000001</ele>
        <time>2021-07-10T07:31:59Z</time>
      </trkpt>
      <trkpt lat="40.575646022334695" lon="-4.17537197470665">
        <ele>1079.4169999999999</ele>
        <time>2021-07-10T07:32:01Z</time>
      </trkpt>
      <trkpt lat="40.575727997347713" lon="-4.174952963367105">
        <ele>1078.1079999999999</ele>
        <time>2021-07-10T07:32:03Z</time>
      </trkpt>
      <trkpt lat="40.575779965147376" lon="-4.174572005867958">
        <ele>1076.931</ele>
        <time>2021-07-10T07:32:05Z</time>
      </trkpt>
      <trkpt lat="40.575804021209478" lon="-4.174394980072975">
        <ele>1076.1310000000001</ele>
        <time>2021-07-10T07:32:06Z</time>
      </trkpt>
      <trkpt lat="40.575837967917323" lon="-4.174095997586846">
        <ele>1074.732</ele>
        <time>2021-07-10T07:32:08Z</time>
      </trkpt>
      <trkpt lat="40.575853977352381" lon="-4.173964988440275">
        <ele>1073.3979999999999</ele>
        <time>2021-07-10T07:32:09Z</time>
      </trkpt>
      <trkpt lat="40.575920026749372" lon="-4.173773964866996">
        <ele>1071.78</ele>
        <time>2021-07-10T07:32:11Z</time>
      </trkpt>
      <trkpt lat="40.576080959290266" lon="-4.173670029267669">
        <ele>1070.9929999999999</ele>
        <time>2021-07-10T07:32:13Z</time>
      </trkpt>
      <trkpt lat="40.576167963445187" lon="-4.173626024276018">
        <ele>1070.4870000000001</ele>
        <time>2021-07-10T07:32:14Z</time>
      </trkpt>
      <trkpt lat="40.576297966763377" lon="-4.173461990430951">
        <ele>1069.6759999999999</ele>
        <time>2021-07-10T07:32:16Z</time>
      </trkpt>
      <trkpt lat="40.576362004503608" lon="-4.17333098128438">
        <ele>1068.877</ele>
        <time>2021-07-10T07:32:17Z</time>
      </trkpt>
      <trkpt lat="40.576429981738329" lon="-4.173187986016274">
        <ele>1068.261</ele>
        <time>2021-07-10T07:32:18Z</time>
      </trkpt>
      <trkpt lat="40.576569037511945" lon="-4.172890009358525">
        <ele>1067.627</ele>
        <time>2021-07-10T07:32:20Z</time>
      </trkpt>
      <trkpt lat="40.576649000868201" lon="-4.172746008262038">
        <ele>1067.1079999999999</ele>
        <time>2021-07-10T07:32:21Z</time>
      </trkpt>
      <trkpt lat="40.576741034165025" lon="-4.172614999115467">
        <ele>1067.0940000000001</ele>
        <time>2021-07-10T07:32:22Z</time>
      </trkpt>
      <trkpt lat="40.576978996396065" lon="-4.172411989420652">
        <ele>1068.124</ele>
        <time>2021-07-10T07:32:24Z</time>
      </trkpt>
      <trkpt lat="40.577244032174349" lon="-4.172310987487435">
        <ele>1069.115</ele>
        <time>2021-07-10T07:32:26Z</time>
      </trkpt>
      <trkpt lat="40.577385015785694" lon="-4.172280980274081">
        <ele>1069.731</ele>
        <time>2021-07-10T07:32:27Z</time>
      </trkpt>
      <trkpt lat="40.577692966908216" lon="-4.172252984717488">
        <ele>1070.5730000000001</ele>
        <time>2021-07-10T07:32:29Z</time>
      </trkpt>
      <trkpt lat="40.577849037945271" lon="-4.17223496362567">
        <ele>1071.2159999999999</ele>
        <time>2021-07-10T07:32:30Z</time>
      </trkpt>
      <trkpt lat="40.578163024038076" lon="-4.172197999432683">
        <ele>1071.8900000000001</ele>
        <time>2021-07-10T07:32:32Z</time>
      </trkpt>
      <trkpt lat="40.578311970457435" lon="-4.172179978340864">
        <ele>1072.1690000000001</ele>
        <time>2021-07-10T07:32:33Z</time>
      </trkpt>
      <trkpt lat="40.578454965725541" lon="-4.172147959470749">
        <ele>1072.6759999999999</ele>
        <time>2021-07-10T07:32:34Z</time>
      </trkpt>
      <trkpt lat="40.578584969043732" lon="-4.17210303246975">
        <ele>1072.5899999999999</ele>
        <time>2021-07-10T07:32:35Z</time>
      </trkpt>
      <trkpt lat="40.578833995386958" lon="-4.171971017494798">
        <ele>1072.2190000000001</ele>
        <time>2021-07-10T07:32:37Z</time>
      </trkpt>
      <trkpt lat="40.578950000926852" lon="-4.171873033046722">
        <ele>1072.308</ele>
        <time>2021-07-10T07:32:38Z</time>
      </trkpt>
      <trkpt lat="40.579059971496463" lon="-4.171754010021687">
        <ele>1072.114</ele>
        <time>2021-07-10T07:32:39Z</time>
      </trkpt>
      <trkpt lat="40.579172037541866" lon="-4.171609003096819">
        <ele>1071.864</ele>
        <time>2021-07-10T07:32:40Z</time>
      </trkpt>
      <trkpt lat="40.579364988952875" lon="-4.171279007568955">
        <ele>1071.2950000000001</ele>
        <time>2021-07-10T07:32:42Z</time>
      </trkpt>
      <trkpt lat="40.579451993107796" lon="-4.171082032844424">
        <ele>1070.211</ele>
        <time>2021-07-10T07:32:43Z</time>
      </trkpt>
      <trkpt lat="40.579537991434336" lon="-4.170870976522565">
        <ele>1069.3430000000001</ele>
        <time>2021-07-10T07:32:44Z</time>
      </trkpt>
      <trkpt lat="40.579630024731159" lon="-4.17064399458468">
        <ele>1068.126</ele>
        <time>2021-07-10T07:32:45Z</time>
      </trkpt>
      <trkpt lat="40.579819036647677" lon="-4.170189024880529">
        <ele>1065.6800000000001</ele>
        <time>2021-07-10T07:32:47Z</time>
      </trkpt>
      <trkpt lat="40.58002196252346" lon="-4.169690972194076">
        <ele>1063.1690000000001</ele>
        <time>2021-07-10T07:32:49Z</time>
      </trkpt>
      <trkpt lat="40.580133022740483" lon="-4.169439012184739">
        <ele>1060.9960000000001</ele>
        <time>2021-07-10T07:32:50Z</time>
      </trkpt>
      <trkpt lat="40.580343995243311" lon="-4.168964009732008">
        <ele>1058.931</ele>
        <time>2021-07-10T07:32:52Z</time>
      </trkpt>
      <trkpt lat="40.58044902049005" lon="-4.168716995045543">
        <ele>1057.424</ele>
        <time>2021-07-10T07:32:53Z</time>
      </trkpt>
      <trkpt lat="40.580644989386201" lon="-4.168221959844232">
        <ele>1056.508</ele>
        <time>2021-07-10T07:32:55Z</time>
      </trkpt>
      <trkpt lat="40.5808350071311" lon="-4.167758021503687">
        <ele>1055.796</ele>
        <time>2021-07-10T07:32:57Z</time>
      </trkpt>
      <trkpt lat="40.580931985750794" lon="-4.16752802208066">
        <ele>1055.4359999999999</ele>
        <time>2021-07-10T07:32:58Z</time>
      </trkpt>
      <trkpt lat="40.58103097602725" lon="-4.167306991294026">
        <ele>1054.8869999999999</ele>
        <time>2021-07-10T07:32:59Z</time>
      </trkpt>
      <trkpt lat="40.581132983788848" lon="-4.167073974385858">
        <ele>1054.213</ele>
        <time>2021-07-10T07:33:00Z</time>
      </trkpt>
      <trkpt lat="40.581348985433578" lon="-4.166649011895061">
        <ele>1052.9649999999999</ele>
        <time>2021-07-10T07:33:02Z</time>
      </trkpt>
      <trkpt lat="40.581471025943756" lon="-4.166418006643653">
        <ele>1051.498</ele>
        <time>2021-07-10T07:33:03Z</time>
      </trkpt>
      <trkpt lat="40.581594994291663" lon="-4.166187001392245">
        <ele>1049.922</ele>
        <time>2021-07-10T07:33:04Z</time>
      </trkpt>
      <trkpt lat="40.58182398788631" lon="-4.165737982839346">
        <ele>1047.511</ele>
        <time>2021-07-10T07:33:06Z</time>
      </trkpt>
      <trkpt lat="40.58195298537612" lon="-4.165503960102797">
        <ele>1045.5170000000001</ele>
        <time>2021-07-10T07:33:07Z</time>
      </trkpt>
      <trkpt lat="40.582212992012501" lon="-4.165030969306827">
        <ele>1042.787</ele>
        <time>2021-07-10T07:33:09Z</time>
      </trkpt>
      <trkpt lat="40.582456989213824" lon="-4.16456401348114">
        <ele>1040.8150000000001</ele>
        <time>2021-07-10T07:33:11Z</time>
      </trkpt>
      <trkpt lat="40.582574000582099" lon="-4.164341976866126">
        <ele>1038.508</ele>
        <time>2021-07-10T07:33:12Z</time>
      </trkpt>
      <trkpt lat="40.582780027762055" lon="-4.163973005488515">
        <ele>1036.848</ele>
        <time>2021-07-10T07:33:14Z</time>
      </trkpt>
      <trkpt lat="40.582982031628489" lon="-4.163592969998717">
        <ele>1034.798</ele>
        <time>2021-07-10T07:33:16Z</time>
      </trkpt>
      <trkpt lat="40.583079010248184" lon="-4.163408987224102">
        <ele>1033.279</ele>
        <time>2021-07-10T07:33:17Z</time>
      </trkpt>
      <trkpt lat="40.583172971382737" lon="-4.1632329672575">
        <ele>1032.2750000000001</ele>
        <time>2021-07-10T07:33:18Z</time>
      </trkpt>
      <trkpt lat="40.583258969709277" lon="-4.163056025281549">
        <ele>1031.3969999999999</ele>
        <time>2021-07-10T07:33:19Z</time>
      </trkpt>
      <trkpt lat="40.583411017432809" lon="-4.162742961198092">
        <ele>1030.3900000000001</ele>
        <time>2021-07-10T07:33:21Z</time>
      </trkpt>
      <trkpt lat="40.583487041294575" lon="-4.162596026435494">
        <ele>1029.2739999999999</ele>
        <time>2021-07-10T07:33:22Z</time>
      </trkpt>
      <trkpt lat="40.583633976057172" lon="-4.162324033677578">
        <ele>1028.6130000000001</ele>
        <time>2021-07-10T07:33:24Z</time>
      </trkpt>
      <trkpt lat="40.583700025454164" lon="-4.162202998995781">
        <ele>1027.8579999999999</ele>
        <time>2021-07-10T07:33:25Z</time>
      </trkpt>
      <trkpt lat="40.583823993802071" lon="-4.161975011229515">
        <ele>1027.0519999999999</ele>
        <time>2021-07-10T07:33:27Z</time>
      </trkpt>
      <trkpt lat="40.583927007392049" lon="-4.161778036504984">
        <ele>1026.4169999999999</ele>
        <time>2021-07-10T07:33:29Z</time>
      </trkpt>
      <trkpt lat="40.584027003496885" lon="-4.161564968526363">
        <ele>1026.2080000000001</ele>
        <time>2021-07-10T07:33:31Z</time>
      </trkpt>
      <trkpt lat="40.584086012095213" lon="-4.161461032927036">
        <ele>1026.422</ele>
        <time>2021-07-10T07:33:32Z</time>
      </trkpt>
      <trkpt lat="40.584190031513572" lon="-4.161258023232222">
        <ele>1026.682</ele>
        <time>2021-07-10T07:33:34Z</time>
      </trkpt>
      <trkpt lat="40.584245016798377" lon="-4.161161966621876">
        <ele>1025.953</ele>
        <time>2021-07-10T07:33:35Z</time>
      </trkpt>
      <trkpt lat="40.584368985146284" lon="-4.160971026867628">
        <ele>1025.079</ele>
        <time>2021-07-10T07:33:37Z</time>
      </trkpt>
      <trkpt lat="40.584479961544275" lon="-4.160766005516052">
        <ele>1025.5909999999999</ele>
        <time>2021-07-10T07:33:39Z</time>
      </trkpt>
      <trkpt lat="40.584538970142603" lon="-4.160648994147778">
        <ele>1025.4839999999999</ele>
        <time>2021-07-10T07:33:40Z</time>
      </trkpt>
      <trkpt lat="40.584604013711214" lon="-4.160539023578167">
        <ele>1026.1279999999999</ele>
        <time>2021-07-10T07:33:41Z</time>
      </trkpt>
      <trkpt lat="40.584669979289174" lon="-4.160424023866653">
        <ele>1026.2470000000001</ele>
        <time>2021-07-10T07:33:42Z</time>
      </trkpt>
      <trkpt lat="40.584792019799352" lon="-4.160215985029936">
        <ele>1026.7670000000001</ele>
        <time>2021-07-10T07:33:44Z</time>
      </trkpt>
      <trkpt lat="40.584908025339246" lon="-4.159995960071683">
        <ele>1027.0809999999999</ele>
        <time>2021-07-10T07:33:46Z</time>
      </trkpt>
      <trkpt lat="40.584971979260445" lon="-4.15988196618855">
        <ele>1027.1189999999999</ele>
        <time>2021-07-10T07:33:47Z</time>
      </trkpt>
      <trkpt lat="40.585032999515533" lon="-4.159774007275701">
        <ele>1027.1079999999999</ele>
        <time>2021-07-10T07:33:48Z</time>
      </trkpt>
      <trkpt lat="40.585163002833724" lon="-4.159547025337815">
        <ele>1026.883</ele>
        <time>2021-07-10T07:33:50Z</time>
      </trkpt>
      <trkpt lat="40.585293006151915" lon="-4.159295987337828">
        <ele>1027.0630000000001</ele>
        <time>2021-07-10T07:33:52Z</time>
      </trkpt>
      <trkpt lat="40.585362995043397" lon="-4.159164978191257">
        <ele>1027.684</ele>
        <time>2021-07-10T07:33:53Z</time>
      </trkpt>
      <trkpt lat="40.585473971441388" lon="-4.158960040658712">
        <ele>1028.0699999999999</ele>
        <time>2021-07-10T07:33:55Z</time>
      </trkpt>
      <trkpt lat="40.585532980039716" lon="-4.158839005976915">
        <ele>1028.242</ele>
        <time>2021-07-10T07:33:57Z</time>
      </trkpt>
      <trkpt lat="40.585572039708495" lon="-4.15876298211515">
        <ele>1028.2349999999999</ele>
        <time>2021-07-10T07:33:59Z</time>
      </trkpt>
      <trkpt lat="40.585600035265088" lon="-4.158713025972247">
        <ele>1028.519</ele>
        <time>2021-07-10T07:34:00Z</time>
      </trkpt>
      <trkpt lat="40.585660971701145" lon="-4.158597020432353">
        <ele>1029.3879999999999</ele>
        <time>2021-07-10T07:34:02Z</time>
      </trkpt>
      <trkpt lat="40.58569299057126" lon="-4.158529965206981">
        <ele>1029.383</ele>
        <time>2021-07-10T07:34:03Z</time>
      </trkpt>
      <trkpt lat="40.585750993341208" lon="-4.158372972160578">
        <ele>1029.5250000000001</ele>
        <time>2021-07-10T07:34:05Z</time>
      </trkpt>
      <trkpt lat="40.585781000554562" lon="-4.158288985490799">
        <ele>1029.317</ele>
        <time>2021-07-10T07:34:06Z</time>
      </trkpt>
      <trkpt lat="40.585810001939535" lon="-4.158202987164259">
        <ele>1028.9079999999999</ele>
        <time>2021-07-10T07:34:07Z</time>
      </trkpt>
      <trkpt lat="40.58584202080965" lon="-4.158115983009338">
        <ele>1028.2349999999999</ele>
        <time>2021-07-10T07:34:08Z</time>
      </trkpt>
      <trkpt lat="40.58588501997292" lon="-4.157986985519528">
        <ele>1027.645</ele>
        <time>2021-07-10T07:34:10Z</time>
      </trkpt>
      <trkpt lat="40.585919972509146" lon="-4.157886989414692">
        <ele>1027.296</ele>
        <time>2021-07-10T07:34:12Z</time>
      </trkpt>
      <trkpt lat="40.585940005257726" lon="-4.157825969159603">
        <ele>1026.472</ele>
        <time>2021-07-10T07:34:13Z</time>
      </trkpt>
      <trkpt lat="40.585987027734518" lon="-4.157669981941581">
        <ele>1025.694</ele>
        <time>2021-07-10T07:34:15Z</time>
      </trkpt>
      <trkpt lat="40.586017034947872" lon="-4.157568980008364">
        <ele>1025.1669999999999</ele>
        <time>2021-07-10T07:34:16Z</time>
      </trkpt>
      <trkpt lat="40.586050981655717" lon="-4.157460015267134">
        <ele>1024.491</ele>
        <time>2021-07-10T07:34:17Z</time>
      </trkpt>
      <trkpt lat="40.586088029667735" lon="-4.157338980585337">
        <ele>1023.95</ele>
        <time>2021-07-10T07:34:18Z</time>
      </trkpt>
      <trkpt lat="40.58616497553885" lon="-4.157082997262478">
        <ele>1023.115</ele>
        <time>2021-07-10T07:34:20Z</time>
      </trkpt>
      <trkpt lat="40.586253991350532" lon="-4.156797006726265">
        <ele>1022.865</ele>
        <time>2021-07-10T07:34:22Z</time>
      </trkpt>
      <trkpt lat="40.586301013827324" lon="-4.156648982316256">
        <ele>1022.311</ele>
        <time>2021-07-10T07:34:23Z</time>
      </trkpt>
      <trkpt lat="40.586348036304116" lon="-4.156498024240136">
        <ele>1021.508</ele>
        <time>2021-07-10T07:34:24Z</time>
      </trkpt>
      <trkpt lat="40.586395980790257" lon="-4.156341031193733">
        <ele>1021.558</ele>
        <time>2021-07-10T07:34:25Z</time>
      </trkpt>
      <trkpt lat="40.586482984945178" lon="-4.156049005687237">
        <ele>1020.968</ele>
        <time>2021-07-10T07:34:27Z</time>
      </trkpt>
      <trkpt lat="40.586531013250351" lon="-4.155913973227143">
        <ele>1020.349</ele>
        <time>2021-07-10T07:34:28Z</time>
      </trkpt>
      <trkpt lat="40.586580969393253" lon="-4.155787993222475">
        <ele>1019.165</ele>
        <time>2021-07-10T07:34:29Z</time>
      </trkpt>
      <trkpt lat="40.586631009355187" lon="-4.15566997602582">
        <ele>1018.217</ele>
        <time>2021-07-10T07:34:30Z</time>
      </trkpt>
      <trkpt lat="40.586729999631643" lon="-4.155427990481257">
        <ele>1017.28</ele>
        <time>2021-07-10T07:34:32Z</time>
      </trkpt>
      <trkpt lat="40.586780039593577" lon="-4.155301004648209">
        <ele>1017.224</ele>
        <time>2021-07-10T07:34:33Z</time>
      </trkpt>
      <trkpt lat="40.586827984079719" lon="-4.155173012986779">
        <ele>1016.9829999999999</ele>
        <time>2021-07-10T07:34:34Z</time>
      </trkpt>
      <trkpt lat="40.586878024041653" lon="-4.15504602715373">
        <ele>1017.016</ele>
        <time>2021-07-10T07:34:35Z</time>
      </trkpt>
      <trkpt lat="40.586925968527794" lon="-4.15491996333003">
        <ele>1016.476</ele>
        <time>2021-07-10T07:34:36Z</time>
      </trkpt>
      <trkpt lat="40.587020013481379" lon="-4.154678983613849">
        <ele>1015.6130000000001</ele>
        <time>2021-07-10T07:34:38Z</time>
      </trkpt>
      <trkpt lat="40.587061000987887" lon="-4.154567001387477">
        <ele>1015.6079999999999</ele>
        <time>2021-07-10T07:34:39Z</time>
      </trkpt>
      <trkpt lat="40.587115986272693" lon="-4.154403973370791">
        <ele>1015.548</ele>
        <time>2021-07-10T07:34:41Z</time>
      </trkpt>
      <trkpt lat="40.587167032063007" lon="-4.154257038608193">
        <ele>1015.588</ele>
        <time>2021-07-10T07:34:43Z</time>
      </trkpt>
      <trkpt lat="40.587197039276361" lon="-4.154171040281653">
        <ele>1015.779</ele>
        <time>2021-07-10T07:34:44Z</time>
      </trkpt>
      <trkpt lat="40.587246995419264" lon="-4.153984040021896">
        <ele>1015.785</ele>
        <time>2021-07-10T07:34:46Z</time>
      </trkpt>
      <trkpt lat="40.587310027331114" lon="-4.153762003406882">
        <ele>1015.357</ele>
        <time>2021-07-10T07:34:48Z</time>
      </trkpt>
      <trkpt lat="40.587354032322764" lon="-4.153638035058975">
        <ele>1015.25</ele>
        <time>2021-07-10T07:34:49Z</time>
      </trkpt>
      <trkpt lat="40.587436007335782" lon="-4.153382973745465">
        <ele>1015.754</ele>
        <time>2021-07-10T07:34:51Z</time>
      </trkpt>
      <trkpt lat="40.587481018155813" lon="-4.15324199013412">
        <ele>1016.513</ele>
        <time>2021-07-10T07:34:52Z</time>
      </trkpt>
      <trkpt lat="40.587526028975844" lon="-4.153094971552491">
        <ele>1017.968</ele>
        <time>2021-07-10T07:34:53Z</time>
      </trkpt>
      <trkpt lat="40.587577996775508" lon="-4.15294099599123">
        <ele>1018.442</ele>
        <time>2021-07-10T07:34:54Z</time>
      </trkpt>
      <trkpt lat="40.587661983445287" lon="-4.152665985748172">
        <ele>1019.026</ele>
        <time>2021-07-10T07:34:56Z</time>
      </trkpt>
      <trkpt lat="40.587699031457305" lon="-4.152528019621968">
        <ele>1020.008</ele>
        <time>2021-07-10T07:34:57Z</time>
      </trkpt>
      <trkpt lat="40.587781006470323" lon="-4.152272958308458">
        <ele>1021.083</ele>
        <time>2021-07-10T07:34:59Z</time>
      </trkpt>
      <trkpt lat="40.58784001506865" lon="-4.152069026604295">
        <ele>1022.263</ele>
        <time>2021-07-10T07:35:01Z</time>
      </trkpt>
      <trkpt lat="40.58786197565496" lon="-4.151985961943865">
        <ele>1023.354</ele>
        <time>2021-07-10T07:35:02Z</time>
      </trkpt>
      <trkpt lat="40.587876979261637" lon="-4.151922008022666">
        <ele>1023.15</ele>
        <time>2021-07-10T07:35:03Z</time>
      </trkpt>
      <trkpt lat="40.587888965383172" lon="-4.151860987767577">
        <ele>1023.982</ele>
        <time>2021-07-10T07:35:04Z</time>
      </trkpt>
      <trkpt lat="40.587898017838597" lon="-4.151740036904812">
        <ele>1024.925</ele>
        <time>2021-07-10T07:35:06Z</time>
      </trkpt>
      <trkpt lat="40.587895000353456" lon="-4.151668958365917">
        <ele>1025.769</ele>
        <time>2021-07-10T07:35:07Z</time>
      </trkpt>
      <trkpt lat="40.587860969826579" lon="-4.151505008339882">
        <ele>1026.6179999999999</ele>
        <time>2021-07-10T07:35:09Z</time>
      </trkpt>
      <trkpt lat="40.587816964834929" lon="-4.151323037222028">
        <ele>1027.3689999999999</ele>
        <time>2021-07-10T07:35:11Z</time>
      </trkpt>
      <trkpt lat="40.587796010077" lon="-4.151217006146908">
        <ele>1027.704</ele>
        <time>2021-07-10T07:35:12Z</time>
      </trkpt>
      <trkpt lat="40.58775301091373" lon="-4.151002010330558">
        <ele>1028.2239999999999</ele>
        <time>2021-07-10T07:35:14Z</time>
      </trkpt>
      <trkpt lat="40.587731972336769" lon="-4.150892961770296">
        <ele>1028.308</ele>
        <time>2021-07-10T07:35:15Z</time>
      </trkpt>
      <trkpt lat="40.58771001175046" lon="-4.150781985372305">
        <ele>1028.643</ele>
        <time>2021-07-10T07:35:16Z</time>
      </trkpt>
      <trkpt lat="40.58766701258719" lon="-4.150565983727574">
        <ele>1029.5530000000001</ele>
        <time>2021-07-10T07:35:18Z</time>
      </trkpt>
      <trkpt lat="40.587652008980513" lon="-4.150463975965977">
        <ele>1030.144</ele>
        <time>2021-07-10T07:35:19Z</time>
      </trkpt>
      <trkpt lat="40.587645974010229" lon="-4.150369009003043">
        <ele>1030.6199999999999</ele>
        <time>2021-07-10T07:35:20Z</time>
      </trkpt>
      <trkpt lat="40.587669024243951" lon="-4.150216039270163">
        <ele>1030.942</ele>
        <time>2021-07-10T07:35:22Z</time>
      </trkpt>
      <trkpt lat="40.587769020348787" lon="-4.150129035115242">
        <ele>1031.2249999999999</ele>
        <time>2021-07-10T07:35:24Z</time>
      </trkpt>
      <trkpt lat="40.587834985926747" lon="-4.150098022073507">
        <ele>1031.789</ele>
        <time>2021-07-10T07:35:25Z</time>
      </trkpt>
      <trkpt lat="40.587974041700363" lon="-4.150063991546631">
        <ele>1032.528</ele>
        <time>2021-07-10T07:35:27Z</time>
      </trkpt>
      <trkpt lat="40.588056016713381" lon="-4.150044964626432">
        <ele>1032.6669999999999</ele>
        <time>2021-07-10T07:35:28Z</time>
      </trkpt>
      <trkpt lat="40.588209992274642" lon="-4.150009006261826">
        <ele>1033.3810000000001</ele>
        <time>2021-07-10T07:35:30Z</time>
      </trkpt>
      <trkpt lat="40.588323986157775" lon="-4.149981010705233">
        <ele>1033.519</ele>
        <time>2021-07-10T07:35:32Z</time>
      </trkpt>
      <trkpt lat="40.588371008634567" lon="-4.149969024583697">
        <ele>1033.308</ele>
        <time>2021-07-10T07:35:33Z</time>
      </trkpt>
      <trkpt lat="40.588468993082643" lon="-4.149935999885202">
        <ele>1033.4829999999999</ele>
        <time>2021-07-10T07:35:35Z</time>
      </trkpt>
      <trkpt lat="40.588520960882306" lon="-4.149912027642131">
        <ele>1033.0329999999999</ele>
        <time>2021-07-10T07:35:36Z</time>
      </trkpt>
      <trkpt lat="40.588568989187479" lon="-4.149894006550312">
        <ele>1033.454</ele>
        <time>2021-07-10T07:35:37Z</time>
      </trkpt>
      <trkpt lat="40.588674014434218" lon="-4.149886965751648">
        <ele>1032.6800000000001</ele>
        <time>2021-07-10T07:35:39Z</time>
      </trkpt>
      <trkpt lat="40.588730005547404" lon="-4.149872967973352">
        <ele>1032.3920000000001</ele>
        <time>2021-07-10T07:35:40Z</time>
      </trkpt>
      <trkpt lat="40.588824972510338" lon="-4.149850001558662">
        <ele>1032.9549999999999</ele>
        <time>2021-07-10T07:35:42Z</time>
      </trkpt>
      <trkpt lat="40.588931003585458" lon="-4.14982502348721">
        <ele>1033.4690000000001</ele>
        <time>2021-07-10T07:35:44Z</time>
      </trkpt>
      <trkpt lat="40.588994035497308" lon="-4.149813037365675">
        <ele>1033.8779999999999</ele>
        <time>2021-07-10T07:35:45Z</time>
      </trkpt>
      <trkpt lat="40.589103000238538" lon="-4.14978101849556">
        <ele>1034.6279999999999</ele>
        <time>2021-07-10T07:35:47Z</time>
      </trkpt>
      <trkpt lat="40.589154968038201" lon="-4.14976199157536">
        <ele>1035.489</ele>
        <time>2021-07-10T07:35:48Z</time>
      </trkpt>
      <trkpt lat="40.58925898745656" lon="-4.149721004068852">
        <ele>1035.617</ele>
        <time>2021-07-10T07:35:50Z</time>
      </trkpt>
      <trkpt lat="40.589306009933352" lon="-4.149702982977033">
        <ele>1035.2080000000001</ele>
        <time>2021-07-10T07:35:51Z</time>
      </trkpt>
      <trkpt lat="40.589397959411144" lon="-4.149678004905582">
        <ele>1035.6790000000001</ele>
        <time>2021-07-10T07:35:53Z</time>
      </trkpt>
      <trkpt lat="40.589511031284928" lon="-4.149661995470524">
        <ele>1036.1489999999999</ele>
        <time>2021-07-10T07:35:55Z</time>
      </trkpt>
      <trkpt lat="40.589569034054875" lon="-4.149650009348989">
        <ele>1036.47</ele>
        <time>2021-07-10T07:35:56Z</time>
      </trkpt>
      <trkpt lat="40.589690990746021" lon="-4.149611033499241">
        <ele>1035.9659999999999</ele>
        <time>2021-07-10T07:35:58Z</time>
      </trkpt>
      <trkpt lat="40.589813031256199" lon="-4.149565016850829">
        <ele>1035.838</ele>
        <time>2021-07-10T07:36:00Z</time>
      </trkpt>
      <trkpt lat="40.58988100849092" lon="-4.149550013244152">
        <ele>1035.8209999999999</ele>
        <time>2021-07-10T07:36:01Z</time>
      </trkpt>
      <trkpt lat="40.589995002374053" lon="-4.149521011859179">
        <ele>1035.0450000000001</ele>
        <time>2021-07-10T07:36:03Z</time>
      </trkpt>
      <trkpt lat="40.590094998478889" lon="-4.149485975503922">
        <ele>1034.914</ele>
        <time>2021-07-10T07:36:05Z</time>
      </trkpt>
      <trkpt lat="40.590151995420456" lon="-4.149470971897245">
        <ele>1034.9939999999999</ele>
        <time>2021-07-10T07:36:06Z</time>
      </trkpt>
      <trkpt lat="40.590254003182054" lon="-4.14943995885551">
        <ele>1034.9570000000001</ele>
        <time>2021-07-10T07:36:08Z</time>
      </trkpt>
      <trkpt lat="40.590304965153337" lon="-4.149429984390736">
        <ele>1034.0219999999999</ele>
        <time>2021-07-10T07:36:09Z</time>
      </trkpt>
      <trkpt lat="40.590361040085554" lon="-4.149426966905594">
        <ele>1034.008</ele>
        <time>2021-07-10T07:36:10Z</time>
      </trkpt>
      <trkpt lat="40.590465981513262" lon="-4.149411041289568">
        <ele>1034.0260000000001</ele>
        <time>2021-07-10T07:36:12Z</time>
      </trkpt>
      <trkpt lat="40.590562038123608" lon="-4.149402994662523">
        <ele>1034.146</ele>
        <time>2021-07-10T07:36:14Z</time>
      </trkpt>
      <trkpt lat="40.59063202701509" lon="-4.149399977177382">
        <ele>1034.857</ele>
        <time>2021-07-10T07:36:16Z</time>
      </trkpt>
      <trkpt lat="40.590674020349979" lon="-4.149366030469537">
        <ele>1035.7829999999999</ele>
        <time>2021-07-10T07:36:18Z</time>
      </trkpt>
      <trkpt lat="40.590681983157992" lon="-4.149301992729306">
        <ele>1036.595</ele>
        <time>2021-07-10T07:36:20Z</time>
      </trkpt>
      <trkpt lat="40.590663040056825" lon="-4.14922202937305">
        <ele>1037.028</ele>
        <time>2021-07-10T07:36:22Z</time>
      </trkpt>
      <trkpt lat="40.5906349606812" lon="-4.149123961105943">
        <ele>1036.742</ele>
        <time>2021-07-10T07:36:24Z</time>
      </trkpt>
      <trkpt lat="40.590621968731284" lon="-4.149063024669886">
        <ele>1036.421</ele>
        <time>2021-07-10T07:36:25Z</time>
      </trkpt>
      <trkpt lat="40.590596990659833" lon="-4.14894400164485">
        <ele>1036.2570000000001</ele>
        <time>2021-07-10T07:36:27Z</time>
      </trkpt>
      <trkpt lat="40.590577041730285" lon="-4.14883503690362">
        <ele>1036.0999999999999</ele>
        <time>2021-07-10T07:36:29Z</time>
      </trkpt>
      <trkpt lat="40.590554997324944" lon="-4.148722970858216">
        <ele>1035.9200000000001</ele>
        <time>2021-07-10T07:36:31Z</time>
      </trkpt>
      <trkpt lat="40.590532030910254" lon="-4.148605037480593">
        <ele>1036.508</ele>
        <time>2021-07-10T07:36:33Z</time>
      </trkpt>
      <trkpt lat="40.590505041182041" lon="-4.148466987535358">
        <ele>1037.0419999999999</ele>
        <time>2021-07-10T07:36:35Z</time>
      </trkpt>
      <trkpt lat="40.590484002605081" lon="-4.148329021409154">
        <ele>1037.0419999999999</ele>
        <time>2021-07-10T07:36:37Z</time>
      </trkpt>
      <trkpt lat="40.590464975684881" lon="-4.148205975070596">
        <ele>1037.0129999999999</ele>
        <time>2021-07-10T07:36:39Z</time>
      </trkpt>
      <trkpt lat="40.590442009270191" lon="-4.148073960095644">
        <ele>1035.7190000000001</ele>
        <time>2021-07-10T07:36:41Z</time>
      </trkpt>
      <trkpt lat="40.590430023148656" lon="-4.148001959547401">
        <ele>1036.3810000000001</ele>
        <time>2021-07-10T07:36:42Z</time>
      </trkpt>
      <trkpt lat="40.590407978743315" lon="-4.147871034219861">
        <ele>1035.444</ele>
        <time>2021-07-10T07:36:44Z</time>
      </trkpt>
      <trkpt lat="40.590399010106921" lon="-4.147765003144741">
        <ele>1035.348</ele>
        <time>2021-07-10T07:36:46Z</time>
      </trkpt>
      <trkpt lat="40.590386018157005" lon="-4.147677998989821">
        <ele>1032.9670000000001</ele>
        <time>2021-07-10T07:36:48Z</time>
      </trkpt>
      <trkpt lat="40.590364979580045" lon="-4.147574985399842">
        <ele>1032.818</ele>
        <time>2021-07-10T07:36:50Z</time>
      </trkpt>
      <trkpt lat="40.590335978195071" lon="-4.14746199734509">
        <ele>1032.098</ele>
        <time>2021-07-10T07:36:52Z</time>
      </trkpt>
      <trkpt lat="40.590309994295239" lon="-4.147354038432241">
        <ele>1032.7170000000001</ele>
        <time>2021-07-10T07:36:54Z</time>
      </trkpt>
      <trkpt lat="40.590289961546659" lon="-4.147239038720727">
        <ele>1033.7080000000001</ele>
        <time>2021-07-10T07:36:56Z</time>
      </trkpt>
      <trkpt lat="40.590274035930634" lon="-4.147132001817226">
        <ele>1034.048</ele>
        <time>2021-07-10T07:36:58Z</time>
      </trkpt>
      <trkpt lat="40.590258026495576" lon="-4.147021025419235">
        <ele>1032.9179999999999</ele>
        <time>2021-07-10T07:37:00Z</time>
      </trkpt>
      <trkpt lat="40.590243022888899" lon="-4.146911976858974">
        <ele>1033.5889999999999</ele>
        <time>2021-07-10T07:37:02Z</time>
      </trkpt>
      <trkpt lat="40.590227013453841" lon="-4.146801000460982">
        <ele>1034.385</ele>
        <time>2021-07-10T07:37:04Z</time>
      </trkpt>
      <trkpt lat="40.590209998190403" lon="-4.146697986871004">
        <ele>1034.3969999999999</ele>
        <time>2021-07-10T07:37:06Z</time>
      </trkpt>
      <trkpt lat="40.590188959613442" lon="-4.14660201407969">
        <ele>1034.8099999999999</ele>
        <time>2021-07-10T07:37:08Z</time>
      </trkpt>
      <trkpt lat="40.590168004855514" lon="-4.146499000489712">
        <ele>1034.5239999999999</ele>
        <time>2021-07-10T07:37:10Z</time>
      </trkpt>
      <trkpt lat="40.590149983763695" lon="-4.146389029920101">
        <ele>1035.1130000000001</ele>
        <time>2021-07-10T07:37:12Z</time>
      </trkpt>
      <trkpt lat="40.59013900347054" lon="-4.146289033815265">
        <ele>1035.037</ele>
        <time>2021-07-10T07:37:14Z</time>
      </trkpt>
      <trkpt lat="40.590117964893579" lon="-4.146170010790229">
        <ele>1034.3489999999999</ele>
        <time>2021-07-10T07:37:16Z</time>
      </trkpt>
      <trkpt lat="40.590092986822128" lon="-4.146035984158516">
        <ele>1033.6130000000001</ele>
        <time>2021-07-10T07:37:18Z</time>
      </trkpt>
      <trkpt lat="40.590083012357354" lon="-4.145968006923795">
        <ele>1033.008</ele>
        <time>2021-07-10T07:37:19Z</time>
      </trkpt>
      <trkpt lat="40.590060967952013" lon="-4.145843032747507">
        <ele>1032.6300000000001</ele>
        <time>2021-07-10T07:37:21Z</time>
      </trkpt>
      <trkpt lat="40.590050993487239" lon="-4.145781006664038">
        <ele>1032.28</ele>
        <time>2021-07-10T07:37:22Z</time>
      </trkpt>
      <trkpt lat="40.590038001537323" lon="-4.145714035257697">
        <ele>1031.8309999999999</ele>
        <time>2021-07-10T07:37:23Z</time>
      </trkpt>
      <trkpt lat="40.590025009587407" lon="-4.145600041374564">
        <ele>1031.1569999999999</ele>
        <time>2021-07-10T07:37:25Z</time>
      </trkpt>
      <trkpt lat="40.590035989880562" lon="-4.145523011684418">
        <ele>1030.6189999999999</ele>
        <time>2021-07-10T07:37:27Z</time>
      </trkpt>
      <trkpt lat="40.590083012357354" lon="-4.145438019186258">
        <ele>1030.3219999999999</ele>
        <time>2021-07-10T07:37:29Z</time>
      </trkpt>
      <trkpt lat="40.590111007913947" lon="-4.145390996709466">
        <ele>1030.116</ele>
        <time>2021-07-10T07:37:30Z</time>
      </trkpt>
      <trkpt lat="40.590173033997416" lon="-4.145284965634346">
        <ele>1029.4649999999999</ele>
        <time>2021-07-10T07:37:32Z</time>
      </trkpt>
      <trkpt lat="40.590252997353673" lon="-4.145187987014651">
        <ele>1029.2349999999999</ele>
        <time>2021-07-10T07:37:34Z</time>
      </trkpt>
      <trkpt lat="40.590346036478877" lon="-4.145102994516492">
        <ele>1029.4860000000001</ele>
        <time>2021-07-10T07:37:36Z</time>
      </trkpt>
      <trkpt lat="40.590433962643147" lon="-4.145019007846713">
        <ele>1030.3140000000001</ele>
        <time>2021-07-10T07:37:38Z</time>
      </trkpt>
      <trkpt lat="40.590476039797068" lon="-4.144979026168585">
        <ele>1030.6079999999999</ele>
        <time>2021-07-10T07:37:39Z</time>
      </trkpt>
      <trkpt lat="40.590572012588382" lon="-4.144894033670425">
        <ele>1030.96</ele>
        <time>2021-07-10T07:37:41Z</time>
      </trkpt>
      <trkpt lat="40.590667985379696" lon="-4.144802000373602">
        <ele>1031.72</ele>
        <time>2021-07-10T07:37:43Z</time>
      </trkpt>
      <trkpt lat="40.590721964836121" lon="-4.144749026745558">
        <ele>1032.181</ele>
        <time>2021-07-10T07:37:44Z</time>
      </trkpt>
      <trkpt lat="40.590841993689537" lon="-4.144641989842057">
        <ele>1032.347</ele>
        <time>2021-07-10T07:37:46Z</time>
      </trkpt>
      <trkpt lat="40.590905025601387" lon="-4.144591027870774">
        <ele>1032.559</ele>
        <time>2021-07-10T07:37:47Z</time>
      </trkpt>
      <trkpt lat="40.590973002836108" lon="-4.14454098790884">
        <ele>1033.212</ele>
        <time>2021-07-10T07:37:48Z</time>
      </trkpt>
      <trkpt lat="40.591109041124582" lon="-4.144440991804004">
        <ele>1033.4659999999999</ele>
        <time>2021-07-10T07:37:50Z</time>
      </trkpt>
      <trkpt lat="40.591181963682175" lon="-4.144383994862437">
        <ele>1034.2550000000001</ele>
        <time>2021-07-10T07:37:51Z</time>
      </trkpt>
      <trkpt lat="40.591315990313888" lon="-4.144257009029388">
        <ele>1034.462</ele>
        <time>2021-07-10T07:37:53Z</time>
      </trkpt>
      <trkpt lat="40.591462003067136" lon="-4.144150977954269">
        <ele>1033.883</ele>
        <time>2021-07-10T07:37:55Z</time>
      </trkpt>
      <trkpt lat="40.59162201359868" lon="-4.14402399212122">
        <ele>1033.4110000000001</ele>
        <time>2021-07-10T07:37:57Z</time>
      </trkpt>
      <trkpt lat="40.591787975281477" lon="-4.143888959661126">
        <ele>1033.4079999999999</ele>
        <time>2021-07-10T07:37:59Z</time>
      </trkpt>
      <trkpt lat="40.59194597415626" lon="-4.143759962171316">
        <ele>1033.423</ele>
        <time>2021-07-10T07:38:01Z</time>
      </trkpt>
      <trkpt lat="40.592033984139562" lon="-4.143686033785343">
        <ele>1033.893</ele>
        <time>2021-07-10T07:38:02Z</time>
      </trkpt>
      <trkpt lat="40.592118976637721" lon="-4.143615961074829">
        <ele>1033.5740000000001</ele>
        <time>2021-07-10T07:38:03Z</time>
      </trkpt>
      <trkpt lat="40.592279992997646" lon="-4.143480006605387">
        <ele>1032.72</ele>
        <time>2021-07-10T07:38:05Z</time>
      </trkpt>
      <trkpt lat="40.592442015185952" lon="-4.143351009115577">
        <ele>1032.732</ele>
        <time>2021-07-10T07:38:07Z</time>
      </trkpt>
      <trkpt lat="40.592598002403975" lon="-4.143217988312244">
        <ele>1033.2249999999999</ele>
        <time>2021-07-10T07:38:09Z</time>
      </trkpt>
      <trkpt lat="40.592731023207307" lon="-4.143088990822434">
        <ele>1033.4290000000001</ele>
        <time>2021-07-10T07:38:11Z</time>
      </trkpt>
      <trkpt lat="40.592884998768568" lon="-4.142968961969018">
        <ele>1032.9580000000001</ele>
        <time>2021-07-10T07:38:13Z</time>
      </trkpt>
      <trkpt lat="40.59297502040863" lon="-4.142911965027452">
        <ele>1032.3520000000001</ele>
        <time>2021-07-10T07:38:14Z</time>
      </trkpt>
      <trkpt lat="40.593151962384582" lon="-4.142790008336306">
        <ele>1031.8530000000001</ele>
        <time>2021-07-10T07:38:16Z</time>
      </trkpt>
      <trkpt lat="40.593342985957861" lon="-4.142650030553341">
        <ele>1031.6079999999999</ele>
        <time>2021-07-10T07:38:18Z</time>
      </trkpt>
      <trkpt lat="40.593507019802928" lon="-4.142517009750009">
        <ele>1031.4079999999999</ele>
        <time>2021-07-10T07:38:20Z</time>
      </trkpt>
      <trkpt lat="40.593632999807596" lon="-4.142404021695256">
        <ele>1031.672</ele>
        <time>2021-07-10T07:38:22Z</time>
      </trkpt>
      <trkpt lat="40.593784963712096" lon="-4.142278041690588">
        <ele>1031.8720000000001</ele>
        <time>2021-07-10T07:38:24Z</time>
      </trkpt>
      <trkpt lat="40.593957966193557" lon="-4.142146026715636">
        <ele>1031.6130000000001</ele>
        <time>2021-07-10T07:38:26Z</time>
      </trkpt>
      <trkpt lat="40.594048993662" lon="-4.142074026167393">
        <ele>1030.9190000000001</ele>
        <time>2021-07-10T07:38:27Z</time>
      </trkpt>
      <trkpt lat="40.594236999750137" lon="-4.141907980665565">
        <ele>1030.191</ele>
        <time>2021-07-10T07:38:29Z</time>
      </trkpt>
      <trkpt lat="40.594326015561819" lon="-4.141822988167405">
        <ele>1028.854</ele>
        <time>2021-07-10T07:38:30Z</time>
      </trkpt>
      <trkpt lat="40.59449901804328" lon="-4.141664989292622">
        <ele>1027.6279999999999</ele>
        <time>2021-07-10T07:38:32Z</time>
      </trkpt>
      <trkpt lat="40.594592979177833" lon="-4.141589971259236">
        <ele>1026.777</ele>
        <time>2021-07-10T07:38:33Z</time>
      </trkpt>
      <trkpt lat="40.594781991094351" lon="-4.141421997919679">
        <ele>1026.0709999999999</ele>
        <time>2021-07-10T07:38:35Z</time>
      </trkpt>
      <trkpt lat="40.594947030767798" lon="-4.141237009316683">
        <ele>1024.941</ele>
        <time>2021-07-10T07:38:37Z</time>
      </trkpt>
      <trkpt lat="40.595092037692666" lon="-4.141024025157094">
        <ele>1022.715</ele>
        <time>2021-07-10T07:38:39Z</time>
      </trkpt>
      <trkpt lat="40.59520997107029" lon="-4.140787990763784">
        <ele>1020.008</ele>
        <time>2021-07-10T07:38:41Z</time>
      </trkpt>
      <trkpt lat="40.595303010195494" lon="-4.140517003834248">
        <ele>1016.874</ele>
        <time>2021-07-10T07:38:43Z</time>
      </trkpt>
      <trkpt lat="40.595347015187144" lon="-4.140391023829579">
        <ele>1014.934</ele>
        <time>2021-07-10T07:38:44Z</time>
      </trkpt>
      <trkpt lat="40.595393031835556" lon="-4.140276024118066">
        <ele>1013.165</ele>
        <time>2021-07-10T07:38:45Z</time>
      </trkpt>
      <trkpt lat="40.59546603821218" lon="-4.140069996938109">
        <ele>1011.221</ele>
        <time>2021-07-10T07:38:47Z</time>
      </trkpt>
      <trkpt lat="40.595494033768773" lon="-4.139989027753472">
        <ele>1009.533</ele>
        <time>2021-07-10T07:38:48Z</time>
      </trkpt>
      <trkpt lat="40.595517000183463" lon="-4.139914009720087">
        <ele>1007.996</ele>
        <time>2021-07-10T07:38:49Z</time>
      </trkpt>
      <trkpt lat="40.595540972426534" lon="-4.139838991686702">
        <ele>1006.75</ele>
        <time>2021-07-10T07:38:50Z</time>
      </trkpt>
      <trkpt lat="40.59559503570199" lon="-4.139685016125441">
        <ele>1005.569</ele>
        <time>2021-07-10T07:38:52Z</time>
      </trkpt>
      <trkpt lat="40.595653038471937" lon="-4.139535985887051">
        <ele>1004.123</ele>
        <time>2021-07-10T07:38:54Z</time>
      </trkpt>
      <trkpt lat="40.59568296186626" lon="-4.139463985338807">
        <ele>1003.383</ele>
        <time>2021-07-10T07:38:55Z</time>
      </trkpt>
      <trkpt lat="40.595735013484955" lon="-4.139345968142152">
        <ele>1002.4109999999999</ele>
        <time>2021-07-10T07:38:57Z</time>
      </trkpt>
      <trkpt lat="40.595758985728025" lon="-4.139272039756179">
        <ele>1001.408</ele>
        <time>2021-07-10T07:38:59Z</time>
      </trkpt>
      <trkpt lat="40.595794022083282" lon="-4.139223005622625">
        <ele>1000.159</ele>
        <time>2021-07-10T07:39:10Z</time>
      </trkpt>
      <trkpt lat="40.595826962962747" lon="-4.139163997024298">
        <ele>999.08900000000006</ele>
        <time>2021-07-10T07:39:11Z</time>
      </trkpt>
      <trkpt lat="40.59589896351099" lon="-4.138997029513121">
        <ele>998.40999999999997</ele>
        <time>2021-07-10T07:39:13Z</time>
      </trkpt>
      <trkpt lat="40.595983033999801" lon="-4.138791002333164">
        <ele>998.23599999999999</ele>
        <time>2021-07-10T07:39:15Z</time>
      </trkpt>
      <trkpt lat="40.596056040376425" lon="-4.13856896571815">
        <ele>998.01800000000003</ele>
        <time>2021-07-10T07:39:17Z</time>
      </trkpt>
      <trkpt lat="40.596134997904301" lon="-4.138328991830349">
        <ele>998.04100000000005</ele>
        <time>2021-07-10T07:39:19Z</time>
      </trkpt>
      <trkpt lat="40.596181014552712" lon="-4.1382020059973">
        <ele>997.61500000000001</ele>
        <time>2021-07-10T07:39:20Z</time>
      </trkpt>
      <trkpt lat="40.596263995394111" lon="-4.137961026281118">
        <ele>997.01400000000001</ele>
        <time>2021-07-10T07:39:22Z</time>
      </trkpt>
      <trkpt lat="40.596349993720651" lon="-4.137717029079795">
        <ele>996.01700000000005</ele>
        <time>2021-07-10T07:39:24Z</time>
      </trkpt>
      <trkpt lat="40.596396010369062" lon="-4.137589959427714">
        <ele>994.78700000000003</ele>
        <time>2021-07-10T07:39:25Z</time>
      </trkpt>
      <trkpt lat="40.596481002867222" lon="-4.137353003025055">
        <ele>993.81500000000005</ele>
        <time>2021-07-10T07:39:27Z</time>
      </trkpt>
      <trkpt lat="40.596524002030492" lon="-4.137228028848767">
        <ele>993.00800000000004</ele>
        <time>2021-07-10T07:39:28Z</time>
      </trkpt>
      <trkpt lat="40.596569012850523" lon="-4.137103976681829">
        <ele>992.57799999999997</ele>
        <time>2021-07-10T07:39:29Z</time>
      </trkpt>
      <trkpt lat="40.596617041155696" lon="-4.136974979192019">
        <ele>992.03800000000001</ele>
        <time>2021-07-10T07:39:30Z</time>
      </trkpt>
      <trkpt lat="40.596700021997094" lon="-4.136747997254133">
        <ele>992.05899999999997</ele>
        <time>2021-07-10T07:39:32Z</time>
      </trkpt>
      <trkpt lat="40.596775040030479" lon="-4.136533001437783">
        <ele>992.38499999999999</ele>
        <time>2021-07-10T07:39:34Z</time>
      </trkpt>
      <trkpt lat="40.596807980909944" lon="-4.136437028646469">
        <ele>992.01700000000005</ele>
        <time>2021-07-10T07:39:35Z</time>
      </trkpt>
      <trkpt lat="40.596843017265201" lon="-4.136343989521265">
        <ele>991.51999999999998</ele>
        <time>2021-07-10T07:39:36Z</time>
      </trkpt>
      <trkpt lat="40.596910994499922" lon="-4.136154977604747">
        <ele>991.75400000000002</ele>
        <time>2021-07-10T07:39:38Z</time>
      </trkpt>
      <trkpt lat="40.596989030018449" lon="-4.135930007323623">
        <ele>991.73299999999995</ele>
        <time>2021-07-10T07:39:40Z</time>
      </trkpt>
      <trkpt lat="40.59703404083848" lon="-4.135802015662193">
        <ele>991.96500000000003</ele>
        <time>2021-07-10T07:39:41Z</time>
      </trkpt>
      <trkpt lat="40.59712297283113" lon="-4.13555902428925">
        <ele>991.96799999999996</ele>
        <time>2021-07-10T07:39:43Z</time>
      </trkpt>
      <trkpt lat="40.597175024449825" lon="-4.135428015142679">
        <ele>992.61400000000003</ele>
        <time>2021-07-10T07:39:44Z</time>
      </trkpt>
      <trkpt lat="40.597270997241139" lon="-4.135173037648201">
        <ele>993.10799999999995</ele>
        <time>2021-07-10T07:39:46Z</time>
      </trkpt>
      <trkpt lat="40.597312990576029" lon="-4.135052002966404">
        <ele>993.36300000000006</ele>
        <time>2021-07-10T07:39:47Z</time>
      </trkpt>
      <trkpt lat="40.597353978082538" lon="-4.13493599742651">
        <ele>993.64300000000003</ele>
        <time>2021-07-10T07:39:48Z</time>
      </trkpt>
      <trkpt lat="40.597424972802401" lon="-4.134726030752063">
        <ele>993.08399999999995</ele>
        <time>2021-07-10T07:39:50Z</time>
      </trkpt>
      <trkpt lat="40.597462020814419" lon="-4.134619999676943">
        <ele>993.12</ele>
        <time>2021-07-10T07:39:51Z</time>
      </trkpt>
      <trkpt lat="40.597537038847804" lon="-4.13442000746727">
        <ele>992.99199999999996</ele>
        <time>2021-07-10T07:39:53Z</time>
      </trkpt>
      <trkpt lat="40.597623037174344" lon="-4.134191013872623">
        <ele>992.93499999999995</ele>
        <time>2021-07-10T07:39:55Z</time>
      </trkpt>
      <trkpt lat="40.597673999145627" lon="-4.134056987240911">
        <ele>992.78899999999999</ele>
        <time>2021-07-10T07:39:56Z</time>
      </trkpt>
      <trkpt lat="40.597768966108561" lon="-4.13379798643291">
        <ele>992.28800000000001</ele>
        <time>2021-07-10T07:39:58Z</time>
      </trkpt>
      <trkpt lat="40.597823029384017" lon="-4.133654991164804">
        <ele>991.71900000000005</ele>
        <time>2021-07-10T07:39:59Z</time>
      </trkpt>
      <trkpt lat="40.597942974418402" lon="-4.133355002850294">
        <ele>991.00900000000001</ele>
        <time>2021-07-10T07:40:01Z</time>
      </trkpt>
      <trkpt lat="40.598061997443438" lon="-4.133070018142462">
        <ele>990.31899999999996</ele>
        <time>2021-07-10T07:40:03Z</time>
      </trkpt>
      <trkpt lat="40.598188983276486" lon="-4.132774975150824">
        <ele>989.50800000000004</ele>
        <time>2021-07-10T07:40:05Z</time>
      </trkpt>
      <trkpt lat="40.598256960511208" lon="-4.132619993761182">
        <ele>988.63800000000003</ele>
        <time>2021-07-10T07:40:06Z</time>
      </trkpt>
      <trkpt lat="40.598379001021385" lon="-4.132345989346504">
        <ele>986.86800000000005</ele>
        <time>2021-07-10T07:40:08Z</time>
      </trkpt>
      <trkpt lat="40.59843398630619" lon="-4.132221015170217">
        <ele>985.399</ele>
        <time>2021-07-10T07:40:09Z</time>
      </trkpt>
      <trkpt lat="40.59851998463273" lon="-4.132024040445685">
        <ele>984.33500000000004</ele>
        <time>2021-07-10T07:40:11Z</time>
      </trkpt>
      <trkpt lat="40.598558960482478" lon="-4.131936030462384">
        <ele>983.24699999999996</ele>
        <time>2021-07-10T07:40:12Z</time>
      </trkpt>
      <trkpt lat="40.598639007657766" lon="-4.131757998839021">
        <ele>982.22000000000003</ele>
        <time>2021-07-10T07:40:14Z</time>
      </trkpt>
      <trkpt lat="40.598694998770952" lon="-4.131534034386277">
        <ele>980.75400000000002</ele>
        <time>2021-07-10T07:40:16Z</time>
      </trkpt>
      <trkpt lat="40.598845034837723" lon="-4.13130302913487">
        <ele>979.27300000000002</ele>
        <time>2021-07-10T07:40:18Z</time>
      </trkpt>
      <trkpt lat="40.598975960165262" lon="-4.131042016670108">
        <ele>977.87199999999996</ele>
        <time>2021-07-10T07:40:20Z</time>
      </trkpt>
      <trkpt lat="40.599041003733873" lon="-4.130916958674789">
        <ele>977.01300000000003</ele>
        <time>2021-07-10T07:40:21Z</time>
      </trkpt>
      <trkpt lat="40.599103029817343" lon="-4.130786033347249">
        <ele>976.21400000000006</ele>
        <time>2021-07-10T07:40:22Z</time>
      </trkpt>
      <trkpt lat="40.59922800399363" lon="-4.13050901144743">
        <ele>975.00800000000004</ele>
        <time>2021-07-10T07:40:24Z</time>
      </trkpt>
      <trkpt lat="40.59929296374321" lon="-4.130367022007704">
        <ele>975.48400000000004</ele>
        <time>2021-07-10T07:40:25Z</time>
      </trkpt>
      <trkpt lat="40.599361024796963" lon="-4.130226038396359">
        <ele>974.82399999999996</ele>
        <time>2021-07-10T07:40:26Z</time>
      </trkpt>
      <trkpt lat="40.599507037550211" lon="-4.1299510281533">
        <ele>973.79499999999996</ele>
        <time>2021-07-10T07:40:28Z</time>
      </trkpt>
      <trkpt lat="40.599654978141189" lon="-4.129677023738623">
        <ele>972.99099999999999</ele>
        <time>2021-07-10T07:40:30Z</time>
      </trkpt>
      <trkpt lat="40.59972396120429" lon="-4.129533022642136">
        <ele>971.75300000000004</ele>
        <time>2021-07-10T07:40:31Z</time>
      </trkpt>
      <trkpt lat="40.599790010601282" lon="-4.129390027374029">
        <ele>970.67600000000004</ele>
        <time>2021-07-10T07:40:32Z</time>
      </trkpt>
      <trkpt lat="40.59984901919961" lon="-4.129245020449162">
        <ele>969.46000000000004</ele>
        <time>2021-07-10T07:40:33Z</time>
      </trkpt>
      <trkpt lat="40.599974999204278" lon="-4.128954000771046">
        <ele>968.65899999999999</ele>
        <time>2021-07-10T07:40:35Z</time>
      </trkpt>
      <trkpt lat="40.600101985037327" lon="-4.128689970821142">
        <ele>967.44500000000005</ele>
        <time>2021-07-10T07:40:37Z</time>
      </trkpt>
      <trkpt lat="40.600207010284066" lon="-4.128456031903625">
        <ele>966.24699999999996</ele>
        <time>2021-07-10T07:40:39Z</time>
      </trkpt>
      <trkpt lat="40.600327961146832" lon="-4.128203988075256">
        <ele>965.31100000000004</ele>
        <time>2021-07-10T07:40:41Z</time>
      </trkpt>
      <trkpt lat="40.600390993058681" lon="-4.128068033605814">
        <ele>963.70799999999997</ele>
        <time>2021-07-10T07:40:42Z</time>
      </trkpt>
      <trkpt lat="40.600513033568859" lon="-4.127763016149402">
        <ele>962.56100000000004</ele>
        <time>2021-07-10T07:40:44Z</time>
      </trkpt>
      <trkpt lat="40.600578999146819" lon="-4.127609040588141">
        <ele>961.19100000000003</ele>
        <time>2021-07-10T07:40:45Z</time>
      </trkpt>
      <trkpt lat="40.600711014121771" lon="-4.127324977889657">
        <ele>959.37199999999996</ele>
        <time>2021-07-10T07:40:47Z</time>
      </trkpt>
      <trkpt lat="40.60079600661993" lon="-4.127057008445263">
        <ele>958.39800000000002</ele>
        <time>2021-07-10T07:40:49Z</time>
      </trkpt>
      <trkpt lat="40.600841017439961" lon="-4.126962041482329">
        <ele>956.76999999999998</ele>
        <time>2021-07-10T07:40:50Z</time>
      </trkpt>
      <trkpt lat="40.600874964147806" lon="-4.126888029277325">
        <ele>955.75300000000004</ele>
        <time>2021-07-10T07:40:51Z</time>
      </trkpt>
      <trkpt lat="40.60092500410974" lon="-4.126754002645612">
        <ele>953.91700000000003</ele>
        <time>2021-07-10T07:40:53Z</time>
      </trkpt>
      <trkpt lat="40.600950988009572" lon="-4.126604972407222">
        <ele>952.81600000000003</ele>
        <time>2021-07-10T07:40:55Z</time>
      </trkpt>
      <trkpt lat="40.600915029644966" lon="-4.126461977139115">
        <ele>951.54100000000005</ele>
        <time>2021-07-10T07:40:57Z</time>
      </trkpt>
      <trkpt lat="40.600876975804567" lon="-4.126396011561155">
        <ele>950.78099999999995</ele>
        <time>2021-07-10T07:40:58Z</time>
      </trkpt>
      <trkpt lat="40.600835988298059" lon="-4.126329962164164">
        <ele>949.60900000000004</ele>
        <time>2021-07-10T07:40:59Z</time>
      </trkpt>
      <trkpt lat="40.600798018276691" lon="-4.126162994652987">
        <ele>948.90800000000002</ele>
        <time>2021-07-10T07:41:01Z</time>
      </trkpt>
      <trkpt lat="40.600810004398227" lon="-4.126058975234628">
        <ele>948.21100000000001</ele>
        <time>2021-07-10T07:41:02Z</time>
      </trkpt>
      <trkpt lat="40.600851997733116" lon="-4.126342032104731">
        <ele>1001.091</ele>
        <time>2021-07-10T07:48:25Z</time>
      </trkpt>
      <trkpt lat="40.600830959156156" lon="-4.126161988824606">
        <ele>954.96199999999999</ele>
        <time>2021-07-10T07:48:27Z</time>
      </trkpt>
      <trkpt lat="40.600843029096723" lon="-4.126069033518434">
        <ele>948.21799999999996</ele>
        <time>2021-07-10T07:48:28Z</time>
      </trkpt>
      <trkpt lat="40.600874964147806" lon="-4.125979011878371">
        <ele>947.61000000000001</ele>
        <time>2021-07-10T07:48:29Z</time>
      </trkpt>
      <trkpt lat="40.60098996385932" lon="-4.125851020216942">
        <ele>947.33299999999997</ele>
        <time>2021-07-10T07:48:31Z</time>
      </trkpt>
      <trkpt lat="40.601064981892705" lon="-4.125820007175207">
        <ele>946.89700000000005</ele>
        <time>2021-07-10T07:48:32Z</time>
      </trkpt>
      <trkpt lat="40.601147962734103" lon="-4.125801986083388">
        <ele>946.31600000000003</ele>
        <time>2021-07-10T07:48:33Z</time>
      </trkpt>
      <trkpt lat="40.601315014064312" lon="-4.125758986920118">
        <ele>946.29200000000003</ele>
        <time>2021-07-10T07:48:35Z</time>
      </trkpt>
      <trkpt lat="40.601458009332418" lon="-4.125610962510109">
        <ele>946.07299999999998</ele>
        <time>2021-07-10T07:48:37Z</time>
      </trkpt>
      <trkpt lat="40.601514000445604" lon="-4.125500991940498">
        <ele>946.12</ele>
        <time>2021-07-10T07:48:38Z</time>
      </trkpt>
      <trkpt lat="40.601580971851945" lon="-4.125377023592591">
        <ele>946.40800000000002</ele>
        <time>2021-07-10T07:48:39Z</time>
      </trkpt>
      <trkpt lat="40.601717010140419" lon="-4.125135038048029">
        <ele>946.21600000000001</ele>
        <time>2021-07-10T07:48:41Z</time>
      </trkpt>
      <trkpt lat="40.601786999031901" lon="-4.124985001981258">
        <ele>946.29600000000005</ele>
        <time>2021-07-10T07:48:42Z</time>
      </trkpt>
      <trkpt lat="40.601911973208189" lon="-4.124651988968253">
        <ele>946.34699999999998</ele>
        <time>2021-07-10T07:48:44Z</time>
      </trkpt>
      <trkpt lat="40.601991014555097" lon="-4.124491978436709">
        <ele>945.96299999999997</ele>
        <time>2021-07-10T07:48:45Z</time>
      </trkpt>
      <trkpt lat="40.602147001773119" lon="-4.124159971252084">
        <ele>945.69500000000005</ele>
        <time>2021-07-10T07:48:47Z</time>
      </trkpt>
      <trkpt lat="40.602221013978124" lon="-4.123983029276133">
        <ele>945.37800000000004</ele>
        <time>2021-07-10T07:48:48Z</time>
      </trkpt>
      <trkpt lat="40.602375995367765" lon="-4.12361497990787">
        <ele>944.89200000000005</ele>
        <time>2021-07-10T07:48:50Z</time>
      </trkpt>
      <trkpt lat="40.602459982037544" lon="-4.123432002961636">
        <ele>944.58100000000002</ele>
        <time>2021-07-10T07:48:51Z</time>
      </trkpt>
      <trkpt lat="40.602543968707323" lon="-4.123242991045117">
        <ele>944.65099999999995</ele>
        <time>2021-07-10T07:48:52Z</time>
      </trkpt>
      <trkpt lat="40.602703979238868" lon="-4.122863039374352">
        <ele>944.50099999999998</ele>
        <time>2021-07-10T07:48:54Z</time>
      </trkpt>
      <trkpt lat="40.602786960080266" lon="-4.122675033286214">
        <ele>944.11099999999999</ele>
        <time>2021-07-10T07:48:55Z</time>
      </trkpt>
      <trkpt lat="40.602964991703629" lon="-4.122288962826133">
        <ele>943.40800000000002</ele>
        <time>2021-07-10T07:48:57Z</time>
      </trkpt>
      <trkpt lat="40.603059958666563" lon="-4.122087964788079">
        <ele>942.68200000000002</ele>
        <time>2021-07-10T07:48:58Z</time>
      </trkpt>
      <trkpt lat="40.603157021105289" lon="-4.121880009770393">
        <ele>942.572</ele>
        <time>2021-07-10T07:48:59Z</time>
      </trkpt>
      <trkpt lat="40.603258023038507" lon="-4.121661996468902">
        <ele>942.51300000000003</ele>
        <time>2021-07-10T07:49:00Z</time>
      </trkpt>
      <trkpt lat="40.60345902107656" lon="-4.121219012886286">
        <ele>942.69899999999996</ele>
        <time>2021-07-10T07:49:02Z</time>
      </trkpt>
      <trkpt lat="40.603557005524635" lon="-4.12099102512002">
        <ele>943.21100000000001</ele>
        <time>2021-07-10T07:49:03Z</time>
      </trkpt>
      <trkpt lat="40.603657001629472" lon="-4.120763959363103">
        <ele>943.86400000000003</ele>
        <time>2021-07-10T07:49:04Z</time>
      </trkpt>
      <trkpt lat="40.603862022981048" lon="-4.120319969952107">
        <ele>944.45799999999997</ele>
        <time>2021-07-10T07:49:06Z</time>
      </trkpt>
      <trkpt lat="40.603962019085884" lon="-4.120103968307376">
        <ele>945.23699999999997</ele>
        <time>2021-07-10T07:49:07Z</time>
      </trkpt>
      <trkpt lat="40.604058997705579" lon="-4.119887966662645">
        <ele>945.86400000000003</ele>
        <time>2021-07-10T07:49:08Z</time>
      </trkpt>
      <trkpt lat="40.604251027107239" lon="-4.11946501582861">
        <ele>946.30600000000004</ele>
        <time>2021-07-10T07:49:10Z</time>
      </trkpt>
      <trkpt lat="40.604429980739951" lon="-4.119060002267361">
        <ele>946.11599999999999</ele>
        <time>2021-07-10T07:49:12Z</time>
      </trkpt>
      <trkpt lat="40.604520002380013" lon="-4.11886302754283">
        <ele>945.90800000000002</ele>
        <time>2021-07-10T07:49:13Z</time>
      </trkpt>
      <trkpt lat="40.604686969891191" lon="-4.118490032851696">
        <ele>945.69299999999998</ele>
        <time>2021-07-10T07:49:15Z</time>
      </trkpt>
      <trkpt lat="40.604761987924576" lon="-4.118317030370235">
        <ele>945.64300000000003</ele>
        <time>2021-07-10T07:49:16Z</time>
      </trkpt>
      <trkpt lat="40.60487799346447" lon="-4.117985023185611">
        <ele>945.56399999999996</ele>
        <time>2021-07-10T07:49:18Z</time>
      </trkpt>
      <trkpt lat="40.604926021769643" lon="-4.117831969633699">
        <ele>945.28999999999996</ele>
        <time>2021-07-10T07:49:19Z</time>
      </trkpt>
      <trkpt lat="40.604996010661125" lon="-4.11755402572453">
        <ele>945.12199999999996</ele>
        <time>2021-07-10T07:49:21Z</time>
      </trkpt>
      <trkpt lat="40.605010008439422" lon="-4.11742796190083">
        <ele>945.27499999999998</ele>
        <time>2021-07-10T07:49:22Z</time>
      </trkpt>
      <trkpt lat="40.60500799678266" lon="-4.117307011038065">
        <ele>945.399</ele>
        <time>2021-07-10T07:49:23Z</time>
      </trkpt>
      <trkpt lat="40.604970026761293" lon="-4.117067959159613">
        <ele>945.02800000000002</ele>
        <time>2021-07-10T07:49:25Z</time>
      </trkpt>
      <trkpt lat="40.605011014267802" lon="-4.116836031898856">
        <ele>944.87400000000002</ele>
        <time>2021-07-10T07:49:27Z</time>
      </trkpt>
      <trkpt lat="40.60507396236062" lon="-4.116737963631749">
        <ele>944.45600000000002</ele>
        <time>2021-07-10T07:49:28Z</time>
      </trkpt>
      <trkpt lat="40.605159038677812" lon="-4.11667400971055">
        <ele>944.42100000000005</ele>
        <time>2021-07-10T07:49:29Z</time>
      </trkpt>
      <trkpt lat="40.605258028954268" lon="-4.11665003746748">
        <ele>944.60799999999995</ele>
        <time>2021-07-10T07:49:30Z</time>
      </trkpt>
      <trkpt lat="40.605352995917201" lon="-4.11665397696197">
        <ele>944.51400000000001</ele>
        <time>2021-07-10T07:49:31Z</time>
      </trkpt>
      <trkpt lat="40.605527004227042" lon="-4.116780962795019">
        <ele>944.63400000000001</ele>
        <time>2021-07-10T07:49:33Z</time>
      </trkpt>
      <trkpt lat="40.605607973411679" lon="-4.116852963343263">
        <ele>944.95500000000004</ele>
        <time>2021-07-10T07:49:34Z</time>
      </trkpt>
      <trkpt lat="40.605807965621352" lon="-4.116885988041759">
        <ele>945.27099999999996</ele>
        <time>2021-07-10T07:49:36Z</time>
      </trkpt>
      <trkpt lat="40.605915002524853" lon="-4.116863021627069">
        <ele>945.78300000000002</ele>
        <time>2021-07-10T07:49:37Z</time>
      </trkpt>
      <trkpt lat="40.606148019433022" lon="-4.116800995543599">
        <ele>945.64599999999996</ele>
        <time>2021-07-10T07:49:39Z</time>
      </trkpt>
      <trkpt lat="40.606428980827332" lon="-4.11671700887382">
        <ele>945.51999999999998</ele>
        <time>2021-07-10T07:49:41Z</time>
      </trkpt>
      <trkpt lat="40.606721006333828" lon="-4.116621958091855">
        <ele>945.49900000000002</ele>
        <time>2021-07-10T07:49:43Z</time>
      </trkpt>
      <trkpt lat="40.607045972719789" lon="-4.116521961987019">
        <ele>945.62400000000002</ele>
        <time>2021-07-10T07:49:45Z</time>
      </trkpt>
      <trkpt lat="40.607218975201249" lon="-4.116464965045452">
        <ele>945.404</ele>
        <time>2021-07-10T07:49:46Z</time>
      </trkpt>
      <trkpt lat="40.607548970729113" lon="-4.116358011960983">
        <ele>945.91399999999999</ele>
        <time>2021-07-10T07:49:48Z</time>
      </trkpt>
      <trkpt lat="40.60788600705564" lon="-4.116251980885863">
        <ele>946.60799999999995</ele>
        <time>2021-07-10T07:49:50Z</time>
      </trkpt>
      <trkpt lat="40.608060015365481" lon="-4.116198001429439">
        <ele>947.12900000000002</ele>
        <time>2021-07-10T07:49:51Z</time>
      </trkpt>
      <trkpt lat="40.608375007286668" lon="-4.116101022809744">
        <ele>948.08900000000006</ele>
        <time>2021-07-10T07:49:53Z</time>
      </trkpt>
      <trkpt lat="40.608542980626225" lon="-4.116046959534288">
        <ele>948.63999999999999</ele>
        <time>2021-07-10T07:49:54Z</time>
      </trkpt>
      <trkpt lat="40.608878005295992" lon="-4.115932965651155">
        <ele>949.476</ele>
        <time>2021-07-10T07:49:56Z</time>
      </trkpt>
      <trkpt lat="40.609054025262594" lon="-4.115877980366349">
        <ele>950.07799999999997</ele>
        <time>2021-07-10T07:49:57Z</time>
      </trkpt>
      <trkpt lat="40.609393995255232" lon="-4.115764992311597">
        <ele>950.34100000000001</ele>
        <time>2021-07-10T07:49:59Z</time>
      </trkpt>
      <trkpt lat="40.609571021050215" lon="-4.115704977884889">
        <ele>950.05499999999995</ele>
        <time>2021-07-10T07:50:00Z</time>
      </trkpt>
      <trkpt lat="40.609928006306291" lon="-4.115587966516614">
        <ele>950.23400000000004</ele>
        <time>2021-07-10T07:50:02Z</time>
      </trkpt>
      <trkpt lat="40.610106959939003" lon="-4.115529963746667">
        <ele>950.12599999999998</ele>
        <time>2021-07-10T07:50:03Z</time>
      </trkpt>
      <trkpt lat="40.610465034842491" lon="-4.115411024540663">
        <ele>949.54700000000003</ele>
        <time>2021-07-10T07:50:05Z</time>
      </trkpt>
      <trkpt lat="40.610651029273868" lon="-4.115350004285574">
        <ele>948.91099999999994</ele>
        <time>2021-07-10T07:50:06Z</time>
      </trkpt>
      <trkpt lat="40.611023018136621" lon="-4.115227041766048">
        <ele>948.30799999999999</ele>
        <time>2021-07-10T07:50:08Z</time>
      </trkpt>
      <trkpt lat="40.611208006739616" lon="-4.11517096683383">
        <ele>947.99900000000002</ele>
        <time>2021-07-10T07:50:09Z</time>
      </trkpt>
      <trkpt lat="40.611571026965976" lon="-4.115052027627826">
        <ele>947.57899999999995</ele>
        <time>2021-07-10T07:50:11Z</time>
      </trkpt>
      <trkpt lat="40.61192499473691" lon="-4.114938033744693">
        <ele>946.51999999999998</ele>
        <time>2021-07-10T07:50:13Z</time>
      </trkpt>
      <trkpt lat="40.612101014703512" lon="-4.114885982125998">
        <ele>945.66600000000005</ele>
        <time>2021-07-10T07:50:14Z</time>
      </trkpt>
      <trkpt lat="40.612277034670115" lon="-4.114832002669573">
        <ele>945.01800000000003</ele>
        <time>2021-07-10T07:50:15Z</time>
      </trkpt>
      <trkpt lat="40.612452970817685" lon="-4.114775005728006">
        <ele>944.68100000000004</ele>
        <time>2021-07-10T07:50:16Z</time>
      </trkpt>
      <trkpt lat="40.612799981608987" lon="-4.114661011844873">
        <ele>943.91499999999996</ele>
        <time>2021-07-10T07:50:18Z</time>
      </trkpt>
      <trkpt lat="40.612971978262067" lon="-4.114603009074926">
        <ele>943.274</ele>
        <time>2021-07-10T07:50:19Z</time>
      </trkpt>
      <trkpt lat="40.61332100071013" lon="-4.114495972171426">
        <ele>942.29700000000003</ele>
        <time>2021-07-10T07:50:21Z</time>
      </trkpt>
      <trkpt lat="40.613508000969887" lon="-4.114461019635201">
        <ele>941.62300000000005</ele>
        <time>2021-07-10T07:50:22Z</time>
      </trkpt>
      <trkpt lat="40.613865992054343" lon="-4.114411985501647">
        <ele>942.02499999999998</ele>
        <time>2021-07-10T07:50:24Z</time>
      </trkpt>
      <trkpt lat="40.614239992573857" lon="-4.114376027137041">
        <ele>942.50800000000004</ele>
        <time>2021-07-10T07:50:26Z</time>
      </trkpt>
      <trkpt lat="40.61443897895515" lon="-4.114363035187125">
        <ele>942.77599999999995</ele>
        <time>2021-07-10T07:50:27Z</time>
      </trkpt>
      <trkpt lat="40.614797975867987" lon="-4.114344008266926">
        <ele>943.07600000000002</ele>
        <time>2021-07-10T07:50:29Z</time>
      </trkpt>
      <trkpt lat="40.614987993612885" lon="-4.114335961639881">
        <ele>943.29700000000003</ele>
        <time>2021-07-10T07:50:30Z</time>
      </trkpt>
      <trkpt lat="40.615366017445922" lon="-4.114312995225191">
        <ele>943.79300000000001</ele>
        <time>2021-07-10T07:50:32Z</time>
      </trkpt>
      <trkpt lat="40.61555796302855" lon="-4.114302014932036">
        <ele>943.98500000000001</ele>
        <time>2021-07-10T07:50:33Z</time>
      </trkpt>
      <trkpt lat="40.615897011011839" lon="-4.114283993840218">
        <ele>943.928</ele>
        <time>2021-07-10T07:50:35Z</time>
      </trkpt>
      <trkpt lat="40.616241004317999" lon="-4.114259015768766">
        <ele>944.44200000000001</ele>
        <time>2021-07-10T07:50:37Z</time>
      </trkpt>
      <trkpt lat="40.616417024284601" lon="-4.11424501799047">
        <ele>944.62099999999998</ele>
        <time>2021-07-10T07:50:38Z</time>
      </trkpt>
      <trkpt lat="40.616765962913632" lon="-4.114208975806832">
        <ele>945.01499999999999</ele>
        <time>2021-07-10T07:50:40Z</time>
      </trkpt>
      <trkpt lat="40.61712596565485" lon="-4.114168994128704">
        <ele>945.86500000000001</ele>
        <time>2021-07-10T07:50:42Z</time>
      </trkpt>
      <trkpt lat="40.617473982274532" lon="-4.114139992743731">
        <ele>946.51099999999997</ele>
        <time>2021-07-10T07:50:44Z</time>
      </trkpt>
      <trkpt lat="40.61781202442944" lon="-4.114103028550744">
        <ele>947.70799999999997</ele>
        <time>2021-07-10T07:50:46Z</time>
      </trkpt>
      <trkpt lat="40.617975974455476" lon="-4.114077966660261">
        <ele>948.63800000000003</ele>
        <time>2021-07-10T07:50:47Z</time>
      </trkpt>
      <trkpt lat="40.618144031614065" lon="-4.114036979153752">
        <ele>949.678</ele>
        <time>2021-07-10T07:50:48Z</time>
      </trkpt>
      <trkpt lat="40.618451982736588" lon="-4.113930026069284">
        <ele>950.51900000000001</ele>
        <time>2021-07-10T07:50:50Z</time>
      </trkpt>
      <trkpt lat="40.61878097243607" lon="-4.113798011094332">
        <ele>951.58500000000004</ele>
        <time>2021-07-10T07:50:52Z</time>
      </trkpt>
      <trkpt lat="40.618955986574292" lon="-4.113726010546088">
        <ele>951.89700000000005</ele>
        <time>2021-07-10T07:50:53Z</time>
      </trkpt>
      <trkpt lat="40.619296040385962" lon="-4.113575974479318">
        <ele>951.64999999999998</ele>
        <time>2021-07-10T07:50:55Z</time>
      </trkpt>
      <trkpt lat="40.619477005675435" lon="-4.113496011123061">
        <ele>951.55399999999997</ele>
        <time>2021-07-10T07:50:56Z</time>
      </trkpt>
      <trkpt lat="40.619664005935192" lon="-4.113414036110044">
        <ele>951.23299999999995</ele>
        <time>2021-07-10T07:50:57Z</time>
      </trkpt>
      <trkpt lat="40.619863998144865" lon="-4.113325020298362">
        <ele>950.61900000000003</ele>
        <time>2021-07-10T07:50:58Z</time>
      </trkpt>
      <trkpt lat="40.620254008099437" lon="-4.113156041130424">
        <ele>949.50900000000001</ele>
        <time>2021-07-10T07:51:00Z</time>
      </trkpt>
      <trkpt lat="40.620679976418614" lon="-4.112975997850299">
        <ele>947.91899999999998</ele>
        <time>2021-07-10T07:51:02Z</time>
      </trkpt>
      <trkpt lat="40.620906036347151" lon="-4.112882036715746">
        <ele>946.70799999999997</ele>
        <time>2021-07-10T07:51:03Z</time>
      </trkpt>
      <trkpt lat="40.621125977486372" lon="-4.1127859801054">
        <ele>945.89800000000002</ele>
        <time>2021-07-10T07:51:04Z</time>
      </trkpt>
      <trkpt lat="40.621558986604214" lon="-4.112595962360501">
        <ele>945.72799999999995</ele>
        <time>2021-07-10T07:51:06Z</time>
      </trkpt>
      <trkpt lat="40.62178404070437" lon="-4.112502001225948">
        <ele>945.31899999999996</ele>
        <time>2021-07-10T07:51:07Z</time>
      </trkpt>
      <trkpt lat="40.622009010985494" lon="-4.112407034263015">
        <ele>944.78499999999997</ele>
        <time>2021-07-10T07:51:08Z</time>
      </trkpt>
      <trkpt lat="40.622232975438237" lon="-4.112309971824288">
        <ele>944.46699999999998</ele>
        <time>2021-07-10T07:51:09Z</time>
      </trkpt>
      <trkpt lat="40.622684005647898" lon="-4.11211702041328">
        <ele>944.27999999999997</ele>
        <time>2021-07-10T07:51:11Z</time>
      </trkpt>
      <trkpt lat="40.622914005070925" lon="-4.112020041793585">
        <ele>944.21400000000006</ele>
        <time>2021-07-10T07:51:12Z</time>
      </trkpt>
      <trkpt lat="40.623152973130345" lon="-4.111920967698097">
        <ele>944.45299999999997</ele>
        <time>2021-07-10T07:51:13Z</time>
      </trkpt>
      <trkpt lat="40.623375009745359" lon="-4.111826000735164">
        <ele>944.19299999999998</ele>
        <time>2021-07-10T07:51:14Z</time>
      </trkpt>
      <trkpt lat="40.623811036348343" lon="-4.111640006303787">
        <ele>943.86500000000001</ele>
        <time>2021-07-10T07:51:16Z</time>
      </trkpt>
      <trkpt lat="40.624035000801086" lon="-4.111545961350203">
        <ele>943.52099999999996</ele>
        <time>2021-07-10T07:51:17Z</time>
      </trkpt>
      <trkpt lat="40.624267011880875" lon="-4.111449988558888">
        <ele>943.40800000000002</ele>
        <time>2021-07-10T07:51:18Z</time>
      </trkpt>
      <trkpt lat="40.624698009341955" lon="-4.111266005784273">
        <ele>943.87599999999998</ele>
        <time>2021-07-10T07:51:20Z</time>
      </trkpt>
      <trkpt lat="40.624920967966318" lon="-4.111172966659069">
        <ele>944.12599999999998</ele>
        <time>2021-07-10T07:51:21Z</time>
      </trkpt>
      <trkpt lat="40.625364035367966" lon="-4.110986972227693">
        <ele>944.89700000000005</ele>
        <time>2021-07-10T07:51:23Z</time>
      </trkpt>
      <trkpt lat="40.625796038657427" lon="-4.110801983624697">
        <ele>945.53300000000002</ele>
        <time>2021-07-10T07:51:25Z</time>
      </trkpt>
      <trkpt lat="40.626231981441379" lon="-4.11061598919332">
        <ele>946.59500000000003</ele>
        <time>2021-07-10T07:51:27Z</time>
      </trkpt>
      <trkpt lat="40.62644999474287" lon="-4.110524039715529">
        <ele>947.19799999999998</ele>
        <time>2021-07-10T07:51:28Z</time>
      </trkpt>
      <trkpt lat="40.626673037186265" lon="-4.110426977276802">
        <ele>948.04200000000003</ele>
        <time>2021-07-10T07:51:29Z</time>
      </trkpt>
      <trkpt lat="40.62709498219192" lon="-4.110247017815709">
        <ele>949.14099999999996</ele>
        <time>2021-07-10T07:51:31Z</time>
      </trkpt>
      <trkpt lat="40.627536959946156" lon="-4.110062029212713">
        <ele>949.76099999999997</ele>
        <time>2021-07-10T07:51:33Z</time>
      </trkpt>
      <trkpt lat="40.627770982682705" lon="-4.109963038936257">
        <ele>950.52099999999996</ele>
        <time>2021-07-10T07:51:34Z</time>
      </trkpt>
      <trkpt lat="40.628212038427591" lon="-4.109773021191359">
        <ele>950.81299999999999</ele>
        <time>2021-07-10T07:51:36Z</time>
      </trkpt>
      <trkpt lat="40.628670025616884" lon="-4.109573028981686">
        <ele>950.80799999999999</ele>
        <time>2021-07-10T07:51:38Z</time>
      </trkpt>
      <trkpt lat="40.628911005333066" lon="-4.109469009563327">
        <ele>950.82299999999998</ele>
        <time>2021-07-10T07:51:39Z</time>
      </trkpt>
      <trkpt lat="40.629347031936049" lon="-4.10928200930357">
        <ele>950.62300000000005</ele>
        <time>2021-07-10T07:51:41Z</time>
      </trkpt>
      <trkpt lat="40.629786998033524" lon="-4.109096014872193">
        <ele>949.79399999999998</ele>
        <time>2021-07-10T07:51:43Z</time>
      </trkpt>
      <trkpt lat="40.630018003284931" lon="-4.108999958261848">
        <ele>949.15999999999997</ele>
        <time>2021-07-10T07:51:44Z</time>
      </trkpt>
      <trkpt lat="40.63044598326087" lon="-4.108822010457516">
        <ele>949.08199999999999</ele>
        <time>2021-07-10T07:51:46Z</time>
      </trkpt>
      <trkpt lat="40.630669025704265" lon="-4.108729977160692">
        <ele>949.03499999999997</ele>
        <time>2021-07-10T07:51:47Z</time>
      </trkpt>
      <trkpt lat="40.631118966266513" lon="-4.108542976900935">
        <ele>949.05899999999997</ele>
        <time>2021-07-10T07:51:49Z</time>
      </trkpt>
      <trkpt lat="40.631336979568005" lon="-4.108452033251524">
        <ele>948.78800000000001</ele>
        <time>2021-07-10T07:51:50Z</time>
      </trkpt>
      <trkpt lat="40.631775017827749" lon="-4.108261009678245">
        <ele>948.52200000000005</ele>
        <time>2021-07-10T07:51:52Z</time>
      </trkpt>
      <trkpt lat="40.632235016673803" lon="-4.108065040782094">
        <ele>948.86199999999997</ele>
        <time>2021-07-10T07:51:54Z</time>
      </trkpt>
      <trkpt lat="40.632667019963264" lon="-4.107878962531686">
        <ele>948.80799999999999</ele>
        <time>2021-07-10T07:51:56Z</time>
      </trkpt>
      <trkpt lat="40.633104974403977" lon="-4.107697997242212">
        <ele>948.80799999999999</ele>
        <time>2021-07-10T07:51:58Z</time>
      </trkpt>
      <trkpt lat="40.633331034332514" lon="-4.107602024450898">
        <ele>949.029</ele>
        <time>2021-07-10T07:51:59Z</time>
      </trkpt>
      <trkpt lat="40.63373495824635" lon="-4.107420975342393">
        <ele>949.529</ele>
        <time>2021-07-10T07:52:01Z</time>
      </trkpt>
      <trkpt lat="40.633945008739829" lon="-4.107330031692982">
        <ele>950.28999999999996</ele>
        <time>2021-07-10T07:52:02Z</time>
      </trkpt>
      <trkpt lat="40.634154975414276" lon="-4.107245039194822">
        <ele>951.05600000000004</ele>
        <time>2021-07-10T07:52:03Z</time>
      </trkpt>
      <trkpt lat="40.634368965402246" lon="-4.10715501755476">
        <ele>951.98800000000006</ele>
        <time>2021-07-10T07:52:04Z</time>
      </trkpt>
      <trkpt lat="40.634573986753821" lon="-4.10706901922822">
        <ele>952.59100000000001</ele>
        <time>2021-07-10T07:52:05Z</time>
      </trkpt>
      <trkpt lat="40.634981011971831" lon="-4.106894005089998">
        <ele>953.68499999999995</ele>
        <time>2021-07-10T07:52:07Z</time>
      </trkpt>
      <trkpt lat="40.635196007788181" lon="-4.106800965964794">
        <ele>954.39400000000001</ele>
        <time>2021-07-10T07:52:08Z</time>
      </trkpt>
      <trkpt lat="40.635633040219545" lon="-4.106613965705037">
        <ele>955.33799999999997</ele>
        <time>2021-07-10T07:52:10Z</time>
      </trkpt>
      <trkpt lat="40.635852981358767" lon="-4.106523022055626">
        <ele>956.07000000000005</ele>
        <time>2021-07-10T07:52:11Z</time>
      </trkpt>
      <trkpt lat="40.636292025446892" lon="-4.106331998482347">
        <ele>957.21699999999998</ele>
        <time>2021-07-10T07:52:13Z</time>
      </trkpt>
      <trkpt lat="40.636515989899635" lon="-4.106236025691032">
        <ele>957.80799999999999</ele>
        <time>2021-07-10T07:52:14Z</time>
      </trkpt>
      <trkpt lat="40.636746995151043" lon="-4.106140974909067">
        <ele>957.66999999999996</ele>
        <time>2021-07-10T07:52:15Z</time>
      </trkpt>
      <trkpt lat="40.637200959026814" lon="-4.1059510409832">
        <ele>956.99000000000001</ele>
        <time>2021-07-10T07:52:17Z</time>
      </trkpt>
      <trkpt lat="40.637437999248505" lon="-4.105854984372854">
        <ele>956.25099999999998</ele>
        <time>2021-07-10T07:52:18Z</time>
      </trkpt>
      <trkpt lat="40.637677973136306" lon="-4.105752976611257">
        <ele>955.78700000000003</ele>
        <time>2021-07-10T07:52:19Z</time>
      </trkpt>
      <trkpt lat="40.637919958680868" lon="-4.10564904101193">
        <ele>955.88900000000001</ele>
        <time>2021-07-10T07:52:20Z</time>
      </trkpt>
      <trkpt lat="40.638162028044462" lon="-4.105548039078713">
        <ele>956.39200000000005</ele>
        <time>2021-07-10T07:52:21Z</time>
      </trkpt>
      <trkpt lat="40.638634013012052" lon="-4.105344023555517">
        <ele>956.64599999999996</ele>
        <time>2021-07-10T07:52:23Z</time>
      </trkpt>
      <trkpt lat="40.638873986899853" lon="-4.105241009965539">
        <ele>957.02499999999998</ele>
        <time>2021-07-10T07:52:24Z</time>
      </trkpt>
      <trkpt lat="40.639127036556602" lon="-4.105137996375561">
        <ele>957.45600000000002</ele>
        <time>2021-07-10T07:52:25Z</time>
      </trkpt>
      <trkpt lat="40.639588963240385" lon="-4.104936998337507">
        <ele>958.15899999999999</ele>
        <time>2021-07-10T07:52:27Z</time>
      </trkpt>
      <trkpt lat="40.639828015118837" lon="-4.104832978919148">
        <ele>958.81399999999996</ele>
        <time>2021-07-10T07:52:28Z</time>
      </trkpt>
      <trkpt lat="40.640065977349877" lon="-4.104731976985931">
        <ele>959.50800000000004</ele>
        <time>2021-07-10T07:52:29Z</time>
      </trkpt>
      <trkpt lat="40.640313997864723" lon="-4.104625023901463">
        <ele>960.37199999999996</ele>
        <time>2021-07-10T07:52:30Z</time>
      </trkpt>
      <trkpt lat="40.640771985054016" lon="-4.104429977014661">
        <ele>960.97199999999998</ele>
        <time>2021-07-10T07:52:32Z</time>
      </trkpt>
      <trkpt lat="40.641237013041973" lon="-4.10423300229013">
        <ele>961.64300000000003</ele>
        <time>2021-07-10T07:52:34Z</time>
      </trkpt>
      <trkpt lat="40.641475981101394" lon="-4.104135017842054">
        <ele>962.16899999999998</ele>
        <time>2021-07-10T07:52:35Z</time>
      </trkpt>
      <trkpt lat="40.641906978562474" lon="-4.10395497456193">
        <ele>962.95100000000002</ele>
        <time>2021-07-10T07:52:37Z</time>
      </trkpt>
      <trkpt lat="40.642125997692347" lon="-4.103855984285474">
        <ele>963.59400000000005</ele>
        <time>2021-07-10T07:52:38Z</time>
      </trkpt>
      <trkpt lat="40.642556995153427" lon="-4.103665966540575">
        <ele>964.26800000000003</ele>
        <time>2021-07-10T07:52:40Z</time>
      </trkpt>
      <trkpt lat="40.642766039818525" lon="-4.103578040376306">
        <ele>964.73699999999997</ele>
        <time>2021-07-10T07:52:41Z</time>
      </trkpt>
      <trkpt lat="40.643182033672929" lon="-4.103414006531239">
        <ele>965.61900000000003</ele>
        <time>2021-07-10T07:52:43Z</time>
      </trkpt>
      <trkpt lat="40.643393006175756" lon="-4.103354997932911">
        <ele>966.40899999999999</ele>
        <time>2021-07-10T07:52:44Z</time>
      </trkpt>
      <trkpt lat="40.643606996163726" lon="-4.103305963799357">
        <ele>967.21900000000005</ele>
        <time>2021-07-10T07:52:45Z</time>
      </trkpt>
      <trkpt lat="40.64383196644485" lon="-4.103265982121229">
        <ele>968.10799999999995</ele>
        <time>2021-07-10T07:52:46Z</time>
      </trkpt>
      <trkpt lat="40.64425902441144" lon="-4.103188030421734">
        <ele>968.88800000000003</ele>
        <time>2021-07-10T07:52:48Z</time>
      </trkpt>
      <trkpt lat="40.644481983035803" lon="-4.103146959096193">
        <ele>969.57799999999997</ele>
        <time>2021-07-10T07:52:49Z</time>
      </trkpt>
      <trkpt lat="40.644937958568335" lon="-4.103068001568317">
        <ele>970.09900000000005</ele>
        <time>2021-07-10T07:52:51Z</time>
      </trkpt>
      <trkpt lat="40.645350012928247" lon="-4.102991977706552">
        <ele>970.54499999999996</ele>
        <time>2021-07-10T07:52:53Z</time>
      </trkpt>
      <trkpt lat="40.64576500095427" lon="-4.102936992421746">
        <ele>971.447</ele>
        <time>2021-07-10T07:52:55Z</time>
      </trkpt>
      <trkpt lat="40.645969016477466" lon="-4.102935986593366">
        <ele>971.92999999999995</ele>
        <time>2021-07-10T07:52:56Z</time>
      </trkpt>
      <trkpt lat="40.646170014515519" lon="-4.102953001856804">
        <ele>972.49400000000003</ele>
        <time>2021-07-10T07:52:57Z</time>
      </trkpt>
      <trkpt lat="40.646369000896811" lon="-4.102980997413397">
        <ele>973.06299999999999</ele>
        <time>2021-07-10T07:52:58Z</time>
      </trkpt>
      <trkpt lat="40.646762028336525" lon="-4.103055009618402">
        <ele>973.43799999999999</ele>
        <time>2021-07-10T07:53:00Z</time>
      </trkpt>
      <trkpt lat="40.647151032462716" lon="-4.103119969367981">
        <ele>973.76999999999998</ele>
        <time>2021-07-10T07:53:02Z</time>
      </trkpt>
      <trkpt lat="40.647338032722473" lon="-4.103146959096193">
        <ele>973.41700000000003</ele>
        <time>2021-07-10T07:53:03Z</time>
      </trkpt>
      <trkpt lat="40.64769702963531" lon="-4.103192975744605">
        <ele>973.60799999999995</ele>
        <time>2021-07-10T07:53:05Z</time>
      </trkpt>
      <trkpt lat="40.647871037945151" lon="-4.103199010714889">
        <ele>973.72000000000003</ele>
        <time>2021-07-10T07:53:06Z</time>
      </trkpt>
      <trkpt lat="40.648215031251311" lon="-4.10315902903676">
        <ele>974.24000000000001</ele>
        <time>2021-07-10T07:53:08Z</time>
      </trkpt>
      <trkpt lat="40.64838401041925" lon="-4.103100020438433">
        <ele>974.54100000000005</ele>
        <time>2021-07-10T07:53:09Z</time>
      </trkpt>
      <trkpt lat="40.648705037310719" lon="-4.102904973551631">
        <ele>975.17700000000002</ele>
        <time>2021-07-10T07:53:11Z</time>
      </trkpt>
      <trkpt lat="40.648852977901697" lon="-4.102776981890202">
        <ele>974.97900000000004</ele>
        <time>2021-07-10T07:53:12Z</time>
      </trkpt>
      <trkpt lat="40.648985998705029" lon="-4.102626023814082">
        <ele>975.22199999999998</ele>
        <time>2021-07-10T07:53:13Z</time>
      </trkpt>
      <trkpt lat="40.649232007563114" lon="-4.10227901302278">
        <ele>975.76599999999996</ele>
        <time>2021-07-10T07:53:15Z</time>
      </trkpt>
      <trkpt lat="40.649496037513018" lon="-4.10197801887989">
        <ele>976.625</ele>
        <time>2021-07-10T07:53:17Z</time>
      </trkpt>
      <trkpt lat="40.649783033877611" lon="-4.101716000586748">
        <ele>978.09699999999998</ele>
        <time>2021-07-10T07:53:19Z</time>
      </trkpt>
      <trkpt lat="40.649929968640208" lon="-4.101584991440177">
        <ele>979.02300000000002</ele>
        <time>2021-07-10T07:53:20Z</time>
      </trkpt>
      <trkpt lat="40.650075981393456" lon="-4.101455993950367">
        <ele>979.82500000000005</ele>
        <time>2021-07-10T07:53:21Z</time>
      </trkpt>
      <trkpt lat="40.650359038263559" lon="-4.101207973435521">
        <ele>980.60799999999995</ele>
        <time>2021-07-10T07:53:23Z</time>
      </trkpt>
      <trkpt lat="40.650502033531666" lon="-4.101077970117331">
        <ele>980.94600000000003</ele>
        <time>2021-07-10T07:53:24Z</time>
      </trkpt>
      <trkpt lat="40.650776037946343" lon="-4.100842019543052">
        <ele>980.99599999999998</ele>
        <time>2021-07-10T07:53:26Z</time>
      </trkpt>
      <trkpt lat="40.651075020432472" lon="-4.100615959614515">
        <ele>980.61699999999996</ele>
        <time>2021-07-10T07:53:28Z</time>
      </trkpt>
      <trkpt lat="40.65139596350491" lon="-4.100420996546745">
        <ele>979.95299999999997</ele>
        <time>2021-07-10T07:53:30Z</time>
      </trkpt>
      <trkpt lat="40.651719002053142" lon="-4.100184040144086">
        <ele>978.91499999999996</ele>
        <time>2021-07-10T07:53:32Z</time>
      </trkpt>
      <trkpt lat="40.651875995099545" lon="-4.100048001855612">
        <ele>977.84799999999996</ele>
        <time>2021-07-10T07:53:33Z</time>
      </trkpt>
      <trkpt lat="40.652190987020731" lon="-4.099754970520735">
        <ele>976.42200000000003</ele>
        <time>2021-07-10T07:53:35Z</time>
      </trkpt>
      <trkpt lat="40.652352003380656" lon="-4.099605018272996">
        <ele>975.13099999999997</ele>
        <time>2021-07-10T07:53:36Z</time>
      </trkpt>
      <trkpt lat="40.652515031397343" lon="-4.099452970549464">
        <ele>973.971</ele>
        <time>2021-07-10T07:53:37Z</time>
      </trkpt>
      <trkpt lat="40.652680993080139" lon="-4.099303018301725">
        <ele>972.24099999999999</ele>
        <time>2021-07-10T07:53:38Z</time>
      </trkpt>
      <trkpt lat="40.653020041063428" lon="-4.099003029987216">
        <ele>970.01499999999999</ele>
        <time>2021-07-10T07:53:40Z</time>
      </trkpt>
      <trkpt lat="40.653194971382618" lon="-4.098846036940813">
        <ele>968.70799999999997</ele>
        <time>2021-07-10T07:53:41Z</time>
      </trkpt>
      <trkpt lat="40.653538964688778" lon="-4.098534984514117">
        <ele>967.14400000000001</ele>
        <time>2021-07-10T07:53:43Z</time>
      </trkpt>
      <trkpt lat="40.653710039332509" lon="-4.098377991467714">
        <ele>965.92399999999998</ele>
        <time>2021-07-10T07:53:44Z</time>
      </trkpt>
      <trkpt lat="40.653889998793602" lon="-4.098215969279409">
        <ele>964.77499999999998</ele>
        <time>2021-07-10T07:53:45Z</time>
      </trkpt>
      <trkpt lat="40.654234997928143" lon="-4.097907012328506">
        <ele>963.74099999999999</ele>
        <time>2021-07-10T07:53:47Z</time>
      </trkpt>
      <trkpt lat="40.654576979577541" lon="-4.09759696573019">
        <ele>962.46299999999997</ele>
        <time>2021-07-10T07:53:49Z</time>
      </trkpt>
      <trkpt lat="40.654742019250989" lon="-4.097448019310832">
        <ele>961.71600000000001</ele>
        <time>2021-07-10T07:53:50Z</time>
      </trkpt>
      <trkpt lat="40.65504795871675" lon="-4.097168985754252">
        <ele>961.46000000000004</ele>
        <time>2021-07-10T07:53:52Z</time>
      </trkpt>
      <trkpt lat="40.655192965641618" lon="-4.097035964950919">
        <ele>961.029</ele>
        <time>2021-07-10T07:53:53Z</time>
      </trkpt>
      <trkpt lat="40.65545498393476" lon="-4.096795991063118">
        <ele>960.98400000000004</ele>
        <time>2021-07-10T07:53:55Z</time>
      </trkpt>
      <trkpt lat="40.655569983646274" lon="-4.096689037978649">
        <ele>961.00699999999995</ele>
        <time>2021-07-10T07:53:56Z</time>
      </trkpt>
      <trkpt lat="40.655666040256619" lon="-4.096583006903529">
        <ele>961.21699999999998</ele>
        <time>2021-07-10T07:53:57Z</time>
      </trkpt>
      <trkpt lat="40.65577601082623" lon="-4.096400029957295">
        <ele>961.40800000000002</ele>
        <time>2021-07-10T07:53:59Z</time>
      </trkpt>
      <trkpt lat="40.655793026089668" lon="-4.096215963363648">
        <ele>961.61500000000001</ele>
        <time>2021-07-10T07:54:01Z</time>
      </trkpt>
      <trkpt lat="40.655796965584159" lon="-4.096100041642785">
        <ele>961.745</ele>
        <time>2021-07-10T07:54:02Z</time>
      </trkpt>
      <trkpt lat="40.655811969190836" lon="-4.095990993082523">
        <ele>961.726</ele>
        <time>2021-07-10T07:54:03Z</time>
      </trkpt>
      <trkpt lat="40.655910959467292" lon="-4.095820002257824">
        <ele>961.66200000000003</ele>
        <time>2021-07-10T07:54:05Z</time>
      </trkpt>
      <trkpt lat="40.655985977500677" lon="-4.095771973952651">
        <ele>961.57399999999996</ele>
        <time>2021-07-10T07:54:06Z</time>
      </trkpt>
      <trkpt lat="40.656074993312359" lon="-4.095754958689213">
        <ele>961.327</ele>
        <time>2021-07-10T07:54:07Z</time>
      </trkpt>
      <trkpt lat="40.65622896887362" lon="-4.09583299420774">
        <ele>961.29100000000005</ele>
        <time>2021-07-10T07:54:09Z</time>
      </trkpt>
      <trkpt lat="40.656368024647236" lon="-4.095952017232776">
        <ele>961.36000000000001</ele>
        <time>2021-07-10T07:54:11Z</time>
      </trkpt>
      <trkpt lat="40.656448993831873" lon="-4.095967020839453">
        <ele>961.23800000000006</ele>
        <time>2021-07-10T07:54:12Z</time>
      </trkpt>
      <trkpt lat="40.656607998535037" lon="-4.095884962007403">
        <ele>961.57000000000005</ele>
        <time>2021-07-10T07:54:14Z</time>
      </trkpt>
      <trkpt lat="40.656794998794794" lon="-4.095745990052819">
        <ele>961.31700000000001</ele>
        <time>2021-07-10T07:54:16Z</time>
      </trkpt>
      <trkpt lat="40.656903041526675" lon="-4.095671977847815">
        <ele>960.90800000000002</ele>
        <time>2021-07-10T07:54:17Z</time>
      </trkpt>
      <trkpt lat="40.657020974904299" lon="-4.095592014491558">
        <ele>960.87</ele>
        <time>2021-07-10T07:54:18Z</time>
      </trkpt>
      <trkpt lat="40.657256003469229" lon="-4.095426974818111">
        <ele>960.47000000000003</ele>
        <time>2021-07-10T07:54:20Z</time>
      </trkpt>
      <trkpt lat="40.657509975135326" lon="-4.095252966508269">
        <ele>960.03099999999995</ele>
        <time>2021-07-10T07:54:22Z</time>
      </trkpt>
      <trkpt lat="40.657648025080562" lon="-4.095159005373716">
        <ele>959.67700000000002</ele>
        <time>2021-07-10T07:54:23Z</time>
      </trkpt>
      <trkpt lat="40.657913982868195" lon="-4.094978040084243">
        <ele>959.399</ele>
        <time>2021-07-10T07:54:25Z</time>
      </trkpt>
      <trkpt lat="40.658197039738297" lon="-4.094793973490596">
        <ele>959.49199999999996</ele>
        <time>2021-07-10T07:54:27Z</time>
      </trkpt>
      <trkpt lat="40.658355038613081" lon="-4.094690959900618">
        <ele>959.35599999999999</ele>
        <time>2021-07-10T07:54:28Z</time>
      </trkpt>
      <trkpt lat="40.658646980300546" lon="-4.094498008489609">
        <ele>959.06500000000005</ele>
        <time>2021-07-10T07:54:30Z</time>
      </trkpt>
      <trkpt lat="40.658800033852458" lon="-4.094394994899631">
        <ele>958.63300000000004</ele>
        <time>2021-07-10T07:54:31Z</time>
      </trkpt>
      <trkpt lat="40.6589550152421" lon="-4.094288041815162">
        <ele>958.22299999999996</ele>
        <time>2021-07-10T07:54:32Z</time>
      </trkpt>
      <trkpt lat="40.659269001334906" lon="-4.094071034342051">
        <ele>957.91499999999996</ele>
        <time>2021-07-10T07:54:34Z</time>
      </trkpt>
      <trkpt lat="40.659588016569614" lon="-4.093853021040559">
        <ele>957.70799999999997</ele>
        <time>2021-07-10T07:54:36Z</time>
      </trkpt>
      <trkpt lat="40.659748027101159" lon="-4.093742966651917">
        <ele>957.46000000000004</ele>
        <time>2021-07-10T07:54:37Z</time>
      </trkpt>
      <trkpt lat="40.659911977127194" lon="-4.093634001910687">
        <ele>956.77999999999997</ele>
        <time>2021-07-10T07:54:38Z</time>
      </trkpt>
      <trkpt lat="40.660211965441704" lon="-4.093433003872633">
        <ele>956.89099999999996</ele>
        <time>2021-07-10T07:54:40Z</time>
      </trkpt>
      <trkpt lat="40.660368036478758" lon="-4.093330996111035">
        <ele>957.06700000000001</ele>
        <time>2021-07-10T07:54:41Z</time>
      </trkpt>
      <trkpt lat="40.660669030621648" lon="-4.09312698058784">
        <ele>957.45899999999995</ele>
        <time>2021-07-10T07:54:43Z</time>
      </trkpt>
      <trkpt lat="40.660949992015958" lon="-4.092938974499703">
        <ele>957.56200000000001</ele>
        <time>2021-07-10T07:54:45Z</time>
      </trkpt>
      <trkpt lat="40.661094998940825" lon="-4.092847025021911">
        <ele>957.65599999999995</ele>
        <time>2021-07-10T07:54:46Z</time>
      </trkpt>
      <trkpt lat="40.6613830011338" lon="-4.092654995620251">
        <ele>957.69500000000005</ele>
        <time>2021-07-10T07:54:48Z</time>
      </trkpt>
      <trkpt lat="40.661644013598561" lon="-4.092477969825268">
        <ele>957.59500000000003</ele>
        <time>2021-07-10T07:54:50Z</time>
      </trkpt>
      <trkpt lat="40.661893961951137" lon="-4.092270014807582">
        <ele>956.94899999999996</ele>
        <time>2021-07-10T07:54:52Z</time>
      </trkpt>
      <trkpt lat="40.662007033824921" lon="-4.09215702675283">
        <ele>956.52300000000002</ele>
        <time>2021-07-10T07:54:53Z</time>
      </trkpt>
      <trkpt lat="40.662105018272996" lon="-4.092056024819613">
        <ele>955.90800000000002</ele>
        <time>2021-07-10T07:54:54Z</time>
      </trkpt>
      <trkpt lat="40.662283971905708" lon="-4.091832982376218">
        <ele>955.37599999999998</ele>
        <time>2021-07-10T07:54:56Z</time>
      </trkpt>
      <trkpt lat="40.662368964403868" lon="-4.091713959351182">
        <ele>955.21600000000001</ele>
        <time>2021-07-10T07:54:57Z</time>
      </trkpt>
      <trkpt lat="40.662497039884329" lon="-4.091484965756536">
        <ele>954.89700000000005</ele>
        <time>2021-07-10T07:54:59Z</time>
      </trkpt>
      <trkpt lat="40.662559987977147" lon="-4.09125697799027">
        <ele>954.52300000000002</ele>
        <time>2021-07-10T07:55:01Z</time>
      </trkpt>
      <trkpt lat="40.662598963826895" lon="-4.091144995763898">
        <ele>954.31500000000005</ele>
        <time>2021-07-10T07:55:02Z</time>
      </trkpt>
      <trkpt lat="40.662665013223886" lon="-4.09106302075088">
        <ele>954.27800000000002</ele>
        <time>2021-07-10T07:55:03Z</time>
      </trkpt>
      <trkpt lat="40.662751011550426" lon="-4.09102002158761">
        <ele>954.31200000000001</ele>
        <time>2021-07-10T07:55:04Z</time>
      </trkpt>
      <trkpt lat="40.662842961028218" lon="-4.091018009930849">
        <ele>953.99099999999999</ele>
        <time>2021-07-10T07:55:05Z</time>
      </trkpt>
      <trkpt lat="40.663019986823201" lon="-4.091086992993951">
        <ele>953.98599999999999</ele>
        <time>2021-07-10T07:55:07Z</time>
      </trkpt>
      <trkpt lat="40.663110008463264" lon="-4.091110965237021">
        <ele>953.86000000000001</ele>
        <time>2021-07-10T07:55:08Z</time>
      </trkpt>
      <trkpt lat="40.663306983187795" lon="-4.091081041842699">
        <ele>953.82600000000002</ele>
        <time>2021-07-10T07:55:10Z</time>
      </trkpt>
      <trkpt lat="40.663527008146048" lon="-4.091000994667411">
        <ele>954.20799999999997</ele>
        <time>2021-07-10T07:55:12Z</time>
      </trkpt>
      <trkpt lat="40.663764970377088" lon="-4.090898986905813">
        <ele>954.23500000000001</ele>
        <time>2021-07-10T07:55:14Z</time>
      </trkpt>
      <trkpt lat="40.664006033912301" lon="-4.090789016336203">
        <ele>955.57500000000005</ele>
        <time>2021-07-10T07:55:16Z</time>
      </trkpt>
      <trkpt lat="40.664130002260208" lon="-4.090732019394636">
        <ele>956.24599999999998</ele>
        <time>2021-07-10T07:55:17Z</time>
      </trkpt>
      <trkpt lat="40.664378022775054" lon="-4.090595981106162">
        <ele>956.18200000000002</ele>
        <time>2021-07-10T07:55:19Z</time>
      </trkpt>
      <trkpt lat="40.664609028026462" lon="-4.090450974181294">
        <ele>956.04399999999998</ele>
        <time>2021-07-10T07:55:21Z</time>
      </trkpt>
      <trkpt lat="40.664729978889227" lon="-4.090372016653419">
        <ele>955.73699999999997</ele>
        <time>2021-07-10T07:55:22Z</time>
      </trkpt>
      <trkpt lat="40.664977999404073" lon="-4.090212006121874">
        <ele>955.11099999999999</ele>
        <time>2021-07-10T07:55:24Z</time>
      </trkpt>
      <trkpt lat="40.665098028257489" lon="-4.090131958946586">
        <ele>954.76999999999998</ele>
        <time>2021-07-10T07:55:25Z</time>
      </trkpt>
      <trkpt lat="40.665330039337277" lon="-4.089971026405692">
        <ele>954.03300000000002</ele>
        <time>2021-07-10T07:55:27Z</time>
      </trkpt>
      <trkpt lat="40.665569007396698" lon="-4.089801041409373">
        <ele>953.12300000000005</ele>
        <time>2021-07-10T07:55:29Z</time>
      </trkpt>
      <trkpt lat="40.665695993229747" lon="-4.089714037254453">
        <ele>952.11500000000001</ele>
        <time>2021-07-10T07:55:30Z</time>
      </trkpt>
      <trkpt lat="40.665943007916212" lon="-4.089542040601373">
        <ele>950.60799999999995</ele>
        <time>2021-07-10T07:55:32Z</time>
      </trkpt>
      <trkpt lat="40.666212989017367" lon="-4.089356968179345">
        <ele>949.75999999999999</ele>
        <time>2021-07-10T07:55:34Z</time>
      </trkpt>
      <trkpt lat="40.666463021188974" lon="-4.089184971526265">
        <ele>948.58000000000004</ele>
        <time>2021-07-10T07:55:36Z</time>
      </trkpt>
      <trkpt lat="40.666589001193643" lon="-4.089098973199725">
        <ele>947.76099999999997</ele>
        <time>2021-07-10T07:55:37Z</time>
      </trkpt>
      <trkpt lat="40.666813971474767" lon="-4.088942985981703">
        <ele>947.09699999999998</ele>
        <time>2021-07-10T07:55:39Z</time>
      </trkpt>
      <trkpt lat="40.666922014206648" lon="-4.088870985433459">
        <ele>946.71900000000005</ele>
        <time>2021-07-10T07:55:40Z</time>
      </trkpt>
      <trkpt lat="40.667127035558224" lon="-4.088731007650495">
        <ele>946.72199999999998</ele>
        <time>2021-07-10T07:55:42Z</time>
      </trkpt>
      <trkpt lat="40.66722895950079" lon="-4.088664036244154">
        <ele>946.52599999999995</ele>
        <time>2021-07-10T07:55:43Z</time>
      </trkpt>
      <trkpt lat="40.667329039424658" lon="-4.088596981018782">
        <ele>946.23500000000001</ele>
        <time>2021-07-10T07:55:44Z</time>
      </trkpt>
      <trkpt lat="40.667426018044353" lon="-4.088531015440822">
        <ele>945.96299999999997</ele>
        <time>2021-07-10T07:55:45Z</time>
      </trkpt>
      <trkpt lat="40.667602960020304" lon="-4.088411992415786">
        <ele>946.14400000000001</ele>
        <time>2021-07-10T07:55:47Z</time>
      </trkpt>
      <trkpt lat="40.667720977216959" lon="-4.088317025452852">
        <ele>946.11800000000005</ele>
        <time>2021-07-10T07:55:49Z</time>
      </trkpt>
      <trkpt lat="40.667792977765203" lon="-4.088209988549352">
        <ele>946.00800000000004</ele>
        <time>2021-07-10T07:55:51Z</time>
      </trkpt>
      <trkpt lat="40.667809993028641" lon="-4.088144022971392">
        <ele>946.06299999999999</ele>
        <time>2021-07-10T07:55:52Z</time>
      </trkpt>
      <trkpt lat="40.667869001626968" lon="-4.088028017431498">
        <ele>946.02300000000002</ele>
        <time>2021-07-10T07:55:54Z</time>
      </trkpt>
      <trkpt lat="40.667922981083393" lon="-4.088005973026156">
        <ele>946.34400000000005</ele>
        <time>2021-07-10T07:55:55Z</time>
      </trkpt>
      <trkpt lat="40.668032029643655" lon="-4.088029023259878">
        <ele>946.11000000000001</ele>
        <time>2021-07-10T07:55:57Z</time>
      </trkpt>
      <trkpt lat="40.668149963021278" lon="-4.088031034916639">
        <ele>946.51199999999994</ele>
        <time>2021-07-10T07:55:59Z</time>
      </trkpt>
      <trkpt lat="40.668264040723443" lon="-4.087956016883254">
        <ele>946.125</ele>
        <time>2021-07-10T07:56:01Z</time>
      </trkpt>
      <trkpt lat="40.668374011293054" lon="-4.087872030213475">
        <ele>946.73900000000003</ele>
        <time>2021-07-10T07:56:03Z</time>
      </trkpt>
      <trkpt lat="40.668432014063001" lon="-4.087829031050205">
        <ele>946.91800000000001</ele>
        <time>2021-07-10T07:56:04Z</time>
      </trkpt>
      <trkpt lat="40.668497979640961" lon="-4.087783014401794">
        <ele>947.06399999999996</ele>
        <time>2021-07-10T07:56:05Z</time>
      </trkpt>
      <trkpt lat="40.668566962704062" lon="-4.087735991925001">
        <ele>947.40599999999995</ele>
        <time>2021-07-10T07:56:06Z</time>
      </trkpt>
      <trkpt lat="40.668703000992537" lon="-4.087643958628178">
        <ele>947.81600000000003</ele>
        <time>2021-07-10T07:56:08Z</time>
      </trkpt>
      <trkpt lat="40.668770978227258" lon="-4.087600959464908">
        <ele>947.90800000000002</ele>
        <time>2021-07-10T07:56:09Z</time>
      </trkpt>
      <trkpt lat="40.668845996260643" lon="-4.087554020807147">
        <ele>948.61300000000006</ele>
        <time>2021-07-10T07:56:10Z</time>
      </trkpt>
      <trkpt lat="40.668913973495364" lon="-4.087506998330355">
        <ele>949.08299999999997</ele>
        <time>2021-07-10T07:56:11Z</time>
      </trkpt>
      <trkpt lat="40.669050011783838" lon="-4.087405996397138">
        <ele>949.76400000000001</ele>
        <time>2021-07-10T07:56:13Z</time>
      </trkpt>
      <trkpt lat="40.669123018160462" lon="-4.087355034425855">
        <ele>950.44000000000005</ele>
        <time>2021-07-10T07:56:14Z</time>
      </trkpt>
      <trkpt lat="40.669199964031577" lon="-4.087301976978779">
        <ele>951.23199999999997</ele>
        <time>2021-07-10T07:56:15Z</time>
      </trkpt>
      <trkpt lat="40.669337008148432" lon="-4.087208015844226">
        <ele>951.92499999999995</ele>
        <time>2021-07-10T07:56:17Z</time>
      </trkpt>
      <trkpt lat="40.669408002868295" lon="-4.087160993367434">
        <ele>952.53899999999999</ele>
        <time>2021-07-10T07:56:18Z</time>
      </trkpt>
      <trkpt lat="40.669478997588158" lon="-4.087112965062261">
        <ele>953.048</ele>
        <time>2021-07-10T07:56:19Z</time>
      </trkpt>
      <trkpt lat="40.669557033106685" lon="-4.087063008919358">
        <ele>953.56500000000005</ele>
        <time>2021-07-10T07:56:20Z</time>
      </trkpt>
      <trkpt lat="40.66963498480618" lon="-4.087011963129044">
        <ele>953.96799999999996</ele>
        <time>2021-07-10T07:56:21Z</time>
      </trkpt>
      <trkpt lat="40.669787032529712" lon="-4.086909033358097">
        <ele>954.11400000000003</ele>
        <time>2021-07-10T07:56:23Z</time>
      </trkpt>
      <trkpt lat="40.669861966744065" lon="-4.086858993396163">
        <ele>954.60799999999995</ele>
        <time>2021-07-10T07:56:24Z</time>
      </trkpt>
      <trkpt lat="40.670004040002823" lon="-4.086757991462946">
        <ele>955.53300000000002</ele>
        <time>2021-07-10T07:56:26Z</time>
      </trkpt>
      <trkpt lat="40.670116022229195" lon="-4.086675010621548">
        <ele>956.18299999999999</ele>
        <time>2021-07-10T07:56:28Z</time>
      </trkpt>
      <trkpt lat="40.670190034434199" lon="-4.086609967052937">
        <ele>957.21400000000006</ele>
        <time>2021-07-10T07:56:30Z</time>
      </trkpt>
      <trkpt lat="40.670226998627186" lon="-4.0865289978683">
        <ele>958.24000000000001</ele>
        <time>2021-07-10T07:56:32Z</time>
      </trkpt>
      <trkpt lat="40.67023403942585" lon="-4.08646596595645">
        <ele>958.68200000000002</ele>
        <time>2021-07-10T07:56:33Z</time>
      </trkpt>
      <trkpt lat="40.670248037204146" lon="-4.086332023143768">
        <ele>958.56500000000005</ele>
        <time>2021-07-10T07:56:35Z</time>
      </trkpt>
      <trkpt lat="40.670282989740372" lon="-4.086292963474989">
        <ele>957.92899999999997</ele>
        <time>2021-07-10T07:56:36Z</time>
      </trkpt>
      <trkpt lat="40.670378962531686" lon="-4.086289023980498">
        <ele>957.52800000000002</ele>
        <time>2021-07-10T07:56:38Z</time>
      </trkpt>
      <trkpt lat="40.67042900249362" lon="-4.086325988173485">
        <ele>957.31100000000004</ele>
        <time>2021-07-10T07:56:39Z</time>
      </trkpt>
      <trkpt lat="40.670533021911979" lon="-4.08637803979218">
        <ele>957.42100000000005</ele>
        <time>2021-07-10T07:56:41Z</time>
      </trkpt>
      <trkpt lat="40.670651039108634" lon="-4.086320959031582">
        <ele>956.303</ele>
        <time>2021-07-10T07:56:43Z</time>
      </trkpt>
      <trkpt lat="40.670712981373072" lon="-4.086269997060299">
        <ele>956.10799999999995</ele>
        <time>2021-07-10T07:56:44Z</time>
      </trkpt>
      <trkpt lat="40.670770984143019" lon="-4.086223980411887">
        <ele>956.18799999999999</ele>
        <time>2021-07-10T07:56:45Z</time>
      </trkpt>
      <trkpt lat="40.670824963599443" lon="-4.086181987076998">
        <ele>956.25800000000004</ele>
        <time>2021-07-10T07:56:46Z</time>
      </trkpt>
      <trkpt lat="40.670928983017802" lon="-4.086105041205883">
        <ele>956.25900000000001</ele>
        <time>2021-07-10T07:56:48Z</time>
      </trkpt>
      <trkpt lat="40.67105496302247" lon="-4.086008984595537">
        <ele>956.48500000000001</ele>
        <time>2021-07-10T07:56:50Z</time>
      </trkpt>
      <trkpt lat="40.671127969399095" lon="-4.085953999310732">
        <ele>956.68700000000001</ele>
        <time>2021-07-10T07:56:51Z</time>
      </trkpt>
      <trkpt lat="40.671278005465865" lon="-4.085843022912741">
        <ele>957.13</ele>
        <time>2021-07-10T07:56:53Z</time>
      </trkpt>
      <trkpt lat="40.671357968822122" lon="-4.085788037627935">
        <ele>957.524</ele>
        <time>2021-07-10T07:56:54Z</time>
      </trkpt>
      <trkpt lat="40.671523008495569" lon="-4.085671026259661">
        <ele>958.07299999999998</ele>
        <time>2021-07-10T07:56:56Z</time>
      </trkpt>
      <trkpt lat="40.671677989885211" lon="-4.085560971871018">
        <ele>958.32799999999997</ele>
        <time>2021-07-10T07:56:58Z</time>
      </trkpt>
      <trkpt lat="40.671836994588375" lon="-4.085446977987886">
        <ele>958.58900000000006</ele>
        <time>2021-07-10T07:57:00Z</time>
      </trkpt>
      <trkpt lat="40.671918969601393" lon="-4.085387969389558">
        <ele>959.01700000000005</ele>
        <time>2021-07-10T07:57:01Z</time>
      </trkpt>
      <trkpt lat="40.67199700511992" lon="-4.085333989933133">
        <ele>959.50800000000004</ele>
        <time>2021-07-10T07:57:02Z</time>
      </trkpt>
      <trkpt lat="40.672156009823084" lon="-4.085222007706761">
        <ele>959.57899999999995</ele>
        <time>2021-07-10T07:57:04Z</time>
      </trkpt>
      <trkpt lat="40.672237984836102" lon="-4.085164004936814">
        <ele>959.21900000000005</ele>
        <time>2021-07-10T07:57:05Z</time>
      </trkpt>
      <trkpt lat="40.672324988991022" lon="-4.085103990510106">
        <ele>959.37</ele>
        <time>2021-07-10T07:57:06Z</time>
      </trkpt>
      <trkpt lat="40.672479970380664" lon="-4.084997959434986">
        <ele>959.63599999999997</ele>
        <time>2021-07-10T07:57:08Z</time>
      </trkpt>
      <trkpt lat="40.672602010890841" lon="-4.084912966936827">
        <ele>959.49800000000005</ele>
        <time>2021-07-10T07:57:10Z</time>
      </trkpt>
      <trkpt lat="40.672669988125563" lon="-4.084867034107447">
        <ele>959.69100000000003</ele>
        <time>2021-07-10T07:57:11Z</time>
      </trkpt>
      <trkpt lat="40.67274802364409" lon="-4.08481297083199">
        <ele>960.22500000000002</ele>
        <time>2021-07-10T07:57:12Z</time>
      </trkpt>
      <trkpt lat="40.672908034175634" lon="-4.084713980555534">
        <ele>960.05399999999997</ele>
        <time>2021-07-10T07:57:14Z</time>
      </trkpt>
      <trkpt lat="40.672979028895497" lon="-4.084679028019309">
        <ele>959.98800000000006</ele>
        <time>2021-07-10T07:57:15Z</time>
      </trkpt>
      <trkpt lat="40.673098973929882" lon="-4.08461700193584">
        <ele>959.72400000000005</ele>
        <time>2021-07-10T07:57:17Z</time>
      </trkpt>
      <trkpt lat="40.673234006389976" lon="-4.084541983902454">
        <ele>959.12599999999998</ele>
        <time>2021-07-10T07:57:19Z</time>
      </trkpt>
      <trkpt lat="40.673387981951237" lon="-4.084453973919153">
        <ele>958.90800000000002</ele>
        <time>2021-07-10T07:57:21Z</time>
      </trkpt>
      <trkpt lat="40.673542963340878" lon="-4.084368981420994">
        <ele>958.68499999999995</ele>
        <time>2021-07-10T07:57:23Z</time>
      </trkpt>
      <trkpt lat="40.673667015507817" lon="-4.08429304137826">
        <ele>958.875</ele>
        <time>2021-07-10T07:57:25Z</time>
      </trkpt>
      <trkpt lat="40.673764999955893" lon="-4.084215005859733">
        <ele>958.53599999999994</ele>
        <time>2021-07-10T07:57:27Z</time>
      </trkpt>
      <trkpt lat="40.673833983018994" lon="-4.0841010119766">
        <ele>958.072</ele>
        <time>2021-07-10T07:57:29Z</time>
      </trkpt>
      <trkpt lat="40.673901038244367" lon="-4.083979977294803">
        <ele>957.24400000000003</ele>
        <time>2021-07-10T07:57:31Z</time>
      </trkpt>
      <trkpt lat="40.673962980508804" lon="-4.083959022536874">
        <ele>955.87699999999995</ele>
        <time>2021-07-10T07:57:32Z</time>
      </trkpt>
      <trkpt lat="40.674025006592274" lon="-4.08397201448679">
        <ele>955.25099999999998</ele>
        <time>2021-07-10T07:57:33Z</time>
      </trkpt>
      <trkpt lat="40.674156015738845" lon="-4.084033034741879">
        <ele>954.62</ele>
        <time>2021-07-10T07:57:35Z</time>
      </trkpt>
      <trkpt lat="40.674228016287088" lon="-4.084045020863414">
        <ele>953.87199999999996</ele>
        <time>2021-07-10T07:57:36Z</time>
      </trkpt>
      <trkpt lat="40.674302028492093" lon="-4.08403898589313">
        <ele>953.51300000000003</ele>
        <time>2021-07-10T07:57:37Z</time>
      </trkpt>
      <trkpt lat="40.67446799017489" lon="-4.083979977294803">
        <ele>953.21400000000006</ele>
        <time>2021-07-10T07:57:39Z</time>
      </trkpt>
      <trkpt lat="40.674558011814952" lon="-4.083935972303152">
        <ele>952.90800000000002</ele>
        <time>2021-07-10T07:57:40Z</time>
      </trkpt>
      <trkpt lat="40.674648033455014" lon="-4.083890961483121">
        <ele>952.524</ele>
        <time>2021-07-10T07:57:41Z</time>
      </trkpt>
      <trkpt lat="40.674736965447664" lon="-4.083847040310502">
        <ele>952.67399999999998</ele>
        <time>2021-07-10T07:57:42Z</time>
      </trkpt>
      <trkpt lat="40.674877027049661" lon="-4.083769004791975">
        <ele>951.81500000000005</ele>
        <time>2021-07-10T07:57:44Z</time>
      </trkpt>
      <trkpt lat="40.675012981519103" lon="-4.0836519934237">
        <ele>951.851</ele>
        <time>2021-07-10T07:57:46Z</time>
      </trkpt>
      <trkpt lat="40.675082970410585" lon="-4.083576975390315">
        <ele>951.57299999999998</ele>
        <time>2021-07-10T07:57:47Z</time>
      </trkpt>
      <trkpt lat="40.675151031464338" lon="-4.083493994548917">
        <ele>951.16600000000005</ele>
        <time>2021-07-10T07:57:48Z</time>
      </trkpt>
      <trkpt lat="40.675282962620258" lon="-4.08332803286612">
        <ele>951.01999999999998</ele>
        <time>2021-07-10T07:57:50Z</time>
      </trkpt>
      <trkpt lat="40.675353035330772" lon="-4.08324396237731">
        <ele>950.69899999999996</ele>
        <time>2021-07-10T07:57:51Z</time>
      </trkpt>
      <trkpt lat="40.675484966486692" lon="-4.083086969330907">
        <ele>949.93700000000001</ele>
        <time>2021-07-10T07:57:53Z</time>
      </trkpt>
      <trkpt lat="40.675567025318742" lon="-4.082939028739929">
        <ele>949.24900000000002</ele>
        <time>2021-07-10T07:57:55Z</time>
      </trkpt>
      <trkpt lat="40.675642965361476" lon="-4.082784969359636">
        <ele>949.61300000000006</ele>
        <time>2021-07-10T07:57:57Z</time>
      </trkpt>
      <trkpt lat="40.675775986164808" lon="-4.082737024873495">
        <ele>950.30799999999999</ele>
        <time>2021-07-10T07:57:59Z</time>
      </trkpt>
      <trkpt lat="40.675929039716721" lon="-4.082816988229752">
        <ele>950.05999999999995</ele>
        <time>2021-07-10T07:58:01Z</time>
      </trkpt>
      <trkpt lat="40.676013026386499" lon="-4.082826962694526">
        <ele>949.76999999999998</ele>
        <time>2021-07-10T07:58:02Z</time>
      </trkpt>
      <trkpt lat="40.676105981692672" lon="-4.082809025421739">
        <ele>949.88099999999997</ele>
        <time>2021-07-10T07:58:03Z</time>
      </trkpt>
      <trkpt lat="40.676288036629558" lon="-4.082722021266818">
        <ele>949.93700000000001</ele>
        <time>2021-07-10T07:58:05Z</time>
      </trkpt>
      <trkpt lat="40.676513006910682" lon="-4.082604004070163">
        <ele>950.399</ele>
        <time>2021-07-10T07:58:07Z</time>
      </trkpt>
      <trkpt lat="40.676645021885633" lon="-4.082538038492203">
        <ele>950.322</ele>
        <time>2021-07-10T07:58:08Z</time>
      </trkpt>
      <trkpt lat="40.676895976066589" lon="-4.082417003810406">
        <ele>950.25599999999997</ele>
        <time>2021-07-10T07:58:10Z</time>
      </trkpt>
      <trkpt lat="40.677027991041541" lon="-4.082353971898556">
        <ele>950.36500000000001</ele>
        <time>2021-07-10T07:58:11Z</time>
      </trkpt>
      <trkpt lat="40.677160006016493" lon="-4.082291023805738">
        <ele>950.69500000000005</ele>
        <time>2021-07-10T07:58:12Z</time>
      </trkpt>
      <trkpt lat="40.677299983799458" lon="-4.082224974408746">
        <ele>951.04899999999998</ele>
        <time>2021-07-10T07:58:13Z</time>
      </trkpt>
      <trkpt lat="40.677548004314303" lon="-4.082107041031122">
        <ele>951.423</ele>
        <time>2021-07-10T07:58:15Z</time>
      </trkpt>
      <trkpt lat="40.677779009565711" lon="-4.08199698664248">
        <ele>952.10799999999995</ele>
        <time>2021-07-10T07:58:17Z</time>
      </trkpt>
      <trkpt lat="40.677881017327309" lon="-4.081946024671197">
        <ele>952.476</ele>
        <time>2021-07-10T07:58:18Z</time>
      </trkpt>
      <trkpt lat="40.678024012595415" lon="-4.081881986930966">
        <ele>953.226</ele>
        <time>2021-07-10T07:58:20Z</time>
      </trkpt>
      <trkpt lat="40.678170025348663" lon="-4.081818033009768">
        <ele>954.25699999999995</ele>
        <time>2021-07-10T07:58:22Z</time>
      </trkpt>
      <trkpt lat="40.678260968998075" lon="-4.081773022189736">
        <ele>954.31299999999999</ele>
        <time>2021-07-10T07:58:23Z</time>
      </trkpt>
      <trkpt lat="40.678437994793057" lon="-4.081690041348338">
        <ele>954.29499999999996</ele>
        <time>2021-07-10T07:58:25Z</time>
      </trkpt>
      <trkpt lat="40.67859398201108" lon="-4.081619968637824">
        <ele>955.06799999999998</ele>
        <time>2021-07-10T07:58:27Z</time>
      </trkpt>
      <trkpt lat="40.678660031408072" lon="-4.08158996142447">
        <ele>955.98199999999997</ele>
        <time>2021-07-10T07:58:28Z</time>
      </trkpt>
      <trkpt lat="40.678729014471173" lon="-4.081559032201767">
        <ele>956.11099999999999</ele>
        <time>2021-07-10T07:58:29Z</time>
      </trkpt>
      <trkpt lat="40.678909979760647" lon="-4.081470016390085">
        <ele>957.15300000000002</ele>
        <time>2021-07-10T07:58:31Z</time>
      </trkpt>
      <trkpt lat="40.679021961987019" lon="-4.08141503110528">
        <ele>957.70399999999995</ele>
        <time>2021-07-10T07:58:32Z</time>
      </trkpt>
      <trkpt lat="40.679136961698532" lon="-4.081358034163714">
        <ele>958.61400000000003</ele>
        <time>2021-07-10T07:58:33Z</time>
      </trkpt>
      <trkpt lat="40.679262019693851" lon="-4.081301037222147">
        <ele>959.90800000000002</ele>
        <time>2021-07-10T07:58:34Z</time>
      </trkpt>
      <trkpt lat="40.679515991359949" lon="-4.08118000254035">
        <ele>961.21199999999999</ele>
        <time>2021-07-10T07:58:36Z</time>
      </trkpt>
      <trkpt lat="40.679800976067781" lon="-4.081047987565398">
        <ele>962.44200000000001</ele>
        <time>2021-07-10T07:58:38Z</time>
      </trkpt>
      <trkpt lat="40.679956041276455" lon="-4.080972969532013">
        <ele>963.08299999999997</ele>
        <time>2021-07-10T07:58:39Z</time>
      </trkpt>
      <trkpt lat="40.680262986570597" lon="-4.080827040597796">
        <ele>963.46900000000005</ele>
        <time>2021-07-10T07:58:41Z</time>
      </trkpt>
      <trkpt lat="40.680429032072425" lon="-4.080747999250889">
        <ele>964.68100000000004</ele>
        <time>2021-07-10T07:58:42Z</time>
      </trkpt>
      <trkpt lat="40.680758021771908" lon="-4.080588994547725">
        <ele>965.83399999999995</ele>
        <time>2021-07-10T07:58:44Z</time>
      </trkpt>
      <trkpt lat="40.681074019521475" lon="-4.080441975966096">
        <ele>967.94799999999998</ele>
        <time>2021-07-10T07:58:46Z</time>
      </trkpt>
      <trkpt lat="40.681230006739497" lon="-4.080368969589472">
        <ele>969.48699999999997</ele>
        <time>2021-07-10T07:58:47Z</time>
      </trkpt>
      <trkpt lat="40.681392028927803" lon="-4.080292023718357">
        <ele>970.85299999999995</ele>
        <time>2021-07-10T07:58:48Z</time>
      </trkpt>
      <trkpt lat="40.681699980050325" lon="-4.080145005136728">
        <ele>971.60400000000004</ele>
        <time>2021-07-10T07:58:50Z</time>
      </trkpt>
      <trkpt lat="40.681854961439967" lon="-4.080071998760104">
        <ele>972.11400000000003</ele>
        <time>2021-07-10T07:58:51Z</time>
      </trkpt>
      <trkpt lat="40.682168025523424" lon="-4.07993302680552">
        <ele>972.80799999999999</ele>
        <time>2021-07-10T07:58:53Z</time>
      </trkpt>
      <trkpt lat="40.682515958324075" lon="-4.079786008223891">
        <ele>973.06200000000001</ele>
        <time>2021-07-10T07:58:55Z</time>
      </trkpt>
      <trkpt lat="40.682698013260961" lon="-4.079705961048603">
        <ele>973.12199999999996</ele>
        <time>2021-07-10T07:58:56Z</time>
      </trkpt>
      <trkpt lat="40.682884007692337" lon="-4.079615017399192">
        <ele>973.41300000000001</ele>
        <time>2021-07-10T07:58:57Z</time>
      </trkpt>
      <trkpt lat="40.683257002383471" lon="-4.079432962462306">
        <ele>974.16899999999998</ele>
        <time>2021-07-10T07:58:59Z</time>
      </trkpt>
      <trkpt lat="40.68345095962286" lon="-4.079345036298037">
        <ele>973.77099999999996</ele>
        <time>2021-07-10T07:59:00Z</time>
      </trkpt>
      <trkpt lat="40.683824960142374" lon="-4.079178990796208">
        <ele>973.44399999999996</ele>
        <time>2021-07-10T07:59:02Z</time>
      </trkpt>
      <trkpt lat="40.684210024774075" lon="-4.079006994143128">
        <ele>972.84799999999996</ele>
        <time>2021-07-10T07:59:04Z</time>
      </trkpt>
      <trkpt lat="40.684403982013464" lon="-4.078915966674686">
        <ele>973.21699999999998</ele>
        <time>2021-07-10T07:59:05Z</time>
      </trkpt>
      <trkpt lat="40.684600034728646" lon="-4.078824017196894">
        <ele>973.19600000000003</ele>
        <time>2021-07-10T07:59:06Z</time>
      </trkpt>
      <trkpt lat="40.685002030804753" lon="-4.07864497974515">
        <ele>972.63099999999997</ele>
        <time>2021-07-10T07:59:08Z</time>
      </trkpt>
      <trkpt lat="40.685408972203732" lon="-4.078458985313773">
        <ele>972.42399999999998</ele>
        <time>2021-07-10T07:59:10Z</time>
      </trkpt>
      <trkpt lat="40.685625979676843" lon="-4.078359995037317">
        <ele>972.80799999999999</ele>
        <time>2021-07-10T07:59:11Z</time>
      </trkpt>
      <trkpt lat="40.68602797575295" lon="-4.078185986727476">
        <ele>972.65599999999995</ele>
        <time>2021-07-10T07:59:13Z</time>
      </trkpt>
      <trkpt lat="40.686452016234398" lon="-4.077994041144848">
        <ele>973.37599999999998</ele>
        <time>2021-07-10T07:59:15Z</time>
      </trkpt>
      <trkpt lat="40.686873039230704" lon="-4.077809974551201">
        <ele>973.14700000000005</ele>
        <time>2021-07-10T07:59:17Z</time>
      </trkpt>
      <trkpt lat="40.687082000076771" lon="-4.077718025073409">
        <ele>973.12300000000005</ele>
        <time>2021-07-10T07:59:18Z</time>
      </trkpt>
      <trkpt lat="40.687494976446033" lon="-4.07752700150013">
        <ele>975.27499999999998</ele>
        <time>2021-07-10T07:59:20Z</time>
      </trkpt>
      <trkpt lat="40.687706032767892" lon="-4.077425999566913">
        <ele>977.59799999999996</ele>
        <time>2021-07-10T07:59:21Z</time>
      </trkpt>
      <trkpt lat="40.688077015802264" lon="-4.077250985428691">
        <ele>979.23199999999997</ele>
        <time>2021-07-10T07:59:23Z</time>
      </trkpt>
      <trkpt lat="40.688449004665017" lon="-4.077084017917514">
        <ele>980.52099999999996</ele>
        <time>2021-07-10T07:59:25Z</time>
      </trkpt>
      <trkpt lat="40.688634999096394" lon="-4.077001037076116">
        <ele>981.35500000000002</ele>
        <time>2021-07-10T07:59:26Z</time>
      </trkpt>
      <trkpt lat="40.688950996845961" lon="-4.076851001009345">
        <ele>982.20699999999999</ele>
        <time>2021-07-10T07:59:28Z</time>
      </trkpt>
      <trkpt lat="40.689110001549125" lon="-4.076777994632721">
        <ele>983.11699999999996</ele>
        <time>2021-07-10T07:59:29Z</time>
      </trkpt>
      <trkpt lat="40.689427005127072" lon="-4.076630976051092">
        <ele>983.40800000000002</ele>
        <time>2021-07-10T07:59:31Z</time>
      </trkpt>
      <trkpt lat="40.689752977341413" lon="-4.076470965519548">
        <ele>985.11199999999997</ele>
        <time>2021-07-10T07:59:33Z</time>
      </trkpt>
      <trkpt lat="40.689923968166113" lon="-4.076383039355278">
        <ele>985.822</ele>
        <time>2021-07-10T07:59:34Z</time>
      </trkpt>
      <trkpt lat="40.690275002270937" lon="-4.076206013560295">
        <ele>987.43299999999999</ele>
        <time>2021-07-10T07:59:36Z</time>
      </trkpt>
      <trkpt lat="40.690635005012155" lon="-4.076029993593693">
        <ele>989.68899999999996</ele>
        <time>2021-07-10T07:59:38Z</time>
      </trkpt>
      <trkpt lat="40.690996013581753" lon="-4.075869983062148">
        <ele>990.43100000000004</ele>
        <time>2021-07-10T07:59:40Z</time>
      </trkpt>
      <trkpt lat="40.691342018544674" lon="-4.075709972530603">
        <ele>992.08399999999995</ele>
        <time>2021-07-10T07:59:42Z</time>
      </trkpt>
      <trkpt lat="40.691680982708931" lon="-4.075536970049143">
        <ele>993.22799999999995</ele>
        <time>2021-07-10T07:59:44Z</time>
      </trkpt>
      <trkpt lat="40.69200100377202" lon="-4.075377965345979">
        <ele>995.28700000000003</ele>
        <time>2021-07-10T07:59:46Z</time>
      </trkpt>
      <trkpt lat="40.692305015400052" lon="-4.075233964249492">
        <ele>997.149</ele>
        <time>2021-07-10T07:59:48Z</time>
      </trkpt>
      <trkpt lat="40.692609027028084" lon="-4.075076971203089">
        <ele>998.90200000000004</ele>
        <time>2021-07-10T07:59:50Z</time>
      </trkpt>
      <trkpt lat="40.692768031731248" lon="-4.074983010068536">
        <ele>1001.022</ele>
        <time>2021-07-10T07:59:51Z</time>
      </trkpt>
      <trkpt lat="40.69309500977397" lon="-4.07484102062881">
        <ele>1002.308</ele>
        <time>2021-07-10T07:59:53Z</time>
      </trkpt>
      <trkpt lat="40.693425005301833" lon="-4.07469199039042">
        <ele>1003.2910000000001</ele>
        <time>2021-07-10T07:59:55Z</time>
      </trkpt>
      <trkpt lat="40.69359096698463" lon="-4.07462602481246">
        <ele>1003.2910000000001</ele>
        <time>2021-07-10T07:59:56Z</time>
      </trkpt>
      <trkpt lat="40.693946024402976" lon="-4.074488980695605">
        <ele>1004.192</ele>
        <time>2021-07-10T07:59:58Z</time>
      </trkpt>
      <trkpt lat="40.694124978035688" lon="-4.074426032602787">
        <ele>1005.058</ele>
        <time>2021-07-10T07:59:59Z</time>
      </trkpt>
      <trkpt lat="40.694305021315813" lon="-4.07437096349895">
        <ele>1005.97</ele>
        <time>2021-07-10T08:00:00Z</time>
      </trkpt>
      <trkpt lat="40.694629987701774" lon="-4.074229979887605">
        <ele>1007.543</ele>
        <time>2021-07-10T08:00:02Z</time>
      </trkpt>
      <trkpt lat="40.694791004061699" lon="-4.07417600043118">
        <ele>1009.087</ele>
        <time>2021-07-10T08:00:03Z</time>
      </trkpt>
      <trkpt lat="40.695114964619279" lon="-4.07406996935606">
        <ele>1010.546</ele>
        <time>2021-07-10T08:00:05Z</time>
      </trkpt>
      <trkpt lat="40.695280004292727" lon="-4.073999980464578">
        <ele>1011.439</ele>
        <time>2021-07-10T08:00:06Z</time>
      </trkpt>
      <trkpt lat="40.695621985942125" lon="-4.073849022388458">
        <ele>1012.701</ele>
        <time>2021-07-10T08:00:08Z</time>
      </trkpt>
      <trkpt lat="40.695800017565489" lon="-4.07376604154706">
        <ele>1013.421</ele>
        <time>2021-07-10T08:00:09Z</time>
      </trkpt>
      <trkpt lat="40.696164965629578" lon="-4.073611982166767">
        <ele>1014.408</ele>
        <time>2021-07-10T08:00:11Z</time>
      </trkpt>
      <trkpt lat="40.696534020826221" lon="-4.073455994948745">
        <ele>1015.4400000000001</ele>
        <time>2021-07-10T08:00:13Z</time>
      </trkpt>
      <trkpt lat="40.696720015257597" lon="-4.073376031592488">
        <ele>1016.15</ele>
        <time>2021-07-10T08:00:14Z</time>
      </trkpt>
      <trkpt lat="40.697096027433872" lon="-4.07320998609066">
        <ele>1017.0410000000001</ele>
        <time>2021-07-10T08:00:16Z</time>
      </trkpt>
      <trkpt lat="40.697476984933019" lon="-4.073040001094341">
        <ele>1017.827</ele>
        <time>2021-07-10T08:00:18Z</time>
      </trkpt>
      <trkpt lat="40.697662979364395" lon="-4.072959031909704">
        <ele>1018.669</ele>
        <time>2021-07-10T08:00:19Z</time>
      </trkpt>
      <trkpt lat="40.697848973795772" lon="-4.072919972240925">
        <ele>1019.3920000000001</ele>
        <time>2021-07-10T08:00:20Z</time>
      </trkpt>
      <trkpt lat="40.698207970708609" lon="-4.072765996679664">
        <ele>1020.736</ele>
        <time>2021-07-10T08:00:22Z</time>
      </trkpt>
      <trkpt lat="40.698557998985052" lon="-4.072567010298371">
        <ele>1022.375</ele>
        <time>2021-07-10T08:00:24Z</time>
      </trkpt>
      <trkpt lat="40.69891900755465" lon="-4.07241596840322">
        <ele>1023.977</ele>
        <time>2021-07-10T08:00:26Z</time>
      </trkpt>
      <trkpt lat="40.699094021692872" lon="-4.072346985340118">
        <ele>1025.261</ele>
        <time>2021-07-10T08:00:27Z</time>
      </trkpt>
      <trkpt lat="40.69926199503243" lon="-4.072271967306733">
        <ele>1026.327</ele>
        <time>2021-07-10T08:00:28Z</time>
      </trkpt>
      <trkpt lat="40.699600959196687" lon="-4.072118997573853">
        <ele>1027.4079999999999</ele>
        <time>2021-07-10T08:00:30Z</time>
      </trkpt>
      <trkpt lat="40.699770022183657" lon="-4.072043979540467">
        <ele>1028.614</ele>
        <time>2021-07-10T08:00:31Z</time>
      </trkpt>
      <trkpt lat="40.699936989694834" lon="-4.071970973163843">
        <ele>1029.7940000000001</ele>
        <time>2021-07-10T08:00:32Z</time>
      </trkpt>
      <trkpt lat="40.700260028243065" lon="-4.071836024522781">
        <ele>1030.9549999999999</ele>
        <time>2021-07-10T08:00:34Z</time>
      </trkpt>
      <trkpt lat="40.700412997975945" lon="-4.071762012317777">
        <ele>1031.751</ele>
        <time>2021-07-10T08:00:35Z</time>
      </trkpt>
      <trkpt lat="40.700713992118835" lon="-4.071588004007936">
        <ele>1033.173</ele>
        <time>2021-07-10T08:00:37Z</time>
      </trkpt>
      <trkpt lat="40.700997970998287" lon="-4.071413995698094">
        <ele>1034.346</ele>
        <time>2021-07-10T08:00:39Z</time>
      </trkpt>
      <trkpt lat="40.701134009286761" lon="-4.071332020685077">
        <ele>1035.3199999999999</ele>
        <time>2021-07-10T08:00:40Z</time>
      </trkpt>
      <trkpt lat="40.701400972902775" lon="-4.071162035688758">
        <ele>1036.529</ele>
        <time>2021-07-10T08:00:42Z</time>
      </trkpt>
      <trkpt lat="40.701540028676391" lon="-4.071076037362218">
        <ele>1037.7470000000001</ele>
        <time>2021-07-10T08:00:43Z</time>
      </trkpt>
      <trkpt lat="40.701684029772878" lon="-4.070990961045027">
        <ele>1038.6289999999999</ele>
        <time>2021-07-10T08:00:44Z</time>
      </trkpt>
      <trkpt lat="40.701964991167188" lon="-4.070826005190611">
        <ele>1039.1210000000001</ele>
        <time>2021-07-10T08:00:46Z</time>
      </trkpt>
      <trkpt lat="40.702243018895388" lon="-4.070668006315827">
        <ele>1040.1079999999999</ele>
        <time>2021-07-10T08:00:48Z</time>
      </trkpt>
      <trkpt lat="40.70237603969872" lon="-4.070591982454062">
        <ele>1041.1610000000001</ele>
        <time>2021-07-10T08:00:49Z</time>
      </trkpt>
      <trkpt lat="40.702509982511401" lon="-4.070516964420676">
        <ele>1042.1110000000001</ele>
        <time>2021-07-10T08:00:50Z</time>
      </trkpt>
      <trkpt lat="40.702779041603208" lon="-4.070357959717512">
        <ele>1043.432</ele>
        <time>2021-07-10T08:00:52Z</time>
      </trkpt>
      <trkpt lat="40.702916001901031" lon="-4.070275984704495">
        <ele>1044.6780000000001</ele>
        <time>2021-07-10T08:00:53Z</time>
      </trkpt>
      <trkpt lat="40.703181037679315" lon="-4.070124020799995">
        <ele>1045.6700000000001</ele>
        <time>2021-07-10T08:00:55Z</time>
      </trkpt>
      <trkpt lat="40.703441966325045" lon="-4.069975996389985">
        <ele>1046.7529999999999</ele>
        <time>2021-07-10T08:00:57Z</time>
      </trkpt>
      <trkpt lat="40.703572975471616" lon="-4.069889998063445">
        <ele>1047.6969999999999</ele>
        <time>2021-07-10T08:00:58Z</time>
      </trkpt>
      <trkpt lat="40.703833987936378" lon="-4.069731999188662">
        <ele>1048.546</ele>
        <time>2021-07-10T08:01:00Z</time>
      </trkpt>
      <trkpt lat="40.703959967941046" lon="-4.069657986983657">
        <ele>1049.691</ele>
        <time>2021-07-10T08:01:01Z</time>
      </trkpt>
      <trkpt lat="40.704078990966082" lon="-4.069587998092175">
        <ele>1050.7809999999999</ele>
        <time>2021-07-10T08:01:02Z</time>
      </trkpt>
      <trkpt lat="40.704193990677595" lon="-4.069524966180325">
        <ele>1051.519</ele>
        <time>2021-07-10T08:01:03Z</time>
      </trkpt>
      <trkpt lat="40.704403035342693" lon="-4.06940502114594">
        <ele>1052.6079999999999</ele>
        <time>2021-07-10T08:01:05Z</time>
      </trkpt>
      <trkpt lat="40.704501019790769" lon="-4.06934299506247">
        <ele>1053.9459999999999</ele>
        <time>2021-07-10T08:01:06Z</time>
      </trkpt>
      <trkpt lat="40.7046789675951" lon="-4.069211985915899">
        <ele>1055.2460000000001</ele>
        <time>2021-07-10T08:01:08Z</time>
      </trkpt>
      <trkpt lat="40.704763038083911" lon="-4.069168986752629">
        <ele>1056.027</ele>
        <time>2021-07-10T08:01:09Z</time>
      </trkpt>
      <trkpt lat="40.704878037795424" lon="-4.069116013124585">
        <ele>1056.8630000000001</ele>
        <time>2021-07-10T08:01:11Z</time>
      </trkpt>
      <trkpt lat="40.704931011423469" lon="-4.069053987041116">
        <ele>1058.175</ele>
        <time>2021-07-10T08:01:13Z</time>
      </trkpt>
      <trkpt lat="40.704967975616455" lon="-4.068967988714576">
        <ele>1059.028</ele>
        <time>2021-07-10T08:01:15Z</time>
      </trkpt>
      <trkpt lat="40.705028995871544" lon="-4.068914009258151">
        <ele>1059.2919999999999</ele>
        <time>2021-07-10T08:01:17Z</time>
      </trkpt>
      <trkpt lat="40.704961018636823" lon="-4.069029008969665">
        <ele>1096.181</ele>
        <time>2021-07-10T08:02:44Z</time>
      </trkpt>
      <trkpt lat="40.704964958131313" lon="-4.068962037563324">
        <ele>1079.2729999999999</ele>
        <time>2021-07-10T08:02:45Z</time>
      </trkpt>
      <trkpt lat="40.705098984763026" lon="-4.068963965401053">
        <ele>1061.6849999999999</ele>
        <time>2021-07-10T08:02:49Z</time>
      </trkpt>
      <trkpt lat="40.705258995294571" lon="-4.068951979279518">
        <ele>1061.913</ele>
        <time>2021-07-10T08:02:51Z</time>
      </trkpt>
      <trkpt lat="40.705431997776031" lon="-4.068914009258151">
        <ele>1062.1079999999999</ele>
        <time>2021-07-10T08:02:53Z</time>
      </trkpt>
      <trkpt lat="40.705628972500563" lon="-4.068804038688541">
        <ele>1062.3240000000001</ele>
        <time>2021-07-10T08:02:55Z</time>
      </trkpt>
      <trkpt lat="40.705741960555315" lon="-4.068756010383368">
        <ele>1062.184</ele>
        <time>2021-07-10T08:02:56Z</time>
      </trkpt>
      <trkpt lat="40.705857966095209" lon="-4.068704964593053">
        <ele>1062.2550000000001</ele>
        <time>2021-07-10T08:02:57Z</time>
      </trkpt>
      <trkpt lat="40.705977994948626" lon="-4.068656014278531">
        <ele>1062.261</ele>
        <time>2021-07-10T08:02:58Z</time>
      </trkpt>
      <trkpt lat="40.706097017973661" lon="-4.068604968488216">
        <ele>1062.2329999999999</ele>
        <time>2021-07-10T08:02:59Z</time>
      </trkpt>
      <trkpt lat="40.706341015174985" lon="-4.068531040102243">
        <ele>1062.326</ele>
        <time>2021-07-10T08:03:01Z</time>
      </trkpt>
      <trkpt lat="40.70645903237164" lon="-4.068496003746986">
        <ele>1062.71</ele>
        <time>2021-07-10T08:03:02Z</time>
      </trkpt>
      <trkpt lat="40.706678973510861" lon="-4.068421991541982">
        <ele>1063.1590000000001</ele>
        <time>2021-07-10T08:03:04Z</time>
      </trkpt>
      <trkpt lat="40.706862034276128" lon="-4.068339010700584">
        <ele>1063.2460000000001</ele>
        <time>2021-07-10T08:03:06Z</time>
      </trkpt>
      <trkpt lat="40.707000000402331" lon="-4.068254018202424">
        <ele>1063.588</ele>
        <time>2021-07-10T08:03:08Z</time>
      </trkpt>
      <trkpt lat="40.707038976252079" lon="-4.068205989897251">
        <ele>1063.7159999999999</ele>
        <time>2021-07-10T08:03:09Z</time>
      </trkpt>
      <trkpt lat="40.707064038142562" lon="-4.068139018490911">
        <ele>1064.4079999999999</ele>
        <time>2021-07-10T08:03:11Z</time>
      </trkpt>
      <trkpt lat="40.707106031477451" lon="-4.068098030984402">
        <ele>1065.5709999999999</ele>
        <time>2021-07-10T08:03:15Z</time>
      </trkpt>
      <trkpt lat="40.707150958478451" lon="-4.068093001842499">
        <ele>1065.8409999999999</ele>
        <time>2021-07-10T08:03:17Z</time>
      </trkpt>
      <trkpt lat="40.707183983176947" lon="-4.068134995177388">
        <ele>1066.992</ele>
        <time>2021-07-10T08:03:22Z</time>
      </trkpt>
      <trkpt lat="40.707256989553571" lon="-4.068184029310942">
        <ele>1067.518</ele>
        <time>2021-07-10T08:03:25Z</time>
      </trkpt>
      <trkpt lat="40.70731901563704" lon="-4.068228034302592">
        <ele>1067.9200000000001</ele>
        <time>2021-07-10T08:03:27Z</time>
      </trkpt>
      <trkpt lat="40.707395961508155" lon="-4.068274972960353">
        <ele>1068.183</ele>
        <time>2021-07-10T08:03:29Z</time>
      </trkpt>
      <trkpt lat="40.707597965374589" lon="-4.068403970450163">
        <ele>1068.277</ele>
        <time>2021-07-10T08:03:31Z</time>
      </trkpt>
      <trkpt lat="40.707783037796617" lon="-4.068518970161676">
        <ele>1068.356</ele>
        <time>2021-07-10T08:03:33Z</time>
      </trkpt>
      <trkpt lat="40.707869036123157" lon="-4.068563980981708">
        <ele>1068.367</ele>
        <time>2021-07-10T08:03:34Z</time>
      </trkpt>
      <trkpt lat="40.70802896283567" lon="-4.068670012056828">
        <ele>1068.3810000000001</ele>
        <time>2021-07-10T08:03:36Z</time>
      </trkpt>
      <trkpt lat="40.708171958103776" lon="-4.068816024810076">
        <ele>1068.319</ele>
        <time>2021-07-10T08:03:38Z</time>
      </trkpt>
      <trkpt lat="40.708301039412618" lon="-4.068974023684859">
        <ele>1068.308</ele>
        <time>2021-07-10T08:03:40Z</time>
      </trkpt>
      <trkpt lat="40.708430958911777" lon="-4.069120036438108">
        <ele>1068.3430000000001</ele>
        <time>2021-07-10T08:03:42Z</time>
      </trkpt>
      <trkpt lat="40.708562973886728" lon="-4.069280968979001">
        <ele>1068.383</ele>
        <time>2021-07-10T08:03:44Z</time>
      </trkpt>
      <trkpt lat="40.708700018003583" lon="-4.069436034187675">
        <ele>1068.364</ele>
        <time>2021-07-10T08:03:46Z</time>
      </trkpt>
      <trkpt lat="40.708833960816264" lon="-4.069581963121891">
        <ele>1068.3699999999999</ele>
        <time>2021-07-10T08:03:48Z</time>
      </trkpt>
      <trkpt lat="40.708949966356158" lon="-4.069743985310197">
        <ele>1068.3119999999999</ele>
        <time>2021-07-10T08:03:50Z</time>
      </trkpt>
      <trkpt lat="40.709005035459995" lon="-4.069834006950259">
        <ele>1068.385</ele>
        <time>2021-07-10T08:03:51Z</time>
      </trkpt>
      <trkpt lat="40.709087010473013" lon="-4.070014972239733">
        <ele>1068.3989999999999</ele>
        <time>2021-07-10T08:03:53Z</time>
      </trkpt>
      <trkpt lat="40.709164040163159" lon="-4.070200966671109">
        <ele>1068.3779999999999</ele>
        <time>2021-07-10T08:03:55Z</time>
      </trkpt>
      <trkpt lat="40.709196981042624" lon="-4.070281013846397">
        <ele>1068.3869999999999</ele>
        <time>2021-07-10T08:03:56Z</time>
      </trkpt>
      <trkpt lat="40.709252972155809" lon="-4.070419985800982">
        <ele>1068.3420000000001</ele>
        <time>2021-07-10T08:03:58Z</time>
      </trkpt>
      <trkpt lat="40.709284991025925" lon="-4.070493998005986">
        <ele>1068.326</ele>
        <time>2021-07-10T08:03:59Z</time>
      </trkpt>
      <trkpt lat="40.709373001009226" lon="-4.070668006315827">
        <ele>1068.308</ele>
        <time>2021-07-10T08:04:01Z</time>
      </trkpt>
      <trkpt lat="40.709413988515735" lon="-4.070775965228677">
        <ele>1068.385</ele>
        <time>2021-07-10T08:04:02Z</time>
      </trkpt>
      <trkpt lat="40.709484983235598" lon="-4.071027003228664">
        <ele>1068.365</ele>
        <time>2021-07-10T08:04:04Z</time>
      </trkpt>
      <trkpt lat="40.70955203846097" lon="-4.071291033178568">
        <ele>1068.346</ele>
        <time>2021-07-10T08:04:06Z</time>
      </trkpt>
      <trkpt lat="40.709584979340434" lon="-4.071422964334488">
        <ele>1068.3219999999999</ele>
        <time>2021-07-10T08:04:07Z</time>
      </trkpt>
      <trkpt lat="40.709620015695691" lon="-4.071550033986569">
        <ele>1068.384</ele>
        <time>2021-07-10T08:04:08Z</time>
      </trkpt>
      <trkpt lat="40.709723029285669" lon="-4.071787996217609">
        <ele>1068.3969999999999</ele>
        <time>2021-07-10T08:04:10Z</time>
      </trkpt>
      <trkpt lat="40.709776002913713" lon="-4.071882041171193">
        <ele>1068.3109999999999</ele>
        <time>2021-07-10T08:04:11Z</time>
      </trkpt>
      <trkpt lat="40.709823025390506" lon="-4.07196200452745">
        <ele>1068.3299999999999</ele>
        <time>2021-07-10T08:04:12Z</time>
      </trkpt>
      <trkpt lat="40.70989603176713" lon="-4.072080021724105">
        <ele>1068.3879999999999</ele>
        <time>2021-07-10T08:04:14Z</time>
      </trkpt>
      <trkpt lat="40.709957974031568" lon="-4.072129977867007">
        <ele>1068.3240000000001</ele>
        <time>2021-07-10T08:04:16Z</time>
      </trkpt>
      <trkpt lat="40.710018994286656" lon="-4.072083039209247">
        <ele>1068.326</ele>
        <time>2021-07-10T08:04:18Z</time>
      </trkpt>
      <trkpt lat="40.710059981793165" lon="-4.072040962055326">
        <ele>1068.308</ele>
        <time>2021-07-10T08:04:19Z</time>
      </trkpt>
      <trkpt lat="40.710169030353427" lon="-4.071934008970857">
        <ele>1064.395</ele>
        <time>2021-07-10T08:04:21Z</time>
      </trkpt>
      <trkpt lat="40.710304984822869" lon="-4.071806017309427">
        <ele>1060.335</ele>
        <time>2021-07-10T08:04:23Z</time>
      </trkpt>
      <trkpt lat="40.710450997576118" lon="-4.071666039526463">
        <ele>1056.356</ele>
        <time>2021-07-10T08:04:25Z</time>
      </trkpt>
      <trkpt lat="40.710594998672605" lon="-4.071537964046001">
        <ele>1052.3920000000001</ele>
        <time>2021-07-10T08:04:27Z</time>
      </trkpt>
      <trkpt lat="40.710664987564087" lon="-4.071475015953183">
        <ele>1048.394</ele>
        <time>2021-07-10T08:04:28Z</time>
      </trkpt>
      <trkpt lat="40.710803959518671" lon="-4.071352975443006">
        <ele>1044.7170000000001</ele>
        <time>2021-07-10T08:04:30Z</time>
      </trkpt>
      <trkpt lat="40.710872020572424" lon="-4.071284998208284">
        <ele>1042.761</ele>
        <time>2021-07-10T08:04:31Z</time>
      </trkpt>
      <trkpt lat="40.710942009463906" lon="-4.071221966296434">
        <ele>1041.99</ele>
        <time>2021-07-10T08:04:32Z</time>
      </trkpt>
      <trkpt lat="40.711083998903632" lon="-4.071091962978244">
        <ele>1041.317</ele>
        <time>2021-07-10T08:04:34Z</time>
      </trkpt>
      <trkpt lat="40.711225988343358" lon="-4.070964977145195">
        <ele>1041.4870000000001</ele>
        <time>2021-07-10T08:04:36Z</time>
      </trkpt>
      <trkpt lat="40.711293965578079" lon="-4.070902029052377">
        <ele>1040.915</ele>
        <time>2021-07-10T08:04:37Z</time>
      </trkpt>
      <trkpt lat="40.711356997489929" lon="-4.070843020454049">
        <ele>1040.808</ele>
        <time>2021-07-10T08:04:38Z</time>
      </trkpt>
      <trkpt lat="40.711471997201443" lon="-4.070727014914155">
        <ele>1041.338</ele>
        <time>2021-07-10T08:04:40Z</time>
      </trkpt>
      <trkpt lat="40.711548021063209" lon="-4.070659959688783">
        <ele>1041.9780000000001</ele>
        <time>2021-07-10T08:04:42Z</time>
      </trkpt>
      <trkpt lat="40.71159596554935" lon="-4.07065199688077">
        <ele>1042.3589999999999</ele>
        <time>2021-07-10T08:04:46Z</time>
      </trkpt>
      <trkpt lat="40.711649022996426" lon="-4.070690972730517">
        <ele>1042.355</ele>
        <time>2021-07-10T08:04:48Z</time>
      </trkpt>
      <trkpt lat="40.711708031594753" lon="-4.070816030725837">
        <ele>1041.9269999999999</ele>
        <time>2021-07-10T08:04:50Z</time>
      </trkpt>
      <trkpt lat="40.711747007444501" lon="-4.070894988253713">
        <ele>1041.28</ele>
        <time>2021-07-10T08:04:51Z</time>
      </trkpt>
      <trkpt lat="40.711836023256183" lon="-4.07105902209878">
        <ele>1040.854</ele>
        <time>2021-07-10T08:04:53Z</time>
      </trkpt>
      <trkpt lat="40.711883967742324" lon="-4.071151977404952">
        <ele>1039.913</ele>
        <time>2021-07-10T08:04:54Z</time>
      </trkpt>
      <trkpt lat="40.711972983554006" lon="-4.07134098932147">
        <ele>1039.134</ele>
        <time>2021-07-10T08:04:56Z</time>
      </trkpt>
      <trkpt lat="40.712050013244152" lon="-4.07151198014617">
        <ele>1038.2550000000001</ele>
        <time>2021-07-10T08:04:58Z</time>
      </trkpt>
      <trkpt lat="40.712139029055834" lon="-4.071628991514444">
        <ele>1037.01</ele>
        <time>2021-07-10T08:05:00Z</time>
      </trkpt>
      <trkpt lat="40.712222009897232" lon="-4.071655981242657">
        <ele>1036.4079999999999</ele>
        <time>2021-07-10T08:05:02Z</time>
      </trkpt>
      <trkpt lat="40.712298033758998" lon="-4.07161801122129">
        <ele>1036.52</ele>
        <time>2021-07-10T08:05:04Z</time>
      </trkpt>
      <trkpt lat="40.712340027093887" lon="-4.071573000401259">
        <ele>1036.5799999999999</ele>
        <time>2021-07-10T08:05:05Z</time>
      </trkpt>
      <trkpt lat="40.712425019592047" lon="-4.071483984589577">
        <ele>1036.5709999999999</ele>
        <time>2021-07-10T08:05:07Z</time>
      </trkpt>
      <trkpt lat="40.7125189807266" lon="-4.071389017626643">
        <ele>1036.617</ele>
        <time>2021-07-10T08:05:09Z</time>
      </trkpt>
      <trkpt lat="40.712623000144958" lon="-4.071292961016297">
        <ele>1036.6289999999999</ele>
        <time>2021-07-10T08:05:11Z</time>
      </trkpt>
      <trkpt lat="40.712678991258144" lon="-4.071243004873395">
        <ele>1036.912</ele>
        <time>2021-07-10T08:05:12Z</time>
      </trkpt>
      <trkpt lat="40.712788961827755" lon="-4.071139991283417">
        <ele>1037.576</ele>
        <time>2021-07-10T08:05:14Z</time>
      </trkpt>
      <trkpt lat="40.712901027873158" lon="-4.071034966036677">
        <ele>1038.085</ele>
        <time>2021-07-10T08:05:16Z</time>
      </trkpt>
      <trkpt lat="40.713009992614388" lon="-4.070927007123828">
        <ele>1038.3240000000001</ele>
        <time>2021-07-10T08:05:18Z</time>
      </trkpt>
      <trkpt lat="40.713061960414052" lon="-4.070874033495784">
        <ele>1038.5039999999999</ele>
        <time>2021-07-10T08:05:19Z</time>
      </trkpt>
      <trkpt lat="40.713176038116217" lon="-4.070774959400296">
        <ele>1038.914</ele>
        <time>2021-07-10T08:05:21Z</time>
      </trkpt>
      <trkpt lat="40.71329003199935" lon="-4.070659959688783">
        <ele>1039.4079999999999</ele>
        <time>2021-07-10T08:05:23Z</time>
      </trkpt>
      <trkpt lat="40.713409977033734" lon="-4.070555018261075">
        <ele>1039.789</ele>
        <time>2021-07-10T08:05:25Z</time>
      </trkpt>
      <trkpt lat="40.713472003117204" lon="-4.07050103880465">
        <ele>1039.9190000000001</ele>
        <time>2021-07-10T08:05:26Z</time>
      </trkpt>
      <trkpt lat="40.713589014485478" lon="-4.070378998294473">
        <ele>1040.25</ele>
        <time>2021-07-10T08:05:28Z</time>
      </trkpt>
      <trkpt lat="40.713641988113523" lon="-4.070310015231371">
        <ele>1040.9659999999999</ele>
        <time>2021-07-10T08:05:29Z</time>
      </trkpt>
      <trkpt lat="40.713707031682134" lon="-4.0701599791646">
        <ele>1042.268</ele>
        <time>2021-07-10T08:05:31Z</time>
      </trkpt>
      <trkpt lat="40.713731003925204" lon="-4.069980019703507">
        <ele>1043.251</ele>
        <time>2021-07-10T08:05:33Z</time>
      </trkpt>
      <trkpt lat="40.713737960904837" lon="-4.069886980578303">
        <ele>1044.365</ele>
        <time>2021-07-10T08:05:34Z</time>
      </trkpt>
      <trkpt lat="40.713745001703501" lon="-4.0697490144521">
        <ele>1045.5440000000001</ele>
        <time>2021-07-10T08:05:36Z</time>
      </trkpt>
      <trkpt lat="40.713746007531881" lon="-4.069701991975308">
        <ele>1057.578</ele>
        <time>2021-07-10T08:07:36Z</time>
      </trkpt>
      <trkpt lat="40.713737960904837" lon="-4.069613981992006">
        <ele>1046.133</ele>
        <time>2021-07-10T08:07:39Z</time>
      </trkpt>
      <trkpt lat="40.713793030008674" lon="-4.069526977837086">
        <ele>1046.626</ele>
        <time>2021-07-10T08:07:41Z</time>
      </trkpt>
      <trkpt lat="40.713887996971607" lon="-4.069454977288842">
        <ele>1046.6079999999999</ele>
        <time>2021-07-10T08:07:43Z</time>
      </trkpt>
      <trkpt lat="40.713940970599651" lon="-4.06940502114594">
        <ele>1046.624</ele>
        <time>2021-07-10T08:07:44Z</time>
      </trkpt>
      <trkpt lat="40.713996961712837" lon="-4.069353975355625">
        <ele>1046.354</ele>
        <time>2021-07-10T08:07:45Z</time>
      </trkpt>
      <trkpt lat="40.714059993624687" lon="-4.069296978414059">
        <ele>1045.7349999999999</ele>
        <time>2021-07-10T08:07:46Z</time>
      </trkpt>
      <trkpt lat="40.714197037741542" lon="-4.069172004237771">
        <ele>1045.1610000000001</ele>
        <time>2021-07-10T08:07:48Z</time>
      </trkpt>
      <trkpt lat="40.714316982775927" lon="-4.06906396150589">
        <ele>1045.0129999999999</ele>
        <time>2021-07-10T08:07:50Z</time>
      </trkpt>
      <trkpt lat="40.714357970282435" lon="-4.06901802867651">
        <ele>1045.4459999999999</ele>
        <time>2021-07-10T08:07:51Z</time>
      </trkpt>
      <trkpt lat="40.714385965839028" lon="-4.068960025906563">
        <ele>1045.55</ele>
        <time>2021-07-10T08:07:53Z</time>
      </trkpt>
      <trkpt lat="40.714384960010648" lon="-4.068879978731275">
        <ele>1045.8889999999999</ele>
        <time>2021-07-10T08:07:56Z</time>
      </trkpt>
      <trkpt lat="40.714335003867745" lon="-4.068787023425102">
        <ele>1046.1320000000001</ele>
        <time>2021-07-10T08:07:58Z</time>
      </trkpt>
      <trkpt lat="40.714282030239701" lon="-4.068631958216429">
        <ele>1046.7919999999999</ele>
        <time>2021-07-10T08:08:00Z</time>
      </trkpt>
      <trkpt lat="40.714269038289785" lon="-4.068535985425115">
        <ele>1046.9110000000001</ele>
        <time>2021-07-10T08:08:01Z</time>
      </trkpt>
      <trkpt lat="40.714267026633024" lon="-4.068435989320278">
        <ele>1047.308</ele>
        <time>2021-07-10T08:08:02Z</time>
      </trkpt>
      <trkpt lat="40.714266020804644" lon="-4.068223005160689">
        <ele>1047.8699999999999</ele>
        <time>2021-07-10T08:08:04Z</time>
      </trkpt>
      <trkpt lat="40.714221009984612" lon="-4.06800901517272">
        <ele>1048.6400000000001</ele>
        <time>2021-07-10T08:08:06Z</time>
      </trkpt>
      <trkpt lat="40.714152026921511" lon="-4.067827966064215">
        <ele>1049.6510000000001</ele>
        <time>2021-07-10T08:08:08Z</time>
      </trkpt>
      <trkpt lat="40.714101986959577" lon="-4.067755965515971">
        <ele>1050.4670000000001</ele>
        <time>2021-07-10T08:08:09Z</time>
      </trkpt>
      <trkpt lat="40.714002996683121" lon="-4.06764498911798">
        <ele>1051.3889999999999</ele>
        <time>2021-07-10T08:08:11Z</time>
      </trkpt>
      <trkpt lat="40.71393895894289" lon="-4.067542981356382">
        <ele>1052.0820000000001</ele>
        <time>2021-07-10T08:08:13Z</time>
      </trkpt>
      <trkpt lat="40.713910963386297" lon="-4.067425969988108">
        <ele>1053.4659999999999</ele>
        <time>2021-07-10T08:08:15Z</time>
      </trkpt>
      <trkpt lat="40.713832005858421" lon="-4.06727802939713">
        <ele>1054.375</ele>
        <time>2021-07-10T08:08:17Z</time>
      </trkpt>
      <trkpt lat="40.71378598921001" lon="-4.067197982221842">
        <ele>1054.8119999999999</ele>
        <time>2021-07-10T08:08:18Z</time>
      </trkpt>
      <trkpt lat="40.71367702446878" lon="-4.067036965861917">
        <ele>1055.8320000000001</ele>
        <time>2021-07-10T08:08:20Z</time>
      </trkpt>
      <trkpt lat="40.713523970916867" lon="-4.066941998898983">
        <ele>1056.5050000000001</ele>
        <time>2021-07-10T08:08:22Z</time>
      </trkpt>
      <trkpt lat="40.713439984247088" lon="-4.066920960322022">
        <ele>1057.1079999999999</ele>
        <time>2021-07-10T08:08:23Z</time>
      </trkpt>
      <trkpt lat="40.713352980092168" lon="-4.066891958937049">
        <ele>1057.518</ele>
        <time>2021-07-10T08:08:24Z</time>
      </trkpt>
      <trkpt lat="40.713189030066133" lon="-4.066802021116018">
        <ele>1058.3579999999999</ele>
        <time>2021-07-10T08:08:26Z</time>
      </trkpt>
      <trkpt lat="40.713119963183999" lon="-4.066731026396155">
        <ele>1058.829</ele>
        <time>2021-07-10T08:08:27Z</time>
      </trkpt>
      <trkpt lat="40.713004041463137" lon="-4.066563975065947">
        <ele>1059.4949999999999</ele>
        <time>2021-07-10T08:08:29Z</time>
      </trkpt>
      <trkpt lat="40.712903961539268" lon="-4.066369011998177">
        <ele>1060.2270000000001</ele>
        <time>2021-07-10T08:08:31Z</time>
      </trkpt>
      <trkpt lat="40.712852999567986" lon="-4.066264992579818">
        <ele>1060.8900000000001</ele>
        <time>2021-07-10T08:08:32Z</time>
      </trkpt>
      <trkpt lat="40.712759960442781" lon="-4.066049996763468">
        <ele>1061.9639999999999</ele>
        <time>2021-07-10T08:08:34Z</time>
      </trkpt>
      <trkpt lat="40.712726013734937" lon="-4.065956035628915">
        <ele>1062.7729999999999</ele>
        <time>2021-07-10T08:08:35Z</time>
      </trkpt>
      <trkpt lat="40.712670022621751" lon="-4.065837012603879">
        <ele>1063.569</ele>
        <time>2021-07-10T08:08:37Z</time>
      </trkpt>
      <trkpt lat="40.712644960731268" lon="-4.065785966813564">
        <ele>1064.5039999999999</ele>
        <time>2021-07-10T08:08:38Z</time>
      </trkpt>
      <trkpt lat="40.712558040395379" lon="-4.065659986808896">
        <ele>1065.5239999999999</ele>
        <time>2021-07-10T08:08:40Z</time>
      </trkpt>
      <trkpt lat="40.712482016533613" lon="-4.065481033176184">
        <ele>1066.808</ele>
        <time>2021-07-10T08:08:42Z</time>
      </trkpt>
      <trkpt lat="40.712400041520596" lon="-4.065305013209581">
        <ele>1068.0129999999999</ele>
        <time>2021-07-10T08:08:44Z</time>
      </trkpt>
      <trkpt lat="40.712366010993719" lon="-4.065214991569519">
        <ele>1069.0429999999999</ele>
        <time>2021-07-10T08:08:45Z</time>
      </trkpt>
      <trkpt lat="40.712288981303573" lon="-4.065041989088059">
        <ele>1070.0540000000001</ele>
        <time>2021-07-10T08:08:47Z</time>
      </trkpt>
      <trkpt lat="40.712212035432458" lon="-4.064893964678049">
        <ele>1071.1800000000001</ele>
        <time>2021-07-10T08:08:49Z</time>
      </trkpt>
      <trkpt lat="40.712181022390723" lon="-4.064837973564863">
        <ele>1071.992</ele>
        <time>2021-07-10T08:08:50Z</time>
      </trkpt>
      <trkpt lat="40.712136011570692" lon="-4.064766978845">
        <ele>1072.675</ele>
        <time>2021-07-10T08:08:52Z</time>
      </trkpt>
      <trkpt lat="40.712060993537307" lon="-4.064687015488744">
        <ele>1073.499</ele>
        <time>2021-07-10T08:08:54Z</time>
      </trkpt>
      <trkpt lat="40.712035009637475" lon="-4.064631024375558">
        <ele>1073.9880000000001</ele>
        <time>2021-07-10T08:08:55Z</time>
      </trkpt>
      <trkpt lat="40.712037021294236" lon="-4.064562963321805">
        <ele>1074.5250000000001</ele>
        <time>2021-07-10T08:08:56Z</time>
      </trkpt>
      <trkpt lat="40.712114972993731" lon="-4.06446497887373">
        <ele>1074.9259999999999</ele>
        <time>2021-07-10T08:08:58Z</time>
      </trkpt>
      <trkpt lat="40.712245982140303" lon="-4.064479982480407">
        <ele>1074.808</ele>
        <time>2021-07-10T08:09:00Z</time>
      </trkpt>
      <trkpt lat="40.712322006002069" lon="-4.064512001350522">
        <ele>1074.7080000000001</ele>
        <time>2021-07-10T08:09:01Z</time>
      </trkpt>
      <trkpt lat="40.712488973513246" lon="-4.064553994685412">
        <ele>1074.749</ele>
        <time>2021-07-10T08:09:03Z</time>
      </trkpt>
      <trkpt lat="40.712681002914906" lon="-4.064533039927483">
        <ele>1074.3789999999999</ele>
        <time>2021-07-10T08:09:05Z</time>
      </trkpt>
      <trkpt lat="40.712793990969658" lon="-4.064507978037">
        <ele>1073.96</ele>
        <time>2021-07-10T08:09:06Z</time>
      </trkpt>
      <trkpt lat="40.713043017312884" lon="-4.064470008015633">
        <ele>1074.086</ele>
        <time>2021-07-10T08:09:08Z</time>
      </trkpt>
      <trkpt lat="40.713339988142252" lon="-4.064417034387589">
        <ele>1074.078</ele>
        <time>2021-07-10T08:09:10Z</time>
      </trkpt>
      <trkpt lat="40.71350896731019" lon="-4.064390966668725">
        <ele>1074.3309999999999</ele>
        <time>2021-07-10T08:09:11Z</time>
      </trkpt>
      <trkpt lat="40.713836029171944" lon="-4.064332963898778">
        <ele>1074.4949999999999</ele>
        <time>2021-07-10T08:09:13Z</time>
      </trkpt>
      <trkpt lat="40.713999979197979" lon="-4.064303040504456">
        <ele>1074.2840000000001</ele>
        <time>2021-07-10T08:09:14Z</time>
      </trkpt>
      <trkpt lat="40.714327041059732" lon="-4.064251994714141">
        <ele>1073.579</ele>
        <time>2021-07-10T08:09:16Z</time>
      </trkpt>
      <trkpt lat="40.71449501439929" lon="-4.06422701664269">
        <ele>1073.3050000000001</ele>
        <time>2021-07-10T08:09:17Z</time>
      </trkpt>
      <trkpt lat="40.714812017977238" lon="-4.064159039407969">
        <ele>1072.925</ele>
        <time>2021-07-10T08:09:19Z</time>
      </trkpt>
      <trkpt lat="40.714983008801937" lon="-4.064115034416318">
        <ele>1073.2080000000001</ele>
        <time>2021-07-10T08:09:20Z</time>
      </trkpt>
      <trkpt lat="40.715166991576552" lon="-4.064058037474752">
        <ele>1072.934</ele>
        <time>2021-07-10T08:09:21Z</time>
      </trkpt>
      <trkpt lat="40.715500004589558" lon="-4.063916970044375">
        <ele>1073.2539999999999</ele>
        <time>2021-07-10T08:09:23Z</time>
      </trkpt>
      <trkpt lat="40.715673007071018" lon="-4.063833989202976">
        <ele>1073.7650000000001</ele>
        <time>2021-07-10T08:09:24Z</time>
      </trkpt>
      <trkpt lat="40.716013982892036" lon="-4.063630979508162">
        <ele>1075.0309999999999</ele>
        <time>2021-07-10T08:09:26Z</time>
      </trkpt>
      <trkpt lat="40.716309025883675" lon="-4.063416989520192">
        <ele>1076.8330000000001</ele>
        <time>2021-07-10T08:09:28Z</time>
      </trkpt>
      <trkpt lat="40.716597028076649" lon="-4.06315497122705">
        <ele>1078.4159999999999</ele>
        <time>2021-07-10T08:09:30Z</time>
      </trkpt>
      <trkpt lat="40.716856028884649" lon="-4.062879038974643">
        <ele>1080.3599999999999</ele>
        <time>2021-07-10T08:09:32Z</time>
      </trkpt>
      <trkpt lat="40.716995000839233" lon="-4.062720034271479">
        <ele>1081.8689999999999</ele>
        <time>2021-07-10T08:09:33Z</time>
      </trkpt>
      <trkpt lat="40.717257019132376" lon="-4.062408981844783">
        <ele>1083.7909999999999</ele>
        <time>2021-07-10T08:09:35Z</time>
      </trkpt>
      <trkpt lat="40.717392973601818" lon="-4.062246959656477">
        <ele>1085.3810000000001</ele>
        <time>2021-07-10T08:09:36Z</time>
      </trkpt>
      <trkpt lat="40.717663038522005" lon="-4.061930039897561">
        <ele>1087.019</ele>
        <time>2021-07-10T08:09:38Z</time>
      </trkpt>
      <trkpt lat="40.717922961339355" lon="-4.061616975814104">
        <ele>1089.2080000000001</ele>
        <time>2021-07-10T08:09:40Z</time>
      </trkpt>
      <trkpt lat="40.718043996021152" lon="-4.061454031616449">
        <ele>1091.1559999999999</ele>
        <time>2021-07-10T08:09:41Z</time>
      </trkpt>
      <trkpt lat="40.718153966590762" lon="-4.061278011649847">
        <ele>1092.6959999999999</ele>
        <time>2021-07-10T08:09:42Z</time>
      </trkpt>
      <trkpt lat="40.718337027356029" lon="-4.060883978381753">
        <ele>1094.627</ele>
        <time>2021-07-10T08:09:44Z</time>
      </trkpt>
      <trkpt lat="40.718457978218794" lon="-4.060442000627518">
        <ele>1096.0830000000001</ele>
        <time>2021-07-10T08:09:46Z</time>
      </trkpt>
      <trkpt lat="40.71851204149425" lon="-4.059960963204503">
        <ele>1098.5450000000001</ele>
        <time>2021-07-10T08:09:48Z</time>
      </trkpt>
      <trkpt lat="40.718489997088909" lon="-4.059495013207197">
        <ele>1101.1579999999999</ele>
        <time>2021-07-10T08:09:50Z</time>
      </trkpt>
      <trkpt lat="40.718443980440497" lon="-4.059005007147789">
        <ele>1103.732</ele>
        <time>2021-07-10T08:09:52Z</time>
      </trkpt>
      <trkpt lat="40.718416990712285" lon="-4.058741983026266">
        <ele>1105.211</ele>
        <time>2021-07-10T08:09:53Z</time>
      </trkpt>
      <trkpt lat="40.718400981277227" lon="-4.058501003310084">
        <ele>1106.2249999999999</ele>
        <time>2021-07-10T08:09:54Z</time>
      </trkpt>
      <trkpt lat="40.718402992933989" lon="-4.058027006685734">
        <ele>1106.826</ele>
        <time>2021-07-10T08:09:56Z</time>
      </trkpt>
      <trkpt lat="40.718425959348679" lon="-4.057780997827649">
        <ele>1107.2080000000001</ele>
        <time>2021-07-10T08:09:57Z</time>
      </trkpt>
      <trkpt lat="40.718516986817122" lon="-4.057269031181932">
        <ele>1107.6079999999999</ele>
        <time>2021-07-10T08:09:59Z</time>
      </trkpt>
      <trkpt lat="40.718630980700254" lon="-4.056785982102156">
        <ele>1108.1489999999999</ele>
        <time>2021-07-10T08:10:01Z</time>
      </trkpt>
      <trkpt lat="40.718696024268866" lon="-4.05653603374958">
        <ele>1108.739</ele>
        <time>2021-07-10T08:10:02Z</time>
      </trkpt>
      <trkpt lat="40.718757966533303" lon="-4.05628097243607">
        <ele>1109.6199999999999</ele>
        <time>2021-07-10T08:10:03Z</time>
      </trkpt>
      <trkpt lat="40.718811023980379" lon="-4.056034963577986">
        <ele>1110.9159999999999</ele>
        <time>2021-07-10T08:10:04Z</time>
      </trkpt>
      <trkpt lat="40.718873972073197" lon="-4.055583011358976">
        <ele>1112.598</ele>
        <time>2021-07-10T08:10:06Z</time>
      </trkpt>
      <trkpt lat="40.718886964023113" lon="-4.055343037471175">
        <ele>1113.5309999999999</ele>
        <time>2021-07-10T08:10:07Z</time>
      </trkpt>
      <trkpt lat="40.718894004821777" lon="-4.055111026391387">
        <ele>1114.425</ele>
        <time>2021-07-10T08:10:08Z</time>
      </trkpt>
      <trkpt lat="40.718900039792061" lon="-4.054892007261515">
        <ele>1115.134</ele>
        <time>2021-07-10T08:10:09Z</time>
      </trkpt>
      <trkpt lat="40.718914037570357" lon="-4.0546889975667">
        <ele>1115.4359999999999</ele>
        <time>2021-07-10T08:10:10Z</time>
      </trkpt>
      <trkpt lat="40.71894396096468" lon="-4.05449696816504">
        <ele>1115.7170000000001</ele>
        <time>2021-07-10T08:10:11Z</time>
      </trkpt>
      <trkpt lat="40.719085028395057" lon="-4.054159009829164">
        <ele>1116.018</ele>
        <time>2021-07-10T08:10:13Z</time>
      </trkpt>
      <trkpt lat="40.719314021989703" lon="-4.053892968222499">
        <ele>1116.7080000000001</ele>
        <time>2021-07-10T08:10:15Z</time>
      </trkpt>
      <trkpt lat="40.719589032232761" lon="-4.053693981841207">
        <ele>1118.1400000000001</ele>
        <time>2021-07-10T08:10:17Z</time>
      </trkpt>
      <trkpt lat="40.719874016940594" lon="-4.053490972146392">
        <ele>1119.6500000000001</ele>
        <time>2021-07-10T08:10:19Z</time>
      </trkpt>
      <trkpt lat="40.720098987221718" lon="-4.053281005471945">
        <ele>1121.481</ele>
        <time>2021-07-10T08:10:21Z</time>
      </trkpt>
      <trkpt lat="40.720183979719877" lon="-4.05314102768898">
        <ele>1123.127</ele>
        <time>2021-07-10T08:10:22Z</time>
      </trkpt>
      <trkpt lat="40.720309959724545" lon="-4.052812959998846">
        <ele>1124.489</ele>
        <time>2021-07-10T08:10:24Z</time>
      </trkpt>
      <trkpt lat="40.720421019941568" lon="-4.052482964470983">
        <ele>1126.412</ele>
        <time>2021-07-10T08:10:26Z</time>
      </trkpt>
      <trkpt lat="40.720480028539896" lon="-4.052309961989522">
        <ele>1127.9760000000001</ele>
        <time>2021-07-10T08:10:27Z</time>
      </trkpt>
      <trkpt lat="40.720626041293144" lon="-4.051978038623929">
        <ele>1128.7750000000001</ele>
        <time>2021-07-10T08:10:29Z</time>
      </trkpt>
      <trkpt lat="40.720827961340547" lon="-4.051700010895729">
        <ele>1129.364</ele>
        <time>2021-07-10T08:10:31Z</time>
      </trkpt>
      <trkpt lat="40.721094002947211" lon="-4.051432041451335">
        <ele>1130.306</ele>
        <time>2021-07-10T08:10:33Z</time>
      </trkpt>
      <trkpt lat="40.721234986558557" lon="-4.051292985677719">
        <ele>1131.9159999999999</ele>
        <time>2021-07-10T08:10:34Z</time>
      </trkpt>
      <trkpt lat="40.721368007361889" lon="-4.05114596709609">
        <ele>1133.2080000000001</ele>
        <time>2021-07-10T08:10:35Z</time>
      </trkpt>
      <trkpt lat="40.721591971814632" lon="-4.050814965739846">
        <ele>1134.633</ele>
        <time>2021-07-10T08:10:37Z</time>
      </trkpt>
      <trkpt lat="40.721682999283075" lon="-4.050635006278753">
        <ele>1135.883</ele>
        <time>2021-07-10T08:10:38Z</time>
      </trkpt>
      <trkpt lat="40.721765980124474" lon="-4.050454962998629">
        <ele>1136.894</ele>
        <time>2021-07-10T08:10:39Z</time>
      </trkpt>
      <trkpt lat="40.721848038956523" lon="-4.050281038507819">
        <ele>1138.29</ele>
        <time>2021-07-10T08:10:40Z</time>
      </trkpt>
      <trkpt lat="40.722033027559519" lon="-4.049991024658084">
        <ele>1139.1120000000001</ele>
        <time>2021-07-10T08:10:42Z</time>
      </trkpt>
      <trkpt lat="40.722142998129129" lon="-4.049890022724867">
        <ele>1140.085</ele>
        <time>2021-07-10T08:10:43Z</time>
      </trkpt>
      <trkpt lat="40.72227300144732" lon="-4.04983201995492">
        <ele>1140.5889999999999</ele>
        <time>2021-07-10T08:10:44Z</time>
      </trkpt>
      <trkpt lat="40.722409039735794" lon="-4.049819028005004">
        <ele>1141.018</ele>
        <time>2021-07-10T08:10:45Z</time>
      </trkpt>
      <trkpt lat="40.722688995301723" lon="-4.049850963056088">
        <ele>1141.865</ele>
        <time>2021-07-10T08:10:47Z</time>
      </trkpt>
      <trkpt lat="40.722842970862985" lon="-4.04987602494657">
        <ele>1142.268</ele>
        <time>2021-07-10T08:10:48Z</time>
      </trkpt>
      <trkpt lat="40.723001975566149" lon="-4.049899997189641">
        <ele>1142.414</ele>
        <time>2021-07-10T08:10:49Z</time>
      </trkpt>
      <trkpt lat="40.723344963043928" lon="-4.049945008009672">
        <ele>1143.508</ele>
        <time>2021-07-10T08:10:51Z</time>
      </trkpt>
      <trkpt lat="40.723693985491991" lon="-4.049963029101491">
        <ele>1144.873</ele>
        <time>2021-07-10T08:10:53Z</time>
      </trkpt>
      <trkpt lat="40.723870005458593" lon="-4.049948025494814">
        <ele>1146.0429999999999</ele>
        <time>2021-07-10T08:10:54Z</time>
      </trkpt>
      <trkpt lat="40.724048959091306" lon="-4.049904020503163">
        <ele>1147.5239999999999</ele>
        <time>2021-07-10T08:10:55Z</time>
      </trkpt>
      <trkpt lat="40.72433696128428" lon="-4.049753984436393">
        <ele>1149.1199999999999</ele>
        <time>2021-07-10T08:10:57Z</time>
      </trkpt>
      <trkpt lat="40.724617000669241" lon="-4.049539994448423">
        <ele>1150.682</ele>
        <time>2021-07-10T08:10:59Z</time>
      </trkpt>
      <trkpt lat="40.724763013422489" lon="-4.049410996958613">
        <ele>1151.625</ele>
        <time>2021-07-10T08:11:00Z</time>
      </trkpt>
      <trkpt lat="40.725038023665547" lon="-4.049156019464135">
        <ele>1152.539</ele>
        <time>2021-07-10T08:11:02Z</time>
      </trkpt>
      <trkpt lat="40.725182024762034" lon="-4.049018975347281">
        <ele>1153.1880000000001</ele>
        <time>2021-07-10T08:11:03Z</time>
      </trkpt>
      <trkpt lat="40.72532401420176" lon="-4.048871034756303">
        <ele>1153.7819999999999</ele>
        <time>2021-07-10T08:11:04Z</time>
      </trkpt>
      <trkpt lat="40.725462986156344" lon="-4.048698032274842">
        <ele>1154.5429999999999</ele>
        <time>2021-07-10T08:11:05Z</time>
      </trkpt>
      <trkpt lat="40.725680999457836" lon="-4.048325037583709">
        <ele>1155.117</ele>
        <time>2021-07-10T08:11:07Z</time>
      </trkpt>
      <trkpt lat="40.72588300332427" lon="-4.047907032072544">
        <ele>1155.6079999999999</ele>
        <time>2021-07-10T08:11:09Z</time>
      </trkpt>
      <trkpt lat="40.725978976115584" lon="-4.047678960487247">
        <ele>1155.655</ele>
        <time>2021-07-10T08:11:10Z</time>
      </trkpt>
      <trkpt lat="40.726063968613744" lon="-4.047420965507627">
        <ele>1155.5250000000001</ele>
        <time>2021-07-10T08:11:11Z</time>
      </trkpt>
      <trkpt lat="40.726237976923585" lon="-4.046946968883276">
        <ele>1156.126</ele>
        <time>2021-07-10T08:11:13Z</time>
      </trkpt>
      <trkpt lat="40.726460013538599" lon="-4.046452017500997">
        <ele>1157.162</ele>
        <time>2021-07-10T08:11:15Z</time>
      </trkpt>
      <trkpt lat="40.726552968844771" lon="-4.046199973672628">
        <ele>1157.8140000000001</ele>
        <time>2021-07-10T08:11:16Z</time>
      </trkpt>
      <trkpt lat="40.726722031831741" lon="-4.04570896178484">
        <ele>1158.4970000000001</ele>
        <time>2021-07-10T08:11:18Z</time>
      </trkpt>
      <trkpt lat="40.726812975481153" lon="-4.045460019260645">
        <ele>1159.0309999999999</ele>
        <time>2021-07-10T08:11:19Z</time>
      </trkpt>
      <trkpt lat="40.727005004882812" lon="-4.044966995716095">
        <ele>1159.6400000000001</ele>
        <time>2021-07-10T08:11:21Z</time>
      </trkpt>
      <trkpt lat="40.727174989879131" lon="-4.044533986598253">
        <ele>1160.7370000000001</ele>
        <time>2021-07-10T08:11:23Z</time>
      </trkpt>
      <trkpt lat="40.72730197571218" lon="-4.04407499358058">
        <ele>1161.9490000000001</ele>
        <time>2021-07-10T08:11:25Z</time>
      </trkpt>
      <trkpt lat="40.727379005402327" lon="-4.043670985847712">
        <ele>1162.6130000000001</ele>
        <time>2021-07-10T08:11:27Z</time>
      </trkpt>
      <trkpt lat="40.72755896486342" lon="-4.043351970613003">
        <ele>1164.4079999999999</ele>
        <time>2021-07-10T08:11:29Z</time>
      </trkpt>
      <trkpt lat="40.727828023955226" lon="-4.04310897924006">
        <ele>1167.26</ele>
        <time>2021-07-10T08:11:31Z</time>
      </trkpt>
      <trkpt lat="40.728093981742859" lon="-4.042831035330892">
        <ele>1169.22</ele>
        <time>2021-07-10T08:11:33Z</time>
      </trkpt>
      <trkpt lat="40.728219039738178" lon="-4.042673036456108">
        <ele>1170.5509999999999</ele>
        <time>2021-07-10T08:11:34Z</time>
      </trkpt>
      <trkpt lat="40.728337978944182" lon="-4.042515959590673">
        <ele>1172.057</ele>
        <time>2021-07-10T08:11:35Z</time>
      </trkpt>
      <trkpt lat="40.728458007797599" lon="-4.042352009564638">
        <ele>1173.729</ele>
        <time>2021-07-10T08:11:36Z</time>
      </trkpt>
      <trkpt lat="40.728650037199259" lon="-4.042041040956974">
        <ele>1175.452</ele>
        <time>2021-07-10T08:11:38Z</time>
      </trkpt>
      <trkpt lat="40.728732012212276" lon="-4.041854962706566">
        <ele>1176.6659999999999</ele>
        <time>2021-07-10T08:11:39Z</time>
      </trkpt>
      <trkpt lat="40.728852963075042" lon="-4.041443997994065">
        <ele>1178.2349999999999</ele>
        <time>2021-07-10T08:11:41Z</time>
      </trkpt>
      <trkpt lat="40.728969974443316" lon="-4.041058011353016">
        <ele>1180.374</ele>
        <time>2021-07-10T08:11:43Z</time>
      </trkpt>
      <trkpt lat="40.729145994409919" lon="-4.040689039975405">
        <ele>1182.7560000000001</ele>
        <time>2021-07-10T08:11:45Z</time>
      </trkpt>
      <trkpt lat="40.729312961921096" lon="-4.04035996645689">
        <ele>1184.8209999999999</ele>
        <time>2021-07-10T08:11:47Z</time>
      </trkpt>
      <trkpt lat="40.729371970519423" lon="-4.040198028087616">
        <ele>1185.808</ele>
        <time>2021-07-10T08:11:48Z</time>
      </trkpt>
      <trkpt lat="40.729399966076016" lon="-4.040030976757407">
        <ele>1187.4739999999999</ele>
        <time>2021-07-10T08:11:49Z</time>
      </trkpt>
      <trkpt lat="40.729352021589875" lon="-4.039682960137725">
        <ele>1188.3440000000001</ele>
        <time>2021-07-10T08:11:51Z</time>
      </trkpt>
      <trkpt lat="40.729260994121432" lon="-4.039346007630229">
        <ele>1190.2249999999999</ele>
        <time>2021-07-10T08:11:53Z</time>
      </trkpt>
      <trkpt lat="40.729226041585207" lon="-4.039162024855614">
        <ele>1191.431</ele>
        <time>2021-07-10T08:11:54Z</time>
      </trkpt>
      <trkpt lat="40.729211959987879" lon="-4.038775032386184">
        <ele>1192.5830000000001</ele>
        <time>2021-07-10T08:11:56Z</time>
      </trkpt>
      <trkpt lat="40.729271974414587" lon="-4.038419974967837">
        <ele>1194.1959999999999</ele>
        <time>2021-07-10T08:11:58Z</time>
      </trkpt>
      <trkpt lat="40.729328971356153" lon="-4.038243032991886">
        <ele>1195.28</ele>
        <time>2021-07-10T08:11:59Z</time>
      </trkpt>
      <trkpt lat="40.729393009096384" lon="-4.038074975833297">
        <ele>1196.1790000000001</ele>
        <time>2021-07-10T08:12:00Z</time>
      </trkpt>
      <trkpt lat="40.729456041008234" lon="-4.037907002493739">
        <ele>1197.1110000000001</ele>
        <time>2021-07-10T08:12:01Z</time>
      </trkpt>
      <trkpt lat="40.729494011029601" lon="-4.037576001137495">
        <ele>1198.8209999999999</ele>
        <time>2021-07-10T08:12:03Z</time>
      </trkpt>
      <trkpt lat="40.729462997987866" lon="-4.037231002002955">
        <ele>1200.1030000000001</ele>
        <time>2021-07-10T08:12:05Z</time>
      </trkpt>
      <trkpt lat="40.729443971067667" lon="-4.037057999521494">
        <ele>1200.9079999999999</ele>
        <time>2021-07-10T08:12:06Z</time>
      </trkpt>
      <trkpt lat="40.729423016309738" lon="-4.036902012303472">
        <ele>1201.788</ele>
        <time>2021-07-10T08:12:07Z</time>
      </trkpt>
      <trkpt lat="40.729387979954481" lon="-4.036632031202316">
        <ele>1203.048</ele>
        <time>2021-07-10T08:12:09Z</time>
      </trkpt>
      <trkpt lat="40.729374988004565" lon="-4.036395996809006">
        <ele>1204.1990000000001</ele>
        <time>2021-07-10T08:12:11Z</time>
      </trkpt>
      <trkpt lat="40.729379011318088" lon="-4.036280997097492">
        <ele>1205.4349999999999</ele>
        <time>2021-07-10T08:12:12Z</time>
      </trkpt>
      <trkpt lat="40.729414969682693" lon="-4.036060972139239">
        <ele>1206.9670000000001</ele>
        <time>2021-07-10T08:12:14Z</time>
      </trkpt>
      <trkpt lat="40.729452017694712" lon="-4.035941027104855">
        <ele>1208.1300000000001</ele>
        <time>2021-07-10T08:12:15Z</time>
      </trkpt>
      <trkpt lat="40.729569029062986" lon="-4.035722007974982">
        <ele>1209.2539999999999</ele>
        <time>2021-07-10T08:12:17Z</time>
      </trkpt>
      <trkpt lat="40.729726022109389" lon="-4.035517992451787">
        <ele>1211.3630000000001</ele>
        <time>2021-07-10T08:12:19Z</time>
      </trkpt>
      <trkpt lat="40.729929031804204" lon="-4.035339038819075">
        <ele>1213.136</ele>
        <time>2021-07-10T08:12:21Z</time>
      </trkpt>
      <trkpt lat="40.730173029005527" lon="-4.035233007743955">
        <ele>1215.0170000000001</ele>
        <time>2021-07-10T08:12:23Z</time>
      </trkpt>
      <trkpt lat="40.730428006500006" lon="-4.035148015245795">
        <ele>1216.518</ele>
        <time>2021-07-10T08:12:25Z</time>
      </trkpt>
      <trkpt lat="40.730694970116019" lon="-4.034991022199392">
        <ele>1218.008</ele>
        <time>2021-07-10T08:12:27Z</time>
      </trkpt>
      <trkpt lat="40.730936033651233" lon="-4.034778038039804">
        <ele>1220.25</ele>
        <time>2021-07-10T08:12:29Z</time>
      </trkpt>
      <trkpt lat="40.731054972857237" lon="-4.034652980044484">
        <ele>1221.51</ele>
        <time>2021-07-10T08:12:30Z</time>
      </trkpt>
      <trkpt lat="40.731170978397131" lon="-4.034524988383055">
        <ele>1222.961</ele>
        <time>2021-07-10T08:12:31Z</time>
      </trkpt>
      <trkpt lat="40.731282960623503" lon="-4.03438501060009">
        <ele>1224.1869999999999</ele>
        <time>2021-07-10T08:12:32Z</time>
      </trkpt>
      <trkpt lat="40.731438025832176" lon="-4.034092985093594">
        <ele>1225.4490000000001</ele>
        <time>2021-07-10T08:12:34Z</time>
      </trkpt>
      <trkpt lat="40.731483036652207" lon="-4.033927023410797">
        <ele>1226.3420000000001</ele>
        <time>2021-07-10T08:12:35Z</time>
      </trkpt>
      <trkpt lat="40.731500973924994" lon="-4.033565009012818">
        <ele>1226.6859999999999</ele>
        <time>2021-07-10T08:12:37Z</time>
      </trkpt>
      <trkpt lat="40.731466021388769" lon="-4.033194025978446">
        <ele>1227.575</ele>
        <time>2021-07-10T08:12:39Z</time>
      </trkpt>
      <trkpt lat="40.731432996690273" lon="-4.032783983275294">
        <ele>1229.9860000000001</ele>
        <time>2021-07-10T08:12:41Z</time>
      </trkpt>
      <trkpt lat="40.731423022225499" lon="-4.032561024650931">
        <ele>1231.76</ele>
        <time>2021-07-10T08:12:42Z</time>
      </trkpt>
      <trkpt lat="40.731428973376751" lon="-4.032353991642594">
        <ele>1233.5260000000001</ele>
        <time>2021-07-10T08:12:43Z</time>
      </trkpt>
      <trkpt lat="40.731481024995446" lon="-4.031942021101713">
        <ele>1235.6079999999999</ele>
        <time>2021-07-10T08:12:45Z</time>
      </trkpt>
      <trkpt lat="40.731529975309968" lon="-4.031728031113744">
        <ele>1237.675</ele>
        <time>2021-07-10T08:12:46Z</time>
      </trkpt>
      <trkpt lat="40.731643969193101" lon="-4.031293010339141">
        <ele>1239.155</ele>
        <time>2021-07-10T08:12:48Z</time>
      </trkpt>
      <trkpt lat="40.731754023581743" lon="-4.030835023149848">
        <ele>1240.296</ele>
        <time>2021-07-10T08:12:50Z</time>
      </trkpt>
      <trkpt lat="40.731802973896265" lon="-4.030593959614635">
        <ele>1241.182</ele>
        <time>2021-07-10T08:12:51Z</time>
      </trkpt>
      <trkpt lat="40.731907999143004" lon="-4.030104959383607">
        <ele>1243.164</ele>
        <time>2021-07-10T08:12:53Z</time>
      </trkpt>
      <trkpt lat="40.731969019398093" lon="-4.029859034344554">
        <ele>1244.367</ele>
        <time>2021-07-10T08:12:54Z</time>
      </trkpt>
      <trkpt lat="40.732094999402761" lon="-4.02935897000134">
        <ele>1245.691</ele>
        <time>2021-07-10T08:12:56Z</time>
      </trkpt>
      <trkpt lat="40.732226008549333" lon="-4.028858989477158">
        <ele>1247.01</ele>
        <time>2021-07-10T08:12:58Z</time>
      </trkpt>
      <trkpt lat="40.73235098272562" lon="-4.028366971760988">
        <ele>1248.9280000000001</ele>
        <time>2021-07-10T08:13:00Z</time>
      </trkpt>
      <trkpt lat="40.732388030737638" lon="-4.028118029236794">
        <ele>1250.3889999999999</ele>
        <time>2021-07-10T08:13:01Z</time>
      </trkpt>
      <trkpt lat="40.732410997152328" lon="-4.027852993458509">
        <ele>1251.117</ele>
        <time>2021-07-10T08:13:02Z</time>
      </trkpt>
      <trkpt lat="40.732418959960341" lon="-4.027607990428805">
        <ele>1252.4079999999999</ele>
        <time>2021-07-10T08:13:03Z</time>
      </trkpt>
      <trkpt lat="40.732471011579037" lon="-4.027138017117977">
        <ele>1253.999</ele>
        <time>2021-07-10T08:13:05Z</time>
      </trkpt>
      <trkpt lat="40.732536977156997" lon="-4.026914974674583">
        <ele>1255.4390000000001</ele>
        <time>2021-07-10T08:13:06Z</time>
      </trkpt>
      <trkpt lat="40.732689024880528" lon="-4.026495963335037">
        <ele>1257.3499999999999</ele>
        <time>2021-07-10T08:13:08Z</time>
      </trkpt>
      <trkpt lat="40.732759013772011" lon="-4.026294965296984">
        <ele>1259.1659999999999</ele>
        <time>2021-07-10T08:13:09Z</time>
      </trkpt>
      <trkpt lat="40.732827996835113" lon="-4.025886012241244">
        <ele>1261.798</ele>
        <time>2021-07-10T08:13:11Z</time>
      </trkpt>
      <trkpt lat="40.732827996835113" lon="-4.025681996718049">
        <ele>1263.521</ele>
        <time>2021-07-10T08:13:12Z</time>
      </trkpt>
      <trkpt lat="40.732867978513241" lon="-4.025278994813561">
        <ele>1265.095</ele>
        <time>2021-07-10T08:13:14Z</time>
      </trkpt>
      <trkpt lat="40.732987001538277" lon="-4.024884039536119">
        <ele>1267.354</ele>
        <time>2021-07-10T08:13:16Z</time>
      </trkpt>
      <trkpt lat="40.733054978772998" lon="-4.024687986820936">
        <ele>1269.2639999999999</ele>
        <time>2021-07-10T08:13:17Z</time>
      </trkpt>
      <trkpt lat="40.73312203399837" lon="-4.024496963247657">
        <ele>1270.7059999999999</ele>
        <time>2021-07-10T08:13:18Z</time>
      </trkpt>
      <trkpt lat="40.73318799957633" lon="-4.024318009614945">
        <ele>1271.9159999999999</ele>
        <time>2021-07-10T08:13:19Z</time>
      </trkpt>
      <trkpt lat="40.733306016772985" lon="-4.023973010480404">
        <ele>1273.2080000000001</ele>
        <time>2021-07-10T08:13:21Z</time>
      </trkpt>
      <trkpt lat="40.73335899040103" lon="-4.023782992735505">
        <ele>1274.7929999999999</ele>
        <time>2021-07-10T08:13:22Z</time>
      </trkpt>
      <trkpt lat="40.733405007049441" lon="-4.023575037717819">
        <ele>1275.5229999999999</ele>
        <time>2021-07-10T08:13:23Z</time>
      </trkpt>
      <trkpt lat="40.733454963192344" lon="-4.023206988349557">
        <ele>1276.614</ele>
        <time>2021-07-10T08:13:25Z</time>
      </trkpt>
      <trkpt lat="40.733477007597685" lon="-4.0228680241853">
        <ele>1279.1900000000001</ele>
        <time>2021-07-10T08:13:27Z</time>
      </trkpt>
      <trkpt lat="40.733498968183994" lon="-4.022707007825375">
        <ele>1281.1220000000001</ele>
        <time>2021-07-10T08:13:28Z</time>
      </trkpt>
      <trkpt lat="40.733536016196012" lon="-4.022572981193662">
        <ele>1282.915</ele>
        <time>2021-07-10T08:13:29Z</time>
      </trkpt>
      <trkpt lat="40.733656967058778" lon="-4.022371983155608">
        <ele>1284.6489999999999</ele>
        <time>2021-07-10T08:13:31Z</time>
      </trkpt>
      <trkpt lat="40.733740031719208" lon="-4.022281961515546">
        <ele>1286.8579999999999</ele>
        <time>2021-07-10T08:13:32Z</time>
      </trkpt>
      <trkpt lat="40.733830975368619" lon="-4.022191017866135">
        <ele>1288.796</ele>
        <time>2021-07-10T08:13:33Z</time>
      </trkpt>
      <trkpt lat="40.733989980071783" lon="-4.022017009556294">
        <ele>1289.8309999999999</ele>
        <time>2021-07-10T08:13:35Z</time>
      </trkpt>
      <trkpt lat="40.734101962298155" lon="-4.021808970719576">
        <ele>1290.7239999999999</ele>
        <time>2021-07-10T08:13:37Z</time>
      </trkpt>
      <trkpt lat="40.734171029180288" lon="-4.021553993225098">
        <ele>1291.508</ele>
        <time>2021-07-10T08:13:39Z</time>
      </trkpt>
      <trkpt lat="40.734210005030036" lon="-4.021304966881871">
        <ele>1291.9159999999999</ele>
        <time>2021-07-10T08:13:41Z</time>
      </trkpt>
      <trkpt lat="40.734225008636713" lon="-4.021176975220442">
        <ele>1292.386</ele>
        <time>2021-07-10T08:13:42Z</time>
      </trkpt>
      <trkpt lat="40.73424001224339" lon="-4.021056024357677">
        <ele>1292.1569999999999</ele>
        <time>2021-07-10T08:13:43Z</time>
      </trkpt>
      <trkpt lat="40.734248980879784" lon="-4.020929038524628">
        <ele>1292.2629999999999</ele>
        <time>2021-07-10T08:13:44Z</time>
      </trkpt>
      <trkpt lat="40.734246969223022" lon="-4.020694009959698">
        <ele>1291.2449999999999</ele>
        <time>2021-07-10T08:13:46Z</time>
      </trkpt>
      <trkpt lat="40.734242023900151" lon="-4.020432997494936">
        <ele>1290.078</ele>
        <time>2021-07-10T08:13:48Z</time>
      </trkpt>
      <trkpt lat="40.734227020293474" lon="-4.02031003497541">
        <ele>1289.182</ele>
        <time>2021-07-10T08:13:49Z</time>
      </trkpt>
      <trkpt lat="40.73419600725174" lon="-4.020202998071909">
        <ele>1288.241</ele>
        <time>2021-07-10T08:13:50Z</time>
      </trkpt>
      <trkpt lat="40.734057035297155" lon="-4.020046005025506">
        <ele>1286.7539999999999</ele>
        <time>2021-07-10T08:13:52Z</time>
      </trkpt>
      <trkpt lat="40.733959972858429" lon="-4.020021026954055">
        <ele>1285.556</ele>
        <time>2021-07-10T08:13:53Z</time>
      </trkpt>
      <trkpt lat="40.733851008117199" lon="-4.020046005025506">
        <ele>1283.9110000000001</ele>
        <time>2021-07-10T08:13:54Z</time>
      </trkpt>
      <trkpt lat="40.733694015070796" lon="-4.020192017778754">
        <ele>1282.4079999999999</ele>
        <time>2021-07-10T08:13:56Z</time>
      </trkpt>
      <trkpt lat="40.733655039221048" lon="-4.020308023318648">
        <ele>1281.5419999999999</ele>
        <time>2021-07-10T08:13:57Z</time>
      </trkpt>
      <trkpt lat="40.733664007857442" lon="-4.020560989156365">
        <ele>1280.962</ele>
        <time>2021-07-10T08:13:59Z</time>
      </trkpt>
      <trkpt lat="40.733749000355601" lon="-4.020802974700928">
        <ele>1281.3130000000001</ele>
        <time>2021-07-10T08:14:01Z</time>
      </trkpt>
      <trkpt lat="40.73383298702538" lon="-4.021075973287225">
        <ele>1282.2190000000001</ele>
        <time>2021-07-10T08:14:03Z</time>
      </trkpt>
      <trkpt lat="40.733864000067115" lon="-4.021227015182376">
        <ele>1283.211</ele>
        <time>2021-07-10T08:14:04Z</time>
      </trkpt>
      <trkpt lat="40.733900964260101" lon="-4.021380990743637">
        <ele>1284.134</ele>
        <time>2021-07-10T08:14:05Z</time>
      </trkpt>
      <trkpt lat="40.734031973406672" lon="-4.021662035956979">
        <ele>1284.848</ele>
        <time>2021-07-10T08:14:07Z</time>
      </trkpt>
      <trkpt lat="40.734130041673779" lon="-4.021772006526589">
        <ele>1285.2370000000001</ele>
        <time>2021-07-10T08:14:08Z</time>
      </trkpt>
      <trkpt lat="40.734247975051403" lon="-4.021864039823413">
        <ele>1285.835</ele>
        <time>2021-07-10T08:14:09Z</time>
      </trkpt>
      <trkpt lat="40.734510999172926" lon="-4.021989013999701">
        <ele>1287.2860000000001</ele>
        <time>2021-07-10T08:14:11Z</time>
      </trkpt>
      <trkpt lat="40.734815010800958" lon="-4.022109964862466">
        <ele>1288.0139999999999</ele>
        <time>2021-07-10T08:14:13Z</time>
      </trkpt>
      <trkpt lat="40.734983989968896" lon="-4.022180959582329">
        <ele>1289.508</ele>
        <time>2021-07-10T08:14:14Z</time>
      </trkpt>
      <trkpt lat="40.735280960798264" lon="-4.022316997870803">
        <ele>1291.4400000000001</ele>
        <time>2021-07-10T08:14:16Z</time>
      </trkpt>
      <trkpt lat="40.735432002693415" lon="-4.022371983155608">
        <ele>1293.01</ele>
        <time>2021-07-10T08:14:17Z</time>
      </trkpt>
      <trkpt lat="40.735582960769534" lon="-4.022392015904188">
        <ele>1294.6110000000001</ele>
        <time>2021-07-10T08:14:18Z</time>
      </trkpt>
      <trkpt lat="40.73589401319623" lon="-4.022341975942254">
        <ele>1296.527</ele>
        <time>2021-07-10T08:14:20Z</time>
      </trkpt>
      <trkpt lat="40.736180003732443" lon="-4.022209038957954">
        <ele>1298.0889999999999</ele>
        <time>2021-07-10T08:14:22Z</time>
      </trkpt>
      <trkpt lat="40.736327022314072" lon="-4.022166039794684">
        <ele>1298.982</ele>
        <time>2021-07-10T08:14:23Z</time>
      </trkpt>
      <trkpt lat="40.736470017582178" lon="-4.022179031744599">
        <ele>1300.146</ele>
        <time>2021-07-10T08:14:24Z</time>
      </trkpt>
      <trkpt lat="40.736609995365143" lon="-4.022235022857785">
        <ele>1301.0550000000001</ele>
        <time>2021-07-10T08:14:25Z</time>
      </trkpt>
      <trkpt lat="40.736851980909705" lon="-4.022409031167626">
        <ele>1302.173</ele>
        <time>2021-07-10T08:14:27Z</time>
      </trkpt>
      <trkpt lat="40.737072005867958" lon="-4.022664008662105">
        <ele>1303.885</ele>
        <time>2021-07-10T08:14:29Z</time>
      </trkpt>
      <trkpt lat="40.737159010022879" lon="-4.022834999486804">
        <ele>1305.213</ele>
        <time>2021-07-10T08:14:30Z</time>
      </trkpt>
      <trkpt lat="40.737253976985812" lon="-4.023197013884783">
        <ele>1306.7080000000001</ele>
        <time>2021-07-10T08:14:32Z</time>
      </trkpt>
      <trkpt lat="40.737265041097999" lon="-4.023405974730849">
        <ele>1307.8140000000001</ele>
        <time>2021-07-10T08:14:33Z</time>
      </trkpt>
      <trkpt lat="40.737252971157432" lon="-4.023838983848691">
        <ele>1308.894</ele>
        <time>2021-07-10T08:14:35Z</time>
      </trkpt>
      <trkpt lat="40.737251965329051" lon="-4.024064959958196">
        <ele>1309.915</ele>
        <time>2021-07-10T08:14:36Z</time>
      </trkpt>
      <trkpt lat="40.737265963107347" lon="-4.024527976289392">
        <ele>1310.451</ele>
        <time>2021-07-10T08:14:38Z</time>
      </trkpt>
      <trkpt lat="40.737281972542405" lon="-4.024763004854322">
        <ele>1310.963</ele>
        <time>2021-07-10T08:14:39Z</time>
      </trkpt>
      <trkpt lat="40.737317008897662" lon="-4.025008007884026">
        <ele>1311.9459999999999</ele>
        <time>2021-07-10T08:14:40Z</time>
      </trkpt>
      <trkpt lat="40.737443994730711" lon="-4.025431964546442">
        <ele>1312.74</ele>
        <time>2021-07-10T08:14:42Z</time>
      </trkpt>
      <trkpt lat="40.737627977505326" lon="-4.025815017521381">
        <ele>1313.8889999999999</ele>
        <time>2021-07-10T08:14:44Z</time>
      </trkpt>
      <trkpt lat="40.73774398304522" lon="-4.025991037487984">
        <ele>1314.271</ele>
        <time>2021-07-10T08:14:45Z</time>
      </trkpt>
      <trkpt lat="40.737862000241876" lon="-4.026144007220864">
        <ele>1315.241</ele>
        <time>2021-07-10T08:14:46Z</time>
      </trkpt>
      <trkpt lat="40.73812703602016" lon="-4.026402002200484">
        <ele>1316.615</ele>
        <time>2021-07-10T08:14:48Z</time>
      </trkpt>
      <trkpt lat="40.738284029066563" lon="-4.026509961113334">
        <ele>1318.308</ele>
        <time>2021-07-10T08:14:49Z</time>
      </trkpt>
      <trkpt lat="40.738460971042514" lon="-4.026619009673595">
        <ele>1320.154</ele>
        <time>2021-07-10T08:14:50Z</time>
      </trkpt>
      <trkpt lat="40.73879599571228" lon="-4.026814978569746">
        <ele>1322.3440000000001</ele>
        <time>2021-07-10T08:14:52Z</time>
      </trkpt>
      <trkpt lat="40.738968998193741" lon="-4.026921009644866">
        <ele>1324.2750000000001</ele>
        <time>2021-07-10T08:14:53Z</time>
      </trkpt>
      <trkpt lat="40.739134037867188" lon="-4.027021005749703">
        <ele>1325.741</ele>
        <time>2021-07-10T08:14:54Z</time>
      </trkpt>
      <trkpt lat="40.739447018131614" lon="-4.027158971875906">
        <ele>1328.9829999999999</ele>
        <time>2021-07-10T08:14:56Z</time>
      </trkpt>
      <trkpt lat="40.739613985642791" lon="-4.027181016281247">
        <ele>1331.1859999999999</ele>
        <time>2021-07-10T08:14:57Z</time>
      </trkpt>
      <trkpt lat="40.7399330008775" lon="-4.027151009067893">
        <ele>1333.4400000000001</ele>
        <time>2021-07-10T08:14:59Z</time>
      </trkpt>
      <trkpt lat="40.740101980045438" lon="-4.027115972712636">
        <ele>1335.479</ele>
        <time>2021-07-10T08:15:00Z</time>
      </trkpt>
      <trkpt lat="40.740414960309863" lon="-4.026995021849871">
        <ele>1338.2380000000001</ele>
        <time>2021-07-10T08:15:02Z</time>
      </trkpt>
      <trkpt lat="40.740712014958262" lon="-4.02677902020514">
        <ele>1340.5699999999999</ele>
        <time>2021-07-10T08:15:04Z</time>
      </trkpt>
      <trkpt lat="40.740856016054749" lon="-4.026654968038201">
        <ele>1342.9169999999999</ele>
        <time>2021-07-10T08:15:05Z</time>
      </trkpt>
      <trkpt lat="40.741013009101152" lon="-4.026518007740378">
        <ele>1345.2080000000001</ele>
        <time>2021-07-10T08:15:06Z</time>
      </trkpt>
      <trkpt lat="40.741298999637365" lon="-4.026259006932378">
        <ele>1347.04</ele>
        <time>2021-07-10T08:15:08Z</time>
      </trkpt>
      <trkpt lat="40.741581972688437" lon="-4.025932028889656">
        <ele>1348.5899999999999</ele>
        <time>2021-07-10T08:15:10Z</time>
      </trkpt>
      <trkpt lat="40.741726979613304" lon="-4.025765983387828">
        <ele>1349.9110000000001</ele>
        <time>2021-07-10T08:15:11Z</time>
      </trkpt>
      <trkpt lat="40.742011964321136" lon="-4.025430036708713">
        <ele>1352.3969999999999</ele>
        <time>2021-07-10T08:15:13Z</time>
      </trkpt>
      <trkpt lat="40.742154037579894" lon="-4.025263991206884">
        <ele>1354.579</ele>
        <time>2021-07-10T08:15:14Z</time>
      </trkpt>
      <trkpt lat="40.742297032848001" lon="-4.025101969018579">
        <ele>1356.1320000000001</ele>
        <time>2021-07-10T08:15:15Z</time>
      </trkpt>
      <trkpt lat="40.742450002580881" lon="-4.024935001507402">
        <ele>1357.7460000000001</ele>
        <time>2021-07-10T08:15:16Z</time>
      </trkpt>
      <trkpt lat="40.742736998945475" lon="-4.024679018184543">
        <ele>1359.675</ele>
        <time>2021-07-10T08:15:18Z</time>
      </trkpt>
      <trkpt lat="40.743064982816577" lon="-4.02448296546936">
        <ele>1361.413</ele>
        <time>2021-07-10T08:15:20Z</time>
      </trkpt>
      <trkpt lat="40.74341501109302" lon="-4.024346005171537">
        <ele>1363.2429999999999</ele>
        <time>2021-07-10T08:15:22Z</time>
      </trkpt>
      <trkpt lat="40.743766967207193" lon="-4.02422203682363">
        <ele>1364.4069999999999</ele>
        <time>2021-07-10T08:15:24Z</time>
      </trkpt>
      <trkpt lat="40.744105009362102" lon="-4.024031013250351">
        <ele>1366.2080000000001</ele>
        <time>2021-07-10T08:15:26Z</time>
      </trkpt>
      <trkpt lat="40.744409020990133" lon="-4.023843007162213">
        <ele>1369.348</ele>
        <time>2021-07-10T08:15:28Z</time>
      </trkpt>
      <trkpt lat="40.744573976844549" lon="-4.023759020492435">
        <ele>1371.248</ele>
        <time>2021-07-10T08:15:29Z</time>
      </trkpt>
      <trkpt lat="40.744904978200793" lon="-4.023625999689102">
        <ele>1373.1289999999999</ele>
        <time>2021-07-10T08:15:31Z</time>
      </trkpt>
      <trkpt lat="40.745059959590435" lon="-4.023559028282762">
        <ele>1373.635</ele>
        <time>2021-07-10T08:15:32Z</time>
      </trkpt>
      <trkpt lat="40.745358020067215" lon="-4.023391976952553">
        <ele>1374.357</ele>
        <time>2021-07-10T08:15:34Z</time>
      </trkpt>
      <trkpt lat="40.745496992021799" lon="-4.0232789888978">
        <ele>1376.6600000000001</ele>
        <time>2021-07-10T08:15:35Z</time>
      </trkpt>
      <trkpt lat="40.745634036138654" lon="-4.02314898557961">
        <ele>1378.644</ele>
        <time>2021-07-10T08:15:36Z</time>
      </trkpt>
      <trkpt lat="40.745856994763017" lon="-4.022928038612008">
        <ele>1381.683</ele>
        <time>2021-07-10T08:15:38Z</time>
      </trkpt>
      <trkpt lat="40.746069978922606" lon="-4.022686975076795">
        <ele>1385.221</ele>
        <time>2021-07-10T08:15:40Z</time>
      </trkpt>
      <trkpt lat="40.746173998340964" lon="-4.022555965930224">
        <ele>1387.741</ele>
        <time>2021-07-10T08:15:41Z</time>
      </trkpt>
      <trkpt lat="40.746279023587704" lon="-4.022423028945923">
        <ele>1390.105</ele>
        <time>2021-07-10T08:15:42Z</time>
      </trkpt>
      <trkpt lat="40.746492007747293" lon="-4.022153969854116">
        <ele>1392.6079999999999</ele>
        <time>2021-07-10T08:15:44Z</time>
      </trkpt>
      <trkpt lat="40.74669904075563" lon="-4.021876025944948">
        <ele>1395.299</ele>
        <time>2021-07-10T08:15:46Z</time>
      </trkpt>
      <trkpt lat="40.746803982183337" lon="-4.021736970171332">
        <ele>1397.279</ele>
        <time>2021-07-10T08:15:47Z</time>
      </trkpt>
      <trkpt lat="40.747013026848435" lon="-4.021460032090545">
        <ele>1398.97</ele>
        <time>2021-07-10T08:15:49Z</time>
      </trkpt>
      <trkpt lat="40.747122997418046" lon="-4.021319970488548">
        <ele>1400.7260000000001</ele>
        <time>2021-07-10T08:15:50Z</time>
      </trkpt>
      <trkpt lat="40.74723799712956" lon="-4.021182004362345">
        <ele>1402.4380000000001</ele>
        <time>2021-07-10T08:15:51Z</time>
      </trkpt>
      <trkpt lat="40.747362971305847" lon="-4.021054012700915">
        <ele>1404.0309999999999</ele>
        <time>2021-07-10T08:15:52Z</time>
      </trkpt>
      <trkpt lat="40.74762599542737" lon="-4.020817978307605">
        <ele>1405.9649999999999</ele>
        <time>2021-07-10T08:15:54Z</time>
      </trkpt>
      <trkpt lat="40.747852977365255" lon="-4.02050499804318">
        <ele>1408.0940000000001</ele>
        <time>2021-07-10T08:15:56Z</time>
      </trkpt>
      <trkpt lat="40.748057998716831" lon="-4.020156981423497">
        <ele>1410.4870000000001</ele>
        <time>2021-07-10T08:15:58Z</time>
      </trkpt>
      <trkpt lat="40.74816201813519" lon="-4.019995965063572">
        <ele>1412.5419999999999</ele>
        <time>2021-07-10T08:15:59Z</time>
      </trkpt>
      <trkpt lat="40.748384976759553" lon="-4.019723972305656">
        <ele>1414.5260000000001</ele>
        <time>2021-07-10T08:16:01Z</time>
      </trkpt>
      <trkpt lat="40.74850601144135" lon="-4.019598998129368">
        <ele>1416.2080000000001</ele>
        <time>2021-07-10T08:16:02Z</time>
      </trkpt>
      <trkpt lat="40.748739028349519" lon="-4.019347038120031">
        <ele>1418.5350000000001</ele>
        <time>2021-07-10T08:16:04Z</time>
      </trkpt>
      <trkpt lat="40.748845981433988" lon="-4.019213011488318">
        <ele>1419.855</ele>
        <time>2021-07-10T08:16:05Z</time>
      </trkpt>
      <trkpt lat="40.748943965882063" lon="-4.019074039533734">
        <ele>1421.1759999999999</ele>
        <time>2021-07-10T08:16:06Z</time>
      </trkpt>
      <trkpt lat="40.74904496781528" lon="-4.018926015123725">
        <ele>1422.232</ele>
        <time>2021-07-10T08:16:07Z</time>
      </trkpt>
      <trkpt lat="40.749143958091736" lon="-4.018772039562464">
        <ele>1423.5940000000001</ele>
        <time>2021-07-10T08:16:08Z</time>
      </trkpt>
      <trkpt lat="40.749327018857002" lon="-4.018454030156136">
        <ele>1424.9369999999999</ele>
        <time>2021-07-10T08:16:10Z</time>
      </trkpt>
      <trkpt lat="40.749508989974856" lon="-4.018122022971511">
        <ele>1427.0309999999999</ele>
        <time>2021-07-10T08:16:12Z</time>
      </trkpt>
      <trkpt lat="40.749677969142795" lon="-4.017827985808253">
        <ele>1429.01</ele>
        <time>2021-07-10T08:16:14Z</time>
      </trkpt>
      <trkpt lat="40.74977402575314" lon="-4.017683984711766">
        <ele>1430.5139999999999</ele>
        <time>2021-07-10T08:16:15Z</time>
      </trkpt>
      <trkpt lat="40.749885002151132" lon="-4.017555993050337">
        <ele>1433.0540000000001</ele>
        <time>2021-07-10T08:16:16Z</time>
      </trkpt>
      <trkpt lat="40.750019028782845" lon="-4.017443004995585">
        <ele>1434.6089999999999</ele>
        <time>2021-07-10T08:16:17Z</time>
      </trkpt>
      <trkpt lat="40.750292027369142" lon="-4.017345020547509">
        <ele>1436.308</ele>
        <time>2021-07-10T08:16:19Z</time>
      </trkpt>
      <trkpt lat="40.750585980713367" lon="-4.017309984192252">
        <ele>1438.4380000000001</ele>
        <time>2021-07-10T08:16:21Z</time>
      </trkpt>
      <trkpt lat="40.750726964324713" lon="-4.017290035262704">
        <ele>1440.338</ele>
        <time>2021-07-10T08:16:22Z</time>
      </trkpt>
      <trkpt lat="40.750867025926709" lon="-4.017270002514124">
        <ele>1442.299</ele>
        <time>2021-07-10T08:16:23Z</time>
      </trkpt>
      <trkpt lat="40.751116974279284" lon="-4.017228009179235">
        <ele>1443.585</ele>
        <time>2021-07-10T08:16:25Z</time>
      </trkpt>
      <trkpt lat="40.751246977597475" lon="-4.017203031107783">
        <ele>1444.4369999999999</ele>
        <time>2021-07-10T08:16:26Z</time>
      </trkpt>
      <trkpt lat="40.751378992572427" lon="-4.017181992530823">
        <ele>1444.74</ele>
        <time>2021-07-10T08:16:27Z</time>
      </trkpt>
      <trkpt lat="40.751512013375759" lon="-4.017184004187584">
        <ele>1444.194</ele>
        <time>2021-07-10T08:16:28Z</time>
      </trkpt>
      <trkpt lat="40.751736983656883" lon="-4.017310990020633">
        <ele>1445.7429999999999</ele>
        <time>2021-07-10T08:16:30Z</time>
      </trkpt>
      <trkpt lat="40.751831028610468" lon="-4.01743303053081">
        <ele>1446.9960000000001</ele>
        <time>2021-07-10T08:16:31Z</time>
      </trkpt>
      <trkpt lat="40.751916021108627" lon="-4.017569990828633">
        <ele>1448.231</ele>
        <time>2021-07-10T08:16:32Z</time>
      </trkpt>
      <trkpt lat="40.752004031091928" lon="-4.017716003581882">
        <ele>1448.8240000000001</ele>
        <time>2021-07-10T08:16:33Z</time>
      </trkpt>
      <trkpt lat="40.752176027745008" lon="-4.017955977469683">
        <ele>1449.1079999999999</ele>
        <time>2021-07-10T08:16:35Z</time>
      </trkpt>
      <trkpt lat="40.752377025783062" lon="-4.018136020749807">
        <ele>1450.566</ele>
        <time>2021-07-10T08:16:37Z</time>
      </trkpt>
      <trkpt lat="40.752493031322956" lon="-4.01820701546967">
        <ele>1451.616</ele>
        <time>2021-07-10T08:16:38Z</time>
      </trkpt>
      <trkpt lat="40.752620017156005" lon="-4.018269963562489">
        <ele>1452.2670000000001</ele>
        <time>2021-07-10T08:16:39Z</time>
      </trkpt>
      <trkpt lat="40.752877006307244" lon="-4.018393009901047">
        <ele>1453.223</ele>
        <time>2021-07-10T08:16:41Z</time>
      </trkpt>
      <trkpt lat="40.753009021282196" lon="-4.018458975479007">
        <ele>1454.865</ele>
        <time>2021-07-10T08:16:42Z</time>
      </trkpt>
      <trkpt lat="40.753141958266497" lon="-4.018528964370489">
        <ele>1455.3679999999999</ele>
        <time>2021-07-10T08:16:43Z</time>
      </trkpt>
      <trkpt lat="40.753282019868493" lon="-4.018599037081003">
        <ele>1456.412</ele>
        <time>2021-07-10T08:16:44Z</time>
      </trkpt>
      <trkpt lat="40.753427026793361" lon="-4.018667014315724">
        <ele>1458.451</ele>
        <time>2021-07-10T08:16:45Z</time>
      </trkpt>
      <trkpt lat="40.753571027889848" lon="-4.018741026520729">
        <ele>1459.623</ele>
        <time>2021-07-10T08:16:46Z</time>
      </trkpt>
      <trkpt lat="40.753866992890835" lon="-4.018901037052274">
        <ele>1461.2829999999999</ele>
        <time>2021-07-10T08:16:48Z</time>
      </trkpt>
      <trkpt lat="40.754126999527216" lon="-4.019063981249929">
        <ele>1461.6110000000001</ele>
        <time>2021-07-10T08:16:50Z</time>
      </trkpt>
      <trkpt lat="40.754247028380632" lon="-4.019165989011526">
        <ele>1462.2080000000001</ele>
        <time>2021-07-10T08:16:51Z</time>
      </trkpt>
      <trkpt lat="40.754362028092146" lon="-4.019286017864943">
        <ele>1462.979</ele>
        <time>2021-07-10T08:16:52Z</time>
      </trkpt>
      <trkpt lat="40.754479961469769" lon="-4.019424989819527">
        <ele>1463.279</ele>
        <time>2021-07-10T08:16:53Z</time>
      </trkpt>
      <trkpt lat="40.754588004201651" lon="-4.019561028108001">
        <ele>1463.8699999999999</ele>
        <time>2021-07-10T08:16:54Z</time>
      </trkpt>
      <trkpt lat="40.754787996411324" lon="-4.01986001059413">
        <ele>1464.056</ele>
        <time>2021-07-10T08:16:56Z</time>
      </trkpt>
      <trkpt lat="40.754870977252722" lon="-4.020041981711984">
        <ele>1464.6679999999999</ele>
        <time>2021-07-10T08:16:57Z</time>
      </trkpt>
      <trkpt lat="40.754934009164572" lon="-4.020236022770405">
        <ele>1464.991</ele>
        <time>2021-07-10T08:16:58Z</time>
      </trkpt>
      <trkpt lat="40.754998968914151" lon="-4.020609017461538">
        <ele>1467.1849999999999</ele>
        <time>2021-07-10T08:17:00Z</time>
      </trkpt>
      <trkpt lat="40.755040040239692" lon="-4.020795011892915">
        <ele>1468.0740000000001</ele>
        <time>2021-07-10T08:17:01Z</time>
      </trkpt>
      <trkpt lat="40.755184041336179" lon="-4.021100029349327">
        <ele>1468.788</ele>
        <time>2021-07-10T08:17:03Z</time>
      </trkpt>
      <trkpt lat="40.755385961383581" lon="-4.021222991868854">
        <ele>1469.0239999999999</ele>
        <time>2021-07-10T08:17:05Z</time>
      </trkpt>
      <trkpt lat="40.755621995776892" lon="-4.021142022684217">
        <ele>1471.7260000000001</ele>
        <time>2021-07-10T08:17:07Z</time>
      </trkpt>
      <trkpt lat="40.755836991593242" lon="-4.020929960533977">
        <ele>1474.508</ele>
        <time>2021-07-10T08:17:09Z</time>
      </trkpt>
      <trkpt lat="40.756030026823282" lon="-4.020671965554357">
        <ele>1477.645</ele>
        <time>2021-07-10T08:17:11Z</time>
      </trkpt>
      <trkpt lat="40.756179979071021" lon="-4.020342975854874">
        <ele>1481.415</ele>
        <time>2021-07-10T08:17:13Z</time>
      </trkpt>
      <trkpt lat="40.75626203790307" lon="-4.020191011950374">
        <ele>1484.2660000000001</ele>
        <time>2021-07-10T08:17:14Z</time>
      </trkpt>
      <trkpt lat="40.756400004029274" lon="-4.019875014200807">
        <ele>1487.5519999999999</ele>
        <time>2021-07-10T08:17:16Z</time>
      </trkpt>
      <trkpt lat="40.75645700097084" lon="-4.019701005890966">
        <ele>1490.8340000000001</ele>
        <time>2021-07-10T08:17:17Z</time>
      </trkpt>
      <trkpt lat="40.756508968770504" lon="-4.019522974267602">
        <ele>1493.847</ele>
        <time>2021-07-10T08:17:18Z</time>
      </trkpt>
      <trkpt lat="40.756567977368832" lon="-4.019348965957761">
        <ele>1496.511</ele>
        <time>2021-07-10T08:17:19Z</time>
      </trkpt>
      <trkpt lat="40.756722958758473" lon="-4.019037997350097">
        <ele>1499.3599999999999</ele>
        <time>2021-07-10T08:17:21Z</time>
      </trkpt>
      <trkpt lat="40.756793031468987" lon="-4.01887102983892">
        <ele>1501.413</ele>
        <time>2021-07-10T08:17:22Z</time>
      </trkpt>
      <trkpt lat="40.756915993988514" lon="-4.018536005169153">
        <ele>1503.7429999999999</ele>
        <time>2021-07-10T08:17:24Z</time>
      </trkpt>
      <trkpt lat="40.756955975666642" lon="-4.018360991030932">
        <ele>1505.9069999999999</ele>
        <time>2021-07-10T08:17:25Z</time>
      </trkpt>
      <trkpt lat="40.756996041163802" lon="-4.018180025741458">
        <ele>1507.6079999999999</ele>
        <time>2021-07-10T08:17:26Z</time>
      </trkpt>
      <trkpt lat="40.757097965106368" lon="-4.017837960273027">
        <ele>1509.848</ele>
        <time>2021-07-10T08:17:28Z</time>
      </trkpt>
      <trkpt lat="40.757156973704696" lon="-4.017674010246992">
        <ele>1511.7180000000001</ele>
        <time>2021-07-10T08:17:29Z</time>
      </trkpt>
      <trkpt lat="40.757253030315042" lon="-4.01732599362731">
        <ele>1514.1489999999999</ele>
        <time>2021-07-10T08:17:31Z</time>
      </trkpt>
      <trkpt lat="40.757302986457944" lon="-4.016965990886092">
        <ele>1517.145</ele>
        <time>2021-07-10T08:17:33Z</time>
      </trkpt>
      <trkpt lat="40.757278008386493" lon="-4.016609005630016">
        <ele>1519.7470000000001</ele>
        <time>2021-07-10T08:17:35Z</time>
      </trkpt>
      <trkpt lat="40.757350008934736" lon="-4.016249002888799">
        <ele>1523.76</ele>
        <time>2021-07-10T08:17:37Z</time>
      </trkpt>
      <trkpt lat="40.757457967847586" lon="-4.015885982662439">
        <ele>1527.654</ele>
        <time>2021-07-10T08:17:39Z</time>
      </trkpt>
      <trkpt lat="40.757532985880971" lon="-4.01571499183774">
        <ele>1530.123</ele>
        <time>2021-07-10T08:17:40Z</time>
      </trkpt>
      <trkpt lat="40.757614960893989" lon="-4.015548024326563">
        <ele>1531.473</ele>
        <time>2021-07-10T08:17:41Z</time>
      </trkpt>
      <trkpt lat="40.757800033316016" lon="-4.015214005485177">
        <ele>1532.2850000000001</ele>
        <time>2021-07-10T08:17:43Z</time>
      </trkpt>
      <trkpt lat="40.757997008040547" lon="-4.01487504132092">
        <ele>1533.913</ele>
        <time>2021-07-10T08:17:45Z</time>
      </trkpt>
      <trkpt lat="40.758091975003481" lon="-4.014708995819092">
        <ele>1535.9079999999999</ele>
        <time>2021-07-10T08:17:46Z</time>
      </trkpt>
      <trkpt lat="40.758183002471924" lon="-4.014545967802405">
        <ele>1536.8340000000001</ele>
        <time>2021-07-10T08:17:47Z</time>
      </trkpt>
      <trkpt lat="40.75834795832634" lon="-4.014254026114941">
        <ele>1538.2739999999999</ele>
        <time>2021-07-10T08:17:49Z</time>
      </trkpt>
      <trkpt lat="40.758539987728" lon="-4.014032995328307">
        <ele>1540.6849999999999</ele>
        <time>2021-07-10T08:17:51Z</time>
      </trkpt>
      <trkpt lat="40.758789014071226" lon="-4.013881031423807">
        <ele>1544.0609999999999</ele>
        <time>2021-07-10T08:17:53Z</time>
      </trkpt>
      <trkpt lat="40.759069975465536" lon="-4.013828979805112">
        <ele>1546.4829999999999</ele>
        <time>2021-07-10T08:17:55Z</time>
      </trkpt>
      <trkpt lat="40.759217999875546" lon="-4.013824034482241">
        <ele>1549.0260000000001</ele>
        <time>2021-07-10T08:17:56Z</time>
      </trkpt>
      <trkpt lat="40.759512037038803" lon="-4.0138019900769">
        <ele>1551.6900000000001</ele>
        <time>2021-07-10T08:17:58Z</time>
      </trkpt>
      <trkpt lat="40.759670035913587" lon="-4.013772988691926">
        <ele>1553.4190000000001</ele>
        <time>2021-07-10T08:17:59Z</time>
      </trkpt>
      <trkpt lat="40.7598299626261" lon="-4.013727977871895">
        <ele>1555.038</ele>
        <time>2021-07-10T08:18:00Z</time>
      </trkpt>
      <trkpt lat="40.759990978986025" lon="-4.013679027557373">
        <ele>1556.1700000000001</ele>
        <time>2021-07-10T08:18:01Z</time>
      </trkpt>
      <trkpt lat="40.760154007002711" lon="-4.013632005080581">
        <ele>1557.4169999999999</ele>
        <time>2021-07-10T08:18:02Z</time>
      </trkpt>
      <trkpt lat="40.76049598865211" lon="-4.01356402784586">
        <ele>1558.508</ele>
        <time>2021-07-10T08:18:04Z</time>
      </trkpt>
      <trkpt lat="40.760664967820048" lon="-4.013538965955377">
        <ele>1559.53</ele>
        <time>2021-07-10T08:18:05Z</time>
      </trkpt>
      <trkpt lat="40.760992029681802" lon="-4.013447016477585">
        <ele>1560.3900000000001</ele>
        <time>2021-07-10T08:18:07Z</time>
      </trkpt>
      <trkpt lat="40.761316996067762" lon="-4.013292035087943">
        <ele>1562.0609999999999</ele>
        <time>2021-07-10T08:18:09Z</time>
      </trkpt>
      <trkpt lat="40.761488992720842" lon="-4.013207964599133">
        <ele>1563.067</ele>
        <time>2021-07-10T08:18:10Z</time>
      </trkpt>
      <trkpt lat="40.761807002127171" lon="-4.013077039271593">
        <ele>1564.799</ele>
        <time>2021-07-10T08:18:12Z</time>
      </trkpt>
      <trkpt lat="40.761974975466728" lon="-4.013023981824517">
        <ele>1565.422</ele>
        <time>2021-07-10T08:18:13Z</time>
      </trkpt>
      <trkpt lat="40.762286027893424" lon="-4.012902025133371">
        <ele>1568.2860000000001</ele>
        <time>2021-07-10T08:18:15Z</time>
      </trkpt>
      <trkpt lat="40.762419970706105" lon="-4.01281300932169">
        <ele>1570.2149999999999</ele>
        <time>2021-07-10T08:18:16Z</time>
      </trkpt>
      <trkpt lat="40.762671008706093" lon="-4.012584015727043">
        <ele>1572.2739999999999</ele>
        <time>2021-07-10T08:18:18Z</time>
      </trkpt>
      <trkpt lat="40.762915005907416" lon="-4.012291990220547">
        <ele>1575.556</ele>
        <time>2021-07-10T08:18:20Z</time>
      </trkpt>
      <trkpt lat="40.76309697702527" lon="-4.011982027441263">
        <ele>1579.021</ele>
        <time>2021-07-10T08:18:22Z</time>
      </trkpt>
      <trkpt lat="40.76317903585732" lon="-4.011811958625913">
        <ele>1581.308</ele>
        <time>2021-07-10T08:18:23Z</time>
      </trkpt>
      <trkpt lat="40.763307027518749" lon="-4.011435024440289">
        <ele>1585.384</ele>
        <time>2021-07-10T08:18:25Z</time>
      </trkpt>
      <trkpt lat="40.763364024460316" lon="-4.011081978678703">
        <ele>1589.3240000000001</ele>
        <time>2021-07-10T08:18:27Z</time>
      </trkpt>
      <trkpt lat="40.763391014188528" lon="-4.010911993682385">
        <ele>1593.3150000000001</ele>
        <time>2021-07-10T08:18:28Z</time>
      </trkpt>
      <trkpt lat="40.763464020565152" lon="-4.010607982054353">
        <ele>1596.6610000000001</ele>
        <time>2021-07-10T08:18:30Z</time>
      </trkpt>
      <trkpt lat="40.76361296698451" lon="-4.010423999279738">
        <ele>1599.0129999999999</ele>
        <time>2021-07-10T08:18:32Z</time>
      </trkpt>
      <trkpt lat="40.763735007494688" lon="-4.010358033701778">
        <ele>1601.5160000000001</ele>
        <time>2021-07-10T08:18:33Z</time>
      </trkpt>
      <trkpt lat="40.763869034126401" lon="-4.010287038981915">
        <ele>1603.3099999999999</ele>
        <time>2021-07-10T08:18:34Z</time>
      </trkpt>
      <trkpt lat="40.764008006080985" lon="-4.010210009291768">
        <ele>1604.6289999999999</ele>
        <time>2021-07-10T08:18:35Z</time>
      </trkpt>
      <trkpt lat="40.764149995520711" lon="-4.010130967944861">
        <ele>1605.6559999999999</ele>
        <time>2021-07-10T08:18:36Z</time>
      </trkpt>
      <trkpt lat="40.764442021027207" lon="-4.009969029575586">
        <ele>1607.9590000000001</ele>
        <time>2021-07-10T08:18:38Z</time>
      </trkpt>
      <trkpt lat="40.764597002416849" lon="-4.009888982400298">
        <ele>1609.614</ele>
        <time>2021-07-10T08:18:39Z</time>
      </trkpt>
      <trkpt lat="40.76474703848362" lon="-4.009821005165577">
        <ele>1611.008</ele>
        <time>2021-07-10T08:18:40Z</time>
      </trkpt>
      <trkpt lat="40.7649000082165" lon="-4.009761996567249">
        <ele>1611.8920000000001</ele>
        <time>2021-07-10T08:18:41Z</time>
      </trkpt>
      <trkpt lat="40.76504903845489" lon="-4.009711034595966">
        <ele>1612.6220000000001</ele>
        <time>2021-07-10T08:18:42Z</time>
      </trkpt>
      <trkpt lat="40.765312984585762" lon="-4.009626964107156">
        <ele>1614.143</ele>
        <time>2021-07-10T08:18:44Z</time>
      </trkpt>
      <trkpt lat="40.765559999272227" lon="-4.009581031277776">
        <ele>1616.499</ele>
        <time>2021-07-10T08:18:46Z</time>
      </trkpt>
      <trkpt lat="40.765683967620134" lon="-4.009603997692466">
        <ele>1619.181</ele>
        <time>2021-07-10T08:18:47Z</time>
      </trkpt>
      <trkpt lat="40.765791004523635" lon="-4.009675998240709">
        <ele>1621.0139999999999</ele>
        <time>2021-07-10T08:18:48Z</time>
      </trkpt>
      <trkpt lat="40.765976998955011" lon="-4.009884959086776">
        <ele>1623.4780000000001</ele>
        <time>2021-07-10T08:18:50Z</time>
      </trkpt>
      <trkpt lat="40.766217978671193" lon="-4.010046981275082">
        <ele>1625.1669999999999</ele>
        <time>2021-07-10T08:18:52Z</time>
      </trkpt>
      <trkpt lat="40.766469016671181" lon="-4.010079000145197">
        <ele>1627.1949999999999</ele>
        <time>2021-07-10T08:18:54Z</time>
      </trkpt>
      <trkpt lat="40.766607988625765" lon="-4.0100650023669">
        <ele>1629.3489999999999</ele>
        <time>2021-07-10T08:18:55Z</time>
      </trkpt>
      <trkpt lat="40.76692096889019" lon="-4.010018985718489">
        <ele>1631.223</ele>
        <time>2021-07-10T08:18:57Z</time>
      </trkpt>
      <trkpt lat="40.767234032973647" lon="-4.009971963241696">
        <ele>1633.008</ele>
        <time>2021-07-10T08:18:59Z</time>
      </trkpt>
      <trkpt lat="40.767550030723214" lon="-4.009929969906807">
        <ele>1635.4359999999999</ele>
        <time>2021-07-10T08:19:01Z</time>
      </trkpt>
      <trkpt lat="40.767713980749249" lon="-4.009899040684104">
        <ele>1637.6959999999999</ele>
        <time>2021-07-10T08:19:02Z</time>
      </trkpt>
      <trkpt lat="40.768014974892139" lon="-4.009775994345546">
        <ele>1639.067</ele>
        <time>2021-07-10T08:19:04Z</time>
      </trkpt>
      <trkpt lat="40.768170040100813" lon="-4.009681027382612">
        <ele>1641.7329999999999</ele>
        <time>2021-07-10T08:19:05Z</time>
      </trkpt>
      <trkpt lat="40.768319992348552" lon="-4.009582959115505">
        <ele>1645.0350000000001</ele>
        <time>2021-07-10T08:19:06Z</time>
      </trkpt>
      <trkpt lat="40.768472040072083" lon="-4.00948497466743">
        <ele>1647.7180000000001</ele>
        <time>2021-07-10T08:19:07Z</time>
      </trkpt>
      <trkpt lat="40.76876699924469" lon="-4.009306021034718">
        <ele>1651.5519999999999</ele>
        <time>2021-07-10T08:19:09Z</time>
      </trkpt>
      <trkpt lat="40.769073022529483" lon="-4.009126983582974">
        <ele>1654.721</ele>
        <time>2021-07-10T08:19:11Z</time>
      </trkpt>
      <trkpt lat="40.769233033061028" lon="-4.009031010791659">
        <ele>1656.925</ele>
        <time>2021-07-10T08:19:12Z</time>
      </trkpt>
      <trkpt lat="40.769407041370869" lon="-4.008920034393668">
        <ele>1658.2260000000001</ele>
        <time>2021-07-10T08:19:13Z</time>
      </trkpt>
      <trkpt lat="40.769719015806913" lon="-4.008714007213712">
        <ele>1660.4079999999999</ele>
        <time>2021-07-10T08:19:15Z</time>
      </trkpt>
      <trkpt lat="40.770038031041622" lon="-4.008478978648782">
        <ele>1662.6079999999999</ele>
        <time>2021-07-10T08:19:17Z</time>
      </trkpt>
      <trkpt lat="40.770198963582516" lon="-4.008352998644114">
        <ele>1664.6890000000001</ele>
        <time>2021-07-10T08:19:18Z</time>
      </trkpt>
      <trkpt lat="40.770524013787508" lon="-4.008097015321255">
        <ele>1666.729</ele>
        <time>2021-07-10T08:19:20Z</time>
      </trkpt>
      <trkpt lat="40.770853003486991" lon="-4.007861986756325">
        <ele>1668.6500000000001</ele>
        <time>2021-07-10T08:19:22Z</time>
      </trkpt>
      <trkpt lat="40.771030029281974" lon="-4.007748998701572">
        <ele>1670.556</ele>
        <time>2021-07-10T08:19:23Z</time>
      </trkpt>
      <trkpt lat="40.77134502120316" lon="-4.007568033412099">
        <ele>1673.998</ele>
        <time>2021-07-10T08:19:25Z</time>
      </trkpt>
      <trkpt lat="40.771502014249563" lon="-4.007481029257178">
        <ele>1676.451</ele>
        <time>2021-07-10T08:19:26Z</time>
      </trkpt>
      <trkpt lat="40.771808037534356" lon="-4.007323030382395">
        <ele>1679.2449999999999</ele>
        <time>2021-07-10T08:19:28Z</time>
      </trkpt>
      <trkpt lat="40.771953966468573" lon="-4.007267961278558">
        <ele>1681.8440000000001</ele>
        <time>2021-07-10T08:19:29Z</time>
      </trkpt>
      <trkpt lat="40.772253032773733" lon="-4.007204007357359">
        <ele>1684.3979999999999</ele>
        <time>2021-07-10T08:19:31Z</time>
      </trkpt>
      <trkpt lat="40.772412959486246" lon="-4.007183974608779">
        <ele>1685.3150000000001</ele>
        <time>2021-07-10T08:19:32Z</time>
      </trkpt>
      <trkpt lat="40.772579004988074" lon="-4.007166037335992">
        <ele>1686.626</ele>
        <time>2021-07-10T08:19:33Z</time>
      </trkpt>
      <trkpt lat="40.772729963064194" lon="-4.007144998759031">
        <ele>1688.008</ele>
        <time>2021-07-10T08:19:34Z</time>
      </trkpt>
      <trkpt lat="40.773013019934297" lon="-4.007071992382407">
        <ele>1690.9459999999999</ele>
        <time>2021-07-10T08:19:36Z</time>
      </trkpt>
      <trkpt lat="40.773312002420425" lon="-4.006956992670894">
        <ele>1694.326</ele>
        <time>2021-07-10T08:19:38Z</time>
      </trkpt>
      <trkpt lat="40.77345097437501" lon="-4.006891027092934">
        <ele>1696.847</ele>
        <time>2021-07-10T08:19:39Z</time>
      </trkpt>
      <trkpt lat="40.773712992668152" lon="-4.006741996854544">
        <ele>1699.673</ele>
        <time>2021-07-10T08:19:41Z</time>
      </trkpt>
      <trkpt lat="40.773850036785007" lon="-4.006655998528004">
        <ele>1701.665</ele>
        <time>2021-07-10T08:19:42Z</time>
      </trkpt>
      <trkpt lat="40.774130998179317" lon="-4.006490036845207">
        <ele>1704.4380000000001</ele>
        <time>2021-07-10T08:19:44Z</time>
      </trkpt>
      <trkpt lat="40.774269970133901" lon="-4.006409989669919">
        <ele>1707.192</ele>
        <time>2021-07-10T08:19:45Z</time>
      </trkpt>
      <trkpt lat="40.774408020079136" lon="-4.006329020485282">
        <ele>1708.6610000000001</ele>
        <time>2021-07-10T08:19:46Z</time>
      </trkpt>
      <trkpt lat="40.774695016443729" lon="-4.006179990246892">
        <ele>1711.152</ele>
        <time>2021-07-10T08:19:48Z</time>
      </trkpt>
      <trkpt lat="40.774967009201646" lon="-4.006070019677281">
        <ele>1713.5530000000001</ele>
        <time>2021-07-10T08:19:50Z</time>
      </trkpt>
      <trkpt lat="40.775232966989279" lon="-4.00596097111702">
        <ele>1716.508</ele>
        <time>2021-07-10T08:19:52Z</time>
      </trkpt>
      <trkpt lat="40.77549003995955" lon="-4.005860975012183">
        <ele>1719.7080000000001</ele>
        <time>2021-07-10T08:19:54Z</time>
      </trkpt>
      <trkpt lat="40.775720039382577" lon="-4.005744969472289">
        <ele>1722.682</ele>
        <time>2021-07-10T08:19:56Z</time>
      </trkpt>
      <trkpt lat="40.775969987735152" lon="-4.005603985860944">
        <ele>1725.652</ele>
        <time>2021-07-10T08:19:58Z</time>
      </trkpt>
      <trkpt lat="40.776106026023626" lon="-4.005527961999178">
        <ele>1727.9829999999999</ele>
        <time>2021-07-10T08:19:59Z</time>
      </trkpt>
      <trkpt lat="40.776356980204582" lon="-4.005374992266297">
        <ele>1729.6289999999999</ele>
        <time>2021-07-10T08:20:01Z</time>
      </trkpt>
      <trkpt lat="40.776484971866012" lon="-4.005287988111377">
        <ele>1730.761</ele>
        <time>2021-07-10T08:20:02Z</time>
      </trkpt>
      <trkpt lat="40.776610029861331" lon="-4.005205007269979">
        <ele>1732.5340000000001</ele>
        <time>2021-07-10T08:20:03Z</time>
      </trkpt>
      <trkpt lat="40.776739027351141" lon="-4.00512496009469">
        <ele>1734.278</ele>
        <time>2021-07-10T08:20:04Z</time>
      </trkpt>
      <trkpt lat="40.776982018724084" lon="-4.004976013675332">
        <ele>1736.357</ele>
        <time>2021-07-10T08:20:06Z</time>
      </trkpt>
      <trkpt lat="40.777115961536765" lon="-4.004911975935102">
        <ele>1737.837</ele>
        <time>2021-07-10T08:20:07Z</time>
      </trkpt>
      <trkpt lat="40.77740496955812" lon="-4.00480099953711">
        <ele>1739.4490000000001</ele>
        <time>2021-07-10T08:20:09Z</time>
      </trkpt>
      <trkpt lat="40.777689032256603" lon="-4.004710977897048">
        <ele>1741.713</ele>
        <time>2021-07-10T08:20:11Z</time>
      </trkpt>
      <trkpt lat="40.777842001989484" lon="-4.00467099621892">
        <ele>1743.7080000000001</ele>
        <time>2021-07-10T08:20:12Z</time>
      </trkpt>
      <trkpt lat="40.778154982253909" lon="-4.00458600372076">
        <ele>1745.46</ele>
        <time>2021-07-10T08:20:14Z</time>
      </trkpt>
      <trkpt lat="40.778307029977441" lon="-4.004533030092716">
        <ele>1746.9100000000001</ele>
        <time>2021-07-10T08:20:15Z</time>
      </trkpt>
      <trkpt lat="40.778602994978428" lon="-4.004399003461003">
        <ele>1748.5409999999999</ele>
        <time>2021-07-10T08:20:17Z</time>
      </trkpt>
      <trkpt lat="40.778752025216818" lon="-4.004317028447986">
        <ele>1749.9169999999999</ele>
        <time>2021-07-10T08:20:18Z</time>
      </trkpt>
      <trkpt lat="40.77903700992465" lon="-4.004132961854339">
        <ele>1751.8489999999999</ele>
        <time>2021-07-10T08:20:20Z</time>
      </trkpt>
      <trkpt lat="40.77929399907589" lon="-4.003882007673383">
        <ele>1754.2819999999999</ele>
        <time>2021-07-10T08:20:22Z</time>
      </trkpt>
      <trkpt lat="40.779406987130642" lon="-4.003733983263373">
        <ele>1756.2660000000001</ele>
        <time>2021-07-10T08:20:23Z</time>
      </trkpt>
      <trkpt lat="40.779514024034142" lon="-4.003563998267055">
        <ele>1758.395</ele>
        <time>2021-07-10T08:20:24Z</time>
      </trkpt>
      <trkpt lat="40.779690966010094" lon="-4.003234002739191">
        <ele>1760.7739999999999</ele>
        <time>2021-07-10T08:20:26Z</time>
      </trkpt>
      <trkpt lat="40.779780987650156" lon="-4.003053959459066">
        <ele>1763.2560000000001</ele>
        <time>2021-07-10T08:20:27Z</time>
      </trkpt>
      <trkpt lat="40.779971005395055" lon="-4.002690017223358">
        <ele>1766.021</ele>
        <time>2021-07-10T08:20:29Z</time>
      </trkpt>
      <trkpt lat="40.780168985947967" lon="-4.002378964796662">
        <ele>1768.4079999999999</ele>
        <time>2021-07-10T08:20:31Z</time>
      </trkpt>
      <trkpt lat="40.780407031998038" lon="-4.002119963988662">
        <ele>1770.874</ele>
        <time>2021-07-10T08:20:33Z</time>
      </trkpt>
      <trkpt lat="40.780528988689184" lon="-4.002001024782658">
        <ele>1772.3340000000001</ele>
        <time>2021-07-10T08:20:34Z</time>
      </trkpt>
      <trkpt lat="40.780736021697521" lon="-4.001791980117559">
        <ele>1773.5650000000001</ele>
        <time>2021-07-10T08:20:36Z</time>
      </trkpt>
      <trkpt lat="40.780927967280149" lon="-4.001611014828086">
        <ele>1775.3409999999999</ele>
        <time>2021-07-10T08:20:38Z</time>
      </trkpt>
      <trkpt lat="40.781138017773628" lon="-4.001488974317908">
        <ele>1777.2829999999999</ele>
        <time>2021-07-10T08:20:40Z</time>
      </trkpt>
      <trkpt lat="40.781338009983301" lon="-4.001504983752966">
        <ele>1779.566</ele>
        <time>2021-07-10T08:20:42Z</time>
      </trkpt>
      <trkpt lat="40.781521992757916" lon="-4.001685027033091">
        <ele>1781.02</ele>
        <time>2021-07-10T08:20:44Z</time>
      </trkpt>
      <trkpt lat="40.78161402605474" lon="-4.001808995380998">
        <ele>1782.789</ele>
        <time>2021-07-10T08:20:45Z</time>
      </trkpt>
      <trkpt lat="40.781787028536201" lon="-4.002040000632405">
        <ele>1784.2850000000001</ele>
        <time>2021-07-10T08:20:47Z</time>
      </trkpt>
      <trkpt lat="40.782020967453718" lon="-4.002193976193667">
        <ele>1785.6890000000001</ele>
        <time>2021-07-10T08:20:49Z</time>
      </trkpt>
      <trkpt lat="40.782164968550205" lon="-4.002230018377304">
        <ele>1786.617</ele>
        <time>2021-07-10T08:20:50Z</time>
      </trkpt>
      <trkpt lat="40.782436039298773" lon="-4.002259019762278">
        <ele>1788.008</ele>
        <time>2021-07-10T08:20:52Z</time>
      </trkpt>
      <trkpt lat="40.782579034566879" lon="-4.002264970913529">
        <ele>1789.5250000000001</ele>
        <time>2021-07-10T08:20:53Z</time>
      </trkpt>
      <trkpt lat="40.782867958769202" lon="-4.002261031419039">
        <ele>1791.4349999999999</ele>
        <time>2021-07-10T08:20:55Z</time>
      </trkpt>
      <trkpt lat="40.783124025911093" lon="-4.002225995063782">
        <ele>1793.546</ele>
        <time>2021-07-10T08:20:57Z</time>
      </trkpt>
      <trkpt lat="40.783256962895393" lon="-4.002197999507189">
        <ele>1795.2719999999999</ele>
        <time>2021-07-10T08:20:58Z</time>
      </trkpt>
      <trkpt lat="40.783389983698726" lon="-4.002161035314202">
        <ele>1796.654</ele>
        <time>2021-07-10T08:20:59Z</time>
      </trkpt>
      <trkpt lat="40.7835260219872" lon="-4.00211401283741">
        <ele>1798.627</ele>
        <time>2021-07-10T08:21:00Z</time>
      </trkpt>
      <trkpt lat="40.783762978389859" lon="-4.002004964277148">
        <ele>1801.0609999999999</ele>
        <time>2021-07-10T08:21:02Z</time>
      </trkpt>
      <trkpt lat="40.783989038318396" lon="-4.00183598510921">
        <ele>1803.5799999999999</ele>
        <time>2021-07-10T08:21:04Z</time>
      </trkpt>
      <trkpt lat="40.784094985574484" lon="-4.001721991226077">
        <ele>1805.546</ele>
        <time>2021-07-10T08:21:05Z</time>
      </trkpt>
      <trkpt lat="40.784271005541086" lon="-4.001475982367992">
        <ele>1807.6880000000001</ele>
        <time>2021-07-10T08:21:07Z</time>
      </trkpt>
      <trkpt lat="40.784354992210865" lon="-4.001341033726931">
        <ele>1809.4159999999999</ele>
        <time>2021-07-10T08:21:08Z</time>
      </trkpt>
      <trkpt lat="40.78451500274241" lon="-4.001050014048815">
        <ele>1811.4079999999999</ele>
        <time>2021-07-10T08:21:10Z</time>
      </trkpt>
      <trkpt lat="40.784677024930716" lon="-4.000799981877208">
        <ele>1813.8610000000001</ele>
        <time>2021-07-10T08:21:12Z</time>
      </trkpt>
      <trkpt lat="40.784870982170105" lon="-4.000583980232477">
        <ele>1816.3409999999999</ele>
        <time>2021-07-10T08:21:14Z</time>
      </trkpt>
      <trkpt lat="40.78498899936676" lon="-4.000498987734318">
        <ele>1818.692</ele>
        <time>2021-07-10T08:21:15Z</time>
      </trkpt>
      <trkpt lat="40.785122020170093" lon="-4.000427993014455">
        <ele>1820.558</ele>
        <time>2021-07-10T08:21:16Z</time>
      </trkpt>
      <trkpt lat="40.785370040684938" lon="-4.000354986637831">
        <ele>1822.73</ele>
        <time>2021-07-10T08:21:18Z</time>
      </trkpt>
      <trkpt lat="40.785499960184097" lon="-4.000346018001437">
        <ele>1824.5930000000001</ele>
        <time>2021-07-10T08:21:19Z</time>
      </trkpt>
      <trkpt lat="40.785628035664558" lon="-4.000355992466211">
        <ele>1826.347</ele>
        <time>2021-07-10T08:21:20Z</time>
      </trkpt>
      <trkpt lat="40.785758960992098" lon="-4.000387005507946">
        <ele>1828.336</ele>
        <time>2021-07-10T08:21:21Z</time>
      </trkpt>
      <trkpt lat="40.785972028970718" lon="-4.000527989119291">
        <ele>1830.971</ele>
        <time>2021-07-10T08:21:23Z</time>
      </trkpt>
      <trkpt lat="40.786109995096922" lon="-4.000795036554337">
        <ele>1833.6410000000001</ele>
        <time>2021-07-10T08:21:25Z</time>
      </trkpt>
      <trkpt lat="40.786143019795418" lon="-4.000966027379036">
        <ele>1835.3150000000001</ele>
        <time>2021-07-10T08:21:26Z</time>
      </trkpt>
      <trkpt lat="40.786187024787068" lon="-4.001293005421758">
        <ele>1836.6079999999999</ele>
        <time>2021-07-10T08:21:28Z</time>
      </trkpt>
      <trkpt lat="40.786223988980055" lon="-4.001458967104554">
        <ele>1837.414</ele>
        <time>2021-07-10T08:21:29Z</time>
      </trkpt>
      <trkpt lat="40.78627796843648" lon="-4.00162098929286">
        <ele>1837.864</ele>
        <time>2021-07-10T08:21:30Z</time>
      </trkpt>
      <trkpt lat="40.786352986469865" lon="-4.001786028966308">
        <ele>1838.355</ele>
        <time>2021-07-10T08:21:31Z</time>
      </trkpt>
      <trkpt lat="40.786553984507918" lon="-4.002044023945928">
        <ele>1839.021</ele>
        <time>2021-07-10T08:21:33Z</time>
      </trkpt>
      <trkpt lat="40.78668599948287" lon="-4.002146031707525">
        <ele>1839.453</ele>
        <time>2021-07-10T08:21:34Z</time>
      </trkpt>
      <trkpt lat="40.786828994750977" lon="-4.002233035862446">
        <ele>1840.576</ele>
        <time>2021-07-10T08:21:35Z</time>
      </trkpt>
      <trkpt lat="40.786984981968999" lon="-4.002325991168618">
        <ele>1841.4200000000001</ele>
        <time>2021-07-10T08:21:36Z</time>
      </trkpt>
      <trkpt lat="40.787267033010721" lon="-4.00250100530684">
        <ele>1842.479</ele>
        <time>2021-07-10T08:21:38Z</time>
      </trkpt>
      <trkpt lat="40.787404999136925" lon="-4.002593038603663">
        <ele>1843.7460000000001</ele>
        <time>2021-07-10T08:21:39Z</time>
      </trkpt>
      <trkpt lat="40.787537014111876" lon="-4.002680964767933">
        <ele>1844.8879999999999</ele>
        <time>2021-07-10T08:21:40Z</time>
      </trkpt>
      <trkpt lat="40.787665005773306" lon="-4.002766041085124">
        <ele>1846.2159999999999</ele>
        <time>2021-07-10T08:21:41Z</time>
      </trkpt>
      <trkpt lat="40.787870027124882" lon="-4.002897972241044">
        <ele>1848.308</ele>
        <time>2021-07-10T08:21:43Z</time>
      </trkpt>
      <trkpt lat="40.787968011572957" lon="-4.002961004152894">
        <ele>1849.7809999999999</ele>
        <time>2021-07-10T08:21:44Z</time>
      </trkpt>
      <trkpt lat="40.78806197270751" lon="-4.003019006922841">
        <ele>1850.8209999999999</ele>
        <time>2021-07-10T08:21:45Z</time>
      </trkpt>
      <trkpt lat="40.788154006004333" lon="-4.003078015521169">
        <ele>1852.212</ele>
        <time>2021-07-10T08:21:46Z</time>
      </trkpt>
      <trkpt lat="40.788232041522861" lon="-4.00312596000731">
        <ele>1853.278</ele>
        <time>2021-07-10T08:21:47Z</time>
      </trkpt>
      <trkpt lat="40.788353998214006" lon="-4.003198966383934">
        <ele>1854.5599999999999</ele>
        <time>2021-07-10T08:21:49Z</time>
      </trkpt>
      <trkpt lat="40.788400014862418" lon="-4.003227967768908">
        <ele>1855.433</ele>
        <time>2021-07-10T08:21:50Z</time>
      </trkpt>
      <trkpt lat="40.788479978218675" lon="-4.003285970538855">
        <ele>1856.6769999999999</ele>
        <time>2021-07-10T08:21:52Z</time>
      </trkpt>
      <trkpt lat="40.788522977381945" lon="-4.003318995237351">
        <ele>1857.4159999999999</ele>
        <time>2021-07-10T08:21:53Z</time>
      </trkpt>
      <trkpt lat="40.788639988750219" lon="-4.003401976078749">
        <ele>1858.528</ele>
        <time>2021-07-10T08:21:55Z</time>
      </trkpt>
      <trkpt lat="40.788716012611985" lon="-4.003456961363554">
        <ele>1859.0889999999999</ele>
        <time>2021-07-10T08:21:56Z</time>
      </trkpt>
      <trkpt lat="40.788874011486769" lon="-4.003572966903448">
        <ele>1859.617</ele>
        <time>2021-07-10T08:21:58Z</time>
      </trkpt>
      <trkpt lat="40.789047013968229" lon="-4.003707999363542">
        <ele>1859.808</ele>
        <time>2021-07-10T08:22:00Z</time>
      </trkpt>
      <trkpt lat="40.789137035608292" lon="-4.003783017396927">
        <ele>1859.6489999999999</ele>
        <time>2021-07-10T08:22:01Z</time>
      </trkpt>
      <trkpt lat="40.789233008399606" lon="-4.003870021551848">
        <ele>1859.259</ele>
        <time>2021-07-10T08:22:02Z</time>
      </trkpt>
      <trkpt lat="40.789411040022969" lon="-4.004063978791237">
        <ele>1858.24</ele>
        <time>2021-07-10T08:22:04Z</time>
      </trkpt>
      <trkpt lat="40.789595022797585" lon="-4.004308981820941">
        <ele>1857.1759999999999</ele>
        <time>2021-07-10T08:22:06Z</time>
      </trkpt>
      <trkpt lat="40.789783028885722" lon="-4.004606958478689">
        <ele>1855.8879999999999</ele>
        <time>2021-07-10T08:22:08Z</time>
      </trkpt>
      <trkpt lat="40.789879001677036" lon="-4.004770992323756">
        <ele>1854.1410000000001</ele>
        <time>2021-07-10T08:22:09Z</time>
      </trkpt>
      <trkpt lat="40.790084023028612" lon="-4.005118003115058">
        <ele>1852.2349999999999</ele>
        <time>2021-07-10T08:22:11Z</time>
      </trkpt>
      <trkpt lat="40.790199022740126" lon="-4.005309026688337">
        <ele>1850.694</ele>
        <time>2021-07-10T08:22:12Z</time>
      </trkpt>
      <trkpt lat="40.790415024384856" lon="-4.005667017772794">
        <ele>1847.992</ele>
        <time>2021-07-10T08:22:14Z</time>
      </trkpt>
      <trkpt lat="40.790532035753131" lon="-4.005863992497325">
        <ele>1846.0730000000001</ele>
        <time>2021-07-10T08:22:15Z</time>
      </trkpt>
      <trkpt lat="40.790796987712383" lon="-4.006246961653233">
        <ele>1843.72</ele>
        <time>2021-07-10T08:22:17Z</time>
      </trkpt>
      <trkpt lat="40.791093036532402" lon="-4.006557008251548">
        <ele>1840.2080000000001</ele>
        <time>2021-07-10T08:22:19Z</time>
      </trkpt>
      <trkpt lat="40.791254974901676" lon="-4.00671198964119">
        <ele>1837.2760000000001</ele>
        <time>2021-07-10T08:22:20Z</time>
      </trkpt>
      <trkpt lat="40.791415991261601" lon="-4.006874011829495">
        <ele>1834.796</ele>
        <time>2021-07-10T08:22:21Z</time>
      </trkpt>
      <trkpt lat="40.791752021759748" lon="-4.007210964336991">
        <ele>1831.617</ele>
        <time>2021-07-10T08:22:23Z</time>
      </trkpt>
      <trkpt lat="40.792071036994457" lon="-4.007537020370364">
        <ele>1828.413</ele>
        <time>2021-07-10T08:22:25Z</time>
      </trkpt>
      <trkpt lat="40.792389968410134" lon="-4.007855029776692">
        <ele>1825.2249999999999</ele>
        <time>2021-07-10T08:22:27Z</time>
      </trkpt>
      <trkpt lat="40.79265802167356" lon="-4.008100032806397">
        <ele>1822.6179999999999</ele>
        <time>2021-07-10T08:22:29Z</time>
      </trkpt>
      <trkpt lat="40.792799005284905" lon="-4.008185025304556">
        <ele>1820.5619999999999</ele>
        <time>2021-07-10T08:22:30Z</time>
      </trkpt>
      <trkpt lat="40.792944012209773" lon="-4.008239004760981">
        <ele>1818.6310000000001</ele>
        <time>2021-07-10T08:22:31Z</time>
      </trkpt>
      <trkpt lat="40.793094970285892" lon="-4.008269011974335">
        <ele>1816.585</ele>
        <time>2021-07-10T08:22:32Z</time>
      </trkpt>
      <trkpt lat="40.793253974989057" lon="-4.008271023631096">
        <ele>1814.5889999999999</ele>
        <time>2021-07-10T08:22:33Z</time>
      </trkpt>
      <trkpt lat="40.79358296468854" lon="-4.008183013647795">
        <ele>1812.817</ele>
        <time>2021-07-10T08:22:35Z</time>
      </trkpt>
      <trkpt lat="40.793889993801713" lon="-4.007966006174684">
        <ele>1810.9079999999999</ele>
        <time>2021-07-10T08:22:37Z</time>
      </trkpt>
      <trkpt lat="40.794142037630081" lon="-4.007641961798072">
        <ele>1808.2950000000001</ele>
        <time>2021-07-10T08:22:39Z</time>
      </trkpt>
      <trkpt lat="40.794373964890838" lon="-4.007272990420461">
        <ele>1805.5150000000001</ele>
        <time>2021-07-10T08:22:41Z</time>
      </trkpt>
      <trkpt lat="40.794492987915874" lon="-4.007085990160704">
        <ele>1802.9659999999999</ele>
        <time>2021-07-10T08:22:42Z</time>
      </trkpt>
      <trkpt lat="40.794724998995662" lon="-4.006764963269234">
        <ele>1799.5219999999999</ele>
        <time>2021-07-10T08:22:44Z</time>
      </trkpt>
      <trkpt lat="40.794991040602326" lon="-4.006538987159729">
        <ele>1796.2840000000001</ele>
        <time>2021-07-10T08:22:46Z</time>
      </trkpt>
      <trkpt lat="40.795307960361242" lon="-4.00643496774137">
        <ele>1793.1469999999999</ele>
        <time>2021-07-10T08:22:48Z</time>
      </trkpt>
      <trkpt lat="40.795480040833354" lon="-4.006424993276596">
        <ele>1790.3409999999999</ele>
        <time>2021-07-10T08:22:49Z</time>
      </trkpt>
      <trkpt lat="40.795655976980925" lon="-4.006451983004808">
        <ele>1788.1900000000001</ele>
        <time>2021-07-10T08:22:50Z</time>
      </trkpt>
      <trkpt lat="40.796012962237" lon="-4.00656396523118">
        <ele>1785.5319999999999</ele>
        <time>2021-07-10T08:22:52Z</time>
      </trkpt>
      <trkpt lat="40.796199040487409" lon="-4.006619034335017">
        <ele>1782.992</ele>
        <time>2021-07-10T08:22:53Z</time>
      </trkpt>
      <trkpt lat="40.796576980501413" lon="-4.00669296272099">
        <ele>1780.3109999999999</ele>
        <time>2021-07-10T08:22:55Z</time>
      </trkpt>
      <trkpt lat="40.796906976029277" lon="-4.006610987707973">
        <ele>1778.508</ele>
        <time>2021-07-10T08:22:57Z</time>
      </trkpt>
      <trkpt lat="40.797037985175848" lon="-4.006484001874924">
        <ele>1777.1099999999999</ele>
        <time>2021-07-10T08:22:58Z</time>
      </trkpt>
      <trkpt lat="40.797283994033933" lon="-4.006169009953737">
        <ele>1775.4100000000001</ele>
        <time>2021-07-10T08:23:00Z</time>
      </trkpt>
      <trkpt lat="40.797401005402207" lon="-4.006005981937051">
        <ele>1773.511</ele>
        <time>2021-07-10T08:23:01Z</time>
      </trkpt>
      <trkpt lat="40.797660006210208" lon="-4.005790986120701">
        <ele>1771.797</ele>
        <time>2021-07-10T08:23:03Z</time>
      </trkpt>
      <trkpt lat="40.797957982867956" lon="-4.005749998614192">
        <ele>1770.499</ele>
        <time>2021-07-10T08:23:05Z</time>
      </trkpt>
      <trkpt lat="40.798267023637891" lon="-4.005823004990816">
        <ele>1768.7619999999999</ele>
        <time>2021-07-10T08:23:07Z</time>
      </trkpt>
      <trkpt lat="40.798429967835546" lon="-4.005884025245905">
        <ele>1766.5160000000001</ele>
        <time>2021-07-10T08:23:08Z</time>
      </trkpt>
      <trkpt lat="40.798732973635197" lon="-4.006042024120688">
        <ele>1763.675</ele>
        <time>2021-07-10T08:23:10Z</time>
      </trkpt>
      <trkpt lat="40.798891978338361" lon="-4.006142020225525">
        <ele>1761.462</ele>
        <time>2021-07-10T08:23:11Z</time>
      </trkpt>
      <trkpt lat="40.799048971384764" lon="-4.006249979138374">
        <ele>1759.5830000000001</ele>
        <time>2021-07-10T08:23:12Z</time>
      </trkpt>
      <trkpt lat="40.799216022714972" lon="-4.006364978849888">
        <ele>1757.9110000000001</ele>
        <time>2021-07-10T08:23:13Z</time>
      </trkpt>
      <trkpt lat="40.799538977444172" lon="-4.006576035171747">
        <ele>1755.6079999999999</ele>
        <time>2021-07-10T08:23:15Z</time>
      </trkpt>
      <trkpt lat="40.799711979925632" lon="-4.006691034883261">
        <ele>1753.0930000000001</ele>
        <time>2021-07-10T08:23:16Z</time>
      </trkpt>
      <trkpt lat="40.800064019858837" lon="-4.006912987679243">
        <ele>1750.5830000000001</ele>
        <time>2021-07-10T08:23:18Z</time>
      </trkpt>
      <trkpt lat="40.800417987629771" lon="-4.007123038172722">
        <ele>1747.954</ele>
        <time>2021-07-10T08:23:20Z</time>
      </trkpt>
      <trkpt lat="40.800591995939612" lon="-4.00722898542881">
        <ele>1745.99</ele>
        <time>2021-07-10T08:23:21Z</time>
      </trkpt>
      <trkpt lat="40.800747983157635" lon="-4.00733401067555">
        <ele>1744.452</ele>
        <time>2021-07-10T08:23:22Z</time>
      </trkpt>
      <trkpt lat="40.800889972597361" lon="-4.007430989295244">
        <ele>1742.2950000000001</ele>
        <time>2021-07-10T08:23:23Z</time>
      </trkpt>
      <trkpt lat="40.801140004768968" lon="-4.007579013705254">
        <ele>1739.3989999999999</ele>
        <time>2021-07-10T08:23:25Z</time>
      </trkpt>
      <trkpt lat="40.801377967000008" lon="-4.007583959028125">
        <ele>1737.3779999999999</ele>
        <time>2021-07-10T08:23:27Z</time>
      </trkpt>
      <trkpt lat="40.801641996949911" lon="-4.007398970425129">
        <ele>1735.567</ele>
        <time>2021-07-10T08:23:29Z</time>
      </trkpt>
      <trkpt lat="40.801879959180951" lon="-4.007149022072554">
        <ele>1733.7809999999999</ele>
        <time>2021-07-10T08:23:31Z</time>
      </trkpt>
      <trkpt lat="40.802095960825682" lon="-4.006850039586425">
        <ele>1732.2190000000001</ele>
        <time>2021-07-10T08:23:33Z</time>
      </trkpt>
      <trkpt lat="40.80219897441566" lon="-4.006688017398119">
        <ele>1730.808</ele>
        <time>2021-07-10T08:23:34Z</time>
      </trkpt>
      <trkpt lat="40.802382035180926" lon="-4.006371013820171">
        <ele>1729.623</ele>
        <time>2021-07-10T08:23:36Z</time>
      </trkpt>
      <trkpt lat="40.802483037114143" lon="-4.006247967481613">
        <ele>1727.953</ele>
        <time>2021-07-10T08:23:37Z</time>
      </trkpt>
      <trkpt lat="40.802602982148528" lon="-4.006166998296976">
        <ele>1727.0540000000001</ele>
        <time>2021-07-10T08:23:38Z</time>
      </trkpt>
      <trkpt lat="40.802733991295099" lon="-4.006116958335042">
        <ele>1725.8499999999999</ele>
        <time>2021-07-10T08:23:39Z</time>
      </trkpt>
      <trkpt lat="40.802872963249683" lon="-4.006100026890636">
        <ele>1724.952</ele>
        <time>2021-07-10T08:23:40Z</time>
      </trkpt>
      <trkpt lat="40.803159959614277" lon="-4.006158029660583">
        <ele>1722.855</ele>
        <time>2021-07-10T08:23:42Z</time>
      </trkpt>
      <trkpt lat="40.803476041182876" lon="-4.006263976916671">
        <ele>1720.759</ele>
        <time>2021-07-10T08:23:44Z</time>
      </trkpt>
      <trkpt lat="40.803775023669004" lon="-4.006356010213494">
        <ele>1717.498</ele>
        <time>2021-07-10T08:23:46Z</time>
      </trkpt>
      <trkpt lat="40.80393604002893" lon="-4.006375959143043">
        <ele>1715.057</ele>
        <time>2021-07-10T08:23:47Z</time>
      </trkpt>
      <trkpt lat="40.804262012243271" lon="-4.006343018263578">
        <ele>1712.5</ele>
        <time>2021-07-10T08:23:49Z</time>
      </trkpt>
      <trkpt lat="40.804434008896351" lon="-4.006295995786786">
        <ele>1711.52</ele>
        <time>2021-07-10T08:23:50Z</time>
      </trkpt>
      <trkpt lat="40.804769033566117" lon="-4.006170015782118">
        <ele>1708.008</ele>
        <time>2021-07-10T08:23:52Z</time>
      </trkpt>
      <trkpt lat="40.804946981370449" lon="-4.006097009405494">
        <ele>1705.652</ele>
        <time>2021-07-10T08:23:53Z</time>
      </trkpt>
      <trkpt lat="40.805142028257251" lon="-4.006030037999153">
        <ele>1703.2919999999999</ele>
        <time>2021-07-10T08:23:54Z</time>
      </trkpt>
      <trkpt lat="40.805332968011498" lon="-4.0059810038656">
        <ele>1701.473</ele>
        <time>2021-07-10T08:23:55Z</time>
      </trkpt>
      <trkpt lat="40.805723983794451" lon="-4.005923001095653">
        <ele>1699.1489999999999</ele>
        <time>2021-07-10T08:23:57Z</time>
      </trkpt>
      <trkpt lat="40.80615196377039" lon="-4.005898023024201">
        <ele>1696.2909999999999</ele>
        <time>2021-07-10T08:23:59Z</time>
      </trkpt>
      <trkpt lat="40.806553037837148" lon="-4.00589500553906">
        <ele>1693.7840000000001</ele>
        <time>2021-07-10T08:24:01Z</time>
      </trkpt>
      <trkpt lat="40.806775996461511" lon="-4.005882013589144">
        <ele>1691.828</ele>
        <time>2021-07-10T08:24:02Z</time>
      </trkpt>
      <trkpt lat="40.807216968387365" lon="-4.005790986120701">
        <ele>1689.2570000000001</ele>
        <time>2021-07-10T08:24:04Z</time>
      </trkpt>
      <trkpt lat="40.80741997808218" lon="-4.005741029977799">
        <ele>1686.5260000000001</ele>
        <time>2021-07-10T08:24:05Z</time>
      </trkpt>
      <trkpt lat="40.807774029672146" lon="-4.005656959488988">
        <ele>1683.6469999999999</ele>
        <time>2021-07-10T08:24:07Z</time>
      </trkpt>
      <trkpt lat="40.807960024103522" lon="-4.005636004731059">
        <ele>1681.4110000000001</ele>
        <time>2021-07-10T08:24:08Z</time>
      </trkpt>
      <trkpt lat="40.808349028229713" lon="-4.00566098280251">
        <ele>1678.508</ele>
        <time>2021-07-10T08:24:10Z</time>
      </trkpt>
      <trkpt lat="40.808547008782625" lon="-4.005687972530723">
        <ele>1676.519</ele>
        <time>2021-07-10T08:24:11Z</time>
      </trkpt>
      <trkpt lat="40.808744989335537" lon="-4.005713034421206">
        <ele>1675.1289999999999</ele>
        <time>2021-07-10T08:24:12Z</time>
      </trkpt>
      <trkpt lat="40.809126030653715" lon="-4.005747986957431">
        <ele>1673.47</ele>
        <time>2021-07-10T08:24:14Z</time>
      </trkpt>
      <trkpt lat="40.809318982064724" lon="-4.005763996392489">
        <ele>1672.2159999999999</ele>
        <time>2021-07-10T08:24:15Z</time>
      </trkpt>
      <trkpt lat="40.809607990086079" lon="-4.005823004990816">
        <ele>1669.6379999999999</ele>
        <time>2021-07-10T08:24:17Z</time>
      </trkpt>
      <trkpt lat="40.809838995337486" lon="-4.006032971665263">
        <ele>1667.6210000000001</ele>
        <time>2021-07-10T08:24:19Z</time>
      </trkpt>
      <trkpt lat="40.809901021420956" lon="-4.006211003288627">
        <ele>1666.2950000000001</ele>
        <time>2021-07-10T08:24:20Z</time>
      </trkpt>
      <trkpt lat="40.809930022805929" lon="-4.006534041836858">
        <ele>1665.2239999999999</ele>
        <time>2021-07-10T08:24:22Z</time>
      </trkpt>
      <trkpt lat="40.809866990894079" lon="-4.006901001557708">
        <ele>1664.6279999999999</ele>
        <time>2021-07-10T08:24:24Z</time>
      </trkpt>
      <trkpt lat="40.809788033366203" lon="-4.007097976282239">
        <ele>1663.789</ele>
        <time>2021-07-10T08:24:25Z</time>
      </trkpt>
      <trkpt lat="40.809701029211283" lon="-4.007283970713615">
        <ele>1662.117</ele>
        <time>2021-07-10T08:24:26Z</time>
      </trkpt>
      <trkpt lat="40.809517968446016" lon="-4.007655959576368">
        <ele>1659.808</ele>
        <time>2021-07-10T08:24:28Z</time>
      </trkpt>
      <trkpt lat="40.809330968186259" lon="-4.00804496370256">
        <ele>1657.4690000000001</ele>
        <time>2021-07-10T08:24:30Z</time>
      </trkpt>
      <trkpt lat="40.809228960424662" lon="-4.008246967568994">
        <ele>1655.1890000000001</ele>
        <time>2021-07-10T08:24:31Z</time>
      </trkpt>
      <trkpt lat="40.80903198570013" lon="-4.008630020543933">
        <ele>1651.8800000000001</ele>
        <time>2021-07-10T08:24:33Z</time>
      </trkpt>
      <trkpt lat="40.808937018737197" lon="-4.00881702080369">
        <ele>1648.1659999999999</ele>
        <time>2021-07-10T08:24:34Z</time>
      </trkpt>
      <trkpt lat="40.808848002925515" lon="-4.009003015235066">
        <ele>1645.3679999999999</ele>
        <time>2021-07-10T08:24:35Z</time>
      </trkpt>
      <trkpt lat="40.808754041790962" lon="-4.009350026026368">
        <ele>1642.481</ele>
        <time>2021-07-10T08:24:37Z</time>
      </trkpt>
      <trkpt lat="40.808743983507156" lon="-4.009544989094138">
        <ele>1640.865</ele>
        <time>2021-07-10T08:24:38Z</time>
      </trkpt>
      <trkpt lat="40.808738032355905" lon="-4.009750010445714">
        <ele>1639.354</ele>
        <time>2021-07-10T08:24:39Z</time>
      </trkpt>
      <trkpt lat="40.808734009042382" lon="-4.0099579654634">
        <ele>1637.2819999999999</ele>
        <time>2021-07-10T08:24:40Z</time>
      </trkpt>
      <trkpt lat="40.808734009042382" lon="-4.010182013735175">
        <ele>1634.7429999999999</ele>
        <time>2021-07-10T08:24:41Z</time>
      </trkpt>
      <trkpt lat="40.808737026527524" lon="-4.010593984276056">
        <ele>1631.817</ele>
        <time>2021-07-10T08:24:43Z</time>
      </trkpt>
      <trkpt lat="40.808738032355905" lon="-4.010817026719451">
        <ele>1629.4079999999999</ele>
        <time>2021-07-10T08:24:44Z</time>
      </trkpt>
      <trkpt lat="40.808735014870763" lon="-4.011235032230616">
        <ele>1626.845</ele>
        <time>2021-07-10T08:24:46Z</time>
      </trkpt>
      <trkpt lat="40.808710958808661" lon="-4.011431001126766">
        <ele>1624.7449999999999</ele>
        <time>2021-07-10T08:24:47Z</time>
      </trkpt>
      <trkpt lat="40.808610962703824" lon="-4.011786980554462">
        <ele>1623.086</ele>
        <time>2021-07-10T08:24:49Z</time>
      </trkpt>
      <trkpt lat="40.808442989364266" lon="-4.012113958597183">
        <ele>1621.252</ele>
        <time>2021-07-10T08:24:51Z</time>
      </trkpt>
      <trkpt lat="40.80834299325943" lon="-4.012281009927392">
        <ele>1619.4839999999999</ele>
        <time>2021-07-10T08:24:52Z</time>
      </trkpt>
      <trkpt lat="40.808138977736235" lon="-4.012646963819861">
        <ele>1618.1669999999999</ele>
        <time>2021-07-10T08:24:54Z</time>
      </trkpt>
      <trkpt lat="40.808065971359611" lon="-4.012842010706663">
        <ele>1617.021</ele>
        <time>2021-07-10T08:24:55Z</time>
      </trkpt>
      <trkpt lat="40.808012997731566" lon="-4.013043008744717">
        <ele>1616.0699999999999</ele>
        <time>2021-07-10T08:24:56Z</time>
      </trkpt>
      <trkpt lat="40.808076029643416" lon="-4.013356994837523">
        <ele>1613.346</ele>
        <time>2021-07-10T08:24:58Z</time>
      </trkpt>
      <trkpt lat="40.808215001598001" lon="-4.013646002858877">
        <ele>1611.3879999999999</ele>
        <time>2021-07-10T08:25:00Z</time>
      </trkpt>
      <trkpt lat="40.808316003531218" lon="-4.013798972591758">
        <ele>1610.2159999999999</ele>
        <time>2021-07-10T08:25:01Z</time>
      </trkpt>
      <trkpt lat="40.808498980477452" lon="-4.014107007533312">
        <ele>1608.7080000000001</ele>
        <time>2021-07-10T08:25:03Z</time>
      </trkpt>
      <trkpt lat="40.808571986854076" lon="-4.014283027499914">
        <ele>1607.5809999999999</ele>
        <time>2021-07-10T08:25:04Z</time>
      </trkpt>
      <trkpt lat="40.80870802514255" lon="-4.014644036069512">
        <ele>1606.5809999999999</ele>
        <time>2021-07-10T08:25:06Z</time>
      </trkpt>
      <trkpt lat="40.808840040117502" lon="-4.014947963878512">
        <ele>1603.752</ele>
        <time>2021-07-10T08:25:08Z</time>
      </trkpt>
      <trkpt lat="40.808924026787281" lon="-4.015051983296871">
        <ele>1601.818</ele>
        <time>2021-07-10T08:25:09Z</time>
      </trkpt>
      <trkpt lat="40.809131981804967" lon="-4.015149967744947">
        <ele>1600.53</ele>
        <time>2021-07-10T08:25:11Z</time>
      </trkpt>
      <trkpt lat="40.809401040896773" lon="-4.015186009928584">
        <ele>1598.663</ele>
        <time>2021-07-10T08:25:13Z</time>
      </trkpt>
      <trkpt lat="40.809559039771557" lon="-4.015185004100204">
        <ele>1597.087</ele>
        <time>2021-07-10T08:25:14Z</time>
      </trkpt>
      <trkpt lat="40.809731958433986" lon="-4.015171006321907">
        <ele>1595.2460000000001</ele>
        <time>2021-07-10T08:25:15Z</time>
      </trkpt>
      <trkpt lat="40.809906972572207" lon="-4.015153991058469">
        <ele>1593.5509999999999</ele>
        <time>2021-07-10T08:25:16Z</time>
      </trkpt>
      <trkpt lat="40.810078969225287" lon="-4.015139993280172">
        <ele>1592.3009999999999</ele>
        <time>2021-07-10T08:25:17Z</time>
      </trkpt>
      <trkpt lat="40.810411982238293" lon="-4.015147034078836">
        <ele>1590.511</ele>
        <time>2021-07-10T08:25:19Z</time>
      </trkpt>
      <trkpt lat="40.810585990548134" lon="-4.015172012150288">
        <ele>1589.4079999999999</ele>
        <time>2021-07-10T08:25:20Z</time>
      </trkpt>
      <trkpt lat="40.810928978025913" lon="-4.015233032405376">
        <ele>1588.432</ele>
        <time>2021-07-10T08:25:22Z</time>
      </trkpt>
      <trkpt lat="40.81111203879118" lon="-4.015252981334925">
        <ele>1587.442</ele>
        <time>2021-07-10T08:25:23Z</time>
      </trkpt>
      <trkpt lat="40.811395011842251" lon="-4.015250969678164">
        <ele>1585.0630000000001</ele>
        <time>2021-07-10T08:25:25Z</time>
      </trkpt>
      <trkpt lat="40.811529960483313" lon="-4.015258010476828">
        <ele>1583.329</ele>
        <time>2021-07-10T08:25:26Z</time>
      </trkpt>
      <trkpt lat="40.811645966023207" lon="-4.015277959406376">
        <ele>1582.221</ele>
        <time>2021-07-10T08:25:27Z</time>
      </trkpt>
      <trkpt lat="40.81184302456677" lon="-4.015435958281159">
        <ele>1580.0540000000001</ele>
        <time>2021-07-10T08:25:29Z</time>
      </trkpt>
      <trkpt lat="40.811964981257915" lon="-4.015704011544585">
        <ele>1577.2180000000001</ele>
        <time>2021-07-10T08:25:31Z</time>
      </trkpt>
      <trkpt lat="40.812002029269934" lon="-4.015875002369285">
        <ele>1574.9870000000001</ele>
        <time>2021-07-10T08:25:32Z</time>
      </trkpt>
      <trkpt lat="40.811997000128031" lon="-4.016166022047401">
        <ele>1572.3240000000001</ele>
        <time>2021-07-10T08:25:34Z</time>
      </trkpt>
      <trkpt lat="40.811975039541721" lon="-4.016407001763582">
        <ele>1569.3040000000001</ele>
        <time>2021-07-10T08:25:36Z</time>
      </trkpt>
      <trkpt lat="40.811993982642889" lon="-4.016500962898135">
        <ele>1567.2139999999999</ele>
        <time>2021-07-10T08:25:37Z</time>
      </trkpt>
      <trkpt lat="40.812104037031531" lon="-4.016530970111489">
        <ele>1565.2080000000001</ele>
        <time>2021-07-10T08:25:39Z</time>
      </trkpt>
      <trkpt lat="40.812204033136368" lon="-4.016372971236706">
        <ele>1563.829</ele>
        <time>2021-07-10T08:25:41Z</time>
      </trkpt>
      <trkpt lat="40.812243008986115" lon="-4.016255959868431">
        <ele>1562.1489999999999</ele>
        <time>2021-07-10T08:25:42Z</time>
      </trkpt>
      <trkpt lat="40.812297994270921" lon="-4.015992013737559">
        <ele>1559.8099999999999</ele>
        <time>2021-07-10T08:25:44Z</time>
      </trkpt>
      <trkpt lat="40.812319032847881" lon="-4.015674004331231">
        <ele>1557.4159999999999</ele>
        <time>2021-07-10T08:25:46Z</time>
      </trkpt>
      <trkpt lat="40.812312997877598" lon="-4.015485998243094">
        <ele>1556.1279999999999</ele>
        <time>2021-07-10T08:25:47Z</time>
      </trkpt>
      <trkpt lat="40.812238985672593" lon="-4.015133958309889">
        <ele>1554.5509999999999</ele>
        <time>2021-07-10T08:25:49Z</time>
      </trkpt>
      <trkpt lat="40.812170002609491" lon="-4.014964979141951">
        <ele>1553.2149999999999</ele>
        <time>2021-07-10T08:25:50Z</time>
      </trkpt>
      <trkpt lat="40.81197596155107" lon="-4.014676976948977">
        <ele>1551.654</ele>
        <time>2021-07-10T08:25:52Z</time>
      </trkpt>
      <trkpt lat="40.811849981546402" lon="-4.014573963358998">
        <ele>1550.511</ele>
        <time>2021-07-10T08:25:53Z</time>
      </trkpt>
      <trkpt lat="40.811618976294994" lon="-4.014500034973025">
        <ele>1549.221</ele>
        <time>2021-07-10T08:25:55Z</time>
      </trkpt>
      <trkpt lat="40.811432981863618" lon="-4.014483019709587">
        <ele>1548.1030000000001</ele>
        <time>2021-07-10T08:25:57Z</time>
      </trkpt>
      <trkpt lat="40.811326028779149" lon="-4.01440498419106">
        <ele>1546.9079999999999</ele>
        <time>2021-07-10T08:25:59Z</time>
      </trkpt>
      <trkpt lat="40.811315970495343" lon="-4.014279004186392">
        <ele>1546.328</ele>
        <time>2021-07-10T08:26:01Z</time>
      </trkpt>
      <trkpt lat="40.81132804043591" lon="-4.014221001416445">
        <ele>1546.3879999999999</ele>
        <time>2021-07-10T08:26:02Z</time>
      </trkpt>
      <trkpt lat="40.81141697242856" lon="-4.014213038608432">
        <ele>1545.3989999999999</ele>
        <time>2021-07-10T08:26:04Z</time>
      </trkpt>
      <trkpt lat="40.811517974361777" lon="-4.014243967831135">
        <ele>1544.1949999999999</ele>
        <time>2021-07-10T08:26:05Z</time>
      </trkpt>
      <trkpt lat="40.811640014871955" lon="-4.014279004186392">
        <ele>1543.1669999999999</ele>
        <time>2021-07-10T08:26:06Z</time>
      </trkpt>
      <trkpt lat="40.811783010140061" lon="-4.014314040541649">
        <ele>1542.3399999999999</ele>
        <time>2021-07-10T08:26:07Z</time>
      </trkpt>
      <trkpt lat="40.811931034550071" lon="-4.014354022219777">
        <ele>1541.414</ele>
        <time>2021-07-10T08:26:08Z</time>
      </trkpt>
      <trkpt lat="40.812203027307987" lon="-4.014456029981375">
        <ele>1541.123</ele>
        <time>2021-07-10T08:26:10Z</time>
      </trkpt>
      <trkpt lat="40.81233898177743" lon="-4.014529036357999">
        <ele>1540.2739999999999</ele>
        <time>2021-07-10T08:26:11Z</time>
      </trkpt>
      <trkpt lat="40.812462028115988" lon="-4.014639006927609">
        <ele>1538.9559999999999</ele>
        <time>2021-07-10T08:26:12Z</time>
      </trkpt>
      <trkpt lat="40.812641987577081" lon="-4.01491804048419">
        <ele>1537.6210000000001</ele>
        <time>2021-07-10T08:26:14Z</time>
      </trkpt>
      <trkpt lat="40.812814990058541" lon="-4.015232026576996">
        <ele>1535.808</ele>
        <time>2021-07-10T08:26:16Z</time>
      </trkpt>
      <trkpt lat="40.813007019460201" lon="-4.015562022104859">
        <ele>1534.174</ele>
        <time>2021-07-10T08:26:18Z</time>
      </trkpt>
      <trkpt lat="40.813183039426804" lon="-4.015878019854426">
        <ele>1532.5740000000001</ele>
        <time>2021-07-10T08:26:20Z</time>
      </trkpt>
      <trkpt lat="40.813315976411104" lon="-4.016238022595644">
        <ele>1530.125</ele>
        <time>2021-07-10T08:26:22Z</time>
      </trkpt>
      <trkpt lat="40.813358975574374" lon="-4.016446983441711">
        <ele>1527.251</ele>
        <time>2021-07-10T08:26:23Z</time>
      </trkpt>
      <trkpt lat="40.81336903385818" lon="-4.016834981739521">
        <ele>1523.9929999999999</ele>
        <time>2021-07-10T08:26:25Z</time>
      </trkpt>
      <trkpt lat="40.813297033309937" lon="-4.017236977815628">
        <ele>1522.386</ele>
        <time>2021-07-10T08:26:27Z</time>
      </trkpt>
      <trkpt lat="40.813234001398087" lon="-4.017444010823965">
        <ele>1520.48</ele>
        <time>2021-07-10T08:26:28Z</time>
      </trkpt>
      <trkpt lat="40.813079020008445" lon="-4.017791021615267">
        <ele>1518.6690000000001</ele>
        <time>2021-07-10T08:26:30Z</time>
      </trkpt>
      <trkpt lat="40.812838040292263" lon="-4.018088998273015">
        <ele>1516.645</ele>
        <time>2021-07-10T08:26:32Z</time>
      </trkpt>
      <trkpt lat="40.812702002003789" lon="-4.018208021298051">
        <ele>1515.347</ele>
        <time>2021-07-10T08:26:33Z</time>
      </trkpt>
      <trkpt lat="40.812487006187439" lon="-4.018316986039281">
        <ele>1513.011</ele>
        <time>2021-07-10T08:26:35Z</time>
      </trkpt>
      <trkpt lat="40.812405031174421" lon="-4.018349004909396">
        <ele>1511.2080000000001</ele>
        <time>2021-07-10T08:26:36Z</time>
      </trkpt>
      <trkpt lat="40.812303023412824" lon="-4.018435003235936">
        <ele>1510.3810000000001</ele>
        <time>2021-07-10T08:26:38Z</time>
      </trkpt>
      <trkpt lat="40.812312997877598" lon="-4.018555032089353">
        <ele>1509.461</ele>
        <time>2021-07-10T08:26:40Z</time>
      </trkpt>
      <trkpt lat="40.812441995367408" lon="-4.018568024039269">
        <ele>1506.962</ele>
        <time>2021-07-10T08:26:42Z</time>
      </trkpt>
      <trkpt lat="40.812669983133674" lon="-4.018468027934432">
        <ele>1505.078</ele>
        <time>2021-07-10T08:26:44Z</time>
      </trkpt>
      <trkpt lat="40.81291800364852" lon="-4.018316986039281">
        <ele>1502.6900000000001</ele>
        <time>2021-07-10T08:26:46Z</time>
      </trkpt>
      <trkpt lat="40.813169963657856" lon="-4.018087992444634">
        <ele>1501.123</ele>
        <time>2021-07-10T08:26:48Z</time>
      </trkpt>
      <trkpt lat="40.813395017758012" lon="-4.017754979431629">
        <ele>1499.9870000000001</ele>
        <time>2021-07-10T08:26:50Z</time>
      </trkpt>
      <trkpt lat="40.8135009650141" lon="-4.017577031627297">
        <ele>1498.826</ele>
        <time>2021-07-10T08:26:51Z</time>
      </trkpt>
      <trkpt lat="40.813720989972353" lon="-4.017249969765544">
        <ele>1498.181</ele>
        <time>2021-07-10T08:26:53Z</time>
      </trkpt>
      <trkpt lat="40.813960041850805" lon="-4.016944030299783">
        <ele>1497.1610000000001</ele>
        <time>2021-07-10T08:26:55Z</time>
      </trkpt>
      <trkpt lat="40.814148969948292" lon="-4.016649993136525">
        <ele>1495.317</ele>
        <time>2021-07-10T08:26:57Z</time>
      </trkpt>
      <trkpt lat="40.814264975488186" lon="-4.016295019537211">
        <ele>1493.7080000000001</ele>
        <time>2021-07-10T08:26:59Z</time>
      </trkpt>
      <trkpt lat="40.814291965216398" lon="-4.016105001792312">
        <ele>1492.7950000000001</ele>
        <time>2021-07-10T08:27:00Z</time>
      </trkpt>
      <trkpt lat="40.814289031550288" lon="-4.015824962407351">
        <ele>1491.4749999999999</ele>
        <time>2021-07-10T08:27:02Z</time>
      </trkpt>
      <trkpt lat="40.814290959388018" lon="-4.015717003494501">
        <ele>1490.576</ele>
        <time>2021-07-10T08:27:03Z</time>
      </trkpt>
      <trkpt lat="40.814313003793359" lon="-4.015627987682819">
        <ele>1489.922</ele>
        <time>2021-07-10T08:27:04Z</time>
      </trkpt>
      <trkpt lat="40.814393972977996" lon="-4.015557998791337">
        <ele>1488.7339999999999</ele>
        <time>2021-07-10T08:27:06Z</time>
      </trkpt>
      <trkpt lat="40.814465973526239" lon="-4.015620024874806">
        <ele>1488.4670000000001</ele>
        <time>2021-07-10T08:27:08Z</time>
      </trkpt>
      <trkpt lat="40.814481982961297" lon="-4.015700994059444">
        <ele>1487.8910000000001</ele>
        <time>2021-07-10T08:27:09Z</time>
      </trkpt>
      <trkpt lat="40.814502015709877" lon="-4.015940967947245">
        <ele>1487.3800000000001</ele>
        <time>2021-07-10T08:27:11Z</time>
      </trkpt>
      <trkpt lat="40.814503021538258" lon="-4.016129979863763">
        <ele>1486.2239999999999</ele>
        <time>2021-07-10T08:27:12Z</time>
      </trkpt>
      <trkpt lat="40.814478965476155" lon="-4.016563994809985">
        <ele>1485.904</ele>
        <time>2021-07-10T08:27:14Z</time>
      </trkpt>
      <trkpt lat="40.814402019605041" lon="-4.016954004764557">
        <ele>1485.614</ele>
        <time>2021-07-10T08:27:16Z</time>
      </trkpt>
      <trkpt lat="40.814348040148616" lon="-4.017149973660708">
        <ele>1484.808</ele>
        <time>2021-07-10T08:27:17Z</time>
      </trkpt>
      <trkpt lat="40.814282996580005" lon="-4.017353989183903">
        <ele>1483.6790000000001</ele>
        <time>2021-07-10T08:27:18Z</time>
      </trkpt>
      <trkpt lat="40.814132960513234" lon="-4.017773000523448">
        <ele>1482.769</ele>
        <time>2021-07-10T08:27:20Z</time>
      </trkpt>
      <trkpt lat="40.813977979123592" lon="-4.018157981336117">
        <ele>1480.6900000000001</ele>
        <time>2021-07-10T08:27:22Z</time>
      </trkpt>
      <trkpt lat="40.813889969140291" lon="-4.018368031829596">
        <ele>1478.9559999999999</ele>
        <time>2021-07-10T08:27:23Z</time>
      </trkpt>
      <trkpt lat="40.813745968043804" lon="-4.018698027357459">
        <ele>1477.538</ele>
        <time>2021-07-10T08:27:25Z</time>
      </trkpt>
      <trkpt lat="40.813682014122605" lon="-4.018839010968804">
        <ele>1476.8910000000001</ele>
        <time>2021-07-10T08:27:26Z</time>
      </trkpt>
      <trkpt lat="40.813599033281207" lon="-4.019037997350097">
        <ele>1475.875</ele>
        <time>2021-07-10T08:27:28Z</time>
      </trkpt>
      <trkpt lat="40.813587969169021" lon="-4.019118966534734">
        <ele>1474.614</ele>
        <time>2021-07-10T08:27:29Z</time>
      </trkpt>
      <trkpt lat="40.813634991645813" lon="-4.019235977903009">
        <ele>1473.136</ele>
        <time>2021-07-10T08:27:31Z</time>
      </trkpt>
      <trkpt lat="40.813701963052154" lon="-4.019236983731389">
        <ele>1470.9169999999999</ele>
        <time>2021-07-10T08:27:33Z</time>
      </trkpt>
      <trkpt lat="40.813759965822101" lon="-4.019183004274964">
        <ele>1469.818</ele>
        <time>2021-07-10T08:27:34Z</time>
      </trkpt>
      <trkpt lat="40.813838001340628" lon="-4.019074039533734">
        <ele>1467.4079999999999</ele>
        <time>2021-07-10T08:27:35Z</time>
      </trkpt>
      <trkpt lat="40.813908996060491" lon="-4.018950993195176">
        <ele>1466.0599999999999</ele>
        <time>2021-07-10T08:27:36Z</time>
      </trkpt>
      <trkpt lat="40.814064983278513" lon="-4.018674977123737">
        <ele>1465.02</ele>
        <time>2021-07-10T08:27:38Z</time>
      </trkpt>
      <trkpt lat="40.814286014065146" lon="-4.018369959667325">
        <ele>1463.211</ele>
        <time>2021-07-10T08:27:40Z</time>
      </trkpt>
      <trkpt lat="40.814420962706208" lon="-4.018197041004896">
        <ele>1461.5170000000001</ele>
        <time>2021-07-10T08:27:41Z</time>
      </trkpt>
      <trkpt lat="40.814685998484492" lon="-4.017882971093059">
        <ele>1458.9190000000001</ele>
        <time>2021-07-10T08:27:43Z</time>
      </trkpt>
      <trkpt lat="40.814834022894502" lon="-4.017732013016939">
        <ele>1457.0920000000001</ele>
        <time>2021-07-10T08:27:44Z</time>
      </trkpt>
      <trkpt lat="40.814983975142241" lon="-4.017595974728465">
        <ele>1455.866</ele>
        <time>2021-07-10T08:27:45Z</time>
      </trkpt>
      <trkpt lat="40.815278012305498" lon="-4.017352983355522">
        <ele>1453.385</ele>
        <time>2021-07-10T08:27:47Z</time>
      </trkpt>
      <trkpt lat="40.815415978431702" lon="-4.017253993079066">
        <ele>1451.1579999999999</ele>
        <time>2021-07-10T08:27:48Z</time>
      </trkpt>
      <trkpt lat="40.815545981749892" lon="-4.017186015844345">
        <ele>1450.0519999999999</ele>
        <time>2021-07-10T08:27:49Z</time>
      </trkpt>
      <trkpt lat="40.815674979239702" lon="-4.017169000580907">
        <ele>1449.617</ele>
        <time>2021-07-10T08:27:50Z</time>
      </trkpt>
      <trkpt lat="40.815799031406641" lon="-4.017209988087416">
        <ele>1448.808</ele>
        <time>2021-07-10T08:27:51Z</time>
      </trkpt>
      <trkpt lat="40.816036993637681" lon="-4.017452979460359">
        <ele>1447.722</ele>
        <time>2021-07-10T08:27:53Z</time>
      </trkpt>
      <trkpt lat="40.816143024712801" lon="-4.017618019133806">
        <ele>1446.172</ele>
        <time>2021-07-10T08:27:54Z</time>
      </trkpt>
      <trkpt lat="40.816246038302779" lon="-4.01777702383697">
        <ele>1443.223</ele>
        <time>2021-07-10T08:27:55Z</time>
      </trkpt>
      <trkpt lat="40.816347962245345" lon="-4.017926976084709">
        <ele>1441.8589999999999</ele>
        <time>2021-07-10T08:27:56Z</time>
      </trkpt>
      <trkpt lat="40.816536974161863" lon="-4.018081035465002">
        <ele>1439.971</ele>
        <time>2021-07-10T08:27:58Z</time>
      </trkpt>
      <trkpt lat="40.816706959158182" lon="-4.018027978017926">
        <ele>1438.7139999999999</ele>
        <time>2021-07-10T08:28:00Z</time>
      </trkpt>
      <trkpt lat="40.816788012161851" lon="-4.017922030761838">
        <ele>1437.798</ele>
        <time>2021-07-10T08:28:01Z</time>
      </trkpt>
      <trkpt lat="40.816950034350157" lon="-4.017597986385226">
        <ele>1436.277</ele>
        <time>2021-07-10T08:28:03Z</time>
      </trkpt>
      <trkpt lat="40.817062016576529" lon="-4.017201019451022">
        <ele>1434.6120000000001</ele>
        <time>2021-07-10T08:28:05Z</time>
      </trkpt>
      <trkpt lat="40.817100992426276" lon="-4.016978982836008">
        <ele>1433.932</ele>
        <time>2021-07-10T08:28:06Z</time>
      </trkpt>
      <trkpt lat="40.817100992426276" lon="-4.016559971496463">
        <ele>1431.905</ele>
        <time>2021-07-10T08:28:08Z</time>
      </trkpt>
      <trkpt lat="40.817018011584878" lon="-4.016137020662427">
        <ele>1430.6079999999999</ele>
        <time>2021-07-10T08:28:10Z</time>
      </trkpt>
      <trkpt lat="40.816956991329789" lon="-4.015933005139232">
        <ele>1428.9280000000001</ele>
        <time>2021-07-10T08:28:11Z</time>
      </trkpt>
      <trkpt lat="40.81689303740859" lon="-4.015729995444417">
        <ele>1427.298</ele>
        <time>2021-07-10T08:28:12Z</time>
      </trkpt>
      <trkpt lat="40.81672397442162" lon="-4.015344008803368">
        <ele>1425.2190000000001</ele>
        <time>2021-07-10T08:28:14Z</time>
      </trkpt>
      <trkpt lat="40.816625989973545" lon="-4.015167988836765">
        <ele>1423.5450000000001</ele>
        <time>2021-07-10T08:28:15Z</time>
      </trkpt>
      <trkpt lat="40.816535968333483" lon="-4.015019964426756">
        <ele>1422.6869999999999</ele>
        <time>2021-07-10T08:28:16Z</time>
      </trkpt>
      <trkpt lat="40.816453993320465" lon="-4.01487504132092">
        <ele>1421.97</ele>
        <time>2021-07-10T08:28:17Z</time>
      </trkpt>
      <trkpt lat="40.816410994157195" lon="-4.014656022191048">
        <ele>1421.0640000000001</ele>
        <time>2021-07-10T08:28:19Z</time>
      </trkpt>
      <trkpt lat="40.816503027454019" lon="-4.014491988345981">
        <ele>1420.8330000000001</ele>
        <time>2021-07-10T08:28:21Z</time>
      </trkpt>
      <trkpt lat="40.816663037985563" lon="-4.014440020546317">
        <ele>1420.249</ele>
        <time>2021-07-10T08:28:23Z</time>
      </trkpt>
      <trkpt lat="40.81674300134182" lon="-4.014453012496233">
        <ele>1420.402</ele>
        <time>2021-07-10T08:28:24Z</time>
      </trkpt>
      <trkpt lat="40.816831011325121" lon="-4.014481008052826">
        <ele>1419.5219999999999</ele>
        <time>2021-07-10T08:28:25Z</time>
      </trkpt>
      <trkpt lat="40.81693897023797" lon="-4.014518978074193">
        <ele>1419.008</ele>
        <time>2021-07-10T08:28:26Z</time>
      </trkpt>
      <trkpt lat="40.817104009911418" lon="-4.01457698084414">
        <ele>1418.451</ele>
        <time>2021-07-10T08:28:27Z</time>
      </trkpt>
      <trkpt lat="40.817463006824255" lon="-4.014742020517588">
        <ele>1417.8910000000001</ele>
        <time>2021-07-10T08:28:29Z</time>
      </trkpt>
      <trkpt lat="40.817728964611888" lon="-4.014975959435105">
        <ele>1414.7719999999999</ele>
        <time>2021-07-10T08:28:31Z</time>
      </trkpt>
      <trkpt lat="40.817958964034915" lon="-4.015303021296859">
        <ele>1410.818</ele>
        <time>2021-07-10T08:28:33Z</time>
      </trkpt>
      <trkpt lat="40.818174965679646" lon="-4.015622958540916">
        <ele>1406.99</ele>
        <time>2021-07-10T08:28:35Z</time>
      </trkpt>
      <trkpt lat="40.818317960947752" lon="-4.015753967687488">
        <ele>1403.5429999999999</ele>
        <time>2021-07-10T08:28:36Z</time>
      </trkpt>
      <trkpt lat="40.818479983136058" lon="-4.015861004590988">
        <ele>1400.817</ele>
        <time>2021-07-10T08:28:37Z</time>
      </trkpt>
      <trkpt lat="40.818782988935709" lon="-4.015957983210683">
        <ele>1398.4760000000001</ele>
        <time>2021-07-10T08:28:39Z</time>
      </trkpt>
      <trkpt lat="40.818953979760408" lon="-4.015965024009347">
        <ele>1396.5329999999999</ele>
        <time>2021-07-10T08:28:40Z</time>
      </trkpt>
      <trkpt lat="40.819284981116652" lon="-4.015952032059431">
        <ele>1394.5229999999999</ele>
        <time>2021-07-10T08:28:42Z</time>
      </trkpt>
      <trkpt lat="40.819607013836503" lon="-4.015959994867444">
        <ele>1393.5150000000001</ele>
        <time>2021-07-10T08:28:44Z</time>
      </trkpt>
      <trkpt lat="40.819905996322632" lon="-4.016097960993648">
        <ele>1392.008</ele>
        <time>2021-07-10T08:28:46Z</time>
      </trkpt>
      <trkpt lat="40.820053014904261" lon="-4.016206003725529">
        <ele>1390.8199999999999</ele>
        <time>2021-07-10T08:28:47Z</time>
      </trkpt>
      <trkpt lat="40.820330958813429" lon="-4.016428962349892">
        <ele>1387.1199999999999</ele>
        <time>2021-07-10T08:28:49Z</time>
      </trkpt>
      <trkpt lat="40.820474959909916" lon="-4.016542034223676">
        <ele>1384.5409999999999</ele>
        <time>2021-07-10T08:28:50Z</time>
      </trkpt>
      <trkpt lat="40.820737984031439" lon="-4.0167479775846">
        <ele>1382.4269999999999</ele>
        <time>2021-07-10T08:28:52Z</time>
      </trkpt>
      <trkpt lat="40.820862036198378" lon="-4.016818972304463">
        <ele>1381.489</ele>
        <time>2021-07-10T08:28:53Z</time>
      </trkpt>
      <trkpt lat="40.821101004257798" lon="-4.016849985346198">
        <ele>1377.462</ele>
        <time>2021-07-10T08:28:55Z</time>
      </trkpt>
      <trkpt lat="40.821366040036082" lon="-4.016816038638353">
        <ele>1374.2159999999999</ele>
        <time>2021-07-10T08:28:57Z</time>
      </trkpt>
      <trkpt lat="40.821523033082485" lon="-4.016791982576251">
        <ele>1371.665</ele>
        <time>2021-07-10T08:28:58Z</time>
      </trkpt>
      <trkpt lat="40.821828972548246" lon="-4.0167479775846">
        <ele>1367.9739999999999</ele>
        <time>2021-07-10T08:29:00Z</time>
      </trkpt>
      <trkpt lat="40.821967022493482" lon="-4.016738003119826">
        <ele>1365.556</ele>
        <time>2021-07-10T08:29:01Z</time>
      </trkpt>
      <trkpt lat="40.822112029418349" lon="-4.016742026433349">
        <ele>1363.6210000000001</ele>
        <time>2021-07-10T08:29:02Z</time>
      </trkpt>
      <trkpt lat="40.822254018858075" lon="-4.016787959262729">
        <ele>1360.9079999999999</ele>
        <time>2021-07-10T08:29:03Z</time>
      </trkpt>
      <trkpt lat="40.822459962219" lon="-4.016917962580919">
        <ele>1357.364</ele>
        <time>2021-07-10T08:29:05Z</time>
      </trkpt>
      <trkpt lat="40.822569010779262" lon="-4.016987029463053">
        <ele>1354.7239999999999</ele>
        <time>2021-07-10T08:29:06Z</time>
      </trkpt>
      <trkpt lat="40.822765985503793" lon="-4.017116026952863">
        <ele>1352.3150000000001</ele>
        <time>2021-07-10T08:29:08Z</time>
      </trkpt>
      <trkpt lat="40.82295298576355" lon="-4.01721803471446">
        <ele>1348.8309999999999</ele>
        <time>2021-07-10T08:29:10Z</time>
      </trkpt>
      <trkpt lat="40.823054993525147" lon="-4.017250975593925">
        <ele>1346.623</ele>
        <time>2021-07-10T08:29:11Z</time>
      </trkpt>
      <trkpt lat="40.823151972144842" lon="-4.017278971150518">
        <ele>1344.6759999999999</ele>
        <time>2021-07-10T08:29:12Z</time>
      </trkpt>
      <trkpt lat="40.823240987956524" lon="-4.017320964485407">
        <ele>1343.46</ele>
        <time>2021-07-10T08:29:13Z</time>
      </trkpt>
      <trkpt lat="40.823330003768206" lon="-4.017465971410275">
        <ele>1342.079</ele>
        <time>2021-07-10T08:29:15Z</time>
      </trkpt>
      <trkpt lat="40.823367973789573" lon="-4.01769102551043">
        <ele>1340.2270000000001</ele>
        <time>2021-07-10T08:29:17Z</time>
      </trkpt>
      <trkpt lat="40.823396975174546" lon="-4.017827985808253">
        <ele>1338.3679999999999</ele>
        <time>2021-07-10T08:29:18Z</time>
      </trkpt>
      <trkpt lat="40.823435029014945" lon="-4.017985984683037">
        <ele>1337.114</ele>
        <time>2021-07-10T08:29:19Z</time>
      </trkpt>
      <trkpt lat="40.823507029563189" lon="-4.0183159802109">
        <ele>1335.508</ele>
        <time>2021-07-10T08:29:21Z</time>
      </trkpt>
      <trkpt lat="40.823590010404587" lon="-4.018657961860299">
        <ele>1333.989</ele>
        <time>2021-07-10T08:29:23Z</time>
      </trkpt>
      <trkpt lat="40.82372697070241" lon="-4.018946969881654">
        <ele>1332.3389999999999</ele>
        <time>2021-07-10T08:29:25Z</time>
      </trkpt>
      <trkpt lat="40.823823027312756" lon="-4.019074039533734">
        <ele>1331.6900000000001</ele>
        <time>2021-07-10T08:29:26Z</time>
      </trkpt>
      <trkpt lat="40.824046991765499" lon="-4.019291969016194">
        <ele>1330.7460000000001</ele>
        <time>2021-07-10T08:29:28Z</time>
      </trkpt>
      <trkpt lat="40.824258970096707" lon="-4.019460026174784">
        <ele>1329.078</ele>
        <time>2021-07-10T08:29:30Z</time>
      </trkpt>
      <trkpt lat="40.824486035853624" lon="-4.019622970372438">
        <ele>1328.0509999999999</ele>
        <time>2021-07-10T08:29:32Z</time>
      </trkpt>
      <trkpt lat="40.824611010029912" lon="-4.019692037254572">
        <ele>1327.885</ele>
        <time>2021-07-10T08:29:33Z</time>
      </trkpt>
      <trkpt lat="40.824846038594842" lon="-4.019792033359408">
        <ele>1326.884</ele>
        <time>2021-07-10T08:29:35Z</time>
      </trkpt>
      <trkpt lat="40.82510101608932" lon="-4.019917007535696">
        <ele>1326.0730000000001</ele>
        <time>2021-07-10T08:29:37Z</time>
      </trkpt>
      <trkpt lat="40.82522900775075" lon="-4.020014991983771">
        <ele>1325.2850000000001</ele>
        <time>2021-07-10T08:29:38Z</time>
      </trkpt>
      <trkpt lat="40.82533897832036" lon="-4.020133009180427">
        <ele>1324.913</ele>
        <time>2021-07-10T08:29:39Z</time>
      </trkpt>
      <trkpt lat="40.82551097497344" lon="-4.02039703913033">
        <ele>1325.008</ele>
        <time>2021-07-10T08:29:41Z</time>
      </trkpt>
      <trkpt lat="40.825597979128361" lon="-4.020543973892927">
        <ele>1325.0340000000001</ele>
        <time>2021-07-10T08:29:42Z</time>
      </trkpt>
      <trkpt lat="40.825752038508654" lon="-4.020832981914282">
        <ele>1325.0640000000001</ele>
        <time>2021-07-10T08:29:44Z</time>
      </trkpt>
      <trkpt lat="40.825850022956729" lon="-4.021084019914269">
        <ele>1324.355</ele>
        <time>2021-07-10T08:29:46Z</time>
      </trkpt>
      <trkpt lat="40.825925962999463" lon="-4.02132298797369">
        <ele>1320.761</ele>
        <time>2021-07-10T08:29:48Z</time>
      </trkpt>
      <trkpt lat="40.82595999352634" lon="-4.021452991291881">
        <ele>1317.963</ele>
        <time>2021-07-10T08:29:49Z</time>
      </trkpt>
      <trkpt lat="40.826027970761061" lon="-4.021686008200049">
        <ele>1315.4459999999999</ele>
        <time>2021-07-10T08:29:51Z</time>
      </trkpt>
      <trkpt lat="40.82608999684453" lon="-4.021786004304886">
        <ele>1314.3800000000001</ele>
        <time>2021-07-10T08:29:52Z</time>
      </trkpt>
      <trkpt lat="40.826216982677579" lon="-4.021979039534926">
        <ele>1312.8789999999999</ele>
        <time>2021-07-10T08:29:54Z</time>
      </trkpt>
      <trkpt lat="40.826279008761048" lon="-4.022091021761298">
        <ele>1311.9960000000001</ele>
        <time>2021-07-10T08:29:55Z</time>
      </trkpt>
      <trkpt lat="40.826418986544013" lon="-4.022319009527564">
        <ele>1310.8309999999999</ele>
        <time>2021-07-10T08:29:57Z</time>
      </trkpt>
      <trkpt lat="40.826574973762035" lon="-4.022548003122211">
        <ele>1309.924</ele>
        <time>2021-07-10T08:29:59Z</time>
      </trkpt>
      <trkpt lat="40.826771026477218" lon="-4.022659985348582">
        <ele>1310.008</ele>
        <time>2021-07-10T08:30:01Z</time>
      </trkpt>
      <trkpt lat="40.826868005096912" lon="-4.022682029753923">
        <ele>1310.1759999999999</ele>
        <time>2021-07-10T08:30:02Z</time>
      </trkpt>
      <trkpt lat="40.82697001285851" lon="-4.022698039188981">
        <ele>1310.9159999999999</ele>
        <time>2021-07-10T08:30:03Z</time>
      </trkpt>
      <trkpt lat="40.827205963432789" lon="-4.022695021703839">
        <ele>1311.1869999999999</ele>
        <time>2021-07-10T08:30:05Z</time>
      </trkpt>
      <trkpt lat="40.827334960922599" lon="-4.022694015875459">
        <ele>1311.163</ele>
        <time>2021-07-10T08:30:06Z</time>
      </trkpt>
      <trkpt lat="40.827590022236109" lon="-4.022712958976626">
        <ele>1311.4349999999999</ele>
        <time>2021-07-10T08:30:08Z</time>
      </trkpt>
      <trkpt lat="40.827714996412396" lon="-4.022724023088813">
        <ele>1311.4780000000001</ele>
        <time>2021-07-10T08:30:09Z</time>
      </trkpt>
      <trkpt lat="40.827959999442101" lon="-4.022732991725206">
        <ele>1311.662</ele>
        <time>2021-07-10T08:30:11Z</time>
      </trkpt>
      <trkpt lat="40.82808799110353" lon="-4.0227419603616">
        <ele>1311.8610000000001</ele>
        <time>2021-07-10T08:30:12Z</time>
      </trkpt>
      <trkpt lat="40.828209025785327" lon="-4.022747995331883">
        <ele>1311.5940000000001</ele>
        <time>2021-07-10T08:30:13Z</time>
      </trkpt>
      <trkpt lat="40.828433996066451" lon="-4.022758975625038">
        <ele>1311.2570000000001</ele>
        <time>2021-07-10T08:30:15Z</time>
      </trkpt>
      <trkpt lat="40.828656032681465" lon="-4.022765010595322">
        <ele>1311.1220000000001</ele>
        <time>2021-07-10T08:30:17Z</time>
      </trkpt>
      <trkpt lat="40.828893994912505" lon="-4.022768028080463">
        <ele>1311.4079999999999</ele>
        <time>2021-07-10T08:30:19Z</time>
      </trkpt>
      <trkpt lat="40.829151989892125" lon="-4.022799963131547">
        <ele>1311.816</ele>
        <time>2021-07-10T08:30:21Z</time>
      </trkpt>
      <trkpt lat="40.829364974051714" lon="-4.022895013913512">
        <ele>1313.1859999999999</ele>
        <time>2021-07-10T08:30:23Z</time>
      </trkpt>
      <trkpt lat="40.829468993470073" lon="-4.022940024733543">
        <ele>1313.857</ele>
        <time>2021-07-10T08:30:24Z</time>
      </trkpt>
      <trkpt lat="40.829560020938516" lon="-4.022983023896813">
        <ele>1314.5630000000001</ele>
        <time>2021-07-10T08:30:25Z</time>
      </trkpt>
      <trkpt lat="40.829716008156538" lon="-4.023063993081451">
        <ele>1314.2149999999999</ele>
        <time>2021-07-10T08:30:27Z</time>
      </trkpt>
      <trkpt lat="40.829873001202941" lon="-4.023142028599978">
        <ele>1314.1379999999999</ele>
        <time>2021-07-10T08:30:29Z</time>
      </trkpt>
      <trkpt lat="40.830067964270711" lon="-4.023228026926518">
        <ele>1313.8820000000001</ele>
        <time>2021-07-10T08:30:31Z</time>
      </trkpt>
      <trkpt lat="40.830324031412601" lon="-4.023316036909819">
        <ele>1313.1410000000001</ele>
        <time>2021-07-10T08:30:33Z</time>
      </trkpt>
      <trkpt lat="40.830650003626943" lon="-4.023443022742868">
        <ele>1312.5940000000001</ele>
        <time>2021-07-10T08:30:35Z</time>
      </trkpt>
      <trkpt lat="40.830799033865333" lon="-4.023504965007305">
        <ele>1311.7570000000001</ele>
        <time>2021-07-10T08:30:36Z</time>
      </trkpt>
      <trkpt lat="40.830954015254974" lon="-4.023565985262394">
        <ele>1310.922</ele>
        <time>2021-07-10T08:30:37Z</time>
      </trkpt>
      <trkpt lat="40.831108996644616" lon="-4.023637985810638">
        <ele>1310.4079999999999</ele>
        <time>2021-07-10T08:30:38Z</time>
      </trkpt>
      <trkpt lat="40.831289039924741" lon="-4.0237089805305">
        <ele>1310.616</ele>
        <time>2021-07-10T08:30:39Z</time>
      </trkpt>
      <trkpt lat="40.831515016034245" lon="-4.02375197969377">
        <ele>1310.5260000000001</ele>
        <time>2021-07-10T08:30:40Z</time>
      </trkpt>
      <trkpt lat="40.831952970474958" lon="-4.023994971066713">
        <ele>1310.777</ele>
        <time>2021-07-10T08:30:42Z</time>
      </trkpt>
      <trkpt lat="40.832365024834871" lon="-4.024268975481391">
        <ele>1309.0930000000001</ele>
        <time>2021-07-10T08:30:44Z</time>
      </trkpt>
      <trkpt lat="40.832774983718991" lon="-4.024496041238308">
        <ele>1307.5350000000001</ele>
        <time>2021-07-10T08:30:46Z</time>
      </trkpt>
      <trkpt lat="40.832977993413806" lon="-4.024582961574197">
        <ele>1306.748</ele>
        <time>2021-07-10T08:30:47Z</time>
      </trkpt>
      <trkpt lat="40.833399016410112" lon="-4.024682035669684">
        <ele>1304.8320000000001</ele>
        <time>2021-07-10T08:30:49Z</time>
      </trkpt>
      <trkpt lat="40.833850968629122" lon="-4.024724029004574">
        <ele>1302.771</ele>
        <time>2021-07-10T08:30:51Z</time>
      </trkpt>
      <trkpt lat="40.834280960261822" lon="-4.024768033996224">
        <ele>1301.058</ele>
        <time>2021-07-10T08:30:53Z</time>
      </trkpt>
      <trkpt lat="40.834697959944606" lon="-4.024795023724437">
        <ele>1299.5519999999999</ele>
        <time>2021-07-10T08:30:55Z</time>
      </trkpt>
      <trkpt lat="40.834902981296182" lon="-4.024811033159494">
        <ele>1298.7170000000001</ele>
        <time>2021-07-10T08:30:56Z</time>
      </trkpt>
      <trkpt lat="40.835108002647758" lon="-4.024837017059326">
        <ele>1297.808</ele>
        <time>2021-07-10T08:30:57Z</time>
      </trkpt>
      <trkpt lat="40.835482003167272" lon="-4.02493298985064">
        <ele>1296.912</ele>
        <time>2021-07-10T08:30:59Z</time>
      </trkpt>
      <trkpt lat="40.835830019786954" lon="-4.025028962641954">
        <ele>1295.2719999999999</ele>
        <time>2021-07-10T08:31:01Z</time>
      </trkpt>
      <trkpt lat="40.836182981729507" lon="-4.025109009817243">
        <ele>1293.8330000000001</ele>
        <time>2021-07-10T08:31:03Z</time>
      </trkpt>
      <trkpt lat="40.836362019181252" lon="-4.025154020637274">
        <ele>1292.559</ele>
        <time>2021-07-10T08:31:04Z</time>
      </trkpt>
      <trkpt lat="40.836717998608947" lon="-4.025205988436937">
        <ele>1291.6210000000001</ele>
        <time>2021-07-10T08:31:06Z</time>
      </trkpt>
      <trkpt lat="40.837030978873372" lon="-4.025171035900712">
        <ele>1291.3240000000001</ele>
        <time>2021-07-10T08:31:08Z</time>
      </trkpt>
      <trkpt lat="40.837374972179532" lon="-4.025100041180849">
        <ele>1289.6379999999999</ele>
        <time>2021-07-10T08:31:10Z</time>
      </trkpt>
      <trkpt lat="40.83756297826767" lon="-4.02508202008903">
        <ele>1287.627</ele>
        <time>2021-07-10T08:31:11Z</time>
      </trkpt>
      <trkpt lat="40.837939996272326" lon="-4.0251250192523">
        <ele>1285.527</ele>
        <time>2021-07-10T08:31:13Z</time>
      </trkpt>
      <trkpt lat="40.838125990703702" lon="-4.025176987051964">
        <ele>1283.6679999999999</ele>
        <time>2021-07-10T08:31:14Z</time>
      </trkpt>
      <trkpt lat="40.838503008708358" lon="-4.025373961776495">
        <ele>1281.5139999999999</ele>
        <time>2021-07-10T08:31:16Z</time>
      </trkpt>
      <trkpt lat="40.838813977316022" lon="-4.025611001998186">
        <ele>1279.308</ele>
        <time>2021-07-10T08:31:18Z</time>
      </trkpt>
      <trkpt lat="40.83898002281785" lon="-4.025716027244926">
        <ele>1276.8389999999999</ele>
        <time>2021-07-10T08:31:19Z</time>
      </trkpt>
      <trkpt lat="40.839141961187124" lon="-4.025818035006523">
        <ele>1274.3489999999999</ele>
        <time>2021-07-10T08:31:20Z</time>
      </trkpt>
      <trkpt lat="40.839312030002475" lon="-4.025923982262611">
        <ele>1272.3099999999999</ele>
        <time>2021-07-10T08:31:21Z</time>
      </trkpt>
      <trkpt lat="40.839617969468236" lon="-4.026117017492652">
        <ele>1269.826</ele>
        <time>2021-07-10T08:31:23Z</time>
      </trkpt>
      <trkpt lat="40.839938996359706" lon="-4.026294965296984">
        <ele>1268.268</ele>
        <time>2021-07-10T08:31:25Z</time>
      </trkpt>
      <trkpt lat="40.840113004669547" lon="-4.026376018300653">
        <ele>1266.8309999999999</ele>
        <time>2021-07-10T08:31:26Z</time>
      </trkpt>
      <trkpt lat="40.840461021289229" lon="-4.02632899582386">
        <ele>1265.875</ele>
        <time>2021-07-10T08:31:28Z</time>
      </trkpt>
      <trkpt lat="40.840795962139964" lon="-4.026131015270948">
        <ele>1264.414</ele>
        <time>2021-07-10T08:31:30Z</time>
      </trkpt>
      <trkpt lat="40.840945998206735" lon="-4.025989025831223">
        <ele>1263.771</ele>
        <time>2021-07-10T08:31:31Z</time>
      </trkpt>
      <trkpt lat="40.841097962111235" lon="-4.025870002806187">
        <ele>1263.741</ele>
        <time>2021-07-10T08:31:32Z</time>
      </trkpt>
      <trkpt lat="40.841397028416395" lon="-4.025758020579815">
        <ele>1262.8150000000001</ele>
        <time>2021-07-10T08:31:34Z</time>
      </trkpt>
      <trkpt lat="40.841543963178992" lon="-4.025734970346093">
        <ele>1262.6079999999999</ele>
        <time>2021-07-10T08:31:35Z</time>
      </trkpt>
      <trkpt lat="40.841692993417382" lon="-4.025688031688333">
        <ele>1262.684</ele>
        <time>2021-07-10T08:31:36Z</time>
      </trkpt>
      <trkpt lat="40.842013014480472" lon="-4.025632040575147">
        <ele>1263.0640000000001</ele>
        <time>2021-07-10T08:31:38Z</time>
      </trkpt>
      <trkpt lat="40.842335969209671" lon="-4.025580994784832">
        <ele>1262.9849999999999</ele>
        <time>2021-07-10T08:31:40Z</time>
      </trkpt>
      <trkpt lat="40.842505032196641" lon="-4.025565991178155">
        <ele>1262.421</ele>
        <time>2021-07-10T08:31:41Z</time>
      </trkpt>
      <trkpt lat="40.842680968344212" lon="-4.025551993399859">
        <ele>1262.1130000000001</ele>
        <time>2021-07-10T08:31:42Z</time>
      </trkpt>
      <trkpt lat="40.84304197691381" lon="-4.025539001449943">
        <ele>1261.596</ele>
        <time>2021-07-10T08:31:44Z</time>
      </trkpt>
      <trkpt lat="40.843225037679076" lon="-4.025532966479659">
        <ele>1261.1199999999999</ele>
        <time>2021-07-10T08:31:45Z</time>
      </trkpt>
      <trkpt lat="40.843585040420294" lon="-4.025517962872982">
        <ele>1260.519</ele>
        <time>2021-07-10T08:31:47Z</time>
      </trkpt>
      <trkpt lat="40.843763994053006" lon="-4.025505976751447">
        <ele>1260.011</ele>
        <time>2021-07-10T08:31:48Z</time>
      </trkpt>
      <trkpt lat="40.84411502815783" lon="-4.025483010336757">
        <ele>1259.921</ele>
        <time>2021-07-10T08:31:50Z</time>
      </trkpt>
      <trkpt lat="40.844293981790543" lon="-4.025471024215221">
        <ele>1259.903</ele>
        <time>2021-07-10T08:31:51Z</time>
      </trkpt>
      <trkpt lat="40.844473019242287" lon="-4.025457026436925">
        <ele>1259.808</ele>
        <time>2021-07-10T08:31:52Z</time>
      </trkpt>
      <trkpt lat="40.844648033380508" lon="-4.025439005345106">
        <ele>1260.1279999999999</ele>
        <time>2021-07-10T08:31:53Z</time>
      </trkpt>
      <trkpt lat="40.844994960352778" lon="-4.025387037545443">
        <ele>1260.2180000000001</ele>
        <time>2021-07-10T08:31:55Z</time>
      </trkpt>
      <trkpt lat="40.845169974491" lon="-4.025342026725411">
        <ele>1260.229</ele>
        <time>2021-07-10T08:31:56Z</time>
      </trkpt>
      <trkpt lat="40.84533803164959" lon="-4.025336997583509">
        <ele>1259.0650000000001</ele>
        <time>2021-07-10T08:31:57Z</time>
      </trkpt>
      <trkpt lat="40.845686970278621" lon="-4.025224009528756">
        <ele>1256.857</ele>
        <time>2021-07-10T08:31:59Z</time>
      </trkpt>
      <trkpt lat="40.845875982195139" lon="-4.025160977616906">
        <ele>1255.55</ele>
        <time>2021-07-10T08:32:00Z</time>
      </trkpt>
      <trkpt lat="40.846259035170078" lon="-4.025075985118747">
        <ele>1253.634</ele>
        <time>2021-07-10T08:32:02Z</time>
      </trkpt>
      <trkpt lat="40.846662037074566" lon="-4.025099035352469">
        <ele>1252.3430000000001</ele>
        <time>2021-07-10T08:32:04Z</time>
      </trkpt>
      <trkpt lat="40.846862029284239" lon="-4.025140022858977">
        <ele>1250.732</ele>
        <time>2021-07-10T08:32:05Z</time>
      </trkpt>
      <trkpt lat="40.847061015665531" lon="-4.025184027850628">
        <ele>1250.192</ele>
        <time>2021-07-10T08:32:06Z</time>
      </trkpt>
      <trkpt lat="40.847261007875204" lon="-4.025228032842279">
        <ele>1249.511</ele>
        <time>2021-07-10T08:32:07Z</time>
      </trkpt>
      <trkpt lat="40.847457982599735" lon="-4.025281006470323">
        <ele>1249.1079999999999</ele>
        <time>2021-07-10T08:32:08Z</time>
      </trkpt>
      <trkpt lat="40.847839023917913" lon="-4.025436993688345">
        <ele>1248.5599999999999</ele>
        <time>2021-07-10T08:32:10Z</time>
      </trkpt>
      <trkpt lat="40.84802501834929" lon="-4.025526009500027">
        <ele>1248.6500000000001</ele>
        <time>2021-07-10T08:32:11Z</time>
      </trkpt>
      <trkpt lat="40.848207995295525" lon="-4.025616031140089">
        <ele>1248.5809999999999</ele>
        <time>2021-07-10T08:32:12Z</time>
      </trkpt>
      <trkpt lat="40.848580989986658" lon="-4.025799008086324">
        <ele>1248.037</ele>
        <time>2021-07-10T08:32:14Z</time>
      </trkpt>
      <trkpt lat="40.848765978589654" lon="-4.025895986706018">
        <ele>1247.9490000000001</ele>
        <time>2021-07-10T08:32:15Z</time>
      </trkpt>
      <trkpt lat="40.849136039614677" lon="-4.026089021936059">
        <ele>1248.0119999999999</ele>
        <time>2021-07-10T08:32:17Z</time>
      </trkpt>
      <trkpt lat="40.849333014339209" lon="-4.026180971413851">
        <ele>1247.086</ele>
        <time>2021-07-10T08:32:18Z</time>
      </trkpt>
      <trkpt lat="40.849734004586935" lon="-4.026282979175448">
        <ele>1246.4949999999999</ele>
        <time>2021-07-10T08:32:20Z</time>
      </trkpt>
      <trkpt lat="40.850133989006281" lon="-4.026384986937046">
        <ele>1246.6759999999999</ele>
        <time>2021-07-10T08:32:22Z</time>
      </trkpt>
      <trkpt lat="40.850473958998919" lon="-4.026569975540042">
        <ele>1246.29</ele>
        <time>2021-07-10T08:32:24Z</time>
      </trkpt>
      <trkpt lat="40.850642016157508" lon="-4.026696961373091">
        <ele>1245.819</ele>
        <time>2021-07-10T08:32:25Z</time>
      </trkpt>
      <trkpt lat="40.850975029170513" lon="-4.026967026293278">
        <ele>1245.808</ele>
        <time>2021-07-10T08:32:27Z</time>
      </trkpt>
      <trkpt lat="40.851145014166832" lon="-4.027103986591101">
        <ele>1246.0940000000001</ele>
        <time>2021-07-10T08:32:28Z</time>
      </trkpt>
      <trkpt lat="40.851446008309722" lon="-4.02735703624785">
        <ele>1245.9939999999999</ele>
        <time>2021-07-10T08:32:30Z</time>
      </trkpt>
      <trkpt lat="40.85159101523459" lon="-4.027501037344337">
        <ele>1245.0250000000001</ele>
        <time>2021-07-10T08:32:31Z</time>
      </trkpt>
      <trkpt lat="40.851724036037922" lon="-4.027654007077217">
        <ele>1244.6110000000001</ele>
        <time>2021-07-10T08:32:32Z</time>
      </trkpt>
      <trkpt lat="40.851867031306028" lon="-4.027812005952001">
        <ele>1244.123</ele>
        <time>2021-07-10T08:32:33Z</time>
      </trkpt>
      <trkpt lat="40.852167019620538" lon="-4.028009986504912">
        <ele>1243.646</ele>
        <time>2021-07-10T08:32:35Z</time>
      </trkpt>
      <trkpt lat="40.852511012926698" lon="-4.028037982061505">
        <ele>1242.45</ele>
        <time>2021-07-10T08:32:37Z</time>
      </trkpt>
      <trkpt lat="40.852702036499977" lon="-4.02802599593997">
        <ele>1241.1489999999999</ele>
        <time>2021-07-10T08:32:38Z</time>
      </trkpt>
      <trkpt lat="40.853062039241195" lon="-4.027963969856501">
        <ele>1239.7529999999999</ele>
        <time>2021-07-10T08:32:40Z</time>
      </trkpt>
      <trkpt lat="40.853248033672571" lon="-4.027895992621779">
        <ele>1238.5039999999999</ele>
        <time>2021-07-10T08:32:41Z</time>
      </trkpt>
      <trkpt lat="40.853430004790425" lon="-4.027816029265523">
        <ele>1237.5139999999999</ele>
        <time>2021-07-10T08:32:42Z</time>
      </trkpt>
      <trkpt lat="40.853618010878563" lon="-4.027714021503925">
        <ele>1236.808</ele>
        <time>2021-07-10T08:32:43Z</time>
      </trkpt>
      <trkpt lat="40.853902995586395" lon="-4.027462983503938">
        <ele>1235.8820000000001</ele>
        <time>2021-07-10T08:32:45Z</time>
      </trkpt>
      <trkpt lat="40.854077003896236" lon="-4.027082026004791">
        <ele>1234.8820000000001</ele>
        <time>2021-07-10T08:32:47Z</time>
      </trkpt>
      <trkpt lat="40.854117991402745" lon="-4.026857977733016">
        <ele>1234.193</ele>
        <time>2021-07-10T08:32:48Z</time>
      </trkpt>
      <trkpt lat="40.854197032749653" lon="-4.026495041325688">
        <ele>1233.739</ele>
        <time>2021-07-10T08:32:50Z</time>
      </trkpt>
      <trkpt lat="40.854296023026109" lon="-4.026373000815511">
        <ele>1233.6310000000001</ele>
        <time>2021-07-10T08:32:51Z</time>
      </trkpt>
      <trkpt lat="40.854539014399052" lon="-4.026297982782126">
        <ele>1234.2639999999999</ele>
        <time>2021-07-10T08:32:53Z</time>
      </trkpt>
      <trkpt lat="40.854804972186685" lon="-4.026235034689307">
        <ele>1234.018</ele>
        <time>2021-07-10T08:32:55Z</time>
      </trkpt>
      <trkpt lat="40.854947967454791" lon="-4.026233023032546">
        <ele>1233.4670000000001</ele>
        <time>2021-07-10T08:32:56Z</time>
      </trkpt>
      <trkpt lat="40.855079982429743" lon="-4.026288008317351">
        <ele>1232.8140000000001</ele>
        <time>2021-07-10T08:32:57Z</time>
      </trkpt>
      <trkpt lat="40.855194982141256" lon="-4.026385992765427">
        <ele>1232.0540000000001</ele>
        <time>2021-07-10T08:32:58Z</time>
      </trkpt>
      <trkpt lat="40.855426993221045" lon="-4.026634013280273">
        <ele>1231.309</ele>
        <time>2021-07-10T08:33:00Z</time>
      </trkpt>
      <trkpt lat="40.85556898266077" lon="-4.026725962758064">
        <ele>1230.1079999999999</ele>
        <time>2021-07-10T08:33:01Z</time>
      </trkpt>
      <trkpt lat="40.85589000955224" lon="-4.02677801437676">
        <ele>1228.6780000000001</ele>
        <time>2021-07-10T08:33:03Z</time>
      </trkpt>
      <trkpt lat="40.856225034222007" lon="-4.026772985234857">
        <ele>1227.578</ele>
        <time>2021-07-10T08:33:05Z</time>
      </trkpt>
      <trkpt lat="40.856411028653383" lon="-4.026780026033521">
        <ele>1225.6890000000001</ele>
        <time>2021-07-10T08:33:06Z</time>
      </trkpt>
      <trkpt lat="40.856790980324149" lon="-4.02675798162818">
        <ele>1223.2149999999999</ele>
        <time>2021-07-10T08:33:08Z</time>
      </trkpt>
      <trkpt lat="40.856993990018964" lon="-4.026702996343374">
        <ele>1221.4269999999999</ele>
        <time>2021-07-10T08:33:09Z</time>
      </trkpt>
      <trkpt lat="40.857353992760181" lon="-4.026572993025184">
        <ele>1219.3800000000001</ele>
        <time>2021-07-10T08:33:11Z</time>
      </trkpt>
      <trkpt lat="40.857540993019938" lon="-4.026514990255237">
        <ele>1217.864</ele>
        <time>2021-07-10T08:33:12Z</time>
      </trkpt>
      <trkpt lat="40.857922034338117" lon="-4.026415999978781">
        <ele>1216.183</ele>
        <time>2021-07-10T08:33:14Z</time>
      </trkpt>
      <trkpt lat="40.858268961310387" lon="-4.02632798999548">
        <ele>1214.798</ele>
        <time>2021-07-10T08:33:16Z</time>
      </trkpt>
      <trkpt lat="40.858627958223224" lon="-4.026245009154081">
        <ele>1213.615</ele>
        <time>2021-07-10T08:33:18Z</time>
      </trkpt>
      <trkpt lat="40.858820993453264" lon="-4.026227993890643">
        <ele>1212.826</ele>
        <time>2021-07-10T08:33:19Z</time>
      </trkpt>
      <trkpt lat="40.859166998416185" lon="-4.026247020810843">
        <ele>1212.808</ele>
        <time>2021-07-10T08:33:21Z</time>
      </trkpt>
      <trkpt lat="40.859514009207487" lon="-4.026280967518687">
        <ele>1212.4259999999999</ele>
        <time>2021-07-10T08:33:23Z</time>
      </trkpt>
      <trkpt lat="40.859692040830851" lon="-4.026313992217183">
        <ele>1212.396</ele>
        <time>2021-07-10T08:33:24Z</time>
      </trkpt>
      <trkpt lat="40.859998986124992" lon="-4.026404013857245">
        <ele>1212.087</ele>
        <time>2021-07-10T08:33:26Z</time>
      </trkpt>
      <trkpt lat="40.860153967514634" lon="-4.026452964171767">
        <ele>1211.133</ele>
        <time>2021-07-10T08:33:27Z</time>
      </trkpt>
      <trkpt lat="40.860462002456188" lon="-4.026544997468591">
        <ele>1210.575</ele>
        <time>2021-07-10T08:33:29Z</time>
      </trkpt>
      <trkpt lat="40.860759979113936" lon="-4.0265859849751">
        <ele>1210.3779999999999</ele>
        <time>2021-07-10T08:33:31Z</time>
      </trkpt>
      <trkpt lat="40.861077988520265" lon="-4.026546003296971">
        <ele>1210.3920000000001</ele>
        <time>2021-07-10T08:33:33Z</time>
      </trkpt>
      <trkpt lat="40.861268006265163" lon="-4.026514990255237">
        <ele>1208.6210000000001</ele>
        <time>2021-07-10T08:33:34Z</time>
      </trkpt>
      <trkpt lat="40.861619040369987" lon="-4.02645698748529">
        <ele>1207.059</ele>
        <time>2021-07-10T08:33:36Z</time>
      </trkpt>
      <trkpt lat="40.861989017575979" lon="-4.02643502689898">
        <ele>1205.0029999999999</ele>
        <time>2021-07-10T08:33:38Z</time>
      </trkpt>
      <trkpt lat="40.862176017835736" lon="-4.026432009413838">
        <ele>1203.923</ele>
        <time>2021-07-10T08:33:39Z</time>
      </trkpt>
      <trkpt lat="40.862364023923874" lon="-4.026437038555741">
        <ele>1203.508</ele>
        <time>2021-07-10T08:33:40Z</time>
      </trkpt>
      <trkpt lat="40.862699970602989" lon="-4.026460004970431">
        <ele>1203.6420000000001</ele>
        <time>2021-07-10T08:33:42Z</time>
      </trkpt>
      <trkpt lat="40.862881019711494" lon="-4.026492023840547">
        <ele>1202.5219999999999</ele>
        <time>2021-07-10T08:33:43Z</time>
      </trkpt>
      <trkpt lat="40.863189976662397" lon="-4.026642981916666">
        <ele>1202.653</ele>
        <time>2021-07-10T08:33:45Z</time>
      </trkpt>
      <trkpt lat="40.863469010218978" lon="-4.026858983561397">
        <ele>1203.019</ele>
        <time>2021-07-10T08:33:47Z</time>
      </trkpt>
      <trkpt lat="40.863743014633656" lon="-4.027061993256211">
        <ele>1203.691</ele>
        <time>2021-07-10T08:33:49Z</time>
      </trkpt>
      <trkpt lat="40.863905036821961" lon="-4.02716601267457">
        <ele>1204.444</ele>
        <time>2021-07-10T08:33:50Z</time>
      </trkpt>
      <trkpt lat="40.864216005429626" lon="-4.027308002114296">
        <ele>1205.1780000000001</ele>
        <time>2021-07-10T08:33:52Z</time>
      </trkpt>
      <trkpt lat="40.864541977643967" lon="-4.027303978800774">
        <ele>1206.277</ele>
        <time>2021-07-10T08:33:54Z</time>
      </trkpt>
      <trkpt lat="40.864852024242282" lon="-4.027143968269229">
        <ele>1206.4390000000001</ele>
        <time>2021-07-10T08:33:56Z</time>
      </trkpt>
      <trkpt lat="40.864986972883344" lon="-4.027011031284928">
        <ele>1207.001</ele>
        <time>2021-07-10T08:33:57Z</time>
      </trkpt>
      <trkpt lat="40.865227030590177" lon="-4.02665002271533">
        <ele>1206.721</ele>
        <time>2021-07-10T08:33:59Z</time>
      </trkpt>
      <trkpt lat="40.865446971729398" lon="-4.026233023032546">
        <ele>1206.008</ele>
        <time>2021-07-10T08:34:01Z</time>
      </trkpt>
      <trkpt lat="40.865673031657934" lon="-4.025824991986156">
        <ele>1205.3499999999999</ele>
        <time>2021-07-10T08:34:03Z</time>
      </trkpt>
      <trkpt lat="40.865806974470615" lon="-4.025630028918386">
        <ele>1204.77</ele>
        <time>2021-07-10T08:34:04Z</time>
      </trkpt>
      <trkpt lat="40.865958016365767" lon="-4.025437999516726">
        <ele>1203.671</ele>
        <time>2021-07-10T08:34:05Z</time>
      </trkpt>
      <trkpt lat="40.866258004680276" lon="-4.025116972625256">
        <ele>1203.4269999999999</ele>
        <time>2021-07-10T08:34:07Z</time>
      </trkpt>
      <trkpt lat="40.866421032696962" lon="-4.024948999285698">
        <ele>1203.4490000000001</ele>
        <time>2021-07-10T08:34:08Z</time>
      </trkpt>
      <trkpt lat="40.866585988551378" lon="-4.024772979319096">
        <ele>1203.5319999999999</ele>
        <time>2021-07-10T08:34:09Z</time>
      </trkpt>
      <trkpt lat="40.8667610026896" lon="-4.024595031514764">
        <ele>1203.576</ele>
        <time>2021-07-10T08:34:10Z</time>
      </trkpt>
      <trkpt lat="40.867057973518968" lon="-4.024271992966533">
        <ele>1202.9349999999999</ele>
        <time>2021-07-10T08:34:12Z</time>
      </trkpt>
      <trkpt lat="40.867341030389071" lon="-4.023924982175231">
        <ele>1203.4159999999999</ele>
        <time>2021-07-10T08:34:14Z</time>
      </trkpt>
      <trkpt lat="40.867633977904916" lon="-4.023633040487766">
        <ele>1203.7760000000001</ele>
        <time>2021-07-10T08:34:16Z</time>
      </trkpt>
      <trkpt lat="40.867945030331612" lon="-4.023433970287442">
        <ele>1204.6130000000001</ele>
        <time>2021-07-10T08:34:18Z</time>
      </trkpt>
      <trkpt lat="40.868092970922589" lon="-4.023375967517495">
        <ele>1204.9079999999999</ele>
        <time>2021-07-10T08:34:19Z</time>
      </trkpt>
      <trkpt lat="40.868234960362315" lon="-4.023312013596296">
        <ele>1205.748</ele>
        <time>2021-07-10T08:34:20Z</time>
      </trkpt>
      <trkpt lat="40.868409974500537" lon="-4.023109003901482">
        <ele>1205.998</ele>
        <time>2021-07-10T08:34:22Z</time>
      </trkpt>
      <trkpt lat="40.868484992533922" lon="-4.022968020290136">
        <ele>1206.289</ele>
        <time>2021-07-10T08:34:23Z</time>
      </trkpt>
      <trkpt lat="40.86856403388083" lon="-4.022815972566605">
        <ele>1206.345</ele>
        <time>2021-07-10T08:34:24Z</time>
      </trkpt>
      <trkpt lat="40.86865296587348" lon="-4.022655040025711">
        <ele>1207.327</ele>
        <time>2021-07-10T08:34:25Z</time>
      </trkpt>
      <trkpt lat="40.868850024417043" lon="-4.022414982318878">
        <ele>1208.47</ele>
        <time>2021-07-10T08:34:27Z</time>
      </trkpt>
      <trkpt lat="40.86897399276495" lon="-4.022355973720551">
        <ele>1209.8340000000001</ele>
        <time>2021-07-10T08:34:28Z</time>
      </trkpt>
      <trkpt lat="40.869256965816021" lon="-4.022367959842086">
        <ele>1210.663</ele>
        <time>2021-07-10T08:34:30Z</time>
      </trkpt>
      <trkpt lat="40.869523007422686" lon="-4.022419005632401">
        <ele>1211.115</ele>
        <time>2021-07-10T08:34:32Z</time>
      </trkpt>
      <trkpt lat="40.869820984080434" lon="-4.022421017289162">
        <ele>1211.865</ele>
        <time>2021-07-10T08:34:34Z</time>
      </trkpt>
      <trkpt lat="40.869989963248372" lon="-4.022408025339246">
        <ele>1212.4110000000001</ele>
        <time>2021-07-10T08:34:35Z</time>
      </trkpt>
      <trkpt lat="40.870321970432997" lon="-4.022373994812369">
        <ele>1212.308</ele>
        <time>2021-07-10T08:34:37Z</time>
      </trkpt>
      <trkpt lat="40.870664035901427" lon="-4.022301994264126">
        <ele>1212.588</ele>
        <time>2021-07-10T08:34:39Z</time>
      </trkpt>
      <trkpt lat="40.870999982580543" lon="-4.022157993167639">
        <ele>1213.1880000000001</ele>
        <time>2021-07-10T08:34:41Z</time>
      </trkpt>
      <trkpt lat="40.871301982551813" lon="-4.021983984857798">
        <ele>1213.6690000000001</ele>
        <time>2021-07-10T08:34:43Z</time>
      </trkpt>
      <trkpt lat="40.871604988351464" lon="-4.021821962669492">
        <ele>1213.7349999999999</ele>
        <time>2021-07-10T08:34:45Z</time>
      </trkpt>
      <trkpt lat="40.871758041903377" lon="-4.021749962121248">
        <ele>1213.4169999999999</ele>
        <time>2021-07-10T08:34:46Z</time>
      </trkpt>
      <trkpt lat="40.872032968327403" lon="-4.021654995158315">
        <ele>1212.78</ele>
        <time>2021-07-10T08:34:48Z</time>
      </trkpt>
      <trkpt lat="40.872324993833899" lon="-4.021577965468168">
        <ele>1211.2139999999999</ele>
        <time>2021-07-10T08:34:50Z</time>
      </trkpt>
      <trkpt lat="40.872600004076958" lon="-4.021508982405067">
        <ele>1210.2929999999999</ele>
        <time>2021-07-10T08:34:52Z</time>
      </trkpt>
      <trkpt lat="40.872727995738387" lon="-4.021478975191712">
        <ele>1209.153</ele>
        <time>2021-07-10T08:34:53Z</time>
      </trkpt>
      <trkpt lat="40.872975010424852" lon="-4.021417032927275">
        <ele>1207.604</ele>
        <time>2021-07-10T08:34:55Z</time>
      </trkpt>
      <trkpt lat="40.873098978772759" lon="-4.021381996572018">
        <ele>1207.0139999999999</ele>
        <time>2021-07-10T08:34:56Z</time>
      </trkpt>
      <trkpt lat="40.87322898209095" lon="-4.021346038207412">
        <ele>1206.7080000000001</ele>
        <time>2021-07-10T08:34:57Z</time>
      </trkpt>
      <trkpt lat="40.873497035354376" lon="-4.021271020174027">
        <ele>1205.5619999999999</ele>
        <time>2021-07-10T08:34:59Z</time>
      </trkpt>
      <trkpt lat="40.873771039769053" lon="-4.021194996312261">
        <ele>1204.0419999999999</ele>
        <time>2021-07-10T08:35:01Z</time>
      </trkpt>
      <trkpt lat="40.873924009501934" lon="-4.021154008805752">
        <ele>1202.7629999999999</ele>
        <time>2021-07-10T08:35:02Z</time>
      </trkpt>
      <trkpt lat="40.874200025573373" lon="-4.021079996600747">
        <ele>1202.079</ele>
        <time>2021-07-10T08:35:04Z</time>
      </trkpt>
      <trkpt lat="40.874346038326621" lon="-4.021044038236141">
        <ele>1200.8409999999999</ele>
        <time>2021-07-10T08:35:05Z</time>
      </trkpt>
      <trkpt lat="40.874493978917599" lon="-4.021010007709265">
        <ele>1199.934</ele>
        <time>2021-07-10T08:35:06Z</time>
      </trkpt>
      <trkpt lat="40.874638985842466" lon="-4.020974971354008">
        <ele>1199.288</ele>
        <time>2021-07-10T08:35:07Z</time>
      </trkpt>
      <trkpt lat="40.874782986938953" lon="-4.020938007161021">
        <ele>1198.7670000000001</ele>
        <time>2021-07-10T08:35:08Z</time>
      </trkpt>
      <trkpt lat="40.875068977475166" lon="-4.020862989127636">
        <ele>1198.1479999999999</ele>
        <time>2021-07-10T08:35:10Z</time>
      </trkpt>
      <trkpt lat="40.875220019370317" lon="-4.020822001621127">
        <ele>1197.8610000000001</ele>
        <time>2021-07-10T08:35:11Z</time>
      </trkpt>
      <trkpt lat="40.875494023784995" lon="-4.020753018558025">
        <ele>1197.0170000000001</ele>
        <time>2021-07-10T08:35:13Z</time>
      </trkpt>
      <trkpt lat="40.875776996836066" lon="-4.02067699469626">
        <ele>1196.808</ele>
        <time>2021-07-10T08:35:15Z</time>
      </trkpt>
      <trkpt lat="40.875918986275792" lon="-4.020641036331654">
        <ele>1195.711</ele>
        <time>2021-07-10T08:35:16Z</time>
      </trkpt>
      <trkpt lat="40.876060975715518" lon="-4.020599965006113">
        <ele>1195.271</ele>
        <time>2021-07-10T08:35:17Z</time>
      </trkpt>
      <trkpt lat="40.876325005665421" lon="-4.020489994436503">
        <ele>1194.8119999999999</ele>
        <time>2021-07-10T08:35:19Z</time>
      </trkpt>
      <trkpt lat="40.876447968184948" lon="-4.020412964746356">
        <ele>1194.348</ele>
        <time>2021-07-10T08:35:20Z</time>
      </trkpt>
      <trkpt lat="40.876668998971581" lon="-4.020185982808471">
        <ele>1193.72</ele>
        <time>2021-07-10T08:35:22Z</time>
      </trkpt>
      <trkpt lat="40.876862034201622" lon="-4.019951038062573">
        <ele>1192.3430000000001</ele>
        <time>2021-07-10T08:35:24Z</time>
      </trkpt>
      <trkpt lat="40.877059008926153" lon="-4.01971098035574">
        <ele>1191.4670000000001</ele>
        <time>2021-07-10T08:35:26Z</time>
      </trkpt>
      <trkpt lat="40.87724500335753" lon="-4.019489027559757">
        <ele>1191.116</ele>
        <time>2021-07-10T08:35:28Z</time>
      </trkpt>
      <trkpt lat="40.877411970868707" lon="-4.019276965409517">
        <ele>1191.5150000000001</ele>
        <time>2021-07-10T08:35:30Z</time>
      </trkpt>
      <trkpt lat="40.877580028027296" lon="-4.019073033705354">
        <ele>1192.7650000000001</ele>
        <time>2021-07-10T08:35:32Z</time>
      </trkpt>
      <trkpt lat="40.87773802690208" lon="-4.018887039273977">
        <ele>1193.9110000000001</ele>
        <time>2021-07-10T08:35:34Z</time>
      </trkpt>
      <trkpt lat="40.877899965271354" lon="-4.018696015700698">
        <ele>1195.008</ele>
        <time>2021-07-10T08:35:36Z</time>
      </trkpt>
      <trkpt lat="40.877974983304739" lon="-4.018605994060636">
        <ele>1196.1279999999999</ele>
        <time>2021-07-10T08:35:37Z</time>
      </trkpt>
      <trkpt lat="40.878123007714748" lon="-4.018457969650626">
        <ele>1196.6179999999999</ele>
        <time>2021-07-10T08:35:39Z</time>
      </trkpt>
      <trkpt lat="40.878205988556147" lon="-4.018413964658976">
        <ele>1196.6890000000001</ele>
        <time>2021-07-10T08:35:40Z</time>
      </trkpt>
      <trkpt lat="40.87840598076582" lon="-4.018380017951131">
        <ele>1196.9849999999999</ele>
        <time>2021-07-10T08:35:42Z</time>
      </trkpt>
      <trkpt lat="40.878602033481002" lon="-4.01837901212275">
        <ele>1196.9169999999999</ele>
        <time>2021-07-10T08:35:44Z</time>
      </trkpt>
      <trkpt lat="40.878834966570139" lon="-4.018382029607892">
        <ele>1197.6500000000001</ele>
        <time>2021-07-10T08:35:46Z</time>
      </trkpt>
      <trkpt lat="40.879079969599843" lon="-4.018373982980847">
        <ele>1198.2539999999999</ele>
        <time>2021-07-10T08:35:48Z</time>
      </trkpt>
      <trkpt lat="40.879338970407844" lon="-4.018367026001215">
        <ele>1198.413</ele>
        <time>2021-07-10T08:35:50Z</time>
      </trkpt>
      <trkpt lat="40.879477020353079" lon="-4.018365014344454">
        <ele>1198.7149999999999</ele>
        <time>2021-07-10T08:35:51Z</time>
      </trkpt>
      <trkpt lat="40.879624038934708" lon="-4.018363002687693">
        <ele>1198.865</ele>
        <time>2021-07-10T08:35:52Z</time>
      </trkpt>
      <trkpt lat="40.879889996722341" lon="-4.01835797354579">
        <ele>1198.711</ele>
        <time>2021-07-10T08:35:54Z</time>
      </trkpt>
      <trkpt lat="40.880155032500625" lon="-4.018354034051299">
        <ele>1198.6079999999999</ele>
        <time>2021-07-10T08:35:56Z</time>
      </trkpt>
      <trkpt lat="40.880288975313306" lon="-4.018361996859312">
        <ele>1198.518</ele>
        <time>2021-07-10T08:35:57Z</time>
      </trkpt>
      <trkpt lat="40.880415039137006" lon="-4.01837901212275">
        <ele>1198.6279999999999</ele>
        <time>2021-07-10T08:35:58Z</time>
      </trkpt>
      <trkpt lat="40.880661970004439" lon="-4.018433997407556">
        <ele>1198.479</ele>
        <time>2021-07-10T08:36:00Z</time>
      </trkpt>
      <trkpt lat="40.880797002464533" lon="-4.018472973257303">
        <ele>1197.825</ele>
        <time>2021-07-10T08:36:01Z</time>
      </trkpt>
      <trkpt lat="40.8809420093894" lon="-4.018512032926083">
        <ele>1197.4369999999999</ele>
        <time>2021-07-10T08:36:02Z</time>
      </trkpt>
      <trkpt lat="40.881239986047149" lon="-4.018582021817565">
        <ele>1196.79</ele>
        <time>2021-07-10T08:36:04Z</time>
      </trkpt>
      <trkpt lat="40.881537962704897" lon="-4.018646981567144">
        <ele>1196.4739999999999</ele>
        <time>2021-07-10T08:36:06Z</time>
      </trkpt>
      <trkpt lat="40.881684981286526" lon="-4.018684029579163">
        <ele>1196.6130000000001</ele>
        <time>2021-07-10T08:36:07Z</time>
      </trkpt>
      <trkpt lat="40.881826970726252" lon="-4.018725017085671">
        <ele>1196.6220000000001</ele>
        <time>2021-07-10T08:36:08Z</time>
      </trkpt>
      <trkpt lat="40.881965020671487" lon="-4.018772961571813">
        <ele>1196.7619999999999</ele>
        <time>2021-07-10T08:36:09Z</time>
      </trkpt>
      <trkpt lat="40.882233995944262" lon="-4.01889399625361">
        <ele>1196.9079999999999</ele>
        <time>2021-07-10T08:36:11Z</time>
      </trkpt>
      <trkpt lat="40.882368022575974" lon="-4.018961973488331">
        <ele>1197.4079999999999</ele>
        <time>2021-07-10T08:36:12Z</time>
      </trkpt>
      <trkpt lat="40.882505988702178" lon="-4.019035985693336">
        <ele>1197.6189999999999</ele>
        <time>2021-07-10T08:36:13Z</time>
      </trkpt>
      <trkpt lat="40.88274403475225" lon="-4.019164983183146">
        <ele>1197.6790000000001</ele>
        <time>2021-07-10T08:36:15Z</time>
      </trkpt>
      <trkpt lat="40.882860962301493" lon="-4.019223991781473">
        <ele>1197.98</ele>
        <time>2021-07-10T08:36:16Z</time>
      </trkpt>
      <trkpt lat="40.883104959502816" lon="-4.019269002601504">
        <ele>1198.2260000000001</ele>
        <time>2021-07-10T08:36:18Z</time>
      </trkpt>
      <trkpt lat="40.883318027481437" lon="-4.01917302981019">
        <ele>1198.018</ele>
        <time>2021-07-10T08:36:20Z</time>
      </trkpt>
      <trkpt lat="40.883545009419322" lon="-4.019007990136743">
        <ele>1197.0909999999999</ele>
        <time>2021-07-10T08:36:22Z</time>
      </trkpt>
      <trkpt lat="40.883665960282087" lon="-4.018910005688667">
        <ele>1196.095</ele>
        <time>2021-07-10T08:36:23Z</time>
      </trkpt>
      <trkpt lat="40.883835023269057" lon="-4.018645975738764">
        <ele>1194.3140000000001</ele>
        <time>2021-07-10T08:36:25Z</time>
      </trkpt>
      <trkpt lat="40.883891014382243" lon="-4.018474984914064">
        <ele>1192.383</ele>
        <time>2021-07-10T08:36:26Z</time>
      </trkpt>
      <trkpt lat="40.884023029357195" lon="-4.0181640163064">
        <ele>1190.825</ele>
        <time>2021-07-10T08:36:28Z</time>
      </trkpt>
      <trkpt lat="40.884126964956522" lon="-4.018053961917758">
        <ele>1189.7170000000001</ele>
        <time>2021-07-10T08:36:29Z</time>
      </trkpt>
      <trkpt lat="40.884392000734806" lon="-4.017918007448316">
        <ele>1187.808</ele>
        <time>2021-07-10T08:36:31Z</time>
      </trkpt>
      <trkpt lat="40.884707998484373" lon="-4.017770988866687">
        <ele>1185.855</ele>
        <time>2021-07-10T08:36:33Z</time>
      </trkpt>
      <trkpt lat="40.885035982355475" lon="-4.017613995820284">
        <ele>1183.845</ele>
        <time>2021-07-10T08:36:35Z</time>
      </trkpt>
      <trkpt lat="40.885404031723738" lon="-4.017434036359191">
        <ele>1181.9760000000001</ele>
        <time>2021-07-10T08:36:37Z</time>
      </trkpt>
      <trkpt lat="40.885600000619888" lon="-4.017335968092084">
        <ele>1180.432</ele>
        <time>2021-07-10T08:36:38Z</time>
      </trkpt>
      <trkpt lat="40.885961009189487" lon="-4.017158020287752">
        <ele>1179.0239999999999</ele>
        <time>2021-07-10T08:36:40Z</time>
      </trkpt>
      <trkpt lat="40.886315982788801" lon="-4.016977977007628">
        <ele>1177.627</ele>
        <time>2021-07-10T08:36:42Z</time>
      </trkpt>
      <trkpt lat="40.886662993580103" lon="-4.01679097674787">
        <ele>1176.421</ele>
        <time>2021-07-10T08:36:44Z</time>
      </trkpt>
      <trkpt lat="40.886838007718325" lon="-4.016674971207976">
        <ele>1175.5599999999999</ele>
        <time>2021-07-10T08:36:45Z</time>
      </trkpt>
      <trkpt lat="40.887161968275905" lon="-4.016413958743215">
        <ele>1173.961</ele>
        <time>2021-07-10T08:36:47Z</time>
      </trkpt>
      <trkpt lat="40.887511996552348" lon="-4.016114976257086">
        <ele>1172.6210000000001</ele>
        <time>2021-07-10T08:36:49Z</time>
      </trkpt>
      <trkpt lat="40.887849032878876" lon="-4.015823034569621">
        <ele>1172.0129999999999</ele>
        <time>2021-07-10T08:36:51Z</time>
      </trkpt>
      <trkpt lat="40.88820300064981" lon="-4.015517011284828">
        <ele>1171.7080000000001</ele>
        <time>2021-07-10T08:36:53Z</time>
      </trkpt>
      <trkpt lat="40.888391006737947" lon="-4.015357000753284">
        <ele>1171.8530000000001</ele>
        <time>2021-07-10T08:36:54Z</time>
      </trkpt>
      <trkpt lat="40.888727037236094" lon="-4.015071010217071">
        <ele>1172.7829999999999</ele>
        <time>2021-07-10T08:36:56Z</time>
      </trkpt>
      <trkpt lat="40.889061978086829" lon="-4.014780996367335">
        <ele>1174.184</ele>
        <time>2021-07-10T08:36:58Z</time>
      </trkpt>
      <trkpt lat="40.889230035245419" lon="-4.014632971957326">
        <ele>1175.1800000000001</ele>
        <time>2021-07-10T08:36:59Z</time>
      </trkpt>
      <trkpt lat="40.889519965276122" lon="-4.01438201777637">
        <ele>1175.972</ele>
        <time>2021-07-10T08:37:01Z</time>
      </trkpt>
      <trkpt lat="40.88966497220099" lon="-4.014256959781051">
        <ele>1176.7449999999999</ele>
        <time>2021-07-10T08:37:02Z</time>
      </trkpt>
      <trkpt lat="40.889807967469096" lon="-4.014131985604763">
        <ele>1177.4590000000001</ele>
        <time>2021-07-10T08:37:03Z</time>
      </trkpt>
      <trkpt lat="40.889953980222344" lon="-4.013988990336657">
        <ele>1177.8579999999999</ele>
        <time>2021-07-10T08:37:04Z</time>
      </trkpt>
      <trkpt lat="40.890198983252048" lon="-4.013704005628824">
        <ele>1178.162</ele>
        <time>2021-07-10T08:37:06Z</time>
      </trkpt>
      <trkpt lat="40.890453038737178" lon="-4.013391025364399">
        <ele>1177.5830000000001</ele>
        <time>2021-07-10T08:37:08Z</time>
      </trkpt>
      <trkpt lat="40.890591004863381" lon="-4.013231014832854">
        <ele>1177.3109999999999</ele>
        <time>2021-07-10T08:37:09Z</time>
      </trkpt>
      <trkpt lat="40.890732994303107" lon="-4.013089025393128">
        <ele>1176.9079999999999</ele>
        <time>2021-07-10T08:37:10Z</time>
      </trkpt>
      <trkpt lat="40.891026025637984" lon="-4.012873023748398">
        <ele>1176.8330000000001</ele>
        <time>2021-07-10T08:37:12Z</time>
      </trkpt>
      <trkpt lat="40.891365995630622" lon="-4.012714019045234">
        <ele>1176.2729999999999</ele>
        <time>2021-07-10T08:37:14Z</time>
      </trkpt>
      <trkpt lat="40.891702026128769" lon="-4.012611005455256">
        <ele>1175.7840000000001</ele>
        <time>2021-07-10T08:37:16Z</time>
      </trkpt>
      <trkpt lat="40.891882991418242" lon="-4.012564988806844">
        <ele>1175.3299999999999</ele>
        <time>2021-07-10T08:37:17Z</time>
      </trkpt>
      <trkpt lat="40.892260009422898" lon="-4.012473961338401">
        <ele>1174.3119999999999</ele>
        <time>2021-07-10T08:37:19Z</time>
      </trkpt>
      <trkpt lat="40.892452960833907" lon="-4.01242601685226">
        <ele>1173.7950000000001</ele>
        <time>2021-07-10T08:37:20Z</time>
      </trkpt>
      <trkpt lat="40.892839031293988" lon="-4.012329038232565">
        <ele>1173.329</ele>
        <time>2021-07-10T08:37:22Z</time>
      </trkpt>
      <trkpt lat="40.893027959391475" lon="-4.012286039069295">
        <ele>1172.9780000000001</ele>
        <time>2021-07-10T08:37:23Z</time>
      </trkpt>
      <trkpt lat="40.893216971307993" lon="-4.012242034077644">
        <ele>1172.3320000000001</ele>
        <time>2021-07-10T08:37:24Z</time>
      </trkpt>
      <trkpt lat="40.893593989312649" lon="-4.012158969417214">
        <ele>1171.992</ele>
        <time>2021-07-10T08:37:26Z</time>
      </trkpt>
      <trkpt lat="40.893967989832163" lon="-4.012073976919055">
        <ele>1170.8109999999999</ele>
        <time>2021-07-10T08:37:28Z</time>
      </trkpt>
      <trkpt lat="40.894319023936987" lon="-4.011989990249276">
        <ele>1169.1079999999999</ele>
        <time>2021-07-10T08:37:30Z</time>
      </trkpt>
      <trkpt lat="40.894494038075209" lon="-4.011947996914387">
        <ele>1168.27</ele>
        <time>2021-07-10T08:37:31Z</time>
      </trkpt>
      <trkpt lat="40.894833002239466" lon="-4.01186996139586">
        <ele>1167.1400000000001</ele>
        <time>2021-07-10T08:37:33Z</time>
      </trkpt>
      <trkpt lat="40.895008016377687" lon="-4.011866021901369">
        <ele>1166.451</ele>
        <time>2021-07-10T08:37:34Z</time>
      </trkpt>
      <trkpt lat="40.895188981667161" lon="-4.011887982487679">
        <ele>1165.7270000000001</ele>
        <time>2021-07-10T08:37:35Z</time>
      </trkpt>
      <trkpt lat="40.895518977195024" lon="-4.01197599247098">
        <ele>1164.529</ele>
        <time>2021-07-10T08:37:37Z</time>
      </trkpt>
      <trkpt lat="40.895866993814707" lon="-4.012074982747436">
        <ele>1163.8720000000001</ele>
        <time>2021-07-10T08:37:39Z</time>
      </trkpt>
      <trkpt lat="40.896039996296167" lon="-4.012122005224228">
        <ele>1163.056</ele>
        <time>2021-07-10T08:37:40Z</time>
      </trkpt>
      <trkpt lat="40.896212998777628" lon="-4.012163998559117">
        <ele>1162.865</ele>
        <time>2021-07-10T08:37:41Z</time>
      </trkpt>
      <trkpt lat="40.896386001259089" lon="-4.012205991894007">
        <ele>1162.934</ele>
        <time>2021-07-10T08:37:42Z</time>
      </trkpt>
      <trkpt lat="40.896735023707151" lon="-4.012295007705689">
        <ele>1162.355</ele>
        <time>2021-07-10T08:37:44Z</time>
      </trkpt>
      <trkpt lat="40.897092008963227" lon="-4.012332977727056">
        <ele>1162.4100000000001</ele>
        <time>2021-07-10T08:37:46Z</time>
      </trkpt>
      <trkpt lat="40.89727096259594" lon="-4.012335995212197">
        <ele>1162.1079999999999</ele>
        <time>2021-07-10T08:37:47Z</time>
      </trkpt>
      <trkpt lat="40.897628031671047" lon="-4.012313028797507">
        <ele>1162.1800000000001</ele>
        <time>2021-07-10T08:37:49Z</time>
      </trkpt>
      <trkpt lat="40.897811008617282" lon="-4.012315962463617">
        <ele>1161.8199999999999</ele>
        <time>2021-07-10T08:37:50Z</time>
      </trkpt>
      <trkpt lat="40.898092975839972" lon="-4.01232099160552">
        <ele>1162.0709999999999</ele>
        <time>2021-07-10T08:37:52Z</time>
      </trkpt>
      <trkpt lat="40.89836597442627" lon="-4.012286961078644">
        <ele>1161.5170000000001</ele>
        <time>2021-07-10T08:37:54Z</time>
      </trkpt>
      <trkpt lat="40.898503018543124" lon="-4.012241028249264">
        <ele>1162.539</ele>
        <time>2021-07-10T08:37:55Z</time>
      </trkpt>
      <trkpt lat="40.898648025467992" lon="-4.012179002165794">
        <ele>1162.8119999999999</ele>
        <time>2021-07-10T08:37:56Z</time>
      </trkpt>
      <trkpt lat="40.898886993527412" lon="-4.012053022161126">
        <ele>1163.4459999999999</ele>
        <time>2021-07-10T08:37:58Z</time>
      </trkpt>
      <trkpt lat="40.899115987122059" lon="-4.011880019679666">
        <ele>1162.425</ele>
        <time>2021-07-10T08:38:00Z</time>
      </trkpt>
      <trkpt lat="40.899226041510701" lon="-4.011759990826249">
        <ele>1161.758</ele>
        <time>2021-07-10T08:38:01Z</time>
      </trkpt>
      <trkpt lat="40.899397032335401" lon="-4.011520016938448">
        <ele>1161.452</ele>
        <time>2021-07-10T08:38:03Z</time>
      </trkpt>
      <trkpt lat="40.899474984034896" lon="-4.011380961164832">
        <ele>1161.2170000000001</ele>
        <time>2021-07-10T08:38:04Z</time>
      </trkpt>
      <trkpt lat="40.899542961269617" lon="-4.011230003088713">
        <ele>1161.008</ele>
        <time>2021-07-10T08:38:05Z</time>
      </trkpt>
      <trkpt lat="40.899636000394821" lon="-4.010938983410597">
        <ele>1160.742</ele>
        <time>2021-07-10T08:38:07Z</time>
      </trkpt>
      <trkpt lat="40.899731973186135" lon="-4.010641006752849">
        <ele>1161.3620000000001</ele>
        <time>2021-07-10T08:38:09Z</time>
      </trkpt>
      <trkpt lat="40.89978301897645" lon="-4.010489964857698">
        <ele>1161.963</ele>
        <time>2021-07-10T08:38:10Z</time>
      </trkpt>
      <trkpt lat="40.899835992604494" lon="-4.010330960154533">
        <ele>1162.8489999999999</ele>
        <time>2021-07-10T08:38:11Z</time>
      </trkpt>
      <trkpt lat="40.899922996759415" lon="-4.010060979053378">
        <ele>1162.9110000000001</ele>
        <time>2021-07-10T08:38:13Z</time>
      </trkpt>
      <trkpt lat="40.900003965944052" lon="-4.009812036529183">
        <ele>1164.124</ele>
        <time>2021-07-10T08:38:15Z</time>
      </trkpt>
      <trkpt lat="40.900040008127689" lon="-4.009706005454063">
        <ele>1165.278</ele>
        <time>2021-07-10T08:38:16Z</time>
      </trkpt>
      <trkpt lat="40.900071021169424" lon="-4.009612966328859">
        <ele>1165.7170000000001</ele>
        <time>2021-07-10T08:38:17Z</time>
      </trkpt>
      <trkpt lat="40.900117959827185" lon="-4.009467959403992">
        <ele>1165.9570000000001</ele>
        <time>2021-07-10T08:38:19Z</time>
      </trkpt>
      <trkpt lat="40.900138998404145" lon="-4.009358994662762">
        <ele>1165.9000000000001</ele>
        <time>2021-07-10T08:38:21Z</time>
      </trkpt>
      <trkpt lat="40.900157019495964" lon="-4.009235026314855">
        <ele>1166.72</ele>
        <time>2021-07-10T08:38:23Z</time>
      </trkpt>
      <trkpt lat="40.900219967588782" lon="-4.009122038260102">
        <ele>1167.2080000000001</ele>
        <time>2021-07-10T08:38:25Z</time>
      </trkpt>
      <trkpt lat="40.900281993672252" lon="-4.009102005511522">
        <ele>1167.652</ele>
        <time>2021-07-10T08:38:26Z</time>
      </trkpt>
      <trkpt lat="40.900391964241862" lon="-4.009168976917863">
        <ele>1167.5820000000001</ele>
        <time>2021-07-10T08:38:28Z</time>
      </trkpt>
      <trkpt lat="40.900423983111978" lon="-4.009248018264771">
        <ele>1167.373</ele>
        <time>2021-07-10T08:38:29Z</time>
      </trkpt>
      <trkpt lat="40.900458013638854" lon="-4.009432001039386">
        <ele>1166.6489999999999</ele>
        <time>2021-07-10T08:38:31Z</time>
      </trkpt>
      <trkpt lat="40.900486009195447" lon="-4.009533002972603">
        <ele>1166.1410000000001</ele>
        <time>2021-07-10T08:38:32Z</time>
      </trkpt>
      <trkpt lat="40.900564966723323" lon="-4.009735006839037">
        <ele>1165.4939999999999</ele>
        <time>2021-07-10T08:38:34Z</time>
      </trkpt>
      <trkpt lat="40.900661023333669" lon="-4.009981015697122">
        <ele>1164.038</ele>
        <time>2021-07-10T08:38:36Z</time>
      </trkpt>
      <trkpt lat="40.900716008618474" lon="-4.01012702845037">
        <ele>1162.9269999999999</ele>
        <time>2021-07-10T08:38:37Z</time>
      </trkpt>
      <trkpt lat="40.900830002501607" lon="-4.010413018986583">
        <ele>1161.627</ele>
        <time>2021-07-10T08:38:39Z</time>
      </trkpt>
      <trkpt lat="40.900894962251186" lon="-4.010572023689747">
        <ele>1160.568</ele>
        <time>2021-07-10T08:38:40Z</time>
      </trkpt>
      <trkpt lat="40.9009650349617" lon="-4.010747959837318">
        <ele>1159.614</ele>
        <time>2021-07-10T08:38:41Z</time>
      </trkpt>
      <trkpt lat="40.90109696611762" lon="-4.011078961193562">
        <ele>1158.2080000000001</ele>
        <time>2021-07-10T08:38:43Z</time>
      </trkpt>
      <trkpt lat="40.901167960837483" lon="-4.011253975331783">
        <ele>1157.019</ele>
        <time>2021-07-10T08:38:44Z</time>
      </trkpt>
      <trkpt lat="40.901312967762351" lon="-4.011606015264988">
        <ele>1155.4590000000001</ele>
        <time>2021-07-10T08:38:46Z</time>
      </trkpt>
      <trkpt lat="40.90139402076602" lon="-4.011796033009887">
        <ele>1153.8599999999999</ele>
        <time>2021-07-10T08:38:47Z</time>
      </trkpt>
      <trkpt lat="40.901539027690887" lon="-4.012142037972808">
        <ele>1152.566</ele>
        <time>2021-07-10T08:38:49Z</time>
      </trkpt>
      <trkpt lat="40.901614967733622" lon="-4.012324009090662">
        <ele>1151.588</ele>
        <time>2021-07-10T08:38:50Z</time>
      </trkpt>
      <trkpt lat="40.901768021285534" lon="-4.012697003781796">
        <ele>1150.3710000000001</ele>
        <time>2021-07-10T08:38:52Z</time>
      </trkpt>
      <trkpt lat="40.901915039867163" lon="-4.01305097155273">
        <ele>1148.5650000000001</ele>
        <time>2021-07-10T08:38:54Z</time>
      </trkpt>
      <trkpt lat="40.901988968253136" lon="-4.013234032317996">
        <ele>1147.134</ele>
        <time>2021-07-10T08:38:55Z</time>
      </trkpt>
      <trkpt lat="40.902057029306889" lon="-4.013400999829173">
        <ele>1146.069</ele>
        <time>2021-07-10T08:38:56Z</time>
      </trkpt>
      <trkpt lat="40.902119977399707" lon="-4.013552963733673">
        <ele>1145.204</ele>
        <time>2021-07-10T08:38:57Z</time>
      </trkpt>
      <trkpt lat="40.902219973504543" lon="-4.013796038925648">
        <ele>1144.5239999999999</ele>
        <time>2021-07-10T08:38:59Z</time>
      </trkpt>
      <trkpt lat="40.902321981266141" lon="-4.014043975621462">
        <ele>1143.808</ele>
        <time>2021-07-10T08:39:01Z</time>
      </trkpt>
      <trkpt lat="40.902378978207707" lon="-4.014184037223458">
        <ele>1143.2529999999999</ele>
        <time>2021-07-10T08:39:02Z</time>
      </trkpt>
      <trkpt lat="40.90249297209084" lon="-4.014452006667852">
        <ele>1142.2829999999999</ele>
        <time>2021-07-10T08:39:04Z</time>
      </trkpt>
      <trkpt lat="40.902616018429399" lon="-4.014755012467504">
        <ele>1141.384</ele>
        <time>2021-07-10T08:39:06Z</time>
      </trkpt>
      <trkpt lat="40.9026850014925" lon="-4.014926003292203">
        <ele>1140.3900000000001</ele>
        <time>2021-07-10T08:39:07Z</time>
      </trkpt>
      <trkpt lat="40.902815004810691" lon="-4.015255998820067">
        <ele>1139.2919999999999</ele>
        <time>2021-07-10T08:39:09Z</time>
      </trkpt>
      <trkpt lat="40.902881976217031" lon="-4.015439981594682">
        <ele>1138.0350000000001</ele>
        <time>2021-07-10T08:39:10Z</time>
      </trkpt>
      <trkpt lat="40.902950037270784" lon="-4.0156289935112">
        <ele>1136.759</ele>
        <time>2021-07-10T08:39:11Z</time>
      </trkpt>
      <trkpt lat="40.903082974255085" lon="-4.016027972102165">
        <ele>1135.4179999999999</ele>
        <time>2021-07-10T08:39:13Z</time>
      </trkpt>
      <trkpt lat="40.903150029480457" lon="-4.016237016767263">
        <ele>1134.3630000000001</ele>
        <time>2021-07-10T08:39:14Z</time>
      </trkpt>
      <trkpt lat="40.903281960636377" lon="-4.016669020056725">
        <ele>1133.2439999999999</ele>
        <time>2021-07-10T08:39:16Z</time>
      </trkpt>
      <trkpt lat="40.903357984498143" lon="-4.016902036964893">
        <ele>1132.318</ele>
        <time>2021-07-10T08:39:17Z</time>
      </trkpt>
      <trkpt lat="40.903495028614998" lon="-4.017339991405606">
        <ele>1130.808</ele>
        <time>2021-07-10T08:39:19Z</time>
      </trkpt>
      <trkpt lat="40.903643975034356" lon="-4.017808958888054">
        <ele>1129.663</ele>
        <time>2021-07-10T08:39:21Z</time>
      </trkpt>
      <trkpt lat="40.903717987239361" lon="-4.018049016594887">
        <ele>1128.923</ele>
        <time>2021-07-10T08:39:22Z</time>
      </trkpt>
      <trkpt lat="40.903797028586268" lon="-4.018304999917746">
        <ele>1128.2639999999999</ele>
        <time>2021-07-10T08:39:23Z</time>
      </trkpt>
      <trkpt lat="40.903943963348866" lon="-4.018772961571813">
        <ele>1127.0799999999999</ele>
        <time>2021-07-10T08:39:25Z</time>
      </trkpt>
      <trkpt lat="40.904099028557539" lon="-4.019267996773124">
        <ele>1126.5119999999999</ele>
        <time>2021-07-10T08:39:27Z</time>
      </trkpt>
      <trkpt lat="40.904236994683743" lon="-4.019720032811165">
        <ele>1125.865</ele>
        <time>2021-07-10T08:39:29Z</time>
      </trkpt>
      <trkpt lat="40.90438099578023" lon="-4.020192017778754">
        <ele>1125.979</ele>
        <time>2021-07-10T08:39:31Z</time>
      </trkpt>
      <trkpt lat="40.90444402769208" lon="-4.020440960302949">
        <ele>1125.3679999999999</ele>
        <time>2021-07-10T08:39:32Z</time>
      </trkpt>
      <trkpt lat="40.90448803268373" lon="-4.020671965554357">
        <ele>1124.7449999999999</ele>
        <time>2021-07-10T08:39:33Z</time>
      </trkpt>
      <trkpt lat="40.904523991048336" lon="-4.021129030734301">
        <ele>1123.9469999999999</ele>
        <time>2021-07-10T08:39:35Z</time>
      </trkpt>
      <trkpt lat="40.904517034068704" lon="-4.02136598713696">
        <ele>1123.1110000000001</ele>
        <time>2021-07-10T08:39:36Z</time>
      </trkpt>
      <trkpt lat="40.904500018805265" lon="-4.021603027358651">
        <ele>1122.1079999999999</ele>
        <time>2021-07-10T08:39:37Z</time>
      </trkpt>
      <trkpt lat="40.904476968571544" lon="-4.021853981539607">
        <ele>1121.6310000000001</ele>
        <time>2021-07-10T08:39:38Z</time>
      </trkpt>
      <trkpt lat="40.904440004378557" lon="-4.022318003699184">
        <ele>1121.5709999999999</ele>
        <time>2021-07-10T08:39:40Z</time>
      </trkpt>
      <trkpt lat="40.904422989115119" lon="-4.022562000900507">
        <ele>1121.3219999999999</ele>
        <time>2021-07-10T08:39:41Z</time>
      </trkpt>
      <trkpt lat="40.904406979680061" lon="-4.022811027243733">
        <ele>1121.1279999999999</ele>
        <time>2021-07-10T08:39:42Z</time>
      </trkpt>
      <trkpt lat="40.904377978295088" lon="-4.023318970575929">
        <ele>1120.3499999999999</ele>
        <time>2021-07-10T08:39:44Z</time>
      </trkpt>
      <trkpt lat="40.90435903519392" lon="-4.023587023839355">
        <ele>1119.683</ele>
        <time>2021-07-10T08:39:45Z</time>
      </trkpt>
      <trkpt lat="40.90431896969676" lon="-4.02411499992013">
        <ele>1118.6969999999999</ele>
        <time>2021-07-10T08:39:47Z</time>
      </trkpt>
      <trkpt lat="40.904278988018632" lon="-4.024666026234627">
        <ele>1117.7260000000001</ele>
        <time>2021-07-10T08:39:49Z</time>
      </trkpt>
      <trkpt lat="40.904259039089084" lon="-4.024940030649304">
        <ele>1116.933</ele>
        <time>2021-07-10T08:39:50Z</time>
      </trkpt>
      <trkpt lat="40.904219979420304" lon="-4.025486027821899">
        <ele>1115.423</ele>
        <time>2021-07-10T08:39:52Z</time>
      </trkpt>
      <trkpt lat="40.904198018833995" lon="-4.025777969509363">
        <ele>1114.2149999999999</ele>
        <time>2021-07-10T08:39:53Z</time>
      </trkpt>
      <trkpt lat="40.904158959165215" lon="-4.026312986388803">
        <ele>1113.4079999999999</ele>
        <time>2021-07-10T08:39:55Z</time>
      </trkpt>
      <trkpt lat="40.904134986922145" lon="-4.026595959439874">
        <ele>1113.04</ele>
        <time>2021-07-10T08:39:56Z</time>
      </trkpt>
      <trkpt lat="40.904085030779243" lon="-4.02714597992599">
        <ele>1112.5599999999999</ele>
        <time>2021-07-10T08:39:58Z</time>
      </trkpt>
      <trkpt lat="40.90405804105103" lon="-4.027416966855526">
        <ele>1111.6310000000001</ele>
        <time>2021-07-10T08:39:59Z</time>
      </trkpt>
      <trkpt lat="40.904006995260715" lon="-4.027946032583714">
        <ele>1110.9469999999999</ele>
        <time>2021-07-10T08:40:01Z</time>
      </trkpt>
      <trkpt lat="40.903991991654038" lon="-4.028203021734953">
        <ele>1111.289</ele>
        <time>2021-07-10T08:40:02Z</time>
      </trkpt>
      <trkpt lat="40.903986962512136" lon="-4.028474008664489">
        <ele>1111.212</ele>
        <time>2021-07-10T08:40:03Z</time>
      </trkpt>
      <trkpt lat="40.903997020795941" lon="-4.028719011694193">
        <ele>1111.576</ele>
        <time>2021-07-10T08:40:04Z</time>
      </trkpt>
      <trkpt lat="40.904051000252366" lon="-4.029152020812035">
        <ele>1111.7650000000001</ele>
        <time>2021-07-10T08:40:06Z</time>
      </trkpt>
      <trkpt lat="40.904092993587255" lon="-4.029343966394663">
        <ele>1111.674</ele>
        <time>2021-07-10T08:40:07Z</time>
      </trkpt>
      <trkpt lat="40.90414697304368" lon="-4.029526021331549">
        <ele>1111.9559999999999</ele>
        <time>2021-07-10T08:40:08Z</time>
      </trkpt>
      <trkpt lat="40.904205981642008" lon="-4.029670022428036">
        <ele>1112.1210000000001</ele>
        <time>2021-07-10T08:40:09Z</time>
      </trkpt>
      <trkpt lat="40.904351994395256" lon="-4.029886024072766">
        <ele>1112.2080000000001</ele>
        <time>2021-07-10T08:40:11Z</time>
      </trkpt>
      <trkpt lat="40.904435981065035" lon="-4.029973028227687">
        <ele>1112.5239999999999</ele>
        <time>2021-07-10T08:40:12Z</time>
      </trkpt>
      <trkpt lat="40.904561039060354" lon="-4.030178971588612">
        <ele>1113.0340000000001</ele>
        <time>2021-07-10T08:40:14Z</time>
      </trkpt>
      <trkpt lat="40.904578976333141" lon="-4.030421962961555">
        <ele>1113.2550000000001</ele>
        <time>2021-07-10T08:40:16Z</time>
      </trkpt>
      <trkpt lat="40.904575958848" lon="-4.03056101873517">
        <ele>1113.451</ele>
        <time>2021-07-10T08:40:17Z</time>
      </trkpt>
      <trkpt lat="40.904582999646664" lon="-4.030707031488419">
        <ele>1113.2329999999999</ele>
        <time>2021-07-10T08:40:18Z</time>
      </trkpt>
      <trkpt lat="40.904642008244991" lon="-4.03101003728807">
        <ele>1113.376</ele>
        <time>2021-07-10T08:40:20Z</time>
      </trkpt>
      <trkpt lat="40.904734963551164" lon="-4.031339026987553">
        <ele>1113.8199999999999</ele>
        <time>2021-07-10T08:40:22Z</time>
      </trkpt>
      <trkpt lat="40.90479196049273" lon="-4.031511023640633">
        <ele>1114.3689999999999</ele>
        <time>2021-07-10T08:40:23Z</time>
      </trkpt>
      <trkpt lat="40.904912995174527" lon="-4.03187102638185">
        <ele>1115.443</ele>
        <time>2021-07-10T08:40:25Z</time>
      </trkpt>
      <trkpt lat="40.904978038743138" lon="-4.032060038298369">
        <ele>1116.2639999999999</ele>
        <time>2021-07-10T08:40:26Z</time>
      </trkpt>
      <trkpt lat="40.9051129873842" lon="-4.032449964433909">
        <ele>1117.4100000000001</ele>
        <time>2021-07-10T08:40:28Z</time>
      </trkpt>
      <trkpt lat="40.905185993760824" lon="-4.03266697190702">
        <ele>1118.7080000000001</ele>
        <time>2021-07-10T08:40:29Z</time>
      </trkpt>
      <trkpt lat="40.905323959887028" lon="-4.033067040145397">
        <ele>1119.8109999999999</ele>
        <time>2021-07-10T08:40:31Z</time>
      </trkpt>
      <trkpt lat="40.905398977920413" lon="-4.033279018476605">
        <ele>1120.8109999999999</ele>
        <time>2021-07-10T08:40:32Z</time>
      </trkpt>
      <trkpt lat="40.905471984297037" lon="-4.033489990979433">
        <ele>1121.5219999999999</ele>
        <time>2021-07-10T08:40:33Z</time>
      </trkpt>
      <trkpt lat="40.905550019815564" lon="-4.033711021766067">
        <ele>1122.4280000000001</ele>
        <time>2021-07-10T08:40:34Z</time>
      </trkpt>
      <trkpt lat="40.905689997598529" lon="-4.034117963165045">
        <ele>1123.3800000000001</ele>
        <time>2021-07-10T08:40:36Z</time>
      </trkpt>
      <trkpt lat="40.905830981209874" lon="-4.034537980332971">
        <ele>1124.453</ele>
        <time>2021-07-10T08:40:38Z</time>
      </trkpt>
      <trkpt lat="40.905905999243259" lon="-4.034755993634462">
        <ele>1125.2570000000001</ele>
        <time>2021-07-10T08:40:39Z</time>
      </trkpt>
      <trkpt lat="40.906037008389831" lon="-4.035148015245795">
        <ele>1125.9960000000001</ele>
        <time>2021-07-10T08:40:41Z</time>
      </trkpt>
      <trkpt lat="40.906105991452932" lon="-4.03535395860672">
        <ele>1126.2260000000001</ele>
        <time>2021-07-10T08:40:42Z</time>
      </trkpt>
      <trkpt lat="40.906247980892658" lon="-4.035780010744929">
        <ele>1126.547</ele>
        <time>2021-07-10T08:40:44Z</time>
      </trkpt>
      <trkpt lat="40.906315036118031" lon="-4.035990983247757">
        <ele>1126.3109999999999</ele>
        <time>2021-07-10T08:40:45Z</time>
      </trkpt>
      <trkpt lat="40.906449984759092" lon="-4.036414017900825">
        <ele>1126.508</ele>
        <time>2021-07-10T08:40:47Z</time>
      </trkpt>
      <trkpt lat="40.906599014997482" lon="-4.036868987604976">
        <ele>1126.8789999999999</ele>
        <time>2021-07-10T08:40:49Z</time>
      </trkpt>
      <trkpt lat="40.906760031357408" lon="-4.037348013371229">
        <ele>1127.1189999999999</ele>
        <time>2021-07-10T08:40:51Z</time>
      </trkpt>
      <trkpt lat="40.906924987211823" lon="-4.037835001945496">
        <ele>1127.52</ele>
        <time>2021-07-10T08:40:53Z</time>
      </trkpt>
      <trkpt lat="40.907014003023505" lon="-4.038105988875032">
        <ele>1127.6759999999999</ele>
        <time>2021-07-10T08:40:54Z</time>
      </trkpt>
      <trkpt lat="40.907184993848205" lon="-4.038591971620917">
        <ele>1127.838</ele>
        <time>2021-07-10T08:40:56Z</time>
      </trkpt>
      <trkpt lat="40.907273003831506" lon="-4.038845021277666">
        <ele>1127.931</ele>
        <time>2021-07-10T08:40:57Z</time>
      </trkpt>
      <trkpt lat="40.907448017969728" lon="-4.039349025115371">
        <ele>1128.075</ele>
        <time>2021-07-10T08:40:59Z</time>
      </trkpt>
      <trkpt lat="40.907620014622808" lon="-4.039829978719354">
        <ele>1128.2239999999999</ele>
        <time>2021-07-10T08:41:01Z</time>
      </trkpt>
      <trkpt lat="40.907788993790746" lon="-4.040306992828846">
        <ele>1128.0740000000001</ele>
        <time>2021-07-10T08:41:03Z</time>
      </trkpt>
      <trkpt lat="40.907868035137653" lon="-4.040549984201789">
        <ele>1127.556</ele>
        <time>2021-07-10T08:41:04Z</time>
      </trkpt>
      <trkpt lat="40.907942969352007" lon="-4.040793981403112">
        <ele>1127.421</ele>
        <time>2021-07-10T08:41:05Z</time>
      </trkpt>
      <trkpt lat="40.90801103040576" lon="-4.041040996089578">
        <ele>1127.508</ele>
        <time>2021-07-10T08:41:06Z</time>
      </trkpt>
      <trkpt lat="40.908066015690565" lon="-4.041288010776043">
        <ele>1127.644</ele>
        <time>2021-07-10T08:41:07Z</time>
      </trkpt>
      <trkpt lat="40.908142039552331" lon="-4.041786985471845">
        <ele>1127.4839999999999</ele>
        <time>2021-07-10T08:41:09Z</time>
      </trkpt>
      <trkpt lat="40.908177997916937" lon="-4.042056966573">
        <ele>1127.0250000000001</ele>
        <time>2021-07-10T08:41:10Z</time>
      </trkpt>
      <trkpt lat="40.908251004293561" lon="-4.042538003996015">
        <ele>1126.461</ele>
        <time>2021-07-10T08:41:12Z</time>
      </trkpt>
      <trkpt lat="40.908320993185043" lon="-4.043041002005339">
        <ele>1125.8330000000001</ele>
        <time>2021-07-10T08:41:14Z</time>
      </trkpt>
      <trkpt lat="40.908385030925274" lon="-4.043478034436703">
        <ele>1125.636</ele>
        <time>2021-07-10T08:41:16Z</time>
      </trkpt>
      <trkpt lat="40.908417971804738" lon="-4.04368800111115">
        <ele>1125.4400000000001</ele>
        <time>2021-07-10T08:41:17Z</time>
      </trkpt>
      <trkpt lat="40.908448984846473" lon="-4.043886987492442">
        <ele>1125.569</ele>
        <time>2021-07-10T08:41:18Z</time>
      </trkpt>
      <trkpt lat="40.908514028415084" lon="-4.04424799606204">
        <ele>1125.559</ele>
        <time>2021-07-10T08:41:20Z</time>
      </trkpt>
      <trkpt lat="40.908554010093212" lon="-4.044428039342165">
        <ele>1125.3030000000001</ele>
        <time>2021-07-10T08:41:21Z</time>
      </trkpt>
      <trkpt lat="40.908661969006062" lon="-4.044707994908094">
        <ele>1125.123</ele>
        <time>2021-07-10T08:41:23Z</time>
      </trkpt>
      <trkpt lat="40.908725000917912" lon="-4.044839004054666">
        <ele>1125.008</ele>
        <time>2021-07-10T08:41:24Z</time>
      </trkpt>
      <trkpt lat="40.908770011737943" lon="-4.04497898183763">
        <ele>1125.0719999999999</ele>
        <time>2021-07-10T08:41:25Z</time>
      </trkpt>
      <trkpt lat="40.908787027001381" lon="-4.045139998197556">
        <ele>1124.932</ele>
        <time>2021-07-10T08:41:26Z</time>
      </trkpt>
      <trkpt lat="40.908748973160982" lon="-4.045433029532433">
        <ele>1124.873</ele>
        <time>2021-07-10T08:41:28Z</time>
      </trkpt>
      <trkpt lat="40.908731035888195" lon="-4.04575003311038">
        <ele>1124.6990000000001</ele>
        <time>2021-07-10T08:41:30Z</time>
      </trkpt>
      <trkpt lat="40.90876498259604" lon="-4.046111041679978">
        <ele>1124.5909999999999</ele>
        <time>2021-07-10T08:41:32Z</time>
      </trkpt>
      <trkpt lat="40.908816028386354" lon="-4.046482024714351">
        <ele>1124.5440000000001</ele>
        <time>2021-07-10T08:41:34Z</time>
      </trkpt>
      <trkpt lat="40.908844023942947" lon="-4.046689979732037">
        <ele>1124.278</ele>
        <time>2021-07-10T08:41:35Z</time>
      </trkpt>
      <trkpt lat="40.908905966207385" lon="-4.04712600633502">
        <ele>1124.067</ele>
        <time>2021-07-10T08:41:37Z</time>
      </trkpt>
      <trkpt lat="40.908939996734262" lon="-4.047357011586428">
        <ele>1123.8209999999999</ele>
        <time>2021-07-10T08:41:38Z</time>
      </trkpt>
      <trkpt lat="40.909007973968983" lon="-4.047827990725637">
        <ele>1123.1410000000001</ele>
        <time>2021-07-10T08:41:40Z</time>
      </trkpt>
      <trkpt lat="40.90904301032424" lon="-4.048073999583721">
        <ele>1122.8050000000001</ele>
        <time>2021-07-10T08:41:41Z</time>
      </trkpt>
      <trkpt lat="40.909080980345607" lon="-4.048337023705244">
        <ele>1122.4079999999999</ele>
        <time>2021-07-10T08:41:42Z</time>
      </trkpt>
      <trkpt lat="40.909149963408709" lon="-4.048818983137608">
        <ele>1121.999</ele>
        <time>2021-07-10T08:41:44Z</time>
      </trkpt>
      <trkpt lat="40.909229004755616" lon="-4.049322986975312">
        <ele>1121.1389999999999</ele>
        <time>2021-07-10T08:41:46Z</time>
      </trkpt>
      <trkpt lat="40.909266974776983" lon="-4.049593973904848">
        <ele>1120.1199999999999</ele>
        <time>2021-07-10T08:41:47Z</time>
      </trkpt>
      <trkpt lat="40.909340986981988" lon="-4.05009001493454">
        <ele>1119.6659999999999</ele>
        <time>2021-07-10T08:41:49Z</time>
      </trkpt>
      <trkpt lat="40.909382980316877" lon="-4.050352033227682">
        <ele>1118.8579999999999</ele>
        <time>2021-07-10T08:41:50Z</time>
      </trkpt>
      <trkpt lat="40.909422961995006" lon="-4.050612039864063">
        <ele>1118.1110000000001</ele>
        <time>2021-07-10T08:41:51Z</time>
      </trkpt>
      <trkpt lat="40.909462021663785" lon="-4.05088797211647">
        <ele>1117.5350000000001</ele>
        <time>2021-07-10T08:41:52Z</time>
      </trkpt>
      <trkpt lat="40.90953997336328" lon="-4.051397005096078">
        <ele>1116.444</ele>
        <time>2021-07-10T08:41:54Z</time>
      </trkpt>
      <trkpt lat="40.909576015546918" lon="-4.051662040874362">
        <ele>1115.4570000000001</ele>
        <time>2021-07-10T08:41:55Z</time>
      </trkpt>
      <trkpt lat="40.909652039408684" lon="-4.052210971713066">
        <ele>1114.5999999999999</ele>
        <time>2021-07-10T08:41:57Z</time>
      </trkpt>
      <trkpt lat="40.909727979451418" lon="-4.052717993035913">
        <ele>1114.02</ele>
        <time>2021-07-10T08:41:59Z</time>
      </trkpt>
      <trkpt lat="40.909807020798326" lon="-4.053235994651914">
        <ele>1113.2080000000001</ele>
        <time>2021-07-10T08:42:01Z</time>
      </trkpt>
      <trkpt lat="40.909848008304834" lon="-4.053508993238211">
        <ele>1112.5519999999999</ele>
        <time>2021-07-10T08:42:02Z</time>
      </trkpt>
      <trkpt lat="40.909922020509839" lon="-4.053996987640858">
        <ele>1111.8320000000001</ele>
        <time>2021-07-10T08:42:04Z</time>
      </trkpt>
      <trkpt lat="40.909959990531206" lon="-4.054250959306955">
        <ele>1111.193</ele>
        <time>2021-07-10T08:42:05Z</time>
      </trkpt>
      <trkpt lat="40.910036014392972" lon="-4.054753035306931">
        <ele>1110.1389999999999</ele>
        <time>2021-07-10T08:42:07Z</time>
      </trkpt>
      <trkpt lat="40.910073984414339" lon="-4.055002983659506">
        <ele>1109.1110000000001</ele>
        <time>2021-07-10T08:42:08Z</time>
      </trkpt>
      <trkpt lat="40.910141039639711" lon="-4.055490978062153">
        <ele>1108.5740000000001</ele>
        <time>2021-07-10T08:42:10Z</time>
      </trkpt>
      <trkpt lat="40.910175992175937" lon="-4.055736986920238">
        <ele>1107.6780000000001</ele>
        <time>2021-07-10T08:42:11Z</time>
      </trkpt>
      <trkpt lat="40.9102469868958" lon="-4.056232022121549">
        <ele>1106.9670000000001</ele>
        <time>2021-07-10T08:42:13Z</time>
      </trkpt>
      <trkpt lat="40.910305995494127" lon="-4.056677017360926">
        <ele>1106.3920000000001</ele>
        <time>2021-07-10T08:42:15Z</time>
      </trkpt>
      <trkpt lat="40.910337008535862" lon="-4.056900981813669">
        <ele>1105.973</ele>
        <time>2021-07-10T08:42:16Z</time>
      </trkpt>
      <trkpt lat="40.910370033234358" lon="-4.057118995115161">
        <ele>1105.4200000000001</ele>
        <time>2021-07-10T08:42:17Z</time>
      </trkpt>
      <trkpt lat="40.910404985770583" lon="-4.057342959567905">
        <ele>1104.9079999999999</ele>
        <time>2021-07-10T08:42:18Z</time>
      </trkpt>
      <trkpt lat="40.910465000197291" lon="-4.05771897174418">
        <ele>1104.4960000000001</ele>
        <time>2021-07-10T08:42:20Z</time>
      </trkpt>
      <trkpt lat="40.910521997138858" lon="-4.058055002242327">
        <ele>1104.2360000000001</ele>
        <time>2021-07-10T08:42:22Z</time>
      </trkpt>
      <trkpt lat="40.910559967160225" lon="-4.058200009167194">
        <ele>1104.057</ele>
        <time>2021-07-10T08:42:23Z</time>
      </trkpt>
      <trkpt lat="40.910658035427332" lon="-4.058406036347151">
        <ele>1103.5930000000001</ele>
        <time>2021-07-10T08:42:25Z</time>
      </trkpt>
      <trkpt lat="40.910729030147195" lon="-4.058494968339801">
        <ele>1103.115</ele>
        <time>2021-07-10T08:42:26Z</time>
      </trkpt>
      <trkpt lat="40.910799019038677" lon="-4.058585995808244">
        <ele>1102.558</ele>
        <time>2021-07-10T08:42:27Z</time>
      </trkpt>
      <trkpt lat="40.910852998495102" lon="-4.058693032711744">
        <ele>1102.5119999999999</ele>
        <time>2021-07-10T08:42:28Z</time>
      </trkpt>
      <trkpt lat="40.910865990445018" lon="-4.05892102047801">
        <ele>1102.6110000000001</ele>
        <time>2021-07-10T08:42:30Z</time>
      </trkpt>
      <trkpt lat="40.910831959918141" lon="-4.059031996876001">
        <ele>1102.7650000000001</ele>
        <time>2021-07-10T08:42:31Z</time>
      </trkpt>
      <trkpt lat="40.910761971026659" lon="-4.059266019612551">
        <ele>1102.8679999999999</ele>
        <time>2021-07-10T08:42:33Z</time>
      </trkpt>
      <trkpt lat="40.910745961591601" lon="-4.059508005157113">
        <ele>1103.114</ele>
        <time>2021-07-10T08:42:35Z</time>
      </trkpt>
      <trkpt lat="40.91076297685504" lon="-4.059640020132065">
        <ele>1103.008</ele>
        <time>2021-07-10T08:42:36Z</time>
      </trkpt>
      <trkpt lat="40.910788960754871" lon="-4.059776980429888">
        <ele>1102.7529999999999</ele>
        <time>2021-07-10T08:42:37Z</time>
      </trkpt>
      <trkpt lat="40.910817962139845" lon="-4.059928022325039">
        <ele>1102.7529999999999</ele>
        <time>2021-07-10T08:42:38Z</time>
      </trkpt>
      <trkpt lat="40.910889962688088" lon="-4.060228010639548">
        <ele>1102.7639999999999</ele>
        <time>2021-07-10T08:42:40Z</time>
      </trkpt>
      <trkpt lat="40.910987025126815" lon="-4.060548031702638">
        <ele>1103.25</ele>
        <time>2021-07-10T08:42:42Z</time>
      </trkpt>
      <trkpt lat="40.911048967391253" lon="-4.060718016698957">
        <ele>1103.472</ele>
        <time>2021-07-10T08:42:43Z</time>
      </trkpt>
      <trkpt lat="40.911195985972881" lon="-4.061062010005117">
        <ele>1103.085</ele>
        <time>2021-07-10T08:42:45Z</time>
      </trkpt>
      <trkpt lat="40.911376029253006" lon="-4.06141497194767">
        <ele>1102.1590000000001</ele>
        <time>2021-07-10T08:42:47Z</time>
      </trkpt>
      <trkpt lat="40.911478959023952" lon="-4.061589986085892">
        <ele>1101.7380000000001</ele>
        <time>2021-07-10T08:42:48Z</time>
      </trkpt>
      <trkpt lat="40.911699989810586" lon="-4.061940014362335">
        <ele>1101.893</ele>
        <time>2021-07-10T08:42:50Z</time>
      </trkpt>
      <trkpt lat="40.91181599535048" lon="-4.062118967995048">
        <ele>1101.865</ele>
        <time>2021-07-10T08:42:51Z</time>
      </trkpt>
      <trkpt lat="40.912054963409901" lon="-4.062482994049788">
        <ele>1101.421</ele>
        <time>2021-07-10T08:42:53Z</time>
      </trkpt>
      <trkpt lat="40.912183960899711" lon="-4.06268198043108">
        <ele>1100.808</ele>
        <time>2021-07-10T08:42:54Z</time>
      </trkpt>
      <trkpt lat="40.912416977807879" lon="-4.06304600648582">
        <ele>1100.7560000000001</ele>
        <time>2021-07-10T08:42:56Z</time>
      </trkpt>
      <trkpt lat="40.912537006661296" lon="-4.063237030059099">
        <ele>1100.6659999999999</ele>
        <time>2021-07-10T08:42:57Z</time>
      </trkpt>
      <trkpt lat="40.912658041343093" lon="-4.063427969813347">
        <ele>1100.597</ele>
        <time>2021-07-10T08:42:58Z</time>
      </trkpt>
      <trkpt lat="40.912784021347761" lon="-4.06362502835691">
        <ele>1100.5429999999999</ele>
        <time>2021-07-10T08:42:59Z</time>
      </trkpt>
      <trkpt lat="40.913011003285646" lon="-4.063983019441366">
        <ele>1100.375</ele>
        <time>2021-07-10T08:43:01Z</time>
      </trkpt>
      <trkpt lat="40.913127008825541" lon="-4.064168008044362">
        <ele>1100.278</ele>
        <time>2021-07-10T08:43:02Z</time>
      </trkpt>
      <trkpt lat="40.913241002708673" lon="-4.064349979162216">
        <ele>1100.3820000000001</ele>
        <time>2021-07-10T08:43:03Z</time>
      </trkpt>
      <trkpt lat="40.913471002131701" lon="-4.064708976075053">
        <ele>1099.3209999999999</ele>
        <time>2021-07-10T08:43:05Z</time>
      </trkpt>
      <trkpt lat="40.91366495937109" lon="-4.065009970217943">
        <ele>1098.0909999999999</ele>
        <time>2021-07-10T08:43:07Z</time>
      </trkpt>
      <trkpt lat="40.913751041516662" lon="-4.065142991021276">
        <ele>1097.181</ele>
        <time>2021-07-10T08:43:08Z</time>
      </trkpt>
      <trkpt lat="40.913836034014821" lon="-4.065265031531453">
        <ele>1096.7190000000001</ele>
        <time>2021-07-10T08:43:09Z</time>
      </trkpt>
      <trkpt lat="40.914004007354379" lon="-4.065419007092714">
        <ele>1096.2080000000001</ele>
        <time>2021-07-10T08:43:11Z</time>
      </trkpt>
      <trkpt lat="40.914196958765388" lon="-4.065507017076016">
        <ele>1095.586</ele>
        <time>2021-07-10T08:43:13Z</time>
      </trkpt>
      <trkpt lat="40.914299972355366" lon="-4.065554039552808">
        <ele>1095.2860000000001</ele>
        <time>2021-07-10T08:43:14Z</time>
      </trkpt>
      <trkpt lat="40.914430981501937" lon="-4.065741039812565">
        <ele>1094.4469999999999</ele>
        <time>2021-07-10T08:43:16Z</time>
      </trkpt>
      <trkpt lat="40.914457971230149" lon="-4.065998028963804">
        <ele>1093.713</ele>
        <time>2021-07-10T08:43:18Z</time>
      </trkpt>
      <trkpt lat="40.914470041170716" lon="-4.066130965948105">
        <ele>1093.4849999999999</ele>
        <time>2021-07-10T08:43:19Z</time>
      </trkpt>
      <trkpt lat="40.914551010355353" lon="-4.066385021433234">
        <ele>1092.9780000000001</ele>
        <time>2021-07-10T08:43:21Z</time>
      </trkpt>
      <trkpt lat="40.914704985916615" lon="-4.066647961735725">
        <ele>1092.152</ele>
        <time>2021-07-10T08:43:23Z</time>
      </trkpt>
      <trkpt lat="40.914891986176372" lon="-4.066944010555744">
        <ele>1091.951</ele>
        <time>2021-07-10T08:43:25Z</time>
      </trkpt>
      <trkpt lat="40.914992988109589" lon="-4.067105026915669">
        <ele>1091.6320000000001</ele>
        <time>2021-07-10T08:43:26Z</time>
      </trkpt>
      <trkpt lat="40.915200021117926" lon="-4.067432004958391">
        <ele>1091.2919999999999</ele>
        <time>2021-07-10T08:43:28Z</time>
      </trkpt>
      <trkpt lat="40.915308985859156" lon="-4.06760198995471">
        <ele>1091.011</ele>
        <time>2021-07-10T08:43:29Z</time>
      </trkpt>
      <trkpt lat="40.915497997775674" lon="-4.067886974662542">
        <ele>1090.808</ele>
        <time>2021-07-10T08:43:31Z</time>
      </trkpt>
      <trkpt lat="40.915677035227418" lon="-4.068109011277556">
        <ele>1090.8299999999999</ele>
        <time>2021-07-10T08:43:33Z</time>
      </trkpt>
      <trkpt lat="40.915773008018732" lon="-4.068176988512278">
        <ele>1091.0899999999999</ele>
        <time>2021-07-10T08:43:34Z</time>
      </trkpt>
      <trkpt lat="40.91587602160871" lon="-4.068219987675548">
        <ele>1090.6510000000001</ele>
        <time>2021-07-10T08:43:35Z</time>
      </trkpt>
      <trkpt lat="40.916066039353609" lon="-4.068255024030805">
        <ele>1090.7170000000001</ele>
        <time>2021-07-10T08:43:37Z</time>
      </trkpt>
      <trkpt lat="40.916158994659781" lon="-4.068298023194075">
        <ele>1091.079</ele>
        <time>2021-07-10T08:43:38Z</time>
      </trkpt>
      <trkpt lat="40.916267959401011" lon="-4.068473037332296">
        <ele>1091.0319999999999</ele>
        <time>2021-07-10T08:43:40Z</time>
      </trkpt>
      <trkpt lat="40.916282963007689" lon="-4.068598011508584">
        <ele>1090.9860000000001</ele>
        <time>2021-07-10T08:43:41Z</time>
      </trkpt>
      <trkpt lat="40.916280029341578" lon="-4.06884603202343">
        <ele>1090.9449999999999</ele>
        <time>2021-07-10T08:43:43Z</time>
      </trkpt>
      <trkpt lat="40.916294027119875" lon="-4.068979974836111">
        <ele>1090.7360000000001</ele>
        <time>2021-07-10T08:43:44Z</time>
      </trkpt>
      <trkpt lat="40.916326967999339" lon="-4.069115007296205">
        <ele>1090.7170000000001</ele>
        <time>2021-07-10T08:43:45Z</time>
      </trkpt>
      <trkpt lat="40.916384970769286" lon="-4.069250039756298">
        <ele>1090.6179999999999</ele>
        <time>2021-07-10T08:43:46Z</time>
      </trkpt>
      <trkpt lat="40.916536012664437" lon="-4.069517003372312">
        <ele>1090.6079999999999</ele>
        <time>2021-07-10T08:43:48Z</time>
      </trkpt>
      <trkpt lat="40.916723012924194" lon="-4.069801988080144">
        <ele>1090.77</ele>
        <time>2021-07-10T08:43:50Z</time>
      </trkpt>
      <trkpt lat="40.91682200320065" lon="-4.069957975298166">
        <ele>1090.8299999999999</ele>
        <time>2021-07-10T08:43:51Z</time>
      </trkpt>
      <trkpt lat="40.917029036208987" lon="-4.07028503715992">
        <ele>1090.5509999999999</ele>
        <time>2021-07-10T08:43:53Z</time>
      </trkpt>
      <trkpt lat="40.91714202426374" lon="-4.070462984964252">
        <ele>1090.067</ele>
        <time>2021-07-10T08:43:54Z</time>
      </trkpt>
      <trkpt lat="40.917258029803634" lon="-4.070645961910486">
        <ele>1089.769</ele>
        <time>2021-07-10T08:43:55Z</time>
      </trkpt>
      <trkpt lat="40.917384009808302" lon="-4.07084796577692">
        <ele>1089.252</ele>
        <time>2021-07-10T08:43:56Z</time>
      </trkpt>
      <trkpt lat="40.917620966210961" lon="-4.071225989609957">
        <ele>1088.616</ele>
        <time>2021-07-10T08:43:58Z</time>
      </trkpt>
      <trkpt lat="40.917876027524471" lon="-4.071636032313108">
        <ele>1088.2349999999999</ele>
        <time>2021-07-10T08:44:00Z</time>
      </trkpt>
      <trkpt lat="40.918008964508772" lon="-4.071844993159175">
        <ele>1087.9469999999999</ele>
        <time>2021-07-10T08:44:01Z</time>
      </trkpt>
      <trkpt lat="40.918150031939149" lon="-4.072067029774189">
        <ele>1087.729</ele>
        <time>2021-07-10T08:44:02Z</time>
      </trkpt>
      <trkpt lat="40.918407021090388" lon="-4.07247799448669">
        <ele>1087.1210000000001</ele>
        <time>2021-07-10T08:44:04Z</time>
      </trkpt>
      <trkpt lat="40.91854196973145" lon="-4.07269299030304">
        <ele>1086.308</ele>
        <time>2021-07-10T08:44:05Z</time>
      </trkpt>
      <trkpt lat="40.918685970827937" lon="-4.072923995554447">
        <ele>1086.0309999999999</ele>
        <time>2021-07-10T08:44:06Z</time>
      </trkpt>
      <trkpt lat="40.918954024091363" lon="-4.073353987187147">
        <ele>1085.5309999999999</ele>
        <time>2021-07-10T08:44:08Z</time>
      </trkpt>
      <trkpt lat="40.919228028506041" lon="-4.073778027668595">
        <ele>1085.252</ele>
        <time>2021-07-10T08:44:10Z</time>
      </trkpt>
      <trkpt lat="40.919369012117386" lon="-4.074006015434861">
        <ele>1084.838</ele>
        <time>2021-07-10T08:44:11Z</time>
      </trkpt>
      <trkpt lat="40.919509995728731" lon="-4.074232997372747">
        <ele>1084.04</ele>
        <time>2021-07-10T08:44:12Z</time>
      </trkpt>
      <trkpt lat="40.919776037335396" lon="-4.074658965691924">
        <ele>1083.2929999999999</ele>
        <time>2021-07-10T08:44:14Z</time>
      </trkpt>
      <trkpt lat="40.919916015118361" lon="-4.074878990650177">
        <ele>1082.367</ele>
        <time>2021-07-10T08:44:15Z</time>
      </trkpt>
      <trkpt lat="40.920053981244564" lon="-4.075097003951669">
        <ele>1081.7860000000001</ele>
        <time>2021-07-10T08:44:16Z</time>
      </trkpt>
      <trkpt lat="40.920199993997812" lon="-4.075329015031457">
        <ele>1081.5250000000001</ele>
        <time>2021-07-10T08:44:17Z</time>
      </trkpt>
      <trkpt lat="40.920463018119335" lon="-4.075746014714241">
        <ele>1081.326</ele>
        <time>2021-07-10T08:44:19Z</time>
      </trkpt>
      <trkpt lat="40.920736016705632" lon="-4.076190004125238">
        <ele>1080.4079999999999</ele>
        <time>2021-07-10T08:44:21Z</time>
      </trkpt>
      <trkpt lat="40.920879011973739" lon="-4.076420003548265">
        <ele>1079.808</ele>
        <time>2021-07-10T08:44:22Z</time>
      </trkpt>
      <trkpt lat="40.92114295810461" lon="-4.076832979917526">
        <ele>1079.289</ele>
        <time>2021-07-10T08:44:24Z</time>
      </trkpt>
      <trkpt lat="40.921278996393085" lon="-4.077045964077115">
        <ele>1078.819</ele>
        <time>2021-07-10T08:44:25Z</time>
      </trkpt>
      <trkpt lat="40.921411011368036" lon="-4.077260959893465">
        <ele>1078.48</ele>
        <time>2021-07-10T08:44:26Z</time>
      </trkpt>
      <trkpt lat="40.921674035489559" lon="-4.077672008424997">
        <ele>1077.9760000000001</ele>
        <time>2021-07-10T08:44:28Z</time>
      </trkpt>
      <trkpt lat="40.921804960817099" lon="-4.077876023948193">
        <ele>1077.328</ele>
        <time>2021-07-10T08:44:29Z</time>
      </trkpt>
      <trkpt lat="40.92206496745348" lon="-4.07827902585268">
        <ele>1076.171</ele>
        <time>2021-07-10T08:44:31Z</time>
      </trkpt>
      <trkpt lat="40.922196982428432" lon="-4.078484969213605">
        <ele>1075.395</ele>
        <time>2021-07-10T08:44:32Z</time>
      </trkpt>
      <trkpt lat="40.922413989901543" lon="-4.078825023025274">
        <ele>1073.874</ele>
        <time>2021-07-10T08:44:34Z</time>
      </trkpt>
      <trkpt lat="40.922626974061131" lon="-4.079156024381518">
        <ele>1072.663</ele>
        <time>2021-07-10T08:44:36Z</time>
      </trkpt>
      <trkpt lat="40.922735016793013" lon="-4.079319974407554">
        <ele>1071.944</ele>
        <time>2021-07-10T08:44:37Z</time>
      </trkpt>
      <trkpt lat="40.92283995822072" lon="-4.079448971897364">
        <ele>1071.9179999999999</ele>
        <time>2021-07-10T08:44:38Z</time>
      </trkpt>
      <trkpt lat="40.923045985400677" lon="-4.079636977985501">
        <ele>1071.4079999999999</ele>
        <time>2021-07-10T08:44:40Z</time>
      </trkpt>
      <trkpt lat="40.923140030354261" lon="-4.07972096465528">
        <ele>1070.7629999999999</ele>
        <time>2021-07-10T08:44:41Z</time>
      </trkpt>
      <trkpt lat="40.923225022852421" lon="-4.079818027094007">
        <ele>1070.713</ele>
        <time>2021-07-10T08:44:42Z</time>
      </trkpt>
      <trkpt lat="40.923334993422031" lon="-4.080056995153427">
        <ele>1070.2139999999999</ele>
        <time>2021-07-10T08:44:44Z</time>
      </trkpt>
      <trkpt lat="40.92341898009181" lon="-4.080336028710008">
        <ele>1069.8900000000001</ele>
        <time>2021-07-10T08:44:46Z</time>
      </trkpt>
      <trkpt lat="40.923483017832041" lon="-4.080478018149734">
        <ele>1069.492</ele>
        <time>2021-07-10T08:44:47Z</time>
      </trkpt>
      <trkpt lat="40.923631964251399" lon="-4.080744981765747">
        <ele>1068.835</ele>
        <time>2021-07-10T08:44:49Z</time>
      </trkpt>
      <trkpt lat="40.923722991719842" lon="-4.080894012004137">
        <ele>1068.579</ele>
        <time>2021-07-10T08:44:50Z</time>
      </trkpt>
      <trkpt lat="40.923923989757895" lon="-4.081209003925324">
        <ele>1068.288</ele>
        <time>2021-07-10T08:44:52Z</time>
      </trkpt>
      <trkpt lat="40.924032032489777" lon="-4.08137496560812">
        <ele>1068.2719999999999</ele>
        <time>2021-07-10T08:44:53Z</time>
      </trkpt>
      <trkpt lat="40.924258008599281" lon="-4.081719964742661">
        <ele>1067.6130000000001</ele>
        <time>2021-07-10T08:44:55Z</time>
      </trkpt>
      <trkpt lat="40.924375019967556" lon="-4.081901013851166">
        <ele>1067.3140000000001</ele>
        <time>2021-07-10T08:44:56Z</time>
      </trkpt>
      <trkpt lat="40.924495970830321" lon="-4.082083990797401">
        <ele>1067.308</ele>
        <time>2021-07-10T08:44:57Z</time>
      </trkpt>
      <trkpt lat="40.924626979976892" lon="-4.082281971350312">
        <ele>1067.354</ele>
        <time>2021-07-10T08:44:58Z</time>
      </trkpt>
      <trkpt lat="40.924867037683725" lon="-4.082644991576672">
        <ele>1067.394</ele>
        <time>2021-07-10T08:45:00Z</time>
      </trkpt>
      <trkpt lat="40.925112962722778" lon="-4.08302896656096">
        <ele>1067.7850000000001</ele>
        <time>2021-07-10T08:45:02Z</time>
      </trkpt>
      <trkpt lat="40.925356959924102" lon="-4.083412019535899">
        <ele>1068.3209999999999</ele>
        <time>2021-07-10T08:45:04Z</time>
      </trkpt>
      <trkpt lat="40.925475982949138" lon="-4.083601031452417">
        <ele>1068.7729999999999</ele>
        <time>2021-07-10T08:45:05Z</time>
      </trkpt>
      <trkpt lat="40.925594000145793" lon="-4.083789959549904">
        <ele>1069.1859999999999</ele>
        <time>2021-07-10T08:45:06Z</time>
      </trkpt>
      <trkpt lat="40.925830034539104" lon="-4.084151973947883">
        <ele>1069.6600000000001</ele>
        <time>2021-07-10T08:45:08Z</time>
      </trkpt>
      <trkpt lat="40.925946962088346" lon="-4.084330005571246">
        <ele>1069.829</ele>
        <time>2021-07-10T08:45:09Z</time>
      </trkpt>
      <trkpt lat="40.926168998703361" lon="-4.084678022190929">
        <ele>1069.932</ele>
        <time>2021-07-10T08:45:11Z</time>
      </trkpt>
      <trkpt lat="40.926279975101352" lon="-4.084850018844008">
        <ele>1069.5920000000001</ele>
        <time>2021-07-10T08:45:12Z</time>
      </trkpt>
      <trkpt lat="40.926498994231224" lon="-4.085184959694743">
        <ele>1069.711</ele>
        <time>2021-07-10T08:45:14Z</time>
      </trkpt>
      <trkpt lat="40.926712984219193" lon="-4.085451001301408">
        <ele>1069.9079999999999</ele>
        <time>2021-07-10T08:45:16Z</time>
      </trkpt>
      <trkpt lat="40.926832007244229" lon="-4.085571030154824">
        <ele>1069.71</ele>
        <time>2021-07-10T08:45:17Z</time>
      </trkpt>
      <trkpt lat="40.927050020545721" lon="-4.08579801209271">
        <ele>1070.6199999999999</ele>
        <time>2021-07-10T08:45:19Z</time>
      </trkpt>
      <trkpt lat="40.927139958366752" lon="-4.085915023460984">
        <ele>1071.491</ele>
        <time>2021-07-10T08:45:20Z</time>
      </trkpt>
      <trkpt lat="40.927266022190452" lon="-4.086084002628923">
        <ele>1072.3869999999999</ele>
        <time>2021-07-10T08:45:22Z</time>
      </trkpt>
      <trkpt lat="40.927408011630177" lon="-4.086160026490688">
        <ele>1072.3689999999999</ele>
        <time>2021-07-10T08:45:24Z</time>
      </trkpt>
      <trkpt lat="40.927495015785098" lon="-4.086192967370153">
        <ele>1072.2919999999999</ele>
        <time>2021-07-10T08:45:25Z</time>
      </trkpt>
      <trkpt lat="40.92765100300312" lon="-4.086319031193852">
        <ele>1071.826</ele>
        <time>2021-07-10T08:45:27Z</time>
      </trkpt>
      <trkpt lat="40.927720991894603" lon="-4.086419027298689">
        <ele>1071.5150000000001</ele>
        <time>2021-07-10T08:45:28Z</time>
      </trkpt>
      <trkpt lat="40.92778000049293" lon="-4.086538972333074">
        <ele>1071.154</ele>
        <time>2021-07-10T08:45:29Z</time>
      </trkpt>
      <trkpt lat="40.927869016304612" lon="-4.08680995926261">
        <ele>1070.556</ele>
        <time>2021-07-10T08:45:31Z</time>
      </trkpt>
      <trkpt lat="40.927906986325979" lon="-4.087086981162429">
        <ele>1070.011</ele>
        <time>2021-07-10T08:45:33Z</time>
      </trkpt>
      <trkpt lat="40.927893994376063" lon="-4.087225031107664">
        <ele>1070.008</ele>
        <time>2021-07-10T08:45:34Z</time>
      </trkpt>
      <trkpt lat="40.927870022132993" lon="-4.087360985577107">
        <ele>1070.752</ele>
        <time>2021-07-10T08:45:35Z</time>
      </trkpt>
      <trkpt lat="40.927872033789754" lon="-4.087590985000134">
        <ele>1071.1320000000001</ele>
        <time>2021-07-10T08:45:37Z</time>
      </trkpt>
      <trkpt lat="40.927978986874223" lon="-4.087787037715316">
        <ele>1071.7929999999999</ele>
        <time>2021-07-10T08:45:39Z</time>
      </trkpt>
      <trkpt lat="40.928051993250847" lon="-4.087874041870236">
        <ele>1072.489</ele>
        <time>2021-07-10T08:45:40Z</time>
      </trkpt>
      <trkpt lat="40.928207980468869" lon="-4.088059030473232">
        <ele>1073.221</ele>
        <time>2021-07-10T08:45:42Z</time>
      </trkpt>
      <trkpt lat="40.928374025970697" lon="-4.088251981884241">
        <ele>1074.0239999999999</ele>
        <time>2021-07-10T08:45:44Z</time>
      </trkpt>
      <trkpt lat="40.928539987653494" lon="-4.088459014892578">
        <ele>1074.6880000000001</ele>
        <time>2021-07-10T08:45:46Z</time>
      </trkpt>
      <trkpt lat="40.928620034828782" lon="-4.088567979633808">
        <ele>1074.4670000000001</ele>
        <time>2021-07-10T08:45:47Z</time>
      </trkpt>
      <trkpt lat="40.92876898124814" lon="-4.088777024298906">
        <ele>1074.998</ele>
        <time>2021-07-10T08:45:49Z</time>
      </trkpt>
      <trkpt lat="40.928841987624764" lon="-4.088874002918601">
        <ele>1075.3150000000001</ele>
        <time>2021-07-10T08:45:50Z</time>
      </trkpt>
      <trkpt lat="40.928994035348296" lon="-4.089054968208075">
        <ele>1075.2260000000001</ele>
        <time>2021-07-10T08:45:52Z</time>
      </trkpt>
      <trkpt lat="40.929158991202712" lon="-4.089220007881522">
        <ele>1075.308</ele>
        <time>2021-07-10T08:45:54Z</time>
      </trkpt>
      <trkpt lat="40.929236020892859" lon="-4.089318998157978">
        <ele>1075.4459999999999</ele>
        <time>2021-07-10T08:45:55Z</time>
      </trkpt>
      <trkpt lat="40.929302992299199" lon="-4.089442966505885">
        <ele>1075.126</ele>
        <time>2021-07-10T08:45:56Z</time>
      </trkpt>
      <trkpt lat="40.9293910022825" lon="-4.089692998677492">
        <ele>1075.057</ele>
        <time>2021-07-10T08:45:58Z</time>
      </trkpt>
      <trkpt lat="40.929502984508872" lon="-4.089944958686829">
        <ele>1075.443</ele>
        <time>2021-07-10T08:46:00Z</time>
      </trkpt>
      <trkpt lat="40.929576996713877" lon="-4.090059958398342">
        <ele>1075.5450000000001</ele>
        <time>2021-07-10T08:46:01Z</time>
      </trkpt>
      <trkpt lat="40.929653020575643" lon="-4.090176969766617">
        <ele>1076.1679999999999</ele>
        <time>2021-07-10T08:46:02Z</time>
      </trkpt>
      <trkpt lat="40.929732983931899" lon="-4.090300016105175">
        <ele>1076.3720000000001</ele>
        <time>2021-07-10T08:46:03Z</time>
      </trkpt>
      <trkpt lat="40.929902968928218" lon="-4.090572008863092">
        <ele>1076.771</ele>
        <time>2021-07-10T08:46:05Z</time>
      </trkpt>
      <trkpt lat="40.92999299056828" lon="-4.090712992474437">
        <ele>1076.769</ele>
        <time>2021-07-10T08:46:06Z</time>
      </trkpt>
      <trkpt lat="40.930174039676785" lon="-4.09099898301065">
        <ele>1076.704</ele>
        <time>2021-07-10T08:46:08Z</time>
      </trkpt>
      <trkpt lat="40.930375037714839" lon="-4.091310035437346">
        <ele>1077.2239999999999</ele>
        <time>2021-07-10T08:46:10Z</time>
      </trkpt>
      <trkpt lat="40.930470004677773" lon="-4.091456970199943">
        <ele>1077.1079999999999</ele>
        <time>2021-07-10T08:46:11Z</time>
      </trkpt>
      <trkpt lat="40.930649964138865" lon="-4.091734997928143">
        <ele>1077.4929999999999</ele>
        <time>2021-07-10T08:46:13Z</time>
      </trkpt>
      <trkpt lat="40.930833024904132" lon="-4.092017970979214">
        <ele>1077.2729999999999</ele>
        <time>2021-07-10T08:46:15Z</time>
      </trkpt>
      <trkpt lat="40.930922040715814" lon="-4.092159038409591">
        <ele>1077.364</ele>
        <time>2021-07-10T08:46:16Z</time>
      </trkpt>
      <trkpt lat="40.931008961051702" lon="-4.092301027849317">
        <ele>1077.49</ele>
        <time>2021-07-10T08:46:17Z</time>
      </trkpt>
      <trkpt lat="40.931187998503447" lon="-4.092577965930104">
        <ele>1077.462</ele>
        <time>2021-07-10T08:46:19Z</time>
      </trkpt>
      <trkpt lat="40.931278020143509" lon="-4.092719033360481">
        <ele>1077.835</ele>
        <time>2021-07-10T08:46:20Z</time>
      </trkpt>
      <trkpt lat="40.931367035955191" lon="-4.092861022800207">
        <ele>1078.3589999999999</ele>
        <time>2021-07-10T08:46:21Z</time>
      </trkpt>
      <trkpt lat="40.93153802677989" lon="-4.093140978366137">
        <ele>1078.6980000000001</ele>
        <time>2021-07-10T08:46:23Z</time>
      </trkpt>
      <trkpt lat="40.93171002343297" lon="-4.093415988609195">
        <ele>1078.8130000000001</ele>
        <time>2021-07-10T08:46:25Z</time>
      </trkpt>
      <trkpt lat="40.931802978739142" lon="-4.093562001362443">
        <ele>1079.3430000000001</ele>
        <time>2021-07-10T08:46:26Z</time>
      </trkpt>
      <trkpt lat="40.93196801841259" lon="-4.093832988291979">
        <ele>1079.607</ele>
        <time>2021-07-10T08:46:28Z</time>
      </trkpt>
      <trkpt lat="40.932052005082369" lon="-4.093971038237214">
        <ele>1079.9079999999999</ele>
        <time>2021-07-10T08:46:29Z</time>
      </trkpt>
      <trkpt lat="40.932220984250307" lon="-4.094248982146382">
        <ele>1080.018</ele>
        <time>2021-07-10T08:46:31Z</time>
      </trkpt>
      <trkpt lat="40.932300025597215" lon="-4.094377979636192">
        <ele>1080.1579999999999</ele>
        <time>2021-07-10T08:46:32Z</time>
      </trkpt>
      <trkpt lat="40.932455006986856" lon="-4.094620971009135">
        <ele>1080.029</ele>
        <time>2021-07-10T08:46:34Z</time>
      </trkpt>
      <trkpt lat="40.93261300586164" lon="-4.094868991523981">
        <ele>1080.4749999999999</ele>
        <time>2021-07-10T08:46:36Z</time>
      </trkpt>
      <trkpt lat="40.932694980874658" lon="-4.094997989013791">
        <ele>1080.787</ele>
        <time>2021-07-10T08:46:37Z</time>
      </trkpt>
      <trkpt lat="40.932849040254951" lon="-4.095240980386734">
        <ele>1080.72</ele>
        <time>2021-07-10T08:46:39Z</time>
      </trkpt>
      <trkpt lat="40.93293696641922" lon="-4.095367966219783">
        <ele>1080.164</ele>
        <time>2021-07-10T08:46:40Z</time>
      </trkpt>
      <trkpt lat="40.933034028857946" lon="-4.095499981194735">
        <ele>1080.3530000000001</ele>
        <time>2021-07-10T08:46:41Z</time>
      </trkpt>
      <trkpt lat="40.933211976662278" lon="-4.095737021416426">
        <ele>1080.086</ele>
        <time>2021-07-10T08:46:43Z</time>
      </trkpt>
      <trkpt lat="40.933396965265274" lon="-4.095971966162324">
        <ele>1079.96</ele>
        <time>2021-07-10T08:46:45Z</time>
      </trkpt>
      <trkpt lat="40.933498973026872" lon="-4.096096018329263">
        <ele>1079.4259999999999</ele>
        <time>2021-07-10T08:46:46Z</time>
      </trkpt>
      <trkpt lat="40.933597963303328" lon="-4.096213029697537">
        <ele>1079.4079999999999</ele>
        <time>2021-07-10T08:46:47Z</time>
      </trkpt>
      <trkpt lat="40.933788986876607" lon="-4.096433976665139">
        <ele>1079.385</ele>
        <time>2021-07-10T08:46:49Z</time>
      </trkpt>
      <trkpt lat="40.933887977153063" lon="-4.096545958891511">
        <ele>1079.7550000000001</ele>
        <time>2021-07-10T08:46:50Z</time>
      </trkpt>
      <trkpt lat="40.933983027935028" lon="-4.096654001623392">
        <ele>1079.9960000000001</ele>
        <time>2021-07-10T08:46:51Z</time>
      </trkpt>
      <trkpt lat="40.934076989069581" lon="-4.096761960536242">
        <ele>1080.3920000000001</ele>
        <time>2021-07-10T08:46:52Z</time>
      </trkpt>
      <trkpt lat="40.934253009036183" lon="-4.096975028514862">
        <ele>1080.3340000000001</ele>
        <time>2021-07-10T08:46:54Z</time>
      </trkpt>
      <trkpt lat="40.934346970170736" lon="-4.097106037661433">
        <ele>1080.557</ele>
        <time>2021-07-10T08:46:55Z</time>
      </trkpt>
      <trkpt lat="40.934447972103953" lon="-4.097244003787637">
        <ele>1080.961</ele>
        <time>2021-07-10T08:46:56Z</time>
      </trkpt>
      <trkpt lat="40.934558026492596" lon="-4.097388004884124">
        <ele>1080.4200000000001</ele>
        <time>2021-07-10T08:46:57Z</time>
      </trkpt>
      <trkpt lat="40.9346769656986" lon="-4.09753100015223">
        <ele>1079.6130000000001</ele>
        <time>2021-07-10T08:46:58Z</time>
      </trkpt>
      <trkpt lat="40.934915011748672" lon="-4.09780902788043">
        <ele>1079.0429999999999</ele>
        <time>2021-07-10T08:47:00Z</time>
      </trkpt>
      <trkpt lat="40.935038980096579" lon="-4.097949005663395">
        <ele>1078.307</ele>
        <time>2021-07-10T08:47:01Z</time>
      </trkpt>
      <trkpt lat="40.935168983414769" lon="-4.098090995103121">
        <ele>1078.1079999999999</ele>
        <time>2021-07-10T08:47:02Z</time>
      </trkpt>
      <trkpt lat="40.935390014201403" lon="-4.098326023668051">
        <ele>1078.058</ele>
        <time>2021-07-10T08:47:04Z</time>
      </trkpt>
      <trkpt lat="40.935493027791381" lon="-4.098441023379564">
        <ele>1077.848</ele>
        <time>2021-07-10T08:47:05Z</time>
      </trkpt>
      <trkpt lat="40.935586988925934" lon="-4.098544958978891">
        <ele>1077.4390000000001</ele>
        <time>2021-07-10T08:47:06Z</time>
      </trkpt>
      <trkpt lat="40.935673993080854" lon="-4.098642021417618">
        <ele>1076.925</ele>
        <time>2021-07-10T08:47:07Z</time>
      </trkpt>
      <trkpt lat="40.9358149766922" lon="-4.098768001422286">
        <ele>1076.287</ele>
        <time>2021-07-10T08:47:09Z</time>
      </trkpt>
      <trkpt lat="40.935873985290527" lon="-4.098805971443653">
        <ele>1076.04</ele>
        <time>2021-07-10T08:47:10Z</time>
      </trkpt>
      <trkpt lat="40.93592100776732" lon="-4.098831033334136">
        <ele>1075.7840000000001</ele>
        <time>2021-07-10T08:47:11Z</time>
      </trkpt>
      <trkpt lat="40.935997031629086" lon="-4.098851988092065">
        <ele>1075.973</ele>
        <time>2021-07-10T08:47:13Z</time>
      </trkpt>
      <trkpt lat="40.936045981943607" lon="-4.098856011405587">
        <ele>1076.2650000000001</ele>
        <time>2021-07-10T08:47:14Z</time>
      </trkpt>
      <trkpt lat="40.936169028282166" lon="-4.098867997527123">
        <ele>1076.568</ele>
        <time>2021-07-10T08:47:16Z</time>
      </trkpt>
      <trkpt lat="40.936237005516887" lon="-4.098893981426954">
        <ele>1076.414</ele>
        <time>2021-07-10T08:47:17Z</time>
      </trkpt>
      <trkpt lat="40.936349993571639" lon="-4.099018033593893">
        <ele>1076.008</ele>
        <time>2021-07-10T08:47:19Z</time>
      </trkpt>
      <trkpt lat="40.93641696497798" lon="-4.099212996661663">
        <ele>1075.873</ele>
        <time>2021-07-10T08:47:21Z</time>
      </trkpt>
      <trkpt lat="40.936443032696843" lon="-4.099324978888035">
        <ele>1076.0329999999999</ele>
        <time>2021-07-10T08:47:22Z</time>
      </trkpt>
      <trkpt lat="40.936511009931564" lon="-4.099525976926088">
        <ele>1076.3140000000001</ele>
        <time>2021-07-10T08:47:24Z</time>
      </trkpt>
      <trkpt lat="40.936637995764613" lon="-4.099723035469651">
        <ele>1076.24</ele>
        <time>2021-07-10T08:47:26Z</time>
      </trkpt>
      <trkpt lat="40.936717037111521" lon="-4.099818002432585">
        <ele>1076.0820000000001</ele>
        <time>2021-07-10T08:47:27Z</time>
      </trkpt>
      <trkpt lat="40.936805969104171" lon="-4.099923027679324">
        <ele>1075.4549999999999</ele>
        <time>2021-07-10T08:47:28Z</time>
      </trkpt>
      <trkpt lat="40.936981989070773" lon="-4.100123019888997">
        <ele>1075.1289999999999</ele>
        <time>2021-07-10T08:47:30Z</time>
      </trkpt>
      <trkpt lat="40.937078967690468" lon="-4.100229972973466">
        <ele>1074.4480000000001</ele>
        <time>2021-07-10T08:47:31Z</time>
      </trkpt>
      <trkpt lat="40.937180975452065" lon="-4.10034597851336">
        <ele>1073.9860000000001</ele>
        <time>2021-07-10T08:47:32Z</time>
      </trkpt>
      <trkpt lat="40.937374010682106" lon="-4.100568015128374">
        <ele>1073.6600000000001</ele>
        <time>2021-07-10T08:47:34Z</time>
      </trkpt>
      <trkpt lat="40.93757500872016" lon="-4.100804971531034">
        <ele>1073.0260000000001</ele>
        <time>2021-07-10T08:47:36Z</time>
      </trkpt>
      <trkpt lat="40.937777012586594" lon="-4.101050980389118">
        <ele>1071.808</ele>
        <time>2021-07-10T08:47:38Z</time>
      </trkpt>
      <trkpt lat="40.937970969825983" lon="-4.101280979812145">
        <ele>1071.5350000000001</ele>
        <time>2021-07-10T08:47:40Z</time>
      </trkpt>
      <trkpt lat="40.938174985349178" lon="-4.101515002548695">
        <ele>1070.4749999999999</ele>
        <time>2021-07-10T08:47:42Z</time>
      </trkpt>
      <trkpt lat="40.938276993110776" lon="-4.101632013916969">
        <ele>1069.6759999999999</ele>
        <time>2021-07-10T08:47:43Z</time>
      </trkpt>
      <trkpt lat="40.938482014462352" lon="-4.101875005289912">
        <ele>1068.5219999999999</ele>
        <time>2021-07-10T08:47:45Z</time>
      </trkpt>
      <trkpt lat="40.938586033880711" lon="-4.1019999794662">
        <ele>1067.3240000000001</ele>
        <time>2021-07-10T08:47:46Z</time>
      </trkpt>
      <trkpt lat="40.938794994726777" lon="-4.102251017466188">
        <ele>1066.2270000000001</ele>
        <time>2021-07-10T08:47:48Z</time>
      </trkpt>
      <trkpt lat="40.939004039391875" lon="-4.102507000789046">
        <ele>1064.8309999999999</ele>
        <time>2021-07-10T08:47:50Z</time>
      </trkpt>
      <trkpt lat="40.939110992476344" lon="-4.102633986622095">
        <ele>1063.73</ele>
        <time>2021-07-10T08:47:51Z</time>
      </trkpt>
      <trkpt lat="40.939213000237942" lon="-4.102756027132273">
        <ele>1062.6210000000001</ele>
        <time>2021-07-10T08:47:52Z</time>
      </trkpt>
      <trkpt lat="40.939314002171159" lon="-4.10288100130856">
        <ele>1061.8409999999999</ele>
        <time>2021-07-10T08:47:53Z</time>
      </trkpt>
      <trkpt lat="40.939487004652619" lon="-4.103091973811388">
        <ele>1060.5050000000001</ele>
        <time>2021-07-10T08:47:55Z</time>
      </trkpt>
      <trkpt lat="40.939650032669306" lon="-4.103289032354951">
        <ele>1059.1079999999999</ele>
        <time>2021-07-10T08:47:57Z</time>
      </trkpt>
      <trkpt lat="40.939713986590505" lon="-4.103365978226066">
        <ele>1057.8589999999999</ele>
        <time>2021-07-10T08:47:58Z</time>
      </trkpt>
      <trkpt lat="40.939765032380819" lon="-4.103425992652774">
        <ele>1057.0889999999999</ele>
        <time>2021-07-10T08:47:59Z</time>
      </trkpt>
      <trkpt lat="40.939808031544089" lon="-4.103473015129566">
        <ele>1056.9400000000001</ele>
        <time>2021-07-10T08:48:00Z</time>
      </trkpt>
      <trkpt lat="40.939880032092333" lon="-4.103547027334571">
        <ele>1056.2460000000001</ele>
        <time>2021-07-10T08:48:02Z</time>
      </trkpt>
      <trkpt lat="40.939978016540408" lon="-4.103604024276137">
        <ele>1055.6980000000001</ele>
        <time>2021-07-10T08:48:04Z</time>
      </trkpt>
      <trkpt lat="40.940119000151753" lon="-4.103649035096169">
        <ele>1054.741</ele>
        <time>2021-07-10T08:48:06Z</time>
      </trkpt>
      <trkpt lat="40.940266018733382" lon="-4.103741990402341">
        <ele>1053.655</ele>
        <time>2021-07-10T08:48:08Z</time>
      </trkpt>
      <trkpt lat="40.940342964604497" lon="-4.103923961520195">
        <ele>1052.2439999999999</ele>
        <time>2021-07-10T08:48:10Z</time>
      </trkpt>
      <trkpt lat="40.940376995131373" lon="-4.10416703671217">
        <ele>1050.797</ele>
        <time>2021-07-10T08:48:12Z</time>
      </trkpt>
      <trkpt lat="40.940405996516347" lon="-4.104295028373599">
        <ele>1049.623</ele>
        <time>2021-07-10T08:48:13Z</time>
      </trkpt>
      <trkpt lat="40.94045402482152" lon="-4.10442603752017">
        <ele>1048.825</ele>
        <time>2021-07-10T08:48:14Z</time>
      </trkpt>
      <trkpt lat="40.940581010654569" lon="-4.104670034721494">
        <ele>1048.008</ele>
        <time>2021-07-10T08:48:16Z</time>
      </trkpt>
      <trkpt lat="40.940658040344715" lon="-4.104808000847697">
        <ele>1047.376</ele>
        <time>2021-07-10T08:48:17Z</time>
      </trkpt>
      <trkpt lat="40.940741021186113" lon="-4.104956025257707">
        <ele>1045.9159999999999</ele>
        <time>2021-07-10T08:48:18Z</time>
      </trkpt>
      <trkpt lat="40.940822996199131" lon="-4.105106983333826">
        <ele>1044.9169999999999</ele>
        <time>2021-07-10T08:48:19Z</time>
      </trkpt>
      <trkpt lat="40.940986024215817" lon="-4.105404959991574">
        <ele>1043.433</ele>
        <time>2021-07-10T08:48:21Z</time>
      </trkpt>
      <trkpt lat="40.941073028370738" lon="-4.105561031028628">
        <ele>1042.595</ele>
        <time>2021-07-10T08:48:22Z</time>
      </trkpt>
      <trkpt lat="40.941162966191769" lon="-4.105714000761509">
        <ele>1041.588</ele>
        <time>2021-07-10T08:48:23Z</time>
      </trkpt>
      <trkpt lat="40.941254999488592" lon="-4.105874011293054">
        <ele>1040.7919999999999</ele>
        <time>2021-07-10T08:48:24Z</time>
      </trkpt>
      <trkpt lat="40.941420961171389" lon="-4.10616503097117">
        <ele>1040.1110000000001</ele>
        <time>2021-07-10T08:48:26Z</time>
      </trkpt>
      <trkpt lat="40.941591029986739" lon="-4.106464013457298">
        <ele>1039.634</ele>
        <time>2021-07-10T08:48:28Z</time>
      </trkpt>
      <trkpt lat="40.94168197363615" lon="-4.106621006503701">
        <ele>1038.855</ele>
        <time>2021-07-10T08:48:29Z</time>
      </trkpt>
      <trkpt lat="40.941848019137979" lon="-4.106904985383153">
        <ele>1038.1099999999999</ele>
        <time>2021-07-10T08:48:31Z</time>
      </trkpt>
      <trkpt lat="40.9420230332762" lon="-4.107204973697662">
        <ele>1037.308</ele>
        <time>2021-07-10T08:48:33Z</time>
      </trkpt>
      <trkpt lat="40.942113976925611" lon="-4.107366995885968">
        <ele>1036.28</ele>
        <time>2021-07-10T08:48:34Z</time>
      </trkpt>
      <trkpt lat="40.942277004942298" lon="-4.107647035270929">
        <ele>1035.4400000000001</ele>
        <time>2021-07-10T08:48:36Z</time>
      </trkpt>
      <trkpt lat="40.942435003817081" lon="-4.107921961694956">
        <ele>1034.261</ele>
        <time>2021-07-10T08:48:38Z</time>
      </trkpt>
      <trkpt lat="40.942509016022086" lon="-4.108051965013146">
        <ele>1033.067</ele>
        <time>2021-07-10T08:48:39Z</time>
      </trkpt>
      <trkpt lat="40.942576993256807" lon="-4.108163025230169">
        <ele>1032.3589999999999</ele>
        <time>2021-07-10T08:48:40Z</time>
      </trkpt>
      <trkpt lat="40.942683024331927" lon="-4.108309959992766">
        <ele>1031.742</ele>
        <time>2021-07-10T08:48:42Z</time>
      </trkpt>
      <trkpt lat="40.942782014608383" lon="-4.108426971361041">
        <ele>1030.7360000000001</ele>
        <time>2021-07-10T08:48:44Z</time>
      </trkpt>
      <trkpt lat="40.942877987399697" lon="-4.108537025749683">
        <ele>1030.125</ele>
        <time>2021-07-10T08:48:46Z</time>
      </trkpt>
      <trkpt lat="40.942918974906206" lon="-4.108614977449179">
        <ele>1029.789</ele>
        <time>2021-07-10T08:48:47Z</time>
      </trkpt>
      <trkpt lat="40.942987035959959" lon="-4.108800971880555">
        <ele>1028.5060000000001</ele>
        <time>2021-07-10T08:48:49Z</time>
      </trkpt>
      <trkpt lat="40.9430349804461" lon="-4.108898034319282">
        <ele>1027.626</ele>
        <time>2021-07-10T08:48:50Z</time>
      </trkpt>
      <trkpt lat="40.943145034834743" lon="-4.109065001830459">
        <ele>1026.6079999999999</ele>
        <time>2021-07-10T08:48:52Z</time>
      </trkpt>
      <trkpt lat="40.94320697709918" lon="-4.109139014035463">
        <ele>1026.155</ele>
        <time>2021-07-10T08:48:53Z</time>
      </trkpt>
      <trkpt lat="40.94327000901103" lon="-4.109204979613423">
        <ele>1025.415</ele>
        <time>2021-07-10T08:48:54Z</time>
      </trkpt>
      <trkpt lat="40.943394983187318" lon="-4.109320985153318">
        <ele>1025.1659999999999</ele>
        <time>2021-07-10T08:48:56Z</time>
      </trkpt>
      <trkpt lat="40.94352800399065" lon="-4.109449982643127">
        <ele>1024.962</ele>
        <time>2021-07-10T08:48:58Z</time>
      </trkpt>
      <trkpt lat="40.943606961518526" lon="-4.109525000676513">
        <ele>1024.9839999999999</ele>
        <time>2021-07-10T08:48:59Z</time>
      </trkpt>
      <trkpt lat="40.94376303255558" lon="-4.109672019258142">
        <ele>1024.7270000000001</ele>
        <time>2021-07-10T08:49:01Z</time>
      </trkpt>
      <trkpt lat="40.943912984803319" lon="-4.109811997041106">
        <ele>1023.871</ele>
        <time>2021-07-10T08:49:03Z</time>
      </trkpt>
      <trkpt lat="40.943974005058408" lon="-4.10986497066915">
        <ele>1023.45</ele>
        <time>2021-07-10T08:49:04Z</time>
      </trkpt>
      <trkpt lat="40.944019015878439" lon="-4.10990403033793">
        <ele>1023.248</ele>
        <time>2021-07-10T08:49:05Z</time>
      </trkpt>
      <trkpt lat="40.944065032526851" lon="-4.109943006187677">
        <ele>1022.961</ele>
        <time>2021-07-10T08:49:07Z</time>
      </trkpt>
      <trkpt lat="40.94410602003336" lon="-4.109966978430748">
        <ele>1022.617</ele>
        <time>2021-07-10T08:49:17Z</time>
      </trkpt>
      <trkpt lat="40.944151030853391" lon="-4.110006960108876">
        <ele>1024.1079999999999</ele>
        <time>2021-07-10T08:49:53Z</time>
      </trkpt>
      <trkpt lat="40.944224037230015" lon="-4.11007896065712">
        <ele>1023.831</ele>
        <time>2021-07-10T08:49:55Z</time>
      </trkpt>
      <trkpt lat="40.944264018908143" lon="-4.11011902615428">
        <ele>1023.071</ele>
        <time>2021-07-10T08:49:56Z</time>
      </trkpt>
      <trkpt lat="40.944309029728174" lon="-4.11016303114593">
        <ele>1022.3920000000001</ele>
        <time>2021-07-10T08:49:57Z</time>
      </trkpt>
      <trkpt lat="40.944413971155882" lon="-4.110265960916877">
        <ele>1021.328</ele>
        <time>2021-07-10T08:49:59Z</time>
      </trkpt>
      <trkpt lat="40.944546991959214" lon="-4.110391018912196">
        <ele>1020.05</ele>
        <time>2021-07-10T08:50:01Z</time>
      </trkpt>
      <trkpt lat="40.944614969193935" lon="-4.110452039167285">
        <ele>1018.343</ele>
        <time>2021-07-10T08:50:02Z</time>
      </trkpt>
      <trkpt lat="40.944758970290422" lon="-4.110583970323205">
        <ele>1016.6369999999999</ele>
        <time>2021-07-10T08:50:04Z</time>
      </trkpt>
      <trkpt lat="40.944933984428644" lon="-4.110751021653414">
        <ele>1015.616</ele>
        <time>2021-07-10T08:50:06Z</time>
      </trkpt>
      <trkpt lat="40.945102963596582" lon="-4.110910026356578">
        <ele>1014.457</ele>
        <time>2021-07-10T08:50:08Z</time>
      </trkpt>
      <trkpt lat="40.945280995219946" lon="-4.111074982210994">
        <ele>1013.4</ele>
        <time>2021-07-10T08:50:10Z</time>
      </trkpt>
      <trkpt lat="40.945371016860008" lon="-4.111162992194295">
        <ele>1012.22</ele>
        <time>2021-07-10T08:50:11Z</time>
      </trkpt>
      <trkpt lat="40.945545025169849" lon="-4.111335994675756">
        <ele>1011.1079999999999</ele>
        <time>2021-07-10T08:50:13Z</time>
      </trkpt>
      <trkpt lat="40.945634040981531" lon="-4.111424004659057">
        <ele>1010.1420000000001</ele>
        <time>2021-07-10T08:50:14Z</time>
      </trkpt>
      <trkpt lat="40.945809977129102" lon="-4.111598012968898">
        <ele>1009.492</ele>
        <time>2021-07-10T08:50:16Z</time>
      </trkpt>
      <trkpt lat="40.945974010974169" lon="-4.111757017672062">
        <ele>1007.783</ele>
        <time>2021-07-10T08:50:18Z</time>
      </trkpt>
      <trkpt lat="40.946051962673664" lon="-4.111830024048686">
        <ele>1006.869</ele>
        <time>2021-07-10T08:50:19Z</time>
      </trkpt>
      <trkpt lat="40.946121029555798" lon="-4.111890038475394">
        <ele>1006.441</ele>
        <time>2021-07-10T08:50:20Z</time>
      </trkpt>
      <trkpt lat="40.946253966540098" lon="-4.111995985731483">
        <ele>1006.054</ele>
        <time>2021-07-10T08:50:22Z</time>
      </trkpt>
      <trkpt lat="40.946321021765471" lon="-4.112048959359527">
        <ele>1005.388</ele>
        <time>2021-07-10T08:50:23Z</time>
      </trkpt>
      <trkpt lat="40.946458987891674" lon="-4.112148033455014">
        <ele>1003.857</ele>
        <time>2021-07-10T08:50:25Z</time>
      </trkpt>
      <trkpt lat="40.946531994268298" lon="-4.112196983769536">
        <ele>1002.4109999999999</ele>
        <time>2021-07-10T08:50:26Z</time>
      </trkpt>
      <trkpt lat="40.946666020900011" lon="-4.112279964610934">
        <ele>1001.221</ele>
        <time>2021-07-10T08:50:28Z</time>
      </trkpt>
      <trkpt lat="40.946799963712692" lon="-4.112345008179545">
        <ele>1000.103</ele>
        <time>2021-07-10T08:50:30Z</time>
      </trkpt>
      <trkpt lat="40.946903983131051" lon="-4.112367974594235">
        <ele>1000.1079999999999</ele>
        <time>2021-07-10T08:50:32Z</time>
      </trkpt>
      <trkpt lat="40.946992998942733" lon="-4.11231198348105">
        <ele>1000.678</ele>
        <time>2021-07-10T08:50:34Z</time>
      </trkpt>
      <trkpt lat="40.947092995047569" lon="-4.11226898431778">
        <ele>1000.048</ele>
        <time>2021-07-10T08:50:36Z</time>
      </trkpt>
      <trkpt lat="40.947147980332375" lon="-4.112278036773205">
        <ele>1000.119</ele>
        <time>2021-07-10T08:50:37Z</time>
      </trkpt>
      <trkpt lat="40.947238001972437" lon="-4.112379038706422">
        <ele>999.34500000000003</ele>
        <time>2021-07-10T08:50:39Z</time>
      </trkpt>
      <trkpt lat="40.947255017235875" lon="-4.112463025376201">
        <ele>998.947</ele>
        <time>2021-07-10T08:50:40Z</time>
      </trkpt>
      <trkpt lat="40.947248982265592" lon="-4.112550029531121">
        <ele>997.90999999999997</ele>
        <time>2021-07-10T08:50:41Z</time>
      </trkpt>
      <trkpt lat="40.947236996144056" lon="-4.112630998715758">
        <ele>997.62400000000002</ele>
        <time>2021-07-10T08:50:42Z</time>
      </trkpt>
      <trkpt lat="40.947241019457579" lon="-4.112704005092382">
        <ele>997.53300000000002</ele>
        <time>2021-07-10T08:50:43Z</time>
      </trkpt>
      <trkpt lat="40.947302961722016" lon="-4.1128050070256">
        <ele>997.56700000000001</ele>
        <time>2021-07-10T08:50:45Z</time>
      </trkpt>
      <trkpt lat="40.94741502776742" lon="-4.112883964553475">
        <ele>996.58100000000002</ele>
        <time>2021-07-10T08:50:47Z</time>
      </trkpt>
      <trkpt lat="40.94754503108561" lon="-4.112973986193538">
        <ele>995.51900000000001</ele>
        <time>2021-07-10T08:50:49Z</time>
      </trkpt>
      <trkpt lat="40.947619965299964" lon="-4.113026959821582">
        <ele>995.10799999999995</ele>
        <time>2021-07-10T08:50:50Z</time>
      </trkpt>
      <trkpt lat="40.947772013023496" lon="-4.113140031695366">
        <ele>994.64300000000003</ele>
        <time>2021-07-10T08:50:52Z</time>
      </trkpt>
      <trkpt lat="40.947917019948363" lon="-4.113248996436596">
        <ele>993.51300000000003</ele>
        <time>2021-07-10T08:50:54Z</time>
      </trkpt>
      <trkpt lat="40.947992037981749" lon="-4.113305993378162">
        <ele>992.91399999999999</ele>
        <time>2021-07-10T08:50:55Z</time>
      </trkpt>
      <trkpt lat="40.948141990229487" lon="-4.113426022231579">
        <ele>991.95000000000005</ele>
        <time>2021-07-10T08:50:57Z</time>
      </trkpt>
      <trkpt lat="40.948280040174723" lon="-4.113564994186163">
        <ele>991.22199999999998</ele>
        <time>2021-07-10T08:50:59Z</time>
      </trkpt>
      <trkpt lat="40.948401996865869" lon="-4.113727016374469">
        <ele>990.63499999999999</ele>
        <time>2021-07-10T08:51:01Z</time>
      </trkpt>
      <trkpt lat="40.948457987979054" lon="-4.113818965852261">
        <ele>990.97900000000004</ele>
        <time>2021-07-10T08:51:02Z</time>
      </trkpt>
      <trkpt lat="40.948545997962356" lon="-4.114015018567443">
        <ele>990.73800000000006</ele>
        <time>2021-07-10T08:51:04Z</time>
      </trkpt>
      <trkpt lat="40.94857600517571" lon="-4.114127000793815">
        <ele>990.24199999999996</ele>
        <time>2021-07-10T08:51:05Z</time>
      </trkpt>
      <trkpt lat="40.948611041530967" lon="-4.114355994388461">
        <ele>989.92200000000003</ele>
        <time>2021-07-10T08:51:07Z</time>
      </trkpt>
      <trkpt lat="40.948614981025457" lon="-4.114578031003475">
        <ele>989.41399999999999</ele>
        <time>2021-07-10T08:51:09Z</time>
      </trkpt>
      <trkpt lat="40.948581034317613" lon="-4.114787997677922">
        <ele>988.90800000000002</ele>
        <time>2021-07-10T08:51:11Z</time>
      </trkpt>
      <trkpt lat="40.94855697825551" lon="-4.11489000543952">
        <ele>988.58100000000002</ele>
        <time>2021-07-10T08:51:12Z</time>
      </trkpt>
      <trkpt lat="40.948532000184059" lon="-4.114990001544356">
        <ele>988.07100000000003</ele>
        <time>2021-07-10T08:51:13Z</time>
      </trkpt>
      <trkpt lat="40.948479026556015" lon="-4.115193011239171">
        <ele>987.83199999999999</ele>
        <time>2021-07-10T08:51:15Z</time>
      </trkpt>
      <trkpt lat="40.948453964665532" lon="-4.115295019000769">
        <ele>987.32799999999997</ele>
        <time>2021-07-10T08:51:16Z</time>
      </trkpt>
      <trkpt lat="40.948428986594081" lon="-4.115398032590747">
        <ele>986.88</ele>
        <time>2021-07-10T08:51:17Z</time>
      </trkpt>
      <trkpt lat="40.948400991037488" lon="-4.115509008988738">
        <ele>986.69299999999998</ele>
        <time>2021-07-10T08:51:18Z</time>
      </trkpt>
      <trkpt lat="40.948352040722966" lon="-4.115709001198411">
        <ele>985.93700000000001</ele>
        <time>2021-07-10T08:51:20Z</time>
      </trkpt>
      <trkpt lat="40.948326978832483" lon="-4.115816038101912">
        <ele>985.37599999999998</ele>
        <time>2021-07-10T08:51:21Z</time>
      </trkpt>
      <trkpt lat="40.94829898327589" lon="-4.115919973701239">
        <ele>984.79399999999998</ele>
        <time>2021-07-10T08:51:22Z</time>
      </trkpt>
      <trkpt lat="40.948268976062536" lon="-4.116030028089881">
        <ele>983.75699999999995</ele>
        <time>2021-07-10T08:51:23Z</time>
      </trkpt>
      <trkpt lat="40.948213990777731" lon="-4.116229014471173">
        <ele>983.12199999999996</ele>
        <time>2021-07-10T08:51:25Z</time>
      </trkpt>
      <trkpt lat="40.948188006877899" lon="-4.116334039717913">
        <ele>982.70799999999997</ele>
        <time>2021-07-10T08:51:26Z</time>
      </trkpt>
      <trkpt lat="40.948145007714629" lon="-4.116518022492528">
        <ele>982.66600000000005</ele>
        <time>2021-07-10T08:51:28Z</time>
      </trkpt>
      <trkpt lat="40.948117012158036" lon="-4.116649031639099">
        <ele>982.52599999999995</ele>
        <time>2021-07-10T08:51:30Z</time>
      </trkpt>
      <trkpt lat="40.948093961924314" lon="-4.116743998602033">
        <ele>981.87699999999995</ele>
        <time>2021-07-10T08:51:32Z</time>
      </trkpt>
      <trkpt lat="40.948079964146018" lon="-4.116829996928573">
        <ele>981.64300000000003</ele>
        <time>2021-07-10T08:51:34Z</time>
      </trkpt>
      <trkpt lat="40.948079964146018" lon="-4.116909960284829">
        <ele>981.27499999999998</ele>
        <time>2021-07-10T08:51:36Z</time>
      </trkpt>
      <trkpt lat="40.948107959702611" lon="-4.116984978318214">
        <ele>981.33799999999997</ele>
        <time>2021-07-10T08:51:39Z</time>
      </trkpt>
      <trkpt lat="40.948163028806448" lon="-4.117035018280149">
        <ele>981.44200000000001</ele>
        <time>2021-07-10T08:51:41Z</time>
      </trkpt>
      <trkpt lat="40.948248021304607" lon="-4.11701699718833">
        <ele>980.851</ele>
        <time>2021-07-10T08:51:43Z</time>
      </trkpt>
      <trkpt lat="40.948310969397426" lon="-4.116938961669803">
        <ele>980.56200000000001</ele>
        <time>2021-07-10T08:51:45Z</time>
      </trkpt>
      <trkpt lat="40.948337959125638" lon="-4.116878025233746">
        <ele>979.78300000000002</ele>
        <time>2021-07-10T08:51:46Z</time>
      </trkpt>
      <trkpt lat="40.948376012966037" lon="-4.116743998602033">
        <ele>979.21100000000001</ele>
        <time>2021-07-10T08:51:48Z</time>
      </trkpt>
      <trkpt lat="40.948392022401094" lon="-4.116679960861802">
        <ele>978.70799999999997</ele>
        <time>2021-07-10T08:51:49Z</time>
      </trkpt>
      <trkpt lat="40.948422029614449" lon="-4.116550963371992">
        <ele>977.923</ele>
        <time>2021-07-10T08:51:51Z</time>
      </trkpt>
      <trkpt lat="40.948437033221126" lon="-4.116474017500877">
        <ele>977.22299999999996</ele>
        <time>2021-07-10T08:51:52Z</time>
      </trkpt>
      <trkpt lat="40.948453964665532" lon="-4.116389025002718">
        <ele>976.42399999999998</ele>
        <time>2021-07-10T08:51:53Z</time>
      </trkpt>
      <trkpt lat="40.948473997414112" lon="-4.116293974220753">
        <ele>975.80999999999995</ele>
        <time>2021-07-10T08:51:54Z</time>
      </trkpt>
      <trkpt lat="40.948522025719285" lon="-4.116107979789376">
        <ele>975.03200000000004</ele>
        <time>2021-07-10T08:51:56Z</time>
      </trkpt>
      <trkpt lat="40.948580028489232" lon="-4.115909999236465">
        <ele>974.44500000000005</ele>
        <time>2021-07-10T08:51:58Z</time>
      </trkpt>
      <trkpt lat="40.948614981025457" lon="-4.115807991474867">
        <ele>973.84900000000005</ele>
        <time>2021-07-10T08:51:59Z</time>
      </trkpt>
      <trkpt lat="40.948679018765688" lon="-4.115625014528632">
        <ele>974.06799999999998</ele>
        <time>2021-07-10T08:52:01Z</time>
      </trkpt>
      <trkpt lat="40.948712965473533" lon="-4.115529963746667">
        <ele>973.39599999999996</ele>
        <time>2021-07-10T08:52:02Z</time>
      </trkpt>
      <trkpt lat="40.948777003213763" lon="-4.11534103564918">
        <ele>972.73099999999999</ele>
        <time>2021-07-10T08:52:04Z</time>
      </trkpt>
      <trkpt lat="40.948837017640471" lon="-4.115160992369056">
        <ele>971.72400000000005</ele>
        <time>2021-07-10T08:52:06Z</time>
      </trkpt>
      <trkpt lat="40.948865013197064" lon="-4.115078011527658">
        <ele>971.50800000000004</ele>
        <time>2021-07-10T08:52:07Z</time>
      </trkpt>
      <trkpt lat="40.948896026238799" lon="-4.114984972402453">
        <ele>971.16600000000005</ele>
        <time>2021-07-10T08:52:09Z</time>
      </trkpt>
      <trkpt lat="40.94892100431025" lon="-4.114909032359719">
        <ele>971.26599999999996</ele>
        <time>2021-07-10T08:52:11Z</time>
      </trkpt>
      <trkpt lat="40.94894397072494" lon="-4.114838037639856">
        <ele>971.52700000000004</ele>
        <time>2021-07-10T08:52:13Z</time>
      </trkpt>
      <trkpt lat="40.948976995423436" lon="-4.11474097520113">
        <ele>970.93299999999999</ele>
        <time>2021-07-10T08:52:15Z</time>
      </trkpt>
      <trkpt lat="40.949002979323268" lon="-4.114667968824506">
        <ele>970.66499999999996</ele>
        <time>2021-07-10T08:52:16Z</time>
      </trkpt>
      <trkpt lat="40.949067017063498" lon="-4.114498989656568">
        <ele>969.55799999999999</ele>
        <time>2021-07-10T08:52:18Z</time>
      </trkpt>
      <trkpt lat="40.949108004570007" lon="-4.114398993551731">
        <ele>969.17200000000003</ele>
        <time>2021-07-10T08:52:19Z</time>
      </trkpt>
      <trkpt lat="40.949195008724928" lon="-4.114218028262258">
        <ele>968.74099999999999</ele>
        <time>2021-07-10T08:52:21Z</time>
      </trkpt>
      <trkpt lat="40.949243037030101" lon="-4.114122977480292">
        <ele>968.22900000000004</ele>
        <time>2021-07-10T08:52:22Z</time>
      </trkpt>
      <trkpt lat="40.949332974851131" lon="-4.113943018019199">
        <ele>968.5</ele>
        <time>2021-07-10T08:52:24Z</time>
      </trkpt>
      <trkpt lat="40.949382008984685" lon="-4.113854002207518">
        <ele>968.22000000000003</ele>
        <time>2021-07-10T08:52:25Z</time>
      </trkpt>
      <trkpt lat="40.949465995654464" lon="-4.113707989454269">
        <ele>968.00800000000004</ele>
        <time>2021-07-10T08:52:27Z</time>
      </trkpt>
      <trkpt lat="40.949507988989353" lon="-4.113636994734407">
        <ele>967.49900000000002</ele>
        <time>2021-07-10T08:52:28Z</time>
      </trkpt>
      <trkpt lat="40.949551993981004" lon="-4.113564994186163">
        <ele>967.23900000000003</ele>
        <time>2021-07-10T08:52:29Z</time>
      </trkpt>
      <trkpt lat="40.949634974822402" lon="-4.113444965332747">
        <ele>967.38</ele>
        <time>2021-07-10T08:52:31Z</time>
      </trkpt>
      <trkpt lat="40.94971502199769" lon="-4.113332983106375">
        <ele>967.476</ele>
        <time>2021-07-10T08:52:33Z</time>
      </trkpt>
      <trkpt lat="40.949792973697186" lon="-4.113231981173158">
        <ele>967.07799999999997</ele>
        <time>2021-07-10T08:52:35Z</time>
      </trkpt>
      <trkpt lat="40.949875032529235" lon="-4.113133996725082">
        <ele>966.61099999999999</ele>
        <time>2021-07-10T08:52:37Z</time>
      </trkpt>
      <trkpt lat="40.949921971186996" lon="-4.113081023097038">
        <ele>966.48500000000001</ele>
        <time>2021-07-10T08:52:38Z</time>
      </trkpt>
      <trkpt lat="40.949964970350266" lon="-4.113031988963485">
        <ele>966.56399999999996</ele>
        <time>2021-07-10T08:52:39Z</time>
      </trkpt>
      <trkpt lat="40.950006963685155" lon="-4.112983960658312">
        <ele>966.45699999999999</ele>
        <time>2021-07-10T08:52:40Z</time>
      </trkpt>
      <trkpt lat="40.95008097589016" lon="-4.112900979816914">
        <ele>966.29999999999995</ele>
        <time>2021-07-10T08:52:42Z</time>
      </trkpt>
      <trkpt lat="40.950150964781642" lon="-4.11282503977418">
        <ele>966.41999999999996</ele>
        <time>2021-07-10T08:52:44Z</time>
      </trkpt>
      <trkpt lat="40.95018801279366" lon="-4.1127859801054">
        <ele>966.50800000000004</ele>
        <time>2021-07-10T08:52:45Z</time>
      </trkpt>
      <trkpt lat="40.950262024998665" lon="-4.112706016749144">
        <ele>966.73199999999997</ele>
        <time>2021-07-10T08:52:47Z</time>
      </trkpt>
      <trkpt lat="40.950307035818696" lon="-4.112657988443971">
        <ele>966.452</ele>
        <time>2021-07-10T08:52:48Z</time>
      </trkpt>
      <trkpt lat="40.95040300861001" lon="-4.112558998167515">
        <ele>965.97299999999996</ele>
        <time>2021-07-10T08:52:50Z</time>
      </trkpt>
      <trkpt lat="40.950476014986634" lon="-4.11248498596251">
        <ele>965.63900000000001</ele>
        <time>2021-07-10T08:52:52Z</time>
      </trkpt>
      <trkpt lat="40.950527982786298" lon="-4.112428994849324">
        <ele>965.46100000000001</ele>
        <time>2021-07-10T08:52:54Z</time>
      </trkpt>
      <trkpt lat="40.950563019141555" lon="-4.112385995686054">
        <ele>965.36400000000003</ele>
        <time>2021-07-10T08:52:57Z</time>
      </trkpt>
      <trkpt lat="40.950608029961586" lon="-4.112309971824288">
        <ele>964.678</ele>
        <time>2021-07-10T08:53:29Z</time>
      </trkpt>
      <trkpt lat="40.950684975832701" lon="-4.112227996811271">
        <ele>964.24699999999996</ele>
        <time>2021-07-10T08:53:31Z</time>
      </trkpt>
      <trkpt lat="40.950796036049724" lon="-4.11211802624166">
        <ele>963.94399999999996</ele>
        <time>2021-07-10T08:53:33Z</time>
      </trkpt>
      <trkpt lat="40.950857978314161" lon="-4.112057005986571">
        <ele>963.70500000000004</ele>
        <time>2021-07-10T08:53:34Z</time>
      </trkpt>
      <trkpt lat="40.950922016054392" lon="-4.11199196241796">
        <ele>963.61500000000001</ele>
        <time>2021-07-10T08:53:35Z</time>
      </trkpt>
      <trkpt lat="40.951051013544202" lon="-4.111861037090421">
        <ele>963.50800000000004</ele>
        <time>2021-07-10T08:53:37Z</time>
      </trkpt>
      <trkpt lat="40.951174981892109" lon="-4.111735979095101">
        <ele>963.471</ele>
        <time>2021-07-10T08:53:39Z</time>
      </trkpt>
      <trkpt lat="40.951230973005295" lon="-4.111676970496774">
        <ele>963.45100000000002</ele>
        <time>2021-07-10T08:53:40Z</time>
      </trkpt>
      <trkpt lat="40.951284030452371" lon="-4.111616034060717">
        <ele>963.44200000000001</ele>
        <time>2021-07-10T08:53:41Z</time>
      </trkpt>
      <trkpt lat="40.951374974101782" lon="-4.111499022692442">
        <ele>963.45799999999997</ele>
        <time>2021-07-10T08:53:43Z</time>
      </trkpt>
      <trkpt lat="40.951416967436671" lon="-4.111442025750876">
        <ele>963.47000000000003</ele>
        <time>2021-07-10T08:53:44Z</time>
      </trkpt>
      <trkpt lat="40.951482011005282" lon="-4.111335994675756">
        <ele>963.423</ele>
        <time>2021-07-10T08:53:46Z</time>
      </trkpt>
      <trkpt lat="40.951510006561875" lon="-4.111252008005977">
        <ele>963.447</ele>
        <time>2021-07-10T08:53:48Z</time>
      </trkpt>
      <trkpt lat="40.951515035703778" lon="-4.111177995800972">
        <ele>963.44600000000003</ele>
        <time>2021-07-10T08:53:50Z</time>
      </trkpt>
      <trkpt lat="40.951492991298437" lon="-4.111072970554233">
        <ele>963.43399999999997</ele>
        <time>2021-07-10T08:53:52Z</time>
      </trkpt>
      <trkpt lat="40.951459966599941" lon="-4.110949002206326">
        <ele>963.45500000000004</ele>
        <time>2021-07-10T08:53:54Z</time>
      </trkpt>
      <trkpt lat="40.951462984085083" lon="-4.110883958637714">
        <ele>963.40999999999997</ele>
        <time>2021-07-10T08:53:55Z</time>
      </trkpt>
      <trkpt lat="40.951483016833663" lon="-4.110826961696148">
        <ele>963.40800000000002</ele>
        <time>2021-07-10T08:53:56Z</time>
      </trkpt>
      <trkpt lat="40.951517969369888" lon="-4.1107879858464">
        <ele>963.47000000000003</ele>
        <time>2021-07-10T08:53:57Z</time>
      </trkpt>
      <trkpt lat="40.951601034030318" lon="-4.110782034695149">
        <ele>963.44000000000005</ele>
        <time>2021-07-10T08:53:59Z</time>
      </trkpt>
      <trkpt lat="40.951663982123137" lon="-4.110828973352909">
        <ele>963.44100000000003</ele>
        <time>2021-07-10T08:54:01Z</time>
      </trkpt>
      <trkpt lat="40.951717961579561" lon="-4.110855041071773">
        <ele>963.45699999999999</ele>
        <time>2021-07-10T08:54:03Z</time>
      </trkpt>
      <trkpt lat="40.951788034290075" lon="-4.110834002494812">
        <ele>963.41899999999998</ele>
        <time>2021-07-10T08:54:05Z</time>
      </trkpt>
      <trkpt lat="40.951824998483062" lon="-4.110793014988303">
        <ele>963.44200000000001</ele>
        <time>2021-07-10T08:54:06Z</time>
      </trkpt>
      <trkpt lat="40.951873026788235" lon="-4.110725037753582">
        <ele>963.476</ele>
        <time>2021-07-10T08:54:07Z</time>
      </trkpt>
      <trkpt lat="40.951967993751168" lon="-4.11052999086678">
        <ele>963.42499999999995</ele>
        <time>2021-07-10T08:54:09Z</time>
      </trkpt>
      <trkpt lat="40.952021973207593" lon="-4.110411973670125">
        <ele>963.43499999999995</ele>
        <time>2021-07-10T08:54:10Z</time>
      </trkpt>
      <trkpt lat="40.952101014554501" lon="-4.110283982008696">
        <ele>963.48599999999999</ele>
        <time>2021-07-10T08:54:11Z</time>
      </trkpt>
      <trkpt lat="40.952180977910757" lon="-4.110138975083828">
        <ele>963.41399999999999</ele>
        <time>2021-07-10T08:54:12Z</time>
      </trkpt>
      <trkpt lat="40.952257001772523" lon="-4.109989022836089">
        <ele>963.40800000000002</ele>
        <time>2021-07-10T08:54:13Z</time>
      </trkpt>
      <trkpt lat="40.952402008697391" lon="-4.10969004034996">
        <ele>963.44000000000005</ele>
        <time>2021-07-10T08:54:15Z</time>
      </trkpt>
      <trkpt lat="40.952563025057316" lon="-4.109428022056818">
        <ele>963.46000000000004</ele>
        <time>2021-07-10T08:54:17Z</time>
      </trkpt>
      <trkpt lat="40.952748013660312" lon="-4.109264994040132">
        <ele>963.41099999999994</ele>
        <time>2021-07-10T08:54:19Z</time>
      </trkpt>
      <trkpt lat="40.95285102725029" lon="-4.109202967956662">
        <ele>959.447</ele>
        <time>2021-07-10T08:54:20Z</time>
      </trkpt>
      <trkpt lat="40.952964015305042" lon="-4.109157035127282">
        <ele>955.42899999999997</ele>
        <time>2021-07-10T08:54:21Z</time>
      </trkpt>
      <trkpt lat="40.953085971996188" lon="-4.109121998772025">
        <ele>952.85199999999998</ele>
        <time>2021-07-10T08:54:22Z</time>
      </trkpt>
      <trkpt lat="40.953313959762454" lon="-4.109105989336968">
        <ele>952.41600000000005</ele>
        <time>2021-07-10T08:54:24Z</time>
      </trkpt>
      <trkpt lat="40.953429965302348" lon="-4.109117975458503">
        <ele>952.995</ele>
        <time>2021-07-10T08:54:25Z</time>
      </trkpt>
      <trkpt lat="40.953660970553756" lon="-4.109143959358335">
        <ele>955.03700000000003</ele>
        <time>2021-07-10T08:54:27Z</time>
      </trkpt>
      <trkpt lat="40.953813018277287" lon="-4.109163992106915">
        <ele>957.74900000000002</ele>
        <time>2021-07-10T08:54:29Z</time>
      </trkpt>
      <trkpt lat="40.953936986625195" lon="-4.109163992106915">
        <ele>960.41300000000001</ele>
        <time>2021-07-10T08:54:31Z</time>
      </trkpt>
      <trkpt lat="40.953995995223522" lon="-4.109159968793392">
        <ele>963.40800000000002</ele>
        <time>2021-07-10T08:54:32Z</time>
      </trkpt>
      <trkpt lat="40.954112000763416" lon="-4.109131973236799">
        <ele>966.57000000000005</ele>
        <time>2021-07-10T08:54:34Z</time>
      </trkpt>
      <trkpt lat="40.954171009361744" lon="-4.109114035964012">
        <ele>969.45000000000005</ele>
        <time>2021-07-10T08:54:35Z</time>
      </trkpt>
      <trkpt lat="40.954282991588116" lon="-4.109063996002078">
        <ele>971.84100000000001</ele>
        <time>2021-07-10T08:54:37Z</time>
      </trkpt>
      <trkpt lat="40.954358009621501" lon="-4.10902401432395">
        <ele>972.78700000000003</ele>
        <time>2021-07-10T08:54:39Z</time>
      </trkpt>
      <trkpt lat="40.954416012391448" lon="-4.108986966311932">
        <ele>972.13900000000001</ele>
        <time>2021-07-10T08:54:57Z</time>
      </trkpt>
      <trkpt lat="40.95452799461782" lon="-4.108913959935308">
        <ele>970.03200000000004</ele>
        <time>2021-07-10T08:54:59Z</time>
      </trkpt>
      <trkpt lat="40.954665038734674" lon="-4.108827961608768">
        <ele>969.67600000000004</ele>
        <time>2021-07-10T08:55:01Z</time>
      </trkpt>
      <trkpt lat="40.954836029559374" lon="-4.108711034059525">
        <ele>969.86500000000001</ele>
        <time>2021-07-10T08:55:03Z</time>
      </trkpt>
      <trkpt lat="40.955025963485241" lon="-4.108579019084573">
        <ele>969.98599999999999</ele>
        <time>2021-07-10T08:55:05Z</time>
      </trkpt>
      <trkpt lat="40.955136017873883" lon="-4.108501989394426">
        <ele>970.05999999999995</ele>
        <time>2021-07-10T08:55:06Z</time>
      </trkpt>
      <trkpt lat="40.955361993983388" lon="-4.108340973034501">
        <ele>969.52599999999995</ele>
        <time>2021-07-10T08:55:08Z</time>
      </trkpt>
      <trkpt lat="40.955477999523282" lon="-4.108260003849864">
        <ele>969.30799999999999</ele>
        <time>2021-07-10T08:55:09Z</time>
      </trkpt>
      <trkpt lat="40.955592999234796" lon="-4.108180040493608">
        <ele>969.36500000000001</ele>
        <time>2021-07-10T08:55:10Z</time>
      </trkpt>
      <trkpt lat="40.955704981461167" lon="-4.1081009991467">
        <ele>969.54499999999996</ele>
        <time>2021-07-10T08:55:11Z</time>
      </trkpt>
      <trkpt lat="40.95581796951592" lon="-4.108025981113315">
        <ele>969.69600000000003</ele>
        <time>2021-07-10T08:55:12Z</time>
      </trkpt>
      <trkpt lat="40.956028020009398" lon="-4.107882985845208">
        <ele>970.15200000000004</ele>
        <time>2021-07-10T08:55:14Z</time>
      </trkpt>
      <trkpt lat="40.956121981143951" lon="-4.107817020267248">
        <ele>970.87400000000002</ele>
        <time>2021-07-10T08:55:15Z</time>
      </trkpt>
      <trkpt lat="40.956261958926916" lon="-4.107719035819173">
        <ele>971.39700000000005</ele>
        <time>2021-07-10T08:55:17Z</time>
      </trkpt>
      <trkpt lat="40.956336976960301" lon="-4.107666984200478">
        <ele>971.87099999999998</ele>
        <time>2021-07-10T08:55:18Z</time>
      </trkpt>
      <trkpt lat="40.956419035792351" lon="-4.107610993087292">
        <ele>972.36000000000001</ele>
        <time>2021-07-10T08:55:19Z</time>
      </trkpt>
      <trkpt lat="40.956507967785001" lon="-4.107551984488964">
        <ele>973.255</ele>
        <time>2021-07-10T08:55:20Z</time>
      </trkpt>
      <trkpt lat="40.956694968044758" lon="-4.107422986999154">
        <ele>973.50699999999995</ele>
        <time>2021-07-10T08:55:22Z</time>
      </trkpt>
      <trkpt lat="40.956872999668121" lon="-4.107302036136389">
        <ele>974.51700000000005</ele>
        <time>2021-07-10T08:55:24Z</time>
      </trkpt>
      <trkpt lat="40.956963021308184" lon="-4.107234980911017">
        <ele>975.40800000000002</ele>
        <time>2021-07-10T08:55:25Z</time>
      </trkpt>
      <trkpt lat="40.957121020182967" lon="-4.107101960107684">
        <ele>976.44200000000001</ele>
        <time>2021-07-10T08:55:27Z</time>
      </trkpt>
      <trkpt lat="40.957272984087467" lon="-4.106943961232901">
        <ele>977.25199999999995</ele>
        <time>2021-07-10T08:55:29Z</time>
      </trkpt>
      <trkpt lat="40.957351019605994" lon="-4.106848994269967">
        <ele>977.97299999999996</ele>
        <time>2021-07-10T08:55:30Z</time>
      </trkpt>
      <trkpt lat="40.957479011267424" lon="-4.10666199401021">
        <ele>979.19899999999996</ele>
        <time>2021-07-10T08:55:32Z</time>
      </trkpt>
      <trkpt lat="40.957537014037371" lon="-4.106560992076993">
        <ele>980.07100000000003</ele>
        <time>2021-07-10T08:55:33Z</time>
      </trkpt>
      <trkpt lat="40.957589987665415" lon="-4.106455966830254">
        <ele>980.96400000000006</ele>
        <time>2021-07-10T08:55:34Z</time>
      </trkpt>
      <trkpt lat="40.957642961293459" lon="-4.106344990432262">
        <ele>981.89800000000002</ele>
        <time>2021-07-10T08:55:35Z</time>
      </trkpt>
      <trkpt lat="40.957693001255393" lon="-4.106235019862652">
        <ele>982.71699999999998</ele>
        <time>2021-07-10T08:55:36Z</time>
      </trkpt>
      <trkpt lat="40.957776987925172" lon="-4.106049025431275">
        <ele>983.34299999999996</ele>
        <time>2021-07-10T08:55:38Z</time>
      </trkpt>
      <trkpt lat="40.957818981260061" lon="-4.105962021276355">
        <ele>983.86400000000003</ele>
        <time>2021-07-10T08:55:39Z</time>
      </trkpt>
      <trkpt lat="40.957867009565234" lon="-4.10586697049439">
        <ele>984.30999999999995</ele>
        <time>2021-07-10T08:55:40Z</time>
      </trkpt>
      <trkpt lat="40.957978991791606" lon="-4.105669995769858">
        <ele>985.10799999999995</ele>
        <time>2021-07-10T08:55:42Z</time>
      </trkpt>
      <trkpt lat="40.958101032301784" lon="-4.105398003011942">
        <ele>986.09100000000001</ele>
        <time>2021-07-10T08:55:44Z</time>
      </trkpt>
      <trkpt lat="40.95815802924335" lon="-4.105257019400597">
        <ele>987.08100000000002</ele>
        <time>2021-07-10T08:55:45Z</time>
      </trkpt>
      <trkpt lat="40.958217037841678" lon="-4.105117963626981">
        <ele>987.98199999999997</ele>
        <time>2021-07-10T08:55:46Z</time>
      </trkpt>
      <trkpt lat="40.958276968449354" lon="-4.104986032471061">
        <ele>988.94799999999998</ele>
        <time>2021-07-10T08:55:47Z</time>
      </trkpt>
      <trkpt lat="40.958388028666377" lon="-4.104757038876414">
        <ele>989.96000000000004</ele>
        <time>2021-07-10T08:55:49Z</time>
      </trkpt>
      <trkpt lat="40.958428010344505" lon="-4.104673974215984">
        <ele>990.65300000000002</ele>
        <time>2021-07-10T08:55:50Z</time>
      </trkpt>
      <trkpt lat="40.958462962880731" lon="-4.104601973667741">
        <ele>991.327</ele>
        <time>2021-07-10T08:55:51Z</time>
      </trkpt>
      <trkpt lat="40.958495987579226" lon="-4.1045350022614">
        <ele>991.66600000000005</ele>
        <time>2021-07-10T08:55:52Z</time>
      </trkpt>
      <trkpt lat="40.958577040582895" lon="-4.10436199977994">
        <ele>992.31899999999996</ele>
        <time>2021-07-10T08:55:54Z</time>
      </trkpt>
      <trkpt lat="40.958683993667364" lon="-4.104140968993306">
        <ele>992.90899999999999</ele>
        <time>2021-07-10T08:55:56Z</time>
      </trkpt>
      <trkpt lat="40.958805028349161" lon="-4.103892026469111">
        <ele>993.51900000000001</ele>
        <time>2021-07-10T08:55:58Z</time>
      </trkpt>
      <trkpt lat="40.958930002525449" lon="-4.103626990690827">
        <ele>994.50800000000004</ele>
        <time>2021-07-10T08:56:00Z</time>
      </trkpt>
      <trkpt lat="40.959057994186878" lon="-4.103366984054446">
        <ele>995.15800000000002</ele>
        <time>2021-07-10T08:56:02Z</time>
      </trkpt>
      <trkpt lat="40.959201995283365" lon="-4.103109994903207">
        <ele>995.72799999999995</ele>
        <time>2021-07-10T08:56:04Z</time>
      </trkpt>
      <trkpt lat="40.959281958639622" lon="-4.102982003241777">
        <ele>996.279</ele>
        <time>2021-07-10T08:56:05Z</time>
      </trkpt>
      <trkpt lat="40.959365023300052" lon="-4.102854011580348">
        <ele>996.42499999999995</ele>
        <time>2021-07-10T08:56:06Z</time>
      </trkpt>
      <trkpt lat="40.959454039111733" lon="-4.102727025747299">
        <ele>996.76700000000005</ele>
        <time>2021-07-10T08:56:07Z</time>
      </trkpt>
      <trkpt lat="40.959641961380839" lon="-4.102479005232453">
        <ele>997.09000000000003</ele>
        <time>2021-07-10T08:56:09Z</time>
      </trkpt>
      <trkpt lat="40.959833990782499" lon="-4.102231990545988">
        <ele>997.774</ele>
        <time>2021-07-10T08:56:11Z</time>
      </trkpt>
      <trkpt lat="40.959926024079323" lon="-4.102114979177713">
        <ele>997.36300000000006</ele>
        <time>2021-07-10T08:56:12Z</time>
      </trkpt>
      <trkpt lat="40.960018979385495" lon="-4.102001991122961">
        <ele>997.12400000000002</ele>
        <time>2021-07-10T08:56:13Z</time>
      </trkpt>
      <trkpt lat="40.960201034322381" lon="-4.101797975599766">
        <ele>997.20399999999995</ele>
        <time>2021-07-10T08:56:15Z</time>
      </trkpt>
      <trkpt lat="40.96028896048665" lon="-4.101708037778735">
        <ele>997.41399999999999</ele>
        <time>2021-07-10T08:56:16Z</time>
      </trkpt>
      <trkpt lat="40.960374036803842" lon="-4.101625978946686">
        <ele>997.40800000000002</ele>
        <time>2021-07-10T08:56:17Z</time>
      </trkpt>
      <trkpt lat="40.960535975173116" lon="-4.101475020870566">
        <ele>997.62900000000002</ele>
        <time>2021-07-10T08:56:19Z</time>
      </trkpt>
      <trkpt lat="40.96060998737812" lon="-4.101406959816814">
        <ele>998.03899999999999</ele>
        <time>2021-07-10T08:56:20Z</time>
      </trkpt>
      <trkpt lat="40.960678970441222" lon="-4.101337976753712">
        <ele>998.40999999999997</ele>
        <time>2021-07-10T08:56:21Z</time>
      </trkpt>
      <trkpt lat="40.960778966546059" lon="-4.101205039769411">
        <ele>998.93600000000004</ele>
        <time>2021-07-10T08:56:23Z</time>
      </trkpt>
      <trkpt lat="40.960820959880948" lon="-4.101141002029181">
        <ele>999.15800000000002</ele>
        <time>2021-07-10T08:56:24Z</time>
      </trkpt>
      <trkpt lat="40.960875023156404" lon="-4.101085010915995">
        <ele>999.27099999999996</ele>
        <time>2021-07-10T08:56:25Z</time>
      </trkpt>
      <trkpt lat="40.960943000391126" lon="-4.101047040894628">
        <ele>999.495</ele>
        <time>2021-07-10T08:56:26Z</time>
      </trkpt>
      <trkpt lat="40.961098987609148" lon="-4.101042011752725">
        <ele>999.85400000000004</ele>
        <time>2021-07-10T08:56:28Z</time>
      </trkpt>
      <trkpt lat="40.961270984262228" lon="-4.101018039509654">
        <ele>1000.317</ele>
        <time>2021-07-10T08:56:30Z</time>
      </trkpt>
      <trkpt lat="40.961365029215813" lon="-4.100983003154397">
        <ele>1000.787</ele>
        <time>2021-07-10T08:56:31Z</time>
      </trkpt>
      <trkpt lat="40.961464019492269" lon="-4.100938998162746">
        <ele>1000.915</ele>
        <time>2021-07-10T08:56:32Z</time>
      </trkpt>
      <trkpt lat="40.961566027253866" lon="-4.100888958200812">
        <ele>1001.208</ele>
        <time>2021-07-10T08:56:33Z</time>
      </trkpt>
      <trkpt lat="40.961786974221468" lon="-4.100779993459582">
        <ele>1002.268</ele>
        <time>2021-07-10T08:56:35Z</time>
      </trkpt>
      <trkpt lat="40.962022002786398" lon="-4.100664993748069">
        <ele>1003.058</ele>
        <time>2021-07-10T08:56:37Z</time>
      </trkpt>
      <trkpt lat="40.962146976962686" lon="-4.100602967664599">
        <ele>1003.829</ele>
        <time>2021-07-10T08:56:38Z</time>
      </trkpt>
      <trkpt lat="40.962405977770686" lon="-4.100471958518028">
        <ele>1004.995</ele>
        <time>2021-07-10T08:56:40Z</time>
      </trkpt>
      <trkpt lat="40.962675036862493" lon="-4.100333992391825">
        <ele>1006.247</ele>
        <time>2021-07-10T08:56:42Z</time>
      </trkpt>
      <trkpt lat="40.962823983281851" lon="-4.100260986015201">
        <ele>1007.03</ele>
        <time>2021-07-10T08:56:43Z</time>
      </trkpt>
      <trkpt lat="40.963092036545277" lon="-4.100128971040249">
        <ele>1007.924</ele>
        <time>2021-07-10T08:56:45Z</time>
      </trkpt>
      <trkpt lat="40.963234025985003" lon="-4.100059987977147">
        <ele>1008.763</ele>
        <time>2021-07-10T08:56:46Z</time>
      </trkpt>
      <trkpt lat="40.963513981550932" lon="-4.099924033507705">
        <ele>1009.394</ele>
        <time>2021-07-10T08:56:48Z</time>
      </trkpt>
      <trkpt lat="40.963773988187313" lon="-4.099780032411218">
        <ele>1009.957</ele>
        <time>2021-07-10T08:56:50Z</time>
      </trkpt>
      <trkpt lat="40.964044975116849" lon="-4.099608035758138">
        <ele>1010.822</ele>
        <time>2021-07-10T08:56:52Z</time>
      </trkpt>
      <trkpt lat="40.964188976213336" lon="-4.099509967491031">
        <ele>1011.6079999999999</ele>
        <time>2021-07-10T08:56:53Z</time>
      </trkpt>
      <trkpt lat="40.964453006163239" lon="-4.099319027736783">
        <ele>1012.186</ele>
        <time>2021-07-10T08:56:55Z</time>
      </trkpt>
      <trkpt lat="40.964709995314479" lon="-4.099114006385207">
        <ele>1012.6559999999999</ele>
        <time>2021-07-10T08:56:57Z</time>
      </trkpt>
      <trkpt lat="40.964836981147528" lon="-4.099004035815597">
        <ele>1013.097</ele>
        <time>2021-07-10T08:56:58Z</time>
      </trkpt>
      <trkpt lat="40.965046025812626" lon="-4.098799014464021">
        <ele>1013.413</ele>
        <time>2021-07-10T08:57:00Z</time>
      </trkpt>
      <trkpt lat="40.965241994708776" lon="-4.098590975627303">
        <ele>1014.225</ele>
        <time>2021-07-10T08:57:02Z</time>
      </trkpt>
      <trkpt lat="40.965333022177219" lon="-4.098482010886073">
        <ele>1014.698</ele>
        <time>2021-07-10T08:57:03Z</time>
      </trkpt>
      <trkpt lat="40.965452967211604" lon="-4.098291993141174">
        <ele>1014.982</ele>
        <time>2021-07-10T08:57:05Z</time>
      </trkpt>
      <trkpt lat="40.965539971366525" lon="-4.098090995103121">
        <ele>1015.481</ele>
        <time>2021-07-10T08:57:07Z</time>
      </trkpt>
      <trkpt lat="40.965684978291392" lon="-4.097954034805298">
        <ele>1015.862</ele>
        <time>2021-07-10T08:57:09Z</time>
      </trkpt>
      <trkpt lat="40.965867033228278" lon="-4.097867030650377">
        <ele>1016.383</ele>
        <time>2021-07-10T08:57:11Z</time>
      </trkpt>
      <trkpt lat="40.96595898270607" lon="-4.09778899513185">
        <ele>1016.711</ele>
        <time>2021-07-10T08:57:12Z</time>
      </trkpt>
      <trkpt lat="40.966051016002893" lon="-4.097691010683775">
        <ele>1017.408</ele>
        <time>2021-07-10T08:57:13Z</time>
      </trkpt>
      <trkpt lat="40.966149000450969" lon="-4.09757299348712">
        <ele>1017.833</ele>
        <time>2021-07-10T08:57:14Z</time>
      </trkpt>
      <trkpt lat="40.966343963518739" lon="-4.097325978800654">
        <ele>1018.623</ele>
        <time>2021-07-10T08:57:16Z</time>
      </trkpt>
      <trkpt lat="40.966544039547443" lon="-4.097030013799667">
        <ele>1019.794</ele>
        <time>2021-07-10T08:57:18Z</time>
      </trkpt>
      <trkpt lat="40.966740008443594" lon="-4.096710998564959">
        <ele>1020.4299999999999</ele>
        <time>2021-07-10T08:57:20Z</time>
      </trkpt>
      <trkpt lat="40.966930026188493" lon="-4.09639198333025">
        <ele>1021.422</ele>
        <time>2021-07-10T08:57:22Z</time>
      </trkpt>
      <trkpt lat="40.967128006741405" lon="-4.096053019165993">
        <ele>1022.1950000000001</ele>
        <time>2021-07-10T08:57:24Z</time>
      </trkpt>
      <trkpt lat="40.9673129953444" lon="-4.095754036679864">
        <ele>1022.879</ele>
        <time>2021-07-10T08:57:26Z</time>
      </trkpt>
      <trkpt lat="40.967408968135715" lon="-4.095611963421106">
        <ele>1023.768</ele>
        <time>2021-07-10T08:57:27Z</time>
      </trkpt>
      <trkpt lat="40.96750502474606" lon="-4.095480032265186">
        <ele>1024.674</ele>
        <time>2021-07-10T08:57:28Z</time>
      </trkpt>
      <trkpt lat="40.967606026679277" lon="-4.095351034775376">
        <ele>1025.556</ele>
        <time>2021-07-10T08:57:29Z</time>
      </trkpt>
      <trkpt lat="40.967783974483609" lon="-4.095146013423801">
        <ele>1026.3209999999999</ele>
        <time>2021-07-10T08:57:31Z</time>
      </trkpt>
      <trkpt lat="40.967866033315659" lon="-4.095053980126977">
        <ele>1026.9079999999999</ele>
        <time>2021-07-10T08:57:32Z</time>
      </trkpt>
      <trkpt lat="40.96793401055038" lon="-4.094967981800437">
        <ele>1027.2339999999999</ele>
        <time>2021-07-10T08:57:33Z</time>
      </trkpt>
      <trkpt lat="40.967992013320327" lon="-4.094883995130658">
        <ele>1027.8440000000001</ele>
        <time>2021-07-10T08:57:34Z</time>
      </trkpt>
      <trkpt lat="40.968062002211809" lon="-4.094732031226158">
        <ele>1027.655</ele>
        <time>2021-07-10T08:57:36Z</time>
      </trkpt>
      <trkpt lat="40.968151018023491" lon="-4.094594987109304">
        <ele>1027.8510000000001</ele>
        <time>2021-07-10T08:57:38Z</time>
      </trkpt>
      <trkpt lat="40.968224024400115" lon="-4.094564979895949">
        <ele>1028.3330000000001</ele>
        <time>2021-07-10T08:57:39Z</time>
      </trkpt>
      <trkpt lat="40.968370037153363" lon="-4.094563974067569">
        <ele>1028.5160000000001</ele>
        <time>2021-07-10T08:57:41Z</time>
      </trkpt>
      <trkpt lat="40.968533987179399" lon="-4.094493985176086">
        <ele>1028.97</ele>
        <time>2021-07-10T08:57:43Z</time>
      </trkpt>
      <trkpt lat="40.968630965799093" lon="-4.094433970749378">
        <ele>1029.1890000000001</ele>
        <time>2021-07-10T08:57:44Z</time>
      </trkpt>
      <trkpt lat="40.968827018514276" lon="-4.094308996573091">
        <ele>1029.3530000000001</ele>
        <time>2021-07-10T08:57:46Z</time>
      </trkpt>
      <trkpt lat="40.968939000740647" lon="-4.094234984368086">
        <ele>1029.5039999999999</ele>
        <time>2021-07-10T08:57:47Z</time>
      </trkpt>
      <trkpt lat="40.969054000452161" lon="-4.094152003526688">
        <ele>1029.7139999999999</ele>
        <time>2021-07-10T08:57:48Z</time>
      </trkpt>
      <trkpt lat="40.969176040962338" lon="-4.094056030735374">
        <ele>1030.008</ele>
        <time>2021-07-10T08:57:49Z</time>
      </trkpt>
      <trkpt lat="40.96928802318871" lon="-4.093957040458918">
        <ele>1030.2619999999999</ele>
        <time>2021-07-10T08:57:50Z</time>
      </trkpt>
      <trkpt lat="40.969479968771338" lon="-4.093737015500665">
        <ele>1030.5820000000001</ele>
        <time>2021-07-10T08:57:52Z</time>
      </trkpt>
      <trkpt lat="40.969570996239781" lon="-4.093613969162107">
        <ele>1030.923</ele>
        <time>2021-07-10T08:57:53Z</time>
      </trkpt>
      <trkpt lat="40.969749027863145" lon="-4.093320015817881">
        <ele>1031.3589999999999</ele>
        <time>2021-07-10T08:57:55Z</time>
      </trkpt>
      <trkpt lat="40.969919012859464" lon="-4.09301701001823">
        <ele>1031.731</ele>
        <time>2021-07-10T08:57:57Z</time>
      </trkpt>
      <trkpt lat="40.97010500729084" lon="-4.092680979520083">
        <ele>1032.694</ele>
        <time>2021-07-10T08:57:59Z</time>
      </trkpt>
      <trkpt lat="40.97029997035861" lon="-4.0923329629004">
        <ele>1033.328</ele>
        <time>2021-07-10T08:58:01Z</time>
      </trkpt>
      <trkpt lat="40.970401978120208" lon="-4.09215996041894">
        <ele>1034.1369999999999</ele>
        <time>2021-07-10T08:58:02Z</time>
      </trkpt>
      <trkpt lat="40.970618985593319" lon="-4.09183599986136">
        <ele>1034.6220000000001</ele>
        <time>2021-07-10T08:58:04Z</time>
      </trkpt>
      <trkpt lat="40.970731973648071" lon="-4.091680012643337">
        <ele>1034.962</ele>
        <time>2021-07-10T08:58:05Z</time>
      </trkpt>
      <trkpt lat="40.970944035798311" lon="-4.091398967429996">
        <ele>1035.1079999999999</ele>
        <time>2021-07-10T08:58:07Z</time>
      </trkpt>
      <trkpt lat="40.971143022179604" lon="-4.091125968843699">
        <ele>1035.4079999999999</ele>
        <time>2021-07-10T08:58:09Z</time>
      </trkpt>
      <trkpt lat="40.971232960000634" lon="-4.090983979403973">
        <ele>1035.549</ele>
        <time>2021-07-10T08:58:10Z</time>
      </trkpt>
      <trkpt lat="40.971319964155555" lon="-4.090841989964247">
        <ele>1035.6590000000001</ele>
        <time>2021-07-10T08:58:11Z</time>
      </trkpt>
      <trkpt lat="40.971478968858719" lon="-4.090551976114512">
        <ele>1035.8099999999999</ele>
        <time>2021-07-10T08:58:13Z</time>
      </trkpt>
      <trkpt lat="40.971549041569233" lon="-4.090405963361263">
        <ele>1036.046</ele>
        <time>2021-07-10T08:58:14Z</time>
      </trkpt>
      <trkpt lat="40.971616012975574" lon="-4.090261962264776">
        <ele>1036.1379999999999</ele>
        <time>2021-07-10T08:58:15Z</time>
      </trkpt>
      <trkpt lat="40.971686001867056" lon="-4.090113015845418">
        <ele>1036.251</ele>
        <time>2021-07-10T08:58:16Z</time>
      </trkpt>
      <trkpt lat="40.971809970214963" lon="-4.089855020865798">
        <ele>1036.5450000000001</ele>
        <time>2021-07-10T08:58:18Z</time>
      </trkpt>
      <trkpt lat="40.971925975754857" lon="-4.089614963158965">
        <ele>1036.5940000000001</ele>
        <time>2021-07-10T08:58:20Z</time>
      </trkpt>
      <trkpt lat="40.971998982131481" lon="-4.089421005919576">
        <ele>1037.173</ele>
        <time>2021-07-10T08:58:22Z</time>
      </trkpt>
      <trkpt lat="40.972018009051681" lon="-4.089334001764655">
        <ele>1037.385</ele>
        <time>2021-07-10T08:58:23Z</time>
      </trkpt>
      <trkpt lat="40.972028989344835" lon="-4.08917298540473">
        <ele>1037.8130000000001</ele>
        <time>2021-07-10T08:58:25Z</time>
      </trkpt>
      <trkpt lat="40.972042987123132" lon="-4.089099979028106">
        <ele>1038.1079999999999</ele>
        <time>2021-07-10T08:58:26Z</time>
      </trkpt>
      <trkpt lat="40.972071988508105" lon="-4.089037030935288">
        <ele>1038.5740000000001</ele>
        <time>2021-07-10T08:58:27Z</time>
      </trkpt>
      <trkpt lat="40.972178019583225" lon="-4.088944997638464">
        <ele>1038.7139999999999</ele>
        <time>2021-07-10T08:58:29Z</time>
      </trkpt>
      <trkpt lat="40.972242979332805" lon="-4.0888930298388">
        <ele>1039.385</ele>
        <time>2021-07-10T08:58:30Z</time>
      </trkpt>
      <trkpt lat="40.972331995144486" lon="-4.088732013478875">
        <ele>1040.1110000000001</ele>
        <time>2021-07-10T08:58:32Z</time>
      </trkpt>
      <trkpt lat="40.972389997914433" lon="-4.088502014055848">
        <ele>1041.223</ele>
        <time>2021-07-10T08:58:34Z</time>
      </trkpt>
      <trkpt lat="40.972411958500743" lon="-4.088371004909277">
        <ele>1041.9860000000001</ele>
        <time>2021-07-10T08:58:35Z</time>
      </trkpt>
      <trkpt lat="40.972452023997903" lon="-4.088095994666219">
        <ele>1042.6600000000001</ele>
        <time>2021-07-10T08:58:37Z</time>
      </trkpt>
      <trkpt lat="40.972498040646315" lon="-4.087784020230174">
        <ele>1043.9590000000001</ele>
        <time>2021-07-10T08:58:39Z</time>
      </trkpt>
      <trkpt lat="40.972542967647314" lon="-4.087459975853562">
        <ele>1045.393</ele>
        <time>2021-07-10T08:58:41Z</time>
      </trkpt>
      <trkpt lat="40.972586972638965" lon="-4.08715495839715">
        <ele>1046.5650000000001</ele>
        <time>2021-07-10T08:58:43Z</time>
      </trkpt>
      <trkpt lat="40.972624020650983" lon="-4.086875002831221">
        <ele>1047.3209999999999</ele>
        <time>2021-07-10T08:58:45Z</time>
      </trkpt>
      <trkpt lat="40.972627960145473" lon="-4.086758997291327">
        <ele>1047.808</ele>
        <time>2021-07-10T08:58:46Z</time>
      </trkpt>
      <trkpt lat="40.972582027316093" lon="-4.086623964831233">
        <ele>1048.096</ele>
        <time>2021-07-10T08:58:48Z</time>
      </trkpt>
      <trkpt lat="40.972460992634296" lon="-4.086502008140087">
        <ele>1048.5360000000001</ele>
        <time>2021-07-10T08:58:50Z</time>
      </trkpt>
      <trkpt lat="40.972401984035969" lon="-4.086417015641928">
        <ele>1048.7170000000001</ele>
        <time>2021-07-10T08:58:51Z</time>
      </trkpt>
      <trkpt lat="40.972359990701079" lon="-4.086306039243937">
        <ele>1048.7729999999999</ele>
        <time>2021-07-10T08:58:52Z</time>
      </trkpt>
      <trkpt lat="40.972348004579544" lon="-4.086070004850626">
        <ele>1049.175</ele>
        <time>2021-07-10T08:58:54Z</time>
      </trkpt>
      <trkpt lat="40.972398966550827" lon="-4.085805974900723">
        <ele>1049.8979999999999</ele>
        <time>2021-07-10T08:58:56Z</time>
      </trkpt>
      <trkpt lat="40.972499968484044" lon="-4.085567006841302">
        <ele>1050.8320000000001</ele>
        <time>2021-07-10T08:58:58Z</time>
      </trkpt>
      <trkpt lat="40.972658973187208" lon="-4.085387969389558">
        <ele>1051.491</ele>
        <time>2021-07-10T08:59:00Z</time>
      </trkpt>
      <trkpt lat="40.972759975120425" lon="-4.085334995761514">
        <ele>1051.636</ele>
        <time>2021-07-10T08:59:01Z</time>
      </trkpt>
      <trkpt lat="40.972926020622253" lon="-4.085246985778213">
        <ele>1052.317</ele>
        <time>2021-07-10T08:59:03Z</time>
      </trkpt>
      <trkpt lat="40.972985029220581" lon="-4.085158975794911">
        <ele>1052.518</ele>
        <time>2021-07-10T08:59:04Z</time>
      </trkpt>
      <trkpt lat="40.973016964271665" lon="-4.085042970255017">
        <ele>1051.9079999999999</ele>
        <time>2021-07-10T08:59:05Z</time>
      </trkpt>
      <trkpt lat="40.973031967878342" lon="-4.084907015785575">
        <ele>1052.3800000000001</ele>
        <time>2021-07-10T08:59:06Z</time>
      </trkpt>
      <trkpt lat="40.973041020333767" lon="-4.084598980844021">
        <ele>1052.6199999999999</ele>
        <time>2021-07-10T08:59:08Z</time>
      </trkpt>
      <trkpt lat="40.973020987585187" lon="-4.084254987537861">
        <ele>1053.1210000000001</ele>
        <time>2021-07-10T08:59:10Z</time>
      </trkpt>
      <trkpt lat="40.972995003685355" lon="-4.084062958136201">
        <ele>1053.6369999999999</ele>
        <time>2021-07-10T08:59:11Z</time>
      </trkpt>
      <trkpt lat="40.972913028672338" lon="-4.08371795900166">
        <ele>1054.7190000000001</ele>
        <time>2021-07-10T08:59:13Z</time>
      </trkpt>
      <trkpt lat="40.972862988710403" lon="-4.083539005368948">
        <ele>1055.972</ele>
        <time>2021-07-10T08:59:14Z</time>
      </trkpt>
      <trkpt lat="40.972823007032275" lon="-4.083357034251094">
        <ele>1056.896</ele>
        <time>2021-07-10T08:59:15Z</time>
      </trkpt>
      <trkpt lat="40.972799034789205" lon="-4.083159975707531">
        <ele>1057.7550000000001</ele>
        <time>2021-07-10T08:59:16Z</time>
      </trkpt>
      <trkpt lat="40.972792999818921" lon="-4.082960989326239">
        <ele>1058.556</ele>
        <time>2021-07-10T08:59:17Z</time>
      </trkpt>
      <trkpt lat="40.972829964011908" lon="-4.08257600851357">
        <ele>1059.4590000000001</ele>
        <time>2021-07-10T08:59:19Z</time>
      </trkpt>
      <trkpt lat="40.972875980660319" lon="-4.082375010475516">
        <ele>1060.2139999999999</ele>
        <time>2021-07-10T08:59:20Z</time>
      </trkpt>
      <trkpt lat="40.973025010898709" lon="-4.081975026056171">
        <ele>1060.808</ele>
        <time>2021-07-10T08:59:22Z</time>
      </trkpt>
      <trkpt lat="40.973204970359802" lon="-4.081613011658192">
        <ele>1061.6320000000001</ele>
        <time>2021-07-10T08:59:24Z</time>
      </trkpt>
      <trkpt lat="40.973404040560126" lon="-4.081227025017142">
        <ele>1062.5419999999999</ele>
        <time>2021-07-10T08:59:26Z</time>
      </trkpt>
      <trkpt lat="40.973511999472976" lon="-4.081024015322328">
        <ele>1063.3230000000001</ele>
        <time>2021-07-10T08:59:27Z</time>
      </trkpt>
      <trkpt lat="40.973719032481313" lon="-4.080678010359407">
        <ele>1063.9690000000001</ele>
        <time>2021-07-10T08:59:29Z</time>
      </trkpt>
      <trkpt lat="40.973841995000839" lon="-4.080509031191468">
        <ele>1064.181</ele>
        <time>2021-07-10T08:59:30Z</time>
      </trkpt>
      <trkpt lat="40.97412102855742" lon="-4.080214994028211">
        <ele>1064.4939999999999</ele>
        <time>2021-07-10T08:59:32Z</time>
      </trkpt>
      <trkpt lat="40.974421016871929" lon="-4.07997602596879">
        <ele>1064.9179999999999</ele>
        <time>2021-07-10T08:59:34Z</time>
      </trkpt>
      <trkpt lat="40.974581027403474" lon="-4.079853985458612">
        <ele>1065.617</ele>
        <time>2021-07-10T08:59:35Z</time>
      </trkpt>
      <trkpt lat="40.974916974082589" lon="-4.079604959115386">
        <ele>1066.8589999999999</ele>
        <time>2021-07-10T08:59:37Z</time>
      </trkpt>
      <trkpt lat="40.975241018459201" lon="-4.079358028247953">
        <ele>1068.3030000000001</ele>
        <time>2021-07-10T08:59:39Z</time>
      </trkpt>
      <trkpt lat="40.975576965138316" lon="-4.079088969156146">
        <ele>1070.3230000000001</ele>
        <time>2021-07-10T08:59:41Z</time>
      </trkpt>
      <trkpt lat="40.975751979276538" lon="-4.078954020515084">
        <ele>1072.008</ele>
        <time>2021-07-10T08:59:42Z</time>
      </trkpt>
      <trkpt lat="40.975935040041804" lon="-4.078812031075358">
        <ele>1073.3320000000001</ele>
        <time>2021-07-10T08:59:43Z</time>
      </trkpt>
      <trkpt lat="40.976266963407397" lon="-4.078539032489061">
        <ele>1075.0519999999999</ele>
        <time>2021-07-10T08:59:45Z</time>
      </trkpt>
      <trkpt lat="40.976606011390686" lon="-4.078208031132817">
        <ele>1076.913</ele>
        <time>2021-07-10T08:59:47Z</time>
      </trkpt>
      <trkpt lat="40.976769961416721" lon="-4.078025976195931">
        <ele>1078.6890000000001</ele>
        <time>2021-07-10T08:59:48Z</time>
      </trkpt>
      <trkpt lat="40.977063998579979" lon="-4.077625991776586">
        <ele>1080.421</ele>
        <time>2021-07-10T08:59:50Z</time>
      </trkpt>
      <trkpt lat="40.977333979681134" lon="-4.077169010415673">
        <ele>1082.5640000000001</ele>
        <time>2021-07-10T08:59:52Z</time>
      </trkpt>
      <trkpt lat="40.977549981325865" lon="-4.076723009347916">
        <ele>1084.838</ele>
        <time>2021-07-10T08:59:54Z</time>
      </trkpt>
      <trkpt lat="40.977657018229365" lon="-4.076477000489831">
        <ele>1086.6969999999999</ele>
        <time>2021-07-10T08:59:55Z</time>
      </trkpt>
      <trkpt lat="40.977762965485454" lon="-4.076227974146605">
        <ele>1088.1179999999999</ele>
        <time>2021-07-10T08:59:56Z</time>
      </trkpt>
      <trkpt lat="40.977987013757229" lon="-4.075698992237449">
        <ele>1089.8979999999999</ele>
        <time>2021-07-10T08:59:58Z</time>
      </trkpt>
      <trkpt lat="40.97820402123034" lon="-4.075187025591731">
        <ele>1091.4169999999999</ele>
        <time>2021-07-10T09:00:00Z</time>
      </trkpt>
      <trkpt lat="40.978437038138509" lon="-4.074651002883911">
        <ele>1092.808</ele>
        <time>2021-07-10T09:00:02Z</time>
      </trkpt>
      <trkpt lat="40.978647004812956" lon="-4.074164014309645">
        <ele>1093.8779999999999</ele>
        <time>2021-07-10T09:00:04Z</time>
      </trkpt>
      <trkpt lat="40.978760998696089" lon="-4.073907025158405">
        <ele>1094.3979999999999</ele>
        <time>2021-07-10T09:00:05Z</time>
      </trkpt>
      <trkpt lat="40.978980017825961" lon="-4.073398998007178">
        <ele>1094.9490000000001</ele>
        <time>2021-07-10T09:00:07Z</time>
      </trkpt>
      <trkpt lat="40.979093005880713" lon="-4.073137985542417">
        <ele>1095.2850000000001</ele>
        <time>2021-07-10T09:00:08Z</time>
      </trkpt>
      <trkpt lat="40.979296015575528" lon="-4.072669018059969">
        <ele>1095.5170000000001</ele>
        <time>2021-07-10T09:00:10Z</time>
      </trkpt>
      <trkpt lat="40.979506988078356" lon="-4.072182029485703">
        <ele>1095.71</ele>
        <time>2021-07-10T09:00:12Z</time>
      </trkpt>
      <trkpt lat="40.979613019153476" lon="-4.071937026455998">
        <ele>1096.0940000000001</ele>
        <time>2021-07-10T09:00:13Z</time>
      </trkpt>
      <trkpt lat="40.979721983894706" lon="-4.071685988456011">
        <ele>1096.3630000000001</ele>
        <time>2021-07-10T09:00:14Z</time>
      </trkpt>
      <trkpt lat="40.979928011074662" lon="-4.071220960468054">
        <ele>1096.193</ele>
        <time>2021-07-10T09:00:16Z</time>
      </trkpt>
      <trkpt lat="40.980033036321402" lon="-4.070986015722156">
        <ele>1096.0650000000001</ele>
        <time>2021-07-10T09:00:17Z</time>
      </trkpt>
      <trkpt lat="40.980249037966132" lon="-4.070504978299141">
        <ele>1096.1210000000001</ele>
        <time>2021-07-10T09:00:19Z</time>
      </trkpt>
      <trkpt lat="40.980471996590495" lon="-4.070041961967945">
        <ele>1096.308</ele>
        <time>2021-07-10T09:00:21Z</time>
      </trkpt>
      <trkpt lat="40.98059001378715" lon="-4.069811962544918">
        <ele>1096.556</ele>
        <time>2021-07-10T09:00:22Z</time>
      </trkpt>
      <trkpt lat="40.980833005160093" lon="-4.06936202198267">
        <ele>1096.066</ele>
        <time>2021-07-10T09:00:24Z</time>
      </trkpt>
      <trkpt lat="40.981079014018178" lon="-4.068920966237783">
        <ele>1095.367</ele>
        <time>2021-07-10T09:00:26Z</time>
      </trkpt>
      <trkpt lat="40.981322005391121" lon="-4.068489968776703">
        <ele>1094.923</ele>
        <time>2021-07-10T09:00:28Z</time>
      </trkpt>
      <trkpt lat="40.98144899122417" lon="-4.068254018202424">
        <ele>1094.425</ele>
        <time>2021-07-10T09:00:29Z</time>
      </trkpt>
      <trkpt lat="40.981668010354042" lon="-4.067804999649525">
        <ele>1093.068</ele>
        <time>2021-07-10T09:00:31Z</time>
      </trkpt>
      <trkpt lat="40.981868002563715" lon="-4.067313987761736">
        <ele>1092.1420000000001</ele>
        <time>2021-07-10T09:00:33Z</time>
      </trkpt>
      <trkpt lat="40.982020972296596" lon="-4.066816018894315">
        <ele>1091.751</ele>
        <time>2021-07-10T09:00:35Z</time>
      </trkpt>
      <trkpt lat="40.982147958129644" lon="-4.066293993964791">
        <ele>1091.5840000000001</ele>
        <time>2021-07-10T09:00:37Z</time>
      </trkpt>
      <trkpt lat="40.982208978384733" lon="-4.066019989550114">
        <ele>1091.307</ele>
        <time>2021-07-10T09:00:38Z</time>
      </trkpt>
      <trkpt lat="40.982264969497919" lon="-4.065758977085352">
        <ele>1091.2170000000001</ele>
        <time>2021-07-10T09:00:39Z</time>
      </trkpt>
      <trkpt lat="40.982375023886561" lon="-4.065254973247647">
        <ele>1091.508</ele>
        <time>2021-07-10T09:00:41Z</time>
      </trkpt>
      <trkpt lat="40.98243503831327" lon="-4.064985997974873">
        <ele>1091.7249999999999</ele>
        <time>2021-07-10T09:00:42Z</time>
      </trkpt>
      <trkpt lat="40.982553977519274" lon="-4.064457016065717">
        <ele>1092.395</ele>
        <time>2021-07-10T09:00:44Z</time>
      </trkpt>
      <trkpt lat="40.982666965574026" lon="-4.063957035541534">
        <ele>1093.2460000000001</ele>
        <time>2021-07-10T09:00:46Z</time>
      </trkpt>
      <trkpt lat="40.982724968343973" lon="-4.063698034733534">
        <ele>1094.0820000000001</ele>
        <time>2021-07-10T09:00:47Z</time>
      </trkpt>
      <trkpt lat="40.98278297111392" lon="-4.063441967591643">
        <ele>1094.654</ele>
        <time>2021-07-10T09:00:48Z</time>
      </trkpt>
      <trkpt lat="40.982841979712248" lon="-4.06317600980401">
        <ele>1095.2170000000001</ele>
        <time>2021-07-10T09:00:49Z</time>
      </trkpt>
      <trkpt lat="40.982944993302226" lon="-4.06268298625946">
        <ele>1096.1410000000001</ele>
        <time>2021-07-10T09:00:51Z</time>
      </trkpt>
      <trkpt lat="40.983021017163992" lon="-4.062160961329937">
        <ele>1096.9200000000001</ele>
        <time>2021-07-10T09:00:53Z</time>
      </trkpt>
      <trkpt lat="40.983050018548965" lon="-4.061869019642472">
        <ele>1097.414</ele>
        <time>2021-07-10T09:00:54Z</time>
      </trkpt>
      <trkpt lat="40.9830810315907" lon="-4.061310030519962">
        <ele>1098.0540000000001</ele>
        <time>2021-07-10T09:00:56Z</time>
      </trkpt>
      <trkpt lat="40.983086982741952" lon="-4.061008030548692">
        <ele>1098.6089999999999</ele>
        <time>2021-07-10T09:00:57Z</time>
      </trkpt>
      <trkpt lat="40.983091006055474" lon="-4.060699995607138">
        <ele>1099.008</ele>
        <time>2021-07-10T09:00:58Z</time>
      </trkpt>
      <trkpt lat="40.983096035197377" lon="-4.060075962916017">
        <ele>1099.4480000000001</ele>
        <time>2021-07-10T09:01:00Z</time>
      </trkpt>
      <trkpt lat="40.983093017712235" lon="-4.05975996516645">
        <ele>1099.8979999999999</ele>
        <time>2021-07-10T09:01:01Z</time>
      </trkpt>
      <trkpt lat="40.983086982741952" lon="-4.059134004637599">
        <ele>1100.079</ele>
        <time>2021-07-10T09:01:03Z</time>
      </trkpt>
      <trkpt lat="40.983084971085191" lon="-4.058812977746129">
        <ele>1099.5550000000001</ele>
        <time>2021-07-10T09:01:04Z</time>
      </trkpt>
      <trkpt lat="40.983090000227094" lon="-4.058176958933473">
        <ele>1099.4169999999999</ele>
        <time>2021-07-10T09:01:06Z</time>
      </trkpt>
      <trkpt lat="40.983096035197377" lon="-4.057556027546525">
        <ele>1099.54</ele>
        <time>2021-07-10T09:01:08Z</time>
      </trkpt>
      <trkpt lat="40.983099974691868" lon="-4.057251010090113">
        <ele>1099.8440000000001</ele>
        <time>2021-07-10T09:01:09Z</time>
      </trkpt>
      <trkpt lat="40.983141968026757" lon="-4.056663019582629">
        <ele>1100.2629999999999</ele>
        <time>2021-07-10T09:01:11Z</time>
      </trkpt>
      <trkpt lat="40.983261996880174" lon="-4.056114004924893">
        <ele>1100.9770000000001</ele>
        <time>2021-07-10T09:01:13Z</time>
      </trkpt>
      <trkpt lat="40.983358975499868" lon="-4.055837988853455">
        <ele>1101.461</ele>
        <time>2021-07-10T09:01:14Z</time>
      </trkpt>
      <trkpt lat="40.983452014625072" lon="-4.055588962510228">
        <ele>1102.027</ele>
        <time>2021-07-10T09:01:15Z</time>
      </trkpt>
      <trkpt lat="40.983627028763294" lon="-4.055110020563006">
        <ele>1103.008</ele>
        <time>2021-07-10T09:01:17Z</time>
      </trkpt>
      <trkpt lat="40.983715038746595" lon="-4.054863005876541">
        <ele>1103.924</ele>
        <time>2021-07-10T09:01:18Z</time>
      </trkpt>
      <trkpt lat="40.983797013759613" lon="-4.054620014503598">
        <ele>1104.8240000000001</ele>
        <time>2021-07-10T09:01:19Z</time>
      </trkpt>
      <trkpt lat="40.98387798294425" lon="-4.054375011473894">
        <ele>1105.7149999999999</ele>
        <time>2021-07-10T09:01:20Z</time>
      </trkpt>
      <trkpt lat="40.98400698043406" lon="-4.053934039548039">
        <ele>1106.921</ele>
        <time>2021-07-10T09:01:22Z</time>
      </trkpt>
      <trkpt lat="40.984066994860768" lon="-4.053702028468251">
        <ele>1107.883</ele>
        <time>2021-07-10T09:01:23Z</time>
      </trkpt>
      <trkpt lat="40.984126003459096" lon="-4.053460964933038">
        <ele>1108.626</ele>
        <time>2021-07-10T09:01:24Z</time>
      </trkpt>
      <trkpt lat="40.984180988743901" lon="-4.053217973560095">
        <ele>1109.24</ele>
        <time>2021-07-10T09:01:25Z</time>
      </trkpt>
      <trkpt lat="40.984280984848738" lon="-4.052761998027563">
        <ele>1109.7190000000001</ele>
        <time>2021-07-10T09:01:27Z</time>
      </trkpt>
      <trkpt lat="40.984337981790304" lon="-4.052521018311381">
        <ele>1109.9449999999999</ele>
        <time>2021-07-10T09:01:28Z</time>
      </trkpt>
      <trkpt lat="40.984394978731871" lon="-4.052277021110058">
        <ele>1109.847</ele>
        <time>2021-07-10T09:01:29Z</time>
      </trkpt>
      <trkpt lat="40.98445700481534" lon="-4.052012991160154">
        <ele>1109.3109999999999</ele>
        <time>2021-07-10T09:01:30Z</time>
      </trkpt>
      <trkpt lat="40.984564963728189" lon="-4.051527008414269">
        <ele>1109.1079999999999</ele>
        <time>2021-07-10T09:01:32Z</time>
      </trkpt>
      <trkpt lat="40.984682980924845" lon="-4.051005989313126">
        <ele>1108.8810000000001</ele>
        <time>2021-07-10T09:01:34Z</time>
      </trkpt>
      <trkpt lat="40.984745007008314" lon="-4.050733996555209">
        <ele>1108.921</ele>
        <time>2021-07-10T09:01:35Z</time>
      </trkpt>
      <trkpt lat="40.984856989234686" lon="-4.05024197883904">
        <ele>1108.992</ele>
        <time>2021-07-10T09:01:37Z</time>
      </trkpt>
      <trkpt lat="40.984981041401625" lon="-4.04972699470818">
        <ele>1109.6980000000001</ele>
        <time>2021-07-10T09:01:39Z</time>
      </trkpt>
      <trkpt lat="40.985040972009301" lon="-4.049476040527225">
        <ele>1110.04</ele>
        <time>2021-07-10T09:01:40Z</time>
      </trkpt>
      <trkpt lat="40.98510199226439" lon="-4.049222990870476">
        <ele>1110.143</ele>
        <time>2021-07-10T09:01:41Z</time>
      </trkpt>
      <trkpt lat="40.985210034996271" lon="-4.048738013952971">
        <ele>1110.4870000000001</ele>
        <time>2021-07-10T09:01:43Z</time>
      </trkpt>
      <trkpt lat="40.985300978645682" lon="-4.048247002065182">
        <ele>1110.6559999999999</ele>
        <time>2021-07-10T09:01:45Z</time>
      </trkpt>
      <trkpt lat="40.985351018607616" lon="-4.047787003219128">
        <ele>1111.1949999999999</ele>
        <time>2021-07-10T09:01:47Z</time>
      </trkpt>
      <trkpt lat="40.98538001999259" lon="-4.047322981059551">
        <ele>1111.749</ele>
        <time>2021-07-10T09:01:49Z</time>
      </trkpt>
      <trkpt lat="40.985385971143842" lon="-4.047091975808144">
        <ele>1112.223</ele>
        <time>2021-07-10T09:01:50Z</time>
      </trkpt>
      <trkpt lat="40.985386976972222" lon="-4.046871028840542">
        <ele>1112.508</ele>
        <time>2021-07-10T09:01:51Z</time>
      </trkpt>
      <trkpt lat="40.985388988628983" lon="-4.046441959217191">
        <ele>1112.6859999999999</ele>
        <time>2021-07-10T09:01:53Z</time>
      </trkpt>
      <trkpt lat="40.985382031649351" lon="-4.045973997563124">
        <ele>1112.2660000000001</ele>
        <time>2021-07-10T09:01:55Z</time>
      </trkpt>
      <trkpt lat="40.985371973365545" lon="-4.045510981231928">
        <ele>1112.067</ele>
        <time>2021-07-10T09:01:57Z</time>
      </trkpt>
      <trkpt lat="40.985369039699435" lon="-4.045047964900732">
        <ele>1111.6130000000001</ele>
        <time>2021-07-10T09:01:59Z</time>
      </trkpt>
      <trkpt lat="40.985368033871055" lon="-4.044815031811595">
        <ele>1111.175</ele>
        <time>2021-07-10T09:02:00Z</time>
      </trkpt>
      <trkpt lat="40.985365016385913" lon="-4.044331982731819">
        <ele>1110.4880000000001</ele>
        <time>2021-07-10T09:02:02Z</time>
      </trkpt>
      <trkpt lat="40.985360993072391" lon="-4.043868966400623">
        <ele>1109.8320000000001</ele>
        <time>2021-07-10T09:02:04Z</time>
      </trkpt>
      <trkpt lat="40.98535998724401" lon="-4.043623963370919">
        <ele>1109.451</ele>
        <time>2021-07-10T09:02:05Z</time>
      </trkpt>
      <trkpt lat="40.985369039699435" lon="-4.043157007545233">
        <ele>1109.2260000000001</ele>
        <time>2021-07-10T09:02:07Z</time>
      </trkpt>
      <trkpt lat="40.985393011942506" lon="-4.042694997042418">
        <ele>1109.047</ele>
        <time>2021-07-10T09:02:09Z</time>
      </trkpt>
      <trkpt lat="40.985416984185576" lon="-4.042467009276152">
        <ele>1108.9110000000001</ele>
        <time>2021-07-10T09:02:10Z</time>
      </trkpt>
      <trkpt lat="40.985450008884072" lon="-4.042243966832757">
        <ele>1109.1079999999999</ele>
        <time>2021-07-10T09:02:11Z</time>
      </trkpt>
      <trkpt lat="40.98553198389709" lon="-4.041836019605398">
        <ele>1109.789</ele>
        <time>2021-07-10T09:02:13Z</time>
      </trkpt>
      <trkpt lat="40.985584035515785" lon="-4.041638961061835">
        <ele>1110.3689999999999</ele>
        <time>2021-07-10T09:02:14Z</time>
      </trkpt>
      <trkpt lat="40.985640026628971" lon="-4.041449027135968">
        <ele>1110.95</ele>
        <time>2021-07-10T09:02:15Z</time>
      </trkpt>
      <trkpt lat="40.985763994976878" lon="-4.041096987202764">
        <ele>1112.096</ele>
        <time>2021-07-10T09:02:17Z</time>
      </trkpt>
      <trkpt lat="40.985831972211599" lon="-4.040930019691587">
        <ele>1112.748</ele>
        <time>2021-07-10T09:02:18Z</time>
      </trkpt>
      <trkpt lat="40.985971027985215" lon="-4.040625002235174">
        <ele>1113.5509999999999</ele>
        <time>2021-07-10T09:02:20Z</time>
      </trkpt>
      <trkpt lat="40.986108994111419" lon="-4.0403370000422">
        <ele>1114.2550000000001</ele>
        <time>2021-07-10T09:02:22Z</time>
      </trkpt>
      <trkpt lat="40.986215025186539" lon="-4.040089985355735">
        <ele>1115.0340000000001</ele>
        <time>2021-07-10T09:02:24Z</time>
      </trkpt>
      <trkpt lat="40.98626003600657" lon="-4.039984960108995">
        <ele>1115.8309999999999</ele>
        <time>2021-07-10T09:02:25Z</time>
      </trkpt>
      <trkpt lat="40.986330024898052" lon="-4.039834002032876">
        <ele>1116.761</ele>
        <time>2021-07-10T09:02:27Z</time>
      </trkpt>
      <trkpt lat="40.9863690007478" lon="-4.039764013141394">
        <ele>1117.607</ele>
        <time>2021-07-10T09:03:20Z</time>
      </trkpt>
      <trkpt lat="40.986424991860986" lon="-4.039685977622867">
        <ele>1118.508</ele>
        <time>2021-07-10T09:03:22Z</time>
      </trkpt>
      <trkpt lat="40.986459022387862" lon="-4.039637027308345">
        <ele>1118.8399999999999</ele>
        <time>2021-07-10T09:03:23Z</time>
      </trkpt>
      <trkpt lat="40.986493974924088" lon="-4.039581036195159">
        <ele>1119.27</ele>
        <time>2021-07-10T09:03:24Z</time>
      </trkpt>
      <trkpt lat="40.986572010442615" lon="-4.039441980421543">
        <ele>1119.6310000000001</ele>
        <time>2021-07-10T09:03:26Z</time>
      </trkpt>
      <trkpt lat="40.986662032082677" lon="-4.039268977940083">
        <ele>1120.1669999999999</ele>
        <time>2021-07-10T09:03:28Z</time>
      </trkpt>
      <trkpt lat="40.986718023195863" lon="-4.039164036512375">
        <ele>1120.6690000000001</ele>
        <time>2021-07-10T09:03:29Z</time>
      </trkpt>
      <trkpt lat="40.986787006258965" lon="-4.039035961031914">
        <ele>1121.0719999999999</ele>
        <time>2021-07-10T09:03:30Z</time>
      </trkpt>
      <trkpt lat="40.98686303012073" lon="-4.038890032097697">
        <ele>1121.5360000000001</ele>
        <time>2021-07-10T09:03:31Z</time>
      </trkpt>
      <trkpt lat="40.986941987648606" lon="-4.038739996030927">
        <ele>1121.9349999999999</ele>
        <time>2021-07-10T09:03:32Z</time>
      </trkpt>
      <trkpt lat="40.987115995958447" lon="-4.038408994674683">
        <ele>1122.396</ele>
        <time>2021-07-10T09:03:34Z</time>
      </trkpt>
      <trkpt lat="40.98729201592505" lon="-4.038071958348155">
        <ele>1122.431</ele>
        <time>2021-07-10T09:03:36Z</time>
      </trkpt>
      <trkpt lat="40.987382037565112" lon="-4.037899039685726">
        <ele>1122.624</ele>
        <time>2021-07-10T09:03:37Z</time>
      </trkpt>
      <trkpt lat="40.987471975386143" lon="-4.037725031375885">
        <ele>1122.808</ele>
        <time>2021-07-10T09:03:38Z</time>
      </trkpt>
      <trkpt lat="40.987649001181126" lon="-4.037381960079074">
        <ele>1122.9760000000001</ele>
        <time>2021-07-10T09:03:40Z</time>
      </trkpt>
      <trkpt lat="40.98783097229898" lon="-4.037030003964901">
        <ele>1123.2860000000001</ele>
        <time>2021-07-10T09:03:42Z</time>
      </trkpt>
      <trkpt lat="40.988015960901976" lon="-4.036672012880445">
        <ele>1123.6469999999999</ele>
        <time>2021-07-10T09:03:44Z</time>
      </trkpt>
      <trkpt lat="40.988210001960397" lon="-4.03629700653255">
        <ele>1123.973</ele>
        <time>2021-07-10T09:03:46Z</time>
      </trkpt>
      <trkpt lat="40.988401025533676" lon="-4.035914037376642">
        <ele>1124.335</ele>
        <time>2021-07-10T09:03:48Z</time>
      </trkpt>
      <trkpt lat="40.988502027466893" lon="-4.035713039338589">
        <ele>1124.498</ele>
        <time>2021-07-10T09:03:49Z</time>
      </trkpt>
      <trkpt lat="40.988704031333327" lon="-4.035312971100211">
        <ele>1125.0119999999999</ele>
        <time>2021-07-10T09:03:51Z</time>
      </trkpt>
      <trkpt lat="40.988811990246177" lon="-4.035103004425764">
        <ele>1125.3109999999999</ele>
        <time>2021-07-10T09:03:52Z</time>
      </trkpt>
      <trkpt lat="40.988922966644168" lon="-4.034891026094556">
        <ele>1125.8219999999999</ele>
        <time>2021-07-10T09:03:53Z</time>
      </trkpt>
      <trkpt lat="40.989154977723956" lon="-4.034446030855179">
        <ele>1126.2619999999999</ele>
        <time>2021-07-10T09:03:55Z</time>
      </trkpt>
      <trkpt lat="40.989271989092231" lon="-4.034220976755023">
        <ele>1126.508</ele>
        <time>2021-07-10T09:03:56Z</time>
      </trkpt>
      <trkpt lat="40.989513974636793" lon="-4.033743040636182">
        <ele>1127.4079999999999</ele>
        <time>2021-07-10T09:03:58Z</time>
      </trkpt>
      <trkpt lat="40.989756966009736" lon="-4.033277006819844">
        <ele>1128.769</ele>
        <time>2021-07-10T09:04:00Z</time>
      </trkpt>
      <trkpt lat="40.989997023716569" lon="-4.032812984660268">
        <ele>1130.319</ele>
        <time>2021-07-10T09:04:02Z</time>
      </trkpt>
      <trkpt lat="40.990119986236095" lon="-4.032575022429228">
        <ele>1131.28</ele>
        <time>2021-07-10T09:04:03Z</time>
      </trkpt>
      <trkpt lat="40.990358032286167" lon="-4.032103037461639">
        <ele>1132.546</ele>
        <time>2021-07-10T09:04:05Z</time>
      </trkpt>
      <trkpt lat="40.990600017830729" lon="-4.031623005867004">
        <ele>1134.078</ele>
        <time>2021-07-10T09:04:07Z</time>
      </trkpt>
      <trkpt lat="40.990720968693495" lon="-4.031386971473694">
        <ele>1135.3810000000001</ele>
        <time>2021-07-10T09:04:08Z</time>
      </trkpt>
      <trkpt lat="40.990843009203672" lon="-4.031154960393906">
        <ele>1136.415</ele>
        <time>2021-07-10T09:04:09Z</time>
      </trkpt>
      <trkpt lat="40.991080971434712" lon="-4.030697979032993">
        <ele>1137.7539999999999</ele>
        <time>2021-07-10T09:04:11Z</time>
      </trkpt>
      <trkpt lat="40.991199994459748" lon="-4.030468985438347">
        <ele>1138.674</ele>
        <time>2021-07-10T09:04:12Z</time>
      </trkpt>
      <trkpt lat="40.991433011367917" lon="-4.030010998249054">
        <ele>1139.856</ele>
        <time>2021-07-10T09:04:14Z</time>
      </trkpt>
      <trkpt lat="40.991667034104466" lon="-4.029552005231381">
        <ele>1141.221</ele>
        <time>2021-07-10T09:04:16Z</time>
      </trkpt>
      <trkpt lat="40.991781027987599" lon="-4.029323011636734">
        <ele>1142.308</ele>
        <time>2021-07-10T09:04:17Z</time>
      </trkpt>
      <trkpt lat="40.991897033527493" lon="-4.029080020263791">
        <ele>1143.174</ele>
        <time>2021-07-10T09:04:18Z</time>
      </trkpt>
      <trkpt lat="40.992103982716799" lon="-4.028618009760976">
        <ele>1144.3140000000001</ele>
        <time>2021-07-10T09:04:20Z</time>
      </trkpt>
      <trkpt lat="40.992301963269711" lon="-4.028146024793387">
        <ele>1145.575</ele>
        <time>2021-07-10T09:04:22Z</time>
      </trkpt>
      <trkpt lat="40.992391984909773" lon="-4.027920970693231">
        <ele>1146.7909999999999</ele>
        <time>2021-07-10T09:04:23Z</time>
      </trkpt>
      <trkpt lat="40.992484018206596" lon="-4.027684014290571">
        <ele>1147.653</ele>
        <time>2021-07-10T09:04:24Z</time>
      </trkpt>
      <trkpt lat="40.992641011252999" lon="-4.027277994900942">
        <ele>1148.566</ele>
        <time>2021-07-10T09:04:26Z</time>
      </trkpt>
      <trkpt lat="40.992798004299402" lon="-4.026879016309977">
        <ele>1149.21</ele>
        <time>2021-07-10T09:04:28Z</time>
      </trkpt>
      <trkpt lat="40.99287997931242" lon="-4.02667198330164">
        <ele>1149.799</ele>
        <time>2021-07-10T09:04:29Z</time>
      </trkpt>
      <trkpt lat="40.993021968752146" lon="-4.026311980560422">
        <ele>1150.212</ele>
        <time>2021-07-10T09:04:31Z</time>
      </trkpt>
      <trkpt lat="40.99309497512877" lon="-4.026127997785807">
        <ele>1150.6320000000001</ele>
        <time>2021-07-10T09:04:32Z</time>
      </trkpt>
      <trkpt lat="40.993233025074005" lon="-4.025778975337744">
        <ele>1151.3050000000001</ele>
        <time>2021-07-10T09:04:34Z</time>
      </trkpt>
      <trkpt lat="40.993349030613899" lon="-4.025484016165137">
        <ele>1151.9079999999999</ele>
        <time>2021-07-10T09:04:36Z</time>
      </trkpt>
      <trkpt lat="40.993398986756802" lon="-4.025348983705044">
        <ele>1152.018</ele>
        <time>2021-07-10T09:04:37Z</time>
      </trkpt>
      <trkpt lat="40.993485990911722" lon="-4.025071961805224">
        <ele>1152.1379999999999</ele>
        <time>2021-07-10T09:04:39Z</time>
      </trkpt>
      <trkpt lat="40.993537958711386" lon="-4.024810027331114">
        <ele>1152.1690000000001</ele>
        <time>2021-07-10T09:04:41Z</time>
      </trkpt>
      <trkpt lat="40.993557991459966" lon="-4.02467398904264">
        <ele>1152.1949999999999</ele>
        <time>2021-07-10T09:04:42Z</time>
      </trkpt>
      <trkpt lat="40.993597973138094" lon="-4.024392021819949">
        <ele>1152.1669999999999</ele>
        <time>2021-07-10T09:04:44Z</time>
      </trkpt>
      <trkpt lat="40.993638960644603" lon="-4.02409496717155">
        <ele>1151.9300000000001</ele>
        <time>2021-07-10T09:04:46Z</time>
      </trkpt>
      <trkpt lat="40.993659999221563" lon="-4.023947026580572">
        <ele>1151.914</ele>
        <time>2021-07-10T09:04:47Z</time>
      </trkpt>
      <trkpt lat="40.993681959807873" lon="-4.023797996342182">
        <ele>1151.663</ele>
        <time>2021-07-10T09:04:48Z</time>
      </trkpt>
      <trkpt lat="40.993705010041595" lon="-4.023646032437682">
        <ele>1151.6289999999999</ele>
        <time>2021-07-10T09:04:49Z</time>
      </trkpt>
      <trkpt lat="40.993727976456285" lon="-4.023503959178925">
        <ele>1151.4000000000001</ele>
        <time>2021-07-10T09:04:50Z</time>
      </trkpt>
      <trkpt lat="40.993770975619555" lon="-4.023236995562911">
        <ele>1151.52</ele>
        <time>2021-07-10T09:04:52Z</time>
      </trkpt>
      <trkpt lat="40.993794025853276" lon="-4.023100035265088">
        <ele>1151.308</ele>
        <time>2021-07-10T09:04:53Z</time>
      </trkpt>
      <trkpt lat="40.993820009753108" lon="-4.022960979491472">
        <ele>1151.1790000000001</ele>
        <time>2021-07-10T09:04:54Z</time>
      </trkpt>
      <trkpt lat="40.99388899281621" lon="-4.022723017260432">
        <ele>1151.269</ele>
        <time>2021-07-10T09:04:56Z</time>
      </trkpt>
      <trkpt lat="40.993943978101015" lon="-4.022609023377299">
        <ele>1151.0899999999999</ele>
        <time>2021-07-10T09:04:57Z</time>
      </trkpt>
      <trkpt lat="40.994008015841246" lon="-4.022506009787321">
        <ele>1151.146</ele>
        <time>2021-07-10T09:04:58Z</time>
      </trkpt>
      <trkpt lat="40.99408202804625" lon="-4.022410036996007">
        <ele>1151.3979999999999</ele>
        <time>2021-07-10T09:04:59Z</time>
      </trkpt>
      <trkpt lat="40.994161991402507" lon="-4.022322027012706">
        <ele>1151.181</ele>
        <time>2021-07-10T09:05:00Z</time>
      </trkpt>
      <trkpt lat="40.99433901719749" lon="-4.022184982895851">
        <ele>1151.2149999999999</ele>
        <time>2021-07-10T09:05:02Z</time>
      </trkpt>
      <trkpt lat="40.994439013302326" lon="-4.022134020924568">
        <ele>1151.124</ele>
        <time>2021-07-10T09:05:03Z</time>
      </trkpt>
      <trkpt lat="40.994658032432199" lon="-4.022063026204705">
        <ele>1150.722</ele>
        <time>2021-07-10T09:05:05Z</time>
      </trkpt>
      <trkpt lat="40.994861964136362" lon="-4.022003011777997">
        <ele>1150.162</ele>
        <time>2021-07-10T09:05:07Z</time>
      </trkpt>
      <trkpt lat="40.995063968002796" lon="-4.021938974037767">
        <ele>1149.9079999999999</ele>
        <time>2021-07-10T09:05:09Z</time>
      </trkpt>
      <trkpt lat="40.995166981592774" lon="-4.021905027329922">
        <ele>1149.808</ele>
        <time>2021-07-10T09:05:10Z</time>
      </trkpt>
      <trkpt lat="40.995347024872899" lon="-4.021840989589691">
        <ele>1149.529</ele>
        <time>2021-07-10T09:05:12Z</time>
      </trkpt>
      <trkpt lat="40.995538970455527" lon="-4.021771000698209">
        <ele>1149.519</ele>
        <time>2021-07-10T09:05:14Z</time>
      </trkpt>
      <trkpt lat="40.995642989873886" lon="-4.021733030676842">
        <ele>1149.3299999999999</ele>
        <time>2021-07-10T09:05:15Z</time>
      </trkpt>
      <trkpt lat="40.995828984305263" lon="-4.021665975451469">
        <ele>1149.2159999999999</ele>
        <time>2021-07-10T09:05:17Z</time>
      </trkpt>
      <trkpt lat="40.996012967079878" lon="-4.021602021530271">
        <ele>1149.3779999999999</ele>
        <time>2021-07-10T09:05:19Z</time>
      </trkpt>
      <trkpt lat="40.996106006205082" lon="-4.021570002660155">
        <ele>1149.2809999999999</ele>
        <time>2021-07-10T09:05:20Z</time>
      </trkpt>
      <trkpt lat="40.996279008686543" lon="-4.021504959091544">
        <ele>1148.925</ele>
        <time>2021-07-10T09:05:22Z</time>
      </trkpt>
      <trkpt lat="40.996465003117919" lon="-4.021428013220429">
        <ele>1148.5139999999999</ele>
        <time>2021-07-10T09:05:24Z</time>
      </trkpt>
      <trkpt lat="40.996650997549295" lon="-4.021345032379031">
        <ele>1148.1679999999999</ele>
        <time>2021-07-10T09:05:26Z</time>
      </trkpt>
      <trkpt lat="40.996740013360977" lon="-4.021297004073858">
        <ele>1147.6420000000001</ele>
        <time>2021-07-10T09:05:27Z</time>
      </trkpt>
      <trkpt lat="40.996896000579" lon="-4.021165994927287">
        <ele>1147.2260000000001</ele>
        <time>2021-07-10T09:05:29Z</time>
      </trkpt>
      <trkpt lat="40.996973030269146" lon="-4.021072033792734">
        <ele>1147.008</ele>
        <time>2021-07-10T09:05:30Z</time>
      </trkpt>
      <trkpt lat="40.997037990018725" lon="-4.020972959697247">
        <ele>1147.183</ele>
        <time>2021-07-10T09:05:31Z</time>
      </trkpt>
      <trkpt lat="40.997152989730239" lon="-4.020755030214787">
        <ele>1147.2329999999999</ele>
        <time>2021-07-10T09:05:33Z</time>
      </trkpt>
      <trkpt lat="40.997208980843425" lon="-4.020638018846512">
        <ele>1147.4939999999999</ele>
        <time>2021-07-10T09:05:34Z</time>
      </trkpt>
      <trkpt lat="40.997264971956611" lon="-4.020521007478237">
        <ele>1147.79</ele>
        <time>2021-07-10T09:05:35Z</time>
      </trkpt>
      <trkpt lat="40.997376032173634" lon="-4.020295031368733">
        <ele>1147.742</ele>
        <time>2021-07-10T09:05:37Z</time>
      </trkpt>
      <trkpt lat="40.997436968609691" lon="-4.020171985030174">
        <ele>1147.5150000000001</ele>
        <time>2021-07-10T09:05:38Z</time>
      </trkpt>
      <trkpt lat="40.997496983036399" lon="-4.02005203999579">
        <ele>1147.6890000000001</ele>
        <time>2021-07-10T09:05:39Z</time>
      </trkpt>
      <trkpt lat="40.997617011889815" lon="-4.019804019480944">
        <ele>1147.6279999999999</ele>
        <time>2021-07-10T09:05:41Z</time>
      </trkpt>
      <trkpt lat="40.997682977467775" lon="-4.019659012556076">
        <ele>1147.875</ele>
        <time>2021-07-10T09:05:42Z</time>
      </trkpt>
      <trkpt lat="40.99775698967278" lon="-4.019501013681293">
        <ele>1147.7280000000001</ele>
        <time>2021-07-10T09:05:43Z</time>
      </trkpt>
      <trkpt lat="40.99790601991117" lon="-4.019181998446584">
        <ele>1147.52</ele>
        <time>2021-07-10T09:05:45Z</time>
      </trkpt>
      <trkpt lat="40.99799201823771" lon="-4.01900002732873">
        <ele>1147.308</ele>
        <time>2021-07-10T09:05:46Z</time>
      </trkpt>
      <trkpt lat="40.998084973543882" lon="-4.018804980441928">
        <ele>1147.184</ele>
        <time>2021-07-10T09:05:47Z</time>
      </trkpt>
      <trkpt lat="40.998183041810989" lon="-4.018609011545777">
        <ele>1146.5139999999999</ele>
        <time>2021-07-10T09:05:48Z</time>
      </trkpt>
      <trkpt lat="40.998390996828675" lon="-4.018190000206232">
        <ele>1145.2750000000001</ele>
        <time>2021-07-10T09:05:50Z</time>
      </trkpt>
      <trkpt lat="40.998488981276751" lon="-4.017968969419599">
        <ele>1145.1610000000001</ele>
        <time>2021-07-10T09:05:51Z</time>
      </trkpt>
      <trkpt lat="40.998619990423322" lon="-4.017765037715435">
        <ele>1145.213</ele>
        <time>2021-07-10T09:05:52Z</time>
      </trkpt>
      <trkpt lat="40.998769020661712" lon="-4.017556998878717">
        <ele>1145.4259999999999</ele>
        <time>2021-07-10T09:05:53Z</time>
      </trkpt>
      <trkpt lat="40.999070014804602" lon="-4.017119966447353">
        <ele>1145.3099999999999</ele>
        <time>2021-07-10T09:05:55Z</time>
      </trkpt>
      <trkpt lat="40.999210998415947" lon="-4.016880998387933">
        <ele>1145.1289999999999</ele>
        <time>2021-07-10T09:05:56Z</time>
      </trkpt>
      <trkpt lat="40.999374026432633" lon="-4.016663990914822">
        <ele>1145.1179999999999</ele>
        <time>2021-07-10T09:05:57Z</time>
      </trkpt>
      <trkpt lat="40.999512998387218" lon="-4.016410019248724">
        <ele>1144.798</ele>
        <time>2021-07-10T09:05:58Z</time>
      </trkpt>
      <trkpt lat="40.999808963388205" lon="-4.015904003754258">
        <ele>1143.9169999999999</ele>
        <time>2021-07-10T09:06:00Z</time>
      </trkpt>
      <trkpt lat="41.000116998329759" lon="-4.015378961339593">
        <ele>1143.2080000000001</ele>
        <time>2021-07-10T09:06:02Z</time>
      </trkpt>
      <trkpt lat="41.000427966937423" lon="-4.014857020229101">
        <ele>1143.4380000000001</ele>
        <time>2021-07-10T09:06:04Z</time>
      </trkpt>
      <trkpt lat="41.000768020749092" lon="-4.014373971149325">
        <ele>1139.4780000000001</ele>
        <time>2021-07-10T09:06:06Z</time>
      </trkpt>
      <trkpt lat="41.000925013795495" lon="-4.014116981998086">
        <ele>1135.479</ele>
        <time>2021-07-10T09:06:07Z</time>
      </trkpt>
      <trkpt lat="41.001077983528376" lon="-4.013857981190085">
        <ele>1131.4349999999999</ele>
        <time>2021-07-10T09:06:08Z</time>
      </trkpt>
      <trkpt lat="41.001377971842885" lon="-4.013337967917323">
        <ele>1127.4570000000001</ele>
        <time>2021-07-10T09:06:10Z</time>
      </trkpt>
      <trkpt lat="41.001673014834523" lon="-4.012805968523026">
        <ele>1123.4200000000001</ele>
        <time>2021-07-10T09:06:12Z</time>
      </trkpt>
      <trkpt lat="41.001812992617488" lon="-4.012531964108348">
        <ele>1119.424</ele>
        <time>2021-07-10T09:06:13Z</time>
      </trkpt>
      <trkpt lat="41.001952970400453" lon="-4.012259971350431">
        <ele>1115.4929999999999</ele>
        <time>2021-07-10T09:06:14Z</time>
      </trkpt>
      <trkpt lat="41.002230998128653" lon="-4.01171900331974">
        <ele>1113.4960000000001</ele>
        <time>2021-07-10T09:06:16Z</time>
      </trkpt>
      <trkpt lat="41.002370975911617" lon="-4.011436030268669">
        <ele>1112.5309999999999</ele>
        <time>2021-07-10T09:06:17Z</time>
      </trkpt>
      <trkpt lat="41.00250500254333" lon="-4.011164037510753">
        <ele>1112.624</ele>
        <time>2021-07-10T09:06:18Z</time>
      </trkpt>
      <trkpt lat="41.002640035003424" lon="-4.010891960933805">
        <ele>1112.9079999999999</ele>
        <time>2021-07-10T09:06:19Z</time>
      </trkpt>
      <trkpt lat="41.002913033589721" lon="-4.01034596376121">
        <ele>1114.346</ele>
        <time>2021-07-10T09:06:21Z</time>
      </trkpt>
      <trkpt lat="41.003049993887544" lon="-4.010071959346533">
        <ele>1115.5360000000001</ele>
        <time>2021-07-10T09:06:22Z</time>
      </trkpt>
      <trkpt lat="41.00332098081708" lon="-4.009528979659081">
        <ele>1117.6569999999999</ele>
        <time>2021-07-10T09:06:24Z</time>
      </trkpt>
      <trkpt lat="41.003451989963651" lon="-4.009265033528209">
        <ele>1119.883</ele>
        <time>2021-07-10T09:06:25Z</time>
      </trkpt>
      <trkpt lat="41.003720965236425" lon="-4.008723981678486">
        <ele>1122.4449999999999</ele>
        <time>2021-07-10T09:06:27Z</time>
      </trkpt>
      <trkpt lat="41.003852980211377" lon="-4.008461041375995">
        <ele>1124.568</ele>
        <time>2021-07-10T09:06:28Z</time>
      </trkpt>
      <trkpt lat="41.003983989357948" lon="-4.008200028911233">
        <ele>1126.6320000000001</ele>
        <time>2021-07-10T09:06:29Z</time>
      </trkpt>
      <trkpt lat="41.004241984337568" lon="-4.007687978446484">
        <ele>1129.251</ele>
        <time>2021-07-10T09:06:31Z</time>
      </trkpt>
      <trkpt lat="41.004488999024034" lon="-4.007190009579063">
        <ele>1132.354</ele>
        <time>2021-07-10T09:06:33Z</time>
      </trkpt>
      <trkpt lat="41.004730984568596" lon="-4.006691034883261">
        <ele>1134.6559999999999</ele>
        <time>2021-07-10T09:06:35Z</time>
      </trkpt>
      <trkpt lat="41.004954027011991" lon="-4.006199017167091">
        <ele>1136.011</ele>
        <time>2021-07-10T09:06:37Z</time>
      </trkpt>
      <trkpt lat="41.005155025050044" lon="-4.00572300888598">
        <ele>1136.6079999999999</ele>
        <time>2021-07-10T09:06:39Z</time>
      </trkpt>
      <trkpt lat="41.005344036966562" lon="-4.00525102391839">
        <ele>1137.2919999999999</ele>
        <time>2021-07-10T09:06:41Z</time>
      </trkpt>
      <trkpt lat="41.005531959235668" lon="-4.004776021465659">
        <ele>1137.2719999999999</ele>
        <time>2021-07-10T09:06:43Z</time>
      </trkpt>
      <trkpt lat="41.005619969218969" lon="-4.004547027871013">
        <ele>1137.193</ele>
        <time>2021-07-10T09:06:44Z</time>
      </trkpt>
      <trkpt lat="41.005778973922133" lon="-4.004094991832972">
        <ele>1136.9190000000001</ele>
        <time>2021-07-10T09:06:46Z</time>
      </trkpt>
      <trkpt lat="41.005847034975886" lon="-4.003862980753183">
        <ele>1138.021</ele>
        <time>2021-07-10T09:06:47Z</time>
      </trkpt>
      <trkpt lat="41.005916018038988" lon="-4.003634992986918">
        <ele>1139.454</ele>
        <time>2021-07-10T09:06:48Z</time>
      </trkpt>
      <trkpt lat="41.005980977788568" lon="-4.003379009664059">
        <ele>1143.338</ele>
        <time>2021-07-10T09:06:49Z</time>
      </trkpt>
      <trkpt lat="41.006102012470365" lon="-4.002879029139876">
        <ele>1146.847</ele>
        <time>2021-07-10T09:06:51Z</time>
      </trkpt>
      <trkpt lat="41.006213994696736" lon="-4.002397991716862">
        <ele>1149.7190000000001</ele>
        <time>2021-07-10T09:06:53Z</time>
      </trkpt>
      <trkpt lat="41.006316002458334" lon="-4.00192198343575">
        <ele>1152.7090000000001</ele>
        <time>2021-07-10T09:06:55Z</time>
      </trkpt>
      <trkpt lat="41.006404012441635" lon="-4.001453015953302">
        <ele>1155.519</ele>
        <time>2021-07-10T09:06:57Z</time>
      </trkpt>
      <trkpt lat="41.006447011604905" lon="-4.001214969903231">
        <ele>1158.2080000000001</ele>
        <time>2021-07-10T09:06:58Z</time>
      </trkpt>
      <trkpt lat="41.006485987454653" lon="-4.000982958823443">
        <ele>1160.258</ele>
        <time>2021-07-10T09:06:59Z</time>
      </trkpt>
      <trkpt lat="41.006541978567839" lon="-4.000522959977388">
        <ele>1162.598</ele>
        <time>2021-07-10T09:07:01Z</time>
      </trkpt>
      <trkpt lat="41.006573997437954" lon="-4.0003099758178">
        <ele>1164.1489999999999</ele>
        <time>2021-07-10T09:07:02Z</time>
      </trkpt>
      <trkpt lat="41.006606016308069" lon="-4.000097997486591">
        <ele>1165.325</ele>
        <time>2021-07-10T09:07:03Z</time>
      </trkpt>
      <trkpt lat="41.006655972450972" lon="-3.999676974490285">
        <ele>1166.327</ele>
        <time>2021-07-10T09:07:05Z</time>
      </trkpt>
      <trkpt lat="41.006680028513074" lon="-3.999457033351064">
        <ele>1166.6700000000001</ele>
        <time>2021-07-10T09:07:06Z</time>
      </trkpt>
      <trkpt lat="41.006708024069667" lon="-3.999218987300992">
        <ele>1166.0340000000001</ele>
        <time>2021-07-10T09:07:07Z</time>
      </trkpt>
      <trkpt lat="41.006754962727427" lon="-3.998725963756442">
        <ele>1163.383</ele>
        <time>2021-07-10T09:07:09Z</time>
      </trkpt>
      <trkpt lat="41.006820006296039" lon="-3.99824702180922">
        <ele>1167.3889999999999</ele>
        <time>2021-07-10T09:07:11Z</time>
      </trkpt>
      <trkpt lat="41.006902987137437" lon="-3.997802026569843">
        <ele>1171.306</ele>
        <time>2021-07-10T09:07:13Z</time>
      </trkpt>
      <trkpt lat="41.006950009614229" lon="-3.997290981933475">
        <ele>1175.326</ele>
        <time>2021-07-10T09:07:15Z</time>
      </trkpt>
      <trkpt lat="41.006981022655964" lon="-3.9970220066607">
        <ele>1179.308</ele>
        <time>2021-07-10T09:07:16Z</time>
      </trkpt>
      <trkpt lat="41.007013041526079" lon="-3.996750013902783">
        <ele>1181.7249999999999</ele>
        <time>2021-07-10T09:07:17Z</time>
      </trkpt>
      <trkpt lat="41.007047994062304" lon="-3.996471986174583">
        <ele>1182.885</ele>
        <time>2021-07-10T09:07:18Z</time>
      </trkpt>
      <trkpt lat="41.007128963246942" lon="-3.995889024809003">
        <ele>1182.816</ele>
        <time>2021-07-10T09:07:20Z</time>
      </trkpt>
      <trkpt lat="41.007223008200526" lon="-3.995274966582656">
        <ele>1182.3620000000001</ele>
        <time>2021-07-10T09:07:22Z</time>
      </trkpt>
      <trkpt lat="41.007292997092009" lon="-3.994634002447128">
        <ele>1181.4739999999999</ele>
        <time>2021-07-10T09:07:24Z</time>
      </trkpt>
      <trkpt lat="41.007369020953774" lon="-3.993968982249498">
        <ele>1180.2670000000001</ele>
        <time>2021-07-10T09:07:26Z</time>
      </trkpt>
      <trkpt lat="41.007452001795173" lon="-3.993299016728997">
        <ele>1178.5409999999999</ele>
        <time>2021-07-10T09:07:28Z</time>
      </trkpt>
      <trkpt lat="41.007492989301682" lon="-3.992963992059231">
        <ele>1177.52</ele>
        <time>2021-07-10T09:07:29Z</time>
      </trkpt>
      <trkpt lat="41.00757303647697" lon="-3.992301989346743">
        <ele>1176.1980000000001</ele>
        <time>2021-07-10T09:07:31Z</time>
      </trkpt>
      <trkpt lat="41.007651994004846" lon="-3.991632023826242">
        <ele>1174.2149999999999</ele>
        <time>2021-07-10T09:07:33Z</time>
      </trkpt>
      <trkpt lat="41.007693987339735" lon="-3.991295993328095">
        <ele>1173.126</ele>
        <time>2021-07-10T09:07:34Z</time>
      </trkpt>
      <trkpt lat="41.007798006758094" lon="-3.990636002272368">
        <ele>1170.6079999999999</ele>
        <time>2021-07-10T09:07:36Z</time>
      </trkpt>
      <trkpt lat="41.007822984829545" lon="-3.990295026451349">
        <ele>1168.846</ele>
        <time>2021-07-10T09:07:37Z</time>
      </trkpt>
      <trkpt lat="41.007849974557757" lon="-3.989960001781583">
        <ele>1167.376</ele>
        <time>2021-07-10T09:07:38Z</time>
      </trkpt>
      <trkpt lat="41.00796103477478" lon="-3.989305961877108">
        <ele>1165.347</ele>
        <time>2021-07-10T09:07:40Z</time>
      </trkpt>
      <trkpt lat="41.008017025887966" lon="-3.988978983834386">
        <ele>1163.2829999999999</ele>
        <time>2021-07-10T09:07:41Z</time>
      </trkpt>
      <trkpt lat="41.008152980357409" lon="-3.988330978900194">
        <ele>1161.575</ele>
        <time>2021-07-10T09:07:43Z</time>
      </trkpt>
      <trkpt lat="41.008315002545714" lon="-3.987703006714582">
        <ele>1159.4880000000001</ele>
        <time>2021-07-10T09:07:45Z</time>
      </trkpt>
      <trkpt lat="41.008401000872254" lon="-3.987413998693228">
        <ele>1157.3720000000001</ele>
        <time>2021-07-10T09:07:46Z</time>
      </trkpt>
      <trkpt lat="41.008572997525334" lon="-3.986889962106943">
        <ele>1155.2809999999999</ele>
        <time>2021-07-10T09:07:48Z</time>
      </trkpt>
      <trkpt lat="41.008664024993777" lon="-3.986642025411129">
        <ele>1153.498</ele>
        <time>2021-07-10T09:07:49Z</time>
      </trkpt>
      <trkpt lat="41.008856976404786" lon="-3.986147996038199">
        <ele>1151.615</ele>
        <time>2021-07-10T09:07:51Z</time>
      </trkpt>
      <trkpt lat="41.008963007479906" lon="-3.985907016322017">
        <ele>1150.326</ele>
        <time>2021-07-10T09:07:52Z</time>
      </trkpt>
      <trkpt lat="41.00918697193265" lon="-3.985447017475963">
        <ele>1148.4079999999999</ele>
        <time>2021-07-10T09:07:54Z</time>
      </trkpt>
      <trkpt lat="41.00942200049758" lon="-3.984985006973147">
        <ele>1146.5160000000001</ele>
        <time>2021-07-10T09:07:56Z</time>
      </trkpt>
      <trkpt lat="41.009541023522615" lon="-3.984751990064979">
        <ele>1145.2560000000001</ele>
        <time>2021-07-10T09:07:57Z</time>
      </trkpt>
      <trkpt lat="41.009659040719271" lon="-3.98451997898519">
        <ele>1144.077</ele>
        <time>2021-07-10T09:07:58Z</time>
      </trkpt>
      <trkpt lat="41.009898008778691" lon="-3.984068026766181">
        <ele>1143.0830000000001</ele>
        <time>2021-07-10T09:08:00Z</time>
      </trkpt>
      <trkpt lat="41.010018959641457" lon="-3.983848001807928">
        <ele>1142.375</ele>
        <time>2021-07-10T09:08:01Z</time>
      </trkpt>
      <trkpt lat="41.010136976838112" lon="-3.983632000163198">
        <ele>1141.6679999999999</ele>
        <time>2021-07-10T09:08:02Z</time>
      </trkpt>
      <trkpt lat="41.010360019281507" lon="-3.983209971338511">
        <ele>1141.482</ele>
        <time>2021-07-10T09:08:04Z</time>
      </trkpt>
      <trkpt lat="41.010573003441095" lon="-3.982803029939532">
        <ele>1141.5809999999999</ele>
        <time>2021-07-10T09:08:06Z</time>
      </trkpt>
      <trkpt lat="41.010681968182325" lon="-3.982603037729859">
        <ele>1141.5170000000001</ele>
        <time>2021-07-10T09:08:07Z</time>
      </trkpt>
      <trkpt lat="41.010795962065458" lon="-3.982393993064761">
        <ele>1141.6869999999999</ele>
        <time>2021-07-10T09:08:08Z</time>
      </trkpt>
      <trkpt lat="41.011011963710189" lon="-3.981991996988654">
        <ele>1141.8150000000001</ele>
        <time>2021-07-10T09:08:10Z</time>
      </trkpt>
      <trkpt lat="41.011127969250083" lon="-3.981771972030401">
        <ele>1141.508</ele>
        <time>2021-07-10T09:08:11Z</time>
      </trkpt>
      <trkpt lat="41.011246992275119" lon="-3.981550019234419">
        <ele>1142.1379999999999</ele>
        <time>2021-07-10T09:08:12Z</time>
      </trkpt>
      <trkpt lat="41.011367021128535" lon="-3.981323959305883">
        <ele>1142.248</ele>
        <time>2021-07-10T09:08:13Z</time>
      </trkpt>
      <trkpt lat="41.011600038036704" lon="-3.980871001258493">
        <ele>1142.4690000000001</ele>
        <time>2021-07-10T09:08:15Z</time>
      </trkpt>
      <trkpt lat="41.011845041066408" lon="-3.980415025725961">
        <ele>1142.895</ele>
        <time>2021-07-10T09:08:17Z</time>
      </trkpt>
      <trkpt lat="41.011974038556218" lon="-3.980173962190747">
        <ele>1143.2170000000001</ele>
        <time>2021-07-10T09:08:18Z</time>
      </trkpt>
      <trkpt lat="41.012219963595271" lon="-3.979714969173074">
        <ele>1143.25</ele>
        <time>2021-07-10T09:08:20Z</time>
      </trkpt>
      <trkpt lat="41.012348039075732" lon="-3.979478012770414">
        <ele>1143.624</ele>
        <time>2021-07-10T09:08:21Z</time>
      </trkpt>
      <trkpt lat="41.012477958574891" lon="-3.979238960891962">
        <ele>1143.193</ele>
        <time>2021-07-10T09:08:22Z</time>
      </trkpt>
      <trkpt lat="41.012619026005268" lon="-3.978981971740723">
        <ele>1143.5809999999999</ele>
        <time>2021-07-10T09:08:23Z</time>
      </trkpt>
      <trkpt lat="41.012885989621282" lon="-3.978490959852934">
        <ele>1143.961</ele>
        <time>2021-07-10T09:08:25Z</time>
      </trkpt>
      <trkpt lat="41.013187989592552" lon="-3.977936999872327">
        <ele>1145.2170000000001</ele>
        <time>2021-07-10T09:08:27Z</time>
      </trkpt>
      <trkpt lat="41.013365015387535" lon="-3.977634999901056">
        <ele>1144.808</ele>
        <time>2021-07-10T09:08:28Z</time>
      </trkpt>
      <trkpt lat="41.013533994555473" lon="-3.977340962737799">
        <ele>1145.2750000000001</ele>
        <time>2021-07-10T09:08:29Z</time>
      </trkpt>
      <trkpt lat="41.013859966769814" lon="-3.976722965016961">
        <ele>1145.835</ele>
        <time>2021-07-10T09:08:31Z</time>
      </trkpt>
      <trkpt lat="41.014031041413546" lon="-3.976378971710801">
        <ele>1146.4359999999999</ele>
        <time>2021-07-10T09:08:32Z</time>
      </trkpt>
      <trkpt lat="41.014378974214196" lon="-3.975686961784959">
        <ele>1147.2819999999999</ele>
        <time>2021-07-10T09:08:34Z</time>
      </trkpt>
      <trkpt lat="41.014721039682627" lon="-3.975036023184657">
        <ele>1147.664</ele>
        <time>2021-07-10T09:08:36Z</time>
      </trkpt>
      <trkpt lat="41.01505002938211" lon="-3.974412996321917">
        <ele>1148.1569999999999</ele>
        <time>2021-07-10T09:08:38Z</time>
      </trkpt>
      <trkpt lat="41.015211967751384" lon="-3.974113008007407">
        <ele>1148.711</ele>
        <time>2021-07-10T09:08:39Z</time>
      </trkpt>
      <trkpt lat="41.015368960797787" lon="-3.973821988329291">
        <ele>1149.6300000000001</ele>
        <time>2021-07-10T09:08:40Z</time>
      </trkpt>
      <trkpt lat="41.015665009617805" lon="-3.973258975893259">
        <ele>1150.6659999999999</ele>
        <time>2021-07-10T09:08:42Z</time>
      </trkpt>
      <trkpt lat="41.015809010714293" lon="-3.972983965650201">
        <ele>1151.329</ele>
        <time>2021-07-10T09:08:43Z</time>
      </trkpt>
      <trkpt lat="41.016088966280222" lon="-3.972450038418174">
        <ele>1152.1210000000001</ele>
        <time>2021-07-10T09:08:45Z</time>
      </trkpt>
      <trkpt lat="41.016369005665183" lon="-3.971924996003509">
        <ele>1153.1079999999999</ele>
        <time>2021-07-10T09:08:47Z</time>
      </trkpt>
      <trkpt lat="41.016502026468515" lon="-3.97166901268065">
        <ele>1154.2329999999999</ele>
        <time>2021-07-10T09:08:48Z</time>
      </trkpt>
      <trkpt lat="41.016639992594719" lon="-3.971404982730746">
        <ele>1155.193</ele>
        <time>2021-07-10T09:08:49Z</time>
      </trkpt>
      <trkpt lat="41.016893964260817" lon="-3.970923023298383">
        <ele>1155.7739999999999</ele>
        <time>2021-07-10T09:08:51Z</time>
      </trkpt>
      <trkpt lat="41.017154976725578" lon="-3.970437962561846">
        <ele>1156.51</ele>
        <time>2021-07-10T09:08:53Z</time>
      </trkpt>
      <trkpt lat="41.017289003357291" lon="-3.970184996724129">
        <ele>1157.482</ele>
        <time>2021-07-10T09:08:54Z</time>
      </trkpt>
      <trkpt lat="41.017533000558615" lon="-3.969718040898442">
        <ele>1158.4849999999999</ele>
        <time>2021-07-10T09:08:56Z</time>
      </trkpt>
      <trkpt lat="41.017665015533566" lon="-3.969474965706468">
        <ele>1159.1489999999999</ele>
        <time>2021-07-10T09:08:57Z</time>
      </trkpt>
      <trkpt lat="41.017799964174628" lon="-3.969229040667415">
        <ele>1159.1479999999999</ele>
        <time>2021-07-10T09:08:58Z</time>
      </trkpt>
      <trkpt lat="41.017942959442735" lon="-3.968964004889131">
        <ele>1158.6110000000001</ele>
        <time>2021-07-10T09:08:59Z</time>
      </trkpt>
      <trkpt lat="41.018216963857412" lon="-3.968438040465117">
        <ele>1158.221</ele>
        <time>2021-07-10T09:09:01Z</time>
      </trkpt>
      <trkpt lat="41.018518963828683" lon="-3.967872010543943">
        <ele>1157.903</ele>
        <time>2021-07-10T09:09:03Z</time>
      </trkpt>
      <trkpt lat="41.018681991845369" lon="-3.967572022229433">
        <ele>1157.9079999999999</ele>
        <time>2021-07-10T09:09:04Z</time>
      </trkpt>
      <trkpt lat="41.018995977938175" lon="-3.96702703088522">
        <ele>1158.4580000000001</ele>
        <time>2021-07-10T09:09:06Z</time>
      </trkpt>
      <trkpt lat="41.01930602453649" lon="-3.966447003185749">
        <ele>1158.998</ele>
        <time>2021-07-10T09:09:08Z</time>
      </trkpt>
      <trkpt lat="41.019460000097752" lon="-3.966137040406466">
        <ele>1159.549</ele>
        <time>2021-07-10T09:09:09Z</time>
      </trkpt>
      <trkpt lat="41.019742973148823" lon="-3.965570004656911">
        <ele>1160.085</ele>
        <time>2021-07-10T09:09:11Z</time>
      </trkpt>
      <trkpt lat="41.019895020872355" lon="-3.965273033827543">
        <ele>1160.277</ele>
        <time>2021-07-10T09:09:12Z</time>
      </trkpt>
      <trkpt lat="41.020199032500386" lon="-3.964697029441595">
        <ele>1160.8399999999999</ele>
        <time>2021-07-10T09:09:14Z</time>
      </trkpt>
      <trkpt lat="41.020478988066316" lon="-3.964163018390536">
        <ele>1161.4839999999999</ele>
        <time>2021-07-10T09:09:16Z</time>
      </trkpt>
      <trkpt lat="41.020628018304706" lon="-3.963880967348814">
        <ele>1161.393</ele>
        <time>2021-07-10T09:09:17Z</time>
      </trkpt>
      <trkpt lat="41.020928006619215" lon="-3.963321978226304">
        <ele>1161.4960000000001</ele>
        <time>2021-07-10T09:09:19Z</time>
      </trkpt>
      <trkpt lat="41.021092040464282" lon="-3.963030036538839">
        <ele>1161.1310000000001</ele>
        <time>2021-07-10T09:09:20Z</time>
      </trkpt>
      <trkpt lat="41.02138901129365" lon="-3.962476998567581">
        <ele>1161.0239999999999</ele>
        <time>2021-07-10T09:09:22Z</time>
      </trkpt>
      <trkpt lat="41.02154097519815" lon="-3.962187990546227">
        <ele>1161.2080000000001</ele>
        <time>2021-07-10T09:09:23Z</time>
      </trkpt>
      <trkpt lat="41.021697968244553" lon="-3.961890013888478">
        <ele>1161.386</ele>
        <time>2021-07-10T09:09:24Z</time>
      </trkpt>
      <trkpt lat="41.021981025114655" lon="-3.961342005059123">
        <ele>1161.5160000000001</ele>
        <time>2021-07-10T09:09:26Z</time>
      </trkpt>
      <trkpt lat="41.022271038964391" lon="-3.960778992623091">
        <ele>1162.1469999999999</ele>
        <time>2021-07-10T09:09:28Z</time>
      </trkpt>
      <trkpt lat="41.022415040060878" lon="-3.96049995906651">
        <ele>1162.7329999999999</ele>
        <time>2021-07-10T09:09:29Z</time>
      </trkpt>
      <trkpt lat="41.022564992308617" lon="-3.960212962701917">
        <ele>1162.9849999999999</ele>
        <time>2021-07-10T09:09:30Z</time>
      </trkpt>
      <trkpt lat="41.022833967581391" lon="-3.959696972742677">
        <ele>1162.768</ele>
        <time>2021-07-10T09:09:32Z</time>
      </trkpt>
      <trkpt lat="41.022973023355007" lon="-3.959437971934676">
        <ele>1162.972</ele>
        <time>2021-07-10T09:09:33Z</time>
      </trkpt>
      <trkpt lat="41.023107971996069" lon="-3.959179976955056">
        <ele>1162.941</ele>
        <time>2021-07-10T09:09:34Z</time>
      </trkpt>
      <trkpt lat="41.023233029991388" lon="-3.95890899002552">
        <ele>1163.059</ele>
        <time>2021-07-10T09:09:35Z</time>
      </trkpt>
      <trkpt lat="41.023413995280862" lon="-3.958363998681307">
        <ele>1162.903</ele>
        <time>2021-07-10T09:09:37Z</time>
      </trkpt>
      <trkpt lat="41.023564031347632" lon="-3.957781037315726">
        <ele>1162.223</ele>
        <time>2021-07-10T09:09:39Z</time>
      </trkpt>
      <trkpt lat="41.023640977218747" lon="-3.95746897906065">
        <ele>1161.508</ele>
        <time>2021-07-10T09:09:40Z</time>
      </trkpt>
      <trkpt lat="41.023790007457137" lon="-3.956873025745153">
        <ele>1161.5419999999999</ele>
        <time>2021-07-10T09:09:42Z</time>
      </trkpt>
      <trkpt lat="41.023865025490522" lon="-3.956567002460361">
        <ele>1161.162</ele>
        <time>2021-07-10T09:09:43Z</time>
      </trkpt>
      <trkpt lat="41.023941971361637" lon="-3.956255028024316">
        <ele>1160.8430000000001</ele>
        <time>2021-07-10T09:09:44Z</time>
      </trkpt>
      <trkpt lat="41.024102987721562" lon="-3.955624960362911">
        <ele>1159.6890000000001</ele>
        <time>2021-07-10T09:09:46Z</time>
      </trkpt>
      <trkpt lat="41.024265009909868" lon="-3.954983996227384">
        <ele>1157.8610000000001</ele>
        <time>2021-07-10T09:09:48Z</time>
      </trkpt>
      <trkpt lat="41.024347990751266" lon="-3.954656012356281">
        <ele>1156.454</ele>
        <time>2021-07-10T09:09:49Z</time>
      </trkpt>
      <trkpt lat="41.024437006562948" lon="-3.954313024878502">
        <ele>1155.268</ele>
        <time>2021-07-10T09:09:50Z</time>
      </trkpt>
      <trkpt lat="41.024604979902506" lon="-3.953663008287549">
        <ele>1154.3969999999999</ele>
        <time>2021-07-10T09:09:52Z</time>
      </trkpt>
      <trkpt lat="41.024779994040728" lon="-3.9529799669981">
        <ele>1152.3240000000001</ele>
        <time>2021-07-10T09:09:54Z</time>
      </trkpt>
      <trkpt lat="41.02487001568079" lon="-3.952624993398786">
        <ele>1150.604</ele>
        <time>2021-07-10T09:09:55Z</time>
      </trkpt>
      <trkpt lat="41.025034971535206" lon="-3.951972965151072">
        <ele>1149.114</ele>
        <time>2021-07-10T09:09:57Z</time>
      </trkpt>
      <trkpt lat="41.025206968188286" lon="-3.95130299963057">
        <ele>1148.008</ele>
        <time>2021-07-10T09:09:59Z</time>
      </trkpt>
      <trkpt lat="41.025291038677096" lon="-3.950977027416229">
        <ele>1147.329</ele>
        <time>2021-07-10T09:10:00Z</time>
      </trkpt>
      <trkpt lat="41.025384999811649" lon="-3.950653988867998">
        <ele>1147.029</ele>
        <time>2021-07-10T09:10:01Z</time>
      </trkpt>
      <trkpt lat="41.02560100145638" lon="-3.950087036937475">
        <ele>1147.4100000000001</ele>
        <time>2021-07-10T09:10:03Z</time>
      </trkpt>
      <trkpt lat="41.025872994214296" lon="-3.949526036158204">
        <ele>1148.336</ele>
        <time>2021-07-10T09:10:05Z</time>
      </trkpt>
      <trkpt lat="41.026149010285735" lon="-3.948996970430017">
        <ele>1149.528</ele>
        <time>2021-07-10T09:10:07Z</time>
      </trkpt>
      <trkpt lat="41.026419997215271" lon="-3.948477040976286">
        <ele>1151.3610000000001</ele>
        <time>2021-07-10T09:10:09Z</time>
      </trkpt>
      <trkpt lat="41.026703976094723" lon="-3.947930037975311">
        <ele>1152.7149999999999</ele>
        <time>2021-07-10T09:10:11Z</time>
      </trkpt>
      <trkpt lat="41.026978986337781" lon="-3.947402983903885">
        <ele>1153.864</ele>
        <time>2021-07-10T09:10:13Z</time>
      </trkpt>
      <trkpt lat="41.027245027944446" lon="-3.946891017258167">
        <ele>1155.3979999999999</ele>
        <time>2021-07-10T09:10:15Z</time>
      </trkpt>
      <trkpt lat="41.027380982413888" lon="-3.946628998965025">
        <ele>1156.615</ele>
        <time>2021-07-10T09:10:16Z</time>
      </trkpt>
      <trkpt lat="41.027635959908366" lon="-3.94614402204752">
        <ele>1157.826</ele>
        <time>2021-07-10T09:10:18Z</time>
      </trkpt>
      <trkpt lat="41.027881968766451" lon="-3.94562803208828">
        <ele>1159.2080000000001</ele>
        <time>2021-07-10T09:10:20Z</time>
      </trkpt>
      <trkpt lat="41.027997974306345" lon="-3.945362996309996">
        <ele>1160.1559999999999</ele>
        <time>2021-07-10T09:10:21Z</time>
      </trkpt>
      <trkpt lat="41.028112974017859" lon="-3.945095026865602">
        <ele>1160.5260000000001</ele>
        <time>2021-07-10T09:10:22Z</time>
      </trkpt>
      <trkpt lat="41.028225962072611" lon="-3.944821022450924">
        <ele>1161.287</ele>
        <time>2021-07-10T09:10:23Z</time>
      </trkpt>
      <trkpt lat="41.028444981202483" lon="-3.944258010014892">
        <ele>1161.6130000000001</ele>
        <time>2021-07-10T09:10:25Z</time>
      </trkpt>
      <trkpt lat="41.028551012277603" lon="-3.943957015872002">
        <ele>1162.2850000000001</ele>
        <time>2021-07-10T09:10:26Z</time>
      </trkpt>
      <trkpt lat="41.02873801253736" lon="-3.943403977900744">
        <ele>1162.598</ele>
        <time>2021-07-10T09:10:28Z</time>
      </trkpt>
      <trkpt lat="41.028829962015152" lon="-3.943124022334814">
        <ele>1163.0820000000001</ele>
        <time>2021-07-10T09:10:29Z</time>
      </trkpt>
      <trkpt lat="41.029005981981754" lon="-3.942563021555543">
        <ele>1163.731</ele>
        <time>2021-07-10T09:10:31Z</time>
      </trkpt>
      <trkpt lat="41.029096003621817" lon="-3.942263033241034">
        <ele>1164.2940000000001</ele>
        <time>2021-07-10T09:10:32Z</time>
      </trkpt>
      <trkpt lat="41.029259031638503" lon="-3.941726004704833">
        <ele>1164.6569999999999</ele>
        <time>2021-07-10T09:10:34Z</time>
      </trkpt>
      <trkpt lat="41.029342012479901" lon="-3.941455017775297">
        <ele>1165.0219999999999</ele>
        <time>2021-07-10T09:10:35Z</time>
      </trkpt>
      <trkpt lat="41.029505962505937" lon="-3.940926035866141">
        <ele>1165.7080000000001</ele>
        <time>2021-07-10T09:10:37Z</time>
      </trkpt>
      <trkpt lat="41.029583998024464" lon="-3.940658988431096">
        <ele>1166.116</ele>
        <time>2021-07-10T09:10:38Z</time>
      </trkpt>
      <trkpt lat="41.029739985242486" lon="-3.940136963501573">
        <ele>1166.646</ele>
        <time>2021-07-10T09:10:40Z</time>
      </trkpt>
      <trkpt lat="41.029826989397407" lon="-3.93985197879374">
        <ele>1167.1569999999999</ele>
        <time>2021-07-10T09:10:41Z</time>
      </trkpt>
      <trkpt lat="41.029996974393725" lon="-3.939320985227823">
        <ele>1167.643</ele>
        <time>2021-07-10T09:10:43Z</time>
      </trkpt>
      <trkpt lat="41.030090013518929" lon="-3.939042035490274">
        <ele>1167.865</ele>
        <time>2021-07-10T09:10:44Z</time>
      </trkpt>
      <trkpt lat="41.030181962996721" lon="-3.938765013590455">
        <ele>1168.348</ele>
        <time>2021-07-10T09:10:45Z</time>
      </trkpt>
      <trkpt lat="41.030278019607067" lon="-3.938481034711003">
        <ele>1169.0519999999999</ele>
        <time>2021-07-10T09:10:46Z</time>
      </trkpt>
      <trkpt lat="41.030376004055142" lon="-3.938220022246242">
        <ele>1169.691</ele>
        <time>2021-07-10T09:10:47Z</time>
      </trkpt>
      <trkpt lat="41.030572978779674" lon="-3.937737978994846">
        <ele>1170.537</ele>
        <time>2021-07-10T09:10:49Z</time>
      </trkpt>
      <trkpt lat="41.030678004026413" lon="-3.937493981793523">
        <ele>1171.4490000000001</ele>
        <time>2021-07-10T09:10:50Z</time>
      </trkpt>
      <trkpt lat="41.030786968767643" lon="-3.93725099042058">
        <ele>1172.213</ele>
        <time>2021-07-10T09:10:51Z</time>
      </trkpt>
      <trkpt lat="41.030906997621059" lon="-3.937000958248973">
        <ele>1172.2080000000001</ele>
        <time>2021-07-10T09:10:52Z</time>
      </trkpt>
      <trkpt lat="41.03114303201437" lon="-3.936558980494738">
        <ele>1173.23</ele>
        <time>2021-07-10T09:10:54Z</time>
      </trkpt>
      <trkpt lat="41.031275968998671" lon="-3.936330992728472">
        <ele>1173.6500000000001</ele>
        <time>2021-07-10T09:10:55Z</time>
      </trkpt>
      <trkpt lat="41.031549973413348" lon="-3.935893960297108">
        <ele>1174.7909999999999</ele>
        <time>2021-07-10T09:10:57Z</time>
      </trkpt>
      <trkpt lat="41.031834958121181" lon="-3.935470003634691">
        <ele>1176.4870000000001</ele>
        <time>2021-07-10T09:10:59Z</time>
      </trkpt>
      <trkpt lat="41.032127989456058" lon="-3.935067001730204">
        <ele>1178.6289999999999</ele>
        <time>2021-07-10T09:11:01Z</time>
      </trkpt>
      <trkpt lat="41.032274002209306" lon="-3.93486499786377">
        <ele>1180.162</ele>
        <time>2021-07-10T09:11:02Z</time>
      </trkpt>
      <trkpt lat="41.032568961381912" lon="-3.934469036757946">
        <ele>1182.046</ele>
        <time>2021-07-10T09:11:04Z</time>
      </trkpt>
      <trkpt lat="41.032857969403267" lon="-3.934082966297865">
        <ele>1184.4549999999999</ele>
        <time>2021-07-10T09:11:06Z</time>
      </trkpt>
      <trkpt lat="41.033158963546157" lon="-3.933689016848803">
        <ele>1186.8710000000001</ele>
        <time>2021-07-10T09:11:08Z</time>
      </trkpt>
      <trkpt lat="41.033445037901402" lon="-3.933309987187386">
        <ele>1188.441</ele>
        <time>2021-07-10T09:11:10Z</time>
      </trkpt>
      <trkpt lat="41.03374402038753" lon="-3.932912014424801">
        <ele>1190.5150000000001</ele>
        <time>2021-07-10T09:11:12Z</time>
      </trkpt>
      <trkpt lat="41.033896990120411" lon="-3.932715961709619">
        <ele>1191.508</ele>
        <time>2021-07-10T09:11:13Z</time>
      </trkpt>
      <trkpt lat="41.034049037843943" lon="-3.932510018348694">
        <ele>1192.7539999999999</ele>
        <time>2021-07-10T09:11:14Z</time>
      </trkpt>
      <trkpt lat="41.034310972318053" lon="-3.932114979252219">
        <ele>1193.874</ele>
        <time>2021-07-10T09:11:16Z</time>
      </trkpt>
      <trkpt lat="41.034514987841249" lon="-3.931676018983126">
        <ele>1195.0550000000001</ele>
        <time>2021-07-10T09:11:18Z</time>
      </trkpt>
      <trkpt lat="41.034591011703014" lon="-3.93142900429666">
        <ele>1196.3309999999999</ele>
        <time>2021-07-10T09:11:19Z</time>
      </trkpt>
      <trkpt lat="41.034735012799501" lon="-3.930946039035916">
        <ele>1198.0930000000001</ele>
        <time>2021-07-10T09:11:21Z</time>
      </trkpt>
      <trkpt lat="41.034808019176126" lon="-3.930692989379168">
        <ele>1198.9659999999999</ele>
        <time>2021-07-10T09:11:22Z</time>
      </trkpt>
      <trkpt lat="41.03488102555275" lon="-3.930438011884689">
        <ele>1199.73</ele>
        <time>2021-07-10T09:11:23Z</time>
      </trkpt>
      <trkpt lat="41.035019997507334" lon="-3.929951023310423">
        <ele>1200.539</ele>
        <time>2021-07-10T09:11:25Z</time>
      </trkpt>
      <trkpt lat="41.035157041624188" lon="-3.929479960352182">
        <ele>1201.7380000000001</ele>
        <time>2021-07-10T09:11:27Z</time>
      </trkpt>
      <trkpt lat="41.035227030515671" lon="-3.929245015606284">
        <ele>1202.77</ele>
        <time>2021-07-10T09:11:28Z</time>
      </trkpt>
      <trkpt lat="41.035300958901644" lon="-3.928996995091438">
        <ele>1203.0170000000001</ele>
        <time>2021-07-10T09:11:29Z</time>
      </trkpt>
      <trkpt lat="41.035438003018498" lon="-3.928543031215668">
        <ele>1203.9079999999999</ele>
        <time>2021-07-10T09:11:31Z</time>
      </trkpt>
      <trkpt lat="41.035575969144702" lon="-3.928068028762937">
        <ele>1205.5899999999999</ele>
        <time>2021-07-10T09:11:33Z</time>
      </trkpt>
      <trkpt lat="41.035645036026835" lon="-3.927810033783317">
        <ele>1206.75</ele>
        <time>2021-07-10T09:11:34Z</time>
      </trkpt>
      <trkpt lat="41.03576498106122" lon="-3.927323967218399">
        <ele>1207.7909999999999</ele>
        <time>2021-07-10T09:11:36Z</time>
      </trkpt>
      <trkpt lat="41.03589397855103" lon="-3.926822980865836">
        <ele>1208.527</ele>
        <time>2021-07-10T09:11:38Z</time>
      </trkpt>
      <trkpt lat="41.035962961614132" lon="-3.926562974229455">
        <ele>1209.069</ele>
        <time>2021-07-10T09:11:39Z</time>
      </trkpt>
      <trkpt lat="41.036087013781071" lon="-3.92607799731195">
        <ele>1209.932</ele>
        <time>2021-07-10T09:11:41Z</time>
      </trkpt>
      <trkpt lat="41.03615096770227" lon="-3.925825031474233">
        <ele>1210.856</ele>
        <time>2021-07-10T09:11:42Z</time>
      </trkpt>
      <trkpt lat="41.036221040412784" lon="-3.925568964332342">
        <ele>1211.415</ele>
        <time>2021-07-10T09:11:43Z</time>
      </trkpt>
      <trkpt lat="41.036293040961027" lon="-3.925297977402806">
        <ele>1212.1110000000001</ele>
        <time>2021-07-10T09:11:44Z</time>
      </trkpt>
      <trkpt lat="41.03642899543047" lon="-3.924780981615186">
        <ele>1212.8209999999999</ele>
        <time>2021-07-10T09:11:46Z</time>
      </trkpt>
      <trkpt lat="41.03649596683681" lon="-3.924514017999172">
        <ele>1213.5029999999999</ele>
        <time>2021-07-10T09:11:47Z</time>
      </trkpt>
      <trkpt lat="41.036625970155001" lon="-3.92399400472641">
        <ele>1214.008</ele>
        <time>2021-07-10T09:11:49Z</time>
      </trkpt>
      <trkpt lat="41.036741975694895" lon="-3.923530988395214">
        <ele>1214.4680000000001</ele>
        <time>2021-07-10T09:11:51Z</time>
      </trkpt>
      <trkpt lat="41.036800984293222" lon="-3.923303000628948">
        <ele>1214.4480000000001</ele>
        <time>2021-07-10T09:11:52Z</time>
      </trkpt>
      <trkpt lat="41.036921013146639" lon="-3.922851970419288">
        <ele>1214.729</ele>
        <time>2021-07-10T09:11:54Z</time>
      </trkpt>
      <trkpt lat="41.036981027573347" lon="-3.922625994309783">
        <ele>1214.9549999999999</ele>
        <time>2021-07-10T09:11:55Z</time>
      </trkpt>
      <trkpt lat="41.037081023678184" lon="-3.922245036810637">
        <ele>1215.087</ele>
        <time>2021-07-10T09:11:57Z</time>
      </trkpt>
      <trkpt lat="41.037125028669834" lon="-3.922067005187273">
        <ele>1215.0699999999999</ele>
        <time>2021-07-10T09:11:58Z</time>
      </trkpt>
      <trkpt lat="41.037204992026091" lon="-3.921736003831029">
        <ele>1215.174</ele>
        <time>2021-07-10T09:12:00Z</time>
      </trkpt>
      <trkpt lat="41.037243967875838" lon="-3.921579010784626">
        <ele>1215.2829999999999</ele>
        <time>2021-07-10T09:12:01Z</time>
      </trkpt>
      <trkpt lat="41.037283027544618" lon="-3.921420006081462">
        <ele>1215.559</ele>
        <time>2021-07-10T09:12:02Z</time>
      </trkpt>
      <trkpt lat="41.037323009222746" lon="-3.921261001378298">
        <ele>1215.6030000000001</ele>
        <time>2021-07-10T09:12:03Z</time>
      </trkpt>
      <trkpt lat="41.037365002557635" lon="-3.921094033867121">
        <ele>1215.623</ele>
        <time>2021-07-10T09:12:04Z</time>
      </trkpt>
      <trkpt lat="41.037446977570653" lon="-3.920780969783664">
        <ele>1216.308</ele>
        <time>2021-07-10T09:12:06Z</time>
      </trkpt>
      <trkpt lat="41.037528030574322" lon="-3.920468995347619">
        <ele>1217.3219999999999</ele>
        <time>2021-07-10T09:12:08Z</time>
      </trkpt>
      <trkpt lat="41.037596007809043" lon="-3.920218041166663">
        <ele>1218.412</ele>
        <time>2021-07-10T09:12:10Z</time>
      </trkpt>
      <trkpt lat="41.037699021399021" lon="-3.919831970706582">
        <ele>1219.5630000000001</ele>
        <time>2021-07-10T09:12:12Z</time>
      </trkpt>
      <trkpt lat="41.037745960056782" lon="-3.919652011245489">
        <ele>1220.739</ele>
        <time>2021-07-10T09:12:13Z</time>
      </trkpt>
      <trkpt lat="41.037844028323889" lon="-3.919285973533988">
        <ele>1221.5309999999999</ele>
        <time>2021-07-10T09:12:15Z</time>
      </trkpt>
      <trkpt lat="41.037897001951933" lon="-3.919101990759373">
        <ele>1221.7339999999999</ele>
        <time>2021-07-10T09:12:16Z</time>
      </trkpt>
      <trkpt lat="41.038008984178305" lon="-3.918747017160058">
        <ele>1222.3879999999999</ele>
        <time>2021-07-10T09:12:18Z</time>
      </trkpt>
      <trkpt lat="41.038072016090155" lon="-3.918576026335359">
        <ele>1223.117</ele>
        <time>2021-07-10T09:12:19Z</time>
      </trkpt>
      <trkpt lat="41.038208976387978" lon="-3.918293975293636">
        <ele>1224.279</ele>
        <time>2021-07-10T09:12:21Z</time>
      </trkpt>
      <trkpt lat="41.038303021341562" lon="-3.918165983632207">
        <ele>1225.0050000000001</ele>
        <time>2021-07-10T09:12:22Z</time>
      </trkpt>
      <trkpt lat="41.038399999961257" lon="-3.91806498169899">
        <ele>1224.7249999999999</ele>
        <time>2021-07-10T09:12:23Z</time>
      </trkpt>
      <trkpt lat="41.038605021312833" lon="-3.917890973389149">
        <ele>1224.6079999999999</ele>
        <time>2021-07-10T09:12:25Z</time>
      </trkpt>
      <trkpt lat="41.03883602656424" lon="-3.917732974514365">
        <ele>1224.2339999999999</ele>
        <time>2021-07-10T09:12:27Z</time>
      </trkpt>
      <trkpt lat="41.038950020447373" lon="-3.917663991451263">
        <ele>1223.634</ele>
        <time>2021-07-10T09:12:28Z</time>
      </trkpt>
      <trkpt lat="41.039068959653378" lon="-3.917602971196175">
        <ele>1222.9949999999999</ele>
        <time>2021-07-10T09:12:29Z</time>
      </trkpt>
      <trkpt lat="41.039298959076405" lon="-3.917523007839918">
        <ele>1222.1410000000001</ele>
        <time>2021-07-10T09:12:31Z</time>
      </trkpt>
      <trkpt lat="41.039415970444679" lon="-3.917485037818551">
        <ele>1221.473</ele>
        <time>2021-07-10T09:12:32Z</time>
      </trkpt>
      <trkpt lat="41.039531975984573" lon="-3.917427035048604">
        <ele>1220.866</ele>
        <time>2021-07-10T09:12:33Z</time>
      </trkpt>
      <trkpt lat="41.039749989286065" lon="-3.917269958183169">
        <ele>1220.0799999999999</ele>
        <time>2021-07-10T09:12:35Z</time>
      </trkpt>
      <trkpt lat="41.039972025901079" lon="-3.917083041742444">
        <ele>1219.029</ele>
        <time>2021-07-10T09:12:37Z</time>
      </trkpt>
      <trkpt lat="41.040088031440973" lon="-3.916986985132098">
        <ele>1217.874</ele>
        <time>2021-07-10T09:12:38Z</time>
      </trkpt>
      <trkpt lat="41.040301015600562" lon="-3.916811970993877">
        <ele>1216.9559999999999</ele>
        <time>2021-07-10T09:12:40Z</time>
      </trkpt>
      <trkpt lat="41.040549036115408" lon="-3.916632011532784">
        <ele>1216.021</ele>
        <time>2021-07-10T09:12:42Z</time>
      </trkpt>
      <trkpt lat="41.040687002241611" lon="-3.916544001549482">
        <ele>1215.508</ele>
        <time>2021-07-10T09:12:43Z</time>
      </trkpt>
      <trkpt lat="41.040831003338099" lon="-3.916462026536465">
        <ele>1214.944</ele>
        <time>2021-07-10T09:12:44Z</time>
      </trkpt>
      <trkpt lat="41.041138032451272" lon="-3.916290029883385">
        <ele>1214.2139999999999</ele>
        <time>2021-07-10T09:12:46Z</time>
      </trkpt>
      <trkpt lat="41.04130701161921" lon="-3.916200008243322">
        <ele>1214.0550000000001</ele>
        <time>2021-07-10T09:12:47Z</time>
      </trkpt>
      <trkpt lat="41.041475990787148" lon="-3.916111998260021">
        <ele>1213.921</ele>
        <time>2021-07-10T09:12:48Z</time>
      </trkpt>
      <trkpt lat="41.041815038770437" lon="-3.915926003828645">
        <ele>1214.193</ele>
        <time>2021-07-10T09:12:50Z</time>
      </trkpt>
      <trkpt lat="41.042183004319668" lon="-3.915717964991927">
        <ele>1214.616</ele>
        <time>2021-07-10T09:12:52Z</time>
      </trkpt>
      <trkpt lat="41.042385008186102" lon="-3.915603971108794">
        <ele>1215.29</ele>
        <time>2021-07-10T09:12:53Z</time>
      </trkpt>
      <trkpt lat="41.042760014533997" lon="-3.915386041626334">
        <ele>1215.549</ele>
        <time>2021-07-10T09:12:55Z</time>
      </trkpt>
      <trkpt lat="41.042956989258528" lon="-3.91526903025806">
        <ele>1215.3489999999999</ele>
        <time>2021-07-10T09:12:56Z</time>
      </trkpt>
      <trkpt lat="41.04315597563982" lon="-3.91514397226274">
        <ele>1215.3019999999999</ele>
        <time>2021-07-10T09:12:57Z</time>
      </trkpt>
      <trkpt lat="41.043365020304918" lon="-3.914997959509492">
        <ele>1215.222</ele>
        <time>2021-07-10T09:12:58Z</time>
      </trkpt>
      <trkpt lat="41.043560989201069" lon="-3.914850018918514">
        <ele>1215.2080000000001</ele>
        <time>2021-07-10T09:12:59Z</time>
      </trkpt>
      <trkpt lat="41.043946975842118" lon="-3.91454097814858">
        <ele>1214.9110000000001</ele>
        <time>2021-07-10T09:13:01Z</time>
      </trkpt>
      <trkpt lat="41.044155014678836" lon="-3.914374010637403">
        <ele>1214.5909999999999</ele>
        <time>2021-07-10T09:13:02Z</time>
      </trkpt>
      <trkpt lat="41.04437998495996" lon="-3.914192961528897">
        <ele>1214.3219999999999</ele>
        <time>2021-07-10T09:13:03Z</time>
      </trkpt>
      <trkpt lat="41.044797990471125" lon="-3.913864977657795">
        <ele>1213.518</ele>
        <time>2021-07-10T09:13:05Z</time>
      </trkpt>
      <trkpt lat="41.045022960752249" lon="-3.913689041510224">
        <ele>1212.78</ele>
        <time>2021-07-10T09:13:06Z</time>
      </trkpt>
      <trkpt lat="41.045487988740206" lon="-3.913331972435117">
        <ele>1211.7729999999999</ele>
        <time>2021-07-10T09:13:08Z</time>
      </trkpt>
      <trkpt lat="41.045716982334852" lon="-3.913147989660502">
        <ele>1210.7470000000001</ele>
        <time>2021-07-10T09:13:09Z</time>
      </trkpt>
      <trkpt lat="41.046161977574229" lon="-3.912793016061187">
        <ele>1208.9359999999999</ele>
        <time>2021-07-10T09:13:11Z</time>
      </trkpt>
      <trkpt lat="41.046627005562186" lon="-3.912422033026815">
        <ele>1207.7570000000001</ele>
        <time>2021-07-10T09:13:13Z</time>
      </trkpt>
      <trkpt lat="41.046878965571523" lon="-3.912226986140013">
        <ele>1206.5999999999999</ele>
        <time>2021-07-10T09:13:14Z</time>
      </trkpt>
      <trkpt lat="41.047335024923086" lon="-3.911866983398795">
        <ele>1205.52</ele>
        <time>2021-07-10T09:13:16Z</time>
      </trkpt>
      <trkpt lat="41.047577010467649" lon="-3.911680988967419">
        <ele>1204.9079999999999</ele>
        <time>2021-07-10T09:13:17Z</time>
      </trkpt>
      <trkpt lat="41.047820001840591" lon="-3.911492982879281">
        <ele>1204.0719999999999</ele>
        <time>2021-07-10T09:13:18Z</time>
      </trkpt>
      <trkpt lat="41.048072967678308" lon="-3.911290979012847">
        <ele>1203.462</ele>
        <time>2021-07-10T09:13:19Z</time>
      </trkpt>
      <trkpt lat="41.04852500371635" lon="-3.910926030948758">
        <ele>1203.0329999999999</ele>
        <time>2021-07-10T09:13:21Z</time>
      </trkpt>
      <trkpt lat="41.048992965370417" lon="-3.910538032650948">
        <ele>1202.7190000000001</ele>
        <time>2021-07-10T09:13:23Z</time>
      </trkpt>
      <trkpt lat="41.049237968400121" lon="-3.910321025177836">
        <ele>1202.3409999999999</ele>
        <time>2021-07-10T09:13:24Z</time>
      </trkpt>
      <trkpt lat="41.049683969467878" lon="-3.909903019666672">
        <ele>1202.0940000000001</ele>
        <time>2021-07-10T09:13:26Z</time>
      </trkpt>
      <trkpt lat="41.0501370113343" lon="-3.909429023042321">
        <ele>1201.3779999999999</ele>
        <time>2021-07-10T09:13:28Z</time>
      </trkpt>
      <trkpt lat="41.050367010757327" lon="-3.909162981435657">
        <ele>1200.7570000000001</ele>
        <time>2021-07-10T09:13:29Z</time>
      </trkpt>
      <trkpt lat="41.050785016268492" lon="-3.908635005354881">
        <ele>1200.2829999999999</ele>
        <time>2021-07-10T09:13:31Z</time>
      </trkpt>
      <trkpt lat="41.050999006256461" lon="-3.908353038132191">
        <ele>1199.925</ele>
        <time>2021-07-10T09:13:32Z</time>
      </trkpt>
      <trkpt lat="41.051214002072811" lon="-3.908066963776946">
        <ele>1199.4169999999999</ele>
        <time>2021-07-10T09:13:33Z</time>
      </trkpt>
      <trkpt lat="41.051431009545922" lon="-3.907758006826043">
        <ele>1199.2080000000001</ele>
        <time>2021-07-10T09:13:34Z</time>
      </trkpt>
      <trkpt lat="41.051643993705511" lon="-3.907461035996676">
        <ele>1198.925</ele>
        <time>2021-07-10T09:13:35Z</time>
      </trkpt>
      <trkpt lat="41.052061999216676" lon="-3.906890982761979">
        <ele>1198.125</ele>
        <time>2021-07-10T09:13:37Z</time>
      </trkpt>
      <trkpt lat="41.052484028041363" lon="-3.906315984204412">
        <ele>1197.126</ele>
        <time>2021-07-10T09:13:39Z</time>
      </trkpt>
      <trkpt lat="41.052705980837345" lon="-3.906013984233141">
        <ele>1196.672</ele>
        <time>2021-07-10T09:13:40Z</time>
      </trkpt>
      <trkpt lat="41.052915025502443" lon="-3.905728999525309">
        <ele>1196.0540000000001</ele>
        <time>2021-07-10T09:13:41Z</time>
      </trkpt>
      <trkpt lat="41.053332025185227" lon="-3.905155006796122">
        <ele>1195.8969999999999</ele>
        <time>2021-07-10T09:13:43Z</time>
      </trkpt>
      <trkpt lat="41.053767967969179" lon="-3.904566010460258">
        <ele>1195.741</ele>
        <time>2021-07-10T09:13:45Z</time>
      </trkpt>
      <trkpt lat="41.053991010412574" lon="-3.904257975518704">
        <ele>1195.98</ele>
        <time>2021-07-10T09:13:46Z</time>
      </trkpt>
      <trkpt lat="41.054409015923738" lon="-3.903684988617897">
        <ele>1195.8230000000001</ele>
        <time>2021-07-10T09:13:48Z</time>
      </trkpt>
      <trkpt lat="41.054827021434903" lon="-3.903115019202232">
        <ele>1195.883</ele>
        <time>2021-07-10T09:13:50Z</time>
      </trkpt>
      <trkpt lat="41.055029025301337" lon="-3.90283196233213">
        <ele>1196.011</ele>
        <time>2021-07-10T09:13:51Z</time>
      </trkpt>
      <trkpt lat="41.055223988369107" lon="-3.902547983452678">
        <ele>1196.1079999999999</ele>
        <time>2021-07-10T09:13:52Z</time>
      </trkpt>
      <trkpt lat="41.055415011942387" lon="-3.902258975431323">
        <ele>1196.1590000000001</ele>
        <time>2021-07-10T09:13:53Z</time>
      </trkpt>
      <trkpt lat="41.055754981935024" lon="-3.901696968823671">
        <ele>1196.059</ele>
        <time>2021-07-10T09:13:55Z</time>
      </trkpt>
      <trkpt lat="41.055928990244865" lon="-3.901396980509162">
        <ele>1195.96</ele>
        <time>2021-07-10T09:13:56Z</time>
      </trkpt>
      <trkpt lat="41.056268960237503" lon="-3.900888031348586">
        <ele>1195.336</ele>
        <time>2021-07-10T09:13:58Z</time>
      </trkpt>
      <trkpt lat="41.056459983810782" lon="-3.90064001083374">
        <ele>1194.6379999999999</ele>
        <time>2021-07-10T09:13:59Z</time>
      </trkpt>
      <trkpt lat="41.056856028735638" lon="-3.900153022259474">
        <ele>1194.0509999999999</ele>
        <time>2021-07-10T09:14:01Z</time>
      </trkpt>
      <trkpt lat="41.057060966268182" lon="-3.899915982037783">
        <ele>1193.5350000000001</ele>
        <time>2021-07-10T09:14:02Z</time>
      </trkpt>
      <trkpt lat="41.057267999276519" lon="-3.899676008149982">
        <ele>1193.0540000000001</ele>
        <time>2021-07-10T09:14:03Z</time>
      </trkpt>
      <trkpt lat="41.057476960122585" lon="-3.89943603426218">
        <ele>1192.136</ele>
        <time>2021-07-10T09:14:04Z</time>
      </trkpt>
      <trkpt lat="41.057680975645781" lon="-3.899194970726967">
        <ele>1191.5170000000001</ele>
        <time>2021-07-10T09:14:05Z</time>
      </trkpt>
      <trkpt lat="41.05789496563375" lon="-3.898948961868882">
        <ele>1190.518</ele>
        <time>2021-07-10T09:14:06Z</time>
      </trkpt>
      <trkpt lat="41.058268966153264" lon="-3.898479994386435">
        <ele>1189.9079999999999</ele>
        <time>2021-07-10T09:14:08Z</time>
      </trkpt>
      <trkpt lat="41.058589993044734" lon="-3.897942965850234">
        <ele>1189.25</ele>
        <time>2021-07-10T09:14:10Z</time>
      </trkpt>
      <trkpt lat="41.058726031333208" lon="-3.897640965878964">
        <ele>1188.9200000000001</ele>
        <time>2021-07-10T09:14:11Z</time>
      </trkpt>
      <trkpt lat="41.058840025216341" lon="-3.897356986999512">
        <ele>1188.6110000000001</ele>
        <time>2021-07-10T09:14:12Z</time>
      </trkpt>
      <trkpt lat="41.05905401520431" lon="-3.89679498039186">
        <ele>1188.597</ele>
        <time>2021-07-10T09:14:14Z</time>
      </trkpt>
      <trkpt lat="41.059173038229346" lon="-3.896522987633944">
        <ele>1188.549</ele>
        <time>2021-07-10T09:14:15Z</time>
      </trkpt>
      <trkpt lat="41.059306981042027" lon="-3.896259041503072">
        <ele>1188.8320000000001</ele>
        <time>2021-07-10T09:14:16Z</time>
      </trkpt>
      <trkpt lat="41.059445030987263" lon="-3.896030969917774">
        <ele>1188.816</ele>
        <time>2021-07-10T09:14:17Z</time>
      </trkpt>
      <trkpt lat="41.059714006260037" lon="-3.895642971619964">
        <ele>1189.3150000000001</ele>
        <time>2021-07-10T09:14:19Z</time>
      </trkpt>
      <trkpt lat="41.059841997921467" lon="-3.895464017987251">
        <ele>1190.0909999999999</ele>
        <time>2021-07-10T09:14:20Z</time>
      </trkpt>
      <trkpt lat="41.059962026774883" lon="-3.895287998020649">
        <ele>1190.681</ele>
        <time>2021-07-10T09:14:21Z</time>
      </trkpt>
      <trkpt lat="41.060169981792569" lon="-3.894960014149547">
        <ele>1191.2190000000001</ele>
        <time>2021-07-10T09:14:23Z</time>
      </trkpt>
      <trkpt lat="41.060357987880707" lon="-3.894640998914838">
        <ele>1191.008</ele>
        <time>2021-07-10T09:14:25Z</time>
      </trkpt>
      <trkpt lat="41.060453960672021" lon="-3.894471013918519">
        <ele>1191.0360000000001</ele>
        <time>2021-07-10T09:14:26Z</time>
      </trkpt>
      <trkpt lat="41.060545993968844" lon="-3.89430396258831">
        <ele>1191.0360000000001</ele>
        <time>2021-07-10T09:14:27Z</time>
      </trkpt>
      <trkpt lat="41.060737017542124" lon="-3.893948988988996">
        <ele>1191.2270000000001</ele>
        <time>2021-07-10T09:14:29Z</time>
      </trkpt>
      <trkpt lat="41.060841036960483" lon="-3.893755031749606">
        <ele>1191.423</ele>
        <time>2021-07-10T09:14:30Z</time>
      </trkpt>
      <trkpt lat="41.061059972271323" lon="-3.893354963511229">
        <ele>1191.4549999999999</ele>
        <time>2021-07-10T09:14:32Z</time>
      </trkpt>
      <trkpt lat="41.061269016936421" lon="-3.892975011840463">
        <ele>1191.748</ele>
        <time>2021-07-10T09:14:34Z</time>
      </trkpt>
      <trkpt lat="41.061382004991174" lon="-3.892770996317267">
        <ele>1191.942</ele>
        <time>2021-07-10T09:14:35Z</time>
      </trkpt>
      <trkpt lat="41.06160999275744" lon="-3.892353996634483">
        <ele>1192.0309999999999</ele>
        <time>2021-07-10T09:14:37Z</time>
      </trkpt>
      <trkpt lat="41.061727004125714" lon="-3.892137994989753">
        <ele>1192.239</ele>
        <time>2021-07-10T09:14:38Z</time>
      </trkpt>
      <trkpt lat="41.061961026862264" lon="-3.891710015013814">
        <ele>1192.201</ele>
        <time>2021-07-10T09:14:40Z</time>
      </trkpt>
      <trkpt lat="41.06218901462853" lon="-3.891283040866256">
        <ele>1192.1210000000001</ele>
        <time>2021-07-10T09:14:42Z</time>
      </trkpt>
      <trkpt lat="41.062396969646215" lon="-3.890874003991485">
        <ele>1192.508</ele>
        <time>2021-07-10T09:14:44Z</time>
      </trkpt>
      <trkpt lat="41.062487997114658" lon="-3.890666970983148">
        <ele>1192.3199999999999</ele>
        <time>2021-07-10T09:14:45Z</time>
      </trkpt>
      <trkpt lat="41.06257701292634" lon="-3.890451975166798">
        <ele>1192.4400000000001</ele>
        <time>2021-07-10T09:14:46Z</time>
      </trkpt>
      <trkpt lat="41.0626620054245" lon="-3.890250977128744">
        <ele>1191.721</ele>
        <time>2021-07-10T09:14:47Z</time>
      </trkpt>
      <trkpt lat="41.062745992094278" lon="-3.890043022111058">
        <ele>1191.1469999999999</ele>
        <time>2021-07-10T09:14:48Z</time>
      </trkpt>
      <trkpt lat="41.062867026776075" lon="-3.889684025198221">
        <ele>1190.8789999999999</ele>
        <time>2021-07-10T09:14:50Z</time>
      </trkpt>
      <trkpt lat="41.062940033152699" lon="-3.889379007741809">
        <ele>1190.662</ele>
        <time>2021-07-10T09:14:52Z</time>
      </trkpt>
      <trkpt lat="41.062959982082248" lon="-3.889264008030295">
        <ele>1190.1959999999999</ele>
        <time>2021-07-10T09:14:53Z</time>
      </trkpt>
      <trkpt lat="41.062981020659208" lon="-3.889177003875375">
        <ele>1189.5650000000001</ele>
        <time>2021-07-10T09:14:54Z</time>
      </trkpt>
      <trkpt lat="41.063065007328987" lon="-3.889069966971874">
        <ele>1189.595</ele>
        <time>2021-07-10T09:14:56Z</time>
      </trkpt>
      <trkpt lat="41.063197022303939" lon="-3.889082036912441">
        <ele>1189.249</ele>
        <time>2021-07-10T09:14:58Z</time>
      </trkpt>
      <trkpt lat="41.063275979831815" lon="-3.889120006933808">
        <ele>1189.0229999999999</ele>
        <time>2021-07-10T09:14:59Z</time>
      </trkpt>
      <trkpt lat="41.063359966501594" lon="-3.889162000268698">
        <ele>1188.6079999999999</ele>
        <time>2021-07-10T09:15:00Z</time>
      </trkpt>
      <trkpt lat="41.063557025045156" lon="-3.889199970290065">
        <ele>1187.9459999999999</ele>
        <time>2021-07-10T09:15:02Z</time>
      </trkpt>
      <trkpt lat="41.063679987564683" lon="-3.889175998046994">
        <ele>1186.646</ele>
        <time>2021-07-10T09:15:03Z</time>
      </trkpt>
      <trkpt lat="41.063913004472852" lon="-3.889048006385565">
        <ele>1185.587</ele>
        <time>2021-07-10T09:15:05Z</time>
      </trkpt>
      <trkpt lat="41.064150966703892" lon="-3.888819012790918">
        <ele>1184.4829999999999</ele>
        <time>2021-07-10T09:15:07Z</time>
      </trkpt>
      <trkpt lat="41.064402004703879" lon="-3.888551965355873">
        <ele>1183.8150000000001</ele>
        <time>2021-07-10T09:15:09Z</time>
      </trkpt>
      <trkpt lat="41.064669974148273" lon="-3.888259017840028">
        <ele>1183.548</ele>
        <time>2021-07-10T09:15:11Z</time>
      </trkpt>
      <trkpt lat="41.06496199965477" lon="-3.887961963191629">
        <ele>1183.3820000000001</ele>
        <time>2021-07-10T09:15:13Z</time>
      </trkpt>
      <trkpt lat="41.065113041549921" lon="-3.887801030650735">
        <ele>1183.1310000000001</ele>
        <time>2021-07-10T09:15:14Z</time>
      </trkpt>
      <trkpt lat="41.065267017111182" lon="-3.88764001429081">
        <ele>1183.0650000000001</ele>
        <time>2021-07-10T09:15:15Z</time>
      </trkpt>
      <trkpt lat="41.065573040395975" lon="-3.887305995449424">
        <ele>1182.9680000000001</ele>
        <time>2021-07-10T09:15:17Z</time>
      </trkpt>
      <trkpt lat="41.065731961280107" lon="-3.887145984917879">
        <ele>1182.614</ele>
        <time>2021-07-10T09:15:18Z</time>
      </trkpt>
      <trkpt lat="41.066013006493449" lon="-3.886840967461467">
        <ele>1183.2080000000001</ele>
        <time>2021-07-10T09:15:20Z</time>
      </trkpt>
      <trkpt lat="41.066154995933175" lon="-3.886668970808387">
        <ele>1183.6130000000001</ele>
        <time>2021-07-10T09:15:21Z</time>
      </trkpt>
      <trkpt lat="41.066438974812627" lon="-3.886293964460492">
        <ele>1183.7929999999999</ele>
        <time>2021-07-10T09:15:23Z</time>
      </trkpt>
      <trkpt lat="41.066590016707778" lon="-3.886088021099567">
        <ele>1183.654</ele>
        <time>2021-07-10T09:15:24Z</time>
      </trkpt>
      <trkpt lat="41.066870978102088" lon="-3.885692982003093">
        <ele>1183.3199999999999</ele>
        <time>2021-07-10T09:15:26Z</time>
      </trkpt>
      <trkpt lat="41.067014979198575" lon="-3.885491983965039">
        <ele>1183.2719999999999</ele>
        <time>2021-07-10T09:15:27Z</time>
      </trkpt>
      <trkpt lat="41.067161997780204" lon="-3.885285034775734">
        <ele>1183.1949999999999</ele>
        <time>2021-07-10T09:15:28Z</time>
      </trkpt>
      <trkpt lat="41.067427033558488" lon="-3.884903993457556">
        <ele>1183.1489999999999</ele>
        <time>2021-07-10T09:15:30Z</time>
      </trkpt>
      <trkpt lat="41.067564999684691" lon="-3.884711964055896">
        <ele>1183.568</ele>
        <time>2021-07-10T09:15:31Z</time>
      </trkpt>
      <trkpt lat="41.067705983296037" lon="-3.884524963796139">
        <ele>1183.4559999999999</ele>
        <time>2021-07-10T09:15:32Z</time>
      </trkpt>
      <trkpt lat="41.067856019362807" lon="-3.884335029870272">
        <ele>1183.3589999999999</ele>
        <time>2021-07-10T09:15:33Z</time>
      </trkpt>
      <trkpt lat="41.068135974928737" lon="-3.884006040170789">
        <ele>1182.3140000000001</ele>
        <time>2021-07-10T09:15:35Z</time>
      </trkpt>
      <trkpt lat="41.068285005167127" lon="-3.883837983012199">
        <ele>1181.6079999999999</ele>
        <time>2021-07-10T09:15:36Z</time>
      </trkpt>
      <trkpt lat="41.068584993481636" lon="-3.883497007191181">
        <ele>1180.752</ele>
        <time>2021-07-10T09:15:38Z</time>
      </trkpt>
      <trkpt lat="41.068863021209836" lon="-3.883181009441614">
        <ele>1180.3219999999999</ele>
        <time>2021-07-10T09:15:40Z</time>
      </trkpt>
      <trkpt lat="41.069149011746049" lon="-3.882860988378525">
        <ele>1180.183</ele>
        <time>2021-07-10T09:15:42Z</time>
      </trkpt>
      <trkpt lat="41.069299969822168" lon="-3.882709024474025">
        <ele>1179.4290000000001</ele>
        <time>2021-07-10T09:15:43Z</time>
      </trkpt>
      <trkpt lat="41.069450005888939" lon="-3.882580026984215">
        <ele>1179.0309999999999</ele>
        <time>2021-07-10T09:15:44Z</time>
      </trkpt>
      <trkpt lat="41.069784024730325" lon="-3.882354972884059">
        <ele>1177.914</ele>
        <time>2021-07-10T09:15:46Z</time>
      </trkpt>
      <trkpt lat="41.069969013333321" lon="-3.882250031456351">
        <ele>1176.568</ele>
        <time>2021-07-10T09:15:47Z</time>
      </trkpt>
      <trkpt lat="41.070160958915949" lon="-3.882144000381231">
        <ele>1174.9469999999999</ele>
        <time>2021-07-10T09:15:48Z</time>
      </trkpt>
      <trkpt lat="41.070554992184043" lon="-3.881923975422978">
        <ele>1173.086</ele>
        <time>2021-07-10T09:15:50Z</time>
      </trkpt>
      <trkpt lat="41.070952964946628" lon="-3.881705962121487">
        <ele>1171.8599999999999</ele>
        <time>2021-07-10T09:15:52Z</time>
      </trkpt>
      <trkpt lat="41.071153962984681" lon="-3.881594985723496">
        <ele>1170.7260000000001</ele>
        <time>2021-07-10T09:15:53Z</time>
      </trkpt>
      <trkpt lat="41.07136501930654" lon="-3.881479986011982">
        <ele>1169.6079999999999</ele>
        <time>2021-07-10T09:15:54Z</time>
      </trkpt>
      <trkpt lat="41.07175100594759" lon="-3.881249986588955">
        <ele>1168.2249999999999</ele>
        <time>2021-07-10T09:15:56Z</time>
      </trkpt>
      <trkpt lat="41.072106985375285" lon="-3.880946980789304">
        <ele>1167.095</ele>
        <time>2021-07-10T09:15:58Z</time>
      </trkpt>
      <trkpt lat="41.072265990078449" lon="-3.880758974701166">
        <ele>1165.626</ele>
        <time>2021-07-10T09:15:59Z</time>
      </trkpt>
      <trkpt lat="41.07241895981133" lon="-3.880556970834732">
        <ele>1164.3620000000001</ele>
        <time>2021-07-10T09:16:00Z</time>
      </trkpt>
      <trkpt lat="41.072711991146207" lon="-3.880128990858793">
        <ele>1163.5940000000001</ele>
        <time>2021-07-10T09:16:02Z</time>
      </trkpt>
      <trkpt lat="41.072860015556216" lon="-3.879915000870824">
        <ele>1162.9570000000001</ele>
        <time>2021-07-10T09:16:03Z</time>
      </trkpt>
      <trkpt lat="41.073009967803955" lon="-3.879705034196377">
        <ele>1162.3309999999999</ele>
        <time>2021-07-10T09:16:04Z</time>
      </trkpt>
      <trkpt lat="41.073302999138832" lon="-3.879299014806747">
        <ele>1161.26</ele>
        <time>2021-07-10T09:16:06Z</time>
      </trkpt>
      <trkpt lat="41.073447000235319" lon="-3.87909097597003">
        <ele>1160.453</ele>
        <time>2021-07-10T09:16:07Z</time>
      </trkpt>
      <trkpt lat="41.073588989675045" lon="-3.878877991810441">
        <ele>1159.604</ele>
        <time>2021-07-10T09:16:08Z</time>
      </trkpt>
      <trkpt lat="41.073872968554497" lon="-3.878449006006122">
        <ele>1158.114</ele>
        <time>2021-07-10T09:16:10Z</time>
      </trkpt>
      <trkpt lat="41.074015041813254" lon="-3.878228981047869">
        <ele>1156.9079999999999</ele>
        <time>2021-07-10T09:16:11Z</time>
      </trkpt>
      <trkpt lat="41.074162982404232" lon="-3.878006022423506">
        <ele>1155.2619999999999</ele>
        <time>2021-07-10T09:16:12Z</time>
      </trkpt>
      <trkpt lat="41.074455007910728" lon="-3.877547029405832">
        <ele>1153.472</ele>
        <time>2021-07-10T09:16:14Z</time>
      </trkpt>
      <trkpt lat="41.074742004275322" lon="-3.877119971439242">
        <ele>1151.2329999999999</ele>
        <time>2021-07-10T09:16:16Z</time>
      </trkpt>
      <trkpt lat="41.074890028685331" lon="-3.876892989501357">
        <ele>1149.529</ele>
        <time>2021-07-10T09:16:17Z</time>
      </trkpt>
      <trkpt lat="41.075190016999841" lon="-3.876417987048626">
        <ele>1147.491</ele>
        <time>2021-07-10T09:16:19Z</time>
      </trkpt>
      <trkpt lat="41.075336029753089" lon="-3.876197962090373">
        <ele>1146.0139999999999</ele>
        <time>2021-07-10T09:16:20Z</time>
      </trkpt>
      <trkpt lat="41.07563802972436" lon="-3.875765958800912">
        <ele>1144.4480000000001</ele>
        <time>2021-07-10T09:16:22Z</time>
      </trkpt>
      <trkpt lat="41.075804997235537" lon="-3.875553980469704">
        <ele>1142.617</ele>
        <time>2021-07-10T09:16:23Z</time>
      </trkpt>
      <trkpt lat="41.075977999716997" lon="-3.875335967168212">
        <ele>1141.2950000000001</ele>
        <time>2021-07-10T09:16:24Z</time>
      </trkpt>
      <trkpt lat="41.076304977759719" lon="-3.874930031597614">
        <ele>1139.249</ele>
        <time>2021-07-10T09:16:26Z</time>
      </trkpt>
      <trkpt lat="41.076661963015795" lon="-3.874541027471423">
        <ele>1136.623</ele>
        <time>2021-07-10T09:16:28Z</time>
      </trkpt>
      <trkpt lat="41.076854998245835" lon="-3.874336006119847">
        <ele>1134.1079999999999</ele>
        <time>2021-07-10T09:16:29Z</time>
      </trkpt>
      <trkpt lat="41.077222963795066" lon="-3.873965023085475">
        <ele>1130.826</ele>
        <time>2021-07-10T09:16:31Z</time>
      </trkpt>
      <trkpt lat="41.077423039823771" lon="-3.873764025047422">
        <ele>1128.056</ele>
        <time>2021-07-10T09:16:32Z</time>
      </trkpt>
      <trkpt lat="41.077622026205063" lon="-3.873564032837749">
        <ele>1126.1869999999999</ele>
        <time>2021-07-10T09:16:33Z</time>
      </trkpt>
      <trkpt lat="41.077826963737607" lon="-3.873356999829412">
        <ele>1124.4829999999999</ele>
        <time>2021-07-10T09:16:34Z</time>
      </trkpt>
      <trkpt lat="41.078198030591011" lon="-3.872980987653136">
        <ele>1122.7149999999999</ele>
        <time>2021-07-10T09:16:36Z</time>
      </trkpt>
      <trkpt lat="41.078544035553932" lon="-3.872631965205073">
        <ele>1120.268</ele>
        <time>2021-07-10T09:16:38Z</time>
      </trkpt>
      <trkpt lat="41.078848969191313" lon="-3.8722990360111">
        <ele>1118.2919999999999</ele>
        <time>2021-07-10T09:16:40Z</time>
      </trkpt>
      <trkpt lat="41.079126996919513" lon="-3.871956970542669">
        <ele>1116.941</ele>
        <time>2021-07-10T09:16:42Z</time>
      </trkpt>
      <trkpt lat="41.079245014116168" lon="-3.871752033010125">
        <ele>1115.818</ele>
        <time>2021-07-10T09:16:43Z</time>
      </trkpt>
      <trkpt lat="41.07944299466908" lon="-3.871279964223504">
        <ele>1114.798</ele>
        <time>2021-07-10T09:16:45Z</time>
      </trkpt>
      <trkpt lat="41.079624965786934" lon="-3.870802028104663">
        <ele>1113.317</ele>
        <time>2021-07-10T09:16:47Z</time>
      </trkpt>
      <trkpt lat="41.079819006845355" lon="-3.870290983468294">
        <ele>1111.6079999999999</ele>
        <time>2021-07-10T09:16:49Z</time>
      </trkpt>
      <trkpt lat="41.079923026263714" lon="-3.870018990710378">
        <ele>1110.558</ele>
        <time>2021-07-10T09:16:50Z</time>
      </trkpt>
      <trkpt lat="41.080120000988245" lon="-3.86950702406466">
        <ele>1108.818</ele>
        <time>2021-07-10T09:16:52Z</time>
      </trkpt>
      <trkpt lat="41.080325022339821" lon="-3.868964966386557">
        <ele>1107.1590000000001</ele>
        <time>2021-07-10T09:16:54Z</time>
      </trkpt>
      <trkpt lat="41.08043197542429" lon="-3.868680987507105">
        <ele>1105.9649999999999</ele>
        <time>2021-07-10T09:16:55Z</time>
      </trkpt>
      <trkpt lat="41.080529959872365" lon="-3.868416035547853">
        <ele>1104.9269999999999</ele>
        <time>2021-07-10T09:16:56Z</time>
      </trkpt>
      <trkpt lat="41.080727018415928" lon="-3.867894010618329">
        <ele>1103.55</ele>
        <time>2021-07-10T09:16:58Z</time>
      </trkpt>
      <trkpt lat="41.080828020349145" lon="-3.867624029517174">
        <ele>1102.5640000000001</ele>
        <time>2021-07-10T09:16:59Z</time>
      </trkpt>
      <trkpt lat="41.080931033939123" lon="-3.867346001788974">
        <ele>1102.193</ele>
        <time>2021-07-10T09:17:00Z</time>
      </trkpt>
      <trkpt lat="41.081019965931773" lon="-3.867079960182309">
        <ele>1102.3920000000001</ele>
        <time>2021-07-10T09:17:01Z</time>
      </trkpt>
      <trkpt lat="41.081151980906725" lon="-3.866552989929915">
        <ele>1101.373</ele>
        <time>2021-07-10T09:17:03Z</time>
      </trkpt>
      <trkpt lat="41.081202020868659" lon="-3.866275968030095">
        <ele>1100.52</ele>
        <time>2021-07-10T09:17:04Z</time>
      </trkpt>
      <trkpt lat="41.081252982839942" lon="-3.865989977493882">
        <ele>1100.1079999999999</ele>
        <time>2021-07-10T09:17:05Z</time>
      </trkpt>
      <trkpt lat="41.081300005316734" lon="-3.86570499278605">
        <ele>1099.556</ele>
        <time>2021-07-10T09:17:06Z</time>
      </trkpt>
      <trkpt lat="41.081388015300035" lon="-3.865171987563372">
        <ele>1098.566</ele>
        <time>2021-07-10T09:17:08Z</time>
      </trkpt>
      <trkpt lat="41.08148398809135" lon="-3.864620961248875">
        <ele>1096.347</ele>
        <time>2021-07-10T09:17:10Z</time>
      </trkpt>
      <trkpt lat="41.081567974761128" lon="-3.864131039008498">
        <ele>1094.0730000000001</ele>
        <time>2021-07-10T09:17:12Z</time>
      </trkpt>
      <trkpt lat="41.081669982522726" lon="-3.86366399936378">
        <ele>1091.665</ele>
        <time>2021-07-10T09:17:14Z</time>
      </trkpt>
      <trkpt lat="41.081740977242589" lon="-3.863453026860952">
        <ele>1090.258</ele>
        <time>2021-07-10T09:17:15Z</time>
      </trkpt>
      <trkpt lat="41.081932000815868" lon="-3.863091012462974">
        <ele>1088.432</ele>
        <time>2021-07-10T09:17:17Z</time>
      </trkpt>
      <trkpt lat="41.082195024937391" lon="-3.862818013876677">
        <ele>1086.481</ele>
        <time>2021-07-10T09:17:19Z</time>
      </trkpt>
      <trkpt lat="41.082332991063595" lon="-3.862663032487035">
        <ele>1084.8530000000001</ele>
        <time>2021-07-10T09:17:20Z</time>
      </trkpt>
      <trkpt lat="41.082454025745392" lon="-3.862474020570517">
        <ele>1083.204</ele>
        <time>2021-07-10T09:17:21Z</time>
      </trkpt>
      <trkpt lat="41.082614958286285" lon="-3.862102031707764">
        <ele>1082.114</ele>
        <time>2021-07-10T09:17:23Z</time>
      </trkpt>
      <trkpt lat="41.082824002951384" lon="-3.861809000372887">
        <ele>1080.7080000000001</ele>
        <time>2021-07-10T09:17:25Z</time>
      </trkpt>
      <trkpt lat="41.08296699821949" lon="-3.861699029803276">
        <ele>1079.0820000000001</ele>
        <time>2021-07-10T09:17:26Z</time>
      </trkpt>
      <trkpt lat="41.083223987370729" lon="-3.861470958217979">
        <ele>1076.8720000000001</ele>
        <time>2021-07-10T09:17:28Z</time>
      </trkpt>
      <trkpt lat="41.083423979580402" lon="-3.861127970740199">
        <ele>1075.3630000000001</ele>
        <time>2021-07-10T09:17:30Z</time>
      </trkpt>
      <trkpt lat="41.083507966250181" lon="-3.860955974087119">
        <ele>1074.5889999999999</ele>
        <time>2021-07-10T09:17:31Z</time>
      </trkpt>
      <trkpt lat="41.083588013425469" lon="-3.860818007960916">
        <ele>1072.711</ele>
        <time>2021-07-10T09:17:32Z</time>
      </trkpt>
      <trkpt lat="41.08378398232162" lon="-3.860679036006331">
        <ele>1070.924</ele>
        <time>2021-07-10T09:17:34Z</time>
      </trkpt>
      <trkpt lat="41.083894036710262" lon="-3.860678030177951">
        <ele>1069.1279999999999</ele>
        <time>2021-07-10T09:17:35Z</time>
      </trkpt>
      <trkpt lat="41.084015993401408" lon="-3.860707031562924">
        <ele>1068.2570000000001</ele>
        <time>2021-07-10T09:17:36Z</time>
      </trkpt>
      <trkpt lat="41.084235012531281" lon="-3.860801998525858">
        <ele>1066.3820000000001</ele>
        <time>2021-07-10T09:17:38Z</time>
      </trkpt>
      <trkpt lat="41.084352023899555" lon="-3.860852038487792">
        <ele>1065.2429999999999</ele>
        <time>2021-07-10T09:17:39Z</time>
      </trkpt>
      <trkpt lat="41.084468029439449" lon="-3.860885985195637">
        <ele>1063.9169999999999</ele>
        <time>2021-07-10T09:17:40Z</time>
      </trkpt>
      <trkpt lat="41.084588980302215" lon="-3.86089101433754">
        <ele>1062.9079999999999</ele>
        <time>2021-07-10T09:17:41Z</time>
      </trkpt>
      <trkpt lat="41.084697023034096" lon="-3.860855977982283">
        <ele>1062.5350000000001</ele>
        <time>2021-07-10T09:17:42Z</time>
      </trkpt>
      <trkpt lat="41.084884023293853" lon="-3.860697979107499">
        <ele>1061.7550000000001</ele>
        <time>2021-07-10T09:17:44Z</time>
      </trkpt>
      <trkpt lat="41.08496599830687" lon="-3.860585996881127">
        <ele>1060.296</ele>
        <time>2021-07-10T09:17:45Z</time>
      </trkpt>
      <trkpt lat="41.085044033825397" lon="-3.860464040189982">
        <ele>1058.662</ele>
        <time>2021-07-10T09:17:46Z</time>
      </trkpt>
      <trkpt lat="41.08517998829484" lon="-3.860233034938574">
        <ele>1057.654</ele>
        <time>2021-07-10T09:17:48Z</time>
      </trkpt>
      <trkpt lat="41.085245031863451" lon="-3.860107976943255">
        <ele>1056.6469999999999</ele>
        <time>2021-07-10T09:17:49Z</time>
      </trkpt>
      <trkpt lat="41.085365982726216" lon="-3.859842019155622">
        <ele>1055.961</ele>
        <time>2021-07-10T09:17:51Z</time>
      </trkpt>
      <trkpt lat="41.085479976609349" lon="-3.85960397310555">
        <ele>1056.24</ele>
        <time>2021-07-10T09:17:53Z</time>
      </trkpt>
      <trkpt lat="41.085565974935889" lon="-3.8595150411129">
        <ele>1055.4380000000001</ele>
        <time>2021-07-10T09:17:54Z</time>
      </trkpt>
      <trkpt lat="41.085668988525867" lon="-3.859448991715908">
        <ele>1054.6700000000001</ele>
        <time>2021-07-10T09:17:55Z</time>
      </trkpt>
      <trkpt lat="41.085790023207664" lon="-3.85938998311758">
        <ele>1054.117</ele>
        <time>2021-07-10T09:17:56Z</time>
      </trkpt>
      <trkpt lat="41.085917009040713" lon="-3.859330974519253">
        <ele>1054.2080000000001</ele>
        <time>2021-07-10T09:17:57Z</time>
      </trkpt>
      <trkpt lat="41.086178021505475" lon="-3.859207006171346">
        <ele>1053.6500000000001</ele>
        <time>2021-07-10T09:17:59Z</time>
      </trkpt>
      <trkpt lat="41.086324034258723" lon="-3.859140034765005">
        <ele>1052.9100000000001</ele>
        <time>2021-07-10T09:18:00Z</time>
      </trkpt>
      <trkpt lat="41.086473986506462" lon="-3.859068034216762">
        <ele>1052.671</ele>
        <time>2021-07-10T09:18:01Z</time>
      </trkpt>
      <trkpt lat="41.086625028401613" lon="-3.858994022011757">
        <ele>1051.9970000000001</ele>
        <time>2021-07-10T09:18:02Z</time>
      </trkpt>
      <trkpt lat="41.0869209934026" lon="-3.85885102674365">
        <ele>1051.479</ele>
        <time>2021-07-10T09:18:04Z</time>
      </trkpt>
      <trkpt lat="41.087216036394238" lon="-3.858696967363358">
        <ele>1050.962</ele>
        <time>2021-07-10T09:18:06Z</time>
      </trkpt>
      <trkpt lat="41.08737101778388" lon="-3.858596971258521">
        <ele>1050.6559999999999</ele>
        <time>2021-07-10T09:18:07Z</time>
      </trkpt>
      <trkpt lat="41.087643010541797" lon="-3.858365966007114">
        <ele>1050.145</ele>
        <time>2021-07-10T09:18:09Z</time>
      </trkpt>
      <trkpt lat="41.087781982496381" lon="-3.858235962688923">
        <ele>1049.5409999999999</ele>
        <time>2021-07-10T09:18:10Z</time>
      </trkpt>
      <trkpt lat="41.087915003299713" lon="-3.858100008219481">
        <ele>1049.181</ele>
        <time>2021-07-10T09:18:11Z</time>
      </trkpt>
      <trkpt lat="41.088048024103045" lon="-3.857941003516316">
        <ele>1048.9090000000001</ele>
        <time>2021-07-10T09:18:12Z</time>
      </trkpt>
      <trkpt lat="41.08827299438417" lon="-3.857641015201807">
        <ele>1048.008</ele>
        <time>2021-07-10T09:18:14Z</time>
      </trkpt>
      <trkpt lat="41.088384976610541" lon="-3.857483016327024">
        <ele>1047.251</ele>
        <time>2021-07-10T09:18:15Z</time>
      </trkpt>
      <trkpt lat="41.088621011003852" lon="-3.857170036062598">
        <ele>1047.011</ele>
        <time>2021-07-10T09:18:17Z</time>
      </trkpt>
      <trkpt lat="41.088870037347078" lon="-3.856912963092327">
        <ele>1046.452</ele>
        <time>2021-07-10T09:18:19Z</time>
      </trkpt>
      <trkpt lat="41.089014960452914" lon="-3.856801986694336">
        <ele>1045.558</ele>
        <time>2021-07-10T09:18:20Z</time>
      </trkpt>
      <trkpt lat="41.089332969859242" lon="-3.856584979221225">
        <ele>1045.1500000000001</ele>
        <time>2021-07-10T09:18:22Z</time>
      </trkpt>
      <trkpt lat="41.089646033942699" lon="-3.856373000890017">
        <ele>1044.5129999999999</ele>
        <time>2021-07-10T09:18:24Z</time>
      </trkpt>
      <trkpt lat="41.089984998106956" lon="-3.856146018952131">
        <ele>1043.617</ele>
        <time>2021-07-10T09:18:26Z</time>
      </trkpt>
      <trkpt lat="41.090174010023475" lon="-3.856035964563489">
        <ele>1043.376</ele>
        <time>2021-07-10T09:18:27Z</time>
      </trkpt>
      <trkpt lat="41.090527977794409" lon="-3.855870002880693">
        <ele>1042.979</ele>
        <time>2021-07-10T09:18:29Z</time>
      </trkpt>
      <trkpt lat="41.090902984142303" lon="-3.855727007612586">
        <ele>1042.605</ele>
        <time>2021-07-10T09:18:31Z</time>
      </trkpt>
      <trkpt lat="41.091099958866835" lon="-3.855654001235962">
        <ele>1042.325</ele>
        <time>2021-07-10T09:18:32Z</time>
      </trkpt>
      <trkpt lat="41.091459961608052" lon="-3.855583006516099">
        <ele>1041.808</ele>
        <time>2021-07-10T09:18:34Z</time>
      </trkpt>
      <trkpt lat="41.091658025979996" lon="-3.855588035658002">
        <ele>1041.7739999999999</ele>
        <time>2021-07-10T09:18:35Z</time>
      </trkpt>
      <trkpt lat="41.091857012361288" lon="-3.855603961274028">
        <ele>1041.454</ele>
        <time>2021-07-10T09:18:36Z</time>
      </trkpt>
      <trkpt lat="41.092071002349257" lon="-3.855619970709086">
        <ele>1041.2149999999999</ele>
        <time>2021-07-10T09:18:37Z</time>
      </trkpt>
      <trkpt lat="41.092466041445732" lon="-3.855647966265678">
        <ele>1040.8109999999999</ele>
        <time>2021-07-10T09:18:39Z</time>
      </trkpt>
      <trkpt lat="41.092886980623007" lon="-3.855675039812923">
        <ele>1040.2629999999999</ele>
        <time>2021-07-10T09:18:41Z</time>
      </trkpt>
      <trkpt lat="41.093109017238021" lon="-3.855689959600568">
        <ele>1040.056</ele>
        <time>2021-07-10T09:18:42Z</time>
      </trkpt>
      <trkpt lat="41.09332300722599" lon="-3.855703035369515">
        <ele>1039.6300000000001</ele>
        <time>2021-07-10T09:18:43Z</time>
      </trkpt>
      <trkpt lat="41.093733971938491" lon="-3.855728013440967">
        <ele>1039.239</ele>
        <time>2021-07-10T09:18:45Z</time>
      </trkpt>
      <trkpt lat="41.093951985239983" lon="-3.855742011219263">
        <ele>1038.5530000000001</ele>
        <time>2021-07-10T09:18:46Z</time>
      </trkpt>
      <trkpt lat="41.094172010198236" lon="-3.85575600899756">
        <ele>1037.704</ele>
        <time>2021-07-10T09:18:47Z</time>
      </trkpt>
      <trkpt lat="41.094393040984869" lon="-3.855774030089378">
        <ele>1037.8140000000001</ele>
        <time>2021-07-10T09:18:48Z</time>
      </trkpt>
      <trkpt lat="41.094618011265993" lon="-3.855786016210914">
        <ele>1038.2080000000001</ele>
        <time>2021-07-10T09:18:49Z</time>
      </trkpt>
      <trkpt lat="41.095059989020228" lon="-3.855810994282365">
        <ele>1038.5719999999999</ele>
        <time>2021-07-10T09:18:51Z</time>
      </trkpt>
      <trkpt lat="41.095282025635242" lon="-3.855824992060661">
        <ele>1038.2619999999999</ele>
        <time>2021-07-10T09:18:52Z</time>
      </trkpt>
      <trkpt lat="41.09551303088665" lon="-3.855839995667338">
        <ele>1037.5329999999999</ele>
        <time>2021-07-10T09:18:53Z</time>
      </trkpt>
      <trkpt lat="41.095917038619518" lon="-3.855858016759157">
        <ele>1037.289</ele>
        <time>2021-07-10T09:18:55Z</time>
      </trkpt>
      <trkpt lat="41.096119964495301" lon="-3.855844018980861">
        <ele>1036.5409999999999</ele>
        <time>2021-07-10T09:18:56Z</time>
      </trkpt>
      <trkpt lat="41.096320040524006" lon="-3.855798002332449">
        <ele>1035.4739999999999</ele>
        <time>2021-07-10T09:18:57Z</time>
      </trkpt>
      <trkpt lat="41.096703009679914" lon="-3.855635980144143">
        <ele>1034.8779999999999</ele>
        <time>2021-07-10T09:18:59Z</time>
      </trkpt>
      <trkpt lat="41.096895039081573" lon="-3.855545958504081">
        <ele>1034.6369999999999</ele>
        <time>2021-07-10T09:19:00Z</time>
      </trkpt>
      <trkpt lat="41.097286976873875" lon="-3.855363987386227">
        <ele>1033.875</ele>
        <time>2021-07-10T09:19:02Z</time>
      </trkpt>
      <trkpt lat="41.097500966861844" lon="-3.85526298545301">
        <ele>1033.028</ele>
        <time>2021-07-10T09:19:03Z</time>
      </trkpt>
      <trkpt lat="41.097897011786699" lon="-3.85506802238524">
        <ele>1032.8199999999999</ele>
        <time>2021-07-10T09:19:05Z</time>
      </trkpt>
      <trkpt lat="41.098108990117908" lon="-3.854950005188584">
        <ele>1033.1079999999999</ele>
        <time>2021-07-10T09:19:06Z</time>
      </trkpt>
      <trkpt lat="41.098314011469483" lon="-3.854817990213633">
        <ele>1033.364</ele>
        <time>2021-07-10T09:19:07Z</time>
      </trkpt>
      <trkpt lat="41.098710978403687" lon="-3.854545997455716">
        <ele>1033.7439999999999</ele>
        <time>2021-07-10T09:19:09Z</time>
      </trkpt>
      <trkpt lat="41.098900996148586" lon="-3.854414988309145">
        <ele>1033.7650000000001</ele>
        <time>2021-07-10T09:19:10Z</time>
      </trkpt>
      <trkpt lat="41.099255969747901" lon="-3.854178031906486">
        <ele>1034.3309999999999</ele>
        <time>2021-07-10T09:19:12Z</time>
      </trkpt>
      <trkpt lat="41.099436013028026" lon="-3.854068983346224">
        <ele>1034.453</ele>
        <time>2021-07-10T09:19:13Z</time>
      </trkpt>
      <trkpt lat="41.099770031869411" lon="-3.853920958936214">
        <ele>1034.4359999999999</ele>
        <time>2021-07-10T09:19:15Z</time>
      </trkpt>
      <trkpt lat="41.100145960226655" lon="-3.853847030550242">
        <ele>1033.98</ele>
        <time>2021-07-10T09:19:17Z</time>
      </trkpt>
      <trkpt lat="41.100359028205276" lon="-3.853820962831378">
        <ele>1033.319</ele>
        <time>2021-07-10T09:19:18Z</time>
      </trkpt>
      <trkpt lat="41.100783990696073" lon="-3.853771006688476">
        <ele>1032.6869999999999</ele>
        <time>2021-07-10T09:19:20Z</time>
      </trkpt>
      <trkpt lat="41.101215993985534" lon="-3.853703029453754">
        <ele>1031.942</ele>
        <time>2021-07-10T09:19:22Z</time>
      </trkpt>
      <trkpt lat="41.10168001614511" lon="-3.853634968400002">
        <ele>1031.2260000000001</ele>
        <time>2021-07-10T09:19:24Z</time>
      </trkpt>
      <trkpt lat="41.101912027224898" lon="-3.853598004207015">
        <ele>1031.008</ele>
        <time>2021-07-10T09:19:25Z</time>
      </trkpt>
      <trkpt lat="41.102365991100669" lon="-3.853531032800674">
        <ele>1029.9349999999999</ele>
        <time>2021-07-10T09:19:27Z</time>
      </trkpt>
      <trkpt lat="41.102822972461581" lon="-3.853468000888825">
        <ele>1029.6949999999999</ele>
        <time>2021-07-10T09:19:29Z</time>
      </trkpt>
      <trkpt lat="41.103238966315985" lon="-3.853407986462116">
        <ele>1029.0260000000001</ele>
        <time>2021-07-10T09:19:31Z</time>
      </trkpt>
      <trkpt lat="41.103664012625813" lon="-3.853314025327563">
        <ele>1027.8620000000001</ele>
        <time>2021-07-10T09:19:33Z</time>
      </trkpt>
      <trkpt lat="41.103892000392079" lon="-3.8532430306077">
        <ele>1027.5540000000001</ele>
        <time>2021-07-10T09:19:34Z</time>
      </trkpt>
      <trkpt lat="41.104314029216766" lon="-3.853091988712549">
        <ele>1026.8869999999999</ele>
        <time>2021-07-10T09:19:36Z</time>
      </trkpt>
      <trkpt lat="41.104768998920918" lon="-3.852923009544611">
        <ele>1026.5809999999999</ele>
        <time>2021-07-10T09:19:38Z</time>
      </trkpt>
      <trkpt lat="41.105012996122241" lon="-3.852833993732929">
        <ele>1025.71</ele>
        <time>2021-07-10T09:19:39Z</time>
      </trkpt>
      <trkpt lat="41.105463020503521" lon="-3.852670965716243">
        <ele>1024.723</ele>
        <time>2021-07-10T09:19:41Z</time>
      </trkpt>
      <trkpt lat="41.10591497272253" lon="-3.852508021518588">
        <ele>1024.5830000000001</ele>
        <time>2021-07-10T09:19:43Z</time>
      </trkpt>
      <trkpt lat="41.106132986024022" lon="-3.852428980171681">
        <ele>1024.4110000000001</ele>
        <time>2021-07-10T09:19:44Z</time>
      </trkpt>
      <trkpt lat="41.106346976011992" lon="-3.852353962138295">
        <ele>1024.7080000000001</ele>
        <time>2021-07-10T09:19:45Z</time>
      </trkpt>
      <trkpt lat="41.106767999008298" lon="-3.85219101794064">
        <ele>1024.759</ele>
        <time>2021-07-10T09:19:47Z</time>
      </trkpt>
      <trkpt lat="41.106973020359874" lon="-3.852114994078875">
        <ele>1024.029</ele>
        <time>2021-07-10T09:19:48Z</time>
      </trkpt>
      <trkpt lat="41.107184998691082" lon="-3.852036036550999">
        <ele>1023.14</ele>
        <time>2021-07-10T09:19:49Z</time>
      </trkpt>
      <trkpt lat="41.107551958411932" lon="-3.851880971342325">
        <ele>1022.476</ele>
        <time>2021-07-10T09:19:51Z</time>
      </trkpt>
      <trkpt lat="41.107738958671689" lon="-3.851784998551011">
        <ele>1021.838</ele>
        <time>2021-07-10T09:19:52Z</time>
      </trkpt>
      <trkpt lat="41.107919001951814" lon="-3.851665975525975">
        <ele>1021.571</ele>
        <time>2021-07-10T09:19:53Z</time>
      </trkpt>
      <trkpt lat="41.10810399055481" lon="-3.851531026884913">
        <ele>1020.5650000000001</ele>
        <time>2021-07-10T09:19:54Z</time>
      </trkpt>
      <trkpt lat="41.10827598720789" lon="-3.851402029395104">
        <ele>1020.0839999999999</ele>
        <time>2021-07-10T09:19:55Z</time>
      </trkpt>
      <trkpt lat="41.108614029362798" lon="-3.851140011101961">
        <ele>1019.388</ele>
        <time>2021-07-10T09:19:57Z</time>
      </trkpt>
      <trkpt lat="41.108790971338749" lon="-3.851000033318996">
        <ele>1019.024</ele>
        <time>2021-07-10T09:19:58Z</time>
      </trkpt>
      <trkpt lat="41.108971014618874" lon="-3.850857960060239">
        <ele>1019.026</ele>
        <time>2021-07-10T09:19:59Z</time>
      </trkpt>
      <trkpt lat="41.109325988218188" lon="-3.850580016151071">
        <ele>1018.908</ele>
        <time>2021-07-10T09:20:01Z</time>
      </trkpt>
      <trkpt lat="41.109503014013171" lon="-3.850446995347738">
        <ele>1019.075</ele>
        <time>2021-07-10T09:20:02Z</time>
      </trkpt>
      <trkpt lat="41.109820017591119" lon="-3.850142983719707">
        <ele>1019.125</ele>
        <time>2021-07-10T09:20:04Z</time>
      </trkpt>
      <trkpt lat="41.110010035336018" lon="-3.850031001493335">
        <ele>1018.876</ele>
        <time>2021-07-10T09:20:05Z</time>
      </trkpt>
      <trkpt lat="41.110189994797111" lon="-3.849908038973808">
        <ele>1018.572</ele>
        <time>2021-07-10T09:20:06Z</time>
      </trkpt>
      <trkpt lat="41.110369032248855" lon="-3.84978398680687">
        <ele>1017.794</ele>
        <time>2021-07-10T09:20:07Z</time>
      </trkpt>
      <trkpt lat="41.110718976706266" lon="-3.849508976563811">
        <ele>1017.347</ele>
        <time>2021-07-10T09:20:09Z</time>
      </trkpt>
      <trkpt lat="41.110896002501249" lon="-3.84937696158886">
        <ele>1017.1609999999999</ele>
        <time>2021-07-10T09:20:10Z</time>
      </trkpt>
      <trkpt lat="41.11106900498271" lon="-3.849242012947798">
        <ele>1017.0599999999999</ele>
        <time>2021-07-10T09:20:11Z</time>
      </trkpt>
      <trkpt lat="41.111238989979029" lon="-3.849117960780859">
        <ele>1016.687</ele>
        <time>2021-07-10T09:20:12Z</time>
      </trkpt>
      <trkpt lat="41.11141299828887" lon="-3.849001033231616">
        <ele>1016.6420000000001</ele>
        <time>2021-07-10T09:20:13Z</time>
      </trkpt>
      <trkpt lat="41.111581977456808" lon="-3.848866000771523">
        <ele>1016.526</ele>
        <time>2021-07-10T09:20:14Z</time>
      </trkpt>
      <trkpt lat="41.111755985766649" lon="-3.848737003281713">
        <ele>1016.408</ele>
        <time>2021-07-10T09:20:15Z</time>
      </trkpt>
      <trkpt lat="41.112115988507867" lon="-3.84851697832346">
        <ele>1016.345</ele>
        <time>2021-07-10T09:20:17Z</time>
      </trkpt>
      <trkpt lat="41.112490994855762" lon="-3.848334001377225">
        <ele>1016.1849999999999</ele>
        <time>2021-07-10T09:20:19Z</time>
      </trkpt>
      <trkpt lat="41.112873964011669" lon="-3.848165022209287">
        <ele>1016.356</ele>
        <time>2021-07-10T09:20:21Z</time>
      </trkpt>
      <trkpt lat="41.113248970359564" lon="-3.847980033606291">
        <ele>1016.8920000000001</ele>
        <time>2021-07-10T09:20:23Z</time>
      </trkpt>
      <trkpt lat="41.113439993932843" lon="-3.847926976159215">
        <ele>1017.024</ele>
        <time>2021-07-10T09:20:24Z</time>
      </trkpt>
      <trkpt lat="41.113628000020981" lon="-3.847855981439352">
        <ele>1017.3869999999999</ele>
        <time>2021-07-10T09:20:25Z</time>
      </trkpt>
      <trkpt lat="41.114002000540495" lon="-3.847727989777923">
        <ele>1017.9109999999999</ele>
        <time>2021-07-10T09:20:27Z</time>
      </trkpt>
      <trkpt lat="41.114181037992239" lon="-3.847618019208312">
        <ele>1018.27</ele>
        <time>2021-07-10T09:20:28Z</time>
      </trkpt>
      <trkpt lat="41.114537017419934" lon="-3.847425989806652">
        <ele>1017.998</ele>
        <time>2021-07-10T09:20:30Z</time>
      </trkpt>
      <trkpt lat="41.114904982969165" lon="-3.847261033952236">
        <ele>1018.115</ele>
        <time>2021-07-10T09:20:32Z</time>
      </trkpt>
      <trkpt lat="41.115090977400541" lon="-3.847192972898483">
        <ele>1018.226</ele>
        <time>2021-07-10T09:20:33Z</time>
      </trkpt>
      <trkpt lat="41.115453997626901" lon="-3.847041008993983">
        <ele>1018.1079999999999</ele>
        <time>2021-07-10T09:20:35Z</time>
      </trkpt>
      <trkpt lat="41.115634040907025" lon="-3.846956016495824">
        <ele>1018.176</ele>
        <time>2021-07-10T09:20:36Z</time>
      </trkpt>
      <trkpt lat="41.115982979536057" lon="-3.846792988479137">
        <ele>1018.016</ele>
        <time>2021-07-10T09:20:38Z</time>
      </trkpt>
      <trkpt lat="41.116327978670597" lon="-3.846640018746257">
        <ele>1017.997</ele>
        <time>2021-07-10T09:20:40Z</time>
      </trkpt>
      <trkpt lat="41.116497963666916" lon="-3.846544967964292">
        <ele>1017.9829999999999</ele>
        <time>2021-07-10T09:20:41Z</time>
      </trkpt>
      <trkpt lat="41.116838017478585" lon="-3.846362996846438">
        <ele>1017.735</ele>
        <time>2021-07-10T09:20:43Z</time>
      </trkpt>
      <trkpt lat="41.117184022441506" lon="-3.846187982708216">
        <ele>1017.718</ele>
        <time>2021-07-10T09:20:45Z</time>
      </trkpt>
      <trkpt lat="41.11753698438406" lon="-3.846044987440109">
        <ele>1017.852</ele>
        <time>2021-07-10T09:20:47Z</time>
      </trkpt>
      <trkpt lat="41.117707975208759" lon="-3.845952032133937">
        <ele>1017.711</ele>
        <time>2021-07-10T09:20:48Z</time>
      </trkpt>
      <trkpt lat="41.118041994050145" lon="-3.845774000510573">
        <ele>1017.2329999999999</ele>
        <time>2021-07-10T09:20:50Z</time>
      </trkpt>
      <trkpt lat="41.118382969871163" lon="-3.845611978322268">
        <ele>1017.123</ele>
        <time>2021-07-10T09:20:52Z</time>
      </trkpt>
      <trkpt lat="41.118557984009385" lon="-3.845534026622772">
        <ele>1016.915</ele>
        <time>2021-07-10T09:20:53Z</time>
      </trkpt>
      <trkpt lat="41.11891102977097" lon="-3.845384996384382">
        <ele>1016.408</ele>
        <time>2021-07-10T09:20:55Z</time>
      </trkpt>
      <trkpt lat="41.119095012545586" lon="-3.845306960865855">
        <ele>1016.04</ele>
        <time>2021-07-10T09:20:56Z</time>
      </trkpt>
      <trkpt lat="41.119462978094816" lon="-3.845146028324962">
        <ele>1015.51</ele>
        <time>2021-07-10T09:20:58Z</time>
      </trkpt>
      <trkpt lat="41.119834966957569" lon="-3.844975037500262">
        <ele>1014.931</ele>
        <time>2021-07-10T09:21:00Z</time>
      </trkpt>
      <trkpt lat="41.120215002447367" lon="-3.84479901753366">
        <ele>1014.287</ele>
        <time>2021-07-10T09:21:02Z</time>
      </trkpt>
      <trkpt lat="41.120405020192266" lon="-3.844702960923314">
        <ele>1013.529</ele>
        <time>2021-07-10T09:21:03Z</time>
      </trkpt>
      <trkpt lat="41.120600989088416" lon="-3.844632972031832">
        <ele>1013.052</ele>
        <time>2021-07-10T09:21:04Z</time>
      </trkpt>
      <trkpt lat="41.120792012661695" lon="-3.844543034210801">
        <ele>1012.396</ele>
        <time>2021-07-10T09:21:05Z</time>
      </trkpt>
      <trkpt lat="41.121170036494732" lon="-3.844381012022495">
        <ele>1011.575</ele>
        <time>2021-07-10T09:21:07Z</time>
      </trkpt>
      <trkpt lat="41.121525010094047" lon="-3.84415403008461">
        <ele>1011.078</ele>
        <time>2021-07-10T09:21:09Z</time>
      </trkpt>
      <trkpt lat="41.121909990906715" lon="-3.844022015109658">
        <ele>1010.2329999999999</ele>
        <time>2021-07-10T09:21:11Z</time>
      </trkpt>
      <trkpt lat="41.122105037793517" lon="-3.843931993469596">
        <ele>1009.726</ele>
        <time>2021-07-10T09:21:12Z</time>
      </trkpt>
      <trkpt lat="41.12249999307096" lon="-3.843737030401826">
        <ele>1008.808</ele>
        <time>2021-07-10T09:21:14Z</time>
      </trkpt>
      <trkpt lat="41.122701996937394" lon="-3.843633010983467">
        <ele>1008.364</ele>
        <time>2021-07-10T09:21:15Z</time>
      </trkpt>
      <trkpt lat="41.122908024117351" lon="-3.843517005443573">
        <ele>1008.034</ele>
        <time>2021-07-10T09:21:16Z</time>
      </trkpt>
      <trkpt lat="41.123336004093289" lon="-3.843260016292334">
        <ele>1006.985</ele>
        <time>2021-07-10T09:21:18Z</time>
      </trkpt>
      <trkpt lat="41.12378996796906" lon="-3.842986011877656">
        <ele>1006.011</ele>
        <time>2021-07-10T09:21:20Z</time>
      </trkpt>
      <trkpt lat="41.124023990705609" lon="-3.842842010781169">
        <ele>1004.943</ele>
        <time>2021-07-10T09:21:21Z</time>
      </trkpt>
      <trkpt lat="41.124496981501579" lon="-3.842546967789531">
        <ele>1005.186</ele>
        <time>2021-07-10T09:21:23Z</time>
      </trkpt>
      <trkpt lat="41.124981958419085" lon="-3.842256031930447">
        <ele>1005.37</ele>
        <time>2021-07-10T09:21:25Z</time>
      </trkpt>
      <trkpt lat="41.12522603943944" lon="-3.842113958671689">
        <ele>1005.119</ele>
        <time>2021-07-10T09:21:26Z</time>
      </trkpt>
      <trkpt lat="41.125472970306873" lon="-3.841972975060344">
        <ele>1004.938</ele>
        <time>2021-07-10T09:21:27Z</time>
      </trkpt>
      <trkpt lat="41.125959036871791" lon="-3.84168597869575">
        <ele>1004.77</ele>
        <time>2021-07-10T09:21:29Z</time>
      </trkpt>
      <trkpt lat="41.126204961910844" lon="-3.841542983427644">
        <ele>1004.417</ele>
        <time>2021-07-10T09:21:30Z</time>
      </trkpt>
      <trkpt lat="41.126703014597297" lon="-3.841248024255037">
        <ele>1004.208</ele>
        <time>2021-07-10T09:21:32Z</time>
      </trkpt>
      <trkpt lat="41.126953968778253" lon="-3.841090025380254">
        <ele>1004.27</ele>
        <time>2021-07-10T09:21:33Z</time>
      </trkpt>
      <trkpt lat="41.127455960959196" lon="-3.840776039287448">
        <ele>1002.6799999999999</ele>
        <time>2021-07-10T09:21:35Z</time>
      </trkpt>
      <trkpt lat="41.127974968403578" lon="-3.84045802988112">
        <ele>1001.121</ele>
        <time>2021-07-10T09:21:37Z</time>
      </trkpt>
      <trkpt lat="41.128237992525101" lon="-3.840297013521195">
        <ele>1000.447</ele>
        <time>2021-07-10T09:21:38Z</time>
      </trkpt>
      <trkpt lat="41.12851501442492" lon="-3.840128034353256">
        <ele>999.899</ele>
        <time>2021-07-10T09:21:39Z</time>
      </trkpt>
      <trkpt lat="41.129043996334076" lon="-3.839813964441419">
        <ele>999.36199999999997</ele>
        <time>2021-07-10T09:21:41Z</time>
      </trkpt>
      <trkpt lat="41.129313977435231" lon="-3.839651020243764">
        <ele>998.82600000000002</ele>
        <time>2021-07-10T09:21:42Z</time>
      </trkpt>
      <trkpt lat="41.129582030698657" lon="-3.839491009712219">
        <ele>998.125</ele>
        <time>2021-07-10T09:21:43Z</time>
      </trkpt>
      <trkpt lat="41.130109000951052" lon="-3.839174006134272">
        <ele>997.74699999999996</ele>
        <time>2021-07-10T09:21:45Z</time>
      </trkpt>
      <trkpt lat="41.130614010617137" lon="-3.838863037526608">
        <ele>996.72900000000004</ele>
        <time>2021-07-10T09:21:47Z</time>
      </trkpt>
      <trkpt lat="41.130863958969712" lon="-3.838713001459837">
        <ele>996.02099999999996</ele>
        <time>2021-07-10T09:21:48Z</time>
      </trkpt>
      <trkpt lat="41.131109967827797" lon="-3.838562965393066">
        <ele>995.40800000000002</ele>
        <time>2021-07-10T09:21:49Z</time>
      </trkpt>
      <trkpt lat="41.131354970857501" lon="-3.838413013145328">
        <ele>994.77099999999996</ele>
        <time>2021-07-10T09:21:50Z</time>
      </trkpt>
      <trkpt lat="41.1318230163306" lon="-3.838089974597096">
        <ele>994.23099999999999</ele>
        <time>2021-07-10T09:21:52Z</time>
      </trkpt>
      <trkpt lat="41.132052009925246" lon="-3.837898029014468">
        <ele>993.96199999999999</ele>
        <time>2021-07-10T09:21:53Z</time>
      </trkpt>
      <trkpt lat="41.132471021264791" lon="-3.837515981867909">
        <ele>993.93799999999999</ele>
        <time>2021-07-10T09:21:55Z</time>
      </trkpt>
      <trkpt lat="41.132905958220363" lon="-3.837124966084957">
        <ele>993.80999999999995</ele>
        <time>2021-07-10T09:21:57Z</time>
      </trkpt>
      <trkpt lat="41.133119026198983" lon="-3.836924973875284">
        <ele>993.81299999999999</ele>
        <time>2021-07-10T09:21:58Z</time>
      </trkpt>
      <trkpt lat="41.133539965376258" lon="-3.836544016376138">
        <ele>994.077</ele>
        <time>2021-07-10T09:22:00Z</time>
      </trkpt>
      <trkpt lat="41.133971968665719" lon="-3.836150988936424">
        <ele>993.31600000000003</ele>
        <time>2021-07-10T09:22:02Z</time>
      </trkpt>
      <trkpt lat="41.134419981390238" lon="-3.835734995082021">
        <ele>992.18600000000004</ele>
        <time>2021-07-10T09:22:04Z</time>
      </trkpt>
      <trkpt lat="41.13485399633646" lon="-3.835340961813927">
        <ele>991.15999999999997</ele>
        <time>2021-07-10T09:22:06Z</time>
      </trkpt>
      <trkpt lat="41.135085001587868" lon="-3.835126971825957">
        <ele>990.42600000000004</ele>
        <time>2021-07-10T09:22:07Z</time>
      </trkpt>
      <trkpt lat="41.135318018496037" lon="-3.834921028465033">
        <ele>989.90800000000002</ele>
        <time>2021-07-10T09:22:08Z</time>
      </trkpt>
      <trkpt lat="41.135566039010882" lon="-3.834699997678399">
        <ele>989.77499999999998</ele>
        <time>2021-07-10T09:22:09Z</time>
      </trkpt>
      <trkpt lat="41.136008016765118" lon="-3.834298001602292">
        <ele>989.495</ele>
        <time>2021-07-10T09:22:11Z</time>
      </trkpt>
      <trkpt lat="41.136456029489636" lon="-3.833886031061411">
        <ele>988.71600000000001</ele>
        <time>2021-07-10T09:22:13Z</time>
      </trkpt>
      <trkpt lat="41.136674964800477" lon="-3.833687966689467">
        <ele>988.21199999999999</ele>
        <time>2021-07-10T09:22:14Z</time>
      </trkpt>
      <trkpt lat="41.136891972273588" lon="-3.833489986136556">
        <ele>987.76400000000001</ele>
        <time>2021-07-10T09:22:15Z</time>
      </trkpt>
      <trkpt lat="41.137306960299611" lon="-3.833115985617042">
        <ele>986.88699999999994</ele>
        <time>2021-07-10T09:22:17Z</time>
      </trkpt>
      <trkpt lat="41.137513993307948" lon="-3.832932002842426">
        <ele>986.36099999999999</ele>
        <time>2021-07-10T09:22:18Z</time>
      </trkpt>
      <trkpt lat="41.137738963589072" lon="-3.832749025896192">
        <ele>986.07000000000005</ele>
        <time>2021-07-10T09:22:19Z</time>
      </trkpt>
      <trkpt lat="41.13816199824214" lon="-3.832461023703218">
        <ele>985.79399999999998</ele>
        <time>2021-07-10T09:22:21Z</time>
      </trkpt>
      <trkpt lat="41.138388980180025" lon="-3.832317022606731">
        <ele>985.75699999999995</ele>
        <time>2021-07-10T09:22:22Z</time>
      </trkpt>
      <trkpt lat="41.138853002339602" lon="-3.832026002928615">
        <ele>985.52200000000005</ele>
        <time>2021-07-10T09:22:24Z</time>
      </trkpt>
      <trkpt lat="41.13927997648716" lon="-3.83175702765584">
        <ele>985.30799999999999</ele>
        <time>2021-07-10T09:22:26Z</time>
      </trkpt>
      <trkpt lat="41.13949497230351" lon="-3.831620989367366">
        <ele>984.93600000000004</ele>
        <time>2021-07-10T09:22:27Z</time>
      </trkpt>
      <trkpt lat="41.139909960329533" lon="-3.831342039629817">
        <ele>984.346</ele>
        <time>2021-07-10T09:22:29Z</time>
      </trkpt>
      <trkpt lat="41.140243979170918" lon="-3.831024030223489">
        <ele>983.99699999999996</ele>
        <time>2021-07-10T09:22:31Z</time>
      </trkpt>
      <trkpt lat="41.140406001359224" lon="-3.830823032185435">
        <ele>984.13300000000004</ele>
        <time>2021-07-10T09:22:32Z</time>
      </trkpt>
      <trkpt lat="41.140714036300778" lon="-3.830419024452567">
        <ele>983.86500000000001</ele>
        <time>2021-07-10T09:22:34Z</time>
      </trkpt>
      <trkpt lat="41.140866000205278" lon="-3.830218026414514">
        <ele>983.12800000000004</ele>
        <time>2021-07-10T09:22:35Z</time>
      </trkpt>
      <trkpt lat="41.141164982691407" lon="-3.829830028116703">
        <ele>981.98199999999997</ele>
        <time>2021-07-10T09:22:37Z</time>
      </trkpt>
      <trkpt lat="41.141305966302752" lon="-3.829648979008198">
        <ele>981.46100000000001</ele>
        <time>2021-07-10T09:22:38Z</time>
      </trkpt>
      <trkpt lat="41.141435969620943" lon="-3.829471031203866">
        <ele>980.98900000000003</ele>
        <time>2021-07-10T09:22:39Z</time>
      </trkpt>
      <trkpt lat="41.141545018181205" lon="-3.829319989308715">
        <ele>980.90599999999995</ele>
        <time>2021-07-10T09:22:40Z</time>
      </trkpt>
      <trkpt lat="41.141733024269342" lon="-3.82903098128736">
        <ele>980.726</ele>
        <time>2021-07-10T09:22:42Z</time>
      </trkpt>
      <trkpt lat="41.141817010939121" lon="-3.828883040696383">
        <ele>980.50800000000004</ele>
        <time>2021-07-10T09:22:43Z</time>
      </trkpt>
      <trkpt lat="41.141885994002223" lon="-3.828747002407908">
        <ele>980.44500000000005</ele>
        <time>2021-07-10T09:22:44Z</time>
      </trkpt>
      <trkpt lat="41.141940979287028" lon="-3.828629991039634">
        <ele>980.745</ele>
        <time>2021-07-10T09:22:45Z</time>
      </trkpt>
      <trkpt lat="41.14200996235013" lon="-3.828475009649992">
        <ele>980.83600000000001</ele>
        <time>2021-07-10T09:22:47Z</time>
      </trkpt>
      <trkpt lat="41.142038963735104" lon="-3.828409966081381">
        <ele>980.64200000000005</ele>
        <time>2021-07-10T09:22:48Z</time>
      </trkpt>
      <trkpt lat="41.142062013968825" lon="-3.828353974968195">
        <ele>980.84400000000005</ele>
        <time>2021-07-10T09:22:49Z</time>
      </trkpt>
      <trkpt lat="41.142085986211896" lon="-3.828261019662023">
        <ele>980.89700000000005</ele>
        <time>2021-07-10T09:22:51Z</time>
      </trkpt>
      <trkpt lat="41.142103001475334" lon="-3.828122969716787">
        <ele>981.14099999999996</ele>
        <time>2021-07-10T09:22:53Z</time>
      </trkpt>
      <trkpt lat="41.142111970111728" lon="-3.828029008582234">
        <ele>981.21000000000004</ele>
        <time>2021-07-10T09:22:54Z</time>
      </trkpt>
      <trkpt lat="41.142119010910392" lon="-3.827923983335495">
        <ele>981.67700000000002</ele>
        <time>2021-07-10T09:22:55Z</time>
      </trkpt>
      <trkpt lat="41.14213895983994" lon="-3.827699013054371">
        <ele>981.36099999999999</ele>
        <time>2021-07-10T09:22:57Z</time>
      </trkpt>
      <trkpt lat="41.142153041437268" lon="-3.827587030827999">
        <ele>981.12699999999995</ele>
        <time>2021-07-10T09:22:58Z</time>
      </trkpt>
      <trkpt lat="41.142163015902042" lon="-3.827476976439357">
        <ele>980.80799999999999</ele>
        <time>2021-07-10T09:22:59Z</time>
      </trkpt>
      <trkpt lat="41.142173996195197" lon="-3.827260974794626">
        <ele>980.69399999999996</ele>
        <time>2021-07-10T09:23:01Z</time>
      </trkpt>
      <trkpt lat="41.142186988145113" lon="-3.827028041705489">
        <ele>980.47400000000005</ele>
        <time>2021-07-10T09:23:03Z</time>
      </trkpt>
      <trkpt lat="41.142193023115396" lon="-3.826912958174944">
        <ele>980.33500000000004</ele>
        <time>2021-07-10T09:23:04Z</time>
      </trkpt>
      <trkpt lat="41.142196040600538" lon="-3.826798964291811">
        <ele>980.43100000000004</ele>
        <time>2021-07-10T09:23:05Z</time>
      </trkpt>
      <trkpt lat="41.142187993973494" lon="-3.826619004830718">
        <ele>980.12300000000005</ele>
        <time>2021-07-10T09:23:07Z</time>
      </trkpt>
      <trkpt lat="41.142192017287016" lon="-3.826528983190656">
        <ele>980.04600000000005</ele>
        <time>2021-07-10T09:23:08Z</time>
      </trkpt>
      <trkpt lat="41.142243985086679" lon="-3.826371990144253">
        <ele>979.83000000000004</ele>
        <time>2021-07-10T09:23:10Z</time>
      </trkpt>
      <trkpt lat="41.142327971756458" lon="-3.826246010139585">
        <ele>980.25900000000001</ele>
        <time>2021-07-10T09:23:12Z</time>
      </trkpt>
      <trkpt lat="41.142380023375154" lon="-3.826179960742593">
        <ele>980.26900000000001</ele>
        <time>2021-07-10T09:23:13Z</time>
      </trkpt>
      <trkpt lat="41.142500974237919" lon="-3.826051969081163">
        <ele>980.30399999999997</ele>
        <time>2021-07-10T09:23:15Z</time>
      </trkpt>
      <trkpt lat="41.142625026404858" lon="-3.82593504153192">
        <ele>980.524</ele>
        <time>2021-07-10T09:23:17Z</time>
      </trkpt>
      <trkpt lat="41.142697026953101" lon="-3.825869997963309">
        <ele>979.90800000000002</ele>
        <time>2021-07-10T09:23:18Z</time>
      </trkpt>
      <trkpt lat="41.142852008342743" lon="-3.825724991038442">
        <ele>979.63300000000004</ele>
        <time>2021-07-10T09:23:20Z</time>
      </trkpt>
      <trkpt lat="41.143010007217526" lon="-3.825583001598716">
        <ele>978.95299999999997</ele>
        <time>2021-07-10T09:23:22Z</time>
      </trkpt>
      <trkpt lat="41.143091982230544" lon="-3.825505971908569">
        <ele>978.73400000000004</ele>
        <time>2021-07-10T09:23:23Z</time>
      </trkpt>
      <trkpt lat="41.143231960013509" lon="-3.825359959155321">
        <ele>978.95000000000005</ele>
        <time>2021-07-10T09:23:25Z</time>
      </trkpt>
      <trkpt lat="41.143309995532036" lon="-3.82526901550591">
        <ele>978.96199999999999</ele>
        <time>2021-07-10T09:23:27Z</time>
      </trkpt>
      <trkpt lat="41.143372021615505" lon="-3.825187962502241">
        <ele>980.34500000000003</ele>
        <time>2021-07-10T09:23:29Z</time>
      </trkpt>
      <trkpt lat="41.143418038263917" lon="-3.825121996924281">
        <ele>981.28899999999999</ele>
        <time>2021-07-10T09:23:30Z</time>
      </trkpt>
      <trkpt lat="41.143525997176766" lon="-3.824942037463188">
        <ele>982.78800000000001</ele>
        <time>2021-07-10T09:23:32Z</time>
      </trkpt>
      <trkpt lat="41.143653988838196" lon="-3.824702985584736">
        <ele>982.98500000000001</ele>
        <time>2021-07-10T09:23:34Z</time>
      </trkpt>
      <trkpt lat="41.143725989386439" lon="-3.824571976438165">
        <ele>983.18899999999996</ele>
        <time>2021-07-10T09:23:35Z</time>
      </trkpt>
      <trkpt lat="41.143882982432842" lon="-3.824289003387094">
        <ele>983.41700000000003</ele>
        <time>2021-07-10T09:23:37Z</time>
      </trkpt>
      <trkpt lat="41.144043998792768" lon="-3.82400100119412">
        <ele>984.40800000000002</ele>
        <time>2021-07-10T09:23:39Z</time>
      </trkpt>
      <trkpt lat="41.144127985462546" lon="-3.82385297678411">
        <ele>984.79499999999996</ele>
        <time>2021-07-10T09:23:40Z</time>
      </trkpt>
      <trkpt lat="41.144212977960706" lon="-3.823704030364752">
        <ele>985.31500000000005</ele>
        <time>2021-07-10T09:23:41Z</time>
      </trkpt>
      <trkpt lat="41.144302999600768" lon="-3.823552988469601">
        <ele>986.24599999999998</ele>
        <time>2021-07-10T09:23:42Z</time>
      </trkpt>
      <trkpt lat="41.144491005688906" lon="-3.823246965184808">
        <ele>987.06200000000001</ele>
        <time>2021-07-10T09:23:44Z</time>
      </trkpt>
      <trkpt lat="41.144589995965362" lon="-3.823086032643914">
        <ele>987.85400000000004</ele>
        <time>2021-07-10T09:23:45Z</time>
      </trkpt>
      <trkpt lat="41.144791999831796" lon="-3.82275402545929">
        <ele>989.33699999999999</ele>
        <time>2021-07-10T09:23:47Z</time>
      </trkpt>
      <trkpt lat="41.14499500952661" lon="-3.822408020496368">
        <ele>991.12099999999998</ele>
        <time>2021-07-10T09:23:49Z</time>
      </trkpt>
      <trkpt lat="41.145099028944969" lon="-3.822230994701386">
        <ele>992.49000000000001</ele>
        <time>2021-07-10T09:23:50Z</time>
      </trkpt>
      <trkpt lat="41.145313018932939" lon="-3.821867974475026">
        <ele>994.09100000000001</ele>
        <time>2021-07-10T09:23:52Z</time>
      </trkpt>
      <trkpt lat="41.14542399533093" lon="-3.821677034720779">
        <ele>995.38099999999997</ele>
        <time>2021-07-10T09:23:53Z</time>
      </trkpt>
      <trkpt lat="41.145642008632421" lon="-3.821280989795923">
        <ele>996.41899999999998</ele>
        <time>2021-07-10T09:23:55Z</time>
      </trkpt>
      <trkpt lat="41.14574896171689" lon="-3.821066999807954">
        <ele>997.50800000000004</ele>
        <time>2021-07-10T09:23:56Z</time>
      </trkpt>
      <trkpt lat="41.145962029695511" lon="-3.820618987083435">
        <ele>998.87599999999998</ele>
        <time>2021-07-10T09:23:58Z</time>
      </trkpt>
      <trkpt lat="41.146182976663113" lon="-3.820153037086129">
        <ele>1000.136</ele>
        <time>2021-07-10T09:24:00Z</time>
      </trkpt>
      <trkpt lat="41.146294958889484" lon="-3.819917002692819">
        <ele>1001.227</ele>
        <time>2021-07-10T09:24:01Z</time>
      </trkpt>
      <trkpt lat="41.14641297608614" lon="-3.819673005491495">
        <ele>1002.263</ele>
        <time>2021-07-10T09:24:02Z</time>
      </trkpt>
      <trkpt lat="41.14662797190249" lon="-3.819212000817061">
        <ele>1003.095</ele>
        <time>2021-07-10T09:24:04Z</time>
      </trkpt>
      <trkpt lat="41.146740037947893" lon="-3.818980995565653">
        <ele>1003.788</ele>
        <time>2021-07-10T09:24:05Z</time>
      </trkpt>
      <trkpt lat="41.146853026002645" lon="-3.818747978657484">
        <ele>1004.182</ele>
        <time>2021-07-10T09:24:06Z</time>
      </trkpt>
      <trkpt lat="41.146962996572256" lon="-3.818512028083205">
        <ele>1004.491</ele>
        <time>2021-07-10T09:24:07Z</time>
      </trkpt>
      <trkpt lat="41.14707799628377" lon="-3.818266019225121">
        <ele>1005.052</ele>
        <time>2021-07-10T09:24:08Z</time>
      </trkpt>
      <trkpt lat="41.1472939979285" lon="-3.817805014550686">
        <ele>1005.753</ele>
        <time>2021-07-10T09:24:10Z</time>
      </trkpt>
      <trkpt lat="41.147406985983253" lon="-3.817568980157375">
        <ele>1006.208</ele>
        <time>2021-07-10T09:24:11Z</time>
      </trkpt>
      <trkpt lat="41.147629022598267" lon="-3.817092971876264">
        <ele>1006.708</ele>
        <time>2021-07-10T09:24:13Z</time>
      </trkpt>
      <trkpt lat="41.147848041728139" lon="-3.816622998565435">
        <ele>1007.362</ele>
        <time>2021-07-10T09:24:15Z</time>
      </trkpt>
      <trkpt lat="41.147951977327466" lon="-3.816394004970789">
        <ele>1008.2619999999999</ele>
        <time>2021-07-10T09:24:16Z</time>
      </trkpt>
      <trkpt lat="41.148060020059347" lon="-3.81615998223424">
        <ele>1008.473</ele>
        <time>2021-07-10T09:24:17Z</time>
      </trkpt>
      <trkpt lat="41.148265041410923" lon="-3.81572999060154">
        <ele>1008.569</ele>
        <time>2021-07-10T09:24:19Z</time>
      </trkpt>
      <trkpt lat="41.148471990600228" lon="-3.815297987312079">
        <ele>1007.861</ele>
        <time>2021-07-10T09:24:21Z</time>
      </trkpt>
      <trkpt lat="41.148579027503729" lon="-3.815082991495729">
        <ele>1006.674</ele>
        <time>2021-07-10T09:24:22Z</time>
      </trkpt>
      <trkpt lat="41.148782959207892" lon="-3.814718965440989">
        <ele>1005.228</ele>
        <time>2021-07-10T09:24:24Z</time>
      </trkpt>
      <trkpt lat="41.148897036910057" lon="-3.814554009586573">
        <ele>1003.877</ele>
        <time>2021-07-10T09:24:25Z</time>
      </trkpt>
      <trkpt lat="41.149027040228248" lon="-3.814401961863041">
        <ele>1002.9829999999999</ele>
        <time>2021-07-10T09:24:26Z</time>
      </trkpt>
      <trkpt lat="41.149172969162464" lon="-3.81426801905036">
        <ele>1001.625</ele>
        <time>2021-07-10T09:24:27Z</time>
      </trkpt>
      <trkpt lat="41.149507993832231" lon="-3.814056040719152">
        <ele>999.81700000000001</ele>
        <time>2021-07-10T09:24:29Z</time>
      </trkpt>
      <trkpt lat="41.149888029322028" lon="-3.813902987167239">
        <ele>998.00800000000004</ele>
        <time>2021-07-10T09:24:31Z</time>
      </trkpt>
      <trkpt lat="41.150095984339714" lon="-3.813828974962235">
        <ele>996.995</ele>
        <time>2021-07-10T09:24:32Z</time>
      </trkpt>
      <trkpt lat="41.150292959064245" lon="-3.813754040747881">
        <ele>995.95500000000004</ele>
        <time>2021-07-10T09:24:33Z</time>
      </trkpt>
      <trkpt lat="41.150682969018817" lon="-3.813594030216336">
        <ele>995.29600000000005</ele>
        <time>2021-07-10T09:24:35Z</time>
      </trkpt>
      <trkpt lat="41.15088296122849" lon="-3.813515994697809">
        <ele>994.74199999999996</ele>
        <time>2021-07-10T09:24:36Z</time>
      </trkpt>
      <trkpt lat="41.151087982580066" lon="-3.813439970836043">
        <ele>995.19399999999996</ele>
        <time>2021-07-10T09:24:37Z</time>
      </trkpt>
      <trkpt lat="41.151282023638487" lon="-3.813383979722858">
        <ele>995.86699999999996</ele>
        <time>2021-07-10T09:24:38Z</time>
      </trkpt>
      <trkpt lat="41.151670021936297" lon="-3.81334500387311">
        <ele>996.74099999999999</ele>
        <time>2021-07-10T09:24:40Z</time>
      </trkpt>
      <trkpt lat="41.15186900831759" lon="-3.813357995823026">
        <ele>997.63999999999999</ele>
        <time>2021-07-10T09:24:41Z</time>
      </trkpt>
      <trkpt lat="41.152070006355643" lon="-3.813394960016012">
        <ele>999.024</ele>
        <time>2021-07-10T09:24:42Z</time>
      </trkpt>
      <trkpt lat="41.152259018272161" lon="-3.813438965007663">
        <ele>1000.804</ele>
        <time>2021-07-10T09:24:43Z</time>
      </trkpt>
      <trkpt lat="41.152641987428069" lon="-3.813530998304486">
        <ele>1003.314</ele>
        <time>2021-07-10T09:24:45Z</time>
      </trkpt>
      <trkpt lat="41.153047000989318" lon="-3.813613979145885">
        <ele>1005.808</ele>
        <time>2021-07-10T09:24:47Z</time>
      </trkpt>
      <trkpt lat="41.153429970145226" lon="-3.813641974702478">
        <ele>1008.649</ele>
        <time>2021-07-10T09:24:49Z</time>
      </trkpt>
      <trkpt lat="41.153626022860408" lon="-3.813627976924181">
        <ele>1010.139</ele>
        <time>2021-07-10T09:24:50Z</time>
      </trkpt>
      <trkpt lat="41.154045034199953" lon="-3.813570979982615">
        <ele>1012.66</ele>
        <time>2021-07-10T09:24:52Z</time>
      </trkpt>
      <trkpt lat="41.154257012531161" lon="-3.813542984426022">
        <ele>1015.246</ele>
        <time>2021-07-10T09:24:53Z</time>
      </trkpt>
      <trkpt lat="41.154676023870707" lon="-3.813478024676442">
        <ele>1018.1180000000001</ele>
        <time>2021-07-10T09:24:55Z</time>
      </trkpt>
      <trkpt lat="41.154896970838308" lon="-3.813443994149566">
        <ele>1020.351</ele>
        <time>2021-07-10T09:24:56Z</time>
      </trkpt>
      <trkpt lat="41.155120013281703" lon="-3.813413986936212">
        <ele>1021.9450000000001</ele>
        <time>2021-07-10T09:24:57Z</time>
      </trkpt>
      <trkpt lat="41.155356969684362" lon="-3.813385991379619">
        <ele>1023.614</ele>
        <time>2021-07-10T09:24:58Z</time>
      </trkpt>
      <trkpt lat="41.155800959095359" lon="-3.813337963074446">
        <ele>1025.4860000000001</ele>
        <time>2021-07-10T09:25:00Z</time>
      </trkpt>
      <trkpt lat="41.156026013195515" lon="-3.813297981396318">
        <ele>1026.76</ele>
        <time>2021-07-10T09:25:01Z</time>
      </trkpt>
      <trkpt lat="41.156478971242905" lon="-3.813224975019693">
        <ele>1029.126</ele>
        <time>2021-07-10T09:25:03Z</time>
      </trkpt>
      <trkpt lat="41.156932013109326" lon="-3.81317401304841">
        <ele>1031.9079999999999</ele>
        <time>2021-07-10T09:25:05Z</time>
      </trkpt>
      <trkpt lat="41.157360998913646" lon="-3.813134031370282">
        <ele>1034.8150000000001</ele>
        <time>2021-07-10T09:25:07Z</time>
      </trkpt>
      <trkpt lat="41.157781016081572" lon="-3.813072005286813">
        <ele>1037.175</ele>
        <time>2021-07-10T09:25:09Z</time>
      </trkpt>
      <trkpt lat="41.158197009935975" lon="-3.813025988638401">
        <ele>1039.596</ele>
        <time>2021-07-10T09:25:11Z</time>
      </trkpt>
      <trkpt lat="41.158403037115932" lon="-3.813004028052092">
        <ele>1041.252</ele>
        <time>2021-07-10T09:25:12Z</time>
      </trkpt>
      <trkpt lat="41.158605040982366" lon="-3.812982989475131">
        <ele>1043.0740000000001</ele>
        <time>2021-07-10T09:25:13Z</time>
      </trkpt>
      <trkpt lat="41.158993961289525" lon="-3.812967985868454">
        <ele>1044.827</ele>
        <time>2021-07-10T09:25:15Z</time>
      </trkpt>
      <trkpt lat="41.159191019833088" lon="-3.812962034717202">
        <ele>1046.1310000000001</ele>
        <time>2021-07-10T09:25:16Z</time>
      </trkpt>
      <trkpt lat="41.159588992595673" lon="-3.812950970605016">
        <ele>1047.47</ele>
        <time>2021-07-10T09:25:18Z</time>
      </trkpt>
      <trkpt lat="41.159790996462107" lon="-3.812939990311861">
        <ele>1047.953</ele>
        <time>2021-07-10T09:25:19Z</time>
      </trkpt>
      <trkpt lat="41.159994006156921" lon="-3.812930015847087">
        <ele>1048.3040000000001</ele>
        <time>2021-07-10T09:25:20Z</time>
      </trkpt>
      <trkpt lat="41.160407988354564" lon="-3.812909983098507">
        <ele>1049.114</ele>
        <time>2021-07-10T09:25:22Z</time>
      </trkpt>
      <trkpt lat="41.160838985815644" lon="-3.812889028340578">
        <ele>1049.6079999999999</ele>
        <time>2021-07-10T09:25:24Z</time>
      </trkpt>
      <trkpt lat="41.161058004945517" lon="-3.812881987541914">
        <ele>1050.162</ele>
        <time>2021-07-10T09:25:25Z</time>
      </trkpt>
      <trkpt lat="41.161490008234978" lon="-3.812864972278476">
        <ele>1050.5319999999999</ele>
        <time>2021-07-10T09:25:27Z</time>
      </trkpt>
      <trkpt lat="41.161714978516102" lon="-3.812856003642082">
        <ele>1050.8630000000001</ele>
        <time>2021-07-10T09:25:28Z</time>
      </trkpt>
      <trkpt lat="41.161944977939129" lon="-3.812848040834069">
        <ele>1051.249</ele>
        <time>2021-07-10T09:25:29Z</time>
      </trkpt>
      <trkpt lat="41.162175983190536" lon="-3.812845023348928">
        <ele>1051.5709999999999</ele>
        <time>2021-07-10T09:25:30Z</time>
      </trkpt>
      <trkpt lat="41.162661965936422" lon="-3.812806969508529">
        <ele>1051.5239999999999</ele>
        <time>2021-07-10T09:25:32Z</time>
      </trkpt>
      <trkpt lat="41.163140991702676" lon="-3.812757013365626">
        <ele>1052.048</ele>
        <time>2021-07-10T09:25:34Z</time>
      </trkpt>
      <trkpt lat="41.163603002205491" lon="-3.812726000323892">
        <ele>1053.547</ele>
        <time>2021-07-10T09:25:36Z</time>
      </trkpt>
      <trkpt lat="41.163824032992125" lon="-3.812714014202356">
        <ele>1054.422</ele>
        <time>2021-07-10T09:25:37Z</time>
      </trkpt>
      <trkpt lat="41.164256958290935" lon="-3.812706973403692">
        <ele>1056.2619999999999</ele>
        <time>2021-07-10T09:25:39Z</time>
      </trkpt>
      <trkpt lat="41.16448201239109" lon="-3.812716025859118">
        <ele>1057.508</ele>
        <time>2021-07-10T09:25:40Z</time>
      </trkpt>
      <trkpt lat="41.164899012073874" lon="-3.812761958688498">
        <ele>1058.808</ele>
        <time>2021-07-10T09:25:42Z</time>
      </trkpt>
      <trkpt lat="41.165332021191716" lon="-3.812828008085489">
        <ele>1059.8389999999999</ele>
        <time>2021-07-10T09:25:44Z</time>
      </trkpt>
      <trkpt lat="41.165551962330937" lon="-3.812865978106856">
        <ele>1060.549</ele>
        <time>2021-07-10T09:25:45Z</time>
      </trkpt>
      <trkpt lat="41.165987988933921" lon="-3.812932027503848">
        <ele>1060.9200000000001</ele>
        <time>2021-07-10T09:25:47Z</time>
      </trkpt>
      <trkpt lat="41.166408006101847" lon="-3.813005033880472">
        <ele>1061.4259999999999</ele>
        <time>2021-07-10T09:25:49Z</time>
      </trkpt>
      <trkpt lat="41.1666090041399" lon="-3.813037974759936">
        <ele>1062.4280000000001</ele>
        <time>2021-07-10T09:25:50Z</time>
      </trkpt>
      <trkpt lat="41.16699499078095" lon="-3.813073011115193">
        <ele>1062.6310000000001</ele>
        <time>2021-07-10T09:25:52Z</time>
      </trkpt>
      <trkpt lat="41.167377037927508" lon="-3.813028000295162">
        <ele>1062.9449999999999</ele>
        <time>2021-07-10T09:25:54Z</time>
      </trkpt>
      <trkpt lat="41.167579041793942" lon="-3.812963962554932">
        <ele>1063.4939999999999</ele>
        <time>2021-07-10T09:25:55Z</time>
      </trkpt>
      <trkpt lat="41.167944995686412" lon="-3.812813004478812">
        <ele>1063.9639999999999</ele>
        <time>2021-07-10T09:25:57Z</time>
      </trkpt>
      <trkpt lat="41.168309021741152" lon="-3.812652993947268">
        <ele>1064.106</ele>
        <time>2021-07-10T09:25:59Z</time>
      </trkpt>
      <trkpt lat="41.168485041707754" lon="-3.81257101893425">
        <ele>1064.816</ele>
        <time>2021-07-10T09:26:00Z</time>
      </trkpt>
      <trkpt lat="41.168805984780192" lon="-3.812390975654125">
        <ele>1065.7080000000001</ele>
        <time>2021-07-10T09:26:02Z</time>
      </trkpt>
      <trkpt lat="41.168959038332105" lon="-3.812277987599373">
        <ele>1066.423</ele>
        <time>2021-07-10T09:26:03Z</time>
      </trkpt>
      <trkpt lat="41.169103961437941" lon="-3.81214396096766">
        <ele>1066.413</ele>
        <time>2021-07-10T09:26:04Z</time>
      </trkpt>
      <trkpt lat="41.169247962534428" lon="-3.811985962092876">
        <ele>1067.0540000000001</ele>
        <time>2021-07-10T09:26:05Z</time>
      </trkpt>
      <trkpt lat="41.169516015797853" lon="-3.811669964343309">
        <ele>1067.6099999999999</ele>
        <time>2021-07-10T09:26:07Z</time>
      </trkpt>
      <trkpt lat="41.16980804130435" lon="-3.811333011835814">
        <ele>1068.8920000000001</ele>
        <time>2021-07-10T09:26:09Z</time>
      </trkpt>
      <trkpt lat="41.169962016865611" lon="-3.811157997697592">
        <ele>1069.125</ele>
        <time>2021-07-10T09:26:10Z</time>
      </trkpt>
      <trkpt lat="41.170118004083633" lon="-3.810987006872892">
        <ele>1069.789</ele>
        <time>2021-07-10T09:26:11Z</time>
      </trkpt>
      <trkpt lat="41.17041002959013" lon="-3.810662040486932">
        <ele>1070.3679999999999</ele>
        <time>2021-07-10T09:26:13Z</time>
      </trkpt>
      <trkpt lat="41.17056299932301" lon="-3.810500018298626">
        <ele>1070.749</ele>
        <time>2021-07-10T09:26:14Z</time>
      </trkpt>
      <trkpt lat="41.170870028436184" lon="-3.810202963650227">
        <ele>1071.1020000000001</ele>
        <time>2021-07-10T09:26:16Z</time>
      </trkpt>
      <trkpt lat="41.171027021482587" lon="-3.810052005574107">
        <ele>1071.8219999999999</ele>
        <time>2021-07-10T09:26:17Z</time>
      </trkpt>
      <trkpt lat="41.171353999525309" lon="-3.80975604057312">
        <ele>1072.4079999999999</ele>
        <time>2021-07-10T09:26:19Z</time>
      </trkpt>
      <trkpt lat="41.171521972864866" lon="-3.809597035869956">
        <ele>1072.971</ele>
        <time>2021-07-10T09:26:20Z</time>
      </trkpt>
      <trkpt lat="41.171688018366694" lon="-3.809429984539747">
        <ele>1073.6210000000001</ele>
        <time>2021-07-10T09:26:21Z</time>
      </trkpt>
      <trkpt lat="41.172025976702571" lon="-3.809089008718729">
        <ele>1074.0920000000001</ele>
        <time>2021-07-10T09:26:23Z</time>
      </trkpt>
      <trkpt lat="41.172367036342621" lon="-3.80874996073544">
        <ele>1075.498</ele>
        <time>2021-07-10T09:26:25Z</time>
      </trkpt>
      <trkpt lat="41.172542972490191" lon="-3.808573018759489">
        <ele>1076.3399999999999</ele>
        <time>2021-07-10T09:26:26Z</time>
      </trkpt>
      <trkpt lat="41.172852013260126" lon="-3.808246040716767">
        <ele>1076.7429999999999</ele>
        <time>2021-07-10T09:26:28Z</time>
      </trkpt>
      <trkpt lat="41.173009006306529" lon="-3.808063985779882">
        <ele>1077.1769999999999</ele>
        <time>2021-07-10T09:26:29Z</time>
      </trkpt>
      <trkpt lat="41.173325004056096" lon="-3.80769400857389">
        <ele>1077.4960000000001</ele>
        <time>2021-07-10T09:26:31Z</time>
      </trkpt>
      <trkpt lat="41.173489959910512" lon="-3.807497033849359">
        <ele>1077.7270000000001</ele>
        <time>2021-07-10T09:26:32Z</time>
      </trkpt>
      <trkpt lat="41.173791959881783" lon="-3.807140970602632">
        <ele>1077.8679999999999</ele>
        <time>2021-07-10T09:26:34Z</time>
      </trkpt>
      <trkpt lat="41.174101000651717" lon="-3.806779962033033">
        <ele>1077.5139999999999</ele>
        <time>2021-07-10T09:26:36Z</time>
      </trkpt>
      <trkpt lat="41.174404006451368" lon="-3.806432029232383">
        <ele>1077.1079999999999</ele>
        <time>2021-07-10T09:26:38Z</time>
      </trkpt>
      <trkpt lat="41.17455798201263" lon="-3.806260032579303">
        <ele>1076.6690000000001</ele>
        <time>2021-07-10T09:26:39Z</time>
      </trkpt>
      <trkpt lat="41.17488001473248" lon="-3.805906986817718">
        <ele>1075.8389999999999</ele>
        <time>2021-07-10T09:26:41Z</time>
      </trkpt>
      <trkpt lat="41.175195006653666" lon="-3.805584032088518">
        <ele>1075.1099999999999</ele>
        <time>2021-07-10T09:26:43Z</time>
      </trkpt>
      <trkpt lat="41.175357028841972" lon="-3.805411029607058">
        <ele>1074.5360000000001</ele>
        <time>2021-07-10T09:26:44Z</time>
      </trkpt>
      <trkpt lat="41.175519973039627" lon="-3.805240960791707">
        <ele>1074.4480000000001</ele>
        <time>2021-07-10T09:26:45Z</time>
      </trkpt>
      <trkpt lat="41.175848040729761" lon="-3.804894033819437">
        <ele>1073.671</ele>
        <time>2021-07-10T09:26:47Z</time>
      </trkpt>
      <trkpt lat="41.176014002412558" lon="-3.804713990539312">
        <ele>1072.7149999999999</ele>
        <time>2021-07-10T09:26:48Z</time>
      </trkpt>
      <trkpt lat="41.176330000162125" lon="-3.804368991404772">
        <ele>1072.3440000000001</ele>
        <time>2021-07-10T09:26:50Z</time>
      </trkpt>
      <trkpt lat="41.176644992083311" lon="-3.804038995876908">
        <ele>1071.9549999999999</ele>
        <time>2021-07-10T09:26:52Z</time>
      </trkpt>
      <trkpt lat="41.176810031756759" lon="-3.803872028365731">
        <ele>1070.9069999999999</ele>
        <time>2021-07-10T09:26:53Z</time>
      </trkpt>
      <trkpt lat="41.177142038941383" lon="-3.8035680167377">
        <ele>1070.317</ele>
        <time>2021-07-10T09:26:55Z</time>
      </trkpt>
      <trkpt lat="41.177319986745715" lon="-3.803412029519677">
        <ele>1070.008</ele>
        <time>2021-07-10T09:26:56Z</time>
      </trkpt>
      <trkpt lat="41.177671020850539" lon="-3.803112963214517">
        <ele>1069.932</ele>
        <time>2021-07-10T09:26:58Z</time>
      </trkpt>
      <trkpt lat="41.178032029420137" lon="-3.802823033183813">
        <ele>1069.252</ele>
        <time>2021-07-10T09:27:00Z</time>
      </trkpt>
      <trkpt lat="41.178389014676213" lon="-3.802534025162458">
        <ele>1068.913</ele>
        <time>2021-07-10T09:27:02Z</time>
      </trkpt>
      <trkpt lat="41.178568974137306" lon="-3.802382983267307">
        <ele>1068.829</ele>
        <time>2021-07-10T09:27:03Z</time>
      </trkpt>
      <trkpt lat="41.17874700576067" lon="-3.802230013534427">
        <ele>1068.931</ele>
        <time>2021-07-10T09:27:04Z</time>
      </trkpt>
      <trkpt lat="41.178926965221763" lon="-3.802077965810895">
        <ele>1069.164</ele>
        <time>2021-07-10T09:27:05Z</time>
      </trkpt>
      <trkpt lat="41.179103991016746" lon="-3.801927007734776">
        <ele>1069.4280000000001</ele>
        <time>2021-07-10T09:27:06Z</time>
      </trkpt>
      <trkpt lat="41.179466005414724" lon="-3.801620984449983">
        <ele>1070.127</ele>
        <time>2021-07-10T09:27:08Z</time>
      </trkpt>
      <trkpt lat="41.179641019552946" lon="-3.801472038030624">
        <ele>1070.6279999999999</ele>
        <time>2021-07-10T09:27:09Z</time>
      </trkpt>
      <trkpt lat="41.180003033950925" lon="-3.801188981160522">
        <ele>1071.289</ele>
        <time>2021-07-10T09:27:11Z</time>
      </trkpt>
      <trkpt lat="41.180405030027032" lon="-3.800920005887747">
        <ele>1071.817</ele>
        <time>2021-07-10T09:27:13Z</time>
      </trkpt>
      <trkpt lat="41.180600998923182" lon="-3.800801988691092">
        <ele>1072.4079999999999</ele>
        <time>2021-07-10T09:27:14Z</time>
      </trkpt>
      <trkpt lat="41.180982040241361" lon="-3.800579030066729">
        <ele>1073.9690000000001</ele>
        <time>2021-07-10T09:27:16Z</time>
      </trkpt>
      <trkpt lat="41.181373978033662" lon="-3.800362022593617">
        <ele>1075.499</ele>
        <time>2021-07-10T09:27:18Z</time>
      </trkpt>
      <trkpt lat="41.181567013263702" lon="-3.800247022882104">
        <ele>1076.28</ele>
        <time>2021-07-10T09:27:19Z</time>
      </trkpt>
      <trkpt lat="41.181758036836982" lon="-3.800126994028688">
        <ele>1076.6659999999999</ele>
        <time>2021-07-10T09:27:20Z</time>
      </trkpt>
      <trkpt lat="41.182124996557832" lon="-3.799856007099152">
        <ele>1076.4680000000001</ele>
        <time>2021-07-10T09:27:22Z</time>
      </trkpt>
      <trkpt lat="41.182311996817589" lon="-3.799697002395988">
        <ele>1075.8610000000001</ele>
        <time>2021-07-10T09:27:23Z</time>
      </trkpt>
      <trkpt lat="41.182676022872329" lon="-3.799363989382982">
        <ele>1075.4549999999999</ele>
        <time>2021-07-10T09:27:25Z</time>
      </trkpt>
      <trkpt lat="41.183054968714714" lon="-3.799028964713216">
        <ele>1074.864</ele>
        <time>2021-07-10T09:27:27Z</time>
      </trkpt>
      <trkpt lat="41.183246998116374" lon="-3.798858979716897">
        <ele>1074.4870000000001</ele>
        <time>2021-07-10T09:27:28Z</time>
      </trkpt>
      <trkpt lat="41.183445984497666" lon="-3.798682959750295">
        <ele>1074.1420000000001</ele>
        <time>2021-07-10T09:27:29Z</time>
      </trkpt>
      <trkpt lat="41.183803975582123" lon="-3.798364028334618">
        <ele>1073.826</ele>
        <time>2021-07-10T09:27:31Z</time>
      </trkpt>
      <trkpt lat="41.184172024950385" lon="-3.798035960644484">
        <ele>1073.6079999999999</ele>
        <time>2021-07-10T09:27:33Z</time>
      </trkpt>
      <trkpt lat="41.184372017160058" lon="-3.797858012840152">
        <ele>1073.7950000000001</ele>
        <time>2021-07-10T09:27:34Z</time>
      </trkpt>
      <trkpt lat="41.184731014072895" lon="-3.797549977898598">
        <ele>1073.2349999999999</ele>
        <time>2021-07-10T09:27:36Z</time>
      </trkpt>
      <trkpt lat="41.184916002675891" lon="-3.797386027872562">
        <ele>1073.136</ele>
        <time>2021-07-10T09:27:37Z</time>
      </trkpt>
      <trkpt lat="41.185288997367024" lon="-3.797066006809473">
        <ele>1073.0319999999999</ele>
        <time>2021-07-10T09:27:39Z</time>
      </trkpt>
      <trkpt lat="41.185618992894888" lon="-3.796770963817835">
        <ele>1072.9839999999999</ele>
        <time>2021-07-10T09:27:41Z</time>
      </trkpt>
      <trkpt lat="41.185790989547968" lon="-3.796623023226857">
        <ele>1072.577</ele>
        <time>2021-07-10T09:27:42Z</time>
      </trkpt>
      <trkpt lat="41.185959968715906" lon="-3.796476004645228">
        <ele>1072.8309999999999</ele>
        <time>2021-07-10T09:27:43Z</time>
      </trkpt>
      <trkpt lat="41.186136994510889" lon="-3.796321023255587">
        <ele>1072.72</ele>
        <time>2021-07-10T09:27:44Z</time>
      </trkpt>
      <trkpt lat="41.186299016699195" lon="-3.79617802798748">
        <ele>1072.867</ele>
        <time>2021-07-10T09:27:45Z</time>
      </trkpt>
      <trkpt lat="41.186615014448762" lon="-3.795897988602519">
        <ele>1072.681</ele>
        <time>2021-07-10T09:27:47Z</time>
      </trkpt>
      <trkpt lat="41.1867839936167" lon="-3.795748958364129">
        <ele>1073.019</ele>
        <time>2021-07-10T09:27:48Z</time>
      </trkpt>
      <trkpt lat="41.18695599026978" lon="-3.79559800028801">
        <ele>1073.2080000000001</ele>
        <time>2021-07-10T09:27:49Z</time>
      </trkpt>
      <trkpt lat="41.187268970534205" lon="-3.795317960903049">
        <ele>1073.8430000000001</ele>
        <time>2021-07-10T09:27:51Z</time>
      </trkpt>
      <trkpt lat="41.187434010207653" lon="-3.795170020312071">
        <ele>1073.7629999999999</ele>
        <time>2021-07-10T09:27:52Z</time>
      </trkpt>
      <trkpt lat="41.187787977978587" lon="-3.794849999248982">
        <ele>1072.9639999999999</ele>
        <time>2021-07-10T09:27:54Z</time>
      </trkpt>
      <trkpt lat="41.187957962974906" lon="-3.794698035344482">
        <ele>1072.04</ele>
        <time>2021-07-10T09:27:55Z</time>
      </trkpt>
      <trkpt lat="41.188285024836659" lon="-3.794410033151507">
        <ele>1071.2919999999999</ele>
        <time>2021-07-10T09:27:57Z</time>
      </trkpt>
      <trkpt lat="41.188618037849665" lon="-3.794118007645011">
        <ele>1071.2249999999999</ele>
        <time>2021-07-10T09:27:59Z</time>
      </trkpt>
      <trkpt lat="41.188891958445311" lon="-3.793883984908462">
        <ele>1070.1890000000001</ele>
        <time>2021-07-10T09:28:01Z</time>
      </trkpt>
      <trkpt lat="41.189166968688369" lon="-3.79370603710413">
        <ele>1069.4580000000001</ele>
        <time>2021-07-10T09:28:03Z</time>
      </trkpt>
      <trkpt lat="41.189277023077011" lon="-3.793672006577253">
        <ele>1069.011</ele>
        <time>2021-07-10T09:28:04Z</time>
      </trkpt>
      <trkpt lat="41.189341982826591" lon="-3.793673012405634">
        <ele>1068.721</ele>
        <time>2021-07-10T09:28:05Z</time>
      </trkpt>
      <trkpt lat="41.189395962283015" lon="-3.79370997659862">
        <ele>1068.0029999999999</ele>
        <time>2021-07-10T09:28:07Z</time>
      </trkpt>
      <trkpt lat="41.189440973103046" lon="-3.79377300851047">
        <ele>1067.2080000000001</ele>
        <time>2021-07-10T09:28:11Z</time>
      </trkpt>
      <trkpt lat="41.189481038600206" lon="-3.793833022937179">
        <ele>1067.568</ele>
        <time>2021-07-10T09:28:13Z</time>
      </trkpt>
      <trkpt lat="41.189428986981511" lon="-3.79379597492516">
        <ele>1067.298</ele>
        <time>2021-07-10T09:28:20Z</time>
      </trkpt>
      <trkpt lat="41.189376013353467" lon="-3.793761022388935">
        <ele>1067.039</ele>
        <time>2021-07-10T09:28:22Z</time>
      </trkpt>
      <trkpt lat="41.189452959224582" lon="-3.79368600435555">
        <ele>1066.885</ele>
        <time>2021-07-10T09:28:28Z</time>
      </trkpt>
      <trkpt lat="41.189524959772825" lon="-3.793608974665403">
        <ele>1066.597</ele>
        <time>2021-07-10T09:28:29Z</time>
      </trkpt>
      <trkpt lat="41.189581034705043" lon="-3.793530017137528">
        <ele>1066.8299999999999</ele>
        <time>2021-07-10T09:28:30Z</time>
      </trkpt>
      <trkpt lat="41.189639959484339" lon="-3.793462961912155">
        <ele>1067.0840000000001</ele>
        <time>2021-07-10T09:28:31Z</time>
      </trkpt>
      <trkpt lat="41.189732998609543" lon="-3.793336981907487">
        <ele>1066.7429999999999</ele>
        <time>2021-07-10T09:28:33Z</time>
      </trkpt>
      <trkpt lat="41.189809022471309" lon="-3.793275039643049">
        <ele>1067.1679999999999</ele>
        <time>2021-07-10T09:28:35Z</time>
      </trkpt>
      <trkpt lat="41.18985403329134" lon="-3.793285014107823">
        <ele>1068.0419999999999</ele>
        <time>2021-07-10T09:28:36Z</time>
      </trkpt>
      <trkpt lat="41.189967021346092" lon="-3.793360032141209">
        <ele>1067.9259999999999</ele>
        <time>2021-07-10T09:28:38Z</time>
      </trkpt>
      <trkpt lat="41.190253011882305" lon="-3.793449969962239">
        <ele>1069.008</ele>
        <time>2021-07-10T09:28:40Z</time>
      </trkpt>
      <trkpt lat="41.190417967736721" lon="-3.793556001037359">
        <ele>1070.0830000000001</ele>
        <time>2021-07-10T09:28:42Z</time>
      </trkpt>
      <trkpt lat="41.190631035715342" lon="-3.793632024899125">
        <ele>1071.3130000000001</ele>
        <time>2021-07-10T09:28:44Z</time>
      </trkpt>
      <trkpt lat="41.190742012113333" lon="-3.793646022677422">
        <ele>1072.5239999999999</ele>
        <time>2021-07-10T09:28:45Z</time>
      </trkpt>
      <trkpt lat="41.190906967967749" lon="-3.793631019070745">
        <ele>1073.8699999999999</ele>
        <time>2021-07-10T09:28:47Z</time>
      </trkpt>
      <trkpt lat="41.191020039841533" lon="-3.793585002422333">
        <ele>1075.0719999999999</ele>
        <time>2021-07-10T09:28:49Z</time>
      </trkpt>
      <trkpt lat="41.191078964620829" lon="-3.793607968837023">
        <ele>1076.145</ele>
        <time>2021-07-10T09:28:51Z</time>
      </trkpt>
      <trkpt lat="41.191137973219156" lon="-3.793733026832342">
        <ele>1077.299</ele>
        <time>2021-07-10T09:28:53Z</time>
      </trkpt>
      <trkpt lat="41.191179966554046" lon="-3.793821958824992">
        <ele>1077.998</ele>
        <time>2021-07-10T09:28:54Z</time>
      </trkpt>
      <trkpt lat="41.191237969323993" lon="-3.793922960758209">
        <ele>1078.952</ele>
        <time>2021-07-10T09:28:55Z</time>
      </trkpt>
      <trkpt lat="41.191306030377746" lon="-3.794028991833329">
        <ele>1079.653</ele>
        <time>2021-07-10T09:28:56Z</time>
      </trkpt>
      <trkpt lat="41.191478027030826" lon="-3.794156983494759">
        <ele>1079.6079999999999</ele>
        <time>2021-07-10T09:28:58Z</time>
      </trkpt>
      <trkpt lat="41.191642982885242" lon="-3.794236024841666">
        <ele>1078.6079999999999</ele>
        <time>2021-07-10T09:29:00Z</time>
      </trkpt>
      <trkpt lat="41.191708026453853" lon="-3.794249016791582">
        <ele>1078.752</ele>
        <time>2021-07-10T09:29:01Z</time>
      </trkpt>
      <trkpt lat="41.191782038658857" lon="-3.79424599930644">
        <ele>1079.1420000000001</ele>
        <time>2021-07-10T09:29:03Z</time>
      </trkpt>
      <trkpt lat="41.191830988973379" lon="-3.794233007356525">
        <ele>1079.3430000000001</ele>
        <time>2021-07-10T09:29:06Z</time>
      </trkpt>
      <trkpt lat="41.191844986751676" lon="-3.794294027611613">
        <ele>1080.1590000000001</ele>
        <time>2021-07-10T09:29:08Z</time>
      </trkpt>
      <trkpt lat="41.191877005621791" lon="-3.7944380287081">
        <ele>1080.5409999999999</ele>
        <time>2021-07-10T09:29:09Z</time>
      </trkpt>
      <trkpt lat="41.191955963149667" lon="-3.794703986495733">
        <ele>1080.954</ele>
        <time>2021-07-10T09:29:11Z</time>
      </trkpt>
      <trkpt lat="41.19198102504015" lon="-3.794832983985543">
        <ele>1081.048</ele>
        <time>2021-07-10T09:29:12Z</time>
      </trkpt>
      <trkpt lat="41.192014971747994" lon="-3.795066000893712">
        <ele>1081.4169999999999</ele>
        <time>2021-07-10T09:29:14Z</time>
      </trkpt>
      <trkpt lat="41.192028969526291" lon="-3.795178988948464">
        <ele>1081.4670000000001</ele>
        <time>2021-07-10T09:29:15Z</time>
      </trkpt>
      <trkpt lat="41.192045984789729" lon="-3.79529700614512">
        <ele>1081.7809999999999</ele>
        <time>2021-07-10T09:29:16Z</time>
      </trkpt>
      <trkpt lat="41.192061994224787" lon="-3.795409994199872">
        <ele>1081.4190000000001</ele>
        <time>2021-07-10T09:29:17Z</time>
      </trkpt>
      <trkpt lat="41.192103987559676" lon="-3.795631024986506">
        <ele>1081.308</ele>
        <time>2021-07-10T09:29:19Z</time>
      </trkpt>
      <trkpt lat="41.192162996158004" lon="-3.79585599526763">
        <ele>1081.4829999999999</ele>
        <time>2021-07-10T09:29:21Z</time>
      </trkpt>
      <trkpt lat="41.192193003371358" lon="-3.795967977494001">
        <ele>1081.663</ele>
        <time>2021-07-10T09:29:22Z</time>
      </trkpt>
      <trkpt lat="41.192224016413093" lon="-3.796084988862276">
        <ele>1080.8140000000001</ele>
        <time>2021-07-10T09:29:23Z</time>
      </trkpt>
      <trkpt lat="41.192285036668181" lon="-3.796315994113684">
        <ele>1079.3800000000001</ele>
        <time>2021-07-10T09:29:25Z</time>
      </trkpt>
      <trkpt lat="41.192322000861168" lon="-3.796424958854914">
        <ele>1079.0319999999999</ele>
        <time>2021-07-10T09:29:26Z</time>
      </trkpt>
      <trkpt lat="41.192417973652482" lon="-3.796625034883618">
        <ele>1078.325</ele>
        <time>2021-07-10T09:29:28Z</time>
      </trkpt>
      <trkpt lat="41.192471031099558" lon="-3.796712961047888">
        <ele>1077.549</ele>
        <time>2021-07-10T09:29:29Z</time>
      </trkpt>
      <trkpt lat="41.192560968920588" lon="-3.796790996566415">
        <ele>1077.088</ele>
        <time>2021-07-10T09:29:31Z</time>
      </trkpt>
      <trkpt lat="41.192607991397381" lon="-3.796789990738034">
        <ele>1076.7539999999999</ele>
        <time>2021-07-10T09:29:32Z</time>
      </trkpt>
      <trkpt lat="41.192703964188695" lon="-3.796712039038539">
        <ele>1077.6559999999999</ele>
        <time>2021-07-10T09:29:34Z</time>
      </trkpt>
      <trkpt lat="41.192813012748957" lon="-3.796528978273273">
        <ele>1077.9110000000001</ele>
        <time>2021-07-10T09:29:36Z</time>
      </trkpt>
      <trkpt lat="41.192968999966979" lon="-3.796295961365104">
        <ele>1078.6079999999999</ele>
        <time>2021-07-10T09:29:38Z</time>
      </trkpt>
      <trkpt lat="41.193149965256453" lon="-3.796022040769458">
        <ele>1079.5920000000001</ele>
        <time>2021-07-10T09:29:40Z</time>
      </trkpt>
      <trkpt lat="41.193249961361289" lon="-3.795872004702687">
        <ele>1080.5319999999999</ele>
        <time>2021-07-10T09:29:41Z</time>
      </trkpt>
      <trkpt lat="41.193353980779648" lon="-3.795715011656284">
        <ele>1081.7529999999999</ele>
        <time>2021-07-10T09:29:42Z</time>
      </trkpt>
      <trkpt lat="41.19357199408114" lon="-3.795400019735098">
        <ele>1082.5989999999999</ele>
        <time>2021-07-10T09:29:44Z</time>
      </trkpt>
      <trkpt lat="41.193775003775954" lon="-3.795099025592208">
        <ele>1083.961</ele>
        <time>2021-07-10T09:29:46Z</time>
      </trkpt>
      <trkpt lat="41.193870976567268" lon="-3.794961981475353">
        <ele>1084.5640000000001</ele>
        <time>2021-07-10T09:29:47Z</time>
      </trkpt>
      <trkpt lat="41.193971978500485" lon="-3.794842036440969">
        <ele>1084.818</ele>
        <time>2021-07-10T09:29:48Z</time>
      </trkpt>
      <trkpt lat="41.194081027060747" lon="-3.794734999537468">
        <ele>1085.4369999999999</ele>
        <time>2021-07-10T09:29:49Z</time>
      </trkpt>
      <trkpt lat="41.194325024262071" lon="-3.794559985399246">
        <ele>1086.0609999999999</ele>
        <time>2021-07-10T09:29:51Z</time>
      </trkpt>
      <trkpt lat="41.194471959024668" lon="-3.794499970972538">
        <ele>1086.521</ele>
        <time>2021-07-10T09:29:52Z</time>
      </trkpt>
      <trkpt lat="41.194756021723151" lon="-3.79448002204299">
        <ele>1086.713</ele>
        <time>2021-07-10T09:29:54Z</time>
      </trkpt>
      <trkpt lat="41.195066990330815" lon="-3.79454699344933">
        <ele>1086.308</ele>
        <time>2021-07-10T09:29:56Z</time>
      </trkpt>
      <trkpt lat="41.195242004469037" lon="-3.794595021754503">
        <ele>1086.5129999999999</ele>
        <time>2021-07-10T09:29:57Z</time>
      </trkpt>
      <trkpt lat="41.195579040795565" lon="-3.794689988717437">
        <ele>1086.673</ele>
        <time>2021-07-10T09:29:59Z</time>
      </trkpt>
      <trkpt lat="41.195952035486698" lon="-3.79478202201426">
        <ele>1087.0840000000001</ele>
        <time>2021-07-10T09:30:01Z</time>
      </trkpt>
      <trkpt lat="41.196328969672322" lon="-3.7948680203408">
        <ele>1087.01</ele>
        <time>2021-07-10T09:30:03Z</time>
      </trkpt>
      <trkpt lat="41.196519993245602" lon="-3.794908002018929">
        <ele>1087.192</ele>
        <time>2021-07-10T09:30:04Z</time>
      </trkpt>
      <trkpt lat="41.196898017078638" lon="-3.794989977031946">
        <ele>1086.595</ele>
        <time>2021-07-10T09:30:06Z</time>
      </trkpt>
      <trkpt lat="41.197091974318027" lon="-3.795033982023597">
        <ele>1085.829</ele>
        <time>2021-07-10T09:30:07Z</time>
      </trkpt>
      <trkpt lat="41.19748399592936" lon="-3.795109000056982">
        <ele>1085.078</ele>
        <time>2021-07-10T09:30:09Z</time>
      </trkpt>
      <trkpt lat="41.19789102114737" lon="-3.795156022533774">
        <ele>1083.9670000000001</ele>
        <time>2021-07-10T09:30:11Z</time>
      </trkpt>
      <trkpt lat="41.198098976165056" lon="-3.795177983120084">
        <ele>1083.0809999999999</ele>
        <time>2021-07-10T09:30:12Z</time>
      </trkpt>
      <trkpt lat="41.198527039960027" lon="-3.795214025303721">
        <ele>1081.819</ele>
        <time>2021-07-10T09:30:14Z</time>
      </trkpt>
      <trkpt lat="41.198929036036134" lon="-3.795247972011566">
        <ele>1080.808</ele>
        <time>2021-07-10T09:30:16Z</time>
      </trkpt>
      <trkpt lat="41.199359027668834" lon="-3.795335981994867">
        <ele>1079.7629999999999</ele>
        <time>2021-07-10T09:30:18Z</time>
      </trkpt>
      <trkpt lat="41.199763035401702" lon="-3.795506972819567">
        <ele>1078.163</ele>
        <time>2021-07-10T09:30:20Z</time>
      </trkpt>
      <trkpt lat="41.20019000954926" lon="-3.795744013041258">
        <ele>1076.2739999999999</ele>
        <time>2021-07-10T09:30:22Z</time>
      </trkpt>
      <trkpt lat="41.200412968173623" lon="-3.79587602801621">
        <ele>1074.3199999999999</ele>
        <time>2021-07-10T09:30:23Z</time>
      </trkpt>
      <trkpt lat="41.200867015868425" lon="-3.796145003288984">
        <ele>1072.6320000000001</ele>
        <time>2021-07-10T09:30:25Z</time>
      </trkpt>
      <trkpt lat="41.201326008886099" lon="-3.796402998268604">
        <ele>1071.175</ele>
        <time>2021-07-10T09:30:27Z</time>
      </trkpt>
      <trkpt lat="41.201564976945519" lon="-3.796537024900317">
        <ele>1069.8389999999999</ele>
        <time>2021-07-10T09:30:28Z</time>
      </trkpt>
      <trkpt lat="41.201992034912109" lon="-3.796772975474596">
        <ele>1068.838</ele>
        <time>2021-07-10T09:30:30Z</time>
      </trkpt>
      <trkpt lat="41.202211976051331" lon="-3.796881018206477">
        <ele>1067.836</ele>
        <time>2021-07-10T09:30:31Z</time>
      </trkpt>
      <trkpt lat="41.202430995181203" lon="-3.796961987391114">
        <ele>1067.317</ele>
        <time>2021-07-10T09:30:32Z</time>
      </trkpt>
      <trkpt lat="41.20266099460423" lon="-3.797014961019158">
        <ele>1066.818</ele>
        <time>2021-07-10T09:30:33Z</time>
      </trkpt>
      <trkpt lat="41.203085035085678" lon="-3.797031976282597">
        <ele>1065.4079999999999</ele>
        <time>2021-07-10T09:30:35Z</time>
      </trkpt>
      <trkpt lat="41.203517038375139" lon="-3.796956036239862">
        <ele>1063.6600000000001</ele>
        <time>2021-07-10T09:30:37Z</time>
      </trkpt>
      <trkpt lat="41.203748965635896" lon="-3.796897027641535">
        <ele>1061.97</ele>
        <time>2021-07-10T09:30:38Z</time>
      </trkpt>
      <trkpt lat="41.203975025564432" lon="-3.796836007386446">
        <ele>1060.2809999999999</ele>
        <time>2021-07-10T09:30:39Z</time>
      </trkpt>
      <trkpt lat="41.204428989440203" lon="-3.796717990189791">
        <ele>1058.337</ele>
        <time>2021-07-10T09:30:41Z</time>
      </trkpt>
      <trkpt lat="41.204911032691598" lon="-3.796601984649897">
        <ele>1055.759</ele>
        <time>2021-07-10T09:30:43Z</time>
      </trkpt>
      <trkpt lat="41.20515201240778" lon="-3.796541970223188">
        <ele>1053.8119999999999</ele>
        <time>2021-07-10T09:30:44Z</time>
      </trkpt>
      <trkpt lat="41.205631038174033" lon="-3.796422025188804">
        <ele>1051.886</ele>
        <time>2021-07-10T09:30:46Z</time>
      </trkpt>
      <trkpt lat="41.20612096041441" lon="-3.796304007992148">
        <ele>1049.385</ele>
        <time>2021-07-10T09:30:48Z</time>
      </trkpt>
      <trkpt lat="41.206579031422734" lon="-3.796192025765777">
        <ele>1047.248</ele>
        <time>2021-07-10T09:30:50Z</time>
      </trkpt>
      <trkpt lat="41.206815987825394" lon="-3.79613502882421">
        <ele>1045.5609999999999</ele>
        <time>2021-07-10T09:30:51Z</time>
      </trkpt>
      <trkpt lat="41.207052022218704" lon="-3.796082977205515">
        <ele>1044.817</ele>
        <time>2021-07-10T09:30:52Z</time>
      </trkpt>
      <trkpt lat="41.207520989701152" lon="-3.796002008020878">
        <ele>1044.6079999999999</ele>
        <time>2021-07-10T09:30:54Z</time>
      </trkpt>
      <trkpt lat="41.207950981333852" lon="-3.796010976657271">
        <ele>1045.0409999999999</ele>
        <time>2021-07-10T09:30:56Z</time>
      </trkpt>
      <trkpt lat="41.208364041522145" lon="-3.796016005799174">
        <ele>1044.991</ele>
        <time>2021-07-10T09:30:58Z</time>
      </trkpt>
      <trkpt lat="41.208564033731818" lon="-3.795975018292666">
        <ele>1044.982</ele>
        <time>2021-07-10T09:30:59Z</time>
      </trkpt>
      <trkpt lat="41.208899980410933" lon="-3.79577100276947">
        <ele>1044.6279999999999</ele>
        <time>2021-07-10T09:31:01Z</time>
      </trkpt>
      <trkpt lat="41.209057979285717" lon="-3.79562197253108">
        <ele>1043.6400000000001</ele>
        <time>2021-07-10T09:31:02Z</time>
      </trkpt>
      <trkpt lat="41.209212960675359" lon="-3.795466991141439">
        <ele>1043.163</ele>
        <time>2021-07-10T09:31:03Z</time>
      </trkpt>
      <trkpt lat="41.209506997838616" lon="-3.795165996998549">
        <ele>1042.2470000000001</ele>
        <time>2021-07-10T09:31:05Z</time>
      </trkpt>
      <trkpt lat="41.20964496396482" lon="-3.795029958710074">
        <ele>1041.626</ele>
        <time>2021-07-10T09:31:06Z</time>
      </trkpt>
      <trkpt lat="41.209888961166143" lon="-3.794786967337132">
        <ele>1040.9159999999999</ele>
        <time>2021-07-10T09:31:08Z</time>
      </trkpt>
      <trkpt lat="41.21000899001956" lon="-3.794668028131127">
        <ele>1040.4760000000001</ele>
        <time>2021-07-10T09:31:09Z</time>
      </trkpt>
      <trkpt lat="41.210193978622556" lon="-3.794479016214609">
        <ele>1040.0129999999999</ele>
        <time>2021-07-10T09:31:11Z</time>
      </trkpt>
      <trkpt lat="41.210345020517707" lon="-3.794335015118122">
        <ele>1039.2080000000001</ele>
        <time>2021-07-10T09:31:13Z</time>
      </trkpt>
      <trkpt lat="41.210406040772796" lon="-3.794273994863033">
        <ele>1038.818</ele>
        <time>2021-07-10T09:31:14Z</time>
      </trkpt>
      <trkpt lat="41.210476029664278" lon="-3.79420199431479">
        <ele>1038.1780000000001</ele>
        <time>2021-07-10T09:31:16Z</time>
      </trkpt>
      <trkpt lat="41.21058801189065" lon="-3.794097974896431">
        <ele>1037.549</ele>
        <time>2021-07-10T09:31:18Z</time>
      </trkpt>
      <trkpt lat="41.210676021873951" lon="-3.794018011540175">
        <ele>1036.875</ele>
        <time>2021-07-10T09:31:19Z</time>
      </trkpt>
      <trkpt lat="41.210881965234876" lon="-3.793839979916811">
        <ele>1036.617</ele>
        <time>2021-07-10T09:31:21Z</time>
      </trkpt>
      <trkpt lat="41.211008029058576" lon="-3.7937300093472">
        <ele>1036.1300000000001</ele>
        <time>2021-07-10T09:31:22Z</time>
      </trkpt>
      <trkpt lat="41.211297959089279" lon="-3.793487017974258">
        <ele>1035.434</ele>
        <time>2021-07-10T09:31:24Z</time>
      </trkpt>
      <trkpt lat="41.21159702539444" lon="-3.793234974145889">
        <ele>1034.953</ele>
        <time>2021-07-10T09:31:26Z</time>
      </trkpt>
      <trkpt lat="41.211929032579064" lon="-3.792948983609676">
        <ele>1033.7429999999999</ele>
        <time>2021-07-10T09:31:28Z</time>
      </trkpt>
      <trkpt lat="41.21211301535368" lon="-3.792786039412022">
        <ele>1032.664</ele>
        <time>2021-07-10T09:31:29Z</time>
      </trkpt>
      <trkpt lat="41.212287023663521" lon="-3.792626028880477">
        <ele>1031.21</ele>
        <time>2021-07-10T09:31:30Z</time>
      </trkpt>
      <trkpt lat="41.212633028626442" lon="-3.79228999838233">
        <ele>1029.7080000000001</ele>
        <time>2021-07-10T09:31:32Z</time>
      </trkpt>
      <trkpt lat="41.21297400444746" lon="-3.791909040883184">
        <ele>1028.1310000000001</ele>
        <time>2021-07-10T09:31:34Z</time>
      </trkpt>
      <trkpt lat="41.213149018585682" lon="-3.791722040623426">
        <ele>1027.0309999999999</ele>
        <time>2021-07-10T09:31:35Z</time>
      </trkpt>
      <trkpt lat="41.213329983875155" lon="-3.791548032313585">
        <ele>1026.0419999999999</ele>
        <time>2021-07-10T09:31:36Z</time>
      </trkpt>
      <trkpt lat="41.213731979951262" lon="-3.791303029283881">
        <ele>1025.788</ele>
        <time>2021-07-10T09:31:38Z</time>
      </trkpt>
      <trkpt lat="41.213957034051418" lon="-3.791221976280212">
        <ele>1025.1800000000001</ele>
        <time>2021-07-10T09:31:39Z</time>
      </trkpt>
      <trkpt lat="41.214403035119176" lon="-3.79108501598239">
        <ele>1024.153</ele>
        <time>2021-07-10T09:31:41Z</time>
      </trkpt>
      <trkpt lat="41.214864039793611" lon="-3.79093699157238">
        <ele>1023.787</ele>
        <time>2021-07-10T09:31:43Z</time>
      </trkpt>
      <trkpt lat="41.215094039216638" lon="-3.790854010730982">
        <ele>1023.626</ele>
        <time>2021-07-10T09:31:44Z</time>
      </trkpt>
      <trkpt lat="41.215335018932819" lon="-3.790768012404442">
        <ele>1023.455</ele>
        <time>2021-07-10T09:31:45Z</time>
      </trkpt>
      <trkpt lat="41.215762998908758" lon="-3.790625017136335">
        <ele>1022.707</ele>
        <time>2021-07-10T09:31:47Z</time>
      </trkpt>
      <trkpt lat="41.216186033561826" lon="-3.790439022704959">
        <ele>1022.617</ele>
        <time>2021-07-10T09:31:49Z</time>
      </trkpt>
      <trkpt lat="41.216393988579512" lon="-3.790316982194781">
        <ele>1022.1079999999999</ele>
        <time>2021-07-10T09:31:50Z</time>
      </trkpt>
      <trkpt lat="41.216767989099026" lon="-3.790041971951723">
        <ele>1021.022</ele>
        <time>2021-07-10T09:31:52Z</time>
      </trkpt>
      <trkpt lat="41.217160010710359" lon="-3.789736032485962">
        <ele>1019.472</ele>
        <time>2021-07-10T09:31:54Z</time>
      </trkpt>
      <trkpt lat="41.217574998736382" lon="-3.789422968402505">
        <ele>1018.083</ele>
        <time>2021-07-10T09:31:56Z</time>
      </trkpt>
      <trkpt lat="41.218015970662236" lon="-3.789107976481319">
        <ele>1016.599</ele>
        <time>2021-07-10T09:31:58Z</time>
      </trkpt>
      <trkpt lat="41.218498013913631" lon="-3.788785021752119">
        <ele>1014.981</ele>
        <time>2021-07-10T09:32:00Z</time>
      </trkpt>
      <trkpt lat="41.218966981396079" lon="-3.788492996245623">
        <ele>1013.954</ele>
        <time>2021-07-10T09:32:02Z</time>
      </trkpt>
      <trkpt lat="41.219451958313584" lon="-3.788188984617591">
        <ele>1014.098</ele>
        <time>2021-07-10T09:32:04Z</time>
      </trkpt>
      <trkpt lat="41.219702996313572" lon="-3.788030985742807">
        <ele>1014.077</ele>
        <time>2021-07-10T09:32:05Z</time>
      </trkpt>
      <trkpt lat="41.219930984079838" lon="-3.787888996303082">
        <ele>1014.146</ele>
        <time>2021-07-10T09:32:06Z</time>
      </trkpt>
      <trkpt lat="41.220372961834073" lon="-3.787615997716785">
        <ele>1014.588</ele>
        <time>2021-07-10T09:32:08Z</time>
      </trkpt>
      <trkpt lat="41.220607990399003" lon="-3.787473002448678">
        <ele>1014.716</ele>
        <time>2021-07-10T09:32:09Z</time>
      </trkpt>
      <trkpt lat="41.221081987023354" lon="-3.787179971113801">
        <ele>1015.008</ele>
        <time>2021-07-10T09:32:11Z</time>
      </trkpt>
      <trkpt lat="41.221334030851722" lon="-3.787030018866062">
        <ele>1015.231</ele>
        <time>2021-07-10T09:32:12Z</time>
      </trkpt>
      <trkpt lat="41.22182403691113" lon="-3.78672600723803">
        <ele>1015.331</ele>
        <time>2021-07-10T09:32:14Z</time>
      </trkpt>
      <trkpt lat="41.222098041325808" lon="-3.786555016413331">
        <ele>1015.282</ele>
        <time>2021-07-10T09:32:15Z</time>
      </trkpt>
      <trkpt lat="41.222613025456667" lon="-3.786234995350242">
        <ele>1014.748</ele>
        <time>2021-07-10T09:32:17Z</time>
      </trkpt>
      <trkpt lat="41.223165979608893" lon="-3.785895025357604">
        <ele>1014.36</ele>
        <time>2021-07-10T09:32:19Z</time>
      </trkpt>
      <trkpt lat="41.223453981801867" lon="-3.785714982077479">
        <ele>1013.8630000000001</ele>
        <time>2021-07-10T09:32:20Z</time>
      </trkpt>
      <trkpt lat="41.22373997233808" lon="-3.785537034273148">
        <ele>1013.837</ele>
        <time>2021-07-10T09:32:21Z</time>
      </trkpt>
      <trkpt lat="41.224283035844564" lon="-3.785201003775001">
        <ele>1013.766</ele>
        <time>2021-07-10T09:32:23Z</time>
      </trkpt>
      <trkpt lat="41.224831966683269" lon="-3.784862039610744">
        <ele>1013.847</ele>
        <time>2021-07-10T09:32:25Z</time>
      </trkpt>
      <trkpt lat="41.225118041038513" lon="-3.784685013815761">
        <ele>1013.829</ele>
        <time>2021-07-10T09:32:26Z</time>
      </trkpt>
      <trkpt lat="41.225635958835483" lon="-3.78436197526753">
        <ele>1013.821</ele>
        <time>2021-07-10T09:32:28Z</time>
      </trkpt>
      <trkpt lat="41.225898982957006" lon="-3.784197019413114">
        <ele>1013.808</ele>
        <time>2021-07-10T09:32:29Z</time>
      </trkpt>
      <trkpt lat="41.226159995421767" lon="-3.784031979739666">
        <ele>1013.391</ele>
        <time>2021-07-10T09:32:30Z</time>
      </trkpt>
      <trkpt lat="41.22665997594595" lon="-3.78371799364686">
        <ele>1013.061</ele>
        <time>2021-07-10T09:32:32Z</time>
      </trkpt>
      <trkpt lat="41.227117963135242" lon="-3.783433008939028">
        <ele>1012.792</ele>
        <time>2021-07-10T09:32:34Z</time>
      </trkpt>
      <trkpt lat="41.227331031113863" lon="-3.783300993964076">
        <ele>1011.938</ele>
        <time>2021-07-10T09:32:35Z</time>
      </trkpt>
      <trkpt lat="41.227548038586974" lon="-3.783167973160744">
        <ele>1011.27</ele>
        <time>2021-07-10T09:32:36Z</time>
      </trkpt>
      <trkpt lat="41.227923966944218" lon="-3.782935962080956">
        <ele>1010.473</ele>
        <time>2021-07-10T09:32:38Z</time>
      </trkpt>
      <trkpt lat="41.228106021881104" lon="-3.782823979854584">
        <ele>1009.647</ele>
        <time>2021-07-10T09:32:39Z</time>
      </trkpt>
      <trkpt lat="41.228441968560219" lon="-3.782617030665278">
        <ele>1009.376</ele>
        <time>2021-07-10T09:32:41Z</time>
      </trkpt>
      <trkpt lat="41.228737011551857" lon="-3.782431036233902">
        <ele>1009.277</ele>
        <time>2021-07-10T09:32:43Z</time>
      </trkpt>
      <trkpt lat="41.228874977678061" lon="-3.782347971573472">
        <ele>1009.1609999999999</ele>
        <time>2021-07-10T09:32:44Z</time>
      </trkpt>
      <trkpt lat="41.229089973494411" lon="-3.782215034589171">
        <ele>1009.427</ele>
        <time>2021-07-10T09:32:46Z</time>
      </trkpt>
      <trkpt lat="41.229154011234641" lon="-3.78216901794076">
        <ele>1009.508</ele>
        <time>2021-07-10T09:32:47Z</time>
      </trkpt>
      <trkpt lat="41.229213019832969" lon="-3.782075978815556">
        <ele>1009.224</ele>
        <time>2021-07-10T09:32:49Z</time>
      </trkpt>
      <trkpt lat="41.229214025661349" lon="-3.782011019065976">
        <ele>1009.244</ele>
        <time>2021-07-10T09:32:50Z</time>
      </trkpt>
      <trkpt lat="41.229202961549163" lon="-3.781929966062307">
        <ele>1009.255</ele>
        <time>2021-07-10T09:32:51Z</time>
      </trkpt>
      <trkpt lat="41.229187035933137" lon="-3.781842961907387">
        <ele>1009.081</ele>
        <time>2021-07-10T09:32:52Z</time>
      </trkpt>
      <trkpt lat="41.229159962385893" lon="-3.781623020768166">
        <ele>1008.783</ele>
        <time>2021-07-10T09:32:54Z</time>
      </trkpt>
      <trkpt lat="41.229134984314442" lon="-3.781347004696727">
        <ele>1008.456</ele>
        <time>2021-07-10T09:32:56Z</time>
      </trkpt>
      <trkpt lat="41.229120986536145" lon="-3.781180959194899">
        <ele>1008.38</ele>
        <time>2021-07-10T09:32:57Z</time>
      </trkpt>
      <trkpt lat="41.229089973494411" lon="-3.780856998637319">
        <ele>1007.639</ele>
        <time>2021-07-10T09:32:59Z</time>
      </trkpt>
      <trkpt lat="41.229072958230972" lon="-3.780681984499097">
        <ele>1007.747</ele>
        <time>2021-07-10T09:33:00Z</time>
      </trkpt>
      <trkpt lat="41.229054015129805" lon="-3.780493978410959">
        <ele>1007.729</ele>
        <time>2021-07-10T09:33:01Z</time>
      </trkpt>
      <trkpt lat="41.229038005694747" lon="-3.780309995636344">
        <ele>1007.621</ele>
        <time>2021-07-10T09:33:02Z</time>
      </trkpt>
      <trkpt lat="41.229009004309773" lon="-3.779955022037029">
        <ele>1007.708</ele>
        <time>2021-07-10T09:33:04Z</time>
      </trkpt>
      <trkpt lat="41.229009004309773" lon="-3.779771039262414">
        <ele>1007.471</ele>
        <time>2021-07-10T09:33:05Z</time>
      </trkpt>
      <trkpt lat="41.229021996259689" lon="-3.779578004032373">
        <ele>1007.111</ele>
        <time>2021-07-10T09:33:06Z</time>
      </trkpt>
      <trkpt lat="41.229095002636313" lon="-3.779235016554594">
        <ele>1006.332</ele>
        <time>2021-07-10T09:33:08Z</time>
      </trkpt>
      <trkpt lat="41.229193992912769" lon="-3.778878031298518">
        <ele>1005.248</ele>
        <time>2021-07-10T09:33:10Z</time>
      </trkpt>
      <trkpt lat="41.229242021217942" lon="-3.778693964704871">
        <ele>1004.71</ele>
        <time>2021-07-10T09:33:11Z</time>
      </trkpt>
      <trkpt lat="41.229293989017606" lon="-3.778503024950624">
        <ele>1004.463</ele>
        <time>2021-07-10T09:33:12Z</time>
      </trkpt>
      <trkpt lat="41.229356015101075" lon="-3.778156014159322">
        <ele>1003.997</ele>
        <time>2021-07-10T09:33:14Z</time>
      </trkpt>
      <trkpt lat="41.229376969859004" lon="-3.777773967012763">
        <ele>1002.546</ele>
        <time>2021-07-10T09:33:16Z</time>
      </trkpt>
      <trkpt lat="41.229384010657668" lon="-3.777565006166697">
        <ele>1001.788</ele>
        <time>2021-07-10T09:33:17Z</time>
      </trkpt>
      <trkpt lat="41.229400020092726" lon="-3.777182037010789">
        <ele>1001.124</ele>
        <time>2021-07-10T09:33:19Z</time>
      </trkpt>
      <trkpt lat="41.229407982900739" lon="-3.776983972638845">
        <ele>1000.626</ele>
        <time>2021-07-10T09:33:20Z</time>
      </trkpt>
      <trkpt lat="41.229437990114093" lon="-3.776598991826177">
        <ele>999.30799999999999</ele>
        <time>2021-07-10T09:33:22Z</time>
      </trkpt>
      <trkpt lat="41.229491969570518" lon="-3.776231026276946">
        <ele>997.85500000000002</ele>
        <time>2021-07-10T09:33:24Z</time>
      </trkpt>
      <trkpt lat="41.229555001482368" lon="-3.775870017707348">
        <ele>996.41499999999996</ele>
        <time>2021-07-10T09:33:26Z</time>
      </trkpt>
      <trkpt lat="41.229590037837625" lon="-3.775673964992166">
        <ele>994.71600000000001</ele>
        <time>2021-07-10T09:33:27Z</time>
      </trkpt>
      <trkpt lat="41.229651980102062" lon="-3.775335000827909">
        <ele>992.93200000000002</ele>
        <time>2021-07-10T09:33:29Z</time>
      </trkpt>
      <trkpt lat="41.229714006185532" lon="-3.775023026391864">
        <ele>991.84400000000005</ele>
        <time>2021-07-10T09:33:31Z</time>
      </trkpt>
      <trkpt lat="41.229750970378518" lon="-3.774868967011571">
        <ele>990.99699999999996</ele>
        <time>2021-07-10T09:33:32Z</time>
      </trkpt>
      <trkpt lat="41.229824982583523" lon="-3.7745859939605">
        <ele>990.53099999999995</ele>
        <time>2021-07-10T09:33:34Z</time>
      </trkpt>
      <trkpt lat="41.229895977303386" lon="-3.774275025352836">
        <ele>989.22000000000003</ele>
        <time>2021-07-10T09:33:36Z</time>
      </trkpt>
      <trkpt lat="41.229934031143785" lon="-3.774111997336149">
        <ele>988.26099999999997</ele>
        <time>2021-07-10T09:33:37Z</time>
      </trkpt>
      <trkpt lat="41.230013994500041" lon="-3.773786025121808">
        <ele>987.32100000000003</ele>
        <time>2021-07-10T09:33:39Z</time>
      </trkpt>
      <trkpt lat="41.230110973119736" lon="-3.773451000452042">
        <ele>985.21299999999997</ele>
        <time>2021-07-10T09:33:41Z</time>
      </trkpt>
      <trkpt lat="41.230170987546444" lon="-3.773271040990949">
        <ele>983.90800000000002</ele>
        <time>2021-07-10T09:33:42Z</time>
      </trkpt>
      <trkpt lat="41.230287998914719" lon="-3.772945990785956">
        <ele>982.78300000000002</ele>
        <time>2021-07-10T09:33:44Z</time>
      </trkpt>
      <trkpt lat="41.230412973091006" lon="-3.772611971944571">
        <ele>980.79300000000001</ele>
        <time>2021-07-10T09:33:46Z</time>
      </trkpt>
      <trkpt lat="41.230476005002856" lon="-3.772465037181974">
        <ele>979.28399999999999</ele>
        <time>2021-07-10T09:33:47Z</time>
      </trkpt>
      <trkpt lat="41.230544988065958" lon="-3.772325981408358">
        <ele>978.36000000000001</ele>
        <time>2021-07-10T09:33:48Z</time>
      </trkpt>
      <trkpt lat="41.23067800886929" lon="-3.772119032219052">
        <ele>977.21199999999999</ele>
        <time>2021-07-10T09:33:50Z</time>
      </trkpt>
      <trkpt lat="41.230733999982476" lon="-3.772022975608707">
        <ele>976.33500000000004</ele>
        <time>2021-07-10T09:33:51Z</time>
      </trkpt>
      <trkpt lat="41.230772975832224" lon="-3.77192297950387">
        <ele>976.11900000000003</ele>
        <time>2021-07-10T09:33:52Z</time>
      </trkpt>
      <trkpt lat="41.230800971388817" lon="-3.771822983399034">
        <ele>976.25800000000004</ele>
        <time>2021-07-10T09:33:53Z</time>
      </trkpt>
      <trkpt lat="41.230818992480636" lon="-3.771659033372998">
        <ele>976.09900000000005</ele>
        <time>2021-07-10T09:33:55Z</time>
      </trkpt>
      <trkpt lat="41.230823015794158" lon="-3.77151302061975">
        <ele>975.90700000000004</ele>
        <time>2021-07-10T09:33:57Z</time>
      </trkpt>
      <trkpt lat="41.2308260332793" lon="-3.7714499887079">
        <ele>975.72699999999998</ele>
        <time>2021-07-10T09:33:58Z</time>
      </trkpt>
      <trkpt lat="41.230855034664273" lon="-3.771372037008405">
        <ele>975.30799999999999</ele>
        <time>2021-07-10T09:34:00Z</time>
      </trkpt>
      <trkpt lat="41.230899039655924" lon="-3.771307999268174">
        <ele>975.31600000000003</ele>
        <time>2021-07-10T09:34:02Z</time>
      </trkpt>
      <trkpt lat="41.230926029384136" lon="-3.771240022033453">
        <ele>975.74599999999998</ele>
        <time>2021-07-10T09:34:04Z</time>
      </trkpt>
      <trkpt lat="41.230953019112349" lon="-3.771132985129952">
        <ele>976.27700000000004</ele>
        <time>2021-07-10T09:34:06Z</time>
      </trkpt>
      <trkpt lat="41.230970034375787" lon="-3.771072970703244">
        <ele>976.08299999999997</ele>
        <time>2021-07-10T09:34:07Z</time>
      </trkpt>
      <trkpt lat="41.231005992740393" lon="-3.770967023447156">
        <ele>976.73500000000001</ele>
        <time>2021-07-10T09:34:09Z</time>
      </trkpt>
      <trkpt lat="41.231046980246902" lon="-3.770869038999081">
        <ele>976.65800000000002</ele>
        <time>2021-07-10T09:34:11Z</time>
      </trkpt>
      <trkpt lat="41.231092996895313" lon="-3.770775999873877">
        <ele>976.52200000000005</ele>
        <time>2021-07-10T09:34:13Z</time>
      </trkpt>
      <trkpt lat="41.23112702742219" lon="-3.770669968798757">
        <ele>976.03099999999995</ele>
        <time>2021-07-10T09:34:15Z</time>
      </trkpt>
      <trkpt lat="41.231166003271937" lon="-3.77056603319943">
        <ele>975.56200000000001</ele>
        <time>2021-07-10T09:34:17Z</time>
      </trkpt>
      <trkpt lat="41.23121696524322" lon="-3.770452961325645">
        <ele>974.98299999999995</ele>
        <time>2021-07-10T09:34:19Z</time>
      </trkpt>
      <trkpt lat="41.231273962184787" lon="-3.770335027948022">
        <ele>974.41099999999994</ele>
        <time>2021-07-10T09:34:21Z</time>
      </trkpt>
      <trkpt lat="41.231311010196805" lon="-3.770274007692933">
        <ele>974.00800000000004</ele>
        <time>2021-07-10T09:34:22Z</time>
      </trkpt>
      <trkpt lat="41.231390973553061" lon="-3.770154984667897">
        <ele>974.01300000000003</ele>
        <time>2021-07-10T09:34:24Z</time>
      </trkpt>
      <trkpt lat="41.231433972716331" lon="-3.770092958584428">
        <ele>974.19299999999998</ele>
        <time>2021-07-10T09:34:25Z</time>
      </trkpt>
      <trkpt lat="41.23151795938611" lon="-3.769975025206804">
        <ele>973.86400000000003</ele>
        <time>2021-07-10T09:34:27Z</time>
      </trkpt>
      <trkpt lat="41.231588032096624" lon="-3.769883997738361">
        <ele>973.62</ele>
        <time>2021-07-10T09:34:29Z</time>
      </trkpt>
      <trkpt lat="41.231639999896288" lon="-3.76981602050364">
        <ele>973.54200000000003</ele>
        <time>2021-07-10T09:34:31Z</time>
      </trkpt>
      <trkpt lat="41.231662966310978" lon="-3.769738990813494">
        <ele>974.04499999999996</ele>
        <time>2021-07-10T09:34:33Z</time>
      </trkpt>
      <trkpt lat="41.231648968532681" lon="-3.769624996930361">
        <ele>974.649</ele>
        <time>2021-07-10T09:34:35Z</time>
      </trkpt>
      <trkpt lat="41.23164301738143" lon="-3.769495999440551">
        <ele>974.86800000000005</ele>
        <time>2021-07-10T09:34:37Z</time>
      </trkpt>
      <trkpt lat="41.231663972139359" lon="-3.76942902803421">
        <ele>974.73900000000003</ele>
        <time>2021-07-10T09:34:38Z</time>
      </trkpt>
      <trkpt lat="41.231704037636518" lon="-3.769360966980457">
        <ele>973.90099999999995</ele>
        <time>2021-07-10T09:34:39Z</time>
      </trkpt>
      <trkpt lat="41.231803027912974" lon="-3.769230041652918">
        <ele>974.32100000000003</ele>
        <time>2021-07-10T09:34:41Z</time>
      </trkpt>
      <trkpt lat="41.23192397877574" lon="-3.769071958959103">
        <ele>973.80799999999999</ele>
        <time>2021-07-10T09:34:43Z</time>
      </trkpt>
      <trkpt lat="41.23198701068759" lon="-3.768984032794833">
        <ele>973.74000000000001</ele>
        <time>2021-07-10T09:34:44Z</time>
      </trkpt>
      <trkpt lat="41.232110979035497" lon="-3.768794015049934">
        <ele>973.72000000000003</ele>
        <time>2021-07-10T09:34:46Z</time>
      </trkpt>
      <trkpt lat="41.232176022604108" lon="-3.768696030601859">
        <ele>973.44100000000003</ele>
        <time>2021-07-10T09:34:47Z</time>
      </trkpt>
      <trkpt lat="41.232308959588408" lon="-3.768495032563806">
        <ele>973.64700000000005</ele>
        <time>2021-07-10T09:34:49Z</time>
      </trkpt>
      <trkpt lat="41.232432005926967" lon="-3.768306020647287">
        <ele>972.65899999999999</ele>
        <time>2021-07-10T09:34:51Z</time>
      </trkpt>
      <trkpt lat="41.232501994818449" lon="-3.768207030370832">
        <ele>972.36199999999997</ele>
        <time>2021-07-10T09:34:52Z</time>
      </trkpt>
      <trkpt lat="41.232577012851834" lon="-3.768108040094376">
        <ele>971.61599999999999</ele>
        <time>2021-07-10T09:34:53Z</time>
      </trkpt>
      <trkpt lat="41.232733000069857" lon="-3.767905030399561">
        <ele>971.32500000000005</ele>
        <time>2021-07-10T09:34:55Z</time>
      </trkpt>
      <trkpt lat="41.232816986739635" lon="-3.767804028466344">
        <ele>971.29100000000005</ele>
        <time>2021-07-10T09:34:56Z</time>
      </trkpt>
      <trkpt lat="41.232988983392715" lon="-3.7676059640944">
        <ele>971.08100000000002</ele>
        <time>2021-07-10T09:34:58Z</time>
      </trkpt>
      <trkpt lat="41.2330830283463" lon="-3.767502028495073">
        <ele>971.01900000000001</ele>
        <time>2021-07-10T09:34:59Z</time>
      </trkpt>
      <trkpt lat="41.233272040262818" lon="-3.767297007143498">
        <ele>970.10799999999995</ele>
        <time>2021-07-10T09:35:01Z</time>
      </trkpt>
      <trkpt lat="41.233459040522575" lon="-3.767082011327148">
        <ele>969.46600000000001</ele>
        <time>2021-07-10T09:35:03Z</time>
      </trkpt>
      <trkpt lat="41.233648974448442" lon="-3.76685100607574">
        <ele>968.91600000000005</ele>
        <time>2021-07-10T09:35:05Z</time>
      </trkpt>
      <trkpt lat="41.233747964724898" lon="-3.766732988879085">
        <ele>968.01700000000005</ele>
        <time>2021-07-10T09:35:06Z</time>
      </trkpt>
      <trkpt lat="41.233945023268461" lon="-3.766511036083102">
        <ele>966.98299999999995</ele>
        <time>2021-07-10T09:35:08Z</time>
      </trkpt>
      <trkpt lat="41.234049964696169" lon="-3.766391007229686">
        <ele>966.42499999999995</ele>
        <time>2021-07-10T09:35:09Z</time>
      </trkpt>
      <trkpt lat="41.234155995771289" lon="-3.766269972547889">
        <ele>965.73800000000006</ele>
        <time>2021-07-10T09:35:10Z</time>
      </trkpt>
      <trkpt lat="41.234375014901161" lon="-3.766019018366933">
        <ele>965.11199999999997</ele>
        <time>2021-07-10T09:35:12Z</time>
      </trkpt>
      <trkpt lat="41.234593028202653" lon="-3.76575599424541">
        <ele>964.95100000000002</ele>
        <time>2021-07-10T09:35:14Z</time>
      </trkpt>
      <trkpt lat="41.234702998772264" lon="-3.765630014240742">
        <ele>964.78200000000004</ele>
        <time>2021-07-10T09:35:15Z</time>
      </trkpt>
      <trkpt lat="41.234814980998635" lon="-3.765505040064454">
        <ele>964.34299999999996</ele>
        <time>2021-07-10T09:35:16Z</time>
      </trkpt>
      <trkpt lat="41.235032994300127" lon="-3.765254002064467">
        <ele>963.81700000000001</ele>
        <time>2021-07-10T09:35:18Z</time>
      </trkpt>
      <trkpt lat="41.235141959041357" lon="-3.765134979039431">
        <ele>963.60799999999995</ele>
        <time>2021-07-10T09:35:19Z</time>
      </trkpt>
      <trkpt lat="41.235251007601619" lon="-3.765018973499537">
        <ele>963.41499999999996</ele>
        <time>2021-07-10T09:35:20Z</time>
      </trkpt>
      <trkpt lat="41.235464997589588" lon="-3.764783022925258">
        <ele>962.96500000000003</ele>
        <time>2021-07-10T09:35:22Z</time>
      </trkpt>
      <trkpt lat="41.235660966485739" lon="-3.764567021280527">
        <ele>962.346</ele>
        <time>2021-07-10T09:35:24Z</time>
      </trkpt>
      <trkpt lat="41.235762974247336" lon="-3.764452021569014">
        <ele>961.97199999999998</ele>
        <time>2021-07-10T09:35:25Z</time>
      </trkpt>
      <trkpt lat="41.235947962850332" lon="-3.764241971075535">
        <ele>960.83399999999995</ele>
        <time>2021-07-10T09:35:27Z</time>
      </trkpt>
      <trkpt lat="41.236125994473696" lon="-3.764034016057849">
        <ele>959.95699999999999</ele>
        <time>2021-07-10T09:35:29Z</time>
      </trkpt>
      <trkpt lat="41.23622196726501" lon="-3.763924967497587">
        <ele>959.41099999999994</ele>
        <time>2021-07-10T09:35:30Z</time>
      </trkpt>
      <trkpt lat="41.23639496974647" lon="-3.763722041621804">
        <ele>958.90999999999997</ele>
        <time>2021-07-10T09:35:32Z</time>
      </trkpt>
      <trkpt lat="41.236487003043294" lon="-3.763621961697936">
        <ele>958.38300000000004</ele>
        <time>2021-07-10T09:35:33Z</time>
      </trkpt>
      <trkpt lat="41.236680038273335" lon="-3.763418029993773">
        <ele>958.52499999999998</ele>
        <time>2021-07-10T09:35:35Z</time>
      </trkpt>
      <trkpt lat="41.236851029098034" lon="-3.763222983106971">
        <ele>958.41700000000003</ele>
        <time>2021-07-10T09:35:37Z</time>
      </trkpt>
      <trkpt lat="41.23701598495245" lon="-3.763032965362072">
        <ele>958.60799999999995</ele>
        <time>2021-07-10T09:35:39Z</time>
      </trkpt>
      <trkpt lat="41.237087985500693" lon="-3.762945961207151">
        <ele>958.67499999999995</ele>
        <time>2021-07-10T09:35:40Z</time>
      </trkpt>
      <trkpt lat="41.237170966342092" lon="-3.762844959273934">
        <ele>958.97500000000002</ele>
        <time>2021-07-10T09:35:42Z</time>
      </trkpt>
      <trkpt lat="41.237215977162123" lon="-3.762814030051231">
        <ele>958.89599999999996</ele>
        <time>2021-07-10T09:35:51Z</time>
      </trkpt>
      <trkpt lat="41.237296024337411" lon="-3.762740017846227">
        <ele>959.17200000000003</ele>
        <time>2021-07-10T09:35:53Z</time>
      </trkpt>
      <trkpt lat="41.237412029877305" lon="-3.762617977336049">
        <ele>958.74400000000003</ele>
        <time>2021-07-10T09:35:55Z</time>
      </trkpt>
      <trkpt lat="41.237482018768787" lon="-3.762538013979793">
        <ele>958.62699999999995</ele>
        <time>2021-07-10T09:35:56Z</time>
      </trkpt>
      <trkpt lat="41.237645968794823" lon="-3.762351013720036">
        <ele>958.41099999999994</ele>
        <time>2021-07-10T09:35:58Z</time>
      </trkpt>
      <trkpt lat="41.237736996263266" lon="-3.762251017615199">
        <ele>958.21000000000004</ele>
        <time>2021-07-10T09:35:59Z</time>
      </trkpt>
      <trkpt lat="41.237831963226199" lon="-3.762151021510363">
        <ele>957.82299999999998</ele>
        <time>2021-07-10T09:36:00Z</time>
      </trkpt>
      <trkpt lat="41.237933970987797" lon="-3.762049013748765">
        <ele>958.48299999999995</ele>
        <time>2021-07-10T09:36:01Z</time>
      </trkpt>
      <trkpt lat="41.238128012046218" lon="-3.761861007660627">
        <ele>957.81100000000004</ele>
        <time>2021-07-10T09:36:03Z</time>
      </trkpt>
      <trkpt lat="41.238329010084271" lon="-3.761665960773826">
        <ele>957.80799999999999</ele>
        <time>2021-07-10T09:36:05Z</time>
      </trkpt>
      <trkpt lat="41.238429006189108" lon="-3.761571999639273">
        <ele>957.73900000000003</ele>
        <time>2021-07-10T09:36:06Z</time>
      </trkpt>
      <trkpt lat="41.238525984808803" lon="-3.761483989655972">
        <ele>958.12900000000002</ele>
        <time>2021-07-10T09:36:07Z</time>
      </trkpt>
      <trkpt lat="41.238684989511967" lon="-3.761347029358149">
        <ele>956.80999999999995</ele>
        <time>2021-07-10T09:36:09Z</time>
      </trkpt>
      <trkpt lat="41.238740980625153" lon="-3.761305036023259">
        <ele>955.88599999999997</ele>
        <time>2021-07-10T09:36:10Z</time>
      </trkpt>
      <trkpt lat="41.238781968131661" lon="-3.761263964697719">
        <ele>955.83799999999997</ele>
        <time>2021-07-10T09:36:12Z</time>
      </trkpt>
      <trkpt lat="41.238832008093596" lon="-3.761154999956489">
        <ele>955.53099999999995</ele>
        <time>2021-07-10T09:36:17Z</time>
      </trkpt>
      <trkpt lat="41.238874001428485" lon="-3.76105098053813">
        <ele>954.82500000000005</ele>
        <time>2021-07-10T09:36:18Z</time>
      </trkpt>
      <trkpt lat="41.238965028896928" lon="-3.76077395863831">
        <ele>952.94399999999996</ele>
        <time>2021-07-10T09:36:20Z</time>
      </trkpt>
      <trkpt lat="41.239082962274551" lon="-3.760425020009279">
        <ele>950.74099999999999</ele>
        <time>2021-07-10T09:36:22Z</time>
      </trkpt>
      <trkpt lat="41.239219000563025" lon="-3.760045990347862">
        <ele>949.18100000000004</ele>
        <time>2021-07-10T09:36:24Z</time>
      </trkpt>
      <trkpt lat="41.239375993609428" lon="-3.75961197540164">
        <ele>948.30899999999997</ele>
        <time>2021-07-10T09:36:26Z</time>
      </trkpt>
      <trkpt lat="41.239459980279207" lon="-3.759380970150232">
        <ele>948.20799999999997</ele>
        <time>2021-07-10T09:36:27Z</time>
      </trkpt>
      <trkpt lat="41.239544972777367" lon="-3.759144013747573">
        <ele>948.24099999999999</ele>
        <time>2021-07-10T09:36:28Z</time>
      </trkpt>
      <trkpt lat="41.239706994965672" lon="-3.758661970496178">
        <ele>948.93100000000004</ele>
        <time>2021-07-10T09:36:30Z</time>
      </trkpt>
      <trkpt lat="41.239783018827438" lon="-3.758410010486841">
        <ele>949.97199999999998</ele>
        <time>2021-07-10T09:36:31Z</time>
      </trkpt>
      <trkpt lat="41.239878991618752" lon="-3.757952023297548">
        <ele>951.64800000000002</ele>
        <time>2021-07-10T09:36:33Z</time>
      </trkpt>
      <trkpt lat="41.239905981346965" lon="-3.757708026096225">
        <ele>953.25</ele>
        <time>2021-07-10T09:36:34Z</time>
      </trkpt>
      <trkpt lat="41.239913022145629" lon="-3.757217014208436">
        <ele>954.76300000000003</ele>
        <time>2021-07-10T09:36:36Z</time>
      </trkpt>
      <trkpt lat="41.239899024367332" lon="-3.756969999521971">
        <ele>956.03700000000003</ele>
        <time>2021-07-10T09:36:37Z</time>
      </trkpt>
      <trkpt lat="41.239861976355314" lon="-3.75647496432066">
        <ele>957.75599999999997</ele>
        <time>2021-07-10T09:36:39Z</time>
      </trkpt>
      <trkpt lat="41.239843033254147" lon="-3.756223004311323">
        <ele>959.16099999999994</ele>
        <time>2021-07-10T09:36:40Z</time>
      </trkpt>
      <trkpt lat="41.239815037697554" lon="-3.755715982988477">
        <ele>960.62099999999998</ele>
        <time>2021-07-10T09:36:42Z</time>
      </trkpt>
      <trkpt lat="41.239800034090877" lon="-3.755459999665618">
        <ele>962.11300000000006</ele>
        <time>2021-07-10T09:36:43Z</time>
      </trkpt>
      <trkpt lat="41.2397850304842" lon="-3.755197981372476">
        <ele>963.60799999999995</ele>
        <time>2021-07-10T09:36:44Z</time>
      </trkpt>
      <trkpt lat="41.239753011614084" lon="-3.754659024998546">
        <ele>965.03300000000002</ele>
        <time>2021-07-10T09:36:46Z</time>
      </trkpt>
      <trkpt lat="41.239737002179027" lon="-3.754361970350146">
        <ele>966.62300000000005</ele>
        <time>2021-07-10T09:36:47Z</time>
      </trkpt>
      <trkpt lat="41.239709006622434" lon="-3.753813039511442">
        <ele>967.82399999999996</ele>
        <time>2021-07-10T09:36:49Z</time>
      </trkpt>
      <trkpt lat="41.239676987752318" lon="-3.753212979063392">
        <ele>969.09000000000003</ele>
        <time>2021-07-10T09:36:51Z</time>
      </trkpt>
      <trkpt lat="41.239647986367345" lon="-3.752631023526192">
        <ele>970.14200000000005</ele>
        <time>2021-07-10T09:36:53Z</time>
      </trkpt>
      <trkpt lat="41.239631976932287" lon="-3.752337992191315">
        <ele>971.33500000000004</ele>
        <time>2021-07-10T09:36:54Z</time>
      </trkpt>
      <trkpt lat="41.239600963890553" lon="-3.751770034432411">
        <ele>972.65899999999999</ele>
        <time>2021-07-10T09:36:56Z</time>
      </trkpt>
      <trkpt lat="41.23957003466785" lon="-3.751170979812741">
        <ele>973.83799999999997</ele>
        <time>2021-07-10T09:36:58Z</time>
      </trkpt>
      <trkpt lat="41.239540027454495" lon="-3.75060997903347">
        <ele>975.19200000000001</ele>
        <time>2021-07-10T09:37:00Z</time>
      </trkpt>
      <trkpt lat="41.239524018019438" lon="-3.750319965183735">
        <ele>975.87300000000005</ele>
        <time>2021-07-10T09:37:01Z</time>
      </trkpt>
      <trkpt lat="41.239484958350658" lon="-3.749743960797787">
        <ele>977.12</ele>
        <time>2021-07-10T09:37:03Z</time>
      </trkpt>
      <trkpt lat="41.239466015249491" lon="-3.749480014666915">
        <ele>978.30799999999999</ele>
        <time>2021-07-10T09:37:04Z</time>
      </trkpt>
      <trkpt lat="41.239419998601079" lon="-3.748985985293984">
        <ele>979.37599999999998</ele>
        <time>2021-07-10T09:37:06Z</time>
      </trkpt>
      <trkpt lat="41.239397032186389" lon="-3.748737964779139">
        <ele>980.28599999999994</ele>
        <time>2021-07-10T09:37:07Z</time>
      </trkpt>
      <trkpt lat="41.239363001659513" lon="-3.748229015618563">
        <ele>980.67700000000002</ele>
        <time>2021-07-10T09:37:09Z</time>
      </trkpt>
      <trkpt lat="41.239341041073203" lon="-3.747756024822593">
        <ele>981.34299999999996</ele>
        <time>2021-07-10T09:37:11Z</time>
      </trkpt>
      <trkpt lat="41.239329976961017" lon="-3.747512027621269">
        <ele>982.19500000000005</ele>
        <time>2021-07-10T09:37:12Z</time>
      </trkpt>
      <trkpt lat="41.239317990839481" lon="-3.747268030419946">
        <ele>982.78800000000001</ele>
        <time>2021-07-10T09:37:13Z</time>
      </trkpt>
      <trkpt lat="41.239304998889565" lon="-3.747005006298423">
        <ele>983.19200000000001</ele>
        <time>2021-07-10T09:37:14Z</time>
      </trkpt>
      <trkpt lat="41.239282032474875" lon="-3.746517011895776">
        <ele>983.74099999999999</ele>
        <time>2021-07-10T09:37:16Z</time>
      </trkpt>
      <trkpt lat="41.239267028868198" lon="-3.745979983359575">
        <ele>984.89700000000005</ele>
        <time>2021-07-10T09:37:18Z</time>
      </trkpt>
      <trkpt lat="41.239279014989734" lon="-3.74568996950984">
        <ele>985.62300000000005</ele>
        <time>2021-07-10T09:37:19Z</time>
      </trkpt>
      <trkpt lat="41.239350009709597" lon="-3.745166016742587">
        <ele>986.125</ele>
        <time>2021-07-10T09:37:21Z</time>
      </trkpt>
      <trkpt lat="41.239442965015769" lon="-3.74461398459971">
        <ele>986.40800000000002</ele>
        <time>2021-07-10T09:37:23Z</time>
      </trkpt>
      <trkpt lat="41.2394879758358" lon="-3.744331011548638">
        <ele>986.79600000000005</ele>
        <time>2021-07-10T09:37:24Z</time>
      </trkpt>
      <trkpt lat="41.239532986655831" lon="-3.744048038497567">
        <ele>986.87599999999998</ele>
        <time>2021-07-10T09:37:25Z</time>
      </trkpt>
      <trkpt lat="41.239579003304243" lon="-3.743762969970703">
        <ele>987.46699999999998</ele>
        <time>2021-07-10T09:37:26Z</time>
      </trkpt>
      <trkpt lat="41.23961697332561" lon="-3.743469016626477">
        <ele>988.48299999999995</ele>
        <time>2021-07-10T09:37:27Z</time>
      </trkpt>
      <trkpt lat="41.239694003015757" lon="-3.742901980876923">
        <ele>989.57500000000005</ele>
        <time>2021-07-10T09:37:29Z</time>
      </trkpt>
      <trkpt lat="41.239732978865504" lon="-3.742625964805484">
        <ele>990.72799999999995</ele>
        <time>2021-07-10T09:37:30Z</time>
      </trkpt>
      <trkpt lat="41.239815959706903" lon="-3.742073010653257">
        <ele>992.98199999999997</ele>
        <time>2021-07-10T09:37:32Z</time>
      </trkpt>
      <trkpt lat="41.239858958870173" lon="-3.741790037602186">
        <ele>994.71100000000001</ele>
        <time>2021-07-10T09:37:33Z</time>
      </trkpt>
      <trkpt lat="41.239903969690204" lon="-3.741492982953787">
        <ele>995.64800000000002</ele>
        <time>2021-07-10T09:37:34Z</time>
      </trkpt>
      <trkpt lat="41.239990973845124" lon="-3.740936005488038">
        <ele>996.86099999999999</ele>
        <time>2021-07-10T09:37:36Z</time>
      </trkpt>
      <trkpt lat="41.240083007141948" lon="-3.740341980010271">
        <ele>998.31700000000001</ele>
        <time>2021-07-10T09:37:38Z</time>
      </trkpt>
      <trkpt lat="41.240132041275501" lon="-3.740034028887749">
        <ele>999.80799999999999</ele>
        <time>2021-07-10T09:37:39Z</time>
      </trkpt>
      <trkpt lat="41.240178979933262" lon="-3.739739991724491">
        <ele>1001.071</ele>
        <time>2021-07-10T09:37:40Z</time>
      </trkpt>
      <trkpt lat="41.240271013230085" lon="-3.739149989560247">
        <ele>1002.571</ele>
        <time>2021-07-10T09:37:42Z</time>
      </trkpt>
      <trkpt lat="41.240316024050117" lon="-3.738842960447073">
        <ele>1003.822</ele>
        <time>2021-07-10T09:37:43Z</time>
      </trkpt>
      <trkpt lat="41.240364974364638" lon="-3.738523023203015">
        <ele>1005.128</ele>
        <time>2021-07-10T09:37:44Z</time>
      </trkpt>
      <trkpt lat="41.240454996004701" lon="-3.737936960533261">
        <ele>1006.95</ele>
        <time>2021-07-10T09:37:46Z</time>
      </trkpt>
      <trkpt lat="41.240505035966635" lon="-3.737628003582358">
        <ele>1008.033</ele>
        <time>2021-07-10T09:37:47Z</time>
      </trkpt>
      <trkpt lat="41.240557003766298" lon="-3.737317034974694">
        <ele>1008.997</ele>
        <time>2021-07-10T09:37:48Z</time>
      </trkpt>
      <trkpt lat="41.240609977394342" lon="-3.73698896728456">
        <ele>1009.566</ele>
        <time>2021-07-10T09:37:49Z</time>
      </trkpt>
      <trkpt lat="41.240708967670798" lon="-3.736369963735342">
        <ele>1010.215</ele>
        <time>2021-07-10T09:37:51Z</time>
      </trkpt>
      <trkpt lat="41.240811981260777" lon="-3.735723970457912">
        <ele>1011.265</ele>
        <time>2021-07-10T09:37:53Z</time>
      </trkpt>
      <trkpt lat="41.240864032879472" lon="-3.735388023778796">
        <ele>1012.011</ele>
        <time>2021-07-10T09:37:54Z</time>
      </trkpt>
      <trkpt lat="41.240966962650418" lon="-3.734744964167476">
        <ele>1013.1079999999999</ele>
        <time>2021-07-10T09:37:56Z</time>
      </trkpt>
      <trkpt lat="41.241065030917525" lon="-3.734093019738793">
        <ele>1014.688</ele>
        <time>2021-07-10T09:37:58Z</time>
      </trkpt>
      <trkpt lat="41.241163015365601" lon="-3.733454989269376">
        <ele>1016.148</ele>
        <time>2021-07-10T09:38:00Z</time>
      </trkpt>
      <trkpt lat="41.241259993985295" lon="-3.732830034568906">
        <ele>1017.019</ele>
        <time>2021-07-10T09:38:02Z</time>
      </trkpt>
      <trkpt lat="41.24135403893888" lon="-3.732227040454745">
        <ele>1017.615</ele>
        <time>2021-07-10T09:38:04Z</time>
      </trkpt>
      <trkpt lat="41.241398965939879" lon="-3.73193702660501">
        <ele>1017.977</ele>
        <time>2021-07-10T09:38:05Z</time>
      </trkpt>
      <trkpt lat="41.241440959274769" lon="-3.731654975563288">
        <ele>1018.63</ele>
        <time>2021-07-10T09:38:06Z</time>
      </trkpt>
      <trkpt lat="41.241525029763579" lon="-3.731097998097539">
        <ele>1019.794</ele>
        <time>2021-07-10T09:38:08Z</time>
      </trkpt>
      <trkpt lat="41.2416120339185" lon="-3.730564992874861">
        <ele>1020.783</ele>
        <time>2021-07-10T09:38:10Z</time>
      </trkpt>
      <trkpt lat="41.24165503308177" lon="-3.730290988460183">
        <ele>1021.674</ele>
        <time>2021-07-10T09:38:11Z</time>
      </trkpt>
      <trkpt lat="41.241740025579929" lon="-3.729741973802447">
        <ele>1022.756</ele>
        <time>2021-07-10T09:38:13Z</time>
      </trkpt>
      <trkpt lat="41.241783024743199" lon="-3.729455983266234">
        <ele>1023.521</ele>
        <time>2021-07-10T09:38:14Z</time>
      </trkpt>
      <trkpt lat="41.241863993927836" lon="-3.728902023285627">
        <ele>1024.2080000000001</ele>
        <time>2021-07-10T09:38:16Z</time>
      </trkpt>
      <trkpt lat="41.241953009739518" lon="-3.728320989757776">
        <ele>1025.2339999999999</ele>
        <time>2021-07-10T09:38:18Z</time>
      </trkpt>
      <trkpt lat="41.24199902638793" lon="-3.728021001443267">
        <ele>1026.0740000000001</ele>
        <time>2021-07-10T09:38:19Z</time>
      </trkpt>
      <trkpt lat="41.242048982530832" lon="-3.727697040885687">
        <ele>1026.845</ele>
        <time>2021-07-10T09:38:20Z</time>
      </trkpt>
      <trkpt lat="41.242097010836005" lon="-3.727388000115752">
        <ele>1027.421</ele>
        <time>2021-07-10T09:38:21Z</time>
      </trkpt>
      <trkpt lat="41.242196001112461" lon="-3.726754998788238">
        <ele>1028.5129999999999</ele>
        <time>2021-07-10T09:38:23Z</time>
      </trkpt>
      <trkpt lat="41.242246963083744" lon="-3.726420979946852">
        <ele>1029.5360000000001</ele>
        <time>2021-07-10T09:38:24Z</time>
      </trkpt>
      <trkpt lat="41.2423010263592" lon="-3.726070029661059">
        <ele>1030.01</ele>
        <time>2021-07-10T09:38:25Z</time>
      </trkpt>
      <trkpt lat="41.242349976673722" lon="-3.725741961970925">
        <ele>1029.9290000000001</ele>
        <time>2021-07-10T09:38:26Z</time>
      </trkpt>
      <trkpt lat="41.242450978606939" lon="-3.72508398257196">
        <ele>1029.471</ele>
        <time>2021-07-10T09:38:28Z</time>
      </trkpt>
      <trkpt lat="41.242566984146833" lon="-3.724379986524582">
        <ele>1028.441</ele>
        <time>2021-07-10T09:38:30Z</time>
      </trkpt>
      <trkpt lat="41.242678966373205" lon="-3.723698034882546">
        <ele>1027.2149999999999</ele>
        <time>2021-07-10T09:38:32Z</time>
      </trkpt>
      <trkpt lat="41.24279597774148" lon="-3.722953973338008">
        <ele>1025.6079999999999</ele>
        <time>2021-07-10T09:38:34Z</time>
      </trkpt>
      <trkpt lat="41.242856997996569" lon="-3.722563963383436">
        <ele>1023.8339999999999</ele>
        <time>2021-07-10T09:38:35Z</time>
      </trkpt>
      <trkpt lat="41.242975015193224" lon="-3.721792995929718">
        <ele>1021.624</ele>
        <time>2021-07-10T09:38:37Z</time>
      </trkpt>
      <trkpt lat="41.24309797771275" lon="-3.721004007384181">
        <ele>1019.645</ele>
        <time>2021-07-10T09:38:39Z</time>
      </trkpt>
      <trkpt lat="41.2431610096246" lon="-3.720604022964835">
        <ele>1017.691</ele>
        <time>2021-07-10T09:38:40Z</time>
      </trkpt>
      <trkpt lat="41.24322303570807" lon="-3.720199009403586">
        <ele>1015.893</ele>
        <time>2021-07-10T09:38:41Z</time>
      </trkpt>
      <trkpt lat="41.243348009884357" lon="-3.719396023079753">
        <ele>1014.016</ele>
        <time>2021-07-10T09:38:43Z</time>
      </trkpt>
      <trkpt lat="41.243478013202548" lon="-3.718587001785636">
        <ele>1012.15</ele>
        <time>2021-07-10T09:38:45Z</time>
      </trkpt>
      <trkpt lat="41.243545990437269" lon="-3.718167990446091">
        <ele>1010.369</ele>
        <time>2021-07-10T09:38:46Z</time>
      </trkpt>
      <trkpt lat="41.243671970441937" lon="-3.71739199385047">
        <ele>1008.331</ele>
        <time>2021-07-10T09:38:48Z</time>
      </trkpt>
      <trkpt lat="41.243737014010549" lon="-3.716995026916266">
        <ele>1006.861</ele>
        <time>2021-07-10T09:38:49Z</time>
      </trkpt>
      <trkpt lat="41.243863999843597" lon="-3.716214001178742">
        <ele>1004.807</ele>
        <time>2021-07-10T09:38:51Z</time>
      </trkpt>
      <trkpt lat="41.243985034525394" lon="-3.715450996533036">
        <ele>1003.408</ele>
        <time>2021-07-10T09:38:53Z</time>
      </trkpt>
      <trkpt lat="41.244100034236908" lon="-3.714697966352105">
        <ele>1002.13</ele>
        <time>2021-07-10T09:38:55Z</time>
      </trkpt>
      <trkpt lat="41.244153007864952" lon="-3.714323965832591">
        <ele>1001.4299999999999</ele>
        <time>2021-07-10T09:38:56Z</time>
      </trkpt>
      <trkpt lat="41.244264990091324" lon="-3.713587028905749">
        <ele>999.92100000000005</ele>
        <time>2021-07-10T09:38:58Z</time>
      </trkpt>
      <trkpt lat="41.244366997852921" lon="-3.712854031473398">
        <ele>998.447</ele>
        <time>2021-07-10T09:39:00Z</time>
      </trkpt>
      <trkpt lat="41.244422988966107" lon="-3.712126985192299">
        <ele>997.03899999999999</ele>
        <time>2021-07-10T09:39:02Z</time>
      </trkpt>
      <trkpt lat="41.244405973702669" lon="-3.711404968053103">
        <ele>996.74199999999996</ele>
        <time>2021-07-10T09:39:04Z</time>
      </trkpt>
      <trkpt lat="41.244371021166444" lon="-3.711046976968646">
        <ele>997.21600000000001</ele>
        <time>2021-07-10T09:39:05Z</time>
      </trkpt>
      <trkpt lat="41.244325004518032" lon="-3.710696026682854">
        <ele>997.72500000000002</ele>
        <time>2021-07-10T09:39:06Z</time>
      </trkpt>
      <trkpt lat="41.244182009249926" lon="-3.710036035627127">
        <ele>998.57500000000005</ele>
        <time>2021-07-10T09:39:08Z</time>
      </trkpt>
      <trkpt lat="41.243988974019885" lon="-3.709418037906289">
        <ele>999.22799999999995</ele>
        <time>2021-07-10T09:39:10Z</time>
      </trkpt>
      <trkpt lat="41.243867017328739" lon="-3.709107991307974">
        <ele>1000.8200000000001</ele>
        <time>2021-07-10T09:39:11Z</time>
      </trkpt>
      <trkpt lat="41.243642969056964" lon="-3.708617985248566">
        <ele>1002.308</ele>
        <time>2021-07-10T09:39:13Z</time>
      </trkpt>
      <trkpt lat="41.243526041507721" lon="-3.708409024402499">
        <ele>1002.814</ele>
        <time>2021-07-10T09:39:14Z</time>
      </trkpt>
      <trkpt lat="41.243415987119079" lon="-3.7082190066576">
        <ele>1003.244</ele>
        <time>2021-07-10T09:39:15Z</time>
      </trkpt>
      <trkpt lat="41.243308028206229" lon="-3.708032006397843">
        <ele>1003.915</ele>
        <time>2021-07-10T09:39:16Z</time>
      </trkpt>
      <trkpt lat="41.243217000737786" lon="-3.707869984209538">
        <ele>1004.761</ele>
        <time>2021-07-10T09:39:17Z</time>
      </trkpt>
      <trkpt lat="41.243051961064339" lon="-3.707592962309718">
        <ele>1005.153</ele>
        <time>2021-07-10T09:39:19Z</time>
      </trkpt>
      <trkpt lat="41.242891028523445" lon="-3.707343013957143">
        <ele>1005.596</ele>
        <time>2021-07-10T09:39:21Z</time>
      </trkpt>
      <trkpt lat="41.242820033803582" lon="-3.707244023680687">
        <ele>1004.99</ele>
        <time>2021-07-10T09:39:22Z</time>
      </trkpt>
      <trkpt lat="41.242735963314772" lon="-3.70712298899889">
        <ele>1004.739</ele>
        <time>2021-07-10T09:39:24Z</time>
      </trkpt>
      <trkpt lat="41.242701010778546" lon="-3.707062974572182">
        <ele>1004.999</ele>
        <time>2021-07-10T09:39:26Z</time>
      </trkpt>
      <trkpt lat="41.242671003565192" lon="-3.706998014822602">
        <ele>1005.807</ele>
        <time>2021-07-10T09:39:31Z</time>
      </trkpt>
      <trkpt lat="41.242622975260019" lon="-3.706911010667682">
        <ele>1005.527</ele>
        <time>2021-07-10T09:39:33Z</time>
      </trkpt>
      <trkpt lat="41.24258098192513" lon="-3.706847978755832">
        <ele>1005.508</ele>
        <time>2021-07-10T09:39:34Z</time>
      </trkpt>
      <trkpt lat="41.242531025782228" lon="-3.706792993471026">
        <ele>1005.176</ele>
        <time>2021-07-10T09:39:35Z</time>
      </trkpt>
      <trkpt lat="41.242476040497422" lon="-3.706752005964518">
        <ele>1004.846</ele>
        <time>2021-07-10T09:39:36Z</time>
      </trkpt>
      <trkpt lat="41.242412002757192" lon="-3.706715041771531">
        <ele>1005.237</ele>
        <time>2021-07-10T09:39:37Z</time>
      </trkpt>
      <trkpt lat="41.242304965853691" lon="-3.706587972119451">
        <ele>1005.463</ele>
        <time>2021-07-10T09:39:39Z</time>
      </trkpt>
      <trkpt lat="41.242274958640337" lon="-3.706488981842995">
        <ele>1006.1950000000001</ele>
        <time>2021-07-10T09:39:40Z</time>
      </trkpt>
      <trkpt lat="41.242239000275731" lon="-3.706269040703774">
        <ele>1006.918</ele>
        <time>2021-07-10T09:39:42Z</time>
      </trkpt>
      <trkpt lat="41.242144033312798" lon="-3.706043986603618">
        <ele>1007.2619999999999</ele>
        <time>2021-07-10T09:39:44Z</time>
      </trkpt>
      <trkpt lat="41.242003971710801" lon="-3.705780040472746">
        <ele>1008.061</ele>
        <time>2021-07-10T09:39:46Z</time>
      </trkpt>
      <trkpt lat="41.241924008354545" lon="-3.705620029941201">
        <ele>1008.9829999999999</ele>
        <time>2021-07-10T09:39:47Z</time>
      </trkpt>
      <trkpt lat="41.241758968681097" lon="-3.705287016928196">
        <ele>1009.625</ele>
        <time>2021-07-10T09:39:49Z</time>
      </trkpt>
      <trkpt lat="41.24154900200665" lon="-3.704897006973624">
        <ele>1010.217</ele>
        <time>2021-07-10T09:39:51Z</time>
      </trkpt>
      <trkpt lat="41.241429978981614" lon="-3.704677987843752">
        <ele>1010.408</ele>
        <time>2021-07-10T09:39:52Z</time>
      </trkpt>
      <trkpt lat="41.241202997043729" lon="-3.70426400564611">
        <ele>1010.525</ele>
        <time>2021-07-10T09:39:54Z</time>
      </trkpt>
      <trkpt lat="41.24094701372087" lon="-3.703801995143294">
        <ele>1010.535</ele>
        <time>2021-07-10T09:39:56Z</time>
      </trkpt>
      <trkpt lat="41.240816004574299" lon="-3.703568978235126">
        <ele>1010.7859999999999</ele>
        <time>2021-07-10T09:39:57Z</time>
      </trkpt>
      <trkpt lat="41.240678038448095" lon="-3.703325986862183">
        <ele>1010.942</ele>
        <time>2021-07-10T09:39:58Z</time>
      </trkpt>
      <trkpt lat="41.240430017933249" lon="-3.702885014936328">
        <ele>1011.454</ele>
        <time>2021-07-10T09:40:00Z</time>
      </trkpt>
      <trkpt lat="41.240301020443439" lon="-3.702651998028159">
        <ele>1011.737</ele>
        <time>2021-07-10T09:40:01Z</time>
      </trkpt>
      <trkpt lat="41.240162970498204" lon="-3.702402971684933">
        <ele>1011.831</ele>
        <time>2021-07-10T09:40:02Z</time>
      </trkpt>
      <trkpt lat="41.239904975518584" lon="-3.701943978667259">
        <ele>1012.0700000000001</ele>
        <time>2021-07-10T09:40:04Z</time>
      </trkpt>
      <trkpt lat="41.239630971103907" lon="-3.701454978436232">
        <ele>1012.138</ele>
        <time>2021-07-10T09:40:06Z</time>
      </trkpt>
      <trkpt lat="41.239490993320942" lon="-3.701205030083656">
        <ele>1012.27</ele>
        <time>2021-07-10T09:40:07Z</time>
      </trkpt>
      <trkpt lat="41.239353027194738" lon="-3.700957009568811">
        <ele>1012.417</ele>
        <time>2021-07-10T09:40:08Z</time>
      </trkpt>
      <trkpt lat="41.239216988906264" lon="-3.700709994882345">
        <ele>1012.708</ele>
        <time>2021-07-10T09:40:09Z</time>
      </trkpt>
      <trkpt lat="41.238938961178064" lon="-3.700208002701402">
        <ele>1013.05</ele>
        <time>2021-07-10T09:40:11Z</time>
      </trkpt>
      <trkpt lat="41.238796971738338" lon="-3.699951013550162">
        <ele>1013.47</ele>
        <time>2021-07-10T09:40:12Z</time>
      </trkpt>
      <trkpt lat="41.238649031147361" lon="-3.699682960286737">
        <ele>1013.831</ele>
        <time>2021-07-10T09:40:13Z</time>
      </trkpt>
      <trkpt lat="41.238386007025838" lon="-3.699190020561218">
        <ele>1014.177</ele>
        <time>2021-07-10T09:40:15Z</time>
      </trkpt>
      <trkpt lat="41.23813102953136" lon="-3.698660032823682">
        <ele>1014.599</ele>
        <time>2021-07-10T09:40:17Z</time>
      </trkpt>
      <trkpt lat="41.237914022058249" lon="-3.698095008730888">
        <ele>1014.162</ele>
        <time>2021-07-10T09:40:19Z</time>
      </trkpt>
      <trkpt lat="41.237821988761425" lon="-3.697794014587998">
        <ele>1013.776</ele>
        <time>2021-07-10T09:40:20Z</time>
      </trkpt>
      <trkpt lat="41.237672958523035" lon="-3.697167970240116">
        <ele>1012.465</ele>
        <time>2021-07-10T09:40:22Z</time>
      </trkpt>
      <trkpt lat="41.237614033743739" lon="-3.696824982762337">
        <ele>1011.266</ele>
        <time>2021-07-10T09:40:23Z</time>
      </trkpt>
      <trkpt lat="41.237547984346747" lon="-3.696200028061867">
        <ele>1009.029</ele>
        <time>2021-07-10T09:40:25Z</time>
      </trkpt>
      <trkpt lat="41.23753298074007" lon="-3.695866009220481">
        <ele>1006.921</ele>
        <time>2021-07-10T09:40:26Z</time>
      </trkpt>
      <trkpt lat="41.23753298074007" lon="-3.695529978722334">
        <ele>1005.208</ele>
        <time>2021-07-10T09:40:27Z</time>
      </trkpt>
      <trkpt lat="41.237543961033225" lon="-3.695175005123019">
        <ele>1003.793</ele>
        <time>2021-07-10T09:40:28Z</time>
      </trkpt>
      <trkpt lat="41.237567011266947" lon="-3.694839980453253">
        <ele>1001.973</ele>
        <time>2021-07-10T09:40:29Z</time>
      </trkpt>
      <trkpt lat="41.237662984058261" lon="-3.694183006882668">
        <ele>1000.194</ele>
        <time>2021-07-10T09:40:31Z</time>
      </trkpt>
      <trkpt lat="41.237742025405169" lon="-3.693846976384521">
        <ele>998.38</ele>
        <time>2021-07-10T09:40:32Z</time>
      </trkpt>
      <trkpt lat="41.237949980422854" lon="-3.693174999207258">
        <ele>997.01199999999994</ele>
        <time>2021-07-10T09:40:34Z</time>
      </trkpt>
      <trkpt lat="41.238161036744714" lon="-3.692564964294434">
        <ele>995.79499999999996</ele>
        <time>2021-07-10T09:40:36Z</time>
      </trkpt>
      <trkpt lat="41.238334961235523" lon="-3.691900027915835">
        <ele>993.48900000000003</ele>
        <time>2021-07-10T09:40:38Z</time>
      </trkpt>
      <trkpt lat="41.238425988703966" lon="-3.69124598801136">
        <ele>990.96799999999996</ele>
        <time>2021-07-10T09:40:40Z</time>
      </trkpt>
      <trkpt lat="41.238437974825501" lon="-3.690895959734917">
        <ele>989.39099999999996</ele>
        <time>2021-07-10T09:40:41Z</time>
      </trkpt>
      <trkpt lat="41.23843596316874" lon="-3.690174026414752">
        <ele>988.18100000000004</ele>
        <time>2021-07-10T09:40:43Z</time>
      </trkpt>
      <trkpt lat="41.238436968997121" lon="-3.689471958205104">
        <ele>986.41899999999998</ele>
        <time>2021-07-10T09:40:45Z</time>
      </trkpt>
      <trkpt lat="41.238436968997121" lon="-3.688779026269913">
        <ele>984.40800000000002</ele>
        <time>2021-07-10T09:40:47Z</time>
      </trkpt>
      <trkpt lat="41.238437974825501" lon="-3.688433021306992">
        <ele>983.096</ele>
        <time>2021-07-10T09:40:48Z</time>
      </trkpt>
      <trkpt lat="41.238447027280927" lon="-3.688074024394155">
        <ele>982.38599999999997</ele>
        <time>2021-07-10T09:40:49Z</time>
      </trkpt>
      <trkpt lat="41.238509975373745" lon="-3.687435993924737">
        <ele>982.45699999999999</ele>
        <time>2021-07-10T09:40:51Z</time>
      </trkpt>
      <trkpt lat="41.238668980076909" lon="-3.686794023960829">
        <ele>983.23299999999995</ele>
        <time>2021-07-10T09:40:53Z</time>
      </trkpt>
      <trkpt lat="41.238785991445184" lon="-3.686484983190894">
        <ele>983.79499999999996</ele>
        <time>2021-07-10T09:40:54Z</time>
      </trkpt>
      <trkpt lat="41.239076005294919" lon="-3.685919959098101">
        <ele>985.56799999999998</ele>
        <time>2021-07-10T09:40:56Z</time>
      </trkpt>
      <trkpt lat="41.23922998085618" lon="-3.685645032674074">
        <ele>987.53200000000004</ele>
        <time>2021-07-10T09:40:57Z</time>
      </trkpt>
      <trkpt lat="41.239373981952667" lon="-3.685365999117494">
        <ele>989.46100000000001</ele>
        <time>2021-07-10T09:40:58Z</time>
      </trkpt>
      <trkpt lat="41.239509014412761" lon="-3.685060981661081">
        <ele>990.86900000000003</ele>
        <time>2021-07-10T09:40:59Z</time>
      </trkpt>
      <trkpt lat="41.239698026329279" lon="-3.684473996981978">
        <ele>992.50400000000002</ele>
        <time>2021-07-10T09:41:01Z</time>
      </trkpt>
      <trkpt lat="41.239819983020425" lon="-3.683829009532929">
        <ele>995.32399999999996</ele>
        <time>2021-07-10T09:41:03Z</time>
      </trkpt>
      <trkpt lat="41.239853007718921" lon="-3.683485016226769">
        <ele>997.30799999999999</ele>
        <time>2021-07-10T09:41:04Z</time>
      </trkpt>
      <trkpt lat="41.239849990233779" lon="-3.682848997414112">
        <ele>999.88300000000004</ele>
        <time>2021-07-10T09:41:06Z</time>
      </trkpt>
      <trkpt lat="41.239817971363664" lon="-3.682519001886249">
        <ele>1001.713</ele>
        <time>2021-07-10T09:41:07Z</time>
      </trkpt>
      <trkpt lat="41.239766003564" lon="-3.682195041328669">
        <ele>1003.244</ele>
        <time>2021-07-10T09:41:08Z</time>
      </trkpt>
      <trkpt lat="41.23961303383112" lon="-3.68157503195107">
        <ele>1004.86</ele>
        <time>2021-07-10T09:41:10Z</time>
      </trkpt>
      <trkpt lat="41.239510020241141" lon="-3.681263979524374">
        <ele>1005.6420000000001</ele>
        <time>2021-07-10T09:41:11Z</time>
      </trkpt>
      <trkpt lat="41.239294018596411" lon="-3.680643970146775">
        <ele>1007.225</ele>
        <time>2021-07-10T09:41:13Z</time>
      </trkpt>
      <trkpt lat="41.239182036370039" lon="-3.680311962962151">
        <ele>1008.559</ele>
        <time>2021-07-10T09:41:14Z</time>
      </trkpt>
      <trkpt lat="41.238979026675224" lon="-3.679696982726455">
        <ele>1009.678</ele>
        <time>2021-07-10T09:41:16Z</time>
      </trkpt>
      <trkpt lat="41.238874001428485" lon="-3.679379979148507">
        <ele>1010.676</ele>
        <time>2021-07-10T09:41:17Z</time>
      </trkpt>
      <trkpt lat="41.238660011440516" lon="-3.678729962557554">
        <ele>1012.1900000000001</ele>
        <time>2021-07-10T09:41:19Z</time>
      </trkpt>
      <trkpt lat="41.238555992022157" lon="-3.678414970636368">
        <ele>1013.119</ele>
        <time>2021-07-10T09:41:20Z</time>
      </trkpt>
      <trkpt lat="41.238351976498961" lon="-3.677789010107517">
        <ele>1014.008</ele>
        <time>2021-07-10T09:41:22Z</time>
      </trkpt>
      <trkpt lat="41.238245023414493" lon="-3.677462032064796">
        <ele>1015.174</ele>
        <time>2021-07-10T09:41:23Z</time>
      </trkpt>
      <trkpt lat="41.238030027598143" lon="-3.67680799216032">
        <ele>1016.2140000000001</ele>
        <time>2021-07-10T09:41:25Z</time>
      </trkpt>
      <trkpt lat="41.23791703954339" lon="-3.676459975540638">
        <ele>1017.1950000000001</ele>
        <time>2021-07-10T09:41:26Z</time>
      </trkpt>
      <trkpt lat="41.237707994878292" lon="-3.675808031111956">
        <ele>1018.261</ele>
        <time>2021-07-10T09:41:28Z</time>
      </trkpt>
      <trkpt lat="41.237500039860606" lon="-3.675139993429184">
        <ele>1019.933</ele>
        <time>2021-07-10T09:41:30Z</time>
      </trkpt>
      <trkpt lat="41.237314967438579" lon="-3.674517972394824">
        <ele>1020.796</ele>
        <time>2021-07-10T09:41:32Z</time>
      </trkpt>
      <trkpt lat="41.237130984663963" lon="-3.673903997987509">
        <ele>1022.04</ele>
        <time>2021-07-10T09:41:34Z</time>
      </trkpt>
      <trkpt lat="41.237034006044269" lon="-3.673579031601548">
        <ele>1022.859</ele>
        <time>2021-07-10T09:41:35Z</time>
      </trkpt>
      <trkpt lat="41.23684398829937" lon="-3.672958016395569">
        <ele>1023.4690000000001</ele>
        <time>2021-07-10T09:41:37Z</time>
      </trkpt>
      <trkpt lat="41.236633015796542" lon="-3.672286039218307">
        <ele>1023.604</ele>
        <time>2021-07-10T09:41:39Z</time>
      </trkpt>
      <trkpt lat="41.236518016085029" lon="-3.671915978193283">
        <ele>1023.824</ele>
        <time>2021-07-10T09:41:40Z</time>
      </trkpt>
      <trkpt lat="41.236296985298395" lon="-3.671223968267441">
        <ele>1023.508</ele>
        <time>2021-07-10T09:41:42Z</time>
      </trkpt>
      <trkpt lat="41.236065980046988" lon="-3.670482002198696">
        <ele>1023.133</ele>
        <time>2021-07-10T09:41:44Z</time>
      </trkpt>
      <trkpt lat="41.235944023355842" lon="-3.670086963102222">
        <ele>1022.823</ele>
        <time>2021-07-10T09:41:45Z</time>
      </trkpt>
      <trkpt lat="41.235825000330806" lon="-3.669704999774694">
        <ele>1022.614</ele>
        <time>2021-07-10T09:41:46Z</time>
      </trkpt>
      <trkpt lat="41.235595000907779" lon="-3.668967979028821">
        <ele>1022.41</ele>
        <time>2021-07-10T09:41:48Z</time>
      </trkpt>
      <trkpt lat="41.235346980392933" lon="-3.66816901601851">
        <ele>1022.292</ele>
        <time>2021-07-10T09:41:50Z</time>
      </trkpt>
      <trkpt lat="41.235111029818654" lon="-3.667411962524056">
        <ele>1022.115</ele>
        <time>2021-07-10T09:41:52Z</time>
      </trkpt>
      <trkpt lat="41.234987983480096" lon="-3.667019018903375">
        <ele>1021.899</ele>
        <time>2021-07-10T09:41:53Z</time>
      </trkpt>
      <trkpt lat="41.234734011813998" lon="-3.666208991780877">
        <ele>1021.298</ele>
        <time>2021-07-10T09:41:55Z</time>
      </trkpt>
      <trkpt lat="41.234611971303821" lon="-3.665818981826305">
        <ele>1021.247</ele>
        <time>2021-07-10T09:41:56Z</time>
      </trkpt>
      <trkpt lat="41.234378032386303" lon="-3.665061006322503">
        <ele>1021.429</ele>
        <time>2021-07-10T09:41:58Z</time>
      </trkpt>
      <trkpt lat="41.234134035184979" lon="-3.664276041090488">
        <ele>1021.121</ele>
        <time>2021-07-10T09:42:00Z</time>
      </trkpt>
      <trkpt lat="41.234006965532899" lon="-3.663870021700859">
        <ele>1021.208</ele>
        <time>2021-07-10T09:42:01Z</time>
      </trkpt>
      <trkpt lat="41.233769003301859" lon="-3.663114979863167">
        <ele>1021.0309999999999</ele>
        <time>2021-07-10T09:42:03Z</time>
      </trkpt>
      <trkpt lat="41.233646040782332" lon="-3.662726981565356">
        <ele>1021.251</ele>
        <time>2021-07-10T09:42:04Z</time>
      </trkpt>
      <trkpt lat="41.23351201415062" lon="-3.662321968004108">
        <ele>1020.452</ele>
        <time>2021-07-10T09:42:05Z</time>
      </trkpt>
      <trkpt lat="41.23327698558569" lon="-3.661587964743376">
        <ele>1020.328</ele>
        <time>2021-07-10T09:42:07Z</time>
      </trkpt>
      <trkpt lat="41.23304002918303" lon="-3.660824038088322">
        <ele>1019.9400000000001</ele>
        <time>2021-07-10T09:42:09Z</time>
      </trkpt>
      <trkpt lat="41.232918994501233" lon="-3.660435033962131">
        <ele>1019.473</ele>
        <time>2021-07-10T09:42:10Z</time>
      </trkpt>
      <trkpt lat="41.232798965647817" lon="-3.660048963502049">
        <ele>1018.977</ele>
        <time>2021-07-10T09:42:11Z</time>
      </trkpt>
      <trkpt lat="41.232573995366693" lon="-3.659324012696743">
        <ele>1018.466</ele>
        <time>2021-07-10T09:42:13Z</time>
      </trkpt>
      <trkpt lat="41.232346007600427" lon="-3.658595960587263">
        <ele>1018.0410000000001</ele>
        <time>2021-07-10T09:42:15Z</time>
      </trkpt>
      <trkpt lat="41.232233019545674" lon="-3.658236041665077">
        <ele>1017.681</ele>
        <time>2021-07-10T09:42:16Z</time>
      </trkpt>
      <trkpt lat="41.232121037319303" lon="-3.657881990075111">
        <ele>1017.609</ele>
        <time>2021-07-10T09:42:17Z</time>
      </trkpt>
      <trkpt lat="41.232007965445518" lon="-3.657526010647416">
        <ele>1017.708</ele>
        <time>2021-07-10T09:42:18Z</time>
      </trkpt>
      <trkpt lat="41.231793975457549" lon="-3.656855961307883">
        <ele>1017.451</ele>
        <time>2021-07-10T09:42:20Z</time>
      </trkpt>
      <trkpt lat="41.231678975746036" lon="-3.656510040163994">
        <ele>1017.431</ele>
        <time>2021-07-10T09:42:21Z</time>
      </trkpt>
      <trkpt lat="41.231464985758066" lon="-3.655877038836479">
        <ele>1014.812</ele>
        <time>2021-07-10T09:42:23Z</time>
      </trkpt>
      <trkpt lat="41.231359960511327" lon="-3.655548971146345">
        <ele>1013.518</ele>
        <time>2021-07-10T09:42:24Z</time>
      </trkpt>
      <trkpt lat="41.231258036568761" lon="-3.655224004760385">
        <ele>1012.49</ele>
        <time>2021-07-10T09:42:25Z</time>
      </trkpt>
      <trkpt lat="41.23115099966526" lon="-3.654884034767747">
        <ele>1011.563</ele>
        <time>2021-07-10T09:42:26Z</time>
      </trkpt>
      <trkpt lat="41.230961987748742" lon="-3.654287997633219">
        <ele>1010.057</ele>
        <time>2021-07-10T09:42:28Z</time>
      </trkpt>
      <trkpt lat="41.230778004974127" lon="-3.653707969933748">
        <ele>1009.576</ele>
        <time>2021-07-10T09:42:30Z</time>
      </trkpt>
      <trkpt lat="41.230683038011193" lon="-3.653400018811226">
        <ele>1008.946</ele>
        <time>2021-07-10T09:42:31Z</time>
      </trkpt>
      <trkpt lat="41.230521015822887" lon="-3.652843041345477">
        <ele>1009.188</ele>
        <time>2021-07-10T09:42:33Z</time>
      </trkpt>
      <trkpt lat="41.230370979756117" lon="-3.652264019474387">
        <ele>1008.4160000000001</ele>
        <time>2021-07-10T09:42:35Z</time>
      </trkpt>
      <trkpt lat="41.230307025834918" lon="-3.651952967047691">
        <ele>1007.408</ele>
        <time>2021-07-10T09:42:36Z</time>
      </trkpt>
      <trkpt lat="41.230258997529745" lon="-3.651382997632027">
        <ele>1006.6609999999999</ele>
        <time>2021-07-10T09:42:38Z</time>
      </trkpt>
      <trkpt lat="41.230268971994519" lon="-3.651088960468769">
        <ele>1005.991</ele>
        <time>2021-07-10T09:42:39Z</time>
      </trkpt>
      <trkpt lat="41.230324041098356" lon="-3.650499964132905">
        <ele>1005.982</ele>
        <time>2021-07-10T09:42:41Z</time>
      </trkpt>
      <trkpt lat="41.230357987806201" lon="-3.650222020223737">
        <ele>1005.818</ele>
        <time>2021-07-10T09:42:42Z</time>
      </trkpt>
      <trkpt lat="41.230423031374812" lon="-3.649666970595717">
        <ele>1005.13</ele>
        <time>2021-07-10T09:42:44Z</time>
      </trkpt>
      <trkpt lat="41.230457983911037" lon="-3.649364970624447">
        <ele>1004.423</ele>
        <time>2021-07-10T09:42:45Z</time>
      </trkpt>
      <trkpt lat="41.230494026094675" lon="-3.649038998410106">
        <ele>1003.727</ele>
        <time>2021-07-10T09:42:46Z</time>
      </trkpt>
      <trkpt lat="41.23052797280252" lon="-3.648733980953693">
        <ele>1003.246</ele>
        <time>2021-07-10T09:42:47Z</time>
      </trkpt>
      <trkpt lat="41.230595028027892" lon="-3.648134004324675">
        <ele>1001.941</ele>
        <time>2021-07-10T09:42:49Z</time>
      </trkpt>
      <trkpt lat="41.230667028576136" lon="-3.647507959976792">
        <ele>1000.181</ele>
        <time>2021-07-10T09:42:51Z</time>
      </trkpt>
      <trkpt lat="41.230703992769122" lon="-3.647189028561115">
        <ele>998.30899999999997</ele>
        <time>2021-07-10T09:42:52Z</time>
      </trkpt>
      <trkpt lat="41.230766018852592" lon="-3.646599026396871">
        <ele>996.80799999999999</ele>
        <time>2021-07-10T09:42:54Z</time>
      </trkpt>
      <trkpt lat="41.230801977217197" lon="-3.646289985626936">
        <ele>995.56100000000004</ele>
        <time>2021-07-10T09:42:55Z</time>
      </trkpt>
      <trkpt lat="41.230836007744074" lon="-3.645985973998904">
        <ele>995.37099999999998</ele>
        <time>2021-07-10T09:42:56Z</time>
      </trkpt>
      <trkpt lat="41.230868026614189" lon="-3.645667964592576">
        <ele>994.952</ele>
        <time>2021-07-10T09:42:57Z</time>
      </trkpt>
      <trkpt lat="41.230879006907344" lon="-3.645097995176911">
        <ele>994.44799999999998</ele>
        <time>2021-07-10T09:42:59Z</time>
      </trkpt>
      <trkpt lat="41.230823015794158" lon="-3.644526014104486">
        <ele>993.64999999999998</ele>
        <time>2021-07-10T09:43:01Z</time>
      </trkpt>
      <trkpt lat="41.230768030509353" lon="-3.644238011911511">
        <ele>993.15300000000002</ele>
        <time>2021-07-10T09:43:02Z</time>
      </trkpt>
      <trkpt lat="41.230638027191162" lon="-3.643740965053439">
        <ele>992.54700000000003</ele>
        <time>2021-07-10T09:43:04Z</time>
      </trkpt>
      <trkpt lat="41.230504000559449" lon="-3.643238972872496">
        <ele>991.82600000000002</ele>
        <time>2021-07-10T09:43:06Z</time>
      </trkpt>
      <trkpt lat="41.230371985584497" lon="-3.642727006226778">
        <ele>990.54100000000005</ele>
        <time>2021-07-10T09:43:08Z</time>
      </trkpt>
      <trkpt lat="41.230305014178157" lon="-3.642462976276875">
        <ele>989.58100000000002</ele>
        <time>2021-07-10T09:43:09Z</time>
      </trkpt>
      <trkpt lat="41.230165958404541" lon="-3.641913961619139">
        <ele>988.20899999999995</ele>
        <time>2021-07-10T09:43:11Z</time>
      </trkpt>
      <trkpt lat="41.230094041675329" lon="-3.641629982739687">
        <ele>987.10799999999995</ele>
        <time>2021-07-10T09:43:12Z</time>
      </trkpt>
      <trkpt lat="41.230021035298705" lon="-3.641338963061571">
        <ele>985.99099999999999</ele>
        <time>2021-07-10T09:43:13Z</time>
      </trkpt>
      <trkpt lat="41.229942999780178" lon="-3.641024976968765">
        <ele>984.84100000000001</ele>
        <time>2021-07-10T09:43:14Z</time>
      </trkpt>
      <trkpt lat="41.229798998683691" lon="-3.640442015603185">
        <ele>984.452</ele>
        <time>2021-07-10T09:43:16Z</time>
      </trkpt>
      <trkpt lat="41.229640999808908" lon="-3.63980901427567">
        <ele>983.87800000000004</ele>
        <time>2021-07-10T09:43:18Z</time>
      </trkpt>
      <trkpt lat="41.229486018419266" lon="-3.639187999069691">
        <ele>983.75</ele>
        <time>2021-07-10T09:43:20Z</time>
      </trkpt>
      <trkpt lat="41.229330031201243" lon="-3.638566983863711">
        <ele>983.48299999999995</ele>
        <time>2021-07-10T09:43:22Z</time>
      </trkpt>
      <trkpt lat="41.229178989306092" lon="-3.637958960607648">
        <ele>983.86699999999996</ele>
        <time>2021-07-10T09:43:24Z</time>
      </trkpt>
      <trkpt lat="41.229101959615946" lon="-3.637650003656745">
        <ele>984.11599999999999</ele>
        <time>2021-07-10T09:43:25Z</time>
      </trkpt>
      <trkpt lat="41.228948989883065" lon="-3.637054972350597">
        <ele>985.13099999999997</ele>
        <time>2021-07-10T09:43:27Z</time>
      </trkpt>
      <trkpt lat="41.228875983506441" lon="-3.636761019006372">
        <ele>985.96100000000001</ele>
        <time>2021-07-10T09:43:28Z</time>
      </trkpt>
      <trkpt lat="41.228801971301436" lon="-3.636459019035101">
        <ele>987.10699999999997</ele>
        <time>2021-07-10T09:43:29Z</time>
      </trkpt>
      <trkpt lat="41.228660987690091" lon="-3.635882008820772">
        <ele>988.10799999999995</ele>
        <time>2021-07-10T09:43:31Z</time>
      </trkpt>
      <trkpt lat="41.228520004078746" lon="-3.635301981121302">
        <ele>989.69000000000005</ele>
        <time>2021-07-10T09:43:33Z</time>
      </trkpt>
      <trkpt lat="41.228381032124162" lon="-3.634714996442199">
        <ele>990.50999999999999</ele>
        <time>2021-07-10T09:43:35Z</time>
      </trkpt>
      <trkpt lat="41.228307019919157" lon="-3.634417019784451">
        <ele>991.06100000000004</ele>
        <time>2021-07-10T09:43:36Z</time>
      </trkpt>
      <trkpt lat="41.228153966367245" lon="-3.633808996528387">
        <ele>992.18700000000001</ele>
        <time>2021-07-10T09:43:38Z</time>
      </trkpt>
      <trkpt lat="41.22807702049613" lon="-3.633499033749104">
        <ele>992.59900000000005</ele>
        <time>2021-07-10T09:43:39Z</time>
      </trkpt>
      <trkpt lat="41.227997979149222" lon="-3.633186975494027">
        <ele>992.98199999999997</ele>
        <time>2021-07-10T09:43:40Z</time>
      </trkpt>
      <trkpt lat="41.227920027449727" lon="-3.632876006886363">
        <ele>993.32600000000002</ele>
        <time>2021-07-10T09:43:41Z</time>
      </trkpt>
      <trkpt lat="41.227842997759581" lon="-3.632573001086712">
        <ele>993.52499999999998</ele>
        <time>2021-07-10T09:43:42Z</time>
      </trkpt>
      <trkpt lat="41.227693967521191" lon="-3.631980987265706">
        <ele>994.14300000000003</ele>
        <time>2021-07-10T09:43:44Z</time>
      </trkpt>
      <trkpt lat="41.227550972253084" lon="-3.631395008414984">
        <ele>994.66399999999999</ele>
        <time>2021-07-10T09:43:46Z</time>
      </trkpt>
      <trkpt lat="41.227413006126881" lon="-3.6308070179075">
        <ele>995.40999999999997</ele>
        <time>2021-07-10T09:43:48Z</time>
      </trkpt>
      <trkpt lat="41.227334970608354" lon="-3.630494959652424">
        <ele>995.80799999999999</ele>
        <time>2021-07-10T09:43:49Z</time>
      </trkpt>
      <trkpt lat="41.227177977561951" lon="-3.62990403547883">
        <ele>996.53099999999995</ele>
        <time>2021-07-10T09:43:51Z</time>
      </trkpt>
      <trkpt lat="41.227097008377314" lon="-3.629594994708896">
        <ele>997.01099999999997</ele>
        <time>2021-07-10T09:43:52Z</time>
      </trkpt>
      <trkpt lat="41.22693800367415" lon="-3.628952018916607">
        <ele>997.63199999999995</ele>
        <time>2021-07-10T09:43:54Z</time>
      </trkpt>
      <trkpt lat="41.226861979812384" lon="-3.628643983975053">
        <ele>998.28800000000001</ele>
        <time>2021-07-10T09:43:55Z</time>
      </trkpt>
      <trkpt lat="41.226706998422742" lon="-3.628032021224499">
        <ele>998.63999999999999</ele>
        <time>2021-07-10T09:43:57Z</time>
      </trkpt>
      <trkpt lat="41.226627035066485" lon="-3.627712000161409">
        <ele>999.09299999999996</ele>
        <time>2021-07-10T09:43:58Z</time>
      </trkpt>
      <trkpt lat="41.226540030911565" lon="-3.627364989370108">
        <ele>999.53700000000003</ele>
        <time>2021-07-10T09:43:59Z</time>
      </trkpt>
      <trkpt lat="41.226381026208401" lon="-3.626735005527735">
        <ele>1000.146</ele>
        <time>2021-07-10T09:44:01Z</time>
      </trkpt>
      <trkpt lat="41.226297039538622" lon="-3.626397969201207">
        <ele>1000.393</ele>
        <time>2021-07-10T09:44:02Z</time>
      </trkpt>
      <trkpt lat="41.226125964894891" lon="-3.625724986195564">
        <ele>1000.465</ele>
        <time>2021-07-10T09:44:04Z</time>
      </trkpt>
      <trkpt lat="41.226039966568351" lon="-3.625385016202927">
        <ele>1000.521</ele>
        <time>2021-07-10T09:44:05Z</time>
      </trkpt>
      <trkpt lat="41.225875010713935" lon="-3.62472896464169">
        <ele>1000.708</ele>
        <time>2021-07-10T09:44:07Z</time>
      </trkpt>
      <trkpt lat="41.225706031545997" lon="-3.624051036313176">
        <ele>1001.046</ele>
        <time>2021-07-10T09:44:09Z</time>
      </trkpt>
      <trkpt lat="41.225535040721297" lon="-3.623364977538586">
        <ele>1001.516</ele>
        <time>2021-07-10T09:44:11Z</time>
      </trkpt>
      <trkpt lat="41.225448036566377" lon="-3.623017966747284">
        <ele>1002.127</ele>
        <time>2021-07-10T09:44:12Z</time>
      </trkpt>
      <trkpt lat="41.225270004943013" lon="-3.622325034812093">
        <ele>1002.4930000000001</ele>
        <time>2021-07-10T09:44:14Z</time>
      </trkpt>
      <trkpt lat="41.225097002461553" lon="-3.621633024886251">
        <ele>1003.015</ele>
        <time>2021-07-10T09:44:16Z</time>
      </trkpt>
      <trkpt lat="41.224930034950376" lon="-3.620965993031859">
        <ele>1003.898</ele>
        <time>2021-07-10T09:44:18Z</time>
      </trkpt>
      <trkpt lat="41.224847976118326" lon="-3.620639014989138">
        <ele>1004.332</ele>
        <time>2021-07-10T09:44:19Z</time>
      </trkpt>
      <trkpt lat="41.224764995276928" lon="-3.620312958955765">
        <ele>1004.971</ele>
        <time>2021-07-10T09:44:20Z</time>
      </trkpt>
      <trkpt lat="41.224613031372428" lon="-3.619727985933423">
        <ele>1005.549</ele>
        <time>2021-07-10T09:44:22Z</time>
      </trkpt>
      <trkpt lat="41.224464001134038" lon="-3.619137983769178">
        <ele>1006.502</ele>
        <time>2021-07-10T09:44:24Z</time>
      </trkpt>
      <trkpt lat="41.224389988929033" lon="-3.618843024596572">
        <ele>1007.022</ele>
        <time>2021-07-10T09:44:25Z</time>
      </trkpt>
      <trkpt lat="41.224247999489307" lon="-3.61825997941196">
        <ele>1007.708</ele>
        <time>2021-07-10T09:44:27Z</time>
      </trkpt>
      <trkpt lat="41.224108021706343" lon="-3.617697972804308">
        <ele>1009.171</ele>
        <time>2021-07-10T09:44:29Z</time>
      </trkpt>
      <trkpt lat="41.224039038643241" lon="-3.617425980046392">
        <ele>1009.941</ele>
        <time>2021-07-10T09:44:30Z</time>
      </trkpt>
      <trkpt lat="41.223970977589488" lon="-3.617160022258759">
        <ele>1010.732</ele>
        <time>2021-07-10T09:44:31Z</time>
      </trkpt>
      <trkpt lat="41.223901994526386" lon="-3.616899009793997">
        <ele>1010.668</ele>
        <time>2021-07-10T09:44:32Z</time>
      </trkpt>
      <trkpt lat="41.223837034776807" lon="-3.616637997329235">
        <ele>1010.48</ele>
        <time>2021-07-10T09:44:33Z</time>
      </trkpt>
      <trkpt lat="41.223685992881656" lon="-3.616109015420079">
        <ele>1009.893</ele>
        <time>2021-07-10T09:44:35Z</time>
      </trkpt>
      <trkpt lat="41.223519025370479" lon="-3.615640969946981">
        <ele>1009.047</ele>
        <time>2021-07-10T09:44:37Z</time>
      </trkpt>
      <trkpt lat="41.223426992073655" lon="-3.615411976352334">
        <ele>1008.216</ele>
        <time>2021-07-10T09:44:38Z</time>
      </trkpt>
      <trkpt lat="41.223239991813898" lon="-3.614976033568382">
        <ele>1007.726</ele>
        <time>2021-07-10T09:44:40Z</time>
      </trkpt>
      <trkpt lat="41.223065983504057" lon="-3.614630028605461">
        <ele>1007.647</ele>
        <time>2021-07-10T09:44:42Z</time>
      </trkpt>
      <trkpt lat="41.22298501431942" lon="-3.614475969225168">
        <ele>1007.211</ele>
        <time>2021-07-10T09:44:43Z</time>
      </trkpt>
      <trkpt lat="41.22292298823595" lon="-3.614344960078597">
        <ele>1006.808</ele>
        <time>2021-07-10T09:44:44Z</time>
      </trkpt>
      <trkpt lat="41.222876971587539" lon="-3.614237001165748">
        <ele>1006.919</ele>
        <time>2021-07-10T09:44:45Z</time>
      </trkpt>
      <trkpt lat="41.222842019051313" lon="-3.614147985354066">
        <ele>1006.739</ele>
        <time>2021-07-10T09:44:46Z</time>
      </trkpt>
      <trkpt lat="41.222778987139463" lon="-3.614028040319681">
        <ele>1006.66</ele>
        <time>2021-07-10T09:44:48Z</time>
      </trkpt>
      <trkpt lat="41.222730036824942" lon="-3.613980012014508">
        <ele>1006.886</ele>
        <time>2021-07-10T09:44:49Z</time>
      </trkpt>
      <trkpt lat="41.222668010741472" lon="-3.613941036164761">
        <ele>1006.478</ele>
        <time>2021-07-10T09:44:50Z</time>
      </trkpt>
      <trkpt lat="41.222584024071693" lon="-3.613838022574782">
        <ele>1006.511</ele>
        <time>2021-07-10T09:44:52Z</time>
      </trkpt>
      <trkpt lat="41.222573965787888" lon="-3.613757975399494">
        <ele>1006.765</ele>
        <time>2021-07-10T09:44:53Z</time>
      </trkpt>
      <trkpt lat="41.222575977444649" lon="-3.613622020930052">
        <ele>1005.874</ele>
        <time>2021-07-10T09:44:55Z</time>
      </trkpt>
      <trkpt lat="41.2225560285151" lon="-3.613518001511693">
        <ele>1005.663</ele>
        <time>2021-07-10T09:44:57Z</time>
      </trkpt>
      <trkpt lat="41.222485033795238" lon="-3.613341981545091">
        <ele>1005.744</ele>
        <time>2021-07-10T09:44:59Z</time>
      </trkpt>
      <trkpt lat="41.222433988004923" lon="-3.613223964348435">
        <ele>1005.6180000000001</ele>
        <time>2021-07-10T09:45:00Z</time>
      </trkpt>
      <trkpt lat="41.222323011606932" lon="-3.612935040146112">
        <ele>1005.908</ele>
        <time>2021-07-10T09:45:02Z</time>
      </trkpt>
      <trkpt lat="41.222264003008604" lon="-3.612766982987523">
        <ele>1006.293</ele>
        <time>2021-07-10T09:45:03Z</time>
      </trkpt>
      <trkpt lat="41.222124025225639" lon="-3.612397005781531">
        <ele>1006.593</ele>
        <time>2021-07-10T09:45:05Z</time>
      </trkpt>
      <trkpt lat="41.222040038555861" lon="-3.612189972773194">
        <ele>1006.644</ele>
        <time>2021-07-10T09:45:06Z</time>
      </trkpt>
      <trkpt lat="41.221870975568891" lon="-3.61179200001061">
        <ele>1006.0599999999999</ele>
        <time>2021-07-10T09:45:08Z</time>
      </trkpt>
      <trkpt lat="41.221780031919479" lon="-3.611573986709118">
        <ele>1005.922</ele>
        <time>2021-07-10T09:45:09Z</time>
      </trkpt>
      <trkpt lat="41.221593031659722" lon="-3.611125973984599">
        <ele>1005.965</ele>
        <time>2021-07-10T09:45:11Z</time>
      </trkpt>
      <trkpt lat="41.221404019743204" lon="-3.610664969310165">
        <ele>1006.389</ele>
        <time>2021-07-10T09:45:13Z</time>
      </trkpt>
      <trkpt lat="41.221307041123509" lon="-3.610432036221027">
        <ele>1006.898</ele>
        <time>2021-07-10T09:45:14Z</time>
      </trkpt>
      <trkpt lat="41.221212996169925" lon="-3.610192984342575">
        <ele>1006.9690000000001</ele>
        <time>2021-07-10T09:45:15Z</time>
      </trkpt>
      <trkpt lat="41.221032030880451" lon="-3.609701972454786">
        <ele>1007.404</ele>
        <time>2021-07-10T09:45:17Z</time>
      </trkpt>
      <trkpt lat="41.220857016742229" lon="-3.609181037172675">
        <ele>1007.524</ele>
        <time>2021-07-10T09:45:19Z</time>
      </trkpt>
      <trkpt lat="41.220773030072451" lon="-3.608902003616095">
        <ele>1008.6079999999999</ele>
        <time>2021-07-10T09:45:20Z</time>
      </trkpt>
      <trkpt lat="41.220620982348919" lon="-3.608314013108611">
        <ele>1008.6130000000001</ele>
        <time>2021-07-10T09:45:22Z</time>
      </trkpt>
      <trkpt lat="41.220553005114198" lon="-3.608003966510296">
        <ele>1008.893</ele>
        <time>2021-07-10T09:45:23Z</time>
      </trkpt>
      <trkpt lat="41.220427025109529" lon="-3.607384040951729">
        <ele>1008.564</ele>
        <time>2021-07-10T09:45:25Z</time>
      </trkpt>
      <trkpt lat="41.22032199986279" lon="-3.606747016310692">
        <ele>1009.4400000000001</ele>
        <time>2021-07-10T09:45:27Z</time>
      </trkpt>
      <trkpt lat="41.220282018184662" lon="-3.606420960277319">
        <ele>1010.162</ele>
        <time>2021-07-10T09:45:28Z</time>
      </trkpt>
      <trkpt lat="41.220251005142927" lon="-3.606095993891358">
        <ele>1010.415</ele>
        <time>2021-07-10T09:45:29Z</time>
      </trkpt>
      <trkpt lat="41.220196019858122" lon="-3.605440026149154">
        <ele>1010.899</ele>
        <time>2021-07-10T09:45:31Z</time>
      </trkpt>
      <trkpt lat="41.220171041786671" lon="-3.60510902479291">
        <ele>1011.328</ele>
        <time>2021-07-10T09:45:32Z</time>
      </trkpt>
      <trkpt lat="41.220118990167975" lon="-3.60444501042366">
        <ele>1011.955</ele>
        <time>2021-07-10T09:45:34Z</time>
      </trkpt>
      <trkpt lat="41.22008596546948" lon="-3.604107974097133">
        <ele>1012.5069999999999</ele>
        <time>2021-07-10T09:45:35Z</time>
      </trkpt>
      <trkpt lat="41.2200210057199" lon="-3.603439014405012">
        <ele>1013.317</ele>
        <time>2021-07-10T09:45:37Z</time>
      </trkpt>
      <trkpt lat="41.219993010163307" lon="-3.603107007220388">
        <ele>1013.6079999999999</ele>
        <time>2021-07-10T09:45:38Z</time>
      </trkpt>
      <trkpt lat="41.219928972423077" lon="-3.602442992851138">
        <ele>1013.962</ele>
        <time>2021-07-10T09:45:40Z</time>
      </trkpt>
      <trkpt lat="41.219897959381342" lon="-3.602109979838133">
        <ele>1014.212</ele>
        <time>2021-07-10T09:45:41Z</time>
      </trkpt>
      <trkpt lat="41.2198690418154" lon="-3.60175802372396">
        <ele>1014.323</ele>
        <time>2021-07-10T09:45:42Z</time>
      </trkpt>
      <trkpt lat="41.219814978539944" lon="-3.601124016568065">
        <ele>1014.819</ele>
        <time>2021-07-10T09:45:44Z</time>
      </trkpt>
      <trkpt lat="41.219782959669828" lon="-3.600793015211821">
        <ele>1014.821</ele>
        <time>2021-07-10T09:45:45Z</time>
      </trkpt>
      <trkpt lat="41.219721017405391" lon="-3.600117014721036">
        <ele>1015.034</ele>
        <time>2021-07-10T09:45:47Z</time>
      </trkpt>
      <trkpt lat="41.219665026292205" lon="-3.59948200173676">
        <ele>1015.898</ele>
        <time>2021-07-10T09:45:49Z</time>
      </trkpt>
      <trkpt lat="41.219606017693877" lon="-3.598840031772852">
        <ele>1016.597</ele>
        <time>2021-07-10T09:45:51Z</time>
      </trkpt>
      <trkpt lat="41.219575004652143" lon="-3.598510958254337">
        <ele>1017.116</ele>
        <time>2021-07-10T09:45:52Z</time>
      </trkpt>
      <trkpt lat="41.219515996053815" lon="-3.59789002686739">
        <ele>1018.276</ele>
        <time>2021-07-10T09:45:54Z</time>
      </trkpt>
      <trkpt lat="41.21948498301208" lon="-3.597579980269074">
        <ele>1018.513</ele>
        <time>2021-07-10T09:45:55Z</time>
      </trkpt>
      <trkpt lat="41.219458999112248" lon="-3.597272029146552">
        <ele>1018.908</ele>
        <time>2021-07-10T09:45:56Z</time>
      </trkpt>
      <trkpt lat="41.219408037140965" lon="-3.596692001447082">
        <ele>1019.468</ele>
        <time>2021-07-10T09:45:58Z</time>
      </trkpt>
      <trkpt lat="41.219381969422102" lon="-3.596407016739249">
        <ele>1019.928</ele>
        <time>2021-07-10T09:45:59Z</time>
      </trkpt>
      <trkpt lat="41.21933301910758" lon="-3.595877029001713">
        <ele>1019.549</ele>
        <time>2021-07-10T09:46:01Z</time>
      </trkpt>
      <trkpt lat="41.219307035207748" lon="-3.595620039850473">
        <ele>1020.095</ele>
        <time>2021-07-10T09:46:02Z</time>
      </trkpt>
      <trkpt lat="41.219281973317266" lon="-3.595374030992389">
        <ele>1020.327</ele>
        <time>2021-07-10T09:46:03Z</time>
      </trkpt>
      <trkpt lat="41.219255989417434" lon="-3.595121987164021">
        <ele>1021.03</ele>
        <time>2021-07-10T09:46:04Z</time>
      </trkpt>
      <trkpt lat="41.219210978597403" lon="-3.594701969996095">
        <ele>1022.644</ele>
        <time>2021-07-10T09:46:06Z</time>
      </trkpt>
      <trkpt lat="41.219193041324615" lon="-3.594504995271564">
        <ele>1023.573</ele>
        <time>2021-07-10T09:46:07Z</time>
      </trkpt>
      <trkpt lat="41.219176026061177" lon="-3.594328975304961">
        <ele>1024.287</ele>
        <time>2021-07-10T09:46:08Z</time>
      </trkpt>
      <trkpt lat="41.2191610224545" lon="-3.594166031107307">
        <ele>1025.3420000000001</ele>
        <time>2021-07-10T09:46:09Z</time>
      </trkpt>
      <trkpt lat="41.219137972220778" lon="-3.593922033905983">
        <ele>1025.9259999999999</ele>
        <time>2021-07-10T09:46:11Z</time>
      </trkpt>
      <trkpt lat="41.219121040776372" lon="-3.593728998675942">
        <ele>1026.4079999999999</ele>
        <time>2021-07-10T09:46:13Z</time>
      </trkpt>
      <trkpt lat="41.219115005806088" lon="-3.593647023662925">
        <ele>1026.355</ele>
        <time>2021-07-10T09:46:14Z</time>
      </trkpt>
      <trkpt lat="41.219103019684553" lon="-3.593532023951411">
        <ele>1026.845</ele>
        <time>2021-07-10T09:46:16Z</time>
      </trkpt>
      <trkpt lat="41.219094973057508" lon="-3.593458011746407">
        <ele>1027.2860000000001</ele>
        <time>2021-07-10T09:46:17Z</time>
      </trkpt>
      <trkpt lat="41.219078041613102" lon="-3.59325198456645">
        <ele>1027.5719999999999</ele>
        <time>2021-07-10T09:46:19Z</time>
      </trkpt>
      <trkpt lat="41.219057003036141" lon="-3.59301301650703">
        <ele>1027.894</ele>
        <time>2021-07-10T09:46:21Z</time>
      </trkpt>
      <trkpt lat="41.21903202496469" lon="-3.592747980728746">
        <ele>1027.327</ele>
        <time>2021-07-10T09:46:23Z</time>
      </trkpt>
      <trkpt lat="41.219018027186394" lon="-3.5926069971174">
        <ele>1026.761</ele>
        <time>2021-07-10T09:46:24Z</time>
      </trkpt>
      <trkpt lat="41.218995982781053" lon="-3.592351013794541">
        <ele>1026.6199999999999</ele>
        <time>2021-07-10T09:46:26Z</time>
      </trkpt>
      <trkpt lat="41.218969998881221" lon="-3.592083966359496">
        <ele>1027.3230000000001</ele>
        <time>2021-07-10T09:46:28Z</time>
      </trkpt>
      <trkpt lat="41.218957006931305" lon="-3.591939965263009">
        <ele>1028.183</ele>
        <time>2021-07-10T09:46:29Z</time>
      </trkpt>
      <trkpt lat="41.218934962525964" lon="-3.591692028567195">
        <ele>1028.6110000000001</ele>
        <time>2021-07-10T09:46:31Z</time>
      </trkpt>
      <trkpt lat="41.218907972797751" lon="-3.591457000002265">
        <ele>1029.308</ele>
        <time>2021-07-10T09:46:33Z</time>
      </trkpt>
      <trkpt lat="41.218896992504597" lon="-3.591350968927145">
        <ele>1030.239</ele>
        <time>2021-07-10T09:46:34Z</time>
      </trkpt>
      <trkpt lat="41.218877965584397" lon="-3.591176038607955">
        <ele>1031.249</ele>
        <time>2021-07-10T09:46:36Z</time>
      </trkpt>
      <trkpt lat="41.218866985291243" lon="-3.591109989210963">
        <ele>1031.5899999999999</ele>
        <time>2021-07-10T09:46:37Z</time>
      </trkpt>
      <trkpt lat="41.21885902248323" lon="-3.59101602807641">
        <ele>1031.4359999999999</ele>
        <time>2021-07-10T09:46:39Z</time>
      </trkpt>
      <trkpt lat="41.21885902248323" lon="-3.591077970340848">
        <ele>1031.3679999999999</ele>
        <time>2021-07-10T09:46:45Z</time>
      </trkpt>
      <trkpt lat="41.218876959756017" lon="-3.591006975620985">
        <ele>1032.231</ele>
        <time>2021-07-10T09:47:09Z</time>
      </trkpt>
      <trkpt lat="41.218923982232809" lon="-3.590969005599618">
        <ele>1032.155</ele>
        <time>2021-07-10T09:47:10Z</time>
      </trkpt>
      <trkpt lat="41.21909799054265" lon="-3.59097202308476">
        <ele>1032.0139999999999</ele>
        <time>2021-07-10T09:47:12Z</time>
      </trkpt>
      <trkpt lat="41.219379035755992" lon="-3.591051986441016">
        <ele>1030.741</ele>
        <time>2021-07-10T09:47:14Z</time>
      </trkpt>
      <trkpt lat="41.219539968296885" lon="-3.591091968119144">
        <ele>1030.5809999999999</ele>
        <time>2021-07-10T09:47:15Z</time>
      </trkpt>
      <trkpt lat="41.21989100240171" lon="-3.591152988374233">
        <ele>1029.2090000000001</ele>
        <time>2021-07-10T09:47:17Z</time>
      </trkpt>
      <trkpt lat="41.22025603428483" lon="-3.591178972274065">
        <ele>1028.9079999999999</ele>
        <time>2021-07-10T09:47:19Z</time>
      </trkpt>
      <trkpt lat="41.220446974039078" lon="-3.591181989759207">
        <ele>1028.691</ele>
        <time>2021-07-10T09:47:20Z</time>
      </trkpt>
      <trkpt lat="41.220831032842398" lon="-3.591180983930826">
        <ele>1028.451</ele>
        <time>2021-07-10T09:47:22Z</time>
      </trkpt>
      <trkpt lat="41.22122498229146" lon="-3.591184001415968">
        <ele>1028.1420000000001</ele>
        <time>2021-07-10T09:47:24Z</time>
      </trkpt>
      <trkpt lat="41.221431009471416" lon="-3.591185007244349">
        <ele>1028.258</ele>
        <time>2021-07-10T09:47:25Z</time>
      </trkpt>
      <trkpt lat="41.221831999719143" lon="-3.591189030557871">
        <ele>1028.47</ele>
        <time>2021-07-10T09:47:27Z</time>
      </trkpt>
      <trkpt lat="41.222238019108772" lon="-3.591200010851026">
        <ele>1029.173</ele>
        <time>2021-07-10T09:47:29Z</time>
      </trkpt>
      <trkpt lat="41.222443040460348" lon="-3.591207973659039">
        <ele>1030.1769999999999</ele>
        <time>2021-07-10T09:47:30Z</time>
      </trkpt>
      <trkpt lat="41.222658958286047" lon="-3.591223983094096">
        <ele>1030.826</ele>
        <time>2021-07-10T09:47:31Z</time>
      </trkpt>
      <trkpt lat="41.223045028746128" lon="-3.591292966157198">
        <ele>1032.3810000000001</ele>
        <time>2021-07-10T09:47:33Z</time>
      </trkpt>
      <trkpt lat="41.223424980416894" lon="-3.59144601970911">
        <ele>1033.961</ele>
        <time>2021-07-10T09:47:35Z</time>
      </trkpt>
      <trkpt lat="41.223619021475315" lon="-3.591558001935482">
        <ele>1035.2170000000001</ele>
        <time>2021-07-10T09:47:36Z</time>
      </trkpt>
      <trkpt lat="41.22395102865994" lon="-3.591819014400244">
        <ele>1036.6079999999999</ele>
        <time>2021-07-10T09:47:38Z</time>
      </trkpt>
      <trkpt lat="41.2242950219661" lon="-3.592146998271346">
        <ele>1038.655</ele>
        <time>2021-07-10T09:47:40Z</time>
      </trkpt>
      <trkpt lat="41.224473975598812" lon="-3.592322012409568">
        <ele>1040.4949999999999</ele>
        <time>2021-07-10T09:47:41Z</time>
      </trkpt>
      <trkpt lat="41.22483397834003" lon="-3.592655025422573">
        <ele>1042.1859999999999</ele>
        <time>2021-07-10T09:47:43Z</time>
      </trkpt>
      <trkpt lat="41.225218959152699" lon="-3.593005975708365">
        <ele>1044.6420000000001</ele>
        <time>2021-07-10T09:47:45Z</time>
      </trkpt>
      <trkpt lat="41.22541300021112" lon="-3.593181995674968">
        <ele>1046.954</ele>
        <time>2021-07-10T09:47:46Z</time>
      </trkpt>
      <trkpt lat="41.225618021562696" lon="-3.593364972621203">
        <ele>1048.8969999999999</ele>
        <time>2021-07-10T09:47:47Z</time>
      </trkpt>
      <trkpt lat="41.225999984890223" lon="-3.593645012006164">
        <ele>1050.8610000000001</ele>
        <time>2021-07-10T09:47:49Z</time>
      </trkpt>
      <trkpt lat="41.226426959037781" lon="-3.593845004215837">
        <ele>1052.95</ele>
        <time>2021-07-10T09:47:51Z</time>
      </trkpt>
      <trkpt lat="41.226640027016401" lon="-3.593899989500642">
        <ele>1054.9680000000001</ele>
        <time>2021-07-10T09:47:52Z</time>
      </trkpt>
      <trkpt lat="41.227073036134243" lon="-3.593931002542377">
        <ele>1056.442</ele>
        <time>2021-07-10T09:47:54Z</time>
      </trkpt>
      <trkpt lat="41.227568993344903" lon="-3.593856990337372">
        <ele>1058.7260000000001</ele>
        <time>2021-07-10T09:47:56Z</time>
      </trkpt>
      <trkpt lat="41.228022035211325" lon="-3.593673007562757">
        <ele>1061.2080000000001</ele>
        <time>2021-07-10T09:47:58Z</time>
      </trkpt>
      <trkpt lat="41.228459989652038" lon="-3.593366984277964">
        <ele>1063.5630000000001</ele>
        <time>2021-07-10T09:48:00Z</time>
      </trkpt>
      <trkpt lat="41.228680014610291" lon="-3.593172021210194">
        <ele>1065.3530000000001</ele>
        <time>2021-07-10T09:48:01Z</time>
      </trkpt>
      <trkpt lat="41.228881012648344" lon="-3.592966999858618">
        <ele>1067.2239999999999</ele>
        <time>2021-07-10T09:48:02Z</time>
      </trkpt>
      <trkpt lat="41.229288037866354" lon="-3.592542037367821">
        <ele>1069.05</ele>
        <time>2021-07-10T09:48:04Z</time>
      </trkpt>
      <trkpt lat="41.229514013975859" lon="-3.592318994924426">
        <ele>1070.922</ele>
        <time>2021-07-10T09:48:05Z</time>
      </trkpt>
      <trkpt lat="41.229954985901713" lon="-3.591848015785217">
        <ele>1073.085</ele>
        <time>2021-07-10T09:48:07Z</time>
      </trkpt>
      <trkpt lat="41.230314988642931" lon="-3.591401008889079">
        <ele>1075.499</ele>
        <time>2021-07-10T09:48:09Z</time>
      </trkpt>
      <trkpt lat="41.230526966974139" lon="-3.591105965897441">
        <ele>1076.838</ele>
        <time>2021-07-10T09:48:11Z</time>
      </trkpt>
      <trkpt lat="41.230673985555768" lon="-3.590977974236012">
        <ele>1078.0719999999999</ele>
        <time>2021-07-10T09:48:12Z</time>
      </trkpt>
      <trkpt lat="41.231017978861928" lon="-3.590831039473414">
        <ele>1078.913</ele>
        <time>2021-07-10T09:48:14Z</time>
      </trkpt>
      <trkpt lat="41.231206990778446" lon="-3.590794997289777">
        <ele>1079.3140000000001</ele>
        <time>2021-07-10T09:48:15Z</time>
      </trkpt>
      <trkpt lat="41.231397008523345" lon="-3.590775970369577">
        <ele>1080.1079999999999</ele>
        <time>2021-07-10T09:48:16Z</time>
      </trkpt>
      <trkpt lat="41.231590965762734" lon="-3.590763984248042">
        <ele>1081.0740000000001</ele>
        <time>2021-07-10T09:48:17Z</time>
      </trkpt>
      <trkpt lat="41.23194401152432" lon="-3.590749986469746">
        <ele>1081.4739999999999</ele>
        <time>2021-07-10T09:48:19Z</time>
      </trkpt>
      <trkpt lat="41.232286999002099" lon="-3.590741017833352">
        <ele>1083.0350000000001</ele>
        <time>2021-07-10T09:48:21Z</time>
      </trkpt>
      <trkpt lat="41.232444997876883" lon="-3.590735988691449">
        <ele>1084.3209999999999</ele>
        <time>2021-07-10T09:48:22Z</time>
      </trkpt>
      <trkpt lat="41.23271900229156" lon="-3.590711010619998">
        <ele>1085.423</ele>
        <time>2021-07-10T09:48:24Z</time>
      </trkpt>
      <trkpt lat="41.232807012274861" lon="-3.590686032548547">
        <ele>1086.9659999999999</ele>
        <time>2021-07-10T09:48:25Z</time>
      </trkpt>
      <trkpt lat="41.232929974794388" lon="-3.590580001473427">
        <ele>1089.05</ele>
        <time>2021-07-10T09:48:27Z</time>
      </trkpt>
      <trkpt lat="41.233010021969676" lon="-3.59041403979063">
        <ele>1090.479</ele>
        <time>2021-07-10T09:48:29Z</time>
      </trkpt>
      <trkpt lat="41.233090991154313" lon="-3.590206000953913">
        <ele>1091.4739999999999</ele>
        <time>2021-07-10T09:48:31Z</time>
      </trkpt>
      <trkpt lat="41.23310498893261" lon="-3.590089995414019">
        <ele>1091.6559999999999</ele>
        <time>2021-07-10T09:48:32Z</time>
      </trkpt>
      <trkpt lat="41.233066013082862" lon="-3.589851027354598">
        <ele>1092.221</ele>
        <time>2021-07-10T09:48:34Z</time>
      </trkpt>
      <trkpt lat="41.233037011697888" lon="-3.589718006551266">
        <ele>1092.2080000000001</ele>
        <time>2021-07-10T09:48:35Z</time>
      </trkpt>
      <trkpt lat="41.232968028634787" lon="-3.589407959952951">
        <ele>1092.5239999999999</ele>
        <time>2021-07-10T09:48:37Z</time>
      </trkpt>
      <trkpt lat="41.232896028086543" lon="-3.589078970253468">
        <ele>1093.0540000000001</ele>
        <time>2021-07-10T09:48:39Z</time>
      </trkpt>
      <trkpt lat="41.232859985902905" lon="-3.588904039934278">
        <ele>1093.4949999999999</ele>
        <time>2021-07-10T09:48:40Z</time>
      </trkpt>
      <trkpt lat="41.23280399478972" lon="-3.588559962809086">
        <ele>1093.8910000000001</ele>
        <time>2021-07-10T09:48:42Z</time>
      </trkpt>
      <trkpt lat="41.232785973697901" lon="-3.588375980034471">
        <ele>1094.173</ele>
        <time>2021-07-10T09:48:43Z</time>
      </trkpt>
      <trkpt lat="41.23278102837503" lon="-3.588020000606775">
        <ele>1094.646</ele>
        <time>2021-07-10T09:48:45Z</time>
      </trkpt>
      <trkpt lat="41.23282796703279" lon="-3.587647005915642">
        <ele>1095.73</ele>
        <time>2021-07-10T09:48:47Z</time>
      </trkpt>
      <trkpt lat="41.232883036136627" lon="-3.587296977639198">
        <ele>1098.1690000000001</ele>
        <time>2021-07-10T09:48:49Z</time>
      </trkpt>
      <trkpt lat="41.232969034463167" lon="-3.586994977667928">
        <ele>1099.9349999999999</ele>
        <time>2021-07-10T09:48:51Z</time>
      </trkpt>
      <trkpt lat="41.233004992827773" lon="-3.586872015148401">
        <ele>1101.386</ele>
        <time>2021-07-10T09:48:52Z</time>
      </trkpt>
      <trkpt lat="41.233028965070844" lon="-3.586781993508339">
        <ele>1102.0139999999999</ele>
        <time>2021-07-10T09:48:53Z</time>
      </trkpt>
      <trkpt lat="41.233045980334282" lon="-3.586687026545405">
        <ele>1102.6079999999999</ele>
        <time>2021-07-10T09:48:55Z</time>
      </trkpt>
      <trkpt lat="41.233037011697888" lon="-3.58659096993506">
        <ele>1103.1199999999999</ele>
        <time>2021-07-10T09:48:58Z</time>
      </trkpt>
      <trkpt lat="41.233003986999393" lon="-3.586476976051927">
        <ele>1103.54</ele>
        <time>2021-07-10T09:49:00Z</time>
      </trkpt>
      <trkpt lat="41.232990995049477" lon="-3.586315037682653">
        <ele>1104.1510000000001</ele>
        <time>2021-07-10T09:49:02Z</time>
      </trkpt>
      <trkpt lat="41.233011027798057" lon="-3.586232978850603">
        <ele>1104.557</ele>
        <time>2021-07-10T09:49:03Z</time>
      </trkpt>
      <trkpt lat="41.233050003647804" lon="-3.586158966645598">
        <ele>1104.799</ele>
        <time>2021-07-10T09:49:04Z</time>
      </trkpt>
      <trkpt lat="41.233154023066163" lon="-3.586080009117723">
        <ele>1104.952</ele>
        <time>2021-07-10T09:49:06Z</time>
      </trkpt>
      <trkpt lat="41.233215965330601" lon="-3.586061988025904">
        <ele>1105.0260000000001</ele>
        <time>2021-07-10T09:49:07Z</time>
      </trkpt>
      <trkpt lat="41.233281008899212" lon="-3.586036004126072">
        <ele>1104.7850000000001</ele>
        <time>2021-07-10T09:49:08Z</time>
      </trkpt>
      <trkpt lat="41.233389973640442" lon="-3.585911029949784">
        <ele>1104.7819999999999</ele>
        <time>2021-07-10T09:49:10Z</time>
      </trkpt>
      <trkpt lat="41.233432972803712" lon="-3.585812039673328">
        <ele>1104.943</ele>
        <time>2021-07-10T09:49:11Z</time>
      </trkpt>
      <trkpt lat="41.233479995280504" lon="-3.585705002769828">
        <ele>1104.817</ele>
        <time>2021-07-10T09:49:12Z</time>
      </trkpt>
      <trkpt lat="41.233531041070819" lon="-3.585574999451637">
        <ele>1104.808</ele>
        <time>2021-07-10T09:49:13Z</time>
      </trkpt>
      <trkpt lat="41.233623996376991" lon="-3.585303006693721">
        <ele>1105.2449999999999</ele>
        <time>2021-07-10T09:49:15Z</time>
      </trkpt>
      <trkpt lat="41.233718041330576" lon="-3.58502296730876">
        <ele>1105.4349999999999</ele>
        <time>2021-07-10T09:49:17Z</time>
      </trkpt>
      <trkpt lat="41.233818959444761" lon="-3.584707975387573">
        <ele>1106.056</ele>
        <time>2021-07-10T09:49:19Z</time>
      </trkpt>
      <trkpt lat="41.233917027711868" lon="-3.584402035921812">
        <ele>1106.722</ele>
        <time>2021-07-10T09:49:21Z</time>
      </trkpt>
      <trkpt lat="41.234020963311195" lon="-3.584067011252046">
        <ele>1107.374</ele>
        <time>2021-07-10T09:49:23Z</time>
      </trkpt>
      <trkpt lat="41.234073014929891" lon="-3.583903983235359">
        <ele>1108.027</ele>
        <time>2021-07-10T09:49:24Z</time>
      </trkpt>
      <trkpt lat="41.234181979671121" lon="-3.583564013242722">
        <ele>1108.761</ele>
        <time>2021-07-10T09:49:26Z</time>
      </trkpt>
      <trkpt lat="41.234240988269448" lon="-3.583382964134216">
        <ele>1109.4100000000001</ele>
        <time>2021-07-10T09:49:27Z</time>
      </trkpt>
      <trkpt lat="41.234306031838059" lon="-3.583182971924543">
        <ele>1109.768</ele>
        <time>2021-07-10T09:49:28Z</time>
      </trkpt>
      <trkpt lat="41.234368979930878" lon="-3.582991026341915">
        <ele>1110.5419999999999</ele>
        <time>2021-07-10T09:49:29Z</time>
      </trkpt>
      <trkpt lat="41.234495965763927" lon="-3.582605039700866">
        <ele>1111.5260000000001</ele>
        <time>2021-07-10T09:49:31Z</time>
      </trkpt>
      <trkpt lat="41.234626974910498" lon="-3.582203965634108">
        <ele>1112.6079999999999</ele>
        <time>2021-07-10T09:49:33Z</time>
      </trkpt>
      <trkpt lat="41.234744992107153" lon="-3.58184102922678">
        <ele>1113.393</ele>
        <time>2021-07-10T09:49:35Z</time>
      </trkpt>
      <trkpt lat="41.234869966283441" lon="-3.581455964595079">
        <ele>1114.3630000000001</ele>
        <time>2021-07-10T09:49:37Z</time>
      </trkpt>
      <trkpt lat="41.235008016228676" lon="-3.581032007932663">
        <ele>1115.124</ele>
        <time>2021-07-10T09:49:39Z</time>
      </trkpt>
      <trkpt lat="41.23514698818326" lon="-3.580607967451215">
        <ele>1115.8199999999999</ele>
        <time>2021-07-10T09:49:41Z</time>
      </trkpt>
      <trkpt lat="41.235291995108128" lon="-3.580164983868599">
        <ele>1116.722</ele>
        <time>2021-07-10T09:49:43Z</time>
      </trkpt>
      <trkpt lat="41.235370030626655" lon="-3.579927021637559">
        <ele>1117.2149999999999</ele>
        <time>2021-07-10T09:49:44Z</time>
      </trkpt>
      <trkpt lat="41.235512020066381" lon="-3.579493006691337">
        <ele>1117.829</ele>
        <time>2021-07-10T09:49:46Z</time>
      </trkpt>
      <trkpt lat="41.235664989799261" lon="-3.579024039208889">
        <ele>1118.348</ele>
        <time>2021-07-10T09:49:48Z</time>
      </trkpt>
      <trkpt lat="41.235744031146169" lon="-3.578783981502056">
        <ele>1118.9739999999999</ele>
        <time>2021-07-10T09:49:49Z</time>
      </trkpt>
      <trkpt lat="41.235894989222288" lon="-3.578309984877706">
        <ele>1119.556</ele>
        <time>2021-07-10T09:49:51Z</time>
      </trkpt>
      <trkpt lat="41.236023986712098" lon="-3.577837999910116">
        <ele>1120.721</ele>
        <time>2021-07-10T09:49:53Z</time>
      </trkpt>
      <trkpt lat="41.236076960340142" lon="-3.577601965516806">
        <ele>1121.7080000000001</ele>
        <time>2021-07-10T09:49:54Z</time>
      </trkpt>
      <trkpt lat="41.236125994473696" lon="-3.577357968315482">
        <ele>1122.414</ele>
        <time>2021-07-10T09:49:55Z</time>
      </trkpt>
      <trkpt lat="41.236231019720435" lon="-3.576873997226358">
        <ele>1123.444</ele>
        <time>2021-07-10T09:49:57Z</time>
      </trkpt>
      <trkpt lat="41.236261026933789" lon="-3.576361024752259">
        <ele>1123.2149999999999</ele>
        <time>2021-07-10T09:49:59Z</time>
      </trkpt>
      <trkpt lat="41.236354988068342" lon="-3.576108980923891">
        <ele>1123.1510000000001</ele>
        <time>2021-07-10T09:50:00Z</time>
      </trkpt>
      <trkpt lat="41.236491026356816" lon="-3.575597014278173">
        <ele>1123.223</ele>
        <time>2021-07-10T09:50:02Z</time>
      </trkpt>
      <trkpt lat="41.236632009968162" lon="-3.575072977691889">
        <ele>1122.6759999999999</ele>
        <time>2021-07-10T09:50:04Z</time>
      </trkpt>
      <trkpt lat="41.236697975546122" lon="-3.574783969670534">
        <ele>1121.95</ele>
        <time>2021-07-10T09:50:05Z</time>
      </trkpt>
      <trkpt lat="41.236833008006215" lon="-3.57415096834302">
        <ele>1120.539</ele>
        <time>2021-07-10T09:50:07Z</time>
      </trkpt>
      <trkpt lat="41.236918000504375" lon="-3.573816027492285">
        <ele>1119.365</ele>
        <time>2021-07-10T09:50:08Z</time>
      </trkpt>
      <trkpt lat="41.237114975228906" lon="-3.573107002303004">
        <ele>1117.268</ele>
        <time>2021-07-10T09:50:10Z</time>
      </trkpt>
      <trkpt lat="41.237222012132406" lon="-3.572726966813207">
        <ele>1115.614</ele>
        <time>2021-07-10T09:50:11Z</time>
      </trkpt>
      <trkpt lat="41.237326031550765" lon="-3.572335029020906">
        <ele>1114.808</ele>
        <time>2021-07-10T09:50:12Z</time>
      </trkpt>
      <trkpt lat="41.237427033483982" lon="-3.571934038773179">
        <ele>1114.3430000000001</ele>
        <time>2021-07-10T09:50:13Z</time>
      </trkpt>
      <trkpt lat="41.237527029588819" lon="-3.57150899246335">
        <ele>1113.893</ele>
        <time>2021-07-10T09:50:14Z</time>
      </trkpt>
      <trkpt lat="41.237707994878292" lon="-3.570717992261052">
        <ele>1113.654</ele>
        <time>2021-07-10T09:50:16Z</time>
      </trkpt>
      <trkpt lat="41.237890971824527" lon="-3.569925986230373">
        <ele>1113.0699999999999</ele>
        <time>2021-07-10T09:50:18Z</time>
      </trkpt>
      <trkpt lat="41.237985016778111" lon="-3.569545028731227">
        <ele>1112.662</ele>
        <time>2021-07-10T09:50:19Z</time>
      </trkpt>
      <trkpt lat="41.238181991502643" lon="-3.568796021863818">
        <ele>1112.2249999999999</ele>
        <time>2021-07-10T09:50:21Z</time>
      </trkpt>
      <trkpt lat="41.238387012854218" lon="-3.568086996674538">
        <ele>1112.8589999999999</ele>
        <time>2021-07-10T09:50:23Z</time>
      </trkpt>
      <trkpt lat="41.238467982038856" lon="-3.567732023075223">
        <ele>1113.4880000000001</ele>
        <time>2021-07-10T09:50:24Z</time>
      </trkpt>
      <trkpt lat="41.238556997850537" lon="-3.567393980920315">
        <ele>1113.951</ele>
        <time>2021-07-10T09:50:25Z</time>
      </trkpt>
      <trkpt lat="41.238652970641851" lon="-3.567072032019496">
        <ele>1114.501</ele>
        <time>2021-07-10T09:50:26Z</time>
      </trkpt>
      <trkpt lat="41.238736035302281" lon="-3.566752010956407">
        <ele>1114.9110000000001</ele>
        <time>2021-07-10T09:50:27Z</time>
      </trkpt>
      <trkpt lat="41.238911971449852" lon="-3.566159997135401">
        <ele>1115.308</ele>
        <time>2021-07-10T09:50:29Z</time>
      </trkpt>
      <trkpt lat="41.238986989483237" lon="-3.565866965800524">
        <ele>1115.5820000000001</ele>
        <time>2021-07-10T09:50:30Z</time>
      </trkpt>
      <trkpt lat="41.239139959216118" lon="-3.56529800221324">
        <ele>1115.8820000000001</ele>
        <time>2021-07-10T09:50:32Z</time>
      </trkpt>
      <trkpt lat="41.239334000274539" lon="-3.564770026132464">
        <ele>1116.423</ele>
        <time>2021-07-10T09:50:34Z</time>
      </trkpt>
      <trkpt lat="41.239448999986053" lon="-3.564523011445999">
        <ele>1117.049</ele>
        <time>2021-07-10T09:50:35Z</time>
      </trkpt>
      <trkpt lat="41.23957296833396" lon="-3.564277002587915">
        <ele>1117.721</ele>
        <time>2021-07-10T09:50:36Z</time>
      </trkpt>
      <trkpt lat="41.239709006622434" lon="-3.564036022871733">
        <ele>1118.2840000000001</ele>
        <time>2021-07-10T09:50:37Z</time>
      </trkpt>
      <trkpt lat="41.240006983280182" lon="-3.563582981005311">
        <ele>1118.278</ele>
        <time>2021-07-10T09:50:39Z</time>
      </trkpt>
      <trkpt lat="41.240181997418404" lon="-3.563368991017342">
        <ele>1117.9870000000001</ele>
        <time>2021-07-10T09:50:40Z</time>
      </trkpt>
      <trkpt lat="41.240528002381325" lon="-3.563007982447743">
        <ele>1117.5239999999999</ele>
        <time>2021-07-10T09:50:42Z</time>
      </trkpt>
      <trkpt lat="41.240918012335896" lon="-3.562653008848429">
        <ele>1117.204</ele>
        <time>2021-07-10T09:50:44Z</time>
      </trkpt>
      <trkpt lat="41.241121022030711" lon="-3.562482018023729">
        <ele>1117.114</ele>
        <time>2021-07-10T09:50:45Z</time>
      </trkpt>
      <trkpt lat="41.241316990926862" lon="-3.562307003885508">
        <ele>1117.508</ele>
        <time>2021-07-10T09:50:46Z</time>
      </trkpt>
      <trkpt lat="41.241487981751561" lon="-3.562112040817738">
        <ele>1117.749</ele>
        <time>2021-07-10T09:50:47Z</time>
      </trkpt>
      <trkpt lat="41.241880003362894" lon="-3.561782967299223">
        <ele>1118.319</ele>
        <time>2021-07-10T09:50:49Z</time>
      </trkpt>
      <trkpt lat="41.242266995832324" lon="-3.561455989256501">
        <ele>1119.52</ele>
        <time>2021-07-10T09:50:51Z</time>
      </trkpt>
      <trkpt lat="41.242650970816612" lon="-3.561128005385399">
        <ele>1120.9760000000001</ele>
        <time>2021-07-10T09:50:53Z</time>
      </trkpt>
      <trkpt lat="41.242832019925117" lon="-3.560964977368712">
        <ele>1121.9580000000001</ele>
        <time>2021-07-10T09:50:54Z</time>
      </trkpt>
      <trkpt lat="41.243179030716419" lon="-3.560637999325991">
        <ele>1123.6610000000001</ele>
        <time>2021-07-10T09:50:56Z</time>
      </trkpt>
      <trkpt lat="41.243340969085693" lon="-3.560469020158052">
        <ele>1125.2850000000001</ele>
        <time>2021-07-10T09:50:57Z</time>
      </trkpt>
      <trkpt lat="41.243641041219234" lon="-3.560113962739706">
        <ele>1127.0340000000001</ele>
        <time>2021-07-10T09:50:59Z</time>
      </trkpt>
      <trkpt lat="41.243775989860296" lon="-3.559916988015175">
        <ele>1128.633</ele>
        <time>2021-07-10T09:51:00Z</time>
      </trkpt>
      <trkpt lat="41.243899958208203" lon="-3.559702998027206">
        <ele>1130.223</ele>
        <time>2021-07-10T09:51:01Z</time>
      </trkpt>
      <trkpt lat="41.244135992601514" lon="-3.559244005009532">
        <ele>1131.915</ele>
        <time>2021-07-10T09:51:03Z</time>
      </trkpt>
      <trkpt lat="41.244231965392828" lon="-3.558991961181164">
        <ele>1132.9079999999999</ele>
        <time>2021-07-10T09:51:04Z</time>
      </trkpt>
      <trkpt lat="41.244307989254594" lon="-3.558722985908389">
        <ele>1133.8900000000001</ele>
        <time>2021-07-10T09:51:05Z</time>
      </trkpt>
      <trkpt lat="41.244432963430882" lon="-3.558169025927782">
        <ele>1134.8299999999999</ele>
        <time>2021-07-10T09:51:07Z</time>
      </trkpt>
      <trkpt lat="41.244451990351081" lon="-3.557874988764525">
        <ele>1135.511</ele>
        <time>2021-07-10T09:51:08Z</time>
      </trkpt>
      <trkpt lat="41.244451990351081" lon="-3.55728498660028">
        <ele>1136.3969999999999</ele>
        <time>2021-07-10T09:51:10Z</time>
      </trkpt>
      <trkpt lat="41.244430029764771" lon="-3.556989021599293">
        <ele>1137.299</ele>
        <time>2021-07-10T09:51:11Z</time>
      </trkpt>
      <trkpt lat="41.244412008672953" lon="-3.556702025234699">
        <ele>1138.0219999999999</ele>
        <time>2021-07-10T09:51:12Z</time>
      </trkpt>
      <trkpt lat="41.244345959275961" lon="-3.556118980050087">
        <ele>1138.9860000000001</ele>
        <time>2021-07-10T09:51:14Z</time>
      </trkpt>
      <trkpt lat="41.244317041710019" lon="-3.555828966200352">
        <ele>1139.7149999999999</ele>
        <time>2021-07-10T09:51:15Z</time>
      </trkpt>
      <trkpt lat="41.244290973991156" lon="-3.555541969835758">
        <ele>1140.6210000000001</ele>
        <time>2021-07-10T09:51:16Z</time>
      </trkpt>
      <trkpt lat="41.244264990091324" lon="-3.555252961814404">
        <ele>1141.8409999999999</ele>
        <time>2021-07-10T09:51:17Z</time>
      </trkpt>
      <trkpt lat="41.244236994534731" lon="-3.554961020126939">
        <ele>1143.2049999999999</ele>
        <time>2021-07-10T09:51:18Z</time>
      </trkpt>
      <trkpt lat="41.244175974279642" lon="-3.554379986599088">
        <ele>1144.508</ele>
        <time>2021-07-10T09:51:20Z</time>
      </trkpt>
      <trkpt lat="41.24414999037981" lon="-3.554085027426481">
        <ele>1145.8789999999999</ele>
        <time>2021-07-10T09:51:21Z</time>
      </trkpt>
      <trkpt lat="41.244133980944753" lon="-3.553788978606463">
        <ele>1147.039</ele>
        <time>2021-07-10T09:51:22Z</time>
      </trkpt>
      <trkpt lat="41.244132975116372" lon="-3.553211968392134">
        <ele>1148.3800000000001</ele>
        <time>2021-07-10T09:51:24Z</time>
      </trkpt>
      <trkpt lat="41.244147978723049" lon="-3.552936958149076">
        <ele>1149.646</ele>
        <time>2021-07-10T09:51:25Z</time>
      </trkpt>
      <trkpt lat="41.244207993149757" lon="-3.552401019260287">
        <ele>1151.8779999999999</ele>
        <time>2021-07-10T09:51:27Z</time>
      </trkpt>
      <trkpt lat="41.244267001748085" lon="-3.552143024280667">
        <ele>1153.9110000000001</ele>
        <time>2021-07-10T09:51:28Z</time>
      </trkpt>
      <trkpt lat="41.244446039199829" lon="-3.551650000736117">
        <ele>1156.3150000000001</ele>
        <time>2021-07-10T09:51:30Z</time>
      </trkpt>
      <trkpt lat="41.244562966749072" lon="-3.551421007141471">
        <ele>1158.5139999999999</ele>
        <time>2021-07-10T09:51:31Z</time>
      </trkpt>
      <trkpt lat="41.244831020012498" lon="-3.55099000968039">
        <ele>1161.316</ele>
        <time>2021-07-10T09:51:33Z</time>
      </trkpt>
      <trkpt lat="41.244979966431856" lon="-3.550785994157195">
        <ele>1162.9760000000001</ele>
        <time>2021-07-10T09:51:34Z</time>
      </trkpt>
      <trkpt lat="41.245312979444861" lon="-3.550408976152539">
        <ele>1165.0129999999999</ele>
        <time>2021-07-10T09:51:36Z</time>
      </trkpt>
      <trkpt lat="41.245487993583083" lon="-3.550222981721163">
        <ele>1166.508</ele>
        <time>2021-07-10T09:51:37Z</time>
      </trkpt>
      <trkpt lat="41.245852019637823" lon="-3.549869013950229">
        <ele>1168.1780000000001</ele>
        <time>2021-07-10T09:51:39Z</time>
      </trkpt>
      <trkpt lat="41.2460380140692" lon="-3.549698023125529">
        <ele>1168.998</ele>
        <time>2021-07-10T09:51:40Z</time>
      </trkpt>
      <trkpt lat="41.246226020157337" lon="-3.549523008987308">
        <ele>1169.519</ele>
        <time>2021-07-10T09:51:41Z</time>
      </trkpt>
      <trkpt lat="41.246603038161993" lon="-3.549164012074471">
        <ele>1169.2449999999999</ele>
        <time>2021-07-10T09:51:43Z</time>
      </trkpt>
      <trkpt lat="41.246987013146281" lon="-3.54879898019135">
        <ele>1168.857</ele>
        <time>2021-07-10T09:51:45Z</time>
      </trkpt>
      <trkpt lat="41.247181976214051" lon="-3.548616003245115">
        <ele>1167.8800000000001</ele>
        <time>2021-07-10T09:51:46Z</time>
      </trkpt>
      <trkpt lat="41.247384985908866" lon="-3.548437971621752">
        <ele>1167.374</ele>
        <time>2021-07-10T09:51:47Z</time>
      </trkpt>
      <trkpt lat="41.247826041653752" lon="-3.548124991357327">
        <ele>1166.0830000000001</ele>
        <time>2021-07-10T09:51:49Z</time>
      </trkpt>
      <trkpt lat="41.248288974165916" lon="-3.54782902635634">
        <ele>1165.0709999999999</ele>
        <time>2021-07-10T09:51:51Z</time>
      </trkpt>
      <trkpt lat="41.248526014387608" lon="-3.547677984461188">
        <ele>1164.0409999999999</ele>
        <time>2021-07-10T09:51:52Z</time>
      </trkpt>
      <trkpt lat="41.248763976618648" lon="-3.547520991414785">
        <ele>1163.115</ele>
        <time>2021-07-10T09:51:53Z</time>
      </trkpt>
      <trkpt lat="41.249002022668719" lon="-3.547363998368383">
        <ele>1161.808</ele>
        <time>2021-07-10T09:51:54Z</time>
      </trkpt>
      <trkpt lat="41.249473001807928" lon="-3.54705898091197">
        <ele>1160.2639999999999</ele>
        <time>2021-07-10T09:51:56Z</time>
      </trkpt>
      <trkpt lat="41.249709036201239" lon="-3.54690601117909">
        <ele>1159.0940000000001</ele>
        <time>2021-07-10T09:51:57Z</time>
      </trkpt>
      <trkpt lat="41.250181021168828" lon="-3.546599987894297">
        <ele>1157.0550000000001</ele>
        <time>2021-07-10T09:51:59Z</time>
      </trkpt>
      <trkpt lat="41.25065803527832" lon="-3.546293964609504">
        <ele>1154.461</ele>
        <time>2021-07-10T09:52:01Z</time>
      </trkpt>
      <trkpt lat="41.250893985852599" lon="-3.546138983219862">
        <ele>1152.3130000000001</ele>
        <time>2021-07-10T09:52:02Z</time>
      </trkpt>
      <trkpt lat="41.251364964991808" lon="-3.54583103209734">
        <ele>1150.296</ele>
        <time>2021-07-10T09:52:04Z</time>
      </trkpt>
      <trkpt lat="41.251846002414823" lon="-3.545527020469308">
        <ele>1147.48</ele>
        <time>2021-07-10T09:52:06Z</time>
      </trkpt>
      <trkpt lat="41.252327961847186" lon="-3.545216973870993">
        <ele>1144.6189999999999</ele>
        <time>2021-07-10T09:52:08Z</time>
      </trkpt>
      <trkpt lat="41.252561984583735" lon="-3.545066015794873">
        <ele>1142.174</ele>
        <time>2021-07-10T09:52:09Z</time>
      </trkpt>
      <trkpt lat="41.252983007580042" lon="-3.544794023036957">
        <ele>1139.6559999999999</ele>
        <time>2021-07-10T09:52:11Z</time>
      </trkpt>
      <trkpt lat="41.253375029191375" lon="-3.544619008898735">
        <ele>1136.521</ele>
        <time>2021-07-10T09:52:13Z</time>
      </trkpt>
      <trkpt lat="41.253805020824075" lon="-3.544602999463677">
        <ele>1134.308</ele>
        <time>2021-07-10T09:52:15Z</time>
      </trkpt>
      <trkpt lat="41.254266025498509" lon="-3.54467298835516">
        <ele>1131.694</ele>
        <time>2021-07-10T09:52:17Z</time>
      </trkpt>
      <trkpt lat="41.254742033779621" lon="-3.544734008610249">
        <ele>1128.5540000000001</ele>
        <time>2021-07-10T09:52:19Z</time>
      </trkpt>
      <trkpt lat="41.255218964070082" lon="-3.544793017208576">
        <ele>1125.135</ele>
        <time>2021-07-10T09:52:21Z</time>
      </trkpt>
      <trkpt lat="41.255461033433676" lon="-3.544827969744802">
        <ele>1122.521</ele>
        <time>2021-07-10T09:52:22Z</time>
      </trkpt>
      <trkpt lat="41.2559450045228" lon="-3.544923020526767">
        <ele>1119.893</ele>
        <time>2021-07-10T09:52:24Z</time>
      </trkpt>
      <trkpt lat="41.256425958126783" lon="-3.545067021623254">
        <ele>1115.9960000000001</ele>
        <time>2021-07-10T09:52:26Z</time>
      </trkpt>
      <trkpt lat="41.256905989721417" lon="-3.545228037983179">
        <ele>1111.9300000000001</ele>
        <time>2021-07-10T09:52:28Z</time>
      </trkpt>
      <trkpt lat="41.257394989952445" lon="-3.545390982180834">
        <ele>1108.049</ele>
        <time>2021-07-10T09:52:30Z</time>
      </trkpt>
      <trkpt lat="41.257643010467291" lon="-3.545473041012883">
        <ele>1104.865</ele>
        <time>2021-07-10T09:52:31Z</time>
      </trkpt>
      <trkpt lat="41.257891030982137" lon="-3.545551998540759">
        <ele>1102.4680000000001</ele>
        <time>2021-07-10T09:52:32Z</time>
      </trkpt>
      <trkpt lat="41.25813402235508" lon="-3.545621987432241">
        <ele>1099.8140000000001</ele>
        <time>2021-07-10T09:52:33Z</time>
      </trkpt>
      <trkpt lat="41.258612964302301" lon="-3.545773029327393">
        <ele>1096.4079999999999</ele>
        <time>2021-07-10T09:52:35Z</time>
      </trkpt>
      <trkpt lat="41.258851010352373" lon="-3.545852992683649">
        <ele>1093.5429999999999</ele>
        <time>2021-07-10T09:52:36Z</time>
      </trkpt>
      <trkpt lat="41.259086038917303" lon="-3.545930022373796">
        <ele>1091.2429999999999</ele>
        <time>2021-07-10T09:52:37Z</time>
      </trkpt>
      <trkpt lat="41.259316960349679" lon="-3.545996993780136">
        <ele>1089.184</ele>
        <time>2021-07-10T09:52:38Z</time>
      </trkpt>
      <trkpt lat="41.259540002793074" lon="-3.546043010428548">
        <ele>1087.3599999999999</ele>
        <time>2021-07-10T09:52:39Z</time>
      </trkpt>
      <trkpt lat="41.259964965283871" lon="-3.546081986278296">
        <ele>1085.1420000000001</ele>
        <time>2021-07-10T09:52:41Z</time>
      </trkpt>
      <trkpt lat="41.260374002158642" lon="-3.545987019315362">
        <ele>1082.7950000000001</ele>
        <time>2021-07-10T09:52:43Z</time>
      </trkpt>
      <trkpt lat="41.260564019903541" lon="-3.54587503708899">
        <ele>1080.4590000000001</ele>
        <time>2021-07-10T09:52:44Z</time>
      </trkpt>
      <trkpt lat="41.260741967707872" lon="-3.54572500102222">
        <ele>1078.848</ele>
        <time>2021-07-10T09:52:45Z</time>
      </trkpt>
      <trkpt lat="41.260910024866462" lon="-3.545542024075985">
        <ele>1077.8440000000001</ele>
        <time>2021-07-10T09:52:46Z</time>
      </trkpt>
      <trkpt lat="41.261061988770962" lon="-3.545330967754126">
        <ele>1077.2049999999999</ele>
        <time>2021-07-10T09:52:47Z</time>
      </trkpt>
      <trkpt lat="41.261192997917533" lon="-3.545094011351466">
        <ele>1076.7149999999999</ele>
        <time>2021-07-10T09:52:48Z</time>
      </trkpt>
      <trkpt lat="41.26140296459198" lon="-3.54456796310842">
        <ele>1076.008</ele>
        <time>2021-07-10T09:52:50Z</time>
      </trkpt>
      <trkpt lat="41.261566998437047" lon="-3.544002017006278">
        <ele>1075.421</ele>
        <time>2021-07-10T09:52:52Z</time>
      </trkpt>
      <trkpt lat="41.26174402423203" lon="-3.543432969599962">
        <ele>1076.521</ele>
        <time>2021-07-10T09:52:54Z</time>
      </trkpt>
      <trkpt lat="41.261934963986278" lon="-3.542866017669439">
        <ele>1078.3720000000001</ele>
        <time>2021-07-10T09:52:56Z</time>
      </trkpt>
      <trkpt lat="41.262032026425004" lon="-3.542583966627717">
        <ele>1079.9380000000001</ele>
        <time>2021-07-10T09:52:57Z</time>
      </trkpt>
      <trkpt lat="41.262224977836013" lon="-3.542019026353955">
        <ele>1082.1400000000001</ele>
        <time>2021-07-10T09:52:59Z</time>
      </trkpt>
      <trkpt lat="41.262413989752531" lon="-3.541446961462498">
        <ele>1084.7629999999999</ele>
        <time>2021-07-10T09:53:01Z</time>
      </trkpt>
      <trkpt lat="41.262603001669049" lon="-3.540875986218453">
        <ele>1087.2470000000001</ele>
        <time>2021-07-10T09:53:03Z</time>
      </trkpt>
      <trkpt lat="41.262764018028975" lon="-3.540294030681253">
        <ele>1089.626</ele>
        <time>2021-07-10T09:53:05Z</time>
      </trkpt>
      <trkpt lat="41.262827971950173" lon="-3.539990019053221">
        <ele>1091.433</ele>
        <time>2021-07-10T09:53:06Z</time>
      </trkpt>
      <trkpt lat="41.262952024117112" lon="-3.539383001625538">
        <ele>1093.423</ele>
        <time>2021-07-10T09:53:08Z</time>
      </trkpt>
      <trkpt lat="41.263015978038311" lon="-3.539081001654267">
        <ele>1095.3150000000001</ele>
        <time>2021-07-10T09:53:09Z</time>
      </trkpt>
      <trkpt lat="41.263075992465019" lon="-3.538779001682997">
        <ele>1096.808</ele>
        <time>2021-07-10T09:53:10Z</time>
      </trkpt>
      <trkpt lat="41.263201972469687" lon="-3.538178019225597">
        <ele>1099.01</ele>
        <time>2021-07-10T09:53:12Z</time>
      </trkpt>
      <trkpt lat="41.263263998553157" lon="-3.537879036739469">
        <ele>1100.97</ele>
        <time>2021-07-10T09:53:13Z</time>
      </trkpt>
      <trkpt lat="41.263325018808246" lon="-3.537578964605928">
        <ele>1103.0309999999999</ele>
        <time>2021-07-10T09:53:14Z</time>
      </trkpt>
      <trkpt lat="41.263386039063334" lon="-3.537278976291418">
        <ele>1104.527</ele>
        <time>2021-07-10T09:53:15Z</time>
      </trkpt>
      <trkpt lat="41.263513024896383" lon="-3.536683022975922">
        <ele>1106.729</ele>
        <time>2021-07-10T09:53:17Z</time>
      </trkpt>
      <trkpt lat="41.263578990474343" lon="-3.536389991641045">
        <ele>1108.3119999999999</ele>
        <time>2021-07-10T09:53:18Z</time>
      </trkpt>
      <trkpt lat="41.263642022386193" lon="-3.536098971962929">
        <ele>1109.7760000000001</ele>
        <time>2021-07-10T09:53:19Z</time>
      </trkpt>
      <trkpt lat="41.263745035976171" lon="-3.535510981455445">
        <ele>1111.5350000000001</ele>
        <time>2021-07-10T09:53:21Z</time>
      </trkpt>
      <trkpt lat="41.263774037361145" lon="-3.535209987312555">
        <ele>1113.4159999999999</ele>
        <time>2021-07-10T09:53:22Z</time>
      </trkpt>
      <trkpt lat="41.263762973248959" lon="-3.534612022340298">
        <ele>1115.7760000000001</ele>
        <time>2021-07-10T09:53:24Z</time>
      </trkpt>
      <trkpt lat="41.263728020712733" lon="-3.534313039854169">
        <ele>1117.6130000000001</ele>
        <time>2021-07-10T09:53:25Z</time>
      </trkpt>
      <trkpt lat="41.263684015721083" lon="-3.534013973549008">
        <ele>1119.4079999999999</ele>
        <time>2021-07-10T09:53:26Z</time>
      </trkpt>
      <trkpt lat="41.263632969930768" lon="-3.533712979406118">
        <ele>1121.348</ele>
        <time>2021-07-10T09:53:27Z</time>
      </trkpt>
      <trkpt lat="41.263511013239622" lon="-3.533121971413493">
        <ele>1123.818</ele>
        <time>2021-07-10T09:53:29Z</time>
      </trkpt>
      <trkpt lat="41.263423003256321" lon="-3.532562982290983">
        <ele>1126.539</ele>
        <time>2021-07-10T09:53:31Z</time>
      </trkpt>
      <trkpt lat="41.263404982164502" lon="-3.532286966219544">
        <ele>1128.7650000000001</ele>
        <time>2021-07-10T09:53:32Z</time>
      </trkpt>
      <trkpt lat="41.263450998812914" lon="-3.531749015673995">
        <ele>1131.627</ele>
        <time>2021-07-10T09:53:34Z</time>
      </trkpt>
      <trkpt lat="41.263515958562493" lon="-3.531488003209233">
        <ele>1134.24</ele>
        <time>2021-07-10T09:53:35Z</time>
      </trkpt>
      <trkpt lat="41.263596005737782" lon="-3.531235037371516">
        <ele>1136.174</ele>
        <time>2021-07-10T09:53:36Z</time>
      </trkpt>
      <trkpt lat="41.263677980750799" lon="-3.530981987714768">
        <ele>1137.643</ele>
        <time>2021-07-10T09:53:37Z</time>
      </trkpt>
      <trkpt lat="41.263776971027255" lon="-3.530444959178567">
        <ele>1139.759</ele>
        <time>2021-07-10T09:53:39Z</time>
      </trkpt>
      <trkpt lat="41.263754004612565" lon="-3.529881024733186">
        <ele>1142.6030000000001</ele>
        <time>2021-07-10T09:53:41Z</time>
      </trkpt>
      <trkpt lat="41.263706982135773" lon="-3.529598973691464">
        <ele>1145.423</ele>
        <time>2021-07-10T09:53:42Z</time>
      </trkpt>
      <trkpt lat="41.263589970767498" lon="-3.529030010104179">
        <ele>1148.2080000000001</ele>
        <time>2021-07-10T09:53:44Z</time>
      </trkpt>
      <trkpt lat="41.263461979106069" lon="-3.52845199406147">
        <ele>1150.8320000000001</ele>
        <time>2021-07-10T09:53:46Z</time>
      </trkpt>
      <trkpt lat="41.263396013528109" lon="-3.528155023232102">
        <ele>1153.3920000000001</ele>
        <time>2021-07-10T09:53:47Z</time>
      </trkpt>
      <trkpt lat="41.263328036293387" lon="-3.52785000577569">
        <ele>1155.3330000000001</ele>
        <time>2021-07-10T09:53:48Z</time>
      </trkpt>
      <trkpt lat="41.263198032975197" lon="-3.527233013883233">
        <ele>1157.749</ele>
        <time>2021-07-10T09:53:50Z</time>
      </trkpt>
      <trkpt lat="41.263063000515103" lon="-3.526619961485267">
        <ele>1161.0409999999999</ele>
        <time>2021-07-10T09:53:52Z</time>
      </trkpt>
      <trkpt lat="41.262946994975209" lon="-3.525999030098319">
        <ele>1164.0239999999999</ele>
        <time>2021-07-10T09:53:54Z</time>
      </trkpt>
      <trkpt lat="41.262908019125462" lon="-3.525692000985146">
        <ele>1166.2380000000001</ele>
        <time>2021-07-10T09:53:55Z</time>
      </trkpt>
      <trkpt lat="41.262868037447333" lon="-3.525086995214224">
        <ele>1168.0170000000001</ele>
        <time>2021-07-10T09:53:57Z</time>
      </trkpt>
      <trkpt lat="41.262902989983559" lon="-3.524484001100063">
        <ele>1169.693</ele>
        <time>2021-07-10T09:53:59Z</time>
      </trkpt>
      <trkpt lat="41.262953029945493" lon="-3.524187030270696">
        <ele>1170.665</ele>
        <time>2021-07-10T09:54:00Z</time>
      </trkpt>
      <trkpt lat="41.263022013008595" lon="-3.523892993107438">
        <ele>1171.721</ele>
        <time>2021-07-10T09:54:01Z</time>
      </trkpt>
      <trkpt lat="41.263213958591223" lon="-3.523327969014645">
        <ele>1173.1079999999999</ele>
        <time>2021-07-10T09:54:03Z</time>
      </trkpt>
      <trkpt lat="41.263328036293387" lon="-3.523051030933857">
        <ele>1174.2560000000001</ele>
        <time>2021-07-10T09:54:04Z</time>
      </trkpt>
      <trkpt lat="41.263579996302724" lon="-3.522505033761263">
        <ele>1175.4159999999999</ele>
        <time>2021-07-10T09:54:06Z</time>
      </trkpt>
      <trkpt lat="41.263845032081008" lon="-3.521962976083159">
        <ele>1176.337</ele>
        <time>2021-07-10T09:54:08Z</time>
      </trkpt>
      <trkpt lat="41.263978974893689" lon="-3.521686038002372">
        <ele>1177.2429999999999</ele>
        <time>2021-07-10T09:54:09Z</time>
      </trkpt>
      <trkpt lat="41.264114007353783" lon="-3.52140398696065">
        <ele>1177.645</ele>
        <time>2021-07-10T09:54:10Z</time>
      </trkpt>
      <trkpt lat="41.264249961823225" lon="-3.521120008081198">
        <ele>1178.4780000000001</ele>
        <time>2021-07-10T09:54:11Z</time>
      </trkpt>
      <trkpt lat="41.26438801176846" lon="-3.520835023373365">
        <ele>1178.8320000000001</ele>
        <time>2021-07-10T09:54:12Z</time>
      </trkpt>
      <trkpt lat="41.264527989551425" lon="-3.52054400369525">
        <ele>1179.3309999999999</ele>
        <time>2021-07-10T09:54:13Z</time>
      </trkpt>
      <trkpt lat="41.264809034764767" lon="-3.519948972389102">
        <ele>1180.1469999999999</ele>
        <time>2021-07-10T09:54:15Z</time>
      </trkpt>
      <trkpt lat="41.26509795896709" lon="-3.5193429607898">
        <ele>1180.9290000000001</ele>
        <time>2021-07-10T09:54:17Z</time>
      </trkpt>
      <trkpt lat="41.265385039150715" lon="-3.518722029402852">
        <ele>1181.421</ele>
        <time>2021-07-10T09:54:19Z</time>
      </trkpt>
      <trkpt lat="41.265532979741693" lon="-3.518412988632917">
        <ele>1181.4079999999999</ele>
        <time>2021-07-10T09:54:20Z</time>
      </trkpt>
      <trkpt lat="41.265831962227821" lon="-3.517790967598558">
        <ele>1181.461</ele>
        <time>2021-07-10T09:54:22Z</time>
      </trkpt>
      <trkpt lat="41.266131028532982" lon="-3.517164001241326">
        <ele>1181.741</ele>
        <time>2021-07-10T09:54:24Z</time>
      </trkpt>
      <trkpt lat="41.266280980780721" lon="-3.516852026805282">
        <ele>1182.3420000000001</ele>
        <time>2021-07-10T09:54:25Z</time>
      </trkpt>
      <trkpt lat="41.266426993533969" lon="-3.516549021005631">
        <ele>1183.268</ele>
        <time>2021-07-10T09:54:26Z</time>
      </trkpt>
      <trkpt lat="41.266703009605408" lon="-3.515977961942554">
        <ele>1184.6800000000001</ele>
        <time>2021-07-10T09:54:28Z</time>
      </trkpt>
      <trkpt lat="41.26683896407485" lon="-3.515701023861766">
        <ele>1185.3130000000001</ele>
        <time>2021-07-10T09:54:29Z</time>
      </trkpt>
      <trkpt lat="41.266970979049802" lon="-3.515425007790327">
        <ele>1185.7470000000001</ele>
        <time>2021-07-10T09:54:30Z</time>
      </trkpt>
      <trkpt lat="41.267235008999705" lon="-3.514866018667817">
        <ele>1186.336</ele>
        <time>2021-07-10T09:54:32Z</time>
      </trkpt>
      <trkpt lat="41.267367023974657" lon="-3.514585979282856">
        <ele>1186.963</ele>
        <time>2021-07-10T09:54:33Z</time>
      </trkpt>
      <trkpt lat="41.267497027292848" lon="-3.514305017888546">
        <ele>1187.5440000000001</ele>
        <time>2021-07-10T09:54:34Z</time>
      </trkpt>
      <trkpt lat="41.267626024782658" lon="-3.514024978503585">
        <ele>1188.4179999999999</ele>
        <time>2021-07-10T09:54:35Z</time>
      </trkpt>
      <trkpt lat="41.267888965085149" lon="-3.51347403600812">
        <ele>1189.1079999999999</ele>
        <time>2021-07-10T09:54:37Z</time>
      </trkpt>
      <trkpt lat="41.268016034737229" lon="-3.513201037421823">
        <ele>1189.5429999999999</ele>
        <time>2021-07-10T09:54:38Z</time>
      </trkpt>
      <trkpt lat="41.268264977261424" lon="-3.512669038027525">
        <ele>1189.5329999999999</ele>
        <time>2021-07-10T09:54:40Z</time>
      </trkpt>
      <trkpt lat="41.268504029139876" lon="-3.512161010876298">
        <ele>1189.684</ele>
        <time>2021-07-10T09:54:42Z</time>
      </trkpt>
      <trkpt lat="41.268726987764239" lon="-3.511666981503367">
        <ele>1189.3399999999999</ele>
        <time>2021-07-10T09:54:44Z</time>
      </trkpt>
      <trkpt lat="41.268838969990611" lon="-3.511418960988522">
        <ele>1189.5319999999999</ele>
        <time>2021-07-10T09:54:45Z</time>
      </trkpt>
      <trkpt lat="41.269062012434006" lon="-3.510934989899397">
        <ele>1189.2750000000001</ele>
        <time>2021-07-10T09:54:47Z</time>
      </trkpt>
      <trkpt lat="41.269171983003616" lon="-3.510695016011596">
        <ele>1189.1890000000001</ele>
        <time>2021-07-10T09:54:48Z</time>
      </trkpt>
      <trkpt lat="41.269340962171555" lon="-3.510216996073723">
        <ele>1188.6179999999999</ele>
        <time>2021-07-10T09:54:50Z</time>
      </trkpt>
      <trkpt lat="41.269430983811617" lon="-3.509797984734178">
        <ele>1188.241</ele>
        <time>2021-07-10T09:54:52Z</time>
      </trkpt>
      <trkpt lat="41.269460991024971" lon="-3.50958701223135">
        <ele>1188.181</ele>
        <time>2021-07-10T09:54:53Z</time>
      </trkpt>
      <trkpt lat="41.269517987966537" lon="-3.509135982021689">
        <ele>1188.309</ele>
        <time>2021-07-10T09:54:55Z</time>
      </trkpt>
      <trkpt lat="41.269578002393246" lon="-3.508644970133901">
        <ele>1188.7080000000001</ele>
        <time>2021-07-10T09:54:57Z</time>
      </trkpt>
      <trkpt lat="41.269613038748503" lon="-3.5083859693259">
        <ele>1189.0609999999999</ele>
        <time>2021-07-10T09:54:58Z</time>
      </trkpt>
      <trkpt lat="41.269650002941489" lon="-3.508122023195028">
        <ele>1189.191</ele>
        <time>2021-07-10T09:54:59Z</time>
      </trkpt>
      <trkpt lat="41.269691996276379" lon="-3.507851958274841">
        <ele>1188.942</ele>
        <time>2021-07-10T09:55:00Z</time>
      </trkpt>
      <trkpt lat="41.269733989611268" lon="-3.507576026022434">
        <ele>1189.4179999999999</ele>
        <time>2021-07-10T09:55:01Z</time>
      </trkpt>
      <trkpt lat="41.269812025129795" lon="-3.507015025243163">
        <ele>1190.76</ele>
        <time>2021-07-10T09:55:03Z</time>
      </trkpt>
      <trkpt lat="41.26984597183764" lon="-3.506733980029821">
        <ele>1191.8530000000001</ele>
        <time>2021-07-10T09:55:04Z</time>
      </trkpt>
      <trkpt lat="41.269881008192897" lon="-3.506459975615144">
        <ele>1192.9169999999999</ele>
        <time>2021-07-10T09:55:05Z</time>
      </trkpt>
      <trkpt lat="41.269948985427618" lon="-3.50591498427093">
        <ele>1194.326</ele>
        <time>2021-07-10T09:55:07Z</time>
      </trkpt>
      <trkpt lat="41.269983015954494" lon="-3.505641985684633">
        <ele>1195.556</ele>
        <time>2021-07-10T09:55:08Z</time>
      </trkpt>
      <trkpt lat="41.270051999017596" lon="-3.505094982683659">
        <ele>1196.259</ele>
        <time>2021-07-10T09:55:10Z</time>
      </trkpt>
      <trkpt lat="41.270088963210583" lon="-3.50481896661222">
        <ele>1196.8140000000001</ele>
        <time>2021-07-10T09:55:11Z</time>
      </trkpt>
      <trkpt lat="41.270162975415587" lon="-3.504261989146471">
        <ele>1197.508</ele>
        <time>2021-07-10T09:55:13Z</time>
      </trkpt>
      <trkpt lat="41.270203962922096" lon="-3.5039790160954">
        <ele>1198.1420000000001</ele>
        <time>2021-07-10T09:55:14Z</time>
      </trkpt>
      <trkpt lat="41.270244028419256" lon="-3.503695037215948">
        <ele>1198.932</ele>
        <time>2021-07-10T09:55:15Z</time>
      </trkpt>
      <trkpt lat="41.270280992612243" lon="-3.503409968689084">
        <ele>1199.643</ele>
        <time>2021-07-10T09:55:16Z</time>
      </trkpt>
      <trkpt lat="41.270355004817247" lon="-3.502832958474755">
        <ele>1199.9490000000001</ele>
        <time>2021-07-10T09:55:18Z</time>
      </trkpt>
      <trkpt lat="41.270431028679013" lon="-3.502255026251078">
        <ele>1199.7909999999999</ele>
        <time>2021-07-10T09:55:20Z</time>
      </trkpt>
      <trkpt lat="41.270467992872" lon="-3.501969035714865">
        <ele>1199.8340000000001</ele>
        <time>2021-07-10T09:55:21Z</time>
      </trkpt>
      <trkpt lat="41.270543010905385" lon="-3.501413986086845">
        <ele>1199.3679999999999</ele>
        <time>2021-07-10T09:55:23Z</time>
      </trkpt>
      <trkpt lat="41.270581986755133" lon="-3.50114299915731">
        <ele>1199.0170000000001</ele>
        <time>2021-07-10T09:55:24Z</time>
      </trkpt>
      <trkpt lat="41.270653987303376" lon="-3.500612005591393">
        <ele>1198.8689999999999</ele>
        <time>2021-07-10T09:55:26Z</time>
      </trkpt>
      <trkpt lat="41.270688017830253" lon="-3.500354010611773">
        <ele>1198.404</ele>
        <time>2021-07-10T09:55:27Z</time>
      </trkpt>
      <trkpt lat="41.270721964538097" lon="-3.500100960955024">
        <ele>1198.2239999999999</ele>
        <time>2021-07-10T09:55:28Z</time>
      </trkpt>
      <trkpt lat="41.270791031420231" lon="-3.499611038714647">
        <ele>1198.2080000000001</ele>
        <time>2021-07-10T09:55:30Z</time>
      </trkpt>
      <trkpt lat="41.270849034190178" lon="-3.499153973534703">
        <ele>1198.433</ele>
        <time>2021-07-10T09:55:32Z</time>
      </trkpt>
      <trkpt lat="41.270874012261629" lon="-3.498947024345398">
        <ele>1198.8430000000001</ele>
        <time>2021-07-10T09:55:33Z</time>
      </trkpt>
      <trkpt lat="41.2708979845047" lon="-3.498750971630216">
        <ele>1199.2739999999999</ele>
        <time>2021-07-10T09:55:34Z</time>
      </trkpt>
      <trkpt lat="41.27094198949635" lon="-3.498383006080985">
        <ele>1199.95</ele>
        <time>2021-07-10T09:55:36Z</time>
      </trkpt>
      <trkpt lat="41.270990017801523" lon="-3.498026020824909">
        <ele>1200.3820000000001</ele>
        <time>2021-07-10T09:55:38Z</time>
      </trkpt>
      <trkpt lat="41.271036034449935" lon="-3.497657971456647">
        <ele>1200.655</ele>
        <time>2021-07-10T09:55:40Z</time>
      </trkpt>
      <trkpt lat="41.271061012521386" lon="-3.49746803753078">
        <ele>1200.749</ele>
        <time>2021-07-10T09:55:41Z</time>
      </trkpt>
      <trkpt lat="41.27111298032105" lon="-3.497081967070699">
        <ele>1201.028</ele>
        <time>2021-07-10T09:55:43Z</time>
      </trkpt>
      <trkpt lat="41.271137036383152" lon="-3.496883986517787">
        <ele>1201.3340000000001</ele>
        <time>2021-07-10T09:55:44Z</time>
      </trkpt>
      <trkpt lat="41.271191015839577" lon="-3.496488025411964">
        <ele>1201.4549999999999</ele>
        <time>2021-07-10T09:55:46Z</time>
      </trkpt>
      <trkpt lat="41.271255975589156" lon="-3.496087035164237">
        <ele>1201.3099999999999</ele>
        <time>2021-07-10T09:55:48Z</time>
      </trkpt>
      <trkpt lat="41.271254550665617" lon="-3.49620446562767"/>
      <trkpt lat="41.271187160164118" lon="-3.495993241667748"/>
      <trkpt lat="41.271079368889332" lon="-3.495870027691126"/>
      <trkpt lat="41.270931176841259" lon="-3.495905231684446"/>
      <trkpt lat="41.270782984793186" lon="-3.495782101526856"/>
      <trkpt lat="41.270782984793186" lon="-3.495535673573613"/>
      <trkpt lat="41.270985072478652" lon="-3.495394857600331"/>
      <trkpt lat="41.270998567342758" lon="-3.494990095496178"/>
      <trkpt lat="41.272251661866903" lon="-3.493546983227134"/>
      <trkpt lat="41.273531829938293" lon="-3.491910332813859"/>
      <trkpt lat="41.274784924462438" lon="-3.489358462393284"/>
      <trkpt lat="41.276091998443007" lon="-3.486437117680907"/>
      <trkpt lat="41.276482762768865" lon="-3.485662713646889"/>
      <trkpt lat="41.276698345318437" lon="-3.482354125007987"/>
      <trkpt lat="41.274636732414365" lon="-3.480312712490559"/>
      <trkpt lat="41.274380665272474" lon="-3.480259906500578"/>
      <trkpt lat="41.274232473224401" lon="-3.480259906500578"/>
      <trkpt lat="41.274286368861794" lon="-3.480048682540655"/>
      <trkpt lat="41.274515446275473" lon="-3.479925552383065"/>
      <trkpt lat="41.275728140026331" lon="-3.478887202218175"/>
      <trkpt lat="41.275728140026331" lon="-3.478887202218175">
        <ele>1134.2380000000001</ele>
        <time>2021-07-10T09:58:03Z</time>
      </trkpt>
      <trkpt lat="41.276037935167551" lon="-3.478634906932712">
        <ele>1132.3699999999999</ele>
        <time>2021-07-10T09:58:05Z</time>
      </trkpt>
      <trkpt lat="41.276945192366838" lon="-3.479104209691286">
        <ele>1130.7170000000001</ele>
        <time>2021-07-10T09:58:06Z</time>
      </trkpt>
      <trkpt lat="41.27716077491641" lon="-3.479268411174417">
        <ele>1129.508</ele>
        <time>2021-07-10T09:58:08Z</time>
      </trkpt>
      <trkpt lat="41.277421033009887" lon="-3.479403275996447">
        <ele>1128.53</ele>
        <time>2021-07-10T09:58:09Z</time>
      </trkpt>
      <trkpt lat="41.278229467570782" lon="-3.479614499956369">
        <ele>1127.74</ele>
        <time>2021-07-10T09:58:11Z</time>
      </trkpt>
      <trkpt lat="41.279010996222496" lon="-3.479526489973068">
        <ele>1126.521</ele>
        <time>2021-07-10T09:58:12Z</time>
      </trkpt>
      <trkpt lat="41.280048592016101" lon="-3.478980911895633">
        <ele>1125.2670000000001</ele>
        <time>2021-07-10T09:58:14Z</time>
      </trkpt>
      <trkpt lat="41.280102487653494" lon="-3.477837033569813">
        <ele>1124.6489999999999</ele>
        <time>2021-07-10T09:58:15Z</time>
      </trkpt>
      <trkpt lat="41.280169878154993" lon="-3.47752028144896">
        <ele>1124.172</ele>
        <time>2021-07-10T09:58:16Z</time>
      </trkpt>
      <trkpt lat="41.280547147616744" lon="-3.477344261482358">
        <ele>1124.126</ele>
        <time>2021-07-10T09:58:17Z</time>
      </trkpt>
      <trkpt lat="41.280978312715888" lon="-3.477784227579832">
        <ele>1123.875</ele>
        <time>2021-07-10T09:58:19Z</time>
      </trkpt>
      <trkpt lat="41.281449962407351" lon="-3.478224193677306">
        <ele>1123.3720000000001</ele>
        <time>2021-07-10T09:58:20Z</time>
      </trkpt>
      <trkpt lat="41.281692450866103" lon="-3.478681761771441">
        <ele>1122.913</ele>
        <time>2021-07-10T09:58:21Z</time>
      </trkpt>
      <trkpt lat="41.282042814418674" lon="-3.478840179741383">
        <ele>1122.414</ele>
        <time>2021-07-10T09:58:23Z</time>
      </trkpt>
      <trkpt lat="41.282932134345174" lon="-3.478787373751402">
        <ele>1121.508</ele>
        <time>2021-07-10T09:58:25Z</time>
      </trkpt>
      <trkpt lat="41.284050531685352" lon="-3.478347407653928">
        <ele>1120.7639999999999</ele>
        <time>2021-07-10T09:58:26Z</time>
      </trkpt>
      <trkpt lat="41.284710858017206" lon="-3.478488139808178">
        <ele>1120.0440000000001</ele>
        <time>2021-07-10T09:58:27Z</time>
      </trkpt>
      <trkpt lat="41.285869656130672" lon="-3.478153785690665">
        <ele>1119.095</ele>
        <time>2021-07-10T09:58:29Z</time>
      </trkpt>
      <trkpt lat="41.286368211731315" lon="-3.477942645549774">
        <ele>1118.6310000000001</ele>
        <time>2021-07-10T09:58:30Z</time>
      </trkpt>
      <trkpt lat="41.287423660978675" lon="-3.478587884455919">
        <ele>1117.7729999999999</ele>
        <time>2021-07-10T09:58:32Z</time>
      </trkpt>
      <trkpt lat="41.287962617352605" lon="-3.479233123362064">
        <ele>1116.6859999999999</ele>
        <time>2021-07-10T09:58:33Z</time>
      </trkpt>
      <trkpt lat="41.288726208731532" lon="-3.477473258972168">
        <ele>1116.23</ele>
        <time>2021-07-10T09:58:35Z</time>
      </trkpt>
      <trkpt lat="41.289534643292427" lon="-3.476300043985248">
        <ele>1115.789</ele>
        <time>2021-07-10T09:58:37Z</time>
      </trkpt>
      <trkpt lat="41.293846629559994" lon="-3.476006677374244">
        <ele>1114.9459999999999</ele>
        <time>2021-07-10T09:58:39Z</time>
      </trkpt>
      <trkpt lat="41.294744918122888" lon="-3.475889414548874">
        <ele>1114.6880000000001</ele>
        <time>2021-07-10T09:58:41Z</time>
      </trkpt>
      <trkpt lat="41.294969469308853" lon="-3.476124024018645">
        <ele>1114.316</ele>
        <time>2021-07-10T09:58:43Z</time>
      </trkpt>
      <trkpt lat="41.294900989159942" lon="-3.476140033453703">
        <ele>1113.4079999999999</ele>
        <time>2021-07-10T09:58:45Z</time>
      </trkpt>
      <trkpt lat="41.295365011319518" lon="-3.475956972688437">
        <ele>1113.0909999999999</ele>
        <time>2021-07-10T09:58:46Z</time>
      </trkpt>
      <trkpt lat="41.2956059910357" lon="-3.475909028202295">
        <ele>1112.471</ele>
        <time>2021-07-10T09:58:48Z</time>
      </trkpt>
      <trkpt lat="41.296080993488431" lon="-3.475919002667069">
        <ele>1112.0319999999999</ele>
        <time>2021-07-10T09:58:49Z</time>
      </trkpt>
      <trkpt lat="41.296310992911458" lon="-3.475970970466733">
        <ele>1112.038</ele>
        <time>2021-07-10T09:58:51Z</time>
      </trkpt>
      <trkpt lat="41.296751964837313" lon="-3.476132992655039">
        <ele>1112.04</ele>
        <time>2021-07-10T09:58:52Z</time>
      </trkpt>
      <trkpt lat="41.296965032815933" lon="-3.476227037608624">
        <ele>1111.3330000000001</ele>
        <time>2021-07-10T09:58:54Z</time>
      </trkpt>
      <trkpt lat="41.297391001135111" lon="-3.476424012333155">
        <ele>1111.037</ele>
        <time>2021-07-10T09:58:55Z</time>
      </trkpt>
      <trkpt lat="41.297607002779841" lon="-3.476517973467708">
        <ele>1110.4960000000001</ele>
        <time>2021-07-10T09:58:56Z</time>
      </trkpt>
      <trkpt lat="41.297826021909714" lon="-3.476617969572544">
        <ele>1110.6780000000001</ele>
        <time>2021-07-10T09:58:58Z</time>
      </trkpt>
      <trkpt lat="41.298042023554444" lon="-3.476716037839651">
        <ele>1110.133</ele>
        <time>2021-07-10T09:59:00Z</time>
      </trkpt>
      <trkpt lat="41.298462962731719" lon="-3.476901026442647">
        <ele>1109.7260000000001</ele>
        <time>2021-07-10T09:59:01Z</time>
      </trkpt>
      <trkpt lat="41.298674019053578" lon="-3.476992975920439">
        <ele>1109.6079999999999</ele>
        <time>2021-07-10T09:59:02Z</time>
      </trkpt>
      <trkpt lat="41.298882979899645" lon="-3.47708098590374">
        <ele>1109.2840000000001</ele>
        <time>2021-07-10T09:59:04Z</time>
      </trkpt>
      <trkpt lat="41.299302997067571" lon="-3.477256000041962">
        <ele>1108.9739999999999</ele>
        <time>2021-07-10T09:59:06Z</time>
      </trkpt>
      <trkpt lat="41.299716979265213" lon="-3.477427996695042">
        <ele>1107.4849999999999</ele>
        <time>2021-07-10T09:59:08Z</time>
      </trkpt>
      <trkpt lat="41.299919988960028" lon="-3.477517012506723">
        <ele>1105.6310000000001</ele>
        <time>2021-07-10T09:59:10Z</time>
      </trkpt>
      <trkpt lat="41.300126016139984" lon="-3.477598987519741">
        <ele>1104.8530000000001</ele>
        <time>2021-07-10T09:59:12Z</time>
      </trkpt>
      <trkpt lat="41.300539998337626" lon="-3.477722033858299">
        <ele>1104.796</ele>
        <time>2021-07-10T09:59:13Z</time>
      </trkpt>
      <trkpt lat="41.300763040781021" lon="-3.477760003879666">
        <ele>1104.3499999999999</ele>
        <time>2021-07-10T09:59:14Z</time>
      </trkpt>
      <trkpt lat="41.301190014928579" lon="-3.477780036628246">
        <ele>1104.1890000000001</ele>
        <time>2021-07-10T09:59:15Z</time>
      </trkpt>
      <trkpt lat="41.301410961896181" lon="-3.477784981951118">
        <ele>1103.519</ele>
        <time>2021-07-10T09:59:17Z</time>
      </trkpt>
      <trkpt lat="41.301857968792319" lon="-3.477786993607879">
        <ele>1103.309</ele>
        <time>2021-07-10T09:59:19Z</time>
      </trkpt>
      <trkpt lat="41.302305981516838" lon="-3.477794034406543">
        <ele>1103.1189999999999</ele>
        <time>2021-07-10T09:59:20Z</time>
      </trkpt>
      <trkpt lat="41.30275902338326" lon="-3.477797973901033">
        <ele>1103.4079999999999</ele>
        <time>2021-07-10T09:59:21Z</time>
      </trkpt>
      <trkpt lat="41.303214998915792" lon="-3.477797973901033">
        <ele>1103.6279999999999</ele>
        <time>2021-07-10T09:59:22Z</time>
      </trkpt>
      <trkpt lat="41.303683966398239" lon="-3.477808032184839">
        <ele>1104.268</ele>
        <time>2021-07-10T09:59:24Z</time>
      </trkpt>
      <trkpt lat="41.304151006042957" lon="-3.477812977507711">
        <ele>1104.329</ele>
        <time>2021-07-10T09:59:26Z</time>
      </trkpt>
      <trkpt lat="41.304389974102378" lon="-3.477809960022569">
        <ele>1104.5250000000001</ele>
        <time>2021-07-10T09:59:27Z</time>
      </trkpt>
      <trkpt lat="41.304871011525393" lon="-3.477810965850949">
        <ele>1104.777</ele>
        <time>2021-07-10T09:59:28Z</time>
      </trkpt>
      <trkpt lat="41.305112997069955" lon="-3.477818006649613">
        <ele>1104.3800000000001</ele>
        <time>2021-07-10T09:59:30Z</time>
      </trkpt>
      <trkpt lat="41.305583976209164" lon="-3.477835021913052">
        <ele>1104.384</ele>
        <time>2021-07-10T09:59:31Z</time>
      </trkpt>
      <trkpt lat="41.305817998945713" lon="-3.477846002206206">
        <ele>1104.693</ele>
        <time>2021-07-10T09:59:33Z</time>
      </trkpt>
      <trkpt lat="41.306253019720316" lon="-3.47787600941956">
        <ele>1103.7260000000001</ele>
        <time>2021-07-10T09:59:35Z</time>
      </trkpt>
      <trkpt lat="41.306446976959705" lon="-3.477887995541096">
        <ele>1103.047</ele>
        <time>2021-07-10T09:59:36Z</time>
      </trkpt>
      <trkpt lat="41.306630959734321" lon="-3.477895958349109">
        <ele>1101.711</ele>
        <time>2021-07-10T09:59:37Z</time>
      </trkpt>
      <trkpt lat="41.306985011324286" lon="-3.47791800275445">
        <ele>1101.2080000000001</ele>
        <time>2021-07-10T09:59:39Z</time>
      </trkpt>
      <trkpt lat="41.307320035994053" lon="-3.477936023846269">
        <ele>1100.6289999999999</ele>
        <time>2021-07-10T09:59:41Z</time>
      </trkpt>
      <trkpt lat="41.307481974363327" lon="-3.477945998311043">
        <ele>1100.4290000000001</ele>
        <time>2021-07-10T09:59:42Z</time>
      </trkpt>
      <trkpt lat="41.307647014036775" lon="-3.477956978604198">
        <ele>1100.49</ele>
        <time>2021-07-10T09:59:43Z</time>
      </trkpt>
      <trkpt lat="41.307948008179665" lon="-3.477980028837919">
        <ele>1100.4659999999999</ele>
        <time>2021-07-10T09:59:45Z</time>
      </trkpt>
      <trkpt lat="41.308257970958948" lon="-3.47798497416079">
        <ele>1099.9480000000001</ele>
        <time>2021-07-10T09:59:46Z</time>
      </trkpt>
      <trkpt lat="41.30858302116394" lon="-3.47798497416079">
        <ele>1099.251</ele>
        <time>2021-07-10T09:59:48Z</time>
      </trkpt>
      <trkpt lat="41.308892983943224" lon="-3.477972988039255">
        <ele>1098.845</ele>
        <time>2021-07-10T09:59:49Z</time>
      </trkpt>
      <trkpt lat="41.309209987521172" lon="-3.477943986654282">
        <ele>1097.5940000000001</ele>
        <time>2021-07-10T09:59:51Z</time>
      </trkpt>
      <trkpt lat="41.309368992224336" lon="-3.477920014411211">
        <ele>1096.3119999999999</ele>
        <time>2021-07-10T09:59:53Z</time>
      </trkpt>
      <trkpt lat="41.309524979442358" lon="-3.477904004976153">
        <ele>1095.6320000000001</ele>
        <time>2021-07-10T09:59:55Z</time>
      </trkpt>
      <trkpt lat="41.309675015509129" lon="-3.477890007197857">
        <ele>1094.905</ele>
        <time>2021-07-10T09:59:56Z</time>
      </trkpt>
      <trkpt lat="41.30995899438858" lon="-3.477856982499361">
        <ele>1094.1079999999999</ele>
        <time>2021-07-10T09:59:58Z</time>
      </trkpt>
      <trkpt lat="41.310235010460019" lon="-3.477825969457626">
        <ele>1093.998</ele>
        <time>2021-07-10T09:59:59Z</time>
      </trkpt>
      <trkpt lat="41.310376999899745" lon="-3.477808032184839">
        <ele>1093.558</ele>
        <time>2021-07-10T10:00:00Z</time>
      </trkpt>
      <trkpt lat="41.310524018481374" lon="-3.47778900526464">
        <ele>1093.1990000000001</ele>
        <time>2021-07-10T10:00:02Z</time>
      </trkpt>
      <trkpt lat="41.310676988214254" lon="-3.477770984172821">
        <ele>1092.885</ele>
        <time>2021-07-10T10:00:04Z</time>
      </trkpt>
      <trkpt lat="41.311003966256976" lon="-3.477737959474325">
        <ele>1092.9469999999999</ele>
        <time>2021-07-10T10:00:05Z</time>
      </trkpt>
      <trkpt lat="41.311367992311716" lon="-3.477698983624578">
        <ele>1092.96</ele>
        <time>2021-07-10T10:00:07Z</time>
      </trkpt>
      <trkpt lat="41.311563039198518" lon="-3.477678028866649">
        <ele>1092.894</ele>
        <time>2021-07-10T10:00:08Z</time>
      </trkpt>
      <trkpt lat="41.31176495924592" lon="-3.477654978632927">
        <ele>1092.5429999999999</ele>
        <time>2021-07-10T10:00:09Z</time>
      </trkpt>
      <trkpt lat="41.31219201721251" lon="-3.477608039975166">
        <ele>1091.847</ele>
        <time>2021-07-10T10:00:10Z</time>
      </trkpt>
      <trkpt lat="41.312417993322015" lon="-3.477583983913064">
        <ele>1091.1289999999999</ele>
        <time>2021-07-10T10:00:12Z</time>
      </trkpt>
      <trkpt lat="41.312885032966733" lon="-3.477530004456639">
        <ele>1090.221</ele>
        <time>2021-07-10T10:00:14Z</time>
      </trkpt>
      <trkpt lat="41.313361963257194" lon="-3.477473007515073">
        <ele>1089.6079999999999</ele>
        <time>2021-07-10T10:00:15Z</time>
      </trkpt>
      <trkpt lat="41.313609983772039" lon="-3.477448029443622">
        <ele>1088.961</ele>
        <time>2021-07-10T10:00:17Z</time>
      </trkpt>
      <trkpt lat="41.313860015943646" lon="-3.477421961724758">
        <ele>1088.461</ele>
        <time>2021-07-10T10:00:18Z</time>
      </trkpt>
      <trkpt lat="41.314378017559648" lon="-3.477369993925095">
        <ele>1087.8620000000001</ele>
        <time>2021-07-10T10:00:20Z</time>
      </trkpt>
      <trkpt lat="41.314916973933578" lon="-3.477308973670006">
        <ele>1087.1379999999999</ele>
        <time>2021-07-10T10:00:21Z</time>
      </trkpt>
      <trkpt lat="41.315192990005016" lon="-3.477278966456652">
        <ele>1086.48</ele>
        <time>2021-07-10T10:00:22Z</time>
      </trkpt>
      <trkpt lat="41.315471017733216" lon="-3.477244013920426">
        <ele>1086.2529999999999</ele>
        <time>2021-07-10T10:00:23Z</time>
      </trkpt>
      <trkpt lat="41.316025983542204" lon="-3.477163966745138">
        <ele>1085.577</ele>
        <time>2021-07-10T10:00:25Z</time>
      </trkpt>
      <trkpt lat="41.316301999613643" lon="-3.477114010602236">
        <ele>1085.2360000000001</ele>
        <time>2021-07-10T10:00:26Z</time>
      </trkpt>
      <trkpt lat="41.31683399900794" lon="-3.476981995627284">
        <ele>1085.0509999999999</ele>
        <time>2021-07-10T10:00:27Z</time>
      </trkpt>
      <trkpt lat="41.317097023129463" lon="-3.476900020614266">
        <ele>1084.8009999999999</ele>
        <time>2021-07-10T10:00:29Z</time>
      </trkpt>
      <trkpt lat="41.317616030573845" lon="-3.476703967899084">
        <ele>1083.9110000000001</ele>
        <time>2021-07-10T10:00:31Z</time>
      </trkpt>
      <trkpt lat="41.318121962249279" lon="-3.476469023153186">
        <ele>1083.6079999999999</ele>
        <time>2021-07-10T10:00:33Z</time>
      </trkpt>
      <trkpt lat="41.318614985793829" lon="-3.476235000416637">
        <ele>1083.5719999999999</ele>
        <time>2021-07-10T10:00:35Z</time>
      </trkpt>
      <trkpt lat="41.318859988823533" lon="-3.476120000705123">
        <ele>1083.482</ele>
        <time>2021-07-10T10:00:36Z</time>
      </trkpt>
      <trkpt lat="41.319334991276264" lon="-3.475892012938857">
        <ele>1083.0329999999999</ele>
        <time>2021-07-10T10:00:37Z</time>
      </trkpt>
      <trkpt lat="41.319581000134349" lon="-3.475773995742202">
        <ele>1082.9290000000001</ele>
        <time>2021-07-10T10:00:39Z</time>
      </trkpt>
      <trkpt lat="41.319806976243854" lon="-3.475666036829352">
        <ele>1082.981</ele>
        <time>2021-07-10T10:00:41Z</time>
      </trkpt>
      <trkpt lat="41.32024803198874" lon="-3.475464032962918">
        <ele>1082.7639999999999</ele>
        <time>2021-07-10T10:00:42Z</time>
      </trkpt>
      <trkpt lat="41.32072102278471" lon="-3.475264962762594">
        <ele>1081.9179999999999</ele>
        <time>2021-07-10T10:00:44Z</time>
      </trkpt>
      <trkpt lat="41.320964014157653" lon="-3.475172007456422">
        <ele>1081.287</ele>
        <time>2021-07-10T10:00:45Z</time>
      </trkpt>
      <trkpt lat="41.321422001346946" lon="-3.474990958347917">
        <ele>1080.4169999999999</ele>
        <time>2021-07-10T10:00:47Z</time>
      </trkpt>
      <trkpt lat="41.321657029911876" lon="-3.474877970293164">
        <ele>1080.087</ele>
        <time>2021-07-10T10:00:48Z</time>
      </trkpt>
      <trkpt lat="41.321888035163283" lon="-3.474756013602018">
        <ele>1078.915</ele>
        <time>2021-07-10T10:00:50Z</time>
      </trkpt>
      <trkpt lat="41.322125997394323" lon="-3.474621986970305">
        <ele>1078.508</ele>
        <time>2021-07-10T10:00:51Z</time>
      </trkpt>
      <trkpt lat="41.322545008733869" lon="-3.474363991990686">
        <ele>1078.1980000000001</ele>
        <time>2021-07-10T10:00:52Z</time>
      </trkpt>
      <trkpt lat="41.322987992316484" lon="-3.474089987576008">
        <ele>1077.798</ele>
        <time>2021-07-10T10:00:54Z</time>
      </trkpt>
      <trkpt lat="41.323222015053034" lon="-3.473949003964663">
        <ele>1077.6990000000001</ele>
        <time>2021-07-10T10:00:55Z</time>
      </trkpt>
      <trkpt lat="41.323653012514114" lon="-3.473683968186379">
        <ele>1077.355</ele>
        <time>2021-07-10T10:00:56Z</time>
      </trkpt>
      <trkpt lat="41.323874965310097" lon="-3.473540972918272">
        <ele>1077.057</ele>
        <time>2021-07-10T10:00:57Z</time>
      </trkpt>
      <trkpt lat="41.324313003569841" lon="-3.473261017352343">
        <ele>1076.6099999999999</ele>
        <time>2021-07-10T10:00:58Z</time>
      </trkpt>
      <trkpt lat="41.324532022699714" lon="-3.473123973235488">
        <ele>1075.934</ele>
        <time>2021-07-10T10:01:00Z</time>
      </trkpt>
      <trkpt lat="41.324748024344444" lon="-3.472993969917297">
        <ele>1075.673</ele>
        <time>2021-07-10T10:01:01Z</time>
      </trkpt>
      <trkpt lat="41.32497500628233" lon="-3.472856003791094">
        <ele>1075.444</ele>
        <time>2021-07-10T10:01:02Z</time>
      </trkpt>
      <trkpt lat="41.325375996530056" lon="-3.472605971619487">
        <ele>1074.8050000000001</ele>
        <time>2021-07-10T10:01:04Z</time>
      </trkpt>
      <trkpt lat="41.325595015659928" lon="-3.472468005493283">
        <ele>1074.7149999999999</ele>
        <time>2021-07-10T10:01:05Z</time>
      </trkpt>
      <trkpt lat="41.325802970677614" lon="-3.472336996346712">
        <ele>1074.008</ele>
        <time>2021-07-10T10:01:07Z</time>
      </trkpt>
      <trkpt lat="41.326206978410482" lon="-3.472092999145389">
        <ele>1073.5909999999999</ele>
        <time>2021-07-10T10:01:08Z</time>
      </trkpt>
      <trkpt lat="41.326638981699944" lon="-3.471833998337388">
        <ele>1073.021</ele>
        <time>2021-07-10T10:01:10Z</time>
      </trkpt>
      <trkpt lat="41.327036032453179" lon="-3.471593018621206">
        <ele>1072.422</ele>
        <time>2021-07-10T10:01:11Z</time>
      </trkpt>
      <trkpt lat="41.327436016872525" lon="-3.471337035298348">
        <ele>1071.7280000000001</ele>
        <time>2021-07-10T10:01:13Z</time>
      </trkpt>
      <trkpt lat="41.327642966061831" lon="-3.471204014495015">
        <ele>1071.1700000000001</ele>
        <time>2021-07-10T10:01:15Z</time>
      </trkpt>
      <trkpt lat="41.327851004898548" lon="-3.471073005348444">
        <ele>1070.7629999999999</ele>
        <time>2021-07-10T10:01:16Z</time>
      </trkpt>
      <trkpt lat="41.328233974054456" lon="-3.470834037289023">
        <ele>1070.1969999999999</ele>
        <time>2021-07-10T10:01:18Z</time>
      </trkpt>
      <trkpt lat="41.328627001494169" lon="-3.470595991238952">
        <ele>1069.636</ele>
        <time>2021-07-10T10:01:20Z</time>
      </trkpt>
      <trkpt lat="41.328834034502506" lon="-3.470472022891045">
        <ele>1069.191</ele>
        <time>2021-07-10T10:01:21Z</time>
      </trkpt>
      <trkpt lat="41.329215997830033" lon="-3.470246968790889">
        <ele>1068.8810000000001</ele>
        <time>2021-07-10T10:01:23Z</time>
      </trkpt>
      <trkpt lat="41.329412972554564" lon="-3.470124006271362">
        <ele>1069.019</ele>
        <time>2021-07-10T10:01:25Z</time>
      </trkpt>
      <trkpt lat="41.329797031357884" lon="-3.469879003241658">
        <ele>1069.2080000000001</ele>
        <time>2021-07-10T10:01:27Z</time>
      </trkpt>
      <trkpt lat="41.329990988597274" lon="-3.469769032672048">
        <ele>1068.4359999999999</ele>
        <time>2021-07-10T10:01:29Z</time>
      </trkpt>
      <trkpt lat="41.330377981066704" lon="-3.469537021592259">
        <ele>1068.066</ele>
        <time>2021-07-10T10:01:30Z</time>
      </trkpt>
      <trkpt lat="41.330569004639983" lon="-3.469408024102449">
        <ele>1067.877</ele>
        <time>2021-07-10T10:01:31Z</time>
      </trkpt>
      <trkpt lat="41.330762039870024" lon="-3.469276009127498">
        <ele>1067.3230000000001</ele>
        <time>2021-07-10T10:01:32Z</time>
      </trkpt>
      <trkpt lat="41.331145009025931" lon="-3.469013990834355">
        <ele>1066.825</ele>
        <time>2021-07-10T10:01:34Z</time>
      </trkpt>
      <trkpt lat="41.331340977922082" lon="-3.46889496780932">
        <ele>1066.588</ele>
        <time>2021-07-10T10:01:36Z</time>
      </trkpt>
      <trkpt lat="41.331533007323742" lon="-3.468776028603315">
        <ele>1065.8720000000001</ele>
        <time>2021-07-10T10:01:38Z</time>
      </trkpt>
      <trkpt lat="41.33172101341188" lon="-3.468654993921518">
        <ele>1065.8910000000001</ele>
        <time>2021-07-10T10:01:40Z</time>
      </trkpt>
      <trkpt lat="41.331907007843256" lon="-3.46852901391685">
        <ele>1065.9860000000001</ele>
        <time>2021-07-10T10:01:41Z</time>
      </trkpt>
      <trkpt lat="41.332273967564106" lon="-3.468281999230385">
        <ele>1064.76</ele>
        <time>2021-07-10T10:01:43Z</time>
      </trkpt>
      <trkpt lat="41.332438001409173" lon="-3.468124000355601">
        <ele>1063.5260000000001</ele>
        <time>2021-07-10T10:01:44Z</time>
      </trkpt>
      <trkpt lat="41.332634976133704" lon="-3.468028027564287">
        <ele>1062.9079999999999</ele>
        <time>2021-07-10T10:01:45Z</time>
      </trkpt>
      <trkpt lat="41.333025991916656" lon="-3.467814037576318">
        <ele>1061.915</ele>
        <time>2021-07-10T10:01:46Z</time>
      </trkpt>
      <trkpt lat="41.33322698995471" lon="-3.46771496348083">
        <ele>1060.5550000000001</ele>
        <time>2021-07-10T10:01:48Z</time>
      </trkpt>
      <trkpt lat="41.33363401517272" lon="-3.467517988756299">
        <ele>1059.6859999999999</ele>
        <time>2021-07-10T10:01:50Z</time>
      </trkpt>
      <trkpt lat="41.333839958533645" lon="-3.46741296350956">
        <ele>1059.0519999999999</ele>
        <time>2021-07-10T10:01:51Z</time>
      </trkpt>
      <trkpt lat="41.334238015115261" lon="-3.46715496852994">
        <ele>1058.914</ele>
        <time>2021-07-10T10:01:53Z</time>
      </trkpt>
      <trkpt lat="41.334441024810076" lon="-3.46702597104013">
        <ele>1058.6469999999999</ele>
        <time>2021-07-10T10:01:55Z</time>
      </trkpt>
      <trkpt lat="41.33481502532959" lon="-3.466694969683886">
        <ele>1058.5309999999999</ele>
        <time>2021-07-10T10:01:56Z</time>
      </trkpt>
      <trkpt lat="41.335278963670135" lon="-3.466482991352677">
        <ele>1058.8599999999999</ele>
        <time>2021-07-10T10:01:57Z</time>
      </trkpt>
      <trkpt lat="41.335499994456768" lon="-3.466356005519629">
        <ele>1059.028</ele>
        <time>2021-07-10T10:01:58Z</time>
      </trkpt>
      <trkpt lat="41.335927974432707" lon="-3.466085018590093">
        <ele>1059.3889999999999</ele>
        <time>2021-07-10T10:01:59Z</time>
      </trkpt>
      <trkpt lat="41.336357966065407" lon="-3.465840015560389">
        <ele>1059.317</ele>
        <time>2021-07-10T10:02:01Z</time>
      </trkpt>
      <trkpt lat="41.336571034044027" lon="-3.46571403555572">
        <ele>1059.4079999999999</ele>
        <time>2021-07-10T10:02:03Z</time>
      </trkpt>
      <trkpt lat="41.336989961564541" lon="-3.4654560405761">
        <ele>1059.4190000000001</ele>
        <time>2021-07-10T10:02:05Z</time>
      </trkpt>
      <trkpt lat="41.337367985397577" lon="-3.465146999806166">
        <ele>1059.029</ele>
        <time>2021-07-10T10:02:06Z</time>
      </trkpt>
      <trkpt lat="41.337763024494052" lon="-3.464895039796829">
        <ele>1058.6600000000001</ele>
        <time>2021-07-10T10:02:08Z</time>
      </trkpt>
      <trkpt lat="41.338122021406889" lon="-3.46468398347497">
        <ele>1058.366</ele>
        <time>2021-07-10T10:02:10Z</time>
      </trkpt>
      <trkpt lat="41.338292006403208" lon="-3.464593961834908">
        <ele>1058.1579999999999</ele>
        <time>2021-07-10T10:02:11Z</time>
      </trkpt>
      <trkpt lat="41.338453022763133" lon="-3.464498994871974">
        <ele>1058.2809999999999</ele>
        <time>2021-07-10T10:02:12Z</time>
      </trkpt>
      <trkpt lat="41.338608004152775" lon="-3.464390030130744">
        <ele>1058.4849999999999</ele>
        <time>2021-07-10T10:02:14Z</time>
      </trkpt>
      <trkpt lat="41.338929031044245" lon="-3.464207975193858">
        <ele>1058.664</ele>
        <time>2021-07-10T10:02:15Z</time>
      </trkpt>
      <trkpt lat="41.339252991601825" lon="-3.464079983532429">
        <ele>1058.684</ele>
        <time>2021-07-10T10:02:16Z</time>
      </trkpt>
      <trkpt lat="41.339573012664914" lon="-3.463850989937782">
        <ele>1057.7070000000001</ele>
        <time>2021-07-10T10:02:18Z</time>
      </trkpt>
      <trkpt lat="41.339917005971074" lon="-3.463628031313419">
        <ele>1056.9169999999999</ele>
        <time>2021-07-10T10:02:19Z</time>
      </trkpt>
      <trkpt lat="41.340096965432167" lon="-3.463514037430286">
        <ele>1055.808</ele>
        <time>2021-07-10T10:02:21Z</time>
      </trkpt>
      <trkpt lat="41.340460991486907" lon="-3.463294012472034">
        <ele>1054.5650000000001</ele>
        <time>2021-07-10T10:02:23Z</time>
      </trkpt>
      <trkpt lat="41.340654026716948" lon="-3.463184041902423">
        <ele>1053.5250000000001</ele>
        <time>2021-07-10T10:02:25Z</time>
      </trkpt>
      <trkpt lat="41.34085301309824" lon="-3.463065018877387">
        <ele>1052.7159999999999</ele>
        <time>2021-07-10T10:02:26Z</time>
      </trkpt>
      <trkpt lat="41.341058034449816" lon="-3.462948007509112">
        <ele>1052.452</ele>
        <time>2021-07-10T10:02:27Z</time>
      </trkpt>
      <trkpt lat="41.341467993333936" lon="-3.462703004479408">
        <ele>1051.634</ele>
        <time>2021-07-10T10:02:29Z</time>
      </trkpt>
      <trkpt lat="41.341899996623397" lon="-3.46242698840797">
        <ele>1051.067</ele>
        <time>2021-07-10T10:02:31Z</time>
      </trkpt>
      <trkpt lat="41.34212396107614" lon="-3.462277036160231">
        <ele>1050.481</ele>
        <time>2021-07-10T10:02:32Z</time>
      </trkpt>
      <trkpt lat="41.342577002942562" lon="-3.46195500344038">
        <ele>1050.3199999999999</ele>
        <time>2021-07-10T10:02:33Z</time>
      </trkpt>
      <trkpt lat="41.3430430367589" lon="-3.461617967113853">
        <ele>1049.962</ele>
        <time>2021-07-10T10:02:34Z</time>
      </trkpt>
      <trkpt lat="41.343277981504798" lon="-3.461437001824379">
        <ele>1049.9829999999999</ele>
        <time>2021-07-10T10:02:36Z</time>
      </trkpt>
      <trkpt lat="41.343515021726489" lon="-3.461253019049764">
        <ele>1049.6110000000001</ele>
        <time>2021-07-10T10:02:37Z</time>
      </trkpt>
      <trkpt lat="41.343751978129148" lon="-3.461069958284497">
        <ele>1049.508</ele>
        <time>2021-07-10T10:02:39Z</time>
      </trkpt>
      <trkpt lat="41.343991030007601" lon="-3.460891004651785">
        <ele>1049.2829999999999</ele>
        <time>2021-07-10T10:02:40Z</time>
      </trkpt>
      <trkpt lat="41.344467960298061" lon="-3.460548017174006">
        <ele>1048.943</ele>
        <time>2021-07-10T10:02:41Z</time>
      </trkpt>
      <trkpt lat="41.344927037134767" lon="-3.460205029696226">
        <ele>1048.7840000000001</ele>
        <time>2021-07-10T10:02:42Z</time>
      </trkpt>
      <trkpt lat="41.345373038202524" lon="-3.459864975884557">
        <ele>1048.5699999999999</ele>
        <time>2021-07-10T10:02:43Z</time>
      </trkpt>
      <trkpt lat="41.345590967684984" lon="-3.459703959524632">
        <ele>1048.0119999999999</ele>
        <time>2021-07-10T10:02:45Z</time>
      </trkpt>
      <trkpt lat="41.346035962924361" lon="-3.459367007017136">
        <ele>1047.6949999999999</ele>
        <time>2021-07-10T10:02:47Z</time>
      </trkpt>
      <trkpt lat="41.346463020890951" lon="-3.459046985954046">
        <ele>1047.4190000000001</ele>
        <time>2021-07-10T10:02:49Z</time>
      </trkpt>
      <trkpt lat="41.346699977293611" lon="-3.458869038149715">
        <ele>1047.018</ele>
        <time>2021-07-10T10:02:50Z</time>
      </trkpt>
      <trkpt lat="41.346923019737005" lon="-3.458698969334364">
        <ele>1046.934</ele>
        <time>2021-07-10T10:02:52Z</time>
      </trkpt>
      <trkpt lat="41.347359968349338" lon="-3.458354976028204">
        <ele>1047.155</ele>
        <time>2021-07-10T10:02:54Z</time>
      </trkpt>
      <trkpt lat="41.347589967772365" lon="-3.458179039880633">
        <ele>1047.3099999999999</ele>
        <time>2021-07-10T10:02:56Z</time>
      </trkpt>
      <trkpt lat="41.347833964973688" lon="-3.457992961630225">
        <ele>1046.9079999999999</ele>
        <time>2021-07-10T10:02:57Z</time>
      </trkpt>
      <trkpt lat="41.34826797991991" lon="-3.457661960273981">
        <ele>1046.51</ele>
        <time>2021-07-10T10:02:59Z</time>
      </trkpt>
      <trkpt lat="41.348492028191686" lon="-3.457494992762804">
        <ele>1046.24</ele>
        <time>2021-07-10T10:03:00Z</time>
      </trkpt>
      <trkpt lat="41.348939035087824" lon="-3.457166003063321">
        <ele>1045.5809999999999</ele>
        <time>2021-07-10T10:03:01Z</time>
      </trkpt>
      <trkpt lat="41.349344970658422" lon="-3.456865008920431">
        <ele>1044.857</ele>
        <time>2021-07-10T10:03:03Z</time>
      </trkpt>
      <trkpt lat="41.349761970341206" lon="-3.456555968150497">
        <ele>1044.8489999999999</ele>
        <time>2021-07-10T10:03:05Z</time>
      </trkpt>
      <trkpt lat="41.34996498003602" lon="-3.456405010074377">
        <ele>1044.482</ele>
        <time>2021-07-10T10:03:07Z</time>
      </trkpt>
      <trkpt lat="41.350176958367229" lon="-3.45624097622931">
        <ele>1044.046</ele>
        <time>2021-07-10T10:03:09Z</time>
      </trkpt>
      <trkpt lat="41.350553976371884" lon="-3.455946017056704">
        <ele>1044.075</ele>
        <time>2021-07-10T10:03:11Z</time>
      </trkpt>
      <trkpt lat="41.350947003811598" lon="-3.455650974065065">
        <ele>1043.8689999999999</ele>
        <time>2021-07-10T10:03:12Z</time>
      </trkpt>
      <trkpt lat="41.351140961050987" lon="-3.455505967140198">
        <ele>1043.5039999999999</ele>
        <time>2021-07-10T10:03:13Z</time>
      </trkpt>
      <trkpt lat="41.351336007937789" lon="-3.455361966043711">
        <ele>1042.924</ele>
        <time>2021-07-10T10:03:15Z</time>
      </trkpt>
      <trkpt lat="41.351528037339449" lon="-3.455218970775604">
        <ele>1042.008</ele>
        <time>2021-07-10T10:03:17Z</time>
      </trkpt>
      <trkpt lat="41.351905977353454" lon="-3.454933986067772">
        <ele>1041.4829999999999</ele>
        <time>2021-07-10T10:03:18Z</time>
      </trkpt>
      <trkpt lat="41.352101024240255" lon="-3.454781016334891">
        <ele>1040.5229999999999</ele>
        <time>2021-07-10T10:03:19Z</time>
      </trkpt>
      <trkpt lat="41.352464966475964" lon="-3.454498965293169">
        <ele>1039.8340000000001</ele>
        <time>2021-07-10T10:03:21Z</time>
      </trkpt>
      <trkpt lat="41.352656995877624" lon="-3.454353036358953">
        <ele>1040.4200000000001</ele>
        <time>2021-07-10T10:03:23Z</time>
      </trkpt>
      <trkpt lat="41.352851958945394" lon="-3.454208029434085">
        <ele>1040.452</ele>
        <time>2021-07-10T10:03:25Z</time>
      </trkpt>
      <trkpt lat="41.353049017488956" lon="-3.454063022509217">
        <ele>1039.7750000000001</ele>
        <time>2021-07-10T10:03:26Z</time>
      </trkpt>
      <trkpt lat="41.353256972506642" lon="-3.453908041119576">
        <ele>1038.499</ele>
        <time>2021-07-10T10:03:28Z</time>
      </trkpt>
      <trkpt lat="41.35363700799644" lon="-3.453626995906234">
        <ele>1038.038</ele>
        <time>2021-07-10T10:03:30Z</time>
      </trkpt>
      <trkpt lat="41.35404503904283" lon="-3.45331896096468">
        <ele>1037.7360000000001</ele>
        <time>2021-07-10T10:03:31Z</time>
      </trkpt>
      <trkpt lat="41.354430019855499" lon="-3.453022995963693">
        <ele>1036.9169999999999</ele>
        <time>2021-07-10T10:03:33Z</time>
      </trkpt>
      <trkpt lat="41.354632023721933" lon="-3.452870026230812">
        <ele>1036.4179999999999</ele>
        <time>2021-07-10T10:03:34Z</time>
      </trkpt>
      <trkpt lat="41.355047011747956" lon="-3.452553022652865">
        <ele>1035.6079999999999</ele>
        <time>2021-07-10T10:03:36Z</time>
      </trkpt>
      <trkpt lat="41.355439033359289" lon="-3.452258985489607">
        <ele>1034.8900000000001</ele>
        <time>2021-07-10T10:03:38Z</time>
      </trkpt>
      <trkpt lat="41.35584999807179" lon="-3.451952962204814">
        <ele>1034.0899999999999</ele>
        <time>2021-07-10T10:03:40Z</time>
      </trkpt>
      <trkpt lat="41.356063988059759" lon="-3.451793035492301">
        <ele>1033.0909999999999</ele>
        <time>2021-07-10T10:03:42Z</time>
      </trkpt>
      <trkpt lat="41.35645198635757" lon="-3.451500004157424">
        <ele>1032.4169999999999</ele>
        <time>2021-07-10T10:03:43Z</time>
      </trkpt>
      <trkpt lat="41.356649966910481" lon="-3.451351979747415">
        <ele>1031.0989999999999</ele>
        <time>2021-07-10T10:03:45Z</time>
      </trkpt>
      <trkpt lat="41.356841996312141" lon="-3.451204039156437">
        <ele>1029.8920000000001</ele>
        <time>2021-07-10T10:03:46Z</time>
      </trkpt>
      <trkpt lat="41.357175009325147" lon="-3.450948977842927">
        <ele>1029.5260000000001</ele>
        <time>2021-07-10T10:03:47Z</time>
      </trkpt>
      <trkpt lat="41.357466029003263" lon="-3.450729958713055">
        <ele>1028.9549999999999</ele>
        <time>2021-07-10T10:03:48Z</time>
      </trkpt>
      <trkpt lat="41.357775991782546" lon="-3.450489984825254">
        <ele>1028.1489999999999</ele>
        <time>2021-07-10T10:03:49Z</time>
      </trkpt>
      <trkpt lat="41.358094001188874" lon="-3.450249005109072">
        <ele>1027.702</ele>
        <time>2021-07-10T10:03:51Z</time>
      </trkpt>
      <trkpt lat="41.358437994495034" lon="-3.449995033442974">
        <ele>1027.6220000000001</ele>
        <time>2021-07-10T10:03:52Z</time>
      </trkpt>
      <trkpt lat="41.358617031946778" lon="-3.449863018468022">
        <ele>1028.2080000000001</ele>
        <time>2021-07-10T10:03:54Z</time>
      </trkpt>
      <trkpt lat="41.358819035813212" lon="-3.449711976572871">
        <ele>1028.921</ele>
        <time>2021-07-10T10:03:55Z</time>
      </trkpt>
      <trkpt lat="41.359216002747416" lon="-3.449430009350181">
        <ele>1029.3109999999999</ele>
        <time>2021-07-10T10:03:57Z</time>
      </trkpt>
      <trkpt lat="41.359669966623187" lon="-3.449132032692432">
        <ele>1028.8320000000001</ele>
        <time>2021-07-10T10:03:58Z</time>
      </trkpt>
      <trkpt lat="41.359908012673259" lon="-3.448983002454042">
        <ele>1028.838</ele>
        <time>2021-07-10T10:03:59Z</time>
      </trkpt>
      <trkpt lat="41.360160978510976" lon="-3.448831960558891">
        <ele>1028.4100000000001</ele>
        <time>2021-07-10T10:04:01Z</time>
      </trkpt>
      <trkpt lat="41.360651990398765" lon="-3.448538007214665">
        <ele>1027.5830000000001</ele>
        <time>2021-07-10T10:04:03Z</time>
      </trkpt>
      <trkpt lat="41.361173009499907" lon="-3.448226032778621">
        <ele>1027.7670000000001</ele>
        <time>2021-07-10T10:04:04Z</time>
      </trkpt>
      <trkpt lat="41.361655974760652" lon="-3.447938030585647">
        <ele>1027.5160000000001</ele>
        <time>2021-07-10T10:04:06Z</time>
      </trkpt>
      <trkpt lat="41.361906006932259" lon="-3.447789000347257">
        <ele>1026.8910000000001</ele>
        <time>2021-07-10T10:04:08Z</time>
      </trkpt>
      <trkpt lat="41.362412022426724" lon="-3.44749404117465">
        <ele>1026.3810000000001</ele>
        <time>2021-07-10T10:04:10Z</time>
      </trkpt>
      <trkpt lat="41.362880989909172" lon="-3.44721500761807">
        <ele>1025.519</ele>
        <time>2021-07-10T10:04:12Z</time>
      </trkpt>
      <trkpt lat="41.363123981282115" lon="-3.447067989036441">
        <ele>1025.008</ele>
        <time>2021-07-10T10:04:13Z</time>
      </trkpt>
      <trkpt lat="41.363614993169904" lon="-3.446728019043803">
        <ele>1024.4459999999999</ele>
        <time>2021-07-10T10:04:15Z</time>
      </trkpt>
      <trkpt lat="41.363845998421311" lon="-3.446541018784046">
        <ele>1024.0160000000001</ele>
        <time>2021-07-10T10:04:17Z</time>
      </trkpt>
      <trkpt lat="41.364295016974211" lon="-3.446139022707939">
        <ele>1023.317</ele>
        <time>2021-07-10T10:04:19Z</time>
      </trkpt>
      <trkpt lat="41.364773958921432" lon="-3.445681035518646">
        <ele>1023.013</ele>
        <time>2021-07-10T10:04:21Z</time>
      </trkpt>
      <trkpt lat="41.365237981081009" lon="-3.445237968116999">
        <ele>1023.095</ele>
        <time>2021-07-10T10:04:22Z</time>
      </trkpt>
      <trkpt lat="41.365714995190501" lon="-3.444796996191144">
        <ele>1022.588</ele>
        <time>2021-07-10T10:04:24Z</time>
      </trkpt>
      <trkpt lat="41.365965027362108" lon="-3.444566996768117">
        <ele>1022.222</ele>
        <time>2021-07-10T10:04:25Z</time>
      </trkpt>
      <trkpt lat="41.36639803647995" lon="-3.444155026227236">
        <ele>1021.691</ele>
        <time>2021-07-10T10:04:27Z</time>
      </trkpt>
      <trkpt lat="41.366616971790791" lon="-3.443944975733757">
        <ele>1021.677</ele>
        <time>2021-07-10T10:04:29Z</time>
      </trkpt>
      <trkpt lat="41.366833979263902" lon="-3.44373500905931">
        <ele>1021.1609999999999</ele>
        <time>2021-07-10T10:04:30Z</time>
      </trkpt>
      <trkpt lat="41.367057021707296" lon="-3.443514984101057">
        <ele>1020.027</ele>
        <time>2021-07-10T10:04:32Z</time>
      </trkpt>
      <trkpt lat="41.367270005866885" lon="-3.443301999941468">
        <ele>1019.6079999999999</ele>
        <time>2021-07-10T10:04:33Z</time>
      </trkpt>
      <trkpt lat="41.367656998336315" lon="-3.442892963066697">
        <ele>1018.914</ele>
        <time>2021-07-10T10:04:34Z</time>
      </trkpt>
      <trkpt lat="41.367854978889227" lon="-3.442677967250347">
        <ele>1018.514</ele>
        <time>2021-07-10T10:04:35Z</time>
      </trkpt>
      <trkpt lat="41.368237026035786" lon="-3.442257028073072">
        <ele>1017.785</ele>
        <time>2021-07-10T10:04:37Z</time>
      </trkpt>
      <trkpt lat="41.368423020467162" lon="-3.442047983407974">
        <ele>1017.451</ele>
        <time>2021-07-10T10:04:38Z</time>
      </trkpt>
      <trkpt lat="41.368775982409716" lon="-3.441632995381951">
        <ele>1017.573</ele>
        <time>2021-07-10T10:04:40Z</time>
      </trkpt>
      <trkpt lat="41.368947979062796" lon="-3.441426968201995">
        <ele>1017.246</ele>
        <time>2021-07-10T10:04:42Z</time>
      </trkpt>
      <trkpt lat="41.369126010686159" lon="-3.441226975992322">
        <ele>1017.73</ele>
        <time>2021-07-10T10:04:44Z</time>
      </trkpt>
      <trkpt lat="41.369485007598996" lon="-3.440869990736246">
        <ele>1018.139</ele>
        <time>2021-07-10T10:04:45Z</time>
      </trkpt>
      <trkpt lat="41.369850961491466" lon="-3.440527003258467">
        <ele>1018.025</ele>
        <time>2021-07-10T10:04:47Z</time>
      </trkpt>
      <trkpt lat="41.37005397118628" lon="-3.440351989120245">
        <ele>1017.826</ele>
        <time>2021-07-10T10:04:49Z</time>
      </trkpt>
      <trkpt lat="41.37041699141264" lon="-3.44003900885582">
        <ele>1017.508</ele>
        <time>2021-07-10T10:04:50Z</time>
      </trkpt>
      <trkpt lat="41.370808007195592" lon="-3.439715970307589">
        <ele>1017.508</ele>
        <time>2021-07-10T10:04:52Z</time>
      </trkpt>
      <trkpt lat="41.371207991614938" lon="-3.439399972558022">
        <ele>1016.5890000000001</ele>
        <time>2021-07-10T10:04:54Z</time>
      </trkpt>
      <trkpt lat="41.371616022661328" lon="-3.439082968980074">
        <ele>1016.369</ele>
        <time>2021-07-10T10:04:55Z</time>
      </trkpt>
      <trkpt lat="41.371831018477678" lon="-3.438912983983755">
        <ele>1015.47</ele>
        <time>2021-07-10T10:04:57Z</time>
      </trkpt>
      <trkpt lat="41.372251035645604" lon="-3.43858097679913">
        <ele>1015.056</ele>
        <time>2021-07-10T10:04:58Z</time>
      </trkpt>
      <trkpt lat="41.372662000358105" lon="-3.438264979049563">
        <ele>1014.568</ele>
        <time>2021-07-10T10:05:00Z</time>
      </trkpt>
      <trkpt lat="41.373091991990805" lon="-3.437916040420532">
        <ele>1013.511</ele>
        <time>2021-07-10T10:05:02Z</time>
      </trkpt>
      <trkpt lat="41.373487031087279" lon="-3.437581015750766">
        <ele>1013.475</ele>
        <time>2021-07-10T10:05:03Z</time>
      </trkpt>
      <trkpt lat="41.373687023296952" lon="-3.437407007440925">
        <ele>1013.914</ele>
        <time>2021-07-10T10:05:05Z</time>
      </trkpt>
      <trkpt lat="41.374092036858201" lon="-3.437061002478004">
        <ele>1014.045</ele>
        <time>2021-07-10T10:05:06Z</time>
      </trkpt>
      <trkpt lat="41.37430502101779" lon="-3.436880959197879">
        <ele>1013.847</ele>
        <time>2021-07-10T10:05:08Z</time>
      </trkpt>
      <trkpt lat="41.374694025143981" lon="-3.436558004468679">
        <ele>1013.111</ele>
        <time>2021-07-10T10:05:09Z</time>
      </trkpt>
      <trkpt lat="41.375109013170004" lon="-3.436211999505758">
        <ele>1012.708</ele>
        <time>2021-07-10T10:05:10Z</time>
      </trkpt>
      <trkpt lat="41.375327026471496" lon="-3.436030028387904">
        <ele>1013.151</ele>
        <time>2021-07-10T10:05:11Z</time>
      </trkpt>
      <trkpt lat="41.375717958435416" lon="-3.43569902703166">
        <ele>1012.821</ele>
        <time>2021-07-10T10:05:13Z</time>
      </trkpt>
      <trkpt lat="41.375921973958611" lon="-3.435530969873071">
        <ele>1012.582</ele>
        <time>2021-07-10T10:05:14Z</time>
      </trkpt>
      <trkpt lat="41.37613202445209" lon="-3.43535796739161">
        <ele>1012.188</ele>
        <time>2021-07-10T10:05:15Z</time>
      </trkpt>
      <trkpt lat="41.376336039975286" lon="-3.43518303707242">
        <ele>1011.74</ele>
        <time>2021-07-10T10:05:16Z</time>
      </trkpt>
      <trkpt lat="41.376729989424348" lon="-3.434848012402654">
        <ele>1010.883</ele>
        <time>2021-07-10T10:05:18Z</time>
      </trkpt>
      <trkpt lat="41.376938028261065" lon="-3.434675009921193">
        <ele>1010.157</ele>
        <time>2021-07-10T10:05:19Z</time>
      </trkpt>
      <trkpt lat="41.377362990751863" lon="-3.434326993301511">
        <ele>1009.256</ele>
        <time>2021-07-10T10:05:20Z</time>
      </trkpt>
      <trkpt lat="41.377754006534815" lon="-3.433998003602028">
        <ele>1008.073</ele>
        <time>2021-07-10T10:05:22Z</time>
      </trkpt>
      <trkpt lat="41.378159020096064" lon="-3.43365996144712">
        <ele>1007.485</ele>
        <time>2021-07-10T10:05:23Z</time>
      </trkpt>
      <trkpt lat="41.378368986770511" lon="-3.433483019471169">
        <ele>1007.213</ele>
        <time>2021-07-10T10:05:25Z</time>
      </trkpt>
      <trkpt lat="41.378747010603547" lon="-3.433171967044473">
        <ele>1006.808</ele>
        <time>2021-07-10T10:05:26Z</time>
      </trkpt>
      <trkpt lat="41.379150012508035" lon="-3.432841971516609">
        <ele>1007.314</ele>
        <time>2021-07-10T10:05:28Z</time>
      </trkpt>
      <trkpt lat="41.379369031637907" lon="-3.432661006227136">
        <ele>1007.734</ele>
        <time>2021-07-10T10:05:30Z</time>
      </trkpt>
      <trkpt lat="41.37978401966393" lon="-3.432307038456202">
        <ele>1008.175</ele>
        <time>2021-07-10T10:05:31Z</time>
      </trkpt>
      <trkpt lat="41.380223985761404" lon="-3.431938989087939">
        <ele>1007.111</ele>
        <time>2021-07-10T10:05:33Z</time>
      </trkpt>
      <trkpt lat="41.380458008497953" lon="-3.43174503184855">
        <ele>1005.813</ele>
        <time>2021-07-10T10:05:35Z</time>
      </trkpt>
      <trkpt lat="41.38088297098875" lon="-3.431396009400487">
        <ele>1005.476</ele>
        <time>2021-07-10T10:05:36Z</time>
      </trkpt>
      <trkpt lat="41.381101990118623" lon="-3.431216971948743">
        <ele>1004.54</ele>
        <time>2021-07-10T10:05:38Z</time>
      </trkpt>
      <trkpt lat="41.381542040035129" lon="-3.430861998349428">
        <ele>1004.779</ele>
        <time>2021-07-10T10:05:40Z</time>
      </trkpt>
      <trkpt lat="41.381932971999049" lon="-3.430536026135087">
        <ele>1004.397</ele>
        <time>2021-07-10T10:05:42Z</time>
      </trkpt>
      <trkpt lat="41.382135981693864" lon="-3.430366041138768">
        <ele>1004.023</ele>
        <time>2021-07-10T10:05:44Z</time>
      </trkpt>
      <trkpt lat="41.382543006911874" lon="-3.430024981498718">
        <ele>1003.625</ele>
        <time>2021-07-10T10:05:45Z</time>
      </trkpt>
      <trkpt lat="41.382736964151263" lon="-3.429863965138793">
        <ele>1003.408</ele>
        <time>2021-07-10T10:05:46Z</time>
      </trkpt>
      <trkpt lat="41.383106019347906" lon="-3.429560037329793">
        <ele>1002.276</ele>
        <time>2021-07-10T10:05:47Z</time>
      </trkpt>
      <trkpt lat="41.383296037092805" lon="-3.4294059779495">
        <ele>1001.466</ele>
        <time>2021-07-10T10:05:49Z</time>
      </trkpt>
      <trkpt lat="41.383493011817336" lon="-3.429248984903097">
        <ele>999.86699999999996</ele>
        <time>2021-07-10T10:05:51Z</time>
      </trkpt>
      <trkpt lat="41.38367397710681" lon="-3.429098026826978">
        <ele>998.69299999999998</ele>
        <time>2021-07-10T10:05:52Z</time>
      </trkpt>
      <trkpt lat="41.384020987898111" lon="-3.428817987442017">
        <ele>997.32500000000005</ele>
        <time>2021-07-10T10:05:54Z</time>
      </trkpt>
      <trkpt lat="41.384199019521475" lon="-3.428670968860388">
        <ele>996.46799999999996</ele>
        <time>2021-07-10T10:05:55Z</time>
      </trkpt>
      <trkpt lat="41.384376967325807" lon="-3.42852202244103">
        <ele>996.03200000000004</ele>
        <time>2021-07-10T10:05:57Z</time>
      </trkpt>
      <trkpt lat="41.384558016434312" lon="-3.428378021344543">
        <ele>995.16099999999994</ele>
        <time>2021-07-10T10:05:59Z</time>
      </trkpt>
      <trkpt lat="41.38489798642695" lon="-3.4281350299716">
        <ele>995.61500000000001</ele>
        <time>2021-07-10T10:06:01Z</time>
      </trkpt>
      <trkpt lat="41.385080041363835" lon="-3.428026987239718">
        <ele>996.36500000000001</ele>
        <time>2021-07-10T10:06:02Z</time>
      </trkpt>
      <trkpt lat="41.385265029966831" lon="-3.427937971428037">
        <ele>996.11099999999999</ele>
        <time>2021-07-10T10:06:04Z</time>
      </trkpt>
      <trkpt lat="41.385626960545778" lon="-3.427821965888143">
        <ele>995.80799999999999</ele>
        <time>2021-07-10T10:06:05Z</time>
      </trkpt>
      <trkpt lat="41.385815972462296" lon="-3.42779497615993">
        <ele>995.06799999999998</ele>
        <time>2021-07-10T10:06:06Z</time>
      </trkpt>
      <trkpt lat="41.386213023215532" lon="-3.427786007523537">
        <ele>994.72799999999995</ele>
        <time>2021-07-10T10:06:08Z</time>
      </trkpt>
      <trkpt lat="41.38642399571836" lon="-3.427798999473453">
        <ele>993.86900000000003</ele>
        <time>2021-07-10T10:06:09Z</time>
      </trkpt>
      <trkpt lat="41.38683202676475" lon="-3.4278379753232">
        <ele>993.43499999999995</ele>
        <time>2021-07-10T10:06:10Z</time>
      </trkpt>
      <trkpt lat="41.387263024225831" lon="-3.427884997799993">
        <ele>993.54700000000003</ele>
        <time>2021-07-10T10:06:12Z</time>
      </trkpt>
      <trkpt lat="41.38749897480011" lon="-3.427909975871444">
        <ele>993.59000000000003</ele>
        <time>2021-07-10T10:06:14Z</time>
      </trkpt>
      <trkpt lat="41.387932989746332" lon="-3.427952975034714">
        <ele>993.57399999999996</ele>
        <time>2021-07-10T10:06:15Z</time>
      </trkpt>
      <trkpt lat="41.388391982764006" lon="-3.427997985854745">
        <ele>993.37300000000005</ele>
        <time>2021-07-10T10:06:16Z</time>
      </trkpt>
      <trkpt lat="41.388645032420754" lon="-3.428022963926196">
        <ele>993.29399999999998</ele>
        <time>2021-07-10T10:06:17Z</time>
      </trkpt>
      <trkpt lat="41.389126991853118" lon="-3.428065041080117">
        <ele>993.35699999999997</ele>
        <time>2021-07-10T10:06:19Z</time>
      </trkpt>
      <trkpt lat="41.389634013175964" lon="-3.428108962252736">
        <ele>992.92200000000003</ele>
        <time>2021-07-10T10:06:21Z</time>
      </trkpt>
      <trkpt lat="41.390154026448727" lon="-3.428153973072767">
        <ele>992.20799999999997</ele>
        <time>2021-07-10T10:06:22Z</time>
      </trkpt>
      <trkpt lat="41.390636991709471" lon="-3.428196972236037">
        <ele>991.79600000000005</ele>
        <time>2021-07-10T10:06:23Z</time>
      </trkpt>
      <trkpt lat="41.390884006395936" lon="-3.428218010812998">
        <ele>990.67600000000004</ele>
        <time>2021-07-10T10:06:25Z</time>
      </trkpt>
      <trkpt lat="41.391136972233653" lon="-3.428241983056068">
        <ele>990.28700000000003</ele>
        <time>2021-07-10T10:06:27Z</time>
      </trkpt>
      <trkpt lat="41.391373006626964" lon="-3.428263021633029">
        <ele>990.58299999999997</ele>
        <time>2021-07-10T10:06:28Z</time>
      </trkpt>
      <trkpt lat="41.391823031008244" lon="-3.42830702662468">
        <ele>990.21500000000003</ele>
        <time>2021-07-10T10:06:30Z</time>
      </trkpt>
      <trkpt lat="41.392287975177169" lon="-3.428355976939201">
        <ele>989.32799999999997</ele>
        <time>2021-07-10T10:06:31Z</time>
      </trkpt>
      <trkpt lat="41.392532978206873" lon="-3.428382966667414">
        <ele>988.72199999999998</ele>
        <time>2021-07-10T10:06:32Z</time>
      </trkpt>
      <trkpt lat="41.392986020073295" lon="-3.428433006629348">
        <ele>988.02099999999996</ele>
        <time>2021-07-10T10:06:34Z</time>
      </trkpt>
      <trkpt lat="41.393220964819193" lon="-3.428457984700799">
        <ele>986.96199999999999</ele>
        <time>2021-07-10T10:06:36Z</time>
      </trkpt>
      <trkpt lat="41.393708037212491" lon="-3.428504001349211">
        <ele>986.28300000000002</ele>
        <time>2021-07-10T10:06:37Z</time>
      </trkpt>
      <trkpt lat="41.394151020795107" lon="-3.428551023826003">
        <ele>985.81100000000004</ele>
        <time>2021-07-10T10:06:39Z</time>
      </trkpt>
      <trkpt lat="41.394612025469542" lon="-3.428589999675751">
        <ele>985.30799999999999</ele>
        <time>2021-07-10T10:06:40Z</time>
      </trkpt>
      <trkpt lat="41.39484697021544" lon="-3.42860802076757">
        <ele>985.23299999999995</ele>
        <time>2021-07-10T10:06:41Z</time>
      </trkpt>
      <trkpt lat="41.395289031788707" lon="-3.42863199301064">
        <ele>985.33299999999997</ele>
        <time>2021-07-10T10:06:43Z</time>
      </trkpt>
      <trkpt lat="41.395515007898211" lon="-3.428623024374247">
        <ele>985.47400000000005</ele>
        <time>2021-07-10T10:06:45Z</time>
      </trkpt>
      <trkpt lat="41.395746013149619" lon="-3.428593017160893">
        <ele>985.53999999999996</ele>
        <time>2021-07-10T10:06:46Z</time>
      </trkpt>
      <trkpt lat="41.39619997702539" lon="-3.428457984700799">
        <ele>985.59199999999998</ele>
        <time>2021-07-10T10:06:48Z</time>
      </trkpt>
      <trkpt lat="41.396418996155262" lon="-3.42835295945406">
        <ele>985.96500000000003</ele>
        <time>2021-07-10T10:06:50Z</time>
      </trkpt>
      <trkpt lat="41.396631980314851" lon="-3.428220022469759">
        <ele>985.26900000000001</ele>
        <time>2021-07-10T10:06:52Z</time>
      </trkpt>
      <trkpt lat="41.397030958905816" lon="-3.427884997799993">
        <ele>984.548</ele>
        <time>2021-07-10T10:06:53Z</time>
      </trkpt>
      <trkpt lat="41.397400014102459" lon="-3.427484007552266">
        <ele>983.93899999999996</ele>
        <time>2021-07-10T10:06:55Z</time>
      </trkpt>
      <trkpt lat="41.397582991048694" lon="-3.427271023392677">
        <ele>983.30100000000004</ele>
        <time>2021-07-10T10:06:57Z</time>
      </trkpt>
      <trkpt lat="41.397777032107115" lon="-3.427047980949283">
        <ele>982.62099999999998</ele>
        <time>2021-07-10T10:06:58Z</time>
      </trkpt>
      <trkpt lat="41.397991022095084" lon="-3.426800966262817">
        <ele>982.10799999999995</ele>
        <time>2021-07-10T10:07:00Z</time>
      </trkpt>
      <trkpt lat="41.398421013727784" lon="-3.426326969638467">
        <ele>982.45000000000005</ele>
        <time>2021-07-10T10:07:02Z</time>
      </trkpt>
      <trkpt lat="41.398900961503386" lon="-3.42579698190093">
        <ele>982.59000000000003</ele>
        <time>2021-07-10T10:07:03Z</time>
      </trkpt>
      <trkpt lat="41.399160968139768" lon="-3.425496993586421">
        <ele>982.18100000000004</ele>
        <time>2021-07-10T10:07:05Z</time>
      </trkpt>
      <trkpt lat="41.399408988654613" lon="-3.425202034413815">
        <ele>981.83699999999999</ele>
        <time>2021-07-10T10:07:07Z</time>
      </trkpt>
      <trkpt lat="41.399898994714022" lon="-3.424603985622525">
        <ele>980.779</ele>
        <time>2021-07-10T10:07:08Z</time>
      </trkpt>
      <trkpt lat="41.400385983288288" lon="-3.424032004550099">
        <ele>979.73199999999997</ele>
        <time>2021-07-10T10:07:10Z</time>
      </trkpt>
      <trkpt lat="41.400642972439528" lon="-3.423734027892351">
        <ele>979.15599999999995</ele>
        <time>2021-07-10T10:07:12Z</time>
      </trkpt>
      <trkpt lat="41.401102971285582" lon="-3.423204962164164">
        <ele>978.42499999999995</ele>
        <time>2021-07-10T10:07:13Z</time>
      </trkpt>
      <trkpt lat="41.40133598819375" lon="-3.422932969406247">
        <ele>977.85199999999998</ele>
        <time>2021-07-10T10:07:15Z</time>
      </trkpt>
      <trkpt lat="41.4015700109303" lon="-3.422646978870034">
        <ele>977.45299999999997</ele>
        <time>2021-07-10T10:07:16Z</time>
      </trkpt>
      <trkpt lat="41.401982987299562" lon="-3.422095030546188">
        <ele>977.00800000000004</ele>
        <time>2021-07-10T10:07:17Z</time>
      </trkpt>
      <trkpt lat="41.402379032224417" lon="-3.421531012281776">
        <ele>976.80799999999999</ele>
        <time>2021-07-10T10:07:18Z</time>
      </trkpt>
      <trkpt lat="41.4025819581002" lon="-3.421232029795647">
        <ele>976.66200000000003</ele>
        <time>2021-07-10T10:07:20Z</time>
      </trkpt>
      <trkpt lat="41.402941960841417" lon="-3.42070497572422">
        <ele>975.81200000000001</ele>
        <time>2021-07-10T10:07:22Z</time>
      </trkpt>
      <trkpt lat="41.403128039091825" lon="-3.420436000451446">
        <ele>975.58299999999997</ele>
        <time>2021-07-10T10:07:24Z</time>
      </trkpt>
      <trkpt lat="41.40331101603806" lon="-3.420169958844781">
        <ele>974.98900000000003</ele>
        <time>2021-07-10T10:07:26Z</time>
      </trkpt>
      <trkpt lat="41.403681999072433" lon="-3.419633014127612">
        <ele>974.66099999999994</ele>
        <time>2021-07-10T10:07:27Z</time>
      </trkpt>
      <trkpt lat="41.404013000428677" lon="-3.419172009453178">
        <ele>974.03399999999999</ele>
        <time>2021-07-10T10:07:28Z</time>
      </trkpt>
      <trkpt lat="41.40419002622366" lon="-3.418949972838163">
        <ele>973.65800000000002</ele>
        <time>2021-07-10T10:07:29Z</time>
      </trkpt>
      <trkpt lat="41.404560003429651" lon="-3.418552000075579">
        <ele>973.327</ele>
        <time>2021-07-10T10:07:31Z</time>
      </trkpt>
      <trkpt lat="41.404946995899081" lon="-3.418224016204476">
        <ele>972.96900000000005</ele>
        <time>2021-07-10T10:07:33Z</time>
      </trkpt>
      <trkpt lat="41.405360978096724" lon="-3.41797498986125">
        <ele>973.00400000000002</ele>
        <time>2021-07-10T10:07:34Z</time>
      </trkpt>
      <trkpt lat="41.405582008883357" lon="-3.417868036776781">
        <ele>972.72400000000005</ele>
        <time>2021-07-10T10:07:36Z</time>
      </trkpt>
      <trkpt lat="41.405999008566141" lon="-3.417685981839895">
        <ele>972.70799999999997</ele>
        <time>2021-07-10T10:07:37Z</time>
      </trkpt>
      <trkpt lat="41.406424976885319" lon="-3.417490012943745">
        <ele>972.553</ele>
        <time>2021-07-10T10:07:38Z</time>
      </trkpt>
      <trkpt lat="41.406650030985475" lon="-3.417377024888992">
        <ele>972.97299999999996</ele>
        <time>2021-07-10T10:07:39Z</time>
      </trkpt>
      <trkpt lat="41.407045992091298" lon="-3.417132021859288">
        <ele>973.19399999999996</ele>
        <time>2021-07-10T10:07:41Z</time>
      </trkpt>
      <trkpt lat="41.407439019531012" lon="-3.41681401245296">
        <ele>973.87</ele>
        <time>2021-07-10T10:07:43Z</time>
      </trkpt>
      <trkpt lat="41.40762803144753" lon="-3.416627012193203">
        <ele>974.38199999999995</ele>
        <time>2021-07-10T10:07:45Z</time>
      </trkpt>
      <trkpt lat="41.40797303058207" lon="-3.416203977540135">
        <ele>975.84500000000003</ele>
        <time>2021-07-10T10:07:47Z</time>
      </trkpt>
      <trkpt lat="41.408299002796412" lon="-3.415729980915785">
        <ele>977.53899999999999</ele>
        <time>2021-07-10T10:07:49Z</time>
      </trkpt>
      <trkpt lat="41.408472005277872" lon="-3.415478020906448">
        <ele>978.62800000000004</ele>
        <time>2021-07-10T10:07:51Z</time>
      </trkpt>
      <trkpt lat="41.408783979713917" lon="-3.41503101401031">
        <ele>979.74900000000002</ele>
        <time>2021-07-10T10:07:52Z</time>
      </trkpt>
      <trkpt lat="41.409116992726922" lon="-3.414573026821017">
        <ele>980.40200000000004</ele>
        <time>2021-07-10T10:07:54Z</time>
      </trkpt>
      <trkpt lat="41.409292006865144" lon="-3.414326012134552">
        <ele>981.322</ele>
        <time>2021-07-10T10:07:55Z</time>
      </trkpt>
      <trkpt lat="41.409611022099853" lon="-3.413886968046427">
        <ele>982.70799999999997</ele>
        <time>2021-07-10T10:07:57Z</time>
      </trkpt>
      <trkpt lat="41.409776983782649" lon="-3.4136569686234">
        <ele>983.41099999999994</ele>
        <time>2021-07-10T10:07:58Z</time>
      </trkpt>
      <trkpt lat="41.409942023456097" lon="-3.413429986685515">
        <ele>984.46100000000001</ele>
        <time>2021-07-10T10:07:59Z</time>
      </trkpt>
      <trkpt lat="41.410105973482132" lon="-3.413206022232771">
        <ele>985.84199999999998</ele>
        <time>2021-07-10T10:08:00Z</time>
      </trkpt>
      <trkpt lat="41.410427000373602" lon="-3.412762032821775">
        <ele>987.08799999999997</ele>
        <time>2021-07-10T10:08:02Z</time>
      </trkpt>
      <trkpt lat="41.410747021436691" lon="-3.412313014268875">
        <ele>987.94000000000005</ele>
        <time>2021-07-10T10:08:04Z</time>
      </trkpt>
      <trkpt lat="41.411080034449697" lon="-3.411847986280918">
        <ele>989.15300000000002</ele>
        <time>2021-07-10T10:08:06Z</time>
      </trkpt>
      <trkpt lat="41.411382034420967" lon="-3.41142101213336">
        <ele>989.947</ele>
        <time>2021-07-10T10:08:08Z</time>
      </trkpt>
      <trkpt lat="41.411538021638989" lon="-3.411199981346726">
        <ele>990.67600000000004</ele>
        <time>2021-07-10T10:08:09Z</time>
      </trkpt>
      <trkpt lat="41.411693003028631" lon="-3.410982973873615">
        <ele>992.03800000000001</ele>
        <time>2021-07-10T10:08:10Z</time>
      </trkpt>
      <trkpt lat="41.411854019388556" lon="-3.410756997764111">
        <ele>993.47000000000003</ele>
        <time>2021-07-10T10:08:12Z</time>
      </trkpt>
      <trkpt lat="41.41214101575315" lon="-3.410355001688004">
        <ele>994.11699999999996</ele>
        <time>2021-07-10T10:08:14Z</time>
      </trkpt>
      <trkpt lat="41.412451984360814" lon="-3.40996197424829">
        <ele>994.50800000000004</ele>
        <time>2021-07-10T10:08:15Z</time>
      </trkpt>
      <trkpt lat="41.412620963528752" lon="-3.409772962331772">
        <ele>994.91999999999996</ele>
        <time>2021-07-10T10:08:17Z</time>
      </trkpt>
      <trkpt lat="41.412959005683661" lon="-3.409447995945811">
        <ele>995.32000000000005</ele>
        <time>2021-07-10T10:08:18Z</time>
      </trkpt>
      <trkpt lat="41.413142988458276" lon="-3.409297959879041">
        <ele>995.81100000000004</ele>
        <time>2021-07-10T10:08:19Z</time>
      </trkpt>
      <trkpt lat="41.413330994546413" lon="-3.40916502289474">
        <ele>996.02700000000004</ele>
        <time>2021-07-10T10:08:20Z</time>
      </trkpt>
      <trkpt lat="41.413534004241228" lon="-3.409042982384563">
        <ele>996.23900000000003</ele>
        <time>2021-07-10T10:08:22Z</time>
      </trkpt>
      <trkpt lat="41.413908004760742" lon="-3.408856987953186">
        <ele>996.13199999999995</ele>
        <time>2021-07-10T10:08:24Z</time>
      </trkpt>
      <trkpt lat="41.414310000836849" lon="-3.408702006563544">
        <ele>996.67600000000004</ele>
        <time>2021-07-10T10:08:25Z</time>
      </trkpt>
      <trkpt lat="41.414733035489917" lon="-3.408578960224986">
        <ele>996.72500000000002</ele>
        <time>2021-07-10T10:08:27Z</time>
      </trkpt>
      <trkpt lat="41.415137965232134" lon="-3.408463038504124">
        <ele>997.22500000000002</ele>
        <time>2021-07-10T10:08:28Z</time>
      </trkpt>
      <trkpt lat="41.415566029027104" lon="-3.408332029357553">
        <ele>996.62599999999998</ele>
        <time>2021-07-10T10:08:29Z</time>
      </trkpt>
      <trkpt lat="41.415941035374999" lon="-3.408186016604304">
        <ele>995.70799999999997</ele>
        <time>2021-07-10T10:08:31Z</time>
      </trkpt>
      <trkpt lat="41.416133986786008" lon="-3.408088032156229">
        <ele>994.90800000000002</ele>
        <time>2021-07-10T10:08:33Z</time>
      </trkpt>
      <trkpt lat="41.416511004790664" lon="-3.407857026904821">
        <ele>993.88900000000001</ele>
        <time>2021-07-10T10:08:35Z</time>
      </trkpt>
      <trkpt lat="41.416707979515195" lon="-3.407711014151573">
        <ele>993.04899999999998</ele>
        <time>2021-07-10T10:08:36Z</time>
      </trkpt>
      <trkpt lat="41.417052978649735" lon="-3.407398033887148">
        <ele>992.21000000000004</ele>
        <time>2021-07-10T10:08:37Z</time>
      </trkpt>
      <trkpt lat="41.417225981131196" lon="-3.407214973121882">
        <ele>991.18600000000004</ele>
        <time>2021-07-10T10:08:39Z</time>
      </trkpt>
      <trkpt lat="41.417396971955895" lon="-3.40701799839735">
        <ele>990.39800000000002</ele>
        <time>2021-07-10T10:08:40Z</time>
      </trkpt>
      <trkpt lat="41.417569974437356" lon="-3.406805014237762">
        <ele>989.351</ele>
        <time>2021-07-10T10:08:41Z</time>
      </trkpt>
      <trkpt lat="41.417866023257375" lon="-3.406379967927933">
        <ele>988.14499999999998</ele>
        <time>2021-07-10T10:08:43Z</time>
      </trkpt>
      <trkpt lat="41.418141033500433" lon="-3.405893985182047">
        <ele>986.92399999999998</ele>
        <time>2021-07-10T10:08:45Z</time>
      </trkpt>
      <trkpt lat="41.418380001559854" lon="-3.405355028808117">
        <ele>986.07500000000005</ele>
        <time>2021-07-10T10:08:46Z</time>
      </trkpt>
      <trkpt lat="41.418583011254668" lon="-3.404770977795124">
        <ele>984.928</ele>
        <time>2021-07-10T10:08:48Z</time>
      </trkpt>
      <trkpt lat="41.41867202706635" lon="-3.404465960338712">
        <ele>984.12</ele>
        <time>2021-07-10T10:08:49Z</time>
      </trkpt>
      <trkpt lat="41.418760959059" lon="-3.404134958982468">
        <ele>982.90800000000002</ele>
        <time>2021-07-10T10:08:51Z</time>
      </trkpt>
      <trkpt lat="41.418921975418925" lon="-3.403518972918391">
        <ele>981.87400000000002</ele>
        <time>2021-07-10T10:08:52Z</time>
      </trkpt>
      <trkpt lat="41.419091038405895" lon="-3.402866022661328">
        <ele>981.17399999999998</ele>
        <time>2021-07-10T10:08:54Z</time>
      </trkpt>
      <trkpt lat="41.419183993712068" lon="-3.40252404101193">
        <ele>980.38499999999999</ele>
        <time>2021-07-10T10:08:55Z</time>
      </trkpt>
      <trkpt lat="41.419354984536767" lon="-3.401892967522144">
        <ele>979.04100000000005</ele>
        <time>2021-07-10T10:08:56Z</time>
      </trkpt>
      <trkpt lat="41.419441988691688" lon="-3.40155903249979">
        <ele>978.21299999999997</ele>
        <time>2021-07-10T10:08:58Z</time>
      </trkpt>
      <trkpt lat="41.419529998674989" lon="-3.401225013658404">
        <ele>977.39599999999996</ele>
        <time>2021-07-10T10:09:00Z</time>
      </trkpt>
      <trkpt lat="41.419625971466303" lon="-3.400875991210342">
        <ele>976.21000000000004</ele>
        <time>2021-07-10T10:09:02Z</time>
      </trkpt>
      <trkpt lat="41.419797968119383" lon="-3.40024801902473">
        <ele>975.94899999999996</ele>
        <time>2021-07-10T10:09:03Z</time>
      </trkpt>
      <trkpt lat="41.419968958944082" lon="-3.399604959413409">
        <ele>975.726</ele>
        <time>2021-07-10T10:09:05Z</time>
      </trkpt>
      <trkpt lat="41.420058980584145" lon="-3.399269012734294">
        <ele>975.447</ele>
        <time>2021-07-10T10:09:06Z</time>
      </trkpt>
      <trkpt lat="41.420232988893986" lon="-3.398660989478231">
        <ele>975.91099999999994</ele>
        <time>2021-07-10T10:09:08Z</time>
      </trkpt>
      <trkpt lat="41.420331979170442" lon="-3.398348009213805">
        <ele>976.90800000000002</ele>
        <time>2021-07-10T10:09:10Z</time>
      </trkpt>
      <trkpt lat="41.420437004417181" lon="-3.398041985929012">
        <ele>977.63900000000001</ele>
        <time>2021-07-10T10:09:12Z</time>
      </trkpt>
      <trkpt lat="41.420669015496969" lon="-3.397449972108007">
        <ele>978.399</ele>
        <time>2021-07-10T10:09:13Z</time>
      </trkpt>
      <trkpt lat="41.42092801630497" lon="-3.396884026005864">
        <ele>978.74000000000001</ele>
        <time>2021-07-10T10:09:15Z</time>
      </trkpt>
      <trkpt lat="41.421220963820815" lon="-3.396340040490031">
        <ele>978.65599999999995</ele>
        <time>2021-07-10T10:09:16Z</time>
      </trkpt>
      <trkpt lat="41.42138097435236" lon="-3.396072993054986">
        <ele>979.28800000000001</ele>
        <time>2021-07-10T10:09:17Z</time>
      </trkpt>
      <trkpt lat="41.421550959348679" lon="-3.395809968933463">
        <ele>980.21100000000001</ele>
        <time>2021-07-10T10:09:19Z</time>
      </trkpt>
      <trkpt lat="41.421907022595406" lon="-3.395315017551184">
        <ele>981.17499999999995</ele>
        <time>2021-07-10T10:09:20Z</time>
      </trkpt>
      <trkpt lat="41.42211196012795" lon="-3.39505098760128">
        <ele>981.71400000000006</ele>
        <time>2021-07-10T10:09:21Z</time>
      </trkpt>
      <trkpt lat="41.422306001186371" lon="-3.394807996228337">
        <ele>982.26099999999997</ele>
        <time>2021-07-10T10:09:22Z</time>
      </trkpt>
      <trkpt lat="41.422682013362646" lon="-3.39432000182569">
        <ele>983.62099999999998</ele>
        <time>2021-07-10T10:09:24Z</time>
      </trkpt>
      <trkpt lat="41.423075962811708" lon="-3.393796971067786">
        <ele>984.71299999999997</ele>
        <time>2021-07-10T10:09:26Z</time>
      </trkpt>
      <trkpt lat="41.423287019133568" lon="-3.393522966653109">
        <ele>986.20799999999997</ele>
        <time>2021-07-10T10:09:28Z</time>
      </trkpt>
      <trkpt lat="41.423681974411011" lon="-3.393012005835772">
        <ele>987.86300000000006</ele>
        <time>2021-07-10T10:09:30Z</time>
      </trkpt>
      <trkpt lat="41.423888001590967" lon="-3.392743030562997">
        <ele>989.48299999999995</ele>
        <time>2021-07-10T10:09:31Z</time>
      </trkpt>
      <trkpt lat="41.424296032637358" lon="-3.392203990370035">
        <ele>990.82399999999996</ele>
        <time>2021-07-10T10:09:33Z</time>
      </trkpt>
      <trkpt lat="41.424498958513141" lon="-3.391931997612119">
        <ele>992.17999999999995</ele>
        <time>2021-07-10T10:09:35Z</time>
      </trkpt>
      <trkpt lat="41.424912018701434" lon="-3.391399998217821">
        <ele>993.13199999999995</ele>
        <time>2021-07-10T10:09:36Z</time>
      </trkpt>
      <trkpt lat="41.425117962062359" lon="-3.391134962439537">
        <ele>994.22500000000002</ele>
        <time>2021-07-10T10:09:37Z</time>
      </trkpt>
      <trkpt lat="41.425319965928793" lon="-3.390871016308665">
        <ele>995.65899999999999</ele>
        <time>2021-07-10T10:09:39Z</time>
      </trkpt>
      <trkpt lat="41.425713999196887" lon="-3.390352008864284">
        <ele>997.46799999999996</ele>
        <time>2021-07-10T10:09:41Z</time>
      </trkpt>
      <trkpt lat="41.426095962524414" lon="-3.389839958399534">
        <ele>998.61900000000003</ele>
        <time>2021-07-10T10:09:42Z</time>
      </trkpt>
      <trkpt lat="41.42647298052907" lon="-3.389349030330777">
        <ele>999.50900000000001</ele>
        <time>2021-07-10T10:09:44Z</time>
      </trkpt>
      <trkpt lat="41.426657969132066" lon="-3.389106038957834">
        <ele>1000.519</ele>
        <time>2021-07-10T10:09:46Z</time>
      </trkpt>
      <trkpt lat="41.427015960216522" lon="-3.38862500153482">
        <ele>1001.808</ele>
        <time>2021-07-10T10:09:47Z</time>
      </trkpt>
      <trkpt lat="41.427198015153408" lon="-3.388377986848354">
        <ele>1003.7380000000001</ele>
        <time>2021-07-10T10:09:49Z</time>
      </trkpt>
      <trkpt lat="41.42754502594471" lon="-3.387912036851049">
        <ele>1005.378</ele>
        <time>2021-07-10T10:09:50Z</time>
      </trkpt>
      <trkpt lat="41.42786898650229" lon="-3.387434016913176">
        <ele>1007.329</ele>
        <time>2021-07-10T10:09:52Z</time>
      </trkpt>
      <trkpt lat="41.428156988695264" lon="-3.386937975883484">
        <ele>1009.265</ele>
        <time>2021-07-10T10:09:54Z</time>
      </trkpt>
      <trkpt lat="41.428287997841835" lon="-3.386677969247103">
        <ele>1010.477</ele>
        <time>2021-07-10T10:09:55Z</time>
      </trkpt>
      <trkpt lat="41.428537024185061" lon="-3.386148987337947">
        <ele>1011.71</ele>
        <time>2021-07-10T10:09:56Z</time>
      </trkpt>
      <trkpt lat="41.428658980876207" lon="-3.385859979316592">
        <ele>1013.434</ele>
        <time>2021-07-10T10:09:58Z</time>
      </trkpt>
      <trkpt lat="41.428770963102579" lon="-3.385593015700579">
        <ele>1015.2329999999999</ele>
        <time>2021-07-10T10:10:00Z</time>
      </trkpt>
      <trkpt lat="41.428967015817761" lon="-3.385075014084578">
        <ele>1016.593</ele>
        <time>2021-07-10T10:10:01Z</time>
      </trkpt>
      <trkpt lat="41.429057037457824" lon="-3.384805032983422">
        <ele>1017.665</ele>
        <time>2021-07-10T10:10:02Z</time>
      </trkpt>
      <trkpt lat="41.429141024127603" lon="-3.384531028568745">
        <ele>1019.621</ele>
        <time>2021-07-10T10:10:04Z</time>
      </trkpt>
      <trkpt lat="41.429218975827098" lon="-3.384266998618841">
        <ele>1021.1079999999999</ele>
        <time>2021-07-10T10:10:05Z</time>
      </trkpt>
      <trkpt lat="41.429346967488527" lon="-3.383759977295995">
        <ele>1022.946</ele>
        <time>2021-07-10T10:10:07Z</time>
      </trkpt>
      <trkpt lat="41.42946096137166" lon="-3.383207023143768">
        <ele>1025.4860000000001</ele>
        <time>2021-07-10T10:10:09Z</time>
      </trkpt>
      <trkpt lat="41.429549977183342" lon="-3.382678963243961">
        <ele>1027.1669999999999</ele>
        <time>2021-07-10T10:10:10Z</time>
      </trkpt>
      <trkpt lat="41.429619966074824" lon="-3.382105976343155">
        <ele>1028.7529999999999</ele>
        <time>2021-07-10T10:10:11Z</time>
      </trkpt>
      <trkpt lat="41.429649973288178" lon="-3.381804982200265">
        <ele>1029.595</ele>
        <time>2021-07-10T10:10:12Z</time>
      </trkpt>
      <trkpt lat="41.429687021300197" lon="-3.381231995299459">
        <ele>1030.6379999999999</ele>
        <time>2021-07-10T10:10:14Z</time>
      </trkpt>
      <trkpt lat="41.429721973836422" lon="-3.380661020055413">
        <ele>1031.5419999999999</ele>
        <time>2021-07-10T10:10:15Z</time>
      </trkpt>
      <trkpt lat="41.42973898909986" lon="-3.380377041175962">
        <ele>1032.251</ele>
        <time>2021-07-10T10:10:16Z</time>
      </trkpt>
      <trkpt lat="41.429753992706537" lon="-3.38007403537631">
        <ele>1032.683</ele>
        <time>2021-07-10T10:10:18Z</time>
      </trkpt>
      <trkpt lat="41.42978198826313" lon="-3.379514962434769">
        <ele>1032.925</ele>
        <time>2021-07-10T10:10:20Z</time>
      </trkpt>
      <trkpt lat="41.429822975769639" lon="-3.378925966098905">
        <ele>1032.7170000000001</ele>
        <time>2021-07-10T10:10:21Z</time>
      </trkpt>
      <trkpt lat="41.42984502017498" lon="-3.378625977784395">
        <ele>1032.4079999999999</ele>
        <time>2021-07-10T10:10:22Z</time>
      </trkpt>
      <trkpt lat="41.429883996024728" lon="-3.378046033903956">
        <ele>1031.9349999999999</ele>
        <time>2021-07-10T10:10:24Z</time>
      </trkpt>
      <trkpt lat="41.429920960217714" lon="-3.377443961799145">
        <ele>1031.365</ele>
        <time>2021-07-10T10:10:25Z</time>
      </trkpt>
      <trkpt lat="41.429944010451436" lon="-3.377120001241565">
        <ele>1030.866</ele>
        <time>2021-07-10T10:10:26Z</time>
      </trkpt>
      <trkpt lat="41.429982986301184" lon="-3.376517007127404">
        <ele>1029.742</ele>
        <time>2021-07-10T10:10:28Z</time>
      </trkpt>
      <trkpt lat="41.430006036534905" lon="-3.376200003549457">
        <ele>1028.0840000000001</ele>
        <time>2021-07-10T10:10:30Z</time>
      </trkpt>
      <trkpt lat="41.430061021819711" lon="-3.37554001249373">
        <ele>1026.2170000000001</ele>
        <time>2021-07-10T10:10:32Z</time>
      </trkpt>
      <trkpt lat="41.430121036246419" lon="-3.374910028651357">
        <ele>1024.751</ele>
        <time>2021-07-10T10:10:33Z</time>
      </trkpt>
      <trkpt lat="41.430161017924547" lon="-3.374577015638351">
        <ele>1022.92</ele>
        <time>2021-07-10T10:10:35Z</time>
      </trkpt>
      <trkpt lat="41.430205022916198" lon="-3.374240985140204">
        <ele>1020.755</ele>
        <time>2021-07-10T10:10:37Z</time>
      </trkpt>
      <trkpt lat="41.430308958515525" lon="-3.373561967164278">
        <ele>1018.5069999999999</ele>
        <time>2021-07-10T10:10:39Z</time>
      </trkpt>
      <trkpt lat="41.430434016510844" lon="-3.372884038835764">
        <ele>1016.117</ele>
        <time>2021-07-10T10:10:41Z</time>
      </trkpt>
      <trkpt lat="41.430505011230707" lon="-3.372540967538953">
        <ele>1014.408</ele>
        <time>2021-07-10T10:10:43Z</time>
      </trkpt>
      <trkpt lat="41.430584974586964" lon="-3.372179958969355">
        <ele>1013.752</ele>
        <time>2021-07-10T10:10:45Z</time>
      </trkpt>
      <trkpt lat="41.43074800260365" lon="-3.371530026197434">
        <ele>1013.452</ele>
        <time>2021-07-10T10:10:46Z</time>
      </trkpt>
      <trkpt lat="41.430835006758571" lon="-3.371191984042525">
        <ele>1013.083</ele>
        <time>2021-07-10T10:10:47Z</time>
      </trkpt>
      <trkpt lat="41.431032987311482" lon="-3.370538027957082">
        <ele>1012.929</ele>
        <time>2021-07-10T10:10:48Z</time>
      </trkpt>
      <trkpt lat="41.431243037804961" lon="-3.369892034679651">
        <ele>1012.521</ele>
        <time>2021-07-10T10:10:50Z</time>
      </trkpt>
      <trkpt lat="41.431353008374572" lon="-3.369576036930084">
        <ele>1011.734</ele>
        <time>2021-07-10T10:10:52Z</time>
      </trkpt>
      <trkpt lat="41.431461973115802" lon="-3.369254004210234">
        <ele>1011.948</ele>
        <time>2021-07-10T10:10:54Z</time>
      </trkpt>
      <trkpt lat="41.431576972827315" lon="-3.368933983147144">
        <ele>1012.357</ele>
        <time>2021-07-10T10:10:55Z</time>
      </trkpt>
      <trkpt lat="41.431803032755852" lon="-3.368306010961533">
        <ele>1012.551</ele>
        <time>2021-07-10T10:10:57Z</time>
      </trkpt>
      <trkpt lat="41.431920966133475" lon="-3.367995964363217">
        <ele>1012.901</ele>
        <time>2021-07-10T10:10:58Z</time>
      </trkpt>
      <trkpt lat="41.432040994986892" lon="-3.367683989927173">
        <ele>1013.511</ele>
        <time>2021-07-10T10:11:00Z</time>
      </trkpt>
      <trkpt lat="41.432291027158499" lon="-3.367088036611676">
        <ele>1015.008</ele>
        <time>2021-07-10T10:11:02Z</time>
      </trkpt>
      <trkpt lat="41.432521026581526" lon="-3.366470038890839">
        <ele>1016.572</ele>
        <time>2021-07-10T10:11:03Z</time>
      </trkpt>
      <trkpt lat="41.432635020464659" lon="-3.366155968979001">
        <ele>1017.852</ele>
        <time>2021-07-10T10:11:04Z</time>
      </trkpt>
      <trkpt lat="41.432752031832933" lon="-3.365837037563324">
        <ele>1019.323</ele>
        <time>2021-07-10T10:11:06Z</time>
      </trkpt>
      <trkpt lat="41.432975996285677" lon="-3.365178974345326">
        <ele>1021.119</ele>
        <time>2021-07-10T10:11:08Z</time>
      </trkpt>
      <trkpt lat="41.43309099599719" lon="-3.364845039322972">
        <ele>1022.441</ele>
        <time>2021-07-10T10:11:09Z</time>
      </trkpt>
      <trkpt lat="41.433205995708704" lon="-3.364505991339684">
        <ele>1024.164</ele>
        <time>2021-07-10T10:11:11Z</time>
      </trkpt>
      <trkpt lat="41.433409005403519" lon="-3.3638109639287">
        <ele>1025.4680000000001</ele>
        <time>2021-07-10T10:11:13Z</time>
      </trkpt>
      <trkpt lat="41.433631964027882" lon="-3.363132029771805">
        <ele>1026.4870000000001</ele>
        <time>2021-07-10T10:11:14Z</time>
      </trkpt>
      <trkpt lat="41.433881996199489" lon="-3.362468015402556">
        <ele>1027.6369999999999</ele>
        <time>2021-07-10T10:11:16Z</time>
      </trkpt>
      <trkpt lat="41.434009987860918" lon="-3.36213500238955">
        <ele>1028.9490000000001</ele>
        <time>2021-07-10T10:11:18Z</time>
      </trkpt>
      <trkpt lat="41.434268988668919" lon="-3.361477022990584">
        <ele>1029.913</ele>
        <time>2021-07-10T10:11:20Z</time>
      </trkpt>
      <trkpt lat="41.434531006962061" lon="-3.360813008621335">
        <ele>1031.1079999999999</ele>
        <time>2021-07-10T10:11:22Z</time>
      </trkpt>
      <trkpt lat="41.434784978628159" lon="-3.360132984817028">
        <ele>1032.1300000000001</ele>
        <time>2021-07-10T10:11:23Z</time>
      </trkpt>
      <trkpt lat="41.435031993314624" lon="-3.359421025961638">
        <ele>1032.97</ele>
        <time>2021-07-10T10:11:24Z</time>
      </trkpt>
      <trkpt lat="41.435104999691248" lon="-3.358579985797405">
        <ele>1033.8510000000001</ele>
        <time>2021-07-10T10:11:25Z</time>
      </trkpt>
      <trkpt lat="41.435198038816452" lon="-3.357764007523656">
        <ele>1034.7370000000001</ele>
        <time>2021-07-10T10:11:26Z</time>
      </trkpt>
      <trkpt lat="41.435275990515947" lon="-3.357371985912323">
        <ele>1035.8589999999999</ele>
        <time>2021-07-10T10:11:27Z</time>
      </trkpt>
      <trkpt lat="41.435369029641151" lon="-3.356992034241557">
        <ele>1037.5319999999999</ele>
        <time>2021-07-10T10:11:29Z</time>
      </trkpt>
      <trkpt lat="41.435485035181046" lon="-3.356602024286985">
        <ele>1039.4259999999999</ele>
        <time>2021-07-10T10:11:31Z</time>
      </trkpt>
      <trkpt lat="41.435701036825776" lon="-3.355888975784183">
        <ele>1041.395</ele>
        <time>2021-07-10T10:11:33Z</time>
      </trkpt>
      <trkpt lat="41.435931036248803" lon="-3.355142986401916">
        <ele>1042.8710000000001</ele>
        <time>2021-07-10T10:11:34Z</time>
      </trkpt>
      <trkpt lat="41.436153994873166" lon="-3.354412000626326">
        <ele>1044.3409999999999</ele>
        <time>2021-07-10T10:11:36Z</time>
      </trkpt>
      <trkpt lat="41.436262959614396" lon="-3.354050992056727">
        <ele>1045.615</ele>
        <time>2021-07-10T10:11:38Z</time>
      </trkpt>
      <trkpt lat="41.436479967087507" lon="-3.353334004059434">
        <ele>1047.1079999999999</ele>
        <time>2021-07-10T10:11:39Z</time>
      </trkpt>
      <trkpt lat="41.436592033132911" lon="-3.352968972176313">
        <ele>1047.864</ele>
        <time>2021-07-10T10:11:40Z</time>
      </trkpt>
      <trkpt lat="41.436799988150597" lon="-3.352261958643794">
        <ele>1048.7339999999999</ele>
        <time>2021-07-10T10:11:42Z</time>
      </trkpt>
      <trkpt lat="41.436967961490154" lon="-3.351514041423798">
        <ele>1049.7650000000001</ele>
        <time>2021-07-10T10:11:43Z</time>
      </trkpt>
      <trkpt lat="41.437029987573624" lon="-3.351125959306955">
        <ele>1050.5809999999999</ele>
        <time>2021-07-10T10:11:45Z</time>
      </trkpt>
      <trkpt lat="41.437082961201668" lon="-3.350718012079597">
        <ele>1051.5129999999999</ele>
        <time>2021-07-10T10:11:46Z</time>
      </trkpt>
      <trkpt lat="41.437189998105168" lon="-3.349966993555427">
        <ele>1052.4960000000001</ele>
        <time>2021-07-10T10:11:47Z</time>
      </trkpt>
      <trkpt lat="41.437330981716514" lon="-3.349175993353128">
        <ele>1053.8499999999999</ele>
        <time>2021-07-10T10:11:49Z</time>
      </trkpt>
      <trkpt lat="41.437413040548563" lon="-3.348767040297389">
        <ele>1055.499</ele>
        <time>2021-07-10T10:11:50Z</time>
      </trkpt>
      <trkpt lat="41.437567016109824" lon="-3.347989032045007">
        <ele>1056.816</ele>
        <time>2021-07-10T10:11:51Z</time>
      </trkpt>
      <trkpt lat="41.437726020812988" lon="-3.347211023792625">
        <ele>1057.9760000000001</ele>
        <time>2021-07-10T10:11:53Z</time>
      </trkpt>
      <trkpt lat="41.437806989997625" lon="-3.346807016059756">
        <ele>1058.913</ele>
        <time>2021-07-10T10:11:55Z</time>
      </trkpt>
      <trkpt lat="41.43794696778059" lon="-3.346111988648772">
        <ele>1059.2080000000001</ele>
        <time>2021-07-10T10:11:56Z</time>
      </trkpt>
      <trkpt lat="41.438107984140515" lon="-3.34544001147151">
        <ele>1059.798</ele>
        <time>2021-07-10T10:11:57Z</time>
      </trkpt>
      <trkpt lat="41.438333038240671" lon="-3.344815978780389">
        <ele>1060.258</ele>
        <time>2021-07-10T10:11:59Z</time>
      </trkpt>
      <trkpt lat="41.438621962442994" lon="-3.344337036833167">
        <ele>1060.779</ele>
        <time>2021-07-10T10:12:00Z</time>
      </trkpt>
      <trkpt lat="41.438807034865022" lon="-3.344139978289604">
        <ele>1061.4349999999999</ele>
        <time>2021-07-10T10:12:01Z</time>
      </trkpt>
      <trkpt lat="41.439005015417933" lon="-3.343951972201467">
        <ele>1062.077</ele>
        <time>2021-07-10T10:12:02Z</time>
      </trkpt>
      <trkpt lat="41.439219005405903" lon="-3.343791039660573">
        <ele>1062.5599999999999</ele>
        <time>2021-07-10T10:12:03Z</time>
      </trkpt>
      <trkpt lat="41.439442969858646" lon="-3.343661958351731">
        <ele>1063.674</ele>
        <time>2021-07-10T10:12:05Z</time>
      </trkpt>
      <trkpt lat="41.439672969281673" lon="-3.343562968075275">
        <ele>1064.2829999999999</ele>
        <time>2021-07-10T10:12:07Z</time>
      </trkpt>
      <trkpt lat="41.440170016139746" lon="-3.343417961150408">
        <ele>1064.6890000000001</ele>
        <time>2021-07-10T10:12:08Z</time>
      </trkpt>
      <trkpt lat="41.440660022199154" lon="-3.343294998630881">
        <ele>1065.0060000000001</ele>
        <time>2021-07-10T10:12:09Z</time>
      </trkpt>
      <trkpt lat="41.441143993288279" lon="-3.343166001141071">
        <ele>1065.326</ele>
        <time>2021-07-10T10:12:10Z</time>
      </trkpt>
      <trkpt lat="41.441386984661222" lon="-3.343100035563111">
        <ele>1065.808</ele>
        <time>2021-07-10T10:12:12Z</time>
      </trkpt>
      <trkpt lat="41.441810019314289" lon="-3.342980006709695">
        <ele>1066.2449999999999</ele>
        <time>2021-07-10T10:12:13Z</time>
      </trkpt>
      <trkpt lat="41.442245962098241" lon="-3.342857966199517">
        <ele>1066.7349999999999</ele>
        <time>2021-07-10T10:12:15Z</time>
      </trkpt>
      <trkpt lat="41.442464981228113" lon="-3.34279702976346">
        <ele>1067.1559999999999</ele>
        <time>2021-07-10T10:12:16Z</time>
      </trkpt>
      <trkpt lat="41.442695986479521" lon="-3.34273299202323">
        <ele>1067.5219999999999</ele>
        <time>2021-07-10T10:12:18Z</time>
      </trkpt>
      <trkpt lat="41.443132013082504" lon="-3.34260399453342">
        <ele>1067.7639999999999</ele>
        <time>2021-07-10T10:12:19Z</time>
      </trkpt>
      <trkpt lat="41.44336000084877" lon="-3.34251900203526">
        <ele>1068.287</ele>
        <time>2021-07-10T10:12:21Z</time>
      </trkpt>
      <trkpt lat="41.443792004138231" lon="-3.342277016490698">
        <ele>1068.711</ele>
        <time>2021-07-10T10:12:22Z</time>
      </trkpt>
      <trkpt lat="41.443996019661427" lon="-3.342119017615914">
        <ele>1069.3800000000001</ele>
        <time>2021-07-10T10:12:23Z</time>
      </trkpt>
      <trkpt lat="41.444194000214338" lon="-3.341950960457325">
        <ele>1069.932</ele>
        <time>2021-07-10T10:12:25Z</time>
      </trkpt>
      <trkpt lat="41.444571018218994" lon="-3.341633034870029">
        <ele>1070.492</ele>
        <time>2021-07-10T10:12:27Z</time>
      </trkpt>
      <trkpt lat="41.444765981286764" lon="-3.341501019895077">
        <ele>1071.3109999999999</ele>
        <time>2021-07-10T10:12:29Z</time>
      </trkpt>
      <trkpt lat="41.444981982931495" lon="-3.341389037668705">
        <ele>1072.308</ele>
        <time>2021-07-10T10:12:31Z</time>
      </trkpt>
      <trkpt lat="41.445407029241323" lon="-3.34127102047205">
        <ele>1073.1500000000001</ele>
        <time>2021-07-10T10:12:32Z</time>
      </trkpt>
      <trkpt lat="41.445869961753488" lon="-3.341255011036992">
        <ele>1073.72</ele>
        <time>2021-07-10T10:12:33Z</time>
      </trkpt>
      <trkpt lat="41.446108007803559" lon="-3.34127102047205">
        <ele>1074.691</ele>
        <time>2021-07-10T10:12:35Z</time>
      </trkpt>
      <trkpt lat="41.446352005004883" lon="-3.341286024078727">
        <ele>1075.117</ele>
        <time>2021-07-10T10:12:36Z</time>
      </trkpt>
      <trkpt lat="41.446856008842587" lon="-3.341282000765204">
        <ele>1076.319</ele>
        <time>2021-07-10T10:12:38Z</time>
      </trkpt>
      <trkpt lat="41.447110986337066" lon="-3.34125199355185">
        <ele>1077.2919999999999</ele>
        <time>2021-07-10T10:12:40Z</time>
      </trkpt>
      <trkpt lat="41.447366969659925" lon="-3.341212011873722">
        <ele>1078.0260000000001</ele>
        <time>2021-07-10T10:12:42Z</time>
      </trkpt>
      <trkpt lat="41.44763401709497" lon="-3.34116599522531">
        <ele>1078.645</ele>
        <time>2021-07-10T10:12:43Z</time>
      </trkpt>
      <trkpt lat="41.447886982932687" lon="-3.341128025203943">
        <ele>1079.123</ele>
        <time>2021-07-10T10:12:44Z</time>
      </trkpt>
      <trkpt lat="41.448384029790759" lon="-3.341062981635332">
        <ele>1079.9829999999999</ele>
        <time>2021-07-10T10:12:45Z</time>
      </trkpt>
      <trkpt lat="41.448889961466193" lon="-3.340980000793934">
        <ele>1080.9110000000001</ele>
        <time>2021-07-10T10:12:47Z</time>
      </trkpt>
      <trkpt lat="41.449145022779703" lon="-3.340933984145522">
        <ele>1081.7080000000001</ele>
        <time>2021-07-10T10:12:48Z</time>
      </trkpt>
      <trkpt lat="41.449401006102562" lon="-3.340877993032336">
        <ele>1082.4190000000001</ele>
        <time>2021-07-10T10:12:50Z</time>
      </trkpt>
      <trkpt lat="41.449657995253801" lon="-3.340811021625996">
        <ele>1083.069</ele>
        <time>2021-07-10T10:12:51Z</time>
      </trkpt>
      <trkpt lat="41.450156969949603" lon="-3.340658973902464">
        <ele>1083.55</ele>
        <time>2021-07-10T10:12:53Z</time>
      </trkpt>
      <trkpt lat="41.450418988242745" lon="-3.340567024424672">
        <ele>1083.7760000000001</ele>
        <time>2021-07-10T10:12:54Z</time>
      </trkpt>
      <trkpt lat="41.450927015393972" lon="-3.340388992801309">
        <ele>1083.6179999999999</ele>
        <time>2021-07-10T10:12:55Z</time>
      </trkpt>
      <trkpt lat="41.451192973181605" lon="-3.340297965332866">
        <ele>1083.3209999999999</ele>
        <time>2021-07-10T10:12:57Z</time>
      </trkpt>
      <trkpt lat="41.451705023646355" lon="-3.340125968679786">
        <ele>1083.135</ele>
        <time>2021-07-10T10:12:58Z</time>
      </trkpt>
      <trkpt lat="41.451958995312452" lon="-3.340037958696485">
        <ele>1082.874</ele>
        <time>2021-07-10T10:13:00Z</time>
      </trkpt>
      <trkpt lat="41.452449001371861" lon="-3.339863028377295">
        <ele>1082.4670000000001</ele>
        <time>2021-07-10T10:13:01Z</time>
      </trkpt>
      <trkpt lat="41.452687969431281" lon="-3.339772000908852">
        <ele>1082.181</ele>
        <time>2021-07-10T10:13:03Z</time>
      </trkpt>
      <trkpt lat="41.452924003824592" lon="-3.339669993147254">
        <ele>1081.6189999999999</ele>
        <time>2021-07-10T10:13:05Z</time>
      </trkpt>
      <trkpt lat="41.453374028205872" lon="-3.339404035359621">
        <ele>1081.2080000000001</ele>
        <time>2021-07-10T10:13:07Z</time>
      </trkpt>
      <trkpt lat="41.453796979039907" lon="-3.33903799764812">
        <ele>1081.133</ele>
        <time>2021-07-10T10:13:08Z</time>
      </trkpt>
      <trkpt lat="41.454186988994479" lon="-3.338639019057155">
        <ele>1080.683</ele>
        <time>2021-07-10T10:13:09Z</time>
      </trkpt>
      <trkpt lat="41.454585967585444" lon="-3.338225036859512">
        <ele>1079.9839999999999</ele>
        <time>2021-07-10T10:13:11Z</time>
      </trkpt>
      <trkpt lat="41.454785959795117" lon="-3.338018003851175">
        <ele>1079.6400000000001</ele>
        <time>2021-07-10T10:13:12Z</time>
      </trkpt>
      <trkpt lat="41.454989975318313" lon="-3.337805019691587">
        <ele>1078.5219999999999</ele>
        <time>2021-07-10T10:13:14Z</time>
      </trkpt>
      <trkpt lat="41.455374034121633" lon="-3.337400006130338">
        <ele>1077.5350000000001</ele>
        <time>2021-07-10T10:13:16Z</time>
      </trkpt>
      <trkpt lat="41.455568997189403" lon="-3.337194984778762">
        <ele>1076.8589999999999</ele>
        <time>2021-07-10T10:13:17Z</time>
      </trkpt>
      <trkpt lat="41.455967975780368" lon="-3.336777985095978">
        <ele>1075.828</ele>
        <time>2021-07-10T10:13:19Z</time>
      </trkpt>
      <trkpt lat="41.45633895881474" lon="-3.336385963484645">
        <ele>1075.4570000000001</ele>
        <time>2021-07-10T10:13:21Z</time>
      </trkpt>
      <trkpt lat="41.456718994304538" lon="-3.335972987115383">
        <ele>1075</ele>
        <time>2021-07-10T10:13:23Z</time>
      </trkpt>
      <trkpt lat="41.456907000392675" lon="-3.335754973813891">
        <ele>1074.72</ele>
        <time>2021-07-10T10:13:24Z</time>
      </trkpt>
      <trkpt lat="41.457091988995671" lon="-3.335524974390864">
        <ele>1074.308</ele>
        <time>2021-07-10T10:13:26Z</time>
      </trkpt>
      <trkpt lat="41.457270020619035" lon="-3.335286006331444">
        <ele>1074.3920000000001</ele>
        <time>2021-07-10T10:13:27Z</time>
      </trkpt>
      <trkpt lat="41.457614013925195" lon="-3.334802035242319">
        <ele>1074.0319999999999</ele>
        <time>2021-07-10T10:13:28Z</time>
      </trkpt>
      <trkpt lat="41.457780981436372" lon="-3.334558960050345">
        <ele>1073.3530000000001</ele>
        <time>2021-07-10T10:13:30Z</time>
      </trkpt>
      <trkpt lat="41.458124974742532" lon="-3.334097033366561">
        <ele>1071.989</ele>
        <time>2021-07-10T10:13:32Z</time>
      </trkpt>
      <trkpt lat="41.458299988880754" lon="-3.333873990923166">
        <ele>1070.741</ele>
        <time>2021-07-10T10:13:33Z</time>
      </trkpt>
      <trkpt lat="41.458681030198932" lon="-3.333457997068763">
        <ele>1069.2639999999999</ele>
        <time>2021-07-10T10:13:35Z</time>
      </trkpt>
      <trkpt lat="41.458887979388237" lon="-3.333267979323864">
        <ele>1068.3879999999999</ele>
        <time>2021-07-10T10:13:36Z</time>
      </trkpt>
      <trkpt lat="41.459097024053335" lon="-3.333083996549249">
        <ele>1067.877</ele>
        <time>2021-07-10T10:13:38Z</time>
      </trkpt>
      <trkpt lat="41.459513017907739" lon="-3.332720976322889">
        <ele>1067.6890000000001</ele>
        <time>2021-07-10T10:13:39Z</time>
      </trkpt>
      <trkpt lat="41.459718961268663" lon="-3.332546968013048">
        <ele>1067.9059999999999</ele>
        <time>2021-07-10T10:13:41Z</time>
      </trkpt>
      <trkpt lat="41.460119029507041" lon="-3.332212027162314">
        <ele>1067.9259999999999</ele>
        <time>2021-07-10T10:13:43Z</time>
      </trkpt>
      <trkpt lat="41.460317010059953" lon="-3.332044975832105">
        <ele>1068.008</ele>
        <time>2021-07-10T10:13:45Z</time>
      </trkpt>
      <trkpt lat="41.460713976994157" lon="-3.33171003498137">
        <ele>1068.115</ele>
        <time>2021-07-10T10:13:47Z</time>
      </trkpt>
      <trkpt lat="41.461115973070264" lon="-3.33136796951294">
        <ele>1067.635</ele>
        <time>2021-07-10T10:13:49Z</time>
      </trkpt>
      <trkpt lat="41.461520986631513" lon="-3.331017019227147">
        <ele>1067.6859999999999</ele>
        <time>2021-07-10T10:13:50Z</time>
      </trkpt>
      <trkpt lat="41.461727013811469" lon="-3.330840999260545">
        <ele>1067.1220000000001</ele>
        <time>2021-07-10T10:13:51Z</time>
      </trkpt>
      <trkpt lat="41.46194402128458" lon="-3.330655004829168">
        <ele>1066.614</ele>
        <time>2021-07-10T10:13:53Z</time>
      </trkpt>
      <trkpt lat="41.462345011532307" lon="-3.33031402900815">
        <ele>1066.5170000000001</ele>
        <time>2021-07-10T10:13:55Z</time>
      </trkpt>
      <trkpt lat="41.462556989863515" lon="-3.330131974071264">
        <ele>1066.7809999999999</ele>
        <time>2021-07-10T10:13:56Z</time>
      </trkpt>
      <trkpt lat="41.462991004809737" lon="-3.329759985208511">
        <ele>1067.3599999999999</ele>
        <time>2021-07-10T10:13:57Z</time>
      </trkpt>
      <trkpt lat="41.463400041684508" lon="-3.32941398024559">
        <ele>1067.1679999999999</ele>
        <time>2021-07-10T10:13:59Z</time>
      </trkpt>
      <trkpt lat="41.463616965338588" lon="-3.329225974157453">
        <ele>1066.742</ele>
        <time>2021-07-10T10:14:00Z</time>
      </trkpt>
      <trkpt lat="41.464055003598332" lon="-3.328845016658306">
        <ele>1066.4259999999999</ele>
        <time>2021-07-10T10:14:01Z</time>
      </trkpt>
      <trkpt lat="41.464493041858077" lon="-3.328472021967173">
        <ele>1065.808</ele>
        <time>2021-07-10T10:14:02Z</time>
      </trkpt>
      <trkpt lat="41.464923033490777" lon="-3.328107995912433">
        <ele>1065.5530000000001</ele>
        <time>2021-07-10T10:14:04Z</time>
      </trkpt>
      <trkpt lat="41.46514599211514" lon="-3.327935999259353">
        <ele>1065.2329999999999</ele>
        <time>2021-07-10T10:14:06Z</time>
      </trkpt>
      <trkpt lat="41.46557598374784" lon="-3.327636010944843">
        <ele>1064.5540000000001</ele>
        <time>2021-07-10T10:14:07Z</time>
      </trkpt>
      <trkpt lat="41.465804977342486" lon="-3.327493015676737">
        <ele>1063.5799999999999</ele>
        <time>2021-07-10T10:14:08Z</time>
      </trkpt>
      <trkpt lat="41.466036988422275" lon="-3.327357983216643">
        <ele>1062.922</ele>
        <time>2021-07-10T10:14:09Z</time>
      </trkpt>
      <trkpt lat="41.466507967561483" lon="-3.327089007943869">
        <ele>1062.5550000000001</ele>
        <time>2021-07-10T10:14:11Z</time>
      </trkpt>
      <trkpt lat="41.466953968629241" lon="-3.326832018792629">
        <ele>1062.4590000000001</ele>
        <time>2021-07-10T10:14:12Z</time>
      </trkpt>
      <trkpt lat="41.467192014679313" lon="-3.326697992160916">
        <ele>1062.6379999999999</ele>
        <time>2021-07-10T10:14:14Z</time>
      </trkpt>
      <trkpt lat="41.467668022960424" lon="-3.326427005231381">
        <ele>1063.3150000000001</ele>
        <time>2021-07-10T10:14:15Z</time>
      </trkpt>
      <trkpt lat="41.467917971313" lon="-3.326285015791655">
        <ele>1064.7650000000001</ele>
        <time>2021-07-10T10:14:17Z</time>
      </trkpt>
      <trkpt lat="41.468374030664563" lon="-3.326025009155273">
        <ele>1066.3109999999999</ele>
        <time>2021-07-10T10:14:19Z</time>
      </trkpt>
      <trkpt lat="41.468605035915971" lon="-3.325891988351941">
        <ele>1067.508</ele>
        <time>2021-07-10T10:14:21Z</time>
      </trkpt>
      <trkpt lat="41.469062017276883" lon="-3.325629970058799">
        <ele>1068.1980000000001</ele>
        <time>2021-07-10T10:14:22Z</time>
      </trkpt>
      <trkpt lat="41.469482034444809" lon="-3.32539401948452">
        <ele>1068.318</ele>
        <time>2021-07-10T10:14:24Z</time>
      </trkpt>
      <trkpt lat="41.469903979450464" lon="-3.325151028111577">
        <ele>1068.499</ele>
        <time>2021-07-10T10:14:25Z</time>
      </trkpt>
      <trkpt lat="41.47032399661839" lon="-3.324911976233125">
        <ele>1068.375</ele>
        <time>2021-07-10T10:14:26Z</time>
      </trkpt>
      <trkpt lat="41.470709983259439" lon="-3.324691029265523">
        <ele>1068.357</ele>
        <time>2021-07-10T10:14:27Z</time>
      </trkpt>
      <trkpt lat="41.470911987125874" lon="-3.32457896322012">
        <ele>1068.01</ele>
        <time>2021-07-10T10:14:28Z</time>
      </trkpt>
      <trkpt lat="41.471114996820688" lon="-3.324467986822128">
        <ele>1067.3140000000001</ele>
        <time>2021-07-10T10:14:30Z</time>
      </trkpt>
      <trkpt lat="41.471502995118499" lon="-3.324294984340668">
        <ele>1067.3430000000001</ele>
        <time>2021-07-10T10:14:32Z</time>
      </trkpt>
      <trkpt lat="41.471931980922818" lon="-3.324185013771057">
        <ele>1067.2190000000001</ele>
        <time>2021-07-10T10:14:33Z</time>
      </trkpt>
      <trkpt lat="41.472167009487748" lon="-3.324157018214464">
        <ele>1067.009</ele>
        <time>2021-07-10T10:14:35Z</time>
      </trkpt>
      <trkpt lat="41.472390973940492" lon="-3.324155006557703">
        <ele>1066.9190000000001</ele>
        <time>2021-07-10T10:14:37Z</time>
      </trkpt>
      <trkpt lat="41.472818031907082" lon="-3.324218038469553">
        <ele>1066.9079999999999</ele>
        <time>2021-07-10T10:14:39Z</time>
      </trkpt>
      <trkpt lat="41.473039984703064" lon="-3.324260031804442">
        <ele>1066.9780000000001</ele>
        <time>2021-07-10T10:14:41Z</time>
      </trkpt>
      <trkpt lat="41.473262021318078" lon="-3.324292972683907">
        <ele>1066.6880000000001</ele>
        <time>2021-07-10T10:14:42Z</time>
      </trkpt>
      <trkpt lat="41.473479028791189" lon="-3.324307976290584">
        <ele>1066.519</ele>
        <time>2021-07-10T10:14:44Z</time>
      </trkpt>
      <trkpt lat="41.473900973796844" lon="-3.324248967692256">
        <ele>1066.375</ele>
        <time>2021-07-10T10:14:46Z</time>
      </trkpt>
      <trkpt lat="41.474323002621531" lon="-3.324097003787756">
        <ele>1065.9970000000001</ele>
        <time>2021-07-10T10:14:48Z</time>
      </trkpt>
      <trkpt lat="41.474528023973107" lon="-3.323978986591101">
        <ele>1065.0799999999999</ele>
        <time>2021-07-10T10:14:50Z</time>
      </trkpt>
      <trkpt lat="41.474731033667922" lon="-3.323841020464897">
        <ele>1064.694</ele>
        <time>2021-07-10T10:14:51Z</time>
      </trkpt>
      <trkpt lat="41.474930020049214" lon="-3.323681009933353">
        <ele>1064.213</ele>
        <time>2021-07-10T10:14:52Z</time>
      </trkpt>
      <trkpt lat="41.475299997255206" lon="-3.323295023292303">
        <ele>1064.2660000000001</ele>
        <time>2021-07-10T10:14:54Z</time>
      </trkpt>
      <trkpt lat="41.475475011393428" lon="-3.323061000555754">
        <ele>1064.329</ele>
        <time>2021-07-10T10:14:56Z</time>
      </trkpt>
      <trkpt lat="41.475769970566034" lon="-3.32257904112339">
        <ele>1064.421</ele>
        <time>2021-07-10T10:14:57Z</time>
      </trkpt>
      <trkpt lat="41.47590902633965" lon="-3.322319034487009">
        <ele>1064.508</ele>
        <time>2021-07-10T10:14:59Z</time>
      </trkpt>
      <trkpt lat="41.476195016875863" lon="-3.321797009557486">
        <ele>1064.9929999999999</ele>
        <time>2021-07-10T10:15:00Z</time>
      </trkpt>
      <trkpt lat="41.476455023512244" lon="-3.321332987397909">
        <ele>1065.2529999999999</ele>
        <time>2021-07-10T10:15:02Z</time>
      </trkpt>
      <trkpt lat="41.476723998785019" lon="-3.320908024907112">
        <ele>1065.0940000000001</ele>
        <time>2021-07-10T10:15:03Z</time>
      </trkpt>
      <trkpt lat="41.47687797434628" lon="-3.320722030475736">
        <ele>1065.0899999999999</ele>
        <time>2021-07-10T10:15:04Z</time>
      </trkpt>
      <trkpt lat="41.477207969874144" lon="-3.320421958342195">
        <ele>1065.0519999999999</ele>
        <time>2021-07-10T10:15:06Z</time>
      </trkpt>
      <trkpt lat="41.477389018982649" lon="-3.320291033014655">
        <ele>1065.0450000000001</ele>
        <time>2021-07-10T10:15:08Z</time>
      </trkpt>
      <trkpt lat="41.477575013414025" lon="-3.320164969190955">
        <ele>1065.0989999999999</ele>
        <time>2021-07-10T10:15:09Z</time>
      </trkpt>
      <trkpt lat="41.477773999795318" lon="-3.320032032206655">
        <ele>1065.2280000000001</ele>
        <time>2021-07-10T10:15:10Z</time>
      </trkpt>
      <trkpt lat="41.477963011711836" lon="-3.319896999746561">
        <ele>1065.251</ele>
        <time>2021-07-10T10:15:12Z</time>
      </trkpt>
      <trkpt lat="41.478346986696124" lon="-3.319629030302167">
        <ele>1065.4010000000001</ele>
        <time>2021-07-10T10:15:13Z</time>
      </trkpt>
      <trkpt lat="41.478759963065386" lon="-3.319342033937573">
        <ele>1065.211</ele>
        <time>2021-07-10T10:15:14Z</time>
      </trkpt>
      <trkpt lat="41.478977976366878" lon="-3.319189986214042">
        <ele>1065.2080000000001</ele>
        <time>2021-07-10T10:15:15Z</time>
      </trkpt>
      <trkpt lat="41.47939003072679" lon="-3.318912964314222">
        <ele>1065.7819999999999</ele>
        <time>2021-07-10T10:15:17Z</time>
      </trkpt>
      <trkpt lat="41.479833014309406" lon="-3.318615993484855">
        <ele>1065.7619999999999</ele>
        <time>2021-07-10T10:15:18Z</time>
      </trkpt>
      <trkpt lat="41.480240961536765" lon="-3.318338971585035">
        <ele>1065.943</ele>
        <time>2021-07-10T10:15:19Z</time>
      </trkpt>
      <trkpt lat="41.480651004239917" lon="-3.318055998533964">
        <ele>1065.9390000000001</ele>
        <time>2021-07-10T10:15:20Z</time>
      </trkpt>
      <trkpt lat="41.480860970914364" lon="-3.317909985780716">
        <ele>1065.681</ele>
        <time>2021-07-10T10:15:22Z</time>
      </trkpt>
      <trkpt lat="41.481272019445896" lon="-3.317631036043167">
        <ele>1064.8140000000001</ele>
        <time>2021-07-10T10:15:24Z</time>
      </trkpt>
      <trkpt lat="41.481692958623171" lon="-3.31733800470829">
        <ele>1064.018</ele>
        <time>2021-07-10T10:15:25Z</time>
      </trkpt>
      <trkpt lat="41.482126973569393" lon="-3.317041033878923">
        <ele>1063.547</ele>
        <time>2021-07-10T10:15:27Z</time>
      </trkpt>
      <trkpt lat="41.482529975473881" lon="-3.316767029464245">
        <ele>1062.6669999999999</ele>
        <time>2021-07-10T10:15:29Z</time>
      </trkpt>
      <trkpt lat="41.482734996825457" lon="-3.316625962033868">
        <ele>1061.981</ele>
        <time>2021-07-10T10:15:30Z</time>
      </trkpt>
      <trkpt lat="41.482940018177032" lon="-3.316484978422523">
        <ele>1060.9190000000001</ele>
        <time>2021-07-10T10:15:32Z</time>
      </trkpt>
      <trkpt lat="41.483338996767998" lon="-3.316216003149748">
        <ele>1060.008</ele>
        <time>2021-07-10T10:15:33Z</time>
      </trkpt>
      <trkpt lat="41.483734035864472" lon="-3.31594199873507">
        <ele>1059.453</ele>
        <time>2021-07-10T10:15:35Z</time>
      </trkpt>
      <trkpt lat="41.483937967568636" lon="-3.315805960446596">
        <ele>1058.913</ele>
        <time>2021-07-10T10:15:36Z</time>
      </trkpt>
      <trkpt lat="41.484358990564942" lon="-3.315530028194189">
        <ele>1058.7940000000001</ele>
        <time>2021-07-10T10:15:38Z</time>
      </trkpt>
      <trkpt lat="41.484565017744899" lon="-3.315401030704379">
        <ele>1058.51</ele>
        <time>2021-07-10T10:15:39Z</time>
      </trkpt>
      <trkpt lat="41.484991991892457" lon="-3.315177988260984">
        <ele>1058.6420000000001</ele>
        <time>2021-07-10T10:15:40Z</time>
      </trkpt>
      <trkpt lat="41.485216040164232" lon="-3.315067011862993">
        <ele>1058.855</ele>
        <time>2021-07-10T10:15:41Z</time>
      </trkpt>
      <trkpt lat="41.485441010445356" lon="-3.314951006323099">
        <ele>1059.519</ele>
        <time>2021-07-10T10:15:43Z</time>
      </trkpt>
      <trkpt lat="41.485876031219959" lon="-3.314727963879705">
        <ele>1059.9680000000001</ele>
        <time>2021-07-10T10:15:44Z</time>
      </trkpt>
      <trkpt lat="41.486317003145814" lon="-3.314499976113439">
        <ele>1060.182</ele>
        <time>2021-07-10T10:15:45Z</time>
      </trkpt>
      <trkpt lat="41.486550020053983" lon="-3.314381958916783">
        <ele>1060.143</ele>
        <time>2021-07-10T10:15:47Z</time>
      </trkpt>
      <trkpt lat="41.486774990335107" lon="-3.314269976690412">
        <ele>1060.117</ele>
        <time>2021-07-10T10:15:48Z</time>
      </trkpt>
      <trkpt lat="41.487216968089342" lon="-3.314041988924146">
        <ele>1060.1079999999999</ele>
        <time>2021-07-10T10:15:49Z</time>
      </trkpt>
      <trkpt lat="41.487442022189498" lon="-3.31392397172749">
        <ele>1059.835</ele>
        <time>2021-07-10T10:15:51Z</time>
      </trkpt>
      <trkpt lat="41.487665986642241" lon="-3.31381500698626">
        <ele>1060.095</ele>
        <time>2021-07-10T10:15:53Z</time>
      </trkpt>
      <trkpt lat="41.487891040742397" lon="-3.31370503641665">
        <ele>1060.076</ele>
        <time>2021-07-10T10:15:54Z</time>
      </trkpt>
      <trkpt lat="41.488323966041207" lon="-3.313487023115158">
        <ele>1059.8920000000001</ele>
        <time>2021-07-10T10:15:55Z</time>
      </trkpt>
      <trkpt lat="41.488549020141363" lon="-3.313375040888786">
        <ele>1059.4839999999999</ele>
        <time>2021-07-10T10:15:57Z</time>
      </trkpt>
      <trkpt lat="41.488776002079248" lon="-3.313263980671763">
        <ele>1059.117</ele>
        <time>2021-07-10T10:15:59Z</time>
      </trkpt>
      <trkpt lat="41.489003989845514" lon="-3.313149986788631">
        <ele>1058.971</ele>
        <time>2021-07-10T10:16:01Z</time>
      </trkpt>
      <trkpt lat="41.489462982863188" lon="-3.312929961830378">
        <ele>1058.52</ele>
        <time>2021-07-10T10:16:03Z</time>
      </trkpt>
      <trkpt lat="41.489975033327937" lon="-3.312694011256099">
        <ele>1057.7850000000001</ele>
        <time>2021-07-10T10:16:05Z</time>
      </trkpt>
      <trkpt lat="41.49024099111557" lon="-3.312571970745921">
        <ele>1057.3889999999999</ele>
        <time>2021-07-10T10:16:06Z</time>
      </trkpt>
      <trkpt lat="41.490743989124894" lon="-3.312349012121558">
        <ele>1057.0170000000001</ele>
        <time>2021-07-10T10:16:08Z</time>
      </trkpt>
      <trkpt lat="41.491237012669444" lon="-3.312130998820067">
        <ele>1057.2080000000001</ele>
        <time>2021-07-10T10:16:10Z</time>
      </trkpt>
      <trkpt lat="41.491488972678781" lon="-3.312021028250456">
        <ele>1057.2449999999999</ele>
        <time>2021-07-10T10:16:11Z</time>
      </trkpt>
      <trkpt lat="41.491946037858725" lon="-3.311823969706893">
        <ele>1057.2249999999999</ele>
        <time>2021-07-10T10:16:12Z</time>
      </trkpt>
      <trkpt lat="41.492180982604623" lon="-3.311721961945295">
        <ele>1057.1559999999999</ele>
        <time>2021-07-10T10:16:13Z</time>
      </trkpt>
      <trkpt lat="41.492643998935819" lon="-3.311522975564003">
        <ele>1057.2819999999999</ele>
        <time>2021-07-10T10:16:14Z</time>
      </trkpt>
      <trkpt lat="41.49288397282362" lon="-3.311418034136295">
        <ele>1056.9839999999999</ele>
        <time>2021-07-10T10:16:16Z</time>
      </trkpt>
      <trkpt lat="41.49329200387001" lon="-3.311238996684551">
        <ele>1056.877</ele>
        <time>2021-07-10T10:16:17Z</time>
      </trkpt>
      <trkpt lat="41.493493001908064" lon="-3.311148975044489">
        <ele>1056.8109999999999</ele>
        <time>2021-07-10T10:16:18Z</time>
      </trkpt>
      <trkpt lat="41.493697017431259" lon="-3.311057025566697">
        <ele>1056.1600000000001</ele>
        <time>2021-07-10T10:16:20Z</time>
      </trkpt>
      <trkpt lat="41.493883011862636" lon="-3.310973960906267">
        <ele>1055.3119999999999</ele>
        <time>2021-07-10T10:16:21Z</time>
      </trkpt>
      <trkpt lat="41.494225999340415" lon="-3.310816967859864">
        <ele>1054.732</ele>
        <time>2021-07-10T10:16:22Z</time>
      </trkpt>
      <trkpt lat="41.494402019307017" lon="-3.310734992846847">
        <ele>1053.8050000000001</ele>
        <time>2021-07-10T10:16:24Z</time>
      </trkpt>
      <trkpt lat="41.494591031223536" lon="-3.310652012005448">
        <ele>1053.2080000000001</ele>
        <time>2021-07-10T10:16:25Z</time>
      </trkpt>
      <trkpt lat="41.494932007044554" lon="-3.310519997030497">
        <ele>1052.028</ele>
        <time>2021-07-10T10:16:26Z</time>
      </trkpt>
      <trkpt lat="41.49511800147593" lon="-3.310470040887594">
        <ele>1050.9480000000001</ele>
        <time>2021-07-10T10:16:27Z</time>
      </trkpt>
      <trkpt lat="41.49530902504921" lon="-3.310437016189098">
        <ele>1049.559</ele>
        <time>2021-07-10T10:16:28Z</time>
      </trkpt>
      <trkpt lat="41.495700962841511" lon="-3.310422012582421">
        <ele>1047.1949999999999</ele>
        <time>2021-07-10T10:16:30Z</time>
      </trkpt>
      <trkpt lat="41.496073035523295" lon="-3.310384964570403">
        <ele>1045.1869999999999</ele>
        <time>2021-07-10T10:16:31Z</time>
      </trkpt>
      <trkpt lat="41.496260035783052" lon="-3.31033299677074">
        <ele>1042.75</ele>
        <time>2021-07-10T10:16:33Z</time>
      </trkpt>
      <trkpt lat="41.496445024386048" lon="-3.310254961252213">
        <ele>1040.0940000000001</ele>
        <time>2021-07-10T10:16:35Z</time>
      </trkpt>
      <trkpt lat="41.496791029348969" lon="-3.31003300845623">
        <ele>1036.443</ele>
        <time>2021-07-10T10:16:37Z</time>
      </trkpt>
      <trkpt lat="41.497118007391691" lon="-3.309720028191805">
        <ele>1033.4880000000001</ele>
        <time>2021-07-10T10:16:38Z</time>
      </trkpt>
      <trkpt lat="41.497441967949271" lon="-3.309335969388485">
        <ele>1030.3240000000001</ele>
        <time>2021-07-10T10:16:40Z</time>
      </trkpt>
      <trkpt lat="41.497761989012361" lon="-3.308945959433913">
        <ele>1028.126</ele>
        <time>2021-07-10T10:16:41Z</time>
      </trkpt>
      <trkpt lat="41.498101959004998" lon="-3.308539018034935">
        <ele>1025.508</ele>
        <time>2021-07-10T10:16:43Z</time>
      </trkpt>
      <trkpt lat="41.498278984799981" lon="-3.308327039703727">
        <ele>1023.385</ele>
        <time>2021-07-10T10:16:45Z</time>
      </trkpt>
      <trkpt lat="41.49859900586307" lon="-3.30794801004231">
        <ele>1021.345</ele>
        <time>2021-07-10T10:16:46Z</time>
      </trkpt>
      <trkpt lat="41.498933024704456" lon="-3.307551965117455">
        <ele>1019.676</ele>
        <time>2021-07-10T10:16:47Z</time>
      </trkpt>
      <trkpt lat="41.499102003872395" lon="-3.307352978736162">
        <ele>1018.072</ele>
        <time>2021-07-10T10:16:48Z</time>
      </trkpt>
      <trkpt lat="41.499271988868713" lon="-3.307149969041348">
        <ele>1016.114</ele>
        <time>2021-07-10T10:16:50Z</time>
      </trkpt>
      <trkpt lat="41.499441973865032" lon="-3.306944025680423">
        <ele>1013.737</ele>
        <time>2021-07-10T10:16:51Z</time>
      </trkpt>
      <trkpt lat="41.499623022973537" lon="-3.306733975186944">
        <ele>1011.7910000000001</ele>
        <time>2021-07-10T10:16:53Z</time>
      </trkpt>
      <trkpt lat="41.499984031543136" lon="-3.306382019072771">
        <ele>1008.96</ele>
        <time>2021-07-10T10:16:55Z</time>
      </trkpt>
      <trkpt lat="41.50018603540957" lon="-3.306216979399324">
        <ele>1006.4640000000001</ele>
        <time>2021-07-10T10:16:56Z</time>
      </trkpt>
      <trkpt lat="41.500374963507056" lon="-3.306072978302836">
        <ele>1004.4059999999999</ele>
        <time>2021-07-10T10:16:57Z</time>
      </trkpt>
      <trkpt lat="41.500744018703699" lon="-3.305782964453101">
        <ele>1002.816</ele>
        <time>2021-07-10T10:16:58Z</time>
      </trkpt>
      <trkpt lat="41.500933030620217" lon="-3.305634018033743">
        <ele>1001.308</ele>
        <time>2021-07-10T10:16:59Z</time>
      </trkpt>
      <trkpt lat="41.501130005344748" lon="-3.305479036644101">
        <ele>998.33299999999997</ele>
        <time>2021-07-10T10:17:01Z</time>
      </trkpt>
      <trkpt lat="41.501489002257586" lon="-3.305177036672831">
        <ele>994.72299999999996</ele>
        <time>2021-07-10T10:17:03Z</time>
      </trkpt>
      <trkpt lat="41.501667033880949" lon="-3.304996993392706">
        <ele>991.55399999999997</ele>
        <time>2021-07-10T10:17:04Z</time>
      </trkpt>
      <trkpt lat="41.501829978078604" lon="-3.304799012839794">
        <ele>987.51999999999998</ele>
        <time>2021-07-10T10:17:06Z</time>
      </trkpt>
      <trkpt lat="41.501984037458897" lon="-3.304577982053161">
        <ele>984.06200000000001</ele>
        <time>2021-07-10T10:17:07Z</time>
      </trkpt>
      <trkpt lat="41.502126026898623" lon="-3.304332979023457">
        <ele>981.09500000000003</ele>
        <time>2021-07-10T10:17:08Z</time>
      </trkpt>
      <trkpt lat="41.502344962209463" lon="-3.303820006549358">
        <ele>977.03899999999999</ele>
        <time>2021-07-10T10:17:10Z</time>
      </trkpt>
      <trkpt lat="41.502435989677906" lon="-3.303533010184765">
        <ele>973.05799999999999</ele>
        <time>2021-07-10T10:17:12Z</time>
      </trkpt>
      <trkpt lat="41.502563981339335" lon="-3.302926998585463">
        <ele>970.04399999999998</ele>
        <time>2021-07-10T10:17:13Z</time>
      </trkpt>
      <trkpt lat="41.50265802629292" lon="-3.302328027784824">
        <ele>967.20500000000004</ele>
        <time>2021-07-10T10:17:15Z</time>
      </trkpt>
      <trkpt lat="41.502761039882898" lon="-3.301702989265323">
        <ele>965.51499999999999</ele>
        <time>2021-07-10T10:17:16Z</time>
      </trkpt>
      <trkpt lat="41.502816025167704" lon="-3.301386991515756">
        <ele>963.30799999999999</ele>
        <time>2021-07-10T10:17:18Z</time>
      </trkpt>
      <trkpt lat="41.502962037920952" lon="-3.30081601627171">
        <ele>961.64099999999996</ele>
        <time>2021-07-10T10:17:19Z</time>
      </trkpt>
      <trkpt lat="41.503075025975704" lon="-3.300547040998936">
        <ele>959.84100000000001</ele>
        <time>2021-07-10T10:17:21Z</time>
      </trkpt>
      <trkpt lat="41.503400998190045" lon="-3.300078995525837">
        <ele>958.15200000000004</ele>
        <time>2021-07-10T10:17:23Z</time>
      </trkpt>
      <trkpt lat="41.503767035901546" lon="-3.299770960584283">
        <ele>956.94799999999998</ele>
        <time>2021-07-10T10:17:24Z</time>
      </trkpt>
      <trkpt lat="41.503969039767981" lon="-3.299655038863421">
        <ele>955.97000000000003</ele>
        <time>2021-07-10T10:17:26Z</time>
      </trkpt>
      <trkpt lat="41.504179006442428" lon="-3.299558982253075">
        <ele>954.85299999999995</ele>
        <time>2021-07-10T10:17:27Z</time>
      </trkpt>
      <trkpt lat="41.504402970895171" lon="-3.299481030553579">
        <ele>954.08699999999999</ele>
        <time>2021-07-10T10:17:29Z</time>
      </trkpt>
      <trkpt lat="41.504808990284801" lon="-3.299383968114853">
        <ele>953.08600000000001</ele>
        <time>2021-07-10T10:17:30Z</time>
      </trkpt>
      <trkpt lat="41.505021974444389" lon="-3.299324037507176">
        <ele>951.84400000000005</ele>
        <time>2021-07-10T10:17:31Z</time>
      </trkpt>
      <trkpt lat="41.505418019369245" lon="-3.299083979800344">
        <ele>949.40499999999997</ele>
        <time>2021-07-10T10:17:33Z</time>
      </trkpt>
      <trkpt lat="41.505749020725489" lon="-3.298695981502533">
        <ele>947.61500000000001</ele>
        <time>2021-07-10T10:17:34Z</time>
      </trkpt>
      <trkpt lat="41.505885981023312" lon="-3.298461036756635">
        <ele>945.70799999999997</ele>
        <time>2021-07-10T10:17:36Z</time>
      </trkpt>
      <trkpt lat="41.506001986563206" lon="-3.298202035948634">
        <ele>943.64099999999996</ele>
        <time>2021-07-10T10:17:38Z</time>
      </trkpt>
      <trkpt lat="41.50611899793148" lon="-3.29791696742177">
        <ele>941.93100000000004</ele>
        <time>2021-07-10T10:17:40Z</time>
      </trkpt>
      <trkpt lat="41.506235003471375" lon="-3.297633994370699">
        <ele>939.89200000000005</ele>
        <time>2021-07-10T10:17:42Z</time>
      </trkpt>
      <trkpt lat="41.506491992622614" lon="-3.297035023570061">
        <ele>938.28800000000001</ele>
        <time>2021-07-10T10:17:43Z</time>
      </trkpt>
      <trkpt lat="41.506789969280362" lon="-3.296333039179444">
        <ele>936.73000000000002</ele>
        <time>2021-07-10T10:17:45Z</time>
      </trkpt>
      <trkpt lat="41.506933970376849" lon="-3.295968007296324">
        <ele>935.49300000000005</ele>
        <time>2021-07-10T10:17:46Z</time>
      </trkpt>
      <trkpt lat="41.507224990054965" lon="-3.295210031792522">
        <ele>933.71699999999998</ele>
        <time>2021-07-10T10:17:48Z</time>
      </trkpt>
      <trkpt lat="41.507381983101368" lon="-3.294813986867666">
        <ele>932.33600000000001</ele>
        <time>2021-07-10T10:17:50Z</time>
      </trkpt>
      <trkpt lat="41.507550962269306" lon="-3.294406961649656">
        <ele>931.07399999999996</ele>
        <time>2021-07-10T10:17:51Z</time>
      </trkpt>
      <trkpt lat="41.507864026352763" lon="-3.293668013066053">
        <ele>930.05600000000004</ele>
        <time>2021-07-10T10:17:53Z</time>
      </trkpt>
      <trkpt lat="41.508192010223866" lon="-3.292890004813671">
        <ele>928.82100000000003</ele>
        <time>2021-07-10T10:17:54Z</time>
      </trkpt>
      <trkpt lat="41.508355960249901" lon="-3.292508963495493">
        <ele>928.00800000000004</ele>
        <time>2021-07-10T10:17:55Z</time>
      </trkpt>
      <trkpt lat="41.508671035990119" lon="-3.29174897633493">
        <ele>926.91399999999999</ele>
        <time>2021-07-10T10:17:57Z</time>
      </trkpt>
      <trkpt lat="41.508816964924335" lon="-3.291369024664164">
        <ele>926.34400000000005</ele>
        <time>2021-07-10T10:17:58Z</time>
      </trkpt>
      <trkpt lat="41.509052999317646" lon="-3.290596967563033">
        <ele>924.92499999999995</ele>
        <time>2021-07-10T10:18:00Z</time>
      </trkpt>
      <trkpt lat="41.509152995422482" lon="-3.290187008678913">
        <ele>923.12099999999998</ele>
        <time>2021-07-10T10:18:02Z</time>
      </trkpt>
      <trkpt lat="41.509281992912292" lon="-3.289416041225195">
        <ele>922.54300000000001</ele>
        <time>2021-07-10T10:18:03Z</time>
      </trkpt>
      <trkpt lat="41.509359022602439" lon="-3.288622023537755">
        <ele>921.36599999999999</ele>
        <time>2021-07-10T10:18:05Z</time>
      </trkpt>
      <trkpt lat="41.509389029815793" lon="-3.288208041340113">
        <ele>920.99000000000001</ele>
        <time>2021-07-10T10:18:06Z</time>
      </trkpt>
      <trkpt lat="41.509452983736992" lon="-3.287465991452336">
        <ele>920.96900000000005</ele>
        <time>2021-07-10T10:18:07Z</time>
      </trkpt>
      <trkpt lat="41.50948902592063" lon="-3.287088973447681">
        <ele>920.52499999999998</ele>
        <time>2021-07-10T10:18:09Z</time>
      </trkpt>
      <trkpt lat="41.509523978456855" lon="-3.286344995722175">
        <ele>919.52599999999995</ele>
        <time>2021-07-10T10:18:11Z</time>
      </trkpt>
      <trkpt lat="41.509510986506939" lon="-3.285976024344564">
        <ele>918.60799999999995</ele>
        <time>2021-07-10T10:18:12Z</time>
      </trkpt>
      <trkpt lat="41.509479973465204" lon="-3.285610992461443">
        <ele>917.30799999999999</ele>
        <time>2021-07-10T10:18:13Z</time>
      </trkpt>
      <trkpt lat="41.509434962645173" lon="-3.284889981150627">
        <ele>916.25900000000001</ele>
        <time>2021-07-10T10:18:15Z</time>
      </trkpt>
      <trkpt lat="41.509436974301934" lon="-3.284512963145971">
        <ele>915.46900000000005</ele>
        <time>2021-07-10T10:18:16Z</time>
      </trkpt>
      <trkpt lat="41.509494977071881" lon="-3.283817013725638">
        <ele>914.22000000000003</ele>
        <time>2021-07-10T10:18:18Z</time>
      </trkpt>
      <trkpt lat="41.509564965963364" lon="-3.283105976879597">
        <ele>912.39599999999996</ele>
        <time>2021-07-10T10:18:19Z</time>
      </trkpt>
      <trkpt lat="41.509624980390072" lon="-3.282387983053923">
        <ele>911.08799999999997</ele>
        <time>2021-07-10T10:18:21Z</time>
      </trkpt>
      <trkpt lat="41.509596984833479" lon="-3.281783983111382">
        <ele>910.01099999999997</ele>
        <time>2021-07-10T10:18:22Z</time>
      </trkpt>
      <trkpt lat="41.509531019255519" lon="-3.28147997148335">
        <ele>908.95500000000004</ele>
        <time>2021-07-10T10:18:23Z</time>
      </trkpt>
      <trkpt lat="41.50934100151062" lon="-3.280951995402575">
        <ele>907.24400000000003</ele>
        <time>2021-07-10T10:18:25Z</time>
      </trkpt>
      <trkpt lat="41.509222984313965" lon="-3.280676985159516">
        <ele>906.06899999999996</ele>
        <time>2021-07-10T10:18:27Z</time>
      </trkpt>
      <trkpt lat="41.509037995710969" lon="-3.280138028785586">
        <ele>904.70399999999995</ele>
        <time>2021-07-10T10:18:28Z</time>
      </trkpt>
      <trkpt lat="41.508934982120991" lon="-3.279507961124182">
        <ele>904.32399999999996</ele>
        <time>2021-07-10T10:18:30Z</time>
      </trkpt>
      <trkpt lat="41.508902041241527" lon="-3.279173020273447">
        <ele>903.80799999999999</ele>
        <time>2021-07-10T10:18:32Z</time>
      </trkpt>
      <trkpt lat="41.508856024593115" lon="-3.278471035882831">
        <ele>903.76300000000003</ele>
        <time>2021-07-10T10:18:33Z</time>
      </trkpt>
      <trkpt lat="41.508849989622831" lon="-3.278111033141613">
        <ele>902.82299999999998</ele>
        <time>2021-07-10T10:18:34Z</time>
      </trkpt>
      <trkpt lat="41.508862981572747" lon="-3.277724962681532">
        <ele>900.99400000000003</ele>
        <time>2021-07-10T10:18:36Z</time>
      </trkpt>
      <trkpt lat="41.508906986564398" lon="-3.277000011876226">
        <ele>899.22000000000003</ele>
        <time>2021-07-10T10:18:37Z</time>
      </trkpt>
      <trkpt lat="41.508914027363062" lon="-3.276588041335344">
        <ele>898.16200000000003</ele>
        <time>2021-07-10T10:18:38Z</time>
      </trkpt>
      <trkpt lat="41.508875973522663" lon="-3.27584900893271">
        <ele>896.98500000000001</ele>
        <time>2021-07-10T10:18:39Z</time>
      </trkpt>
      <trkpt lat="41.508812019601464" lon="-3.275088015943766">
        <ele>896.78899999999999</ele>
        <time>2021-07-10T10:18:41Z</time>
      </trkpt>
      <trkpt lat="41.508754016831517" lon="-3.27473103068769">
        <ele>896.28800000000001</ele>
        <time>2021-07-10T10:18:42Z</time>
      </trkpt>
      <trkpt lat="41.508561987429857" lon="-3.274065004661679">
        <ele>896.15800000000002</ele>
        <time>2021-07-10T10:18:43Z</time>
      </trkpt>
      <trkpt lat="41.508441958576441" lon="-3.273727968335152">
        <ele>896.05200000000002</ele>
        <time>2021-07-10T10:18:44Z</time>
      </trkpt>
      <trkpt lat="41.508312961086631" lon="-3.273365031927824">
        <ele>896.11699999999996</ele>
        <time>2021-07-10T10:18:46Z</time>
      </trkpt>
      <trkpt lat="41.508071981370449" lon="-3.272694982588291">
        <ele>895.20799999999997</ele>
        <time>2021-07-10T10:18:48Z</time>
      </trkpt>
      <trkpt lat="41.507809041067958" lon="-3.271983023732901">
        <ele>894.86199999999997</ele>
        <time>2021-07-10T10:18:50Z</time>
      </trkpt>
      <trkpt lat="41.507677026093006" lon="-3.271600976586342">
        <ele>894.56200000000001</ele>
        <time>2021-07-10T10:18:51Z</time>
      </trkpt>
      <trkpt lat="41.507545011118054" lon="-3.271227981895208">
        <ele>893.75300000000004</ele>
        <time>2021-07-10T10:18:53Z</time>
      </trkpt>
      <trkpt lat="41.507292967289686" lon="-3.270533960312605">
        <ele>892.88900000000001</ele>
        <time>2021-07-10T10:18:54Z</time>
      </trkpt>
      <trkpt lat="41.507163969799876" lon="-3.27017898671329">
        <ele>892.14099999999996</ele>
        <time>2021-07-10T10:18:56Z</time>
      </trkpt>
      <trkpt lat="41.506927013397217" lon="-3.269497035071254">
        <ele>891.524</ele>
        <time>2021-07-10T10:18:57Z</time>
      </trkpt>
      <trkpt lat="41.506850989535451" lon="-3.26916896738112">
        <ele>890.89800000000002</ele>
        <time>2021-07-10T10:18:58Z</time>
      </trkpt>
      <trkpt lat="41.506772032007575" lon="-3.268509982153773">
        <ele>890.827</ele>
        <time>2021-07-10T10:18:59Z</time>
      </trkpt>
      <trkpt lat="41.506779994815588" lon="-3.268175963312388">
        <ele>890.33299999999997</ele>
        <time>2021-07-10T10:19:01Z</time>
      </trkpt>
      <trkpt lat="41.506811007857323" lon="-3.267842028290033">
        <ele>890.22299999999996</ele>
        <time>2021-07-10T10:19:03Z</time>
      </trkpt>
      <trkpt lat="41.506948973983526" lon="-3.267198968678713">
        <ele>889.91499999999996</ele>
        <time>2021-07-10T10:19:04Z</time>
      </trkpt>
      <trkpt lat="41.507189031690359" lon="-3.266593962907791">
        <ele>889.80799999999999</ele>
        <time>2021-07-10T10:19:06Z</time>
      </trkpt>
      <trkpt lat="41.507297996431589" lon="-3.266271008178592">
        <ele>889.64999999999998</ele>
        <time>2021-07-10T10:19:08Z</time>
      </trkpt>
      <trkpt lat="41.507678031921387" lon="-3.26579499989748">
        <ele>889.30999999999995</ele>
        <time>2021-07-10T10:19:09Z</time>
      </trkpt>
      <trkpt lat="41.508085979148746" lon="-3.26532200910151">
        <ele>889.31100000000004</ele>
        <time>2021-07-10T10:19:11Z</time>
      </trkpt>
      <trkpt lat="41.508307009935379" lon="-3.26508304104209">
        <ele>889.38699999999994</ele>
        <time>2021-07-10T10:19:12Z</time>
      </trkpt>
      <trkpt lat="41.508510019630194" lon="-3.264884976670146">
        <ele>889.26900000000001</ele>
        <time>2021-07-10T10:19:14Z</time>
      </trkpt>
      <trkpt lat="41.508883014321327" lon="-3.264583982527256">
        <ele>889.65200000000004</ele>
        <time>2021-07-10T10:19:16Z</time>
      </trkpt>
      <trkpt lat="41.509066997095942" lon="-3.264464037492871">
        <ele>890.01599999999996</ele>
        <time>2021-07-10T10:19:18Z</time>
      </trkpt>
      <trkpt lat="41.509247962385416" lon="-3.264352977275848">
        <ele>890.31500000000005</ele>
        <time>2021-07-10T10:19:19Z</time>
      </trkpt>
      <trkpt lat="41.509392969310284" lon="-3.264261027798057">
        <ele>890.21400000000006</ele>
        <time>2021-07-10T10:19:21Z</time>
      </trkpt>
      <trkpt lat="41.509643001481891" lon="-3.264105040580034">
        <ele>890.25400000000002</ele>
        <time>2021-07-10T10:19:23Z</time>
      </trkpt>
      <trkpt lat="41.509769987314939" lon="-3.264025999233127">
        <ele>890.00900000000001</ele>
        <time>2021-07-10T10:19:24Z</time>
      </trkpt>
      <trkpt lat="41.509902002289891" lon="-3.263941006734967">
        <ele>889.60799999999995</ele>
        <time>2021-07-10T10:19:26Z</time>
      </trkpt>
      <trkpt lat="41.510030999779701" lon="-3.263856014236808">
        <ele>889.15800000000002</ele>
        <time>2021-07-10T10:19:28Z</time>
      </trkpt>
      <trkpt lat="41.510288994759321" lon="-3.263683011755347">
        <ele>888.76800000000003</ele>
        <time>2021-07-10T10:19:30Z</time>
      </trkpt>
      <trkpt lat="41.510584037750959" lon="-3.263486959040165">
        <ele>888.65899999999999</ele>
        <time>2021-07-10T10:19:32Z</time>
      </trkpt>
      <trkpt lat="41.510868016630411" lon="-3.263286966830492">
        <ele>887.96500000000003</ele>
        <time>2021-07-10T10:19:34Z</time>
      </trkpt>
      <trkpt lat="41.511030038818717" lon="-3.263180013746023">
        <ele>887.077</ele>
        <time>2021-07-10T10:19:36Z</time>
      </trkpt>
      <trkpt lat="41.511385012418032" lon="-3.26297901570797">
        <ele>886.75999999999999</ele>
        <time>2021-07-10T10:19:37Z</time>
      </trkpt>
      <trkpt lat="41.511581987142563" lon="-3.26287298463285">
        <ele>886.37400000000002</ele>
        <time>2021-07-10T10:19:39Z</time>
      </trkpt>
      <trkpt lat="41.511969985440373" lon="-3.262670980766416">
        <ele>886.41300000000001</ele>
        <time>2021-07-10T10:19:40Z</time>
      </trkpt>
      <trkpt lat="41.512178024277091" lon="-3.262555981054902">
        <ele>886.63499999999999</ele>
        <time>2021-07-10T10:19:42Z</time>
      </trkpt>
      <trkpt lat="41.512387990951538" lon="-3.262434024363756">
        <ele>887.18600000000004</ele>
        <time>2021-07-10T10:19:43Z</time>
      </trkpt>
      <trkpt lat="41.512598963454366" lon="-3.262290023267269">
        <ele>887.21400000000006</ele>
        <time>2021-07-10T10:19:45Z</time>
      </trkpt>
      <trkpt lat="41.512968018651009" lon="-3.261923985555768">
        <ele>887.30799999999999</ele>
        <time>2021-07-10T10:19:46Z</time>
      </trkpt>
      <trkpt lat="41.513296002522111" lon="-3.261456023901701">
        <ele>886.19000000000005</ele>
        <time>2021-07-10T10:19:48Z</time>
      </trkpt>
      <trkpt lat="41.513455007225275" lon="-3.261185036972165">
        <ele>884.66999999999996</ele>
        <time>2021-07-10T10:19:49Z</time>
      </trkpt>
      <trkpt lat="41.513746026903391" lon="-3.260693019255996">
        <ele>883.51099999999997</ele>
        <time>2021-07-10T10:19:50Z</time>
      </trkpt>
      <trkpt lat="41.51406797580421" lon="-3.260204019024968">
        <ele>883.03700000000003</ele>
        <time>2021-07-10T10:19:52Z</time>
      </trkpt>
      <trkpt lat="41.514256987720728" lon="-3.259981982409954">
        <ele>882.85900000000004</ele>
        <time>2021-07-10T10:19:54Z</time>
      </trkpt>
      <trkpt lat="41.514679016545415" lon="-3.259601024910808">
        <ele>882.71199999999999</ele>
        <time>2021-07-10T10:19:56Z</time>
      </trkpt>
      <trkpt lat="41.514903986826539" lon="-3.259411007165909">
        <ele>882.44600000000003</ele>
        <time>2021-07-10T10:19:57Z</time>
      </trkpt>
      <trkpt lat="41.515351999551058" lon="-3.259020997211337">
        <ele>882.44500000000005</ele>
        <time>2021-07-10T10:19:58Z</time>
      </trkpt>
      <trkpt lat="41.515771010890603" lon="-3.258665017783642">
        <ele>882.61300000000006</ele>
        <time>2021-07-10T10:20:00Z</time>
      </trkpt>
      <trkpt lat="41.516231009736657" lon="-3.258372992277145">
        <ele>882.44299999999998</ele>
        <time>2021-07-10T10:20:02Z</time>
      </trkpt>
      <trkpt lat="41.516491016373038" lon="-3.258264027535915">
        <ele>882.10699999999997</ele>
        <time>2021-07-10T10:20:03Z</time>
      </trkpt>
      <trkpt lat="41.516986973583698" lon="-3.258184986189008">
        <ele>882.20799999999997</ele>
        <time>2021-07-10T10:20:05Z</time>
      </trkpt>
      <trkpt lat="41.517531964927912" lon="-3.258138969540596">
        <ele>882.25800000000004</ele>
        <time>2021-07-10T10:20:06Z</time>
      </trkpt>
      <trkpt lat="41.517832959070802" lon="-3.258107034489512">
        <ele>882.03800000000001</ele>
        <time>2021-07-10T10:20:07Z</time>
      </trkpt>
      <trkpt lat="41.518388008698821" lon="-3.258051965385675">
        <ele>882.09900000000005</ele>
        <time>2021-07-10T10:20:08Z</time>
      </trkpt>
      <trkpt lat="41.51896501891315" lon="-3.257982982322574">
        <ele>881.43499999999995</ele>
        <time>2021-07-10T10:20:10Z</time>
      </trkpt>
      <trkpt lat="41.519521996378899" lon="-3.257919028401375">
        <ele>881.67700000000002</ele>
        <time>2021-07-10T10:20:12Z</time>
      </trkpt>
      <trkpt lat="41.520075034350157" lon="-3.257904024794698">
        <ele>881.45000000000005</ele>
        <time>2021-07-10T10:20:14Z</time>
      </trkpt>
      <trkpt lat="41.520656989887357" lon="-3.257945012301207">
        <ele>881.024</ele>
        <time>2021-07-10T10:20:15Z</time>
      </trkpt>
      <trkpt lat="41.521210027858615" lon="-3.258004020899534">
        <ele>880.63300000000004</ele>
        <time>2021-07-10T10:20:17Z</time>
      </trkpt>
      <trkpt lat="41.521494006738067" lon="-3.258061017841101">
        <ele>880.31500000000005</ele>
        <time>2021-07-10T10:20:19Z</time>
      </trkpt>
      <trkpt lat="41.522051990032196" lon="-3.258235026150942">
        <ele>880.16499999999996</ele>
        <time>2021-07-10T10:20:20Z</time>
      </trkpt>
      <trkpt lat="41.522344015538692" lon="-3.258333010599017">
        <ele>879.91099999999994</ele>
        <time>2021-07-10T10:20:21Z</time>
      </trkpt>
      <trkpt lat="41.522871991619468" lon="-3.258496960625053">
        <ele>879.90800000000002</ele>
        <time>2021-07-10T10:20:23Z</time>
      </trkpt>
      <trkpt lat="41.523147001862526" lon="-3.258563010022044">
        <ele>879.98800000000006</ele>
        <time>2021-07-10T10:20:24Z</time>
      </trkpt>
      <trkpt lat="41.523700961843133" lon="-3.258625036105514">
        <ele>879.66800000000001</ele>
        <time>2021-07-10T10:20:25Z</time>
      </trkpt>
      <trkpt lat="41.523983012884855" lon="-3.258628975600004">
        <ele>879.45899999999995</ele>
        <time>2021-07-10T10:20:26Z</time>
      </trkpt>
      <trkpt lat="41.524549964815378" lon="-3.25864096172154">
        <ele>879.06500000000005</ele>
        <time>2021-07-10T10:20:28Z</time>
      </trkpt>
      <trkpt lat="41.524840984493494" lon="-3.258648002520204">
        <ele>878.35699999999997</ele>
        <time>2021-07-10T10:20:30Z</time>
      </trkpt>
      <trkpt lat="41.525147007778287" lon="-3.258657976984978">
        <ele>877.67999999999995</ele>
        <time>2021-07-10T10:20:31Z</time>
      </trkpt>
      <trkpt lat="41.525724017992616" lon="-3.258683038875461">
        <ele>877.12400000000002</ele>
        <time>2021-07-10T10:20:33Z</time>
      </trkpt>
      <trkpt lat="41.526338998228312" lon="-3.258708016946912">
        <ele>876.97299999999996</ele>
        <time>2021-07-10T10:20:35Z</time>
      </trkpt>
      <trkpt lat="41.526961019262671" lon="-3.258728971704841">
        <ele>876.68799999999999</ele>
        <time>2021-07-10T10:20:36Z</time>
      </trkpt>
      <trkpt lat="41.527271987870336" lon="-3.258738024160266">
        <ele>876.22400000000005</ele>
        <time>2021-07-10T10:20:38Z</time>
      </trkpt>
      <trkpt lat="41.527582034468651" lon="-3.258750010281801">
        <ele>875.42600000000004</ele>
        <time>2021-07-10T10:20:40Z</time>
      </trkpt>
      <trkpt lat="41.528216041624546" lon="-3.258775994181633">
        <ele>875.00800000000004</ele>
        <time>2021-07-10T10:20:41Z</time>
      </trkpt>
      <trkpt lat="41.528795985504985" lon="-3.258816981688142">
        <ele>874.91499999999996</ele>
        <time>2021-07-10T10:20:42Z</time>
      </trkpt>
      <trkpt lat="41.529097985476255" lon="-3.25885402970016">
        <ele>874.61500000000001</ele>
        <time>2021-07-10T10:20:44Z</time>
      </trkpt>
      <trkpt lat="41.529698967933655" lon="-3.25896198861301">
        <ele>874.45600000000002</ele>
        <time>2021-07-10T10:20:45Z</time>
      </trkpt>
      <trkpt lat="41.529999962076545" lon="-3.259016973897815">
        <ele>874.87199999999996</ele>
        <time>2021-07-10T10:20:46Z</time>
      </trkpt>
      <trkpt lat="41.530300034210086" lon="-3.259071037173271">
        <ele>874.88400000000001</ele>
        <time>2021-07-10T10:20:47Z</time>
      </trkpt>
      <trkpt lat="41.530598010867834" lon="-3.259126022458077">
        <ele>875.13699999999994</ele>
        <time>2021-07-10T10:20:49Z</time>
      </trkpt>
      <trkpt lat="41.531198993325233" lon="-3.259231969714165">
        <ele>875.12099999999998</ele>
        <time>2021-07-10T10:20:50Z</time>
      </trkpt>
      <trkpt lat="41.531747002154589" lon="-3.259330037981272">
        <ele>874.25999999999999</ele>
        <time>2021-07-10T10:20:51Z</time>
      </trkpt>
      <trkpt lat="41.532314959913492" lon="-3.259433973580599">
        <ele>873.31899999999996</ele>
        <time>2021-07-10T10:20:53Z</time>
      </trkpt>
      <trkpt lat="41.532616959884763" lon="-3.259487031027675">
        <ele>873.10900000000004</ele>
        <time>2021-07-10T10:20:54Z</time>
      </trkpt>
      <trkpt lat="41.533153988420963" lon="-3.259557019919157">
        <ele>873.01900000000001</ele>
        <time>2021-07-10T10:20:56Z</time>
      </trkpt>
      <trkpt lat="41.533695962280035" lon="-3.259569006040692">
        <ele>873.10799999999995</ele>
        <time>2021-07-10T10:20:58Z</time>
      </trkpt>
      <trkpt lat="41.533973990008235" lon="-3.259546039626002">
        <ele>873.59799999999996</ele>
        <time>2021-07-10T10:20:59Z</time>
      </trkpt>
      <trkpt lat="41.5342400316149" lon="-3.259505974128842">
        <ele>873.56799999999998</ele>
        <time>2021-07-10T10:21:01Z</time>
      </trkpt>
      <trkpt lat="41.534732971340418" lon="-3.259371025487781">
        <ele>873.45899999999995</ele>
        <time>2021-07-10T10:21:03Z</time>
      </trkpt>
      <trkpt lat="41.534989960491657" lon="-3.259287038818002">
        <ele>873.56500000000005</ele>
        <time>2021-07-10T10:21:04Z</time>
      </trkpt>
      <trkpt lat="41.535246027633548" lon="-3.259199028834701">
        <ele>874.39700000000005</ele>
        <time>2021-07-10T10:21:06Z</time>
      </trkpt>
      <trkpt lat="41.535501005128026" lon="-3.259104983881116">
        <ele>874.32000000000005</ele>
        <time>2021-07-10T10:21:08Z</time>
      </trkpt>
      <trkpt lat="41.536002997308969" lon="-3.258912032470107">
        <ele>873.98400000000004</ele>
        <time>2021-07-10T10:21:10Z</time>
      </trkpt>
      <trkpt lat="41.536515969783068" lon="-3.258755039423704">
        <ele>873.98299999999995</ele>
        <time>2021-07-10T10:21:11Z</time>
      </trkpt>
      <trkpt lat="41.536786034703255" lon="-3.258699970319867">
        <ele>873.98599999999999</ele>
        <time>2021-07-10T10:21:12Z</time>
      </trkpt>
      <trkpt lat="41.537276040762663" lon="-3.258658982813358">
        <ele>873.86000000000001</ele>
        <time>2021-07-10T10:21:14Z</time>
      </trkpt>
      <trkpt lat="41.537783984094858" lon="-3.258628975600004">
        <ele>873.52599999999995</ele>
        <time>2021-07-10T10:21:15Z</time>
      </trkpt>
      <trkpt lat="41.538052959367633" lon="-3.258610032498837">
        <ele>873.10799999999995</ele>
        <time>2021-07-10T10:21:16Z</time>
      </trkpt>
      <trkpt lat="41.538528967648745" lon="-3.258542977273464">
        <ele>873.39499999999998</ele>
        <time>2021-07-10T10:21:18Z</time>
      </trkpt>
      <trkpt lat="41.539030959829688" lon="-3.258411968126893">
        <ele>873.05499999999995</ele>
        <time>2021-07-10T10:21:20Z</time>
      </trkpt>
      <trkpt lat="41.539279986172915" lon="-3.258315995335579">
        <ele>872.726</ele>
        <time>2021-07-10T10:21:21Z</time>
      </trkpt>
      <trkpt lat="41.539525995030999" lon="-3.258202001452446">
        <ele>873.02200000000005</ele>
        <time>2021-07-10T10:21:22Z</time>
      </trkpt>
      <trkpt lat="41.539985993877053" lon="-3.257921040058136">
        <ele>872.64400000000001</ele>
        <time>2021-07-10T10:21:24Z</time>
      </trkpt>
      <trkpt lat="41.540204007178545" lon="-3.257753988727927">
        <ele>872.28700000000003</ele>
        <time>2021-07-10T10:21:25Z</time>
      </trkpt>
      <trkpt lat="41.540421014651656" lon="-3.257552990689874">
        <ele>871.34100000000001</ele>
        <time>2021-07-10T10:21:27Z</time>
      </trkpt>
      <trkpt lat="41.540612960234284" lon="-3.257355010136962">
        <ele>871.19000000000005</ele>
        <time>2021-07-10T10:21:29Z</time>
      </trkpt>
      <trkpt lat="41.540970029309392" lon="-3.256967011839151">
        <ele>871.03700000000003</ele>
        <time>2021-07-10T10:21:30Z</time>
      </trkpt>
      <trkpt lat="41.54115803539753" lon="-3.256782023236156">
        <ele>871.24900000000002</ele>
        <time>2021-07-10T10:21:32Z</time>
      </trkpt>
      <trkpt lat="41.541358027607203" lon="-3.25659996829927">
        <ele>871.41300000000001</ele>
        <time>2021-07-10T10:21:34Z</time>
      </trkpt>
      <trkpt lat="41.541750971227884" lon="-3.256349014118314">
        <ele>871.10799999999995</ele>
        <time>2021-07-10T10:21:36Z</time>
      </trkpt>
      <trkpt lat="41.54197602532804" lon="-3.256258992478252">
        <ele>870.84000000000003</ele>
        <time>2021-07-10T10:21:37Z</time>
      </trkpt>
      <trkpt lat="41.542455973103642" lon="-3.256162013858557">
        <ele>870.53999999999996</ele>
        <time>2021-07-10T10:21:38Z</time>
      </trkpt>
      <trkpt lat="41.54292200691998" lon="-3.256201995536685">
        <ele>870.66099999999994</ele>
        <time>2021-07-10T10:21:40Z</time>
      </trkpt>
      <trkpt lat="41.543170027434826" lon="-3.256259998306632">
        <ele>870.28700000000003</ele>
        <time>2021-07-10T10:21:41Z</time>
      </trkpt>
      <trkpt lat="41.543692974373698" lon="-3.256400981917977">
        <ele>870.07899999999995</ele>
        <time>2021-07-10T10:21:42Z</time>
      </trkpt>
      <trkpt lat="41.544205024838448" lon="-3.256530985236168">
        <ele>869.76199999999994</ele>
        <time>2021-07-10T10:21:44Z</time>
      </trkpt>
      <trkpt lat="41.544474000111222" lon="-3.256611032411456">
        <ele>869.45600000000002</ele>
        <time>2021-07-10T10:21:46Z</time>
      </trkpt>
      <trkpt lat="41.545013040304184" lon="-3.256852012127638">
        <ele>869.89499999999998</ele>
        <time>2021-07-10T10:21:48Z</time>
      </trkpt>
      <trkpt lat="41.54552299529314" lon="-3.257164992392063">
        <ele>871.07899999999995</ele>
        <time>2021-07-10T10:21:50Z</time>
      </trkpt>
      <trkpt lat="41.546057006344199" lon="-3.257499011233449">
        <ele>872.20500000000004</ele>
        <time>2021-07-10T10:21:51Z</time>
      </trkpt>
      <trkpt lat="41.546332016587257" lon="-3.257671007886529">
        <ele>873.72500000000002</ele>
        <time>2021-07-10T10:21:53Z</time>
      </trkpt>
      <trkpt lat="41.546626975759864" lon="-3.257857002317905">
        <ele>874.50800000000004</ele>
        <time>2021-07-10T10:21:54Z</time>
      </trkpt>
      <trkpt lat="41.547172972932458" lon="-3.258194960653782">
        <ele>875.38400000000001</ele>
        <time>2021-07-10T10:21:55Z</time>
      </trkpt>
      <trkpt lat="41.547463992610574" lon="-3.258375003933907">
        <ele>875.94399999999996</ele>
        <time>2021-07-10T10:21:57Z</time>
      </trkpt>
      <trkpt lat="41.547753000631928" lon="-3.25855202972889">
        <ele>877.255</ele>
        <time>2021-07-10T10:21:58Z</time>
      </trkpt>
      <trkpt lat="41.548329005017877" lon="-3.258900968357921">
        <ele>878.91099999999994</ele>
        <time>2021-07-10T10:22:00Z</time>
      </trkpt>
      <trkpt lat="41.548897968605161" lon="-3.259250996634364">
        <ele>880.37300000000005</ele>
        <time>2021-07-10T10:22:01Z</time>
      </trkpt>
      <trkpt lat="41.549184964969754" lon="-3.259428022429347">
        <ele>881.63599999999997</ele>
        <time>2021-07-10T10:22:02Z</time>
      </trkpt>
      <trkpt lat="41.549487970769405" lon="-3.259614016860724">
        <ele>882.41999999999996</ele>
        <time>2021-07-10T10:22:03Z</time>
      </trkpt>
      <trkpt lat="41.550032962113619" lon="-3.259944012388587">
        <ele>882.91899999999998</ele>
        <time>2021-07-10T10:22:04Z</time>
      </trkpt>
      <trkpt lat="41.55031300149858" lon="-3.260111985728145">
        <ele>883.39599999999996</ele>
        <time>2021-07-10T10:22:06Z</time>
      </trkpt>
      <trkpt lat="41.550851035863161" lon="-3.260435024276376">
        <ele>883.83100000000002</ele>
        <time>2021-07-10T10:22:07Z</time>
      </trkpt>
      <trkpt lat="41.551377000287175" lon="-3.260717997327447">
        <ele>883.72400000000005</ele>
        <time>2021-07-10T10:22:08Z</time>
      </trkpt>
      <trkpt lat="41.55164304189384" lon="-3.260817993432283">
        <ele>883.90800000000002</ele>
        <time>2021-07-10T10:22:10Z</time>
      </trkpt>
      <trkpt lat="41.552197001874447" lon="-3.260964006185532">
        <ele>883.48599999999999</ele>
        <time>2021-07-10T10:22:12Z</time>
      </trkpt>
      <trkpt lat="41.552711986005306" lon="-3.261076994240284">
        <ele>883.39599999999996</ele>
        <time>2021-07-10T10:22:13Z</time>
      </trkpt>
      <trkpt lat="41.553218001499772" lon="-3.261177996173501">
        <ele>882.79700000000003</ele>
        <time>2021-07-10T10:22:15Z</time>
      </trkpt>
      <trkpt lat="41.553465016186237" lon="-3.261206997558475">
        <ele>882.41300000000001</ele>
        <time>2021-07-10T10:22:16Z</time>
      </trkpt>
      <trkpt lat="41.55368504114449" lon="-3.261217977851629">
        <ele>881.38499999999999</ele>
        <time>2021-07-10T10:22:18Z</time>
      </trkpt>
      <trkpt lat="41.554084019735456" lon="-3.261222001165152">
        <ele>880.34799999999996</ele>
        <time>2021-07-10T10:22:19Z</time>
      </trkpt>
      <trkpt lat="41.554271019995213" lon="-3.261217977851629">
        <ele>879.59199999999998</ele>
        <time>2021-07-10T10:22:21Z</time>
      </trkpt>
      <trkpt lat="41.554457014426589" lon="-3.261211020871997">
        <ele>878.67100000000005</ele>
        <time>2021-07-10T10:22:23Z</time>
      </trkpt>
      <trkpt lat="41.554791033267975" lon="-3.261204985901713">
        <ele>878.08900000000006</ele>
        <time>2021-07-10T10:22:24Z</time>
      </trkpt>
      <trkpt lat="41.555153969675303" lon="-3.261201968416572">
        <ele>877.60599999999999</ele>
        <time>2021-07-10T10:22:26Z</time>
      </trkpt>
      <trkpt lat="41.55555697157979" lon="-3.261200040578842">
        <ele>876.82600000000002</ele>
        <time>2021-07-10T10:22:28Z</time>
      </trkpt>
      <trkpt lat="41.555947987362742" lon="-3.261206997558475">
        <ele>876.10799999999995</ele>
        <time>2021-07-10T10:22:30Z</time>
      </trkpt>
      <trkpt lat="41.556161977350712" lon="-3.261206997558475">
        <ele>876.26499999999999</ele>
        <time>2021-07-10T10:22:32Z</time>
      </trkpt>
      <trkpt lat="41.556588029488921" lon="-3.26119601726532">
        <ele>876.21500000000003</ele>
        <time>2021-07-10T10:22:34Z</time>
      </trkpt>
      <trkpt lat="41.556808976456523" lon="-3.26117699034512">
        <ele>875.73599999999999</ele>
        <time>2021-07-10T10:22:36Z</time>
      </trkpt>
      <trkpt lat="41.557029001414776" lon="-3.261145977303386">
        <ele>875.31200000000001</ele>
        <time>2021-07-10T10:22:37Z</time>
      </trkpt>
      <trkpt lat="41.557462010532618" lon="-3.261008011177182">
        <ele>874.774</ele>
        <time>2021-07-10T10:22:38Z</time>
      </trkpt>
      <trkpt lat="41.557686980813742" lon="-3.260883037000895">
        <ele>874.31700000000001</ele>
        <time>2021-07-10T10:22:39Z</time>
      </trkpt>
      <trkpt lat="41.558062992990017" lon="-3.260570978745818">
        <ele>872.86099999999999</ele>
        <time>2021-07-10T10:22:41Z</time>
      </trkpt>
      <trkpt lat="41.558242030441761" lon="-3.260366041213274">
        <ele>871.82000000000005</ele>
        <time>2021-07-10T10:22:42Z</time>
      </trkpt>
      <trkpt lat="41.558411009609699" lon="-3.260138975456357">
        <ele>870.87699999999995</ele>
        <time>2021-07-10T10:22:44Z</time>
      </trkpt>
      <trkpt lat="41.558574037626386" lon="-3.259873017668724">
        <ele>869.96100000000001</ele>
        <time>2021-07-10T10:22:46Z</time>
      </trkpt>
      <trkpt lat="41.558704962953925" lon="-3.259605970233679">
        <ele>869.327</ele>
        <time>2021-07-10T10:22:47Z</time>
      </trkpt>
      <trkpt lat="41.558940997347236" lon="-3.258908009156585">
        <ele>869.10799999999995</ele>
        <time>2021-07-10T10:22:48Z</time>
      </trkpt>
      <trkpt lat="41.55901400372386" lon="-3.25859603472054">
        <ele>869.18399999999997</ele>
        <time>2021-07-10T10:22:49Z</time>
      </trkpt>
      <trkpt lat="41.559086004272103" lon="-3.25825497508049">
        <ele>868.774</ele>
        <time>2021-07-10T10:22:51Z</time>
      </trkpt>
      <trkpt lat="41.559211984276772" lon="-3.257604958489537">
        <ele>867.45500000000004</ele>
        <time>2021-07-10T10:22:53Z</time>
      </trkpt>
      <trkpt lat="41.559373000636697" lon="-3.256931975483894">
        <ele>865.471</ele>
        <time>2021-07-10T10:22:55Z</time>
      </trkpt>
      <trkpt lat="41.559481965377927" lon="-3.256582031026483">
        <ele>863.73299999999995</ele>
        <time>2021-07-10T10:22:56Z</time>
      </trkpt>
      <trkpt lat="41.559731997549534" lon="-3.255968978628516">
        <ele>862.346</ele>
        <time>2021-07-10T10:22:57Z</time>
      </trkpt>
      <trkpt lat="41.559891002252698" lon="-3.255662033334374">
        <ele>861.24000000000001</ele>
        <time>2021-07-10T10:22:59Z</time>
      </trkpt>
      <trkpt lat="41.56026198528707" lon="-3.255062978714705">
        <ele>860.29899999999998</ele>
        <time>2021-07-10T10:23:00Z</time>
      </trkpt>
      <trkpt lat="41.560457032173872" lon="-3.254787968471646">
        <ele>860.06899999999996</ele>
        <time>2021-07-10T10:23:02Z</time>
      </trkpt>
      <trkpt lat="41.560851987451315" lon="-3.254268961027265">
        <ele>859.70399999999995</ele>
        <time>2021-07-10T10:23:04Z</time>
      </trkpt>
      <trkpt lat="41.561261024326086" lon="-3.253738973289728">
        <ele>860.22400000000005</ele>
        <time>2021-07-10T10:23:06Z</time>
      </trkpt>
      <trkpt lat="41.561469985172153" lon="-3.253467986360192">
        <ele>860.00800000000004</ele>
        <time>2021-07-10T10:23:08Z</time>
      </trkpt>
      <trkpt lat="41.561835017055273" lon="-3.252956019714475">
        <ele>860.02300000000002</ele>
        <time>2021-07-10T10:23:09Z</time>
      </trkpt>
      <trkpt lat="41.562145985662937" lon="-3.252382026985288">
        <ele>859.58299999999997</ele>
        <time>2021-07-10T10:23:11Z</time>
      </trkpt>
      <trkpt lat="41.562376990914345" lon="-3.251765035092831">
        <ele>859.36400000000003</ele>
        <time>2021-07-10T10:23:13Z</time>
      </trkpt>
      <trkpt lat="41.56251797452569" lon="-3.251105966046453">
        <ele>858.58000000000004</ele>
        <time>2021-07-10T10:23:14Z</time>
      </trkpt>
      <trkpt lat="41.562610007822514" lon="-3.250399958342314">
        <ele>857.53200000000004</ele>
        <time>2021-07-10T10:23:15Z</time>
      </trkpt>
      <trkpt lat="41.562696006149054" lon="-3.249739967286587">
        <ele>857.45500000000004</ele>
        <time>2021-07-10T10:23:17Z</time>
      </trkpt>
      <trkpt lat="41.562740011140704" lon="-3.249406032264233">
        <ele>857.22900000000004</ele>
        <time>2021-07-10T10:23:18Z</time>
      </trkpt>
      <trkpt lat="41.562799019739032" lon="-3.249081987887621">
        <ele>857.678</ele>
        <time>2021-07-10T10:23:19Z</time>
      </trkpt>
      <trkpt lat="41.562883006408811" lon="-3.248763978481293">
        <ele>858.23699999999997</ele>
        <time>2021-07-10T10:23:21Z</time>
      </trkpt>
      <trkpt lat="41.563115017488599" lon="-3.248147992417216">
        <ele>858.24900000000002</ele>
        <time>2021-07-10T10:23:22Z</time>
      </trkpt>
      <trkpt lat="41.56324896030128" lon="-3.247837023809552">
        <ele>858.61300000000006</ele>
        <time>2021-07-10T10:23:24Z</time>
      </trkpt>
      <trkpt lat="41.563523970544338" lon="-3.247169991955161">
        <ele>858.50800000000004</ele>
        <time>2021-07-10T10:23:26Z</time>
      </trkpt>
      <trkpt lat="41.563782971352339" lon="-3.246541013941169">
        <ele>858.16999999999996</ele>
        <time>2021-07-10T10:23:28Z</time>
      </trkpt>
      <trkpt lat="41.563918003812432" lon="-3.246217975392938">
        <ele>858.02999999999997</ele>
        <time>2021-07-10T10:23:29Z</time>
      </trkpt>
      <trkpt lat="41.564053958281875" lon="-3.24589996598661">
        <ele>857.55100000000004</ele>
        <time>2021-07-10T10:23:31Z</time>
      </trkpt>
      <trkpt lat="41.564197959378362" lon="-3.245562007650733">
        <ele>857.23699999999997</ele>
        <time>2021-07-10T10:23:32Z</time>
      </trkpt>
      <trkpt lat="41.564460983499885" lon="-3.244960019364953">
        <ele>856.71900000000005</ele>
        <time>2021-07-10T10:23:33Z</time>
      </trkpt>
      <trkpt lat="41.564770024269819" lon="-3.244363982230425">
        <ele>856.75199999999995</ele>
        <time>2021-07-10T10:23:35Z</time>
      </trkpt>
      <trkpt lat="41.565119968727231" lon="-3.243789989501238">
        <ele>856.596</ele>
        <time>2021-07-10T10:23:36Z</time>
      </trkpt>
      <trkpt lat="41.565306968986988" lon="-3.243503998965025">
        <ele>856.755</ele>
        <time>2021-07-10T10:23:37Z</time>
      </trkpt>
      <trkpt lat="41.565493969246745" lon="-3.243215996772051">
        <ele>856.77200000000005</ele>
        <time>2021-07-10T10:23:39Z</time>
      </trkpt>
      <trkpt lat="41.565821031108499" lon="-3.242595987394452">
        <ele>856.51300000000003</ele>
        <time>2021-07-10T10:23:41Z</time>
      </trkpt>
      <trkpt lat="41.565946005284786" lon="-3.242236990481615">
        <ele>856.21400000000006</ele>
        <time>2021-07-10T10:23:43Z</time>
      </trkpt>
      <trkpt lat="41.566093023866415" lon="-3.241544980555773">
        <ele>856.10799999999995</ele>
        <time>2021-07-10T10:23:44Z</time>
      </trkpt>
      <trkpt lat="41.56621397472918" lon="-3.240754986181855">
        <ele>856.07399999999996</ele>
        <time>2021-07-10T10:23:45Z</time>
      </trkpt>
      <trkpt lat="41.566335009410977" lon="-3.240000028163195">
        <ele>855.78399999999999</ele>
        <time>2021-07-10T10:23:47Z</time>
      </trkpt>
      <trkpt lat="41.566464006900787" lon="-3.239196036010981">
        <ele>855.55499999999995</ele>
        <time>2021-07-10T10:23:48Z</time>
      </trkpt>
      <trkpt lat="41.56653399579227" lon="-3.238761015236378">
        <ele>855.78099999999995</ele>
        <time>2021-07-10T10:23:50Z</time>
      </trkpt>
      <trkpt lat="41.566646983847022" lon="-3.237976972013712">
        <ele>855.76300000000003</ele>
        <time>2021-07-10T10:23:51Z</time>
      </trkpt>
      <trkpt lat="41.566741028800607" lon="-3.23713299818337">
        <ele>855.726</ele>
        <time>2021-07-10T10:23:53Z</time>
      </trkpt>
      <trkpt lat="41.566778998821974" lon="-3.236709041520953">
        <ele>855.94000000000005</ele>
        <time>2021-07-10T10:23:54Z</time>
      </trkpt>
      <trkpt lat="41.566818980500102" lon="-3.236261028796434">
        <ele>855.67899999999997</ele>
        <time>2021-07-10T10:23:55Z</time>
      </trkpt>
      <trkpt lat="41.566896010190248" lon="-3.235472962260246">
        <ele>855.51900000000001</ele>
        <time>2021-07-10T10:23:57Z</time>
      </trkpt>
      <trkpt lat="41.566935991868377" lon="-3.23506903834641">
        <ele>855.20899999999995</ele>
        <time>2021-07-10T10:23:59Z</time>
      </trkpt>
      <trkpt lat="41.566981002688408" lon="-3.23466301895678">
        <ele>855.01900000000001</ele>
        <time>2021-07-10T10:24:00Z</time>
      </trkpt>
      <trkpt lat="41.567057026550174" lon="-3.233887022361159">
        <ele>855.20799999999997</ele>
        <time>2021-07-10T10:24:02Z</time>
      </trkpt>
      <trkpt lat="41.567100025713444" lon="-3.233514027670026">
        <ele>855.37800000000004</ele>
        <time>2021-07-10T10:24:03Z</time>
      </trkpt>
      <trkpt lat="41.567145036533475" lon="-3.232797961682081">
        <ele>855.38800000000003</ele>
        <time>2021-07-10T10:24:05Z</time>
      </trkpt>
      <trkpt lat="41.567204967141151" lon="-3.232107963413">
        <ele>855.48900000000003</ele>
        <time>2021-07-10T10:24:06Z</time>
      </trkpt>
      <trkpt lat="41.567294988781214" lon="-3.231445960700512">
        <ele>855.58500000000004</ele>
        <time>2021-07-10T10:24:07Z</time>
      </trkpt>
      <trkpt lat="41.567289959639311" lon="-3.231119988486171">
        <ele>855.99699999999996</ele>
        <time>2021-07-10T10:24:09Z</time>
      </trkpt>
      <trkpt lat="41.567358020693064" lon="-3.230475001037121">
        <ele>856.13999999999999</ele>
        <time>2021-07-10T10:24:10Z</time>
      </trkpt>
      <trkpt lat="41.567365983501077" lon="-3.230155985802412">
        <ele>856.53399999999999</ele>
        <time>2021-07-10T10:24:11Z</time>
      </trkpt>
      <trkpt lat="41.567401019856334" lon="-3.229837976396084">
        <ele>856.98299999999995</ele>
        <time>2021-07-10T10:24:13Z</time>
      </trkpt>
      <trkpt lat="41.567492969334126" lon="-3.22920698672533">
        <ele>856.77099999999996</ele>
        <time>2021-07-10T10:24:15Z</time>
      </trkpt>
      <trkpt lat="41.567531023174524" lon="-3.228893000632525">
        <ele>856.74099999999999</ele>
        <time>2021-07-10T10:24:16Z</time>
      </trkpt>
      <trkpt lat="41.567569999024272" lon="-3.228579014539719">
        <ele>856.21500000000003</ele>
        <time>2021-07-10T10:24:18Z</time>
      </trkpt>
      <trkpt lat="41.567599000409245" lon="-3.227967973798513">
        <ele>856.30799999999999</ele>
        <time>2021-07-10T10:24:19Z</time>
      </trkpt>
      <trkpt lat="41.567721962928772" lon="-3.227384006604552">
        <ele>856.57399999999996</ele>
        <time>2021-07-10T10:24:20Z</time>
      </trkpt>
      <trkpt lat="41.567796980962157" lon="-3.226806996390224">
        <ele>856.39400000000001</ele>
        <time>2021-07-10T10:24:21Z</time>
      </trkpt>
      <trkpt lat="41.567835034802556" lon="-3.226524023339152">
        <ele>856.69500000000005</ele>
        <time>2021-07-10T10:24:23Z</time>
      </trkpt>
      <trkpt lat="41.567877028137445" lon="-3.226244989782572">
        <ele>856.73099999999999</ele>
        <time>2021-07-10T10:24:24Z</time>
      </trkpt>
      <trkpt lat="41.567980041727424" lon="-3.225716007873416">
        <ele>856.96299999999997</ele>
        <time>2021-07-10T10:24:26Z</time>
      </trkpt>
      <trkpt lat="41.568013988435268" lon="-3.225450972095132">
        <ele>857.25599999999997</ele>
        <time>2021-07-10T10:24:28Z</time>
      </trkpt>
      <trkpt lat="41.568031003698707" lon="-3.224925007671118">
        <ele>857.30999999999995</ele>
        <time>2021-07-10T10:24:30Z</time>
      </trkpt>
      <trkpt lat="41.56803896650672" lon="-3.224666006863117">
        <ele>857.44899999999996</ele>
        <time>2021-07-10T10:24:31Z</time>
      </trkpt>
      <trkpt lat="41.568086994811893" lon="-3.2241540402174">
        <ele>857.48699999999997</ele>
        <time>2021-07-10T10:24:33Z</time>
      </trkpt>
      <trkpt lat="41.568127982318401" lon="-3.223900990560651">
        <ele>856.94200000000001</ele>
        <time>2021-07-10T10:24:35Z</time>
      </trkpt>
      <trkpt lat="41.568183973431587" lon="-3.223649030551314">
        <ele>856.726</ele>
        <time>2021-07-10T10:24:36Z</time>
      </trkpt>
      <trkpt lat="41.568324035033584" lon="-3.22314603254199">
        <ele>856.50800000000004</ele>
        <time>2021-07-10T10:24:38Z</time>
      </trkpt>
      <trkpt lat="41.568482033908367" lon="-3.222639011219144">
        <ele>856.05499999999995</ele>
        <time>2021-07-10T10:24:40Z</time>
      </trkpt>
      <trkpt lat="41.568568032234907" lon="-3.222385961562395">
        <ele>855.85500000000002</ele>
        <time>2021-07-10T10:24:41Z</time>
      </trkpt>
      <trkpt lat="41.568712033331394" lon="-3.221866032108665">
        <ele>855.99599999999998</ele>
        <time>2021-07-10T10:24:43Z</time>
      </trkpt>
      <trkpt lat="41.568788979202509" lon="-3.221610970795155">
        <ele>857.24199999999996</ele>
        <time>2021-07-10T10:24:45Z</time>
      </trkpt>
      <trkpt lat="41.568948989734054" lon="-3.221107972785831">
        <ele>857.51400000000001</ele>
        <time>2021-07-10T10:24:47Z</time>
      </trkpt>
      <trkpt lat="41.569030964747071" lon="-3.220858024433255">
        <ele>858.02700000000004</ele>
        <time>2021-07-10T10:24:49Z</time>
      </trkpt>
      <trkpt lat="41.569110006093979" lon="-3.220612015575171">
        <ele>858.08100000000002</ele>
        <time>2021-07-10T10:24:51Z</time>
      </trkpt>
      <trkpt lat="41.569260964170098" lon="-3.220125027000904">
        <ele>858.14999999999998</ele>
        <time>2021-07-10T10:24:53Z</time>
      </trkpt>
      <trkpt lat="41.569329025223851" lon="-3.219879018142819">
        <ele>857.89400000000001</ele>
        <time>2021-07-10T10:24:54Z</time>
      </trkpt>
      <trkpt lat="41.569390967488289" lon="-3.219632003456354">
        <ele>857.65700000000004</ele>
        <time>2021-07-10T10:24:56Z</time>
      </trkpt>
      <trkpt lat="41.569518959149718" lon="-3.219149960204959">
        <ele>857.72199999999998</ele>
        <time>2021-07-10T10:24:57Z</time>
      </trkpt>
      <trkpt lat="41.569662038236856" lon="-3.218685016036034">
        <ele>857.80799999999999</ele>
        <time>2021-07-10T10:24:59Z</time>
      </trkpt>
      <trkpt lat="41.569725992158055" lon="-3.21844001300633">
        <ele>857.37599999999998</ele>
        <time>2021-07-10T10:25:00Z</time>
      </trkpt>
      <trkpt lat="41.569847026839852" lon="-3.217940032482147">
        <ele>856.83600000000001</ele>
        <time>2021-07-10T10:25:01Z</time>
      </trkpt>
      <trkpt lat="41.569904023781419" lon="-3.217682959511876">
        <ele>856.827</ele>
        <time>2021-07-10T10:25:02Z</time>
      </trkpt>
      <trkpt lat="41.569958003237844" lon="-3.217422030866146">
        <ele>856.71299999999997</ele>
        <time>2021-07-10T10:25:04Z</time>
      </trkpt>
      <trkpt lat="41.570010976865888" lon="-3.21715397760272">
        <ele>856.53499999999997</ele>
        <time>2021-07-10T10:25:06Z</time>
      </trkpt>
      <trkpt lat="41.57012396492064" lon="-3.216605968773365">
        <ele>856.14800000000002</ele>
        <time>2021-07-10T10:25:07Z</time>
      </trkpt>
      <trkpt lat="41.570192025974393" lon="-3.216327019035816">
        <ele>856.02200000000005</ele>
        <time>2021-07-10T10:25:09Z</time>
      </trkpt>
      <trkpt lat="41.570319011807442" lon="-3.215746991336346">
        <ele>857.54100000000005</ele>
        <time>2021-07-10T10:25:59Z</time>
      </trkpt>
      <trkpt lat="41.570431999862194" lon="-3.215147014707327">
        <ele>858.87800000000004</ele>
        <time>2021-07-10T10:26:01Z</time>
      </trkpt>
      <trkpt lat="41.570557979866862" lon="-3.214551983401179">
        <ele>859.83299999999997</ele>
        <time>2021-07-10T10:26:03Z</time>
      </trkpt>
      <trkpt lat="41.570622017607093" lon="-3.214260041713715">
        <ele>860.62599999999998</ele>
        <time>2021-07-10T10:26:04Z</time>
      </trkpt>
      <trkpt lat="41.570743974298239" lon="-3.213684959337115">
        <ele>860.90800000000002</ele>
        <time>2021-07-10T10:26:06Z</time>
      </trkpt>
      <trkpt lat="41.570867020636797" lon="-3.213123958557844">
        <ele>860.47400000000005</ele>
        <time>2021-07-10T10:26:08Z</time>
      </trkpt>
      <trkpt lat="41.570927035063505" lon="-3.212845008820295">
        <ele>859.74400000000003</ele>
        <time>2021-07-10T10:26:10Z</time>
      </trkpt>
      <trkpt lat="41.571052009239793" lon="-3.212291970849037">
        <ele>859.61500000000001</ele>
        <time>2021-07-10T10:26:11Z</time>
      </trkpt>
      <trkpt lat="41.571145970374346" lon="-3.211745973676443">
        <ele>859.44100000000003</ele>
        <time>2021-07-10T10:26:13Z</time>
      </trkpt>
      <trkpt lat="41.571180000901222" lon="-3.21147901006043">
        <ele>859.38300000000004</ele>
        <time>2021-07-10T10:26:14Z</time>
      </trkpt>
      <trkpt lat="41.571226017549634" lon="-3.210976012051106">
        <ele>859.38599999999997</ele>
        <time>2021-07-10T10:26:16Z</time>
      </trkpt>
      <trkpt lat="41.571238003671169" lon="-3.210504027083516">
        <ele>859.44000000000005</ele>
        <time>2021-07-10T10:26:18Z</time>
      </trkpt>
      <trkpt lat="41.57124001532793" lon="-3.210046961903572">
        <ele>859.81899999999996</ele>
        <time>2021-07-10T10:26:20Z</time>
      </trkpt>
      <trkpt lat="41.571215959265828" lon="-3.209629040211439">
        <ele>858.81399999999996</ele>
        <time>2021-07-10T10:26:21Z</time>
      </trkpt>
      <trkpt lat="41.571198021993041" lon="-3.209265014156699">
        <ele>858.25400000000002</ele>
        <time>2021-07-10T10:26:23Z</time>
      </trkpt>
      <trkpt lat="41.571186035871506" lon="-3.208938036113977">
        <ele>857.80899999999997</ele>
        <time>2021-07-10T10:26:25Z</time>
      </trkpt>
      <trkpt lat="41.571181006729603" lon="-3.208779031410813">
        <ele>857.60799999999995</ele>
        <time>2021-07-10T10:26:26Z</time>
      </trkpt>
      <trkpt lat="41.571177989244461" lon="-3.208476025611162">
        <ele>857.53800000000001</ele>
        <time>2021-07-10T10:26:27Z</time>
      </trkpt>
      <trkpt lat="41.57117698341608" lon="-3.208319032564759">
        <ele>857.45799999999997</ele>
        <time>2021-07-10T10:26:28Z</time>
      </trkpt>
      <trkpt lat="41.571169020608068" lon="-3.208029018715024">
        <ele>857.35900000000004</ele>
        <time>2021-07-10T10:26:30Z</time>
      </trkpt>
      <trkpt lat="41.571164997294545" lon="-3.207886023446918">
        <ele>857.31500000000005</ele>
        <time>2021-07-10T10:26:31Z</time>
      </trkpt>
      <trkpt lat="41.571159968152642" lon="-3.207745039835572">
        <ele>857.36699999999996</ele>
        <time>2021-07-10T10:26:32Z</time>
      </trkpt>
      <trkpt lat="41.57115301117301" lon="-3.207605984061956">
        <ele>857.38</ele>
        <time>2021-07-10T10:26:34Z</time>
      </trkpt>
      <trkpt lat="41.571147982031107" lon="-3.207345977425575">
        <ele>857.31399999999996</ele>
        <time>2021-07-10T10:26:36Z</time>
      </trkpt>
      <trkpt lat="41.571140019223094" lon="-3.207107009366155">
        <ele>857.33299999999997</ele>
        <time>2021-07-10T10:26:38Z</time>
      </trkpt>
      <trkpt lat="41.571139013394713" lon="-3.207018999382854">
        <ele>857.31399999999996</ele>
        <time>2021-07-10T10:26:40Z</time>
      </trkpt>
      <trkpt lat="41.571142030879855" lon="-3.206936018541455">
        <ele>857.35400000000004</ele>
        <time>2021-07-10T10:26:41Z</time>
      </trkpt>
      <trkpt lat="41.571143958717585" lon="-3.206867035478354">
        <ele>857.30899999999997</ele>
        <time>2021-07-10T10:26:42Z</time>
      </trkpt>
      <trkpt lat="41.571155022829771" lon="-3.206783970817924">
        <ele>857.30799999999999</ele>
        <time>2021-07-10T10:26:44Z</time>
      </trkpt>
      <trkpt lat="41.571183018386364" lon="-3.206681041046977">
        <ele>857.33799999999997</ele>
        <time>2021-07-10T10:26:46Z</time>
      </trkpt>
      <trkpt lat="41.571202967315912" lon="-3.20662597194314">
        <ele>857.36800000000005</ele>
        <time>2021-07-10T10:26:48Z</time>
      </trkpt>
      <trkpt lat="41.571245966479182" lon="-3.206525975838304">
        <ele>857.32899999999995</ele>
        <time>2021-07-10T10:26:50Z</time>
      </trkpt>
      <trkpt lat="41.571296006441116" lon="-3.206440983340144">
        <ele>857.375</ele>
        <time>2021-07-10T10:26:52Z</time>
      </trkpt>
      <trkpt lat="41.571358032524586" lon="-3.206363031640649">
        <ele>857.327</ele>
        <time>2021-07-10T10:26:53Z</time>
      </trkpt>
      <trkpt lat="41.571397008374333" lon="-3.206322966143489">
        <ele>857.33000000000004</ele>
        <time>2021-07-10T10:26:55Z</time>
      </trkpt>
      <trkpt lat="41.571484012529254" lon="-3.206249959766865">
        <ele>857.36400000000003</ele>
        <time>2021-07-10T10:26:57Z</time>
      </trkpt>
      <trkpt lat="41.571537991985679" lon="-3.206210983917117">
        <ele>857.32299999999998</ele>
        <time>2021-07-10T10:26:58Z</time>
      </trkpt>
      <trkpt lat="41.57164896838367" lon="-3.206145018339157">
        <ele>857.35599999999999</ele>
        <time>2021-07-10T10:27:00Z</time>
      </trkpt>
      <trkpt lat="41.571757011115551" lon="-3.206088021397591">
        <ele>857.35900000000004</ele>
        <time>2021-07-10T10:27:01Z</time>
      </trkpt>
      <trkpt lat="41.571867987513542" lon="-3.206003028899431">
        <ele>857.31399999999996</ele>
        <time>2021-07-10T10:27:03Z</time>
      </trkpt>
      <trkpt lat="41.571934958919883" lon="-3.205974027514458">
        <ele>857.30799999999999</ele>
        <time>2021-07-10T10:27:06Z</time>
      </trkpt>
      <trkpt lat="41.57205699943006" lon="-3.205909989774227">
        <ele>857.33199999999999</ele>
        <time>2021-07-10T10:27:08Z</time>
      </trkpt>
      <trkpt lat="41.572190020233393" lon="-3.205836983397603">
        <ele>857.34199999999998</ele>
        <time>2021-07-10T10:27:10Z</time>
      </trkpt>
      <trkpt lat="41.572255985811353" lon="-3.205795995891094">
        <ele>857.33299999999997</ele>
        <time>2021-07-10T10:27:12Z</time>
      </trkpt>
      <trkpt lat="41.572325974702835" lon="-3.205758025869727">
        <ele>857.37900000000002</ele>
        <time>2021-07-10T10:27:13Z</time>
      </trkpt>
      <trkpt lat="41.572393029928207" lon="-3.205717038363218">
        <ele>857.36099999999999</ele>
        <time>2021-07-10T10:27:14Z</time>
      </trkpt>
      <trkpt lat="41.572526972740889" lon="-3.205640008673072">
        <ele>857.38400000000001</ele>
        <time>2021-07-10T10:27:16Z</time>
      </trkpt>
      <trkpt lat="41.572584975510836" lon="-3.205602038651705">
        <ele>857.39800000000002</ele>
        <time>2021-07-10T10:27:17Z</time>
      </trkpt>
      <trkpt lat="41.572640966624022" lon="-3.205560967326164">
        <ele>857.36699999999996</ele>
        <time>2021-07-10T10:27:19Z</time>
      </trkpt>
      <trkpt lat="41.572759989649057" lon="-3.205479998141527">
        <ele>856.97199999999998</ele>
        <time>2021-07-10T10:27:21Z</time>
      </trkpt>
      <trkpt lat="41.572906002402306" lon="-3.205390982329845">
        <ele>856.41300000000001</ele>
        <time>2021-07-10T10:27:22Z</time>
      </trkpt>
      <trkpt lat="41.573052015155554" lon="-3.205309007316828">
        <ele>857.21400000000006</ele>
        <time>2021-07-10T10:27:24Z</time>
      </trkpt>
      <trkpt lat="41.573196016252041" lon="-3.205218985676765">
        <ele>857.70799999999997</ele>
        <time>2021-07-10T10:27:26Z</time>
      </trkpt>
      <trkpt lat="41.573255024850368" lon="-3.205180009827018">
        <ele>858.38400000000001</ele>
        <time>2021-07-10T10:27:28Z</time>
      </trkpt>
      <trkpt lat="41.573301963508129" lon="-3.205152014270425">
        <ele>859.19399999999996</ele>
        <time>2021-07-10T10:27:31Z</time>
      </trkpt>
      <trkpt lat="41.57336700707674" lon="-3.205107003450394">
        <ele>860.95500000000004</ele>
        <time>2021-07-10T10:27:37Z</time>
      </trkpt>
      <trkpt lat="41.573391985148191" lon="-3.205053023993969">
        <ele>862.38099999999997</ele>
        <time>2021-07-10T10:27:38Z</time>
      </trkpt>
      <trkpt lat="41.573378993198276" lon="-3.204974988475442">
        <ele>864.22299999999996</ele>
        <time>2021-07-10T10:27:40Z</time>
      </trkpt>
      <trkpt lat="41.573321996256709" lon="-3.204877004027367">
        <ele>866.06600000000003</ele>
        <time>2021-07-10T10:27:42Z</time>
      </trkpt>
      <trkpt lat="41.573224011808634" lon="-3.204739037901163">
        <ele>867.87</ele>
        <time>2021-07-10T10:27:44Z</time>
      </trkpt>
      <trkpt lat="41.57317103818059" lon="-3.20466703735292">
        <ele>868.21900000000005</ele>
        <time>2021-07-10T10:27:46Z</time>
      </trkpt>
      <trkpt lat="41.573064001277089" lon="-3.204520018771291">
        <ele>868.82799999999997</ele>
        <time>2021-07-10T10:27:49Z</time>
      </trkpt>
      <trkpt lat="41.572970040142536" lon="-3.204366965219379">
        <ele>869.38900000000001</ele>
        <time>2021-07-10T10:27:51Z</time>
      </trkpt>
      <trkpt lat="41.572931986302137" lon="-3.204293036833406">
        <ele>869.51700000000005</ele>
        <time>2021-07-10T10:27:52Z</time>
      </trkpt>
      <trkpt lat="41.572890998795629" lon="-3.204149035736918">
        <ele>869.80799999999999</ele>
        <time>2021-07-10T10:27:54Z</time>
      </trkpt>
      <trkpt lat="41.572883035987616" lon="-3.204090027138591">
        <ele>870.029</ele>
        <time>2021-07-10T10:27:56Z</time>
      </trkpt>
      <trkpt lat="41.57287398353219" lon="-3.204022971913219">
        <ele>870.92899999999997</ele>
        <time>2021-07-10T10:27:58Z</time>
      </trkpt>
      <trkpt lat="41.572855040431023" lon="-3.203922975808382">
        <ele>871.34000000000003</ele>
        <time>2021-07-10T10:27:59Z</time>
      </trkpt>
      <trkpt lat="41.572831990197301" lon="-3.203805964440107">
        <ele>871.096</ele>
        <time>2021-07-10T10:28:00Z</time>
      </trkpt>
      <trkpt lat="41.572817992419004" lon="-3.20363799110055">
        <ele>871.24800000000005</ele>
        <time>2021-07-10T10:28:01Z</time>
      </trkpt>
      <trkpt lat="41.572812041267753" lon="-3.20344596169889">
        <ele>870.62099999999998</ele>
        <time>2021-07-10T10:28:03Z</time>
      </trkpt>
      <trkpt lat="41.572802988812327" lon="-3.203345965594053">
        <ele>870.47500000000002</ele>
        <time>2021-07-10T10:28:04Z</time>
      </trkpt>
      <trkpt lat="41.572796031832695" lon="-3.203257033601403">
        <ele>869.46400000000006</ele>
        <time>2021-07-10T10:28:06Z</time>
      </trkpt>
      <trkpt lat="41.572783961892128" lon="-3.203097023069859">
        <ele>868.78399999999999</ele>
        <time>2021-07-10T10:28:07Z</time>
      </trkpt>
      <trkpt lat="41.572780022397637" lon="-3.203014964237809">
        <ele>867.90700000000004</ele>
        <time>2021-07-10T10:28:09Z</time>
      </trkpt>
      <trkpt lat="41.572759989649057" lon="-3.202846990898252">
        <ele>867.21699999999998</ele>
        <time>2021-07-10T10:28:10Z</time>
      </trkpt>
      <trkpt lat="41.572737023234367" lon="-3.202680023387075">
        <ele>867.30799999999999</ele>
        <time>2021-07-10T10:28:11Z</time>
      </trkpt>
      <trkpt lat="41.572730988264084" lon="-3.202597964555025">
        <ele>867.125</ele>
        <time>2021-07-10T10:28:13Z</time>
      </trkpt>
      <trkpt lat="41.572728976607323" lon="-3.202464021742344">
        <ele>867.36500000000001</ele>
        <time>2021-07-10T10:28:15Z</time>
      </trkpt>
      <trkpt lat="41.572698969393969" lon="-3.202367965131998">
        <ele>867.75599999999997</ele>
        <time>2021-07-10T10:28:17Z</time>
      </trkpt>
      <trkpt lat="41.572682037949562" lon="-3.202296970412135">
        <ele>868.52200000000005</ele>
        <time>2021-07-10T10:28:19Z</time>
      </trkpt>
      <trkpt lat="41.572738029062748" lon="-3.202294958755374">
        <ele>868.99400000000003</ele>
        <time>2021-07-10T10:28:21Z</time>
      </trkpt>
      <trkpt lat="41.572712967172265" lon="-3.202207032591105">
        <ele>869.29700000000003</ele>
        <time>2021-07-10T10:28:23Z</time>
      </trkpt>
      <trkpt lat="41.572708021849394" lon="-3.202145006507635">
        <ele>869.14099999999996</ele>
        <time>2021-07-10T10:28:24Z</time>
      </trkpt>
      <trkpt lat="41.572711961343884" lon="-3.202035035938025">
        <ele>869.49000000000001</ele>
        <time>2021-07-10T10:28:25Z</time>
      </trkpt>
      <trkpt lat="41.572708021849394" lon="-3.201946020126343">
        <ele>868.74199999999996</ele>
        <time>2021-07-10T10:28:27Z</time>
      </trkpt>
      <trkpt lat="41.572703998535872" lon="-3.201865972951055">
        <ele>868.22199999999998</ele>
        <time>2021-07-10T10:28:28Z</time>
      </trkpt>
      <trkpt lat="41.572703998535872" lon="-3.201803024858236">
        <ele>867.91399999999999</ele>
        <time>2021-07-10T10:28:30Z</time>
      </trkpt>
      <trkpt lat="41.572702992707491" lon="-3.201734041795135">
        <ele>867.90800000000002</ele>
        <time>2021-07-10T10:28:31Z</time>
      </trkpt>
      <trkpt lat="41.572705004364252" lon="-3.201644020155072">
        <ele>867.77099999999996</ele>
        <time>2021-07-10T10:28:33Z</time>
      </trkpt>
      <trkpt lat="41.572708021849394" lon="-3.201581994071603">
        <ele>867.49099999999999</ele>
        <time>2021-07-10T10:28:35Z</time>
      </trkpt>
      <trkpt lat="41.572697963565588" lon="-3.201460959389806">
        <ele>867.33199999999999</ele>
        <time>2021-07-10T10:28:36Z</time>
      </trkpt>
      <trkpt lat="41.572687989100814" lon="-3.201348977163434">
        <ele>866.95799999999997</ele>
        <time>2021-07-10T10:28:37Z</time>
      </trkpt>
      <trkpt lat="41.572694024071097" lon="-3.201228026300669">
        <ele>866.90999999999997</ele>
        <time>2021-07-10T10:28:38Z</time>
      </trkpt>
      <trkpt lat="41.572697041556239" lon="-3.201161976903677">
        <ele>867.29300000000001</ele>
        <time>2021-07-10T10:28:40Z</time>
      </trkpt>
      <trkpt lat="41.572697041556239" lon="-3.201090982183814">
        <ele>867.35699999999997</ele>
        <time>2021-07-10T10:28:42Z</time>
      </trkpt>
      <trkpt lat="41.572695029899478" lon="-3.201016969978809">
        <ele>867.75599999999997</ele>
        <time>2021-07-10T10:28:44Z</time>
      </trkpt>
      <trkpt lat="41.572688994929194" lon="-3.200864000245929">
        <ele>867.91200000000003</ele>
        <time>2021-07-10T10:28:46Z</time>
      </trkpt>
      <trkpt lat="41.572691006585956" lon="-3.200779007747769">
        <ele>868.13199999999995</ele>
        <time>2021-07-10T10:28:48Z</time>
      </trkpt>
      <trkpt lat="41.572692012414336" lon="-3.200584966689348">
        <ele>868.10500000000002</ele>
        <time>2021-07-10T10:28:50Z</time>
      </trkpt>
      <trkpt lat="41.572696035727859" lon="-3.200482958927751">
        <ele>868.20799999999997</ele>
        <time>2021-07-10T10:28:52Z</time>
      </trkpt>
      <trkpt lat="41.572686983272433" lon="-3.200276009738445">
        <ele>868.77800000000002</ele>
        <time>2021-07-10T10:28:53Z</time>
      </trkpt>
      <trkpt lat="41.572682959958911" lon="-3.200177019461989">
        <ele>868.798</ele>
        <time>2021-07-10T10:28:54Z</time>
      </trkpt>
      <trkpt lat="41.572670973837376" lon="-3.200081968680024">
        <ele>868.63900000000001</ele>
        <time>2021-07-10T10:28:55Z</time>
      </trkpt>
      <trkpt lat="41.572631997987628" lon="-3.199894968420267">
        <ele>868.34500000000003</ele>
        <time>2021-07-10T10:28:57Z</time>
      </trkpt>
      <trkpt lat="41.572588998824358" lon="-3.199693970382214">
        <ele>867.88699999999994</ele>
        <time>2021-07-10T10:28:59Z</time>
      </trkpt>
      <trkpt lat="41.572498977184296" lon="-3.199493978172541">
        <ele>867.75</ele>
        <time>2021-07-10T10:29:01Z</time>
      </trkpt>
      <trkpt lat="41.57239998690784" lon="-3.199294991791248">
        <ele>866.87400000000002</ele>
        <time>2021-07-10T10:29:02Z</time>
      </trkpt>
      <trkpt lat="41.572289010509849" lon="-3.199087036773562">
        <ele>866.65300000000002</ele>
        <time>2021-07-10T10:29:04Z</time>
      </trkpt>
      <trkpt lat="41.57216495834291" lon="-3.198872962966561">
        <ele>866.53599999999994</ele>
        <time>2021-07-10T10:29:06Z</time>
      </trkpt>
      <trkpt lat="41.572101004421711" lon="-3.198762992396951">
        <ele>866.61699999999996</ele>
        <time>2021-07-10T10:29:08Z</time>
      </trkpt>
      <trkpt lat="41.572039984166622" lon="-3.198656039312482">
        <ele>866.31799999999998</ele>
        <time>2021-07-10T10:29:10Z</time>
      </trkpt>
      <trkpt lat="41.571923978626728" lon="-3.198450012132525">
        <ele>865.90800000000002</ele>
        <time>2021-07-10T10:29:12Z</time>
      </trkpt>
      <trkpt lat="41.571869999170303" lon="-3.198353033512831">
        <ele>865.41999999999996</ele>
        <time>2021-07-10T10:29:14Z</time>
      </trkpt>
      <trkpt lat="41.571771008893847" lon="-3.198153963312507">
        <ele>865.21000000000004</ele>
        <time>2021-07-10T10:29:15Z</time>
      </trkpt>
      <trkpt lat="41.571723986417055" lon="-3.198049021884799">
        <ele>865.13099999999997</ele>
        <time>2021-07-10T10:29:16Z</time>
      </trkpt>
      <trkpt lat="41.571624996140599" lon="-3.197832014411688">
        <ele>865.39700000000005</ele>
        <time>2021-07-10T10:29:18Z</time>
      </trkpt>
      <trkpt lat="41.571506978943944" lon="-3.197611989453435">
        <ele>865.529</ele>
        <time>2021-07-10T10:29:20Z</time>
      </trkpt>
      <trkpt lat="41.571449982002378" lon="-3.19749103859067">
        <ele>865.77200000000005</ele>
        <time>2021-07-10T10:29:21Z</time>
      </trkpt>
      <trkpt lat="41.571389967575669" lon="-3.197368998080492">
        <ele>866.096</ele>
        <time>2021-07-10T10:29:23Z</time>
      </trkpt>
      <trkpt lat="41.571337999776006" lon="-3.197242012247443">
        <ele>866.33500000000004</ele>
        <time>2021-07-10T10:29:24Z</time>
      </trkpt>
      <trkpt lat="41.571221994236112" lon="-3.196983011439443">
        <ele>866.36199999999997</ele>
        <time>2021-07-10T10:29:26Z</time>
      </trkpt>
      <trkpt lat="41.571088973432779" lon="-3.196712024509907">
        <ele>866.58299999999997</ele>
        <time>2021-07-10T10:29:27Z</time>
      </trkpt>
      <trkpt lat="41.570955030620098" lon="-3.196431985124946">
        <ele>866.61099999999999</ele>
        <time>2021-07-10T10:29:28Z</time>
      </trkpt>
      <trkpt lat="41.570823015645146" lon="-3.196157980710268">
        <ele>867.20799999999997</ele>
        <time>2021-07-10T10:29:30Z</time>
      </trkpt>
      <trkpt lat="41.570696029812098" lon="-3.195895040407777">
        <ele>867.39300000000003</ele>
        <time>2021-07-10T10:29:31Z</time>
      </trkpt>
      <trkpt lat="41.570568038150668" lon="-3.195635033771396">
        <ele>867.56299999999999</ele>
        <time>2021-07-10T10:29:32Z</time>
      </trkpt>
      <trkpt lat="41.570439040660858" lon="-3.195378966629505">
        <ele>867.31399999999996</ele>
        <time>2021-07-10T10:29:33Z</time>
      </trkpt>
      <trkpt lat="41.570376008749008" lon="-3.195253992453218">
        <ele>867.30999999999995</ele>
        <time>2021-07-10T10:29:35Z</time>
      </trkpt>
      <trkpt lat="41.570310965180397" lon="-3.195127006620169">
        <ele>867.572</ele>
        <time>2021-07-10T10:29:37Z</time>
      </trkpt>
      <trkpt lat="41.570248017087579" lon="-3.19500002078712">
        <ele>867.67499999999995</ele>
        <time>2021-07-10T10:29:38Z</time>
      </trkpt>
      <trkpt lat="41.570122959092259" lon="-3.194745965301991">
        <ele>867.87900000000002</ele>
        <time>2021-07-10T10:29:39Z</time>
      </trkpt>
      <trkpt lat="41.570002008229494" lon="-3.194494005292654">
        <ele>868.01800000000003</ele>
        <time>2021-07-10T10:29:41Z</time>
      </trkpt>
      <trkpt lat="41.569877034053206" lon="-3.194243973121047">
        <ele>868.06899999999996</ele>
        <time>2021-07-10T10:29:42Z</time>
      </trkpt>
      <trkpt lat="41.569812996312976" lon="-3.19412000477314">
        <ele>868.404</ele>
        <time>2021-07-10T10:29:43Z</time>
      </trkpt>
      <trkpt lat="41.569692967459559" lon="-3.193878019228578">
        <ele>868.22400000000005</ele>
        <time>2021-07-10T10:29:44Z</time>
      </trkpt>
      <trkpt lat="41.569578973576427" lon="-3.193646008148789">
        <ele>868.10799999999995</ele>
        <time>2021-07-10T10:29:46Z</time>
      </trkpt>
      <trkpt lat="41.569463973864913" lon="-3.193409973755479">
        <ele>868.21299999999997</ele>
        <time>2021-07-10T10:29:48Z</time>
      </trkpt>
      <trkpt lat="41.569356014952064" lon="-3.193183997645974">
        <ele>868.22299999999996</ele>
        <time>2021-07-10T10:29:49Z</time>
      </trkpt>
      <trkpt lat="41.569247972220182" lon="-3.192956009879708">
        <ele>868.46400000000006</ele>
        <time>2021-07-10T10:29:50Z</time>
      </trkpt>
      <trkpt lat="41.569133978337049" lon="-3.192727016285062">
        <ele>869.14999999999998</ele>
        <time>2021-07-10T10:29:52Z</time>
      </trkpt>
      <trkpt lat="41.569074969738722" lon="-3.192610004916787">
        <ele>869.76199999999994</ele>
        <time>2021-07-10T10:29:53Z</time>
      </trkpt>
      <trkpt lat="41.569017972797155" lon="-3.192495005205274">
        <ele>870.125</ele>
        <time>2021-07-10T10:29:54Z</time>
      </trkpt>
      <trkpt lat="41.568900961428881" lon="-3.192252013832331">
        <ele>870.54899999999998</ele>
        <time>2021-07-10T10:29:56Z</time>
      </trkpt>
      <trkpt lat="41.568775987252593" lon="-3.191985972225666">
        <ele>870.98800000000006</ele>
        <time>2021-07-10T10:29:58Z</time>
      </trkpt>
      <trkpt lat="41.568708010017872" lon="-3.19184297695756">
        <ele>871.12599999999998</ele>
        <time>2021-07-10T10:29:59Z</time>
      </trkpt>
      <trkpt lat="41.568554034456611" lon="-3.191525973379612">
        <ele>871.74699999999996</ele>
        <time>2021-07-10T10:30:01Z</time>
      </trkpt>
      <trkpt lat="41.568473987281322" lon="-3.191365040838718">
        <ele>871.91099999999994</ele>
        <time>2021-07-10T10:30:02Z</time>
      </trkpt>
      <trkpt lat="41.568321017548442" lon="-3.191043008118868">
        <ele>872.30799999999999</ele>
        <time>2021-07-10T10:30:03Z</time>
      </trkpt>
      <trkpt lat="41.568240970373154" lon="-3.19087696261704">
        <ele>872.33900000000006</ele>
        <time>2021-07-10T10:30:05Z</time>
      </trkpt>
      <trkpt lat="41.568160001188517" lon="-3.190713012591004">
        <ele>872.59900000000005</ele>
        <time>2021-07-10T10:30:06Z</time>
      </trkpt>
      <trkpt lat="41.568002002313733" lon="-3.19038201123476">
        <ele>873.19000000000005</ele>
        <time>2021-07-10T10:30:07Z</time>
      </trkpt>
      <trkpt lat="41.567919021472335" lon="-3.190214037895203">
        <ele>873.87599999999998</ele>
        <time>2021-07-10T10:30:09Z</time>
      </trkpt>
      <trkpt lat="41.567832017317414" lon="-3.1900380179286">
        <ele>874.16800000000001</ele>
        <time>2021-07-10T10:30:11Z</time>
      </trkpt>
      <trkpt lat="41.567749036476016" lon="-3.189868032932282">
        <ele>874.07100000000003</ele>
        <time>2021-07-10T10:30:13Z</time>
      </trkpt>
      <trkpt lat="41.567581985145807" lon="-3.189535019919276">
        <ele>873.81500000000005</ele>
        <time>2021-07-10T10:30:14Z</time>
      </trkpt>
      <trkpt lat="41.567407976835966" lon="-3.189171999692917">
        <ele>874.06399999999996</ele>
        <time>2021-07-10T10:30:16Z</time>
      </trkpt>
      <trkpt lat="41.567314015701413" lon="-3.188974019140005">
        <ele>874.14599999999996</ele>
        <time>2021-07-10T10:30:17Z</time>
      </trkpt>
      <trkpt lat="41.567228017374873" lon="-3.188790958374739">
        <ele>874.48800000000006</ele>
        <time>2021-07-10T10:30:18Z</time>
      </trkpt>
      <trkpt lat="41.567060966044664" lon="-3.188437996432185">
        <ele>874.71600000000001</ele>
        <time>2021-07-10T10:30:20Z</time>
      </trkpt>
      <trkpt lat="41.566973039880395" lon="-3.188252002000809">
        <ele>875.20799999999997</ele>
        <time>2021-07-10T10:30:21Z</time>
      </trkpt>
      <trkpt lat="41.566883018240333" lon="-3.188066007569432">
        <ele>876.18100000000004</ele>
        <time>2021-07-10T10:30:23Z</time>
      </trkpt>
      <trkpt lat="41.566789979115129" lon="-3.187866015359759">
        <ele>876.95100000000002</ele>
        <time>2021-07-10T10:30:24Z</time>
      </trkpt>
      <trkpt lat="41.56661999411881" lon="-3.1875029951334">
        <ele>877.68200000000002</ele>
        <time>2021-07-10T10:30:25Z</time>
      </trkpt>
      <trkpt lat="41.566435005515814" lon="-3.187127988785505">
        <ele>878.548</ele>
        <time>2021-07-10T10:30:27Z</time>
      </trkpt>
      <trkpt lat="41.566337021067739" lon="-3.186945011839271">
        <ele>879.48000000000002</ele>
        <time>2021-07-10T10:30:29Z</time>
      </trkpt>
      <trkpt lat="41.566227972507477" lon="-3.186767986044288">
        <ele>880.06299999999999</ele>
        <time>2021-07-10T10:30:30Z</time>
      </trkpt>
      <trkpt lat="41.565984981134534" lon="-3.186435978859663">
        <ele>880.77700000000004</ele>
        <time>2021-07-10T10:30:32Z</time>
      </trkpt>
      <trkpt lat="41.565859001129866" lon="-3.186272028833628">
        <ele>881.11599999999999</ele>
        <time>2021-07-10T10:30:33Z</time>
      </trkpt>
      <trkpt lat="41.565726986154914" lon="-3.186098020523787">
        <ele>881.56299999999999</ele>
        <time>2021-07-10T10:30:34Z</time>
      </trkpt>
      <trkpt lat="41.565520036965609" lon="-3.185768024995923">
        <ele>881.44399999999996</ele>
        <time>2021-07-10T10:30:36Z</time>
      </trkpt>
      <trkpt lat="41.565362038090825" lon="-3.185405004769564">
        <ele>880.81799999999998</ele>
        <time>2021-07-10T10:30:38Z</time>
      </trkpt>
      <trkpt lat="41.565304035320878" lon="-3.185219010338187">
        <ele>880.50800000000004</ele>
        <time>2021-07-10T10:30:39Z</time>
      </trkpt>
      <trkpt lat="41.565205967053771" lon="-3.184877028688788">
        <ele>880.63300000000004</ele>
        <time>2021-07-10T10:30:41Z</time>
      </trkpt>
      <trkpt lat="41.565149975940585" lon="-3.184722969308496">
        <ele>880.84299999999996</ele>
        <time>2021-07-10T10:30:42Z</time>
      </trkpt>
      <trkpt lat="41.56507596373558" lon="-3.184579974040389">
        <ele>880.78399999999999</ele>
        <time>2021-07-10T10:30:44Z</time>
      </trkpt>
      <trkpt lat="41.564910002052784" lon="-3.184314016252756">
        <ele>880.52999999999997</ele>
        <time>2021-07-10T10:30:45Z</time>
      </trkpt>
      <trkpt lat="41.564811011776328" lon="-3.184177977964282">
        <ele>880.55200000000002</ele>
        <time>2021-07-10T10:30:47Z</time>
      </trkpt>
      <trkpt lat="41.564710009843111" lon="-3.184035988524556">
        <ele>880.71500000000003</ele>
        <time>2021-07-10T10:30:49Z</time>
      </trkpt>
      <trkpt lat="41.564512029290199" lon="-3.18372099660337">
        <ele>880.83900000000006</ele>
        <time>2021-07-10T10:30:50Z</time>
      </trkpt>
      <trkpt lat="41.564357969909906" lon="-3.183367028832436">
        <ele>881.55799999999999</ele>
        <time>2021-07-10T10:30:52Z</time>
      </trkpt>
      <trkpt lat="41.564213968813419" lon="-3.182961009442806">
        <ele>882.08799999999997</ele>
        <time>2021-07-10T10:30:53Z</time>
      </trkpt>
      <trkpt lat="41.564132999628782" lon="-3.182741990312934">
        <ele>882.62400000000002</ele>
        <time>2021-07-10T10:30:55Z</time>
      </trkpt>
      <trkpt lat="41.563979024067521" lon="-3.182329013943672">
        <ele>882.82600000000002</ele>
        <time>2021-07-10T10:30:56Z</time>
      </trkpt>
      <trkpt lat="41.563895959407091" lon="-3.182104965671897">
        <ele>883.00800000000004</ele>
        <time>2021-07-10T10:30:58Z</time>
      </trkpt>
      <trkpt lat="41.563811972737312" lon="-3.181871026754379">
        <ele>882.81500000000005</ele>
        <time>2021-07-10T10:31:00Z</time>
      </trkpt>
      <trkpt lat="41.563614998012781" lon="-3.181418990716338">
        <ele>882.83500000000004</ele>
        <time>2021-07-10T10:31:02Z</time>
      </trkpt>
      <trkpt lat="41.563491029664874" lon="-3.181220004335046">
        <ele>882.75599999999997</ele>
        <time>2021-07-10T10:31:04Z</time>
      </trkpt>
      <trkpt lat="41.563222976401448" lon="-3.180851032957435">
        <ele>882.97199999999998</ele>
        <time>2021-07-10T10:31:06Z</time>
      </trkpt>
      <trkpt lat="41.563085010275245" lon="-3.180665960535407">
        <ele>883.36400000000003</ele>
        <time>2021-07-10T10:31:08Z</time>
      </trkpt>
      <trkpt lat="41.562943020835519" lon="-3.180472003296018">
        <ele>883.83699999999999</ele>
        <time>2021-07-10T10:31:10Z</time>
      </trkpt>
      <trkpt lat="41.562676979228854" lon="-3.180084004998207">
        <ele>883.74099999999999</ele>
        <time>2021-07-10T10:31:11Z</time>
      </trkpt>
      <trkpt lat="41.562404986470938" lon="-3.179656025022268">
        <ele>883.59000000000003</ele>
        <time>2021-07-10T10:31:12Z</time>
      </trkpt>
      <trkpt lat="41.562268026173115" lon="-3.179438011720777">
        <ele>883.26800000000003</ele>
        <time>2021-07-10T10:31:14Z</time>
      </trkpt>
      <trkpt lat="41.562025034800172" lon="-3.179041966795921">
        <ele>882.94200000000001</ele>
        <time>2021-07-10T10:31:15Z</time>
      </trkpt>
      <trkpt lat="41.561904000118375" lon="-3.178842980414629">
        <ele>881.92600000000004</ele>
        <time>2021-07-10T10:31:17Z</time>
      </trkpt>
      <trkpt lat="41.561778020113707" lon="-3.178641982376576">
        <ele>881.30799999999999</ele>
        <time>2021-07-10T10:31:18Z</time>
      </trkpt>
      <trkpt lat="41.561514995992184" lon="-3.178216014057398">
        <ele>881.35299999999995</ele>
        <time>2021-07-10T10:31:20Z</time>
      </trkpt>
      <trkpt lat="41.561245014891028" lon="-3.177784010767937">
        <ele>881.52300000000002</ele>
        <time>2021-07-10T10:31:21Z</time>
      </trkpt>
      <trkpt lat="41.561107970774174" lon="-3.177561974152923">
        <ele>881.58399999999995</ele>
        <time>2021-07-10T10:31:23Z</time>
      </trkpt>
      <trkpt lat="41.560837989673018" lon="-3.177115973085165">
        <ele>881.24000000000001</ele>
        <time>2021-07-10T10:31:25Z</time>
      </trkpt>
      <trkpt lat="41.560696000233293" lon="-3.176898965612054">
        <ele>881.06200000000001</ele>
        <time>2021-07-10T10:31:26Z</time>
      </trkpt>
      <trkpt lat="41.560416966676712" lon="-3.176456987857819">
        <ele>881.05499999999995</ele>
        <time>2021-07-10T10:31:27Z</time>
      </trkpt>
      <trkpt lat="41.560273971408606" lon="-3.176232017576695">
        <ele>880.61900000000003</ele>
        <time>2021-07-10T10:31:29Z</time>
      </trkpt>
      <trkpt lat="41.560040032491088" lon="-3.175804037600756">
        <ele>880.51800000000003</ele>
        <time>2021-07-10T10:31:31Z</time>
      </trkpt>
      <trkpt lat="41.55985496006906" lon="-3.175313025712967">
        <ele>880.72900000000004</ele>
        <time>2021-07-10T10:31:33Z</time>
      </trkpt>
      <trkpt lat="41.559782037511468" lon="-3.175034997984767">
        <ele>880.79999999999995</ele>
        <time>2021-07-10T10:31:35Z</time>
      </trkpt>
      <trkpt lat="41.559651028364897" lon="-3.174489000812173">
        <ele>880.91999999999996</ele>
        <time>2021-07-10T10:31:36Z</time>
      </trkpt>
      <trkpt lat="41.559577016159892" lon="-3.174184989184141">
        <ele>880.60799999999995</ele>
        <time>2021-07-10T10:31:38Z</time>
      </trkpt>
      <trkpt lat="41.55942396260798" lon="-3.173563973978162">
        <ele>880.279</ele>
        <time>2021-07-10T10:31:40Z</time>
      </trkpt>
      <trkpt lat="41.559339975938201" lon="-3.173230960965157">
        <ele>879.87900000000002</ele>
        <time>2021-07-10T10:31:41Z</time>
      </trkpt>
      <trkpt lat="41.559174014255404" lon="-3.172605000436306">
        <ele>879.46000000000004</ele>
        <time>2021-07-10T10:31:42Z</time>
      </trkpt>
      <trkpt lat="41.559006040915847" lon="-3.171959007158876">
        <ele>878.55600000000004</ele>
        <time>2021-07-10T10:31:44Z</time>
      </trkpt>
      <trkpt lat="41.558805964887142" lon="-3.171327011659741">
        <ele>877.64800000000002</ele>
        <time>2021-07-10T10:31:45Z</time>
      </trkpt>
      <trkpt lat="41.558569008484483" lon="-3.170688981190324">
        <ele>876.68100000000004</ele>
        <time>2021-07-10T10:31:47Z</time>
      </trkpt>
      <trkpt lat="41.558334985747933" lon="-3.170055979862809">
        <ele>875.59500000000003</ele>
        <time>2021-07-10T10:31:48Z</time>
      </trkpt>
      <trkpt lat="41.558110015466809" lon="-3.169464971870184">
        <ele>875.09400000000005</ele>
        <time>2021-07-10T10:31:50Z</time>
      </trkpt>
      <trkpt lat="41.557892002165318" lon="-3.168881004676223">
        <ele>874.23199999999997</ele>
        <time>2021-07-10T10:31:51Z</time>
      </trkpt>
      <trkpt lat="41.557775996625423" lon="-3.168585039675236">
        <ele>874.29200000000003</ele>
        <time>2021-07-10T10:31:52Z</time>
      </trkpt>
      <trkpt lat="41.557657979428768" lon="-3.168282033875585">
        <ele>874.31100000000004</ele>
        <time>2021-07-10T10:31:54Z</time>
      </trkpt>
      <trkpt lat="41.55742404051125" lon="-3.167664036154747">
        <ele>874.30799999999999</ele>
        <time>2021-07-10T10:31:56Z</time>
      </trkpt>
      <trkpt lat="41.557309040799737" lon="-3.167351977899671">
        <ele>874.50999999999999</ele>
        <time>2021-07-10T10:31:58Z</time>
      </trkpt>
      <trkpt lat="41.557089015841484" lon="-3.166733980178833">
        <ele>874.91999999999996</ele>
        <time>2021-07-10T10:31:59Z</time>
      </trkpt>
      <trkpt lat="41.556980973109603" lon="-3.166427034884691">
        <ele>874.96100000000001</ele>
        <time>2021-07-10T10:32:01Z</time>
      </trkpt>
      <trkpt lat="41.556779975071549" lon="-3.165820017457008">
        <ele>874.46699999999998</ele>
        <time>2021-07-10T10:32:02Z</time>
      </trkpt>
      <trkpt lat="41.556680984795094" lon="-3.165515000000596">
        <ele>873.98900000000003</ele>
        <time>2021-07-10T10:32:03Z</time>
      </trkpt>
      <trkpt lat="41.556501025334001" lon="-3.164962967857719">
        <ele>873.52200000000005</ele>
        <time>2021-07-10T10:32:05Z</time>
      </trkpt>
      <trkpt lat="41.556315030902624" lon="-3.164410013705492">
        <ele>873.02599999999995</ele>
        <time>2021-07-10T10:32:07Z</time>
      </trkpt>
      <trkpt lat="41.556219980120659" lon="-3.164114970713854">
        <ele>872.52499999999998</ele>
        <time>2021-07-10T10:32:08Z</time>
      </trkpt>
      <trkpt lat="41.556131970137358" lon="-3.163843983784318">
        <ele>872.09400000000005</ele>
        <time>2021-07-10T10:32:10Z</time>
      </trkpt>
      <trkpt lat="41.555953016504645" lon="-3.163299998268485">
        <ele>871.65700000000004</ele>
        <time>2021-07-10T10:32:11Z</time>
      </trkpt>
      <trkpt lat="41.555764004588127" lon="-3.162718964740634">
        <ele>871.822</ele>
        <time>2021-07-10T10:32:12Z</time>
      </trkpt>
      <trkpt lat="41.555567029863596" lon="-3.162113036960363">
        <ele>871.50800000000004</ele>
        <time>2021-07-10T10:32:14Z</time>
      </trkpt>
      <trkpt lat="41.555367037653923" lon="-3.161509037017822">
        <ele>871.06600000000003</ele>
        <time>2021-07-10T10:32:17Z</time>
      </trkpt>
      <trkpt lat="41.555262012407184" lon="-3.161193961277604">
        <ele>870.85599999999999</ele>
        <time>2021-07-10T10:32:20Z</time>
      </trkpt>
      <trkpt lat="41.555085992440581" lon="-3.160641007125378">
        <ele>870.97699999999998</ele>
        <time>2021-07-10T10:32:21Z</time>
      </trkpt>
      <trkpt lat="41.554907038807869" lon="-3.160059973597527">
        <ele>870.97299999999996</ele>
        <time>2021-07-10T10:32:23Z</time>
      </trkpt>
      <trkpt lat="41.554816011339426" lon="-3.159768031910062">
        <ele>870.93499999999995</ele>
        <time>2021-07-10T10:32:25Z</time>
      </trkpt>
      <trkpt lat="41.554714003577828" lon="-3.159470977261663">
        <ele>870.95799999999997</ele>
        <time>2021-07-10T10:32:26Z</time>
      </trkpt>
      <trkpt lat="41.554557010531425" lon="-3.159007960930467">
        <ele>870.75199999999995</ele>
        <time>2021-07-10T10:32:28Z</time>
      </trkpt>
      <trkpt lat="41.554484004154801" lon="-3.15877896733582">
        <ele>870.36099999999999</ele>
        <time>2021-07-10T10:32:30Z</time>
      </trkpt>
      <trkpt lat="41.55428602360189" lon="-3.158385017886758">
        <ele>870.19299999999998</ele>
        <time>2021-07-10T10:32:31Z</time>
      </trkpt>
      <trkpt lat="41.554146967828274" lon="-3.158212015405297">
        <ele>870.26499999999999</ele>
        <time>2021-07-10T10:32:32Z</time>
      </trkpt>
      <trkpt lat="41.553808003664017" lon="-3.157934993505478">
        <ele>869.82100000000003</ele>
        <time>2021-07-10T10:32:33Z</time>
      </trkpt>
      <trkpt lat="41.553617985919118" lon="-3.15780901350081">
        <ele>869.20799999999997</ele>
        <time>2021-07-10T10:32:34Z</time>
      </trkpt>
      <trkpt lat="41.553418999537826" lon="-3.157676998525858">
        <ele>869.43600000000004</ele>
        <time>2021-07-10T10:32:36Z</time>
      </trkpt>
      <trkpt lat="41.553006023168564" lon="-3.157396959140897">
        <ele>869.46600000000001</ele>
        <time>2021-07-10T10:32:37Z</time>
      </trkpt>
      <trkpt lat="41.552577959373593" lon="-3.157108034938574">
        <ele>869.43700000000001</ele>
        <time>2021-07-10T10:32:38Z</time>
      </trkpt>
      <trkpt lat="41.55215903185308" lon="-3.156829001381993">
        <ele>869.37300000000005</ele>
        <time>2021-07-10T10:32:39Z</time>
      </trkpt>
      <trkpt lat="41.551958033815026" lon="-3.1566939689219">
        <ele>869.39499999999998</ele>
        <time>2021-07-10T10:32:40Z</time>
      </trkpt>
      <trkpt lat="41.551599036902189" lon="-3.156441003084183">
        <ele>869.31799999999998</ele>
        <time>2021-07-10T10:32:41Z</time>
      </trkpt>
      <trkpt lat="41.551436008885503" lon="-3.156317034736276">
        <ele>869.05200000000002</ele>
        <time>2021-07-10T10:32:42Z</time>
      </trkpt>
      <trkpt lat="41.551292007789016" lon="-3.156182002276182">
        <ele>869.38099999999997</ele>
        <time>2021-07-10T10:32:43Z</time>
      </trkpt>
      <trkpt lat="41.551062008365989" lon="-3.1558339856565">
        <ele>868.98800000000006</ele>
        <time>2021-07-10T10:32:45Z</time>
      </trkpt>
      <trkpt lat="41.550904009491205" lon="-3.155397037044168">
        <ele>868.92399999999998</ele>
        <time>2021-07-10T10:32:47Z</time>
      </trkpt>
      <trkpt lat="41.550841983407736" lon="-3.155170977115631">
        <ele>868.82600000000002</ele>
        <time>2021-07-10T10:32:48Z</time>
      </trkpt>
      <trkpt lat="41.550750033929944" lon="-3.154808962717652">
        <ele>868.60799999999995</ele>
        <time>2021-07-10T10:32:50Z</time>
      </trkpt>
      <trkpt lat="41.5507229603827" lon="-3.15469304099679">
        <ele>868.54499999999996</ele>
        <time>2021-07-10T10:32:51Z</time>
      </trkpt>
      <trkpt lat="41.550707034766674" lon="-3.154617017135024">
        <ele>868.26499999999999</ele>
        <time>2021-07-10T10:32:52Z</time>
      </trkpt>
      <trkpt lat="41.550687002018094" lon="-3.154520038515329">
        <ele>868.096</ele>
        <time>2021-07-10T10:32:53Z</time>
      </trkpt>
      <trkpt lat="41.550670992583036" lon="-3.154435968026519">
        <ele>867.66200000000003</ele>
        <time>2021-07-10T10:32:54Z</time>
      </trkpt>
      <trkpt lat="41.550665041431785" lon="-3.154346030205488">
        <ele>867.42399999999998</ele>
        <time>2021-07-10T10:32:56Z</time>
      </trkpt>
      <trkpt lat="41.550664035603404" lon="-3.154276963323355">
        <ele>867.36699999999996</ele>
        <time>2021-07-10T10:32:58Z</time>
      </trkpt>
      <trkpt lat="41.550684990361333" lon="-3.154070014134049">
        <ele>867.01099999999997</ele>
        <time>2021-07-10T10:32:59Z</time>
      </trkpt>
      <trkpt lat="41.5507229603827" lon="-3.153806990012527">
        <ele>866.78999999999996</ele>
        <time>2021-07-10T10:33:01Z</time>
      </trkpt>
      <trkpt lat="41.550746010616422" lon="-3.153660977259278">
        <ele>866.71100000000001</ele>
        <time>2021-07-10T10:33:02Z</time>
      </trkpt>
      <trkpt lat="41.550817005336285" lon="-3.153351014479995">
        <ele>866.62099999999998</ele>
        <time>2021-07-10T10:33:03Z</time>
      </trkpt>
      <trkpt lat="41.550928987562656" lon="-3.153031999245286">
        <ele>866.20299999999997</ele>
        <time>2021-07-10T10:33:05Z</time>
      </trkpt>
      <trkpt lat="41.550995958968997" lon="-3.1528689712286">
        <ele>866.40800000000002</ele>
        <time>2021-07-10T10:33:07Z</time>
      </trkpt>
      <trkpt lat="41.551057985052466" lon="-3.152704015374184">
        <ele>866.94799999999998</ele>
        <time>2021-07-10T10:33:08Z</time>
      </trkpt>
      <trkpt lat="41.551117999479175" lon="-3.152521960437298">
        <ele>867.21799999999996</ele>
        <time>2021-07-10T10:33:09Z</time>
      </trkpt>
      <trkpt lat="41.551177008077502" lon="-3.15233001485467">
        <ele>867.53899999999999</ele>
        <time>2021-07-10T10:33:11Z</time>
      </trkpt>
      <trkpt lat="41.551272980868816" lon="-3.151926007121801">
        <ele>867.78499999999997</ele>
        <time>2021-07-10T10:33:12Z</time>
      </trkpt>
      <trkpt lat="41.551313968375325" lon="-3.151711011305451">
        <ele>868.75699999999995</ele>
        <time>2021-07-10T10:33:14Z</time>
      </trkpt>
      <trkpt lat="41.551350010558963" lon="-3.151496015489101">
        <ele>868.99000000000001</ele>
        <time>2021-07-10T10:33:15Z</time>
      </trkpt>
      <trkpt lat="41.551383035257459" lon="-3.151270039379597">
        <ele>868.96400000000006</ele>
        <time>2021-07-10T10:33:16Z</time>
      </trkpt>
      <trkpt lat="41.551410024985671" lon="-3.151038028299809">
        <ele>868.89300000000003</ele>
        <time>2021-07-10T10:33:18Z</time>
      </trkpt>
      <trkpt lat="41.551433997228742" lon="-3.150799982249737">
        <ele>868.91499999999996</ele>
        <time>2021-07-10T10:33:19Z</time>
      </trkpt>
      <trkpt lat="41.551455035805702" lon="-3.150564031675458">
        <ele>868.76499999999999</ele>
        <time>2021-07-10T10:33:21Z</time>
      </trkpt>
      <trkpt lat="41.55147498473525" lon="-3.150321040302515">
        <ele>868.61099999999999</ele>
        <time>2021-07-10T10:33:22Z</time>
      </trkpt>
      <trkpt lat="41.551515972241759" lon="-3.1498590297997">
        <ele>868.50800000000004</ele>
        <time>2021-07-10T10:33:23Z</time>
      </trkpt>
      <trkpt lat="41.551556037738919" lon="-3.149414034560323">
        <ele>868.46799999999996</ele>
        <time>2021-07-10T10:33:24Z</time>
      </trkpt>
      <trkpt lat="41.551569029688835" lon="-3.149199038743973">
        <ele>868.61800000000005</ele>
        <time>2021-07-10T10:33:26Z</time>
      </trkpt>
      <trkpt lat="41.551546985283494" lon="-3.148851022124291">
        <ele>868.94899999999996</ele>
        <time>2021-07-10T10:33:28Z</time>
      </trkpt>
      <trkpt lat="41.551505997776985" lon="-3.148702997714281">
        <ele>868.93499999999995</ele>
        <time>2021-07-10T10:33:29Z</time>
      </trkpt>
      <trkpt lat="41.551453024148941" lon="-3.148567965254188">
        <ele>868.78700000000003</ele>
        <time>2021-07-10T10:33:31Z</time>
      </trkpt>
      <trkpt lat="41.55138898640871" lon="-3.148427987471223">
        <ele>868.88999999999999</ele>
        <time>2021-07-10T10:33:32Z</time>
      </trkpt>
      <trkpt lat="41.551317991688848" lon="-3.148294966667891">
        <ele>868.64400000000001</ele>
        <time>2021-07-10T10:33:34Z</time>
      </trkpt>
      <trkpt lat="41.551155969500542" lon="-3.148020040243864">
        <ele>868.64300000000003</ele>
        <time>2021-07-10T10:33:36Z</time>
      </trkpt>
      <trkpt lat="41.550982967019081" lon="-3.147721979767084">
        <ele>868.61400000000003</ele>
        <time>2021-07-10T10:33:37Z</time>
      </trkpt>
      <trkpt lat="41.550920018926263" lon="-3.14756004139781">
        <ele>868.45399999999995</ele>
        <time>2021-07-10T10:33:38Z</time>
      </trkpt>
      <trkpt lat="41.550829997286201" lon="-3.147205989807844">
        <ele>868.40899999999999</ele>
        <time>2021-07-10T10:33:39Z</time>
      </trkpt>
      <trkpt lat="41.550803007557988" lon="-3.147009015083313">
        <ele>868.10799999999995</ele>
        <time>2021-07-10T10:33:41Z</time>
      </trkpt>
      <trkpt lat="41.550788003951311" lon="-3.146798964589834">
        <ele>867.89800000000002</ele>
        <time>2021-07-10T10:33:42Z</time>
      </trkpt>
      <trkpt lat="41.550781968981028" lon="-3.14640199765563">
        <ele>867.61800000000005</ele>
        <time>2021-07-10T10:33:44Z</time>
      </trkpt>
      <trkpt lat="41.550735030323267" lon="-3.145995978266001">
        <ele>867.62900000000002</ele>
        <time>2021-07-10T10:33:45Z</time>
      </trkpt>
      <trkpt lat="41.550683984532952" lon="-3.145791962742806">
        <ele>867.69500000000005</ele>
        <time>2021-07-10T10:33:47Z</time>
      </trkpt>
      <trkpt lat="41.550620030611753" lon="-3.145581996068358">
        <ele>867.56700000000001</ele>
        <time>2021-07-10T10:33:49Z</time>
      </trkpt>
      <trkpt lat="41.550492960959673" lon="-3.145186034962535">
        <ele>867.67999999999995</ele>
        <time>2021-07-10T10:33:50Z</time>
      </trkpt>
      <trkpt lat="41.550428001210093" lon="-3.144973972812295">
        <ele>867.73400000000004</ele>
        <time>2021-07-10T10:33:52Z</time>
      </trkpt>
      <trkpt lat="41.550302021205425" lon="-3.144579017534852">
        <ele>867.52300000000002</ele>
        <time>2021-07-10T10:33:55Z</time>
      </trkpt>
      <trkpt lat="41.550233038142323" lon="-3.144396040588617">
        <ele>867.41800000000001</ele>
        <time>2021-07-10T10:33:57Z</time>
      </trkpt>
      <trkpt lat="41.550155002623796" lon="-3.144221026450396">
        <ele>867.59799999999996</ele>
        <time>2021-07-10T10:33:59Z</time>
      </trkpt>
      <trkpt lat="41.549964984878898" lon="-3.143905028700829">
        <ele>867.21699999999998</ele>
        <time>2021-07-10T10:34:00Z</time>
      </trkpt>
      <trkpt lat="41.549856020137668" lon="-3.143736971542239">
        <ele>867.20799999999997</ele>
        <time>2021-07-10T10:34:02Z</time>
      </trkpt>
      <trkpt lat="41.549671031534672" lon="-3.143388032913208">
        <ele>867.43799999999999</ele>
        <time>2021-07-10T10:34:04Z</time>
      </trkpt>
      <trkpt lat="41.549583021551371" lon="-3.143188962712884">
        <ele>868.16800000000001</ele>
        <time>2021-07-10T10:34:06Z</time>
      </trkpt>
      <trkpt lat="41.549497023224831" lon="-3.14298695884645">
        <ele>868.48900000000003</ele>
        <time>2021-07-10T10:34:08Z</time>
      </trkpt>
      <trkpt lat="41.549402978271246" lon="-3.14276902936399">
        <ele>868.32500000000005</ele>
        <time>2021-07-10T10:34:10Z</time>
      </trkpt>
      <trkpt lat="41.549213966354728" lon="-3.1423419713974">
        <ele>868.11699999999996</ele>
        <time>2021-07-10T10:34:11Z</time>
      </trkpt>
      <trkpt lat="41.549003999680281" lon="-3.141879960894585">
        <ele>867.92999999999995</ele>
        <time>2021-07-10T10:34:12Z</time>
      </trkpt>
      <trkpt lat="41.548887994140387" lon="-3.141628000885248">
        <ele>868.38400000000001</ele>
        <time>2021-07-10T10:34:14Z</time>
      </trkpt>
      <trkpt lat="41.548662018030882" lon="-3.141142018139362">
        <ele>867.68299999999999</ele>
        <time>2021-07-10T10:34:16Z</time>
      </trkpt>
      <trkpt lat="41.548544000834227" lon="-3.140883017331362">
        <ele>867.02599999999995</ele>
        <time>2021-07-10T10:34:18Z</time>
      </trkpt>
      <trkpt lat="41.548297991976142" lon="-3.140340959653258">
        <ele>866.84699999999998</ele>
        <time>2021-07-10T10:34:19Z</time>
      </trkpt>
      <trkpt lat="41.548063969239593" lon="-3.13982798717916">
        <ele>866.81100000000004</ele>
        <time>2021-07-10T10:34:20Z</time>
      </trkpt>
      <trkpt lat="41.547941006720066" lon="-3.139558006078005">
        <ele>866.80799999999999</ele>
        <time>2021-07-10T10:34:22Z</time>
      </trkpt>
      <trkpt lat="41.547816032543778" lon="-3.139290036633611">
        <ele>866.79899999999998</ele>
        <time>2021-07-10T10:34:23Z</time>
      </trkpt>
      <trkpt lat="41.547686029225588" lon="-3.139019971713424">
        <ele>867.05899999999997</ele>
        <time>2021-07-10T10:34:25Z</time>
      </trkpt>
      <trkpt lat="41.547439014539123" lon="-3.138515967875719">
        <ele>867.35000000000002</ele>
        <time>2021-07-10T10:34:26Z</time>
      </trkpt>
      <trkpt lat="41.547310017049313" lon="-3.138252021744847">
        <ele>867.61599999999999</ele>
        <time>2021-07-10T10:34:28Z</time>
      </trkpt>
      <trkpt lat="41.547044981271029" lon="-3.137704012915492">
        <ele>867.81799999999998</ele>
        <time>2021-07-10T10:34:30Z</time>
      </trkpt>
      <trkpt lat="41.546913972124457" lon="-3.137434031814337">
        <ele>868.19100000000003</ele>
        <time>2021-07-10T10:34:31Z</time>
      </trkpt>
      <trkpt lat="41.546658994629979" lon="-3.136913012713194">
        <ele>868.375</ele>
        <time>2021-07-10T10:34:33Z</time>
      </trkpt>
      <trkpt lat="41.54640200547874" lon="-3.13638998195529">
        <ele>868.67399999999998</ele>
        <time>2021-07-10T10:34:34Z</time>
      </trkpt>
      <trkpt lat="41.546277031302452" lon="-3.136121006682515">
        <ele>869.15200000000004</ele>
        <time>2021-07-10T10:34:35Z</time>
      </trkpt>
      <trkpt lat="41.546052983030677" lon="-3.135643992573023">
        <ele>869.35299999999995</ele>
        <time>2021-07-10T10:34:36Z</time>
      </trkpt>
      <trkpt lat="41.545751988887787" lon="-3.135029012337327">
        <ele>869.30799999999999</ele>
        <time>2021-07-10T10:34:38Z</time>
      </trkpt>
      <trkpt lat="41.54550002887845" lon="-3.134435992687941">
        <ele>869.40800000000002</ele>
        <time>2021-07-10T10:34:39Z</time>
      </trkpt>
      <trkpt lat="41.545278998091817" lon="-3.133883960545063">
        <ele>869.51199999999994</ele>
        <time>2021-07-10T10:34:40Z</time>
      </trkpt>
      <trkpt lat="41.5451589692384" lon="-3.133601993322372">
        <ele>869.85199999999998</ele>
        <time>2021-07-10T10:34:42Z</time>
      </trkpt>
      <trkpt lat="41.544938022270799" lon="-3.133077034726739">
        <ele>870.02300000000002</ele>
        <time>2021-07-10T10:34:43Z</time>
      </trkpt>
      <trkpt lat="41.544712968170643" lon="-3.132529025897384">
        <ele>870.36900000000003</ele>
        <time>2021-07-10T10:34:45Z</time>
      </trkpt>
      <trkpt lat="41.544492021203041" lon="-3.131981017068029">
        <ele>870.69100000000003</ele>
        <time>2021-07-10T10:34:46Z</time>
      </trkpt>
      <trkpt lat="41.544263027608395" lon="-3.131454968824983">
        <ele>870.78399999999999</ele>
        <time>2021-07-10T10:34:48Z</time>
      </trkpt>
      <trkpt lat="41.544064963236451" lon="-3.130921041592956">
        <ele>871.23800000000006</ele>
        <time>2021-07-10T10:34:50Z</time>
      </trkpt>
      <trkpt lat="41.543981982395053" lon="-3.130665980279446">
        <ele>871.65700000000004</ele>
        <time>2021-07-10T10:34:51Z</time>
      </trkpt>
      <trkpt lat="41.543911993503571" lon="-3.130421983078122">
        <ele>871.92399999999998</ele>
        <time>2021-07-10T10:34:53Z</time>
      </trkpt>
      <trkpt lat="41.543682999908924" lon="-3.129974976181984">
        <ele>872.10400000000004</ele>
        <time>2021-07-10T10:34:54Z</time>
      </trkpt>
      <trkpt lat="41.543444031849504" lon="-3.129531992599368">
        <ele>872.01400000000001</ele>
        <time>2021-07-10T10:34:56Z</time>
      </trkpt>
      <trkpt lat="41.54315996915102" lon="-3.129081968218088">
        <ele>872.00800000000004</ele>
        <time>2021-07-10T10:34:57Z</time>
      </trkpt>
      <trkpt lat="41.542996019124985" lon="-3.128864038735628">
        <ele>872.03899999999999</ele>
        <time>2021-07-10T10:34:59Z</time>
      </trkpt>
      <trkpt lat="41.542851012200117" lon="-3.128637978807092">
        <ele>872.12900000000002</ele>
        <time>2021-07-10T10:35:01Z</time>
      </trkpt>
      <trkpt lat="41.542596034705639" lon="-3.128157025203109">
        <ele>872.23000000000002</ele>
        <time>2021-07-10T10:35:03Z</time>
      </trkpt>
      <trkpt lat="41.542468965053558" lon="-3.127906993031502">
        <ele>872.38599999999997</ele>
        <time>2021-07-10T10:35:04Z</time>
      </trkpt>
      <trkpt lat="41.542210970073938" lon="-3.127384968101978">
        <ele>872.39800000000002</ele>
        <time>2021-07-10T10:35:06Z</time>
      </trkpt>
      <trkpt lat="41.542092030867934" lon="-3.127124961465597">
        <ele>872.33100000000002</ele>
        <time>2021-07-10T10:35:07Z</time>
      </trkpt>
      <trkpt lat="41.541863959282637" lon="-3.126586005091667">
        <ele>872.23500000000001</ele>
        <time>2021-07-10T10:35:08Z</time>
      </trkpt>
      <trkpt lat="41.541618034243584" lon="-3.126008994877338">
        <ele>872.36400000000003</ele>
        <time>2021-07-10T10:35:10Z</time>
      </trkpt>
      <trkpt lat="41.541496999561787" lon="-3.125728033483028">
        <ele>872.42399999999998</ele>
        <time>2021-07-10T10:35:11Z</time>
      </trkpt>
      <trkpt lat="41.541261970996857" lon="-3.125177007168531">
        <ele>872.30399999999997</ele>
        <time>2021-07-10T10:35:13Z</time>
      </trkpt>
      <trkpt lat="41.541144037619233" lon="-3.124895039945841">
        <ele>872.31399999999996</ele>
        <time>2021-07-10T10:35:15Z</time>
      </trkpt>
      <trkpt lat="41.541027026250958" lon="-3.12461500056088">
        <ele>872.70799999999997</ele>
        <time>2021-07-10T10:35:17Z</time>
      </trkpt>
      <trkpt lat="41.540911020711064" lon="-3.124330015853047">
        <ele>872.73900000000003</ele>
        <time>2021-07-10T10:35:18Z</time>
      </trkpt>
      <trkpt lat="41.540684038773179" lon="-3.123783012852073">
        <ele>872.93899999999996</ele>
        <time>2021-07-10T10:35:20Z</time>
      </trkpt>
      <trkpt lat="41.540564009919763" lon="-3.123499033972621">
        <ele>873.00999999999999</ele>
        <time>2021-07-10T10:35:22Z</time>
      </trkpt>
      <trkpt lat="41.540446998551488" lon="-3.12321899458766">
        <ele>873.14599999999996</ele>
        <time>2021-07-10T10:35:24Z</time>
      </trkpt>
      <trkpt lat="41.5402149874717" lon="-3.122672997415066">
        <ele>872.85799999999995</ele>
        <time>2021-07-10T10:35:25Z</time>
      </trkpt>
      <trkpt lat="41.540097976103425" lon="-3.122410979121923">
        <ele>872.57100000000003</ele>
        <time>2021-07-10T10:35:27Z</time>
      </trkpt>
      <trkpt lat="41.53984802775085" lon="-3.121898006647825">
        <ele>872.45500000000004</ele>
        <time>2021-07-10T10:35:28Z</time>
      </trkpt>
      <trkpt lat="41.539717018604279" lon="-3.121631965041161">
        <ele>872.51400000000001</ele>
        <time>2021-07-10T10:35:30Z</time>
      </trkpt>
      <trkpt lat="41.53946497477591" lon="-3.121122010052204">
        <ele>872.64400000000001</ele>
        <time>2021-07-10T10:35:32Z</time>
      </trkpt>
      <trkpt lat="41.539201028645039" lon="-3.120578024536371">
        <ele>872.60500000000002</ele>
        <time>2021-07-10T10:35:33Z</time>
      </trkpt>
      <trkpt lat="41.539062978699803" lon="-3.120288010686636">
        <ele>872.71500000000003</ele>
        <time>2021-07-10T10:35:34Z</time>
      </trkpt>
      <trkpt lat="41.538813030347228" lon="-3.119767997413874">
        <ele>873.00800000000004</ele>
        <time>2021-07-10T10:35:36Z</time>
      </trkpt>
      <trkpt lat="41.538684032857418" lon="-3.119510002434254">
        <ele>873.06100000000004</ele>
        <time>2021-07-10T10:35:38Z</time>
      </trkpt>
      <trkpt lat="41.538450010120869" lon="-3.119003986939788">
        <ele>873.25099999999998</ele>
        <time>2021-07-10T10:35:39Z</time>
      </trkpt>
      <trkpt lat="41.538342973217368" lon="-3.118736017495394">
        <ele>873.97199999999998</ele>
        <time>2021-07-10T10:35:40Z</time>
      </trkpt>
      <trkpt lat="41.53815203346312" lon="-3.118209969252348">
        <ele>874.49800000000005</ele>
        <time>2021-07-10T10:35:42Z</time>
      </trkpt>
      <trkpt lat="41.537947012111545" lon="-3.117649974301457">
        <ele>875.09000000000003</ele>
        <time>2021-07-10T10:35:44Z</time>
      </trkpt>
      <trkpt lat="41.537748025730252" lon="-3.117104982957244">
        <ele>875.47299999999996</ele>
        <time>2021-07-10T10:35:45Z</time>
      </trkpt>
      <trkpt lat="41.53763797134161" lon="-3.116799965500832">
        <ele>875.71699999999998</ele>
        <time>2021-07-10T10:35:47Z</time>
      </trkpt>
      <trkpt lat="41.537439990788698" lon="-3.116234019398689">
        <ele>875.89599999999996</ele>
        <time>2021-07-10T10:35:49Z</time>
      </trkpt>
      <trkpt lat="41.537347035482526" lon="-3.11593696475029">
        <ele>876.34799999999996</ele>
        <time>2021-07-10T10:35:51Z</time>
      </trkpt>
      <trkpt lat="41.537257013842463" lon="-3.115628007799387">
        <ele>876.86099999999999</ele>
        <time>2021-07-10T10:35:52Z</time>
      </trkpt>
      <trkpt lat="41.537092979997396" lon="-3.115075975656509">
        <ele>877.21699999999998</ele>
        <time>2021-07-10T10:35:54Z</time>
      </trkpt>
      <trkpt lat="41.537014022469521" lon="-3.114816974848509">
        <ele>878.10799999999995</ele>
        <time>2021-07-10T10:35:55Z</time>
      </trkpt>
      <trkpt lat="41.536872033029795" lon="-3.11434498988092">
        <ele>877.91099999999994</ele>
        <time>2021-07-10T10:35:57Z</time>
      </trkpt>
      <trkpt lat="41.536758039146662" lon="-3.113973001018167">
        <ele>879.03099999999995</ele>
        <time>2021-07-10T10:36:07Z</time>
      </trkpt>
      <trkpt lat="41.536663994193077" lon="-3.113630013540387">
        <ele>879.16200000000003</ele>
        <time>2021-07-10T10:36:09Z</time>
      </trkpt>
      <trkpt lat="41.536625018343329" lon="-3.113454999402165">
        <ele>879.06799999999998</ele>
        <time>2021-07-10T10:36:10Z</time>
      </trkpt>
      <trkpt lat="41.536555029451847" lon="-3.113108994439244">
        <ele>879.00999999999999</ele>
        <time>2021-07-10T10:36:12Z</time>
      </trkpt>
      <trkpt lat="41.536508006975055" lon="-3.112715966999531">
        <ele>879.54300000000001</ele>
        <time>2021-07-10T10:36:14Z</time>
      </trkpt>
      <trkpt lat="41.536511024460196" lon="-3.112279018387198">
        <ele>879.88699999999994</ele>
        <time>2021-07-10T10:36:15Z</time>
      </trkpt>
      <trkpt lat="41.536532985046506" lon="-3.112044995650649">
        <ele>880.04600000000005</ele>
        <time>2021-07-10T10:36:16Z</time>
      </trkpt>
      <trkpt lat="41.536613032221794" lon="-3.111547026783228">
        <ele>880.61699999999996</ele>
        <time>2021-07-10T10:36:18Z</time>
      </trkpt>
      <trkpt lat="41.536665000021458" lon="-3.111266987398267">
        <ele>881.08699999999999</ele>
        <time>2021-07-10T10:36:20Z</time>
      </trkpt>
      <trkpt lat="41.536761978641152" lon="-3.110733982175589">
        <ele>881.51499999999999</ele>
        <time>2021-07-10T10:36:22Z</time>
      </trkpt>
      <trkpt lat="41.536858035251498" lon="-3.110174993053079">
        <ele>882.40800000000002</ele>
        <time>2021-07-10T10:36:23Z</time>
      </trkpt>
      <trkpt lat="41.536904973909259" lon="-3.109900988638401">
        <ele>883.19799999999998</ele>
        <time>2021-07-10T10:36:24Z</time>
      </trkpt>
      <trkpt lat="41.536953002214432" lon="-3.109635030850768">
        <ele>883.15800000000002</ele>
        <time>2021-07-10T10:36:26Z</time>
      </trkpt>
      <trkpt lat="41.537047969177365" lon="-3.109108982607722">
        <ele>883.53899999999999</ele>
        <time>2021-07-10T10:36:28Z</time>
      </trkpt>
      <trkpt lat="41.537137990817428" lon="-3.108625011518598">
        <ele>884.13499999999999</ele>
        <time>2021-07-10T10:36:30Z</time>
      </trkpt>
      <trkpt lat="41.537187024950981" lon="-3.108372967690229">
        <ele>884.13699999999994</ele>
        <time>2021-07-10T10:36:31Z</time>
      </trkpt>
      <trkpt lat="41.537235975265503" lon="-3.108137017115951">
        <ele>884.54999999999995</ele>
        <time>2021-07-10T10:36:32Z</time>
      </trkpt>
      <trkpt lat="41.537324991077185" lon="-3.107724040746689">
        <ele>885.024</ele>
        <time>2021-07-10T10:36:34Z</time>
      </trkpt>
      <trkpt lat="41.537396991625428" lon="-3.10738398693502">
        <ele>885.76300000000003</ele>
        <time>2021-07-10T10:36:35Z</time>
      </trkpt>
      <trkpt lat="41.537428004667163" lon="-3.107222970575094">
        <ele>886.44200000000001</ele>
        <time>2021-07-10T10:36:36Z</time>
      </trkpt>
      <trkpt lat="41.53746304102242" lon="-3.106907978653908">
        <ele>887.42200000000003</ele>
        <time>2021-07-10T10:36:37Z</time>
      </trkpt>
      <trkpt lat="41.537456000223756" lon="-3.106548981741071">
        <ele>888.41399999999999</ele>
        <time>2021-07-10T10:36:39Z</time>
      </trkpt>
      <trkpt lat="41.537436973303556" lon="-3.10620297677815">
        <ele>889.90800000000002</ele>
        <time>2021-07-10T10:36:41Z</time>
      </trkpt>
      <trkpt lat="41.537423981353641" lon="-3.106033997610211">
        <ele>891.95100000000002</ele>
        <time>2021-07-10T10:36:43Z</time>
      </trkpt>
      <trkpt lat="41.537399003282189" lon="-3.105763010680676">
        <ele>893.33100000000002</ele>
        <time>2021-07-10T10:36:44Z</time>
      </trkpt>
      <trkpt lat="41.537381988018751" lon="-3.105653040111065">
        <ele>894.56200000000001</ele>
        <time>2021-07-10T10:36:45Z</time>
      </trkpt>
      <trkpt lat="41.537350974977016" lon="-3.10551499016583">
        <ele>895.72799999999995</ele>
        <time>2021-07-10T10:36:46Z</time>
      </trkpt>
      <trkpt lat="41.537341000512242" lon="-3.105455981567502">
        <ele>896.67999999999995</ele>
        <time>2021-07-10T10:36:48Z</time>
      </trkpt>
      <trkpt lat="41.537366984412074" lon="-3.105336036533117">
        <ele>897.96299999999997</ele>
        <time>2021-07-10T10:36:50Z</time>
      </trkpt>
      <trkpt lat="41.537428004667163" lon="-3.105250038206577">
        <ele>899.09699999999998</ele>
        <time>2021-07-10T10:36:51Z</time>
      </trkpt>
      <trkpt lat="41.537578962743282" lon="-3.105149958282709">
        <ele>899.95600000000002</ele>
        <time>2021-07-10T10:36:52Z</time>
      </trkpt>
      <trkpt lat="41.537792030721903" lon="-3.105024984106422">
        <ele>901.05700000000002</ele>
        <time>2021-07-10T10:36:54Z</time>
      </trkpt>
      <trkpt lat="41.537913987413049" lon="-3.1049570068717">
        <ele>902.29999999999995</ele>
        <time>2021-07-10T10:36:56Z</time>
      </trkpt>
      <trkpt lat="41.53804499655962" lon="-3.104882994666696">
        <ele>903.82000000000005</ele>
        <time>2021-07-10T10:36:57Z</time>
      </trkpt>
      <trkpt lat="41.538326041772962" lon="-3.104710998013616">
        <ele>905.40800000000002</ele>
        <time>2021-07-10T10:36:59Z</time>
      </trkpt>
      <trkpt lat="41.538600968196988" lon="-3.104507988318801">
        <ele>907.08199999999999</ele>
        <time>2021-07-10T10:37:00Z</time>
      </trkpt>
      <trkpt lat="41.538806995376945" lon="-3.10422501526773">
        <ele>908.25199999999995</ele>
        <time>2021-07-10T10:37:01Z</time>
      </trkpt>
      <trkpt lat="41.538901962339878" lon="-3.104055030271411">
        <ele>909.45299999999997</ele>
        <time>2021-07-10T10:37:03Z</time>
      </trkpt>
      <trkpt lat="41.538982009515166" lon="-3.103865012526512">
        <ele>910.24900000000002</ele>
        <time>2021-07-10T10:37:05Z</time>
      </trkpt>
      <trkpt lat="41.539102038368583" lon="-3.103435020893812">
        <ele>910.94100000000003</ele>
        <time>2021-07-10T10:37:06Z</time>
      </trkpt>
      <trkpt lat="41.539197005331516" lon="-3.10298097319901">
        <ele>911.29399999999998</ele>
        <time>2021-07-10T10:37:07Z</time>
      </trkpt>
      <trkpt lat="41.539338994771242" lon="-3.102510999888182">
        <ele>911.06799999999998</ele>
        <time>2021-07-10T10:37:09Z</time>
      </trkpt>
      <trkpt lat="41.53944100253284" lon="-3.102283012121916">
        <ele>910.697</ele>
        <time>2021-07-10T10:37:10Z</time>
      </trkpt>
      <trkpt lat="41.539561031386256" lon="-3.102057036012411">
        <ele>910.48099999999999</ele>
        <time>2021-07-10T10:37:12Z</time>
      </trkpt>
      <trkpt lat="41.539868982508779" lon="-3.101621009409428">
        <ele>910.16099999999994</ele>
        <time>2021-07-10T10:37:13Z</time>
      </trkpt>
      <trkpt lat="41.540051959455013" lon="-3.101415988057852">
        <ele>909.91700000000003</ele>
        <time>2021-07-10T10:37:15Z</time>
      </trkpt>
      <trkpt lat="41.540249017998576" lon="-3.101212978363037">
        <ele>909.50800000000004</ele>
        <time>2021-07-10T10:37:16Z</time>
      </trkpt>
      <trkpt lat="41.540456973016262" lon="-3.10100200586021">
        <ele>909.32500000000005</ele>
        <time>2021-07-10T10:37:18Z</time>
      </trkpt>
      <trkpt lat="41.540868021547794" lon="-3.100564973428845">
        <ele>909.72500000000002</ele>
        <time>2021-07-10T10:37:20Z</time>
      </trkpt>
      <trkpt lat="41.541259037330747" lon="-3.100146967917681">
        <ele>910.51599999999996</ele>
        <time>2021-07-10T10:37:21Z</time>
      </trkpt>
      <trkpt lat="41.541607975959778" lon="-3.099774979054928">
        <ele>910.21199999999999</ele>
        <time>2021-07-10T10:37:23Z</time>
      </trkpt>
      <trkpt lat="41.5417639631778" lon="-3.099574986845255">
        <ele>909.49400000000003</ele>
        <time>2021-07-10T10:37:24Z</time>
      </trkpt>
      <trkpt lat="41.541902013123035" lon="-3.099357979372144">
        <ele>907.53700000000003</ele>
        <time>2021-07-10T10:37:26Z</time>
      </trkpt>
      <trkpt lat="41.542022963985801" lon="-3.099114987999201">
        <ele>905.63099999999997</ele>
        <time>2021-07-10T10:37:28Z</time>
      </trkpt>
      <trkpt lat="41.542210970073938" lon="-3.098646020516753">
        <ele>904.32000000000005</ele>
        <time>2021-07-10T10:37:30Z</time>
      </trkpt>
      <trkpt lat="41.542441975325346" lon="-3.098194990307093">
        <ele>903.65700000000004</ele>
        <time>2021-07-10T10:37:31Z</time>
      </trkpt>
      <trkpt lat="41.542585976421833" lon="-3.097982006147504">
        <ele>903</ele>
        <time>2021-07-10T10:37:32Z</time>
      </trkpt>
      <trkpt lat="41.542752021923661" lon="-3.097798023372889">
        <ele>902.01999999999998</ele>
        <time>2021-07-10T10:37:33Z</time>
      </trkpt>
      <trkpt lat="41.54311403632164" lon="-3.097454030066729">
        <ele>900.80799999999999</ele>
        <time>2021-07-10T10:37:35Z</time>
      </trkpt>
      <trkpt lat="41.543491976335645" lon="-3.097102995961905">
        <ele>900.06200000000001</ele>
        <time>2021-07-10T10:37:37Z</time>
      </trkpt>
      <trkpt lat="41.543675037100911" lon="-3.096936028450728">
        <ele>899.76199999999994</ele>
        <time>2021-07-10T10:37:38Z</time>
      </trkpt>
      <trkpt lat="41.544008972123265" lon="-3.096612989902496">
        <ele>899.65300000000002</ele>
        <time>2021-07-10T10:37:39Z</time>
      </trkpt>
      <trkpt lat="41.544167976826429" lon="-3.096468988806009">
        <ele>898.86900000000003</ele>
        <time>2021-07-10T10:37:41Z</time>
      </trkpt>
      <trkpt lat="41.544338967651129" lon="-3.096334962174296">
        <ele>897.93100000000004</ele>
        <time>2021-07-10T10:37:43Z</time>
      </trkpt>
      <trkpt lat="41.54468597844243" lon="-3.096127007156611">
        <ele>897.18399999999997</ele>
        <time>2021-07-10T10:37:44Z</time>
      </trkpt>
      <trkpt lat="41.54507196508348" lon="-3.095913017168641">
        <ele>895.87800000000004</ele>
        <time>2021-07-10T10:37:46Z</time>
      </trkpt>
      <trkpt lat="41.545276986435056" lon="-3.095800029113889">
        <ele>894.68700000000001</ele>
        <time>2021-07-10T10:37:48Z</time>
      </trkpt>
      <trkpt lat="41.545496005564928" lon="-3.095680000260472">
        <ele>893.34799999999996</ele>
        <time>2021-07-10T10:37:49Z</time>
      </trkpt>
      <trkpt lat="41.545942006632686" lon="-3.095433991402388">
        <ele>892.56100000000004</ele>
        <time>2021-07-10T10:37:51Z</time>
      </trkpt>
      <trkpt lat="41.546182986348867" lon="-3.095302982255817">
        <ele>892.01700000000005</ele>
        <time>2021-07-10T10:37:52Z</time>
      </trkpt>
      <trkpt lat="41.546670980751514" lon="-3.095028977841139">
        <ele>891.50800000000004</ele>
        <time>2021-07-10T10:37:54Z</time>
      </trkpt>
      <trkpt lat="41.546924030408263" lon="-3.0948790255934">
        <ele>891.09100000000001</ele>
        <time>2021-07-10T10:37:56Z</time>
      </trkpt>
      <trkpt lat="41.547398027032614" lon="-3.094608960673213">
        <ele>890.351</ele>
        <time>2021-07-10T10:37:58Z</time>
      </trkpt>
      <trkpt lat="41.547639006748796" lon="-3.09447099454701">
        <ele>890.11199999999997</ele>
        <time>2021-07-10T10:37:59Z</time>
      </trkpt>
      <trkpt lat="41.548101017251611" lon="-3.094206964597106">
        <ele>890.26800000000003</ele>
        <time>2021-07-10T10:38:01Z</time>
      </trkpt>
      <trkpt lat="41.548548024147749" lon="-3.093969002366066">
        <ele>889.88999999999999</ele>
        <time>2021-07-10T10:38:03Z</time>
      </trkpt>
      <trkpt lat="41.548768971115351" lon="-3.093880992382765">
        <ele>889.49300000000005</ele>
        <time>2021-07-10T10:38:04Z</time>
      </trkpt>
      <trkpt lat="41.549222012981772" lon="-3.093759035691619">
        <ele>889.327</ele>
        <time>2021-07-10T10:38:05Z</time>
      </trkpt>
      <trkpt lat="41.549459975212812" lon="-3.093708995729685">
        <ele>889.226</ele>
        <time>2021-07-10T10:38:07Z</time>
      </trkpt>
      <trkpt lat="41.549945035949349" lon="-3.093595001846552">
        <ele>889.74699999999996</ele>
        <time>2021-07-10T10:38:08Z</time>
      </trkpt>
      <trkpt lat="41.550434958189726" lon="-3.093475978821516">
        <ele>890.029</ele>
        <time>2021-07-10T10:38:09Z</time>
      </trkpt>
      <trkpt lat="41.550850030034781" lon="-3.093367014080286">
        <ele>889.42100000000005</ele>
        <time>2021-07-10T10:38:11Z</time>
      </trkpt>
      <trkpt lat="41.551051028072834" lon="-3.093325020745397">
        <ele>889.10799999999995</ele>
        <time>2021-07-10T10:38:12Z</time>
      </trkpt>
      <trkpt lat="41.551246996968985" lon="-3.093303982168436">
        <ele>889.25099999999998</ele>
        <time>2021-07-10T10:38:14Z</time>
      </trkpt>
      <trkpt lat="41.551446989178658" lon="-3.093309011310339">
        <ele>888.971</ele>
        <time>2021-07-10T10:38:16Z</time>
      </trkpt>
      <trkpt lat="41.551815960556269" lon="-3.093361984938383">
        <ele>888.92200000000003</ele>
        <time>2021-07-10T10:38:17Z</time>
      </trkpt>
      <trkpt lat="41.552209993824363" lon="-3.093430968001485">
        <ele>889.15800000000002</ele>
        <time>2021-07-10T10:38:19Z</time>
      </trkpt>
      <trkpt lat="41.552409986034036" lon="-3.093454018235207">
        <ele>889.00999999999999</ele>
        <time>2021-07-10T10:38:21Z</time>
      </trkpt>
      <trkpt lat="41.552620958536863" lon="-3.0934820137918">
        <ele>889.39300000000003</ele>
        <time>2021-07-10T10:38:23Z</time>
      </trkpt>
      <trkpt lat="41.553017003461719" lon="-3.093558959662914">
        <ele>889.73699999999997</ele>
        <time>2021-07-10T10:38:24Z</time>
      </trkpt>
      <trkpt lat="41.553443977609277" lon="-3.093635989353061">
        <ele>890.19600000000003</ele>
        <time>2021-07-10T10:38:25Z</time>
      </trkpt>
      <trkpt lat="41.553670959547162" lon="-3.093662979081273">
        <ele>890.31899999999996</ele>
        <time>2021-07-10T10:38:27Z</time>
      </trkpt>
      <trkpt lat="41.554096005856991" lon="-3.093647975474596">
        <ele>890.90899999999999</ele>
        <time>2021-07-10T10:38:29Z</time>
      </trkpt>
      <trkpt lat="41.554535971954465" lon="-3.09354797936976">
        <ele>891.21900000000005</ele>
        <time>2021-07-10T10:38:30Z</time>
      </trkpt>
      <trkpt lat="41.554766977205873" lon="-3.093475978821516">
        <ele>891.30799999999999</ele>
        <time>2021-07-10T10:38:32Z</time>
      </trkpt>
      <trkpt lat="41.555220019072294" lon="-3.09333398938179">
        <ele>891.43799999999999</ele>
        <time>2021-07-10T10:38:33Z</time>
      </trkpt>
      <trkpt lat="41.555462004616857" lon="-3.093256959691644">
        <ele>892.13800000000003</ele>
        <time>2021-07-10T10:38:35Z</time>
      </trkpt>
      <trkpt lat="41.555972965434194" lon="-3.093084041029215">
        <ele>893.15899999999999</ele>
        <time>2021-07-10T10:38:37Z</time>
      </trkpt>
      <trkpt lat="41.556475041434169" lon="-3.092912966385484">
        <ele>894.17499999999995</ele>
        <time>2021-07-10T10:38:38Z</time>
      </trkpt>
      <trkpt lat="41.557011986151338" lon="-3.092718003317714">
        <ele>895.15700000000004</ele>
        <time>2021-07-10T10:38:40Z</time>
      </trkpt>
      <trkpt lat="41.557299988344312" lon="-3.092618007212877">
        <ele>895.59000000000003</ele>
        <time>2021-07-10T10:38:41Z</time>
      </trkpt>
      <trkpt lat="41.55785302631557" lon="-3.092437963932753">
        <ele>895.97400000000005</ele>
        <time>2021-07-10T10:38:43Z</time>
      </trkpt>
      <trkpt lat="41.558433976024389" lon="-3.092249035835266">
        <ele>895.98299999999995</ele>
        <time>2021-07-10T10:38:45Z</time>
      </trkpt>
      <trkpt lat="41.558738993480802" lon="-3.092147028073669">
        <ele>895.86300000000006</ele>
        <time>2021-07-10T10:38:47Z</time>
      </trkpt>
      <trkpt lat="41.559025989845395" lon="-3.092053988948464">
        <ele>895.84400000000005</ele>
        <time>2021-07-10T10:38:49Z</time>
      </trkpt>
      <trkpt lat="41.559599982574582" lon="-3.091862965375185">
        <ele>896.01800000000003</ele>
        <time>2021-07-10T10:38:50Z</time>
      </trkpt>
      <trkpt lat="41.559896031394601" lon="-3.091762969270349">
        <ele>896.00800000000004</ele>
        <time>2021-07-10T10:38:51Z</time>
      </trkpt>
      <trkpt lat="41.560199037194252" lon="-3.091660039499402">
        <ele>896.22299999999996</ele>
        <time>2021-07-10T10:38:53Z</time>
      </trkpt>
      <trkpt lat="41.560746040195227" lon="-3.091473039239645">
        <ele>896.27300000000002</ele>
        <time>2021-07-10T10:38:55Z</time>
      </trkpt>
      <trkpt lat="41.561030019074678" lon="-3.091375976800919">
        <ele>896.34400000000005</ele>
        <time>2021-07-10T10:38:57Z</time>
      </trkpt>
      <trkpt lat="41.561596971005201" lon="-3.09118302538991">
        <ele>896.84000000000003</ele>
        <time>2021-07-10T10:38:58Z</time>
      </trkpt>
      <trkpt lat="41.562117990106344" lon="-3.091007005423307">
        <ele>897.13199999999995</ele>
        <time>2021-07-10T10:39:00Z</time>
      </trkpt>
      <trkpt lat="41.562380008399487" lon="-3.090920001268387">
        <ele>897.07500000000005</ele>
        <time>2021-07-10T10:39:01Z</time>
      </trkpt>
      <trkpt lat="41.562892980873585" lon="-3.090740963816643">
        <ele>897.149</ele>
        <time>2021-07-10T10:39:03Z</time>
      </trkpt>
      <trkpt lat="41.563389021903276" lon="-3.09056100435555">
        <ele>897.23800000000006</ele>
        <time>2021-07-10T10:39:04Z</time>
      </trkpt>
      <trkpt lat="41.563889002427459" lon="-3.090386996045709">
        <ele>897.53800000000001</ele>
        <time>2021-07-10T10:39:05Z</time>
      </trkpt>
      <trkpt lat="41.564139034599066" lon="-3.090298986062408">
        <ele>897.87</ele>
        <time>2021-07-10T10:39:06Z</time>
      </trkpt>
      <trkpt lat="41.564401974901557" lon="-3.090209970250726">
        <ele>897.81700000000001</ele>
        <time>2021-07-10T10:39:08Z</time>
      </trkpt>
      <trkpt lat="41.564876977354288" lon="-3.090037973597646">
        <ele>898.00800000000004</ele>
        <time>2021-07-10T10:39:10Z</time>
      </trkpt>
      <trkpt lat="41.565348040312529" lon="-3.089862037450075">
        <ele>897.88999999999999</ele>
        <time>2021-07-10T10:39:12Z</time>
      </trkpt>
      <trkpt lat="41.565579967573285" lon="-3.089785007759929">
        <ele>897.46000000000004</ele>
        <time>2021-07-10T10:39:14Z</time>
      </trkpt>
      <trkpt lat="41.566033009439707" lon="-3.0896379891783">
        <ele>896.46100000000001</ele>
        <time>2021-07-10T10:39:16Z</time>
      </trkpt>
      <trkpt lat="41.566257979720831" lon="-3.089564982801676">
        <ele>895.67700000000002</ele>
        <time>2021-07-10T10:39:18Z</time>
      </trkpt>
      <trkpt lat="41.566697023808956" lon="-3.089416958391666">
        <ele>895.37900000000002</ele>
        <time>2021-07-10T10:39:20Z</time>
      </trkpt>
      <trkpt lat="41.567104971036315" lon="-3.089189976453781">
        <ele>895.24199999999996</ele>
        <time>2021-07-10T10:39:21Z</time>
      </trkpt>
      <trkpt lat="41.567289959639311" lon="-3.089039018377662">
        <ele>895.45600000000002</ele>
        <time>2021-07-10T10:39:23Z</time>
      </trkpt>
      <trkpt lat="41.567632025107741" lon="-3.088701982051134">
        <ele>895.47500000000002</ele>
        <time>2021-07-10T10:39:25Z</time>
      </trkpt>
      <trkpt lat="41.567795975133777" lon="-3.088539959862828">
        <ele>895.755</ele>
        <time>2021-07-10T10:39:26Z</time>
      </trkpt>
      <trkpt lat="41.56812496483326" lon="-3.088257992640138">
        <ele>896.00699999999995</ele>
        <time>2021-07-10T10:39:28Z</time>
      </trkpt>
      <trkpt lat="41.568500977009535" lon="-3.088054982945323">
        <ele>895.71699999999998</ele>
        <time>2021-07-10T10:39:30Z</time>
      </trkpt>
      <trkpt lat="41.568884029984474" lon="-3.087950041517615">
        <ele>895.30799999999999</ele>
        <time>2021-07-10T10:39:31Z</time>
      </trkpt>
      <trkpt lat="41.569287031888962" lon="-3.087838981300592">
        <ele>895.19200000000001</ele>
        <time>2021-07-10T10:39:33Z</time>
      </trkpt>
      <trkpt lat="41.569484006613493" lon="-3.087785001844168">
        <ele>894.71199999999999</ele>
        <time>2021-07-10T10:39:35Z</time>
      </trkpt>
      <trkpt lat="41.569686010479927" lon="-3.087728004902601">
        <ele>894.41300000000001</ele>
        <time>2021-07-10T10:39:36Z</time>
      </trkpt>
      <trkpt lat="41.570047019049525" lon="-3.087632032111287">
        <ele>894.16899999999998</ele>
        <time>2021-07-10T10:39:38Z</time>
      </trkpt>
      <trkpt lat="41.570396041497588" lon="-3.08744695968926">
        <ele>893.92100000000005</ele>
        <time>2021-07-10T10:39:39Z</time>
      </trkpt>
      <trkpt lat="41.570695023983717" lon="-3.087177984416485">
        <ele>893.64400000000001</ele>
        <time>2021-07-10T10:39:41Z</time>
      </trkpt>
      <trkpt lat="41.570859979838133" lon="-3.087029037997127">
        <ele>893.66800000000001</ele>
        <time>2021-07-10T10:39:42Z</time>
      </trkpt>
      <trkpt lat="41.571178995072842" lon="-3.086709016934037">
        <ele>893.38699999999994</ele>
        <time>2021-07-10T10:39:44Z</time>
      </trkpt>
      <trkpt lat="41.57134504057467" lon="-3.086523022502661">
        <ele>893.83799999999997</ele>
        <time>2021-07-10T10:39:45Z</time>
      </trkpt>
      <trkpt lat="41.57164896838367" lon="-3.086152039468288">
        <ele>894.16999999999996</ele>
        <time>2021-07-10T10:39:46Z</time>
      </trkpt>
      <trkpt lat="41.571810990571976" lon="-3.085952969267964">
        <ele>894.31700000000001</ele>
        <time>2021-07-10T10:39:47Z</time>
      </trkpt>
      <trkpt lat="41.571977036073804" lon="-3.085760017856956">
        <ele>894.70799999999997</ele>
        <time>2021-07-10T10:39:49Z</time>
      </trkpt>
      <trkpt lat="41.572148026898503" lon="-3.085558013990521">
        <ele>895.48000000000002</ele>
        <time>2021-07-10T10:39:51Z</time>
      </trkpt>
      <trkpt lat="41.572466036304832" lon="-3.085183007642627">
        <ele>895.97000000000003</ele>
        <time>2021-07-10T10:39:52Z</time>
      </trkpt>
      <trkpt lat="41.572771975770593" lon="-3.084800960496068">
        <ele>895.81100000000004</ele>
        <time>2021-07-10T10:39:54Z</time>
      </trkpt>
      <trkpt lat="41.573051009327173" lon="-3.084425032138825">
        <ele>895.93700000000001</ele>
        <time>2021-07-10T10:39:56Z</time>
      </trkpt>
      <trkpt lat="41.573355020955205" lon="-3.08415899053216">
        <ele>895.44899999999996</ele>
        <time>2021-07-10T10:39:57Z</time>
      </trkpt>
      <trkpt lat="41.573706977069378" lon="-3.08392396196723">
        <ele>895.42200000000003</ele>
        <time>2021-07-10T10:39:59Z</time>
      </trkpt>
      <trkpt lat="41.574052982032299" lon="-3.083715001121163">
        <ele>895.38599999999997</ele>
        <time>2021-07-10T10:40:01Z</time>
      </trkpt>
      <trkpt lat="41.574460007250309" lon="-3.083633026108146">
        <ele>895.77499999999998</ele>
        <time>2021-07-10T10:40:02Z</time>
      </trkpt>
      <trkpt lat="41.57467701472342" lon="-3.0836440064013">
        <ele>895.96699999999998</ele>
        <time>2021-07-10T10:40:04Z</time>
      </trkpt>
      <trkpt lat="41.575109018012881" lon="-3.083718018606305">
        <ele>896.08100000000002</ele>
        <time>2021-07-10T10:40:06Z</time>
      </trkpt>
      <trkpt lat="41.575507996603847" lon="-3.083787001669407">
        <ele>896.41899999999998</ele>
        <time>2021-07-10T10:40:07Z</time>
      </trkpt>
      <trkpt lat="41.575721986591816" lon="-3.083864031359553">
        <ele>896.70799999999997</ele>
        <time>2021-07-10T10:40:09Z</time>
      </trkpt>
      <trkpt lat="41.576118031516671" lon="-3.08405103161931">
        <ele>896.95299999999997</ele>
        <time>2021-07-10T10:40:10Z</time>
      </trkpt>
      <trkpt lat="41.576533019542694" lon="-3.084155973047018">
        <ele>897.27300000000002</ele>
        <time>2021-07-10T10:40:11Z</time>
      </trkpt>
      <trkpt lat="41.576753966510296" lon="-3.084165025502443">
        <ele>897.51400000000001</ele>
        <time>2021-07-10T10:40:12Z</time>
      </trkpt>
      <trkpt lat="41.577163003385067" lon="-3.084174999967217">
        <ele>897.41999999999996</ele>
        <time>2021-07-10T10:40:14Z</time>
      </trkpt>
      <trkpt lat="41.577585032209754" lon="-3.084156978875399">
        <ele>897.572</ele>
        <time>2021-07-10T10:40:16Z</time>
      </trkpt>
      <trkpt lat="41.577801033854485" lon="-3.084127977490425">
        <ele>897.66499999999996</ele>
        <time>2021-07-10T10:40:17Z</time>
      </trkpt>
      <trkpt lat="41.578160030767322" lon="-3.084006020799279">
        <ele>898.34900000000005</ele>
        <time>2021-07-10T10:40:19Z</time>
      </trkpt>
      <trkpt lat="41.578342001885176" lon="-3.08390200138092">
        <ele>899.06799999999998</ele>
        <time>2021-07-10T10:40:21Z</time>
      </trkpt>
      <trkpt lat="41.578670991584659" lon="-3.083633026108146">
        <ele>899.27200000000005</ele>
        <time>2021-07-10T10:40:22Z</time>
      </trkpt>
      <trkpt lat="41.578810969367623" lon="-3.083477960899472">
        <ele>899.31299999999999</ele>
        <time>2021-07-10T10:40:24Z</time>
      </trkpt>
      <trkpt lat="41.579082040116191" lon="-3.083177972584963">
        <ele>899.41399999999999</ele>
        <time>2021-07-10T10:40:26Z</time>
      </trkpt>
      <trkpt lat="41.579222017899156" lon="-3.083027014508843">
        <ele>899.50800000000004</ele>
        <time>2021-07-10T10:40:27Z</time>
      </trkpt>
      <trkpt lat="41.579359984025359" lon="-3.082874966785312">
        <ele>899.29399999999998</ele>
        <time>2021-07-10T10:40:28Z</time>
      </trkpt>
      <trkpt lat="41.579487975686789" lon="-3.082733983173966">
        <ele>899.39400000000001</ele>
        <time>2021-07-10T10:40:30Z</time>
      </trkpt>
      <trkpt lat="41.579687967896461" lon="-3.082487974315882">
        <ele>899.35500000000002</ele>
        <time>2021-07-10T10:40:31Z</time>
      </trkpt>
      <trkpt lat="41.579830041155219" lon="-3.082207012921572">
        <ele>899.37099999999998</ele>
        <time>2021-07-10T10:40:32Z</time>
      </trkpt>
      <trkpt lat="41.579896006733179" lon="-3.082064017653465">
        <ele>899.34299999999996</ele>
        <time>2021-07-10T10:40:33Z</time>
      </trkpt>
      <trkpt lat="41.580001031979918" lon="-3.08183996938169">
        <ele>898.976</ele>
        <time>2021-07-10T10:40:35Z</time>
      </trkpt>
      <trkpt lat="41.580079989507794" lon="-3.081608964130282">
        <ele>898.67999999999995</ele>
        <time>2021-07-10T10:40:37Z</time>
      </trkpt>
      <trkpt lat="41.58011301420629" lon="-3.081475021317601">
        <ele>898.63900000000001</ele>
        <time>2021-07-10T10:40:38Z</time>
      </trkpt>
      <trkpt lat="41.580158025026321" lon="-3.081188024953008">
        <ele>898.84400000000005</ele>
        <time>2021-07-10T10:40:40Z</time>
      </trkpt>
      <trkpt lat="41.58019901253283" lon="-3.080851994454861">
        <ele>898.70500000000004</ele>
        <time>2021-07-10T10:40:41Z</time>
      </trkpt>
      <trkpt lat="41.580222984775901" lon="-3.080666000023484">
        <ele>898.61500000000001</ele>
        <time>2021-07-10T10:40:42Z</time>
      </trkpt>
      <trkpt lat="41.580275036394596" lon="-3.080301973968744">
        <ele>898.30799999999999</ele>
        <time>2021-07-10T10:40:44Z</time>
      </trkpt>
      <trkpt lat="41.580384001135826" lon="-3.07992797344923">
        <ele>898.08100000000002</ele>
        <time>2021-07-10T10:40:45Z</time>
      </trkpt>
      <trkpt lat="41.580474022775888" lon="-3.079738961532712">
        <ele>897.99099999999999</ele>
        <time>2021-07-10T10:40:47Z</time>
      </trkpt>
      <trkpt lat="41.580668985843658" lon="-3.079391028732061">
        <ele>897.952</ele>
        <time>2021-07-10T10:40:48Z</time>
      </trkpt>
      <trkpt lat="41.580765964463353" lon="-3.079203022643924">
        <ele>898.08799999999997</ele>
        <time>2021-07-10T10:40:49Z</time>
      </trkpt>
      <trkpt lat="41.580851962789893" lon="-3.079003030434251">
        <ele>897.87</ele>
        <time>2021-07-10T10:40:51Z</time>
      </trkpt>
      <trkpt lat="41.580933015793562" lon="-3.078780993819237">
        <ele>898.06299999999999</ele>
        <time>2021-07-10T10:40:52Z</time>
      </trkpt>
      <trkpt lat="41.58108196221292" lon="-3.078377991914749">
        <ele>897.93700000000001</ele>
        <time>2021-07-10T10:40:53Z</time>
      </trkpt>
      <trkpt lat="41.581260999664664" lon="-3.077961998060346">
        <ele>898.096</ele>
        <time>2021-07-10T10:40:55Z</time>
      </trkpt>
      <trkpt lat="41.581364013254642" lon="-3.077747002243996">
        <ele>898.47500000000002</ele>
        <time>2021-07-10T10:40:57Z</time>
      </trkpt>
      <trkpt lat="41.58157397992909" lon="-3.077364033088088">
        <ele>898.82799999999997</ele>
        <time>2021-07-10T10:40:58Z</time>
      </trkpt>
      <trkpt lat="41.581814037635922" lon="-3.076988020911813">
        <ele>898.82000000000005</ele>
        <time>2021-07-10T10:41:00Z</time>
      </trkpt>
      <trkpt lat="41.581942029297352" lon="-3.07678802870214">
        <ele>898.90800000000002</ele>
        <time>2021-07-10T10:41:01Z</time>
      </trkpt>
      <trkpt lat="41.582172028720379" lon="-3.076432971283793">
        <ele>899.07399999999996</ele>
        <time>2021-07-10T10:41:03Z</time>
      </trkpt>
      <trkpt lat="41.582398004829884" lon="-3.076079003512859">
        <ele>899.274</ele>
        <time>2021-07-10T10:41:05Z</time>
      </trkpt>
      <trkpt lat="41.582510992884636" lon="-3.075906001031399">
        <ele>899.54499999999996</ele>
        <time>2021-07-10T10:41:07Z</time>
      </trkpt>
      <trkpt lat="41.582618029788136" lon="-3.075743978843093">
        <ele>899.63099999999997</ele>
        <time>2021-07-10T10:41:08Z</time>
      </trkpt>
      <trkpt lat="41.58281902782619" lon="-3.075469974428415">
        <ele>899.68299999999999</ele>
        <time>2021-07-10T10:41:09Z</time>
      </trkpt>
      <trkpt lat="41.582935033366084" lon="-3.075350029394031">
        <ele>899.71600000000001</ele>
        <time>2021-07-10T10:41:11Z</time>
      </trkpt>
      <trkpt lat="41.583063025027514" lon="-3.075251961126924">
        <ele>899.99000000000001</ele>
        <time>2021-07-10T10:41:12Z</time>
      </trkpt>
      <trkpt lat="41.583207026124001" lon="-3.075157999992371">
        <ele>900.05899999999997</ele>
        <time>2021-07-10T10:41:13Z</time>
      </trkpt>
      <trkpt lat="41.583480024710298" lon="-3.074990026652813">
        <ele>900.25099999999998</ele>
        <time>2021-07-10T10:41:14Z</time>
      </trkpt>
      <trkpt lat="41.583767021074891" lon="-3.074803026393056">
        <ele>900.70100000000002</ele>
        <time>2021-07-10T10:41:16Z</time>
      </trkpt>
      <trkpt lat="41.583920996636152" lon="-3.0747040361166">
        <ele>901.01099999999997</ele>
        <time>2021-07-10T10:41:18Z</time>
      </trkpt>
      <trkpt lat="41.584200030192733" lon="-3.074523992836475">
        <ele>901.30799999999999</ele>
        <time>2021-07-10T10:41:19Z</time>
      </trkpt>
      <trkpt lat="41.58434403128922" lon="-3.074423996731639">
        <ele>901.39200000000005</ele>
        <time>2021-07-10T10:41:21Z</time>
      </trkpt>
      <trkpt lat="41.584489960223436" lon="-3.074321988970041">
        <ele>901.44200000000001</ele>
        <time>2021-07-10T10:41:23Z</time>
      </trkpt>
      <trkpt lat="41.58477402292192" lon="-3.074099030345678">
        <ele>901.63300000000004</ele>
        <time>2021-07-10T10:41:24Z</time>
      </trkpt>
      <trkpt lat="41.584916012361646" lon="-3.07397598400712">
        <ele>902.17899999999997</ele>
        <time>2021-07-10T10:41:26Z</time>
      </trkpt>
      <trkpt lat="41.585196973755956" lon="-3.073732992634177">
        <ele>902.21100000000001</ele>
        <time>2021-07-10T10:41:28Z</time>
      </trkpt>
      <trkpt lat="41.585342986509204" lon="-3.073602989315987">
        <ele>902.39400000000001</ele>
        <time>2021-07-10T10:41:29Z</time>
      </trkpt>
      <trkpt lat="41.585475001484156" lon="-3.073484972119331">
        <ele>902.74800000000005</ele>
        <time>2021-07-10T10:41:31Z</time>
      </trkpt>
      <trkpt lat="41.585717992857099" lon="-3.073285985738039">
        <ele>903.327</ele>
        <time>2021-07-10T10:41:33Z</time>
      </trkpt>
      <trkpt lat="41.58582997508347" lon="-3.073193030431867">
        <ele>903.64599999999996</ele>
        <time>2021-07-10T10:41:34Z</time>
      </trkpt>
      <trkpt lat="41.585938017815351" lon="-3.073103008791804">
        <ele>904.68799999999999</ele>
        <time>2021-07-10T10:41:36Z</time>
      </trkpt>
      <trkpt lat="41.586098028346896" lon="-3.072979962453246">
        <ele>905.51599999999996</ele>
        <time>2021-07-10T10:41:38Z</time>
      </trkpt>
      <trkpt lat="41.586249992251396" lon="-3.072908967733383">
        <ele>906.00800000000004</ele>
        <time>2021-07-10T10:41:39Z</time>
      </trkpt>
      <trkpt lat="41.586334984749556" lon="-3.072886001318693">
        <ele>906.46100000000001</ele>
        <time>2021-07-10T10:41:41Z</time>
      </trkpt>
      <trkpt lat="41.586511004716158" lon="-3.072864040732384">
        <ele>906.51099999999997</ele>
        <time>2021-07-10T10:41:42Z</time>
      </trkpt>
      <trkpt lat="41.586613012477756" lon="-3.072855994105339">
        <ele>906.73199999999997</ele>
        <time>2021-07-10T10:41:44Z</time>
      </trkpt>
      <trkpt lat="41.586833959445357" lon="-3.07283403351903">
        <ele>906.75800000000004</ele>
        <time>2021-07-10T10:41:45Z</time>
      </trkpt>
      <trkpt lat="41.587046021595597" lon="-3.072811989113689">
        <ele>907.22000000000003</ele>
        <time>2021-07-10T10:41:47Z</time>
      </trkpt>
      <trkpt lat="41.587252970784903" lon="-3.072786005213857">
        <ele>907.39300000000003</ele>
        <time>2021-07-10T10:41:50Z</time>
      </trkpt>
      <trkpt lat="41.58735103905201" lon="-3.072774019092321">
        <ele>908.02700000000004</ele>
        <time>2021-07-10T10:41:52Z</time>
      </trkpt>
      <trkpt lat="41.587446006014943" lon="-3.072761027142406">
        <ele>909.03599999999994</ele>
        <time>2021-07-10T10:41:55Z</time>
      </trkpt>
      <trkpt lat="41.587604004889727" lon="-3.072736971080303">
        <ele>908.86800000000005</ele>
        <time>2021-07-10T10:42:02Z</time>
      </trkpt>
      <trkpt lat="41.587673993781209" lon="-3.072722973302007">
        <ele>909.04200000000003</ele>
        <time>2021-07-10T10:42:04Z</time>
      </trkpt>
      <trkpt lat="41.587728979066014" lon="-3.072699001058936">
        <ele>908.82600000000002</ele>
        <time>2021-07-10T10:42:05Z</time>
      </trkpt>
      <trkpt lat="41.587770972400904" lon="-3.07266497053206">
        <ele>908.70799999999997</ele>
        <time>2021-07-10T10:42:06Z</time>
      </trkpt>
      <trkpt lat="41.587811959907413" lon="-3.072590036317706">
        <ele>908.25300000000004</ele>
        <time>2021-07-10T10:42:07Z</time>
      </trkpt>
      <trkpt lat="41.587834004312754" lon="-3.072466989979148">
        <ele>907.62300000000005</ele>
        <time>2021-07-10T10:42:09Z</time>
      </trkpt>
      <trkpt lat="41.587829980999231" lon="-3.072379985824227">
        <ele>907.05399999999997</ele>
        <time>2021-07-10T10:42:10Z</time>
      </trkpt>
      <trkpt lat="41.58780500292778" lon="-3.072162978351116">
        <ele>906.82000000000005</ele>
        <time>2021-07-10T10:42:12Z</time>
      </trkpt>
      <trkpt lat="41.587778013199568" lon="-3.071903977543116">
        <ele>906.31200000000001</ele>
        <time>2021-07-10T10:42:13Z</time>
      </trkpt>
      <trkpt lat="41.587764015421271" lon="-3.071766011416912">
        <ele>905.91499999999996</ele>
        <time>2021-07-10T10:42:15Z</time>
      </trkpt>
      <trkpt lat="41.58773903734982" lon="-3.071493012830615">
        <ele>905.87900000000002</ele>
        <time>2021-07-10T10:42:16Z</time>
      </trkpt>
      <trkpt lat="41.587720010429621" lon="-3.071230994537473">
        <ele>905.46799999999996</ele>
        <time>2021-07-10T10:42:18Z</time>
      </trkpt>
      <trkpt lat="41.587711041793227" lon="-3.071093028411269">
        <ele>905.36500000000001</ele>
        <time>2021-07-10T10:42:19Z</time>
      </trkpt>
      <trkpt lat="41.587693020701408" lon="-3.070835033431649">
        <ele>904.96799999999996</ele>
        <time>2021-07-10T10:42:20Z</time>
      </trkpt>
      <trkpt lat="41.587671982124448" lon="-3.070565974339843">
        <ele>904.71400000000006</ele>
        <time>2021-07-10T10:42:22Z</time>
      </trkpt>
      <trkpt lat="41.587662007659674" lon="-3.070427002385259">
        <ele>904.60799999999995</ele>
        <time>2021-07-10T10:42:24Z</time>
      </trkpt>
      <trkpt lat="41.587645998224616" lon="-3.07017202489078">
        <ele>904.89300000000003</ele>
        <time>2021-07-10T10:42:40Z</time>
      </trkpt>
      <trkpt lat="41.587639963254333" lon="-3.069920986890793">
        <ele>904.76300000000003</ele>
        <time>2021-07-10T10:42:42Z</time>
      </trkpt>
      <trkpt lat="41.587640969082713" lon="-3.069797018542886">
        <ele>905.13400000000001</ele>
        <time>2021-07-10T10:42:44Z</time>
      </trkpt>
      <trkpt lat="41.587639041244984" lon="-3.069585040211678">
        <ele>905.36000000000001</ele>
        <time>2021-07-10T10:42:45Z</time>
      </trkpt>
      <trkpt lat="41.587640969082713" lon="-3.06948596611619">
        <ele>905.52200000000005</ele>
        <time>2021-07-10T10:42:46Z</time>
      </trkpt>
      <trkpt lat="41.587643986567855" lon="-3.069305000826716">
        <ele>905.745</ele>
        <time>2021-07-10T10:42:48Z</time>
      </trkpt>
      <trkpt lat="41.587647004052997" lon="-3.069238029420376">
        <ele>906.06899999999996</ele>
        <time>2021-07-10T10:42:49Z</time>
      </trkpt>
      <trkpt lat="41.58765303902328" lon="-3.069150019437075">
        <ele>906.19799999999998</ele>
        <time>2021-07-10T10:42:51Z</time>
      </trkpt>
      <trkpt lat="41.587658990174532" lon="-3.069061003625393">
        <ele>906.18499999999995</ele>
        <time>2021-07-10T10:42:53Z</time>
      </trkpt>
      <trkpt lat="41.587662007659674" lon="-3.068986991420388">
        <ele>906.28899999999999</ele>
        <time>2021-07-10T10:42:55Z</time>
      </trkpt>
      <trkpt lat="41.587667958810925" lon="-3.068917002528906">
        <ele>905.91700000000003</ele>
        <time>2021-07-10T10:42:57Z</time>
      </trkpt>
      <trkpt lat="41.587667036801577" lon="-3.068834021687508">
        <ele>905.20799999999997</ele>
        <time>2021-07-10T10:42:59Z</time>
      </trkpt>
      <trkpt lat="41.587659996002913" lon="-3.068690020591021">
        <ele>904.69500000000005</ele>
        <time>2021-07-10T10:43:01Z</time>
      </trkpt>
      <trkpt lat="41.587657984346151" lon="-3.068608967587352">
        <ele>903.93499999999995</ele>
        <time>2021-07-10T10:43:02Z</time>
      </trkpt>
      <trkpt lat="41.587658990174532" lon="-3.068530010059476">
        <ele>903.33600000000001</ele>
        <time>2021-07-10T10:43:04Z</time>
      </trkpt>
      <trkpt lat="41.587659996002913" lon="-3.068448035046458">
        <ele>903.13199999999995</ele>
        <time>2021-07-10T10:43:05Z</time>
      </trkpt>
      <trkpt lat="41.587658990174532" lon="-3.068285007029772">
        <ele>902.55399999999997</ele>
        <time>2021-07-10T10:43:06Z</time>
      </trkpt>
      <trkpt lat="41.587661001831293" lon="-3.068201020359993">
        <ele>901.92700000000002</ele>
        <time>2021-07-10T10:43:07Z</time>
      </trkpt>
      <trkpt lat="41.587670976296067" lon="-3.068037992343307">
        <ele>901.16099999999994</ele>
        <time>2021-07-10T10:43:09Z</time>
      </trkpt>
      <trkpt lat="41.587668964639306" lon="-3.067951994016767">
        <ele>900.09000000000003</ele>
        <time>2021-07-10T10:43:10Z</time>
      </trkpt>
      <trkpt lat="41.587666030973196" lon="-3.067790977656841">
        <ele>898.44600000000003</ele>
        <time>2021-07-10T10:43:11Z</time>
      </trkpt>
      <trkpt lat="41.587666030973196" lon="-3.067714031785727">
        <ele>899.08799999999997</ele>
        <time>2021-07-10T10:43:13Z</time>
      </trkpt>
      <trkpt lat="41.587662007659674" lon="-3.067566007375717">
        <ele>900.51599999999996</ele>
        <time>2021-07-10T10:43:15Z</time>
      </trkpt>
      <trkpt lat="41.587656978517771" lon="-3.067502975463867">
        <ele>901.00800000000004</ele>
        <time>2021-07-10T10:43:16Z</time>
      </trkpt>
      <trkpt lat="41.587648009881377" lon="-3.06744103319943">
        <ele>902.01099999999997</ele>
        <time>2021-07-10T10:43:17Z</time>
      </trkpt>
      <trkpt lat="41.587626971304417" lon="-3.067331984639168">
        <ele>901.83100000000002</ele>
        <time>2021-07-10T10:43:19Z</time>
      </trkpt>
      <trkpt lat="41.58761297352612" lon="-3.067263001576066">
        <ele>901.96199999999999</ele>
        <time>2021-07-10T10:43:20Z</time>
      </trkpt>
      <trkpt lat="41.587636023759842" lon="-3.06718303821981">
        <ele>902.58799999999997</ele>
        <time>2021-07-10T10:43:22Z</time>
      </trkpt>
      <trkpt lat="41.58763200044632" lon="-3.067064015194774">
        <ele>902.61000000000001</ele>
        <time>2021-07-10T10:43:24Z</time>
      </trkpt>
      <trkpt lat="41.587624959647655" lon="-3.066923031583428">
        <ele>902.88300000000004</ele>
        <time>2021-07-10T10:43:26Z</time>
      </trkpt>
      <trkpt lat="41.587621020153165" lon="-3.066847007721663">
        <ele>902.92700000000002</ele>
        <time>2021-07-10T10:43:28Z</time>
      </trkpt>
      <trkpt lat="41.587619008496404" lon="-3.066772995516658">
        <ele>902.76599999999996</ele>
        <time>2021-07-10T10:43:30Z</time>
      </trkpt>
      <trkpt lat="41.587610961869359" lon="-3.066645003855228">
        <ele>902.71400000000006</ele>
        <time>2021-07-10T10:43:32Z</time>
      </trkpt>
      <trkpt lat="41.587606016546488" lon="-3.066581971943378">
        <ele>902.95399999999995</ele>
        <time>2021-07-10T10:43:33Z</time>
      </trkpt>
      <trkpt lat="41.587647004052997" lon="-3.06645599193871">
        <ele>902.90899999999999</ele>
        <time>2021-07-10T10:43:35Z</time>
      </trkpt>
      <trkpt lat="41.587759992107749" lon="-3.066344009712338">
        <ele>902.80799999999999</ele>
        <time>2021-07-10T10:43:37Z</time>
      </trkpt>
      <trkpt lat="41.58788999542594" lon="-3.066183999180794">
        <ele>902.39800000000002</ele>
        <time>2021-07-10T10:43:39Z</time>
      </trkpt>
      <trkpt lat="41.588033996522427" lon="-3.066006973385811">
        <ele>902.08799999999997</ele>
        <time>2021-07-10T10:43:41Z</time>
      </trkpt>
      <trkpt lat="41.588182020932436" lon="-3.06580999866128">
        <ele>901.87900000000002</ele>
        <time>2021-07-10T10:43:42Z</time>
      </trkpt>
      <trkpt lat="41.588338008150458" lon="-3.065616963431239">
        <ele>901.89499999999998</ele>
        <time>2021-07-10T10:43:43Z</time>
      </trkpt>
      <trkpt lat="41.588401962071657" lon="-3.065523002296686">
        <ele>902.25699999999995</ele>
        <time>2021-07-10T10:43:45Z</time>
      </trkpt>
      <trkpt lat="41.588497012853622" lon="-3.065328039228916">
        <ele>902.63</ele>
        <time>2021-07-10T10:43:47Z</time>
      </trkpt>
      <trkpt lat="41.588550992310047" lon="-3.065227037295699">
        <ele>903.14400000000001</ele>
        <time>2021-07-10T10:43:49Z</time>
      </trkpt>
      <trkpt lat="41.588605977594852" lon="-3.065125029534102">
        <ele>903.74300000000005</ele>
        <time>2021-07-10T10:43:51Z</time>
      </trkpt>
      <trkpt lat="41.588658029213548" lon="-3.065030984580517">
        <ele>904.08600000000001</ele>
        <time>2021-07-10T10:43:52Z</time>
      </trkpt>
      <trkpt lat="41.588761964812875" lon="-3.064856976270676">
        <ele>904.15999999999997</ele>
        <time>2021-07-10T10:43:53Z</time>
      </trkpt>
      <trkpt lat="41.588818961754441" lon="-3.064771983772516">
        <ele>904.32600000000002</ele>
        <time>2021-07-10T10:43:55Z</time>
      </trkpt>
      <trkpt lat="41.588875036686659" lon="-3.064685985445976">
        <ele>904.50800000000004</ele>
        <time>2021-07-10T10:43:56Z</time>
      </trkpt>
      <trkpt lat="41.589002022519708" lon="-3.064513988792896">
        <ele>904.63499999999999</ele>
        <time>2021-07-10T10:43:57Z</time>
      </trkpt>
      <trkpt lat="41.589159015566111" lon="-3.064335035160184">
        <ele>904.52499999999998</ele>
        <time>2021-07-10T10:43:59Z</time>
      </trkpt>
      <trkpt lat="41.589233027771115" lon="-3.064238978549838">
        <ele>904.28599999999994</ele>
        <time>2021-07-10T10:44:00Z</time>
      </trkpt>
      <trkpt lat="41.58930703997612" lon="-3.064139988273382">
        <ele>904.76199999999994</ele>
        <time>2021-07-10T10:44:02Z</time>
      </trkpt>
      <trkpt lat="41.589451963081956" lon="-3.063950976356864">
        <ele>904.92399999999998</ele>
        <time>2021-07-10T10:44:03Z</time>
      </trkpt>
      <trkpt lat="41.589526981115341" lon="-3.063848968595266">
        <ele>905.23699999999997</ele>
        <time>2021-07-10T10:44:05Z</time>
      </trkpt>
      <trkpt lat="41.589684979990125" lon="-3.063641013577581">
        <ele>905.36099999999999</ele>
        <time>2021-07-10T10:44:06Z</time>
      </trkpt>
      <trkpt lat="41.589843984693289" lon="-3.063473040238023">
        <ele>905.48000000000002</ele>
        <time>2021-07-10T10:44:08Z</time>
      </trkpt>
      <trkpt lat="41.590037019923329" lon="-3.063313029706478">
        <ele>905.66099999999994</ele>
        <time>2021-07-10T10:44:10Z</time>
      </trkpt>
      <trkpt lat="41.590244974941015" lon="-3.063132986426354">
        <ele>906.12099999999998</ele>
        <time>2021-07-10T10:44:12Z</time>
      </trkpt>
      <trkpt lat="41.590464999899268" lon="-3.062950009480119">
        <ele>906.11300000000006</ele>
        <time>2021-07-10T10:44:14Z</time>
      </trkpt>
      <trkpt lat="41.590698016807437" lon="-3.062762003391981">
        <ele>906.10799999999995</ele>
        <time>2021-07-10T10:44:15Z</time>
      </trkpt>
      <trkpt lat="41.590826008468866" lon="-3.062658989802003">
        <ele>905.83299999999997</ele>
        <time>2021-07-10T10:44:17Z</time>
      </trkpt>
      <trkpt lat="41.591073023155332" lon="-3.062466960400343">
        <ele>906.09299999999996</ele>
        <time>2021-07-10T10:44:18Z</time>
      </trkpt>
      <trkpt lat="41.591352978721261" lon="-3.062255987897515">
        <ele>906.024</ele>
        <time>2021-07-10T10:44:19Z</time>
      </trkpt>
      <trkpt lat="41.591627988964319" lon="-3.062045015394688">
        <ele>906.25999999999999</ele>
        <time>2021-07-10T10:44:21Z</time>
      </trkpt>
      <trkpt lat="41.591911967843771" lon="-3.061822978779674">
        <ele>906.31200000000001</ele>
        <time>2021-07-10T10:44:23Z</time>
      </trkpt>
      <trkpt lat="41.592062003910542" lon="-3.061701022088528">
        <ele>906.43499999999995</ele>
        <time>2021-07-10T10:44:25Z</time>
      </trkpt>
      <trkpt lat="41.592200975865126" lon="-3.061584010720253">
        <ele>906.33900000000006</ele>
        <time>2021-07-10T10:44:26Z</time>
      </trkpt>
      <trkpt lat="41.592476991936564" lon="-3.061349987983704">
        <ele>906.89800000000002</ele>
        <time>2021-07-10T10:44:28Z</time>
      </trkpt>
      <trkpt lat="41.592781003564596" lon="-3.061090987175703">
        <ele>907.08799999999997</ele>
        <time>2021-07-10T10:44:29Z</time>
      </trkpt>
      <trkpt lat="41.593070011585951" lon="-3.060839027166367">
        <ele>906.12400000000002</ele>
        <time>2021-07-10T10:44:31Z</time>
      </trkpt>
      <trkpt lat="41.593380980193615" lon="-3.060582038015127">
        <ele>907.226</ele>
        <time>2021-07-10T10:44:33Z</time>
      </trkpt>
      <trkpt lat="41.593549959361553" lon="-3.060442982241511">
        <ele>908.00800000000004</ele>
        <time>2021-07-10T10:44:34Z</time>
      </trkpt>
      <trkpt lat="41.593710975721478" lon="-3.060309961438179">
        <ele>909.125</ele>
        <time>2021-07-10T10:44:36Z</time>
      </trkpt>
      <trkpt lat="41.594027979299426" lon="-3.060058001428843">
        <ele>910.01499999999999</ele>
        <time>2021-07-10T10:44:37Z</time>
      </trkpt>
      <trkpt lat="41.594195030629635" lon="-3.059952976182103">
        <ele>910.32600000000002</ele>
        <time>2021-07-10T10:44:39Z</time>
      </trkpt>
      <trkpt lat="41.594377001747489" lon="-3.059866977855563">
        <ele>910.18200000000002</ele>
        <time>2021-07-10T10:44:40Z</time>
      </trkpt>
      <trkpt lat="41.594704985618591" lon="-3.059768993407488">
        <ele>910.61400000000003</ele>
        <time>2021-07-10T10:44:41Z</time>
      </trkpt>
      <trkpt lat="41.594883017241955" lon="-3.059720965102315">
        <ele>911.26700000000005</ele>
        <time>2021-07-10T10:44:43Z</time>
      </trkpt>
      <trkpt lat="41.595251988619566" lon="-3.059615017846227">
        <ele>911.99099999999999</ele>
        <time>2021-07-10T10:44:44Z</time>
      </trkpt>
      <trkpt lat="41.595424991101027" lon="-3.059569001197815">
        <ele>912.42999999999995</ele>
        <time>2021-07-10T10:44:45Z</time>
      </trkpt>
      <trkpt lat="41.595758004114032" lon="-3.059474034234881">
        <ele>912.97199999999998</ele>
        <time>2021-07-10T10:44:47Z</time>
      </trkpt>
      <trkpt lat="41.595942992717028" lon="-3.059417037293315">
        <ele>913.21299999999997</ele>
        <time>2021-07-10T10:44:48Z</time>
      </trkpt>
      <trkpt lat="41.596339037641883" lon="-3.05930295959115">
        <ele>913.71400000000006</ele>
        <time>2021-07-10T10:44:49Z</time>
      </trkpt>
      <trkpt lat="41.596732987090945" lon="-3.059187959879637">
        <ele>913.70799999999997</ele>
        <time>2021-07-10T10:44:51Z</time>
      </trkpt>
      <trkpt lat="41.59713095985353" lon="-3.059069020673633">
        <ele>914.29399999999998</ele>
        <time>2021-07-10T10:44:53Z</time>
      </trkpt>
      <trkpt lat="41.59753899089992" lon="-3.058933988213539">
        <ele>914.57399999999996</ele>
        <time>2021-07-10T10:44:54Z</time>
      </trkpt>
      <trkpt lat="41.597751975059509" lon="-3.05887003429234">
        <ele>914.94500000000005</ele>
        <time>2021-07-10T10:44:55Z</time>
      </trkpt>
      <trkpt lat="41.598193030804396" lon="-3.05874003097415">
        <ele>915.04100000000005</ele>
        <time>2021-07-10T10:44:56Z</time>
      </trkpt>
      <trkpt lat="41.598428981378675" lon="-3.058670964092016">
        <ele>915.15300000000002</ele>
        <time>2021-07-10T10:44:57Z</time>
      </trkpt>
      <trkpt lat="41.598683036863804" lon="-3.058596029877663">
        <ele>915.64599999999996</ele>
        <time>2021-07-10T10:44:59Z</time>
      </trkpt>
      <trkpt lat="41.599153010174632" lon="-3.058452028781176">
        <ele>915.83000000000004</ele>
        <time>2021-07-10T10:45:00Z</time>
      </trkpt>
      <trkpt lat="41.599676962941885" lon="-3.058296963572502">
        <ele>915.98900000000003</ele>
        <time>2021-07-10T10:45:02Z</time>
      </trkpt>
      <trkpt lat="41.600175015628338" lon="-3.058150028809905">
        <ele>916.93399999999997</ele>
        <time>2021-07-10T10:45:04Z</time>
      </trkpt>
      <trkpt lat="41.600440973415971" lon="-3.058070987462997">
        <ele>917.45500000000004</ele>
        <time>2021-07-10T10:45:05Z</time>
      </trkpt>
      <trkpt lat="41.600984958931804" lon="-3.057907959446311">
        <ele>917.11000000000001</ele>
        <time>2021-07-10T10:45:06Z</time>
      </trkpt>
      <trkpt lat="41.601251000538468" lon="-3.057829001918435">
        <ele>916.70799999999997</ele>
        <time>2021-07-10T10:45:08Z</time>
      </trkpt>
      <trkpt lat="41.60174896940589" lon="-3.057607971131802">
        <ele>916.50999999999999</ele>
        <time>2021-07-10T10:45:10Z</time>
      </trkpt>
      <trkpt lat="41.602309970185161" lon="-3.057470005005598">
        <ele>916.15999999999997</ele>
        <time>2021-07-10T10:45:12Z</time>
      </trkpt>
      <trkpt lat="41.602585986256599" lon="-3.057396998628974">
        <ele>915.93100000000004</ele>
        <time>2021-07-10T10:45:13Z</time>
      </trkpt>
      <trkpt lat="41.603135000914335" lon="-3.057248974218965">
        <ele>916.52700000000004</ele>
        <time>2021-07-10T10:45:15Z</time>
      </trkpt>
      <trkpt lat="41.603405987843871" lon="-3.057166999205947">
        <ele>917.029</ele>
        <time>2021-07-10T10:45:17Z</time>
      </trkpt>
      <trkpt lat="41.603938993066549" lon="-3.057006988674402">
        <ele>918.55200000000002</ele>
        <time>2021-07-10T10:45:19Z</time>
      </trkpt>
      <trkpt lat="41.604203023016453" lon="-3.056925013661385">
        <ele>919.48599999999999</ele>
        <time>2021-07-10T10:45:20Z</time>
      </trkpt>
      <trkpt lat="41.604474009945989" lon="-3.056842032819986">
        <ele>919.81500000000005</ele>
        <time>2021-07-10T10:45:21Z</time>
      </trkpt>
      <trkpt lat="41.605007015168667" lon="-3.056682022288442">
        <ele>920.14599999999996</ele>
        <time>2021-07-10T10:45:22Z</time>
      </trkpt>
      <trkpt lat="41.6052729729563" lon="-3.056599041447043">
        <ele>920.08799999999997</ele>
        <time>2021-07-10T10:45:24Z</time>
      </trkpt>
      <trkpt lat="41.605539014562964" lon="-3.056514970958233">
        <ele>919.51599999999996</ele>
        <time>2021-07-10T10:45:25Z</time>
      </trkpt>
      <trkpt lat="41.606073025614023" lon="-3.056359989568591">
        <ele>919.50800000000004</ele>
        <time>2021-07-10T10:45:26Z</time>
      </trkpt>
      <trkpt lat="41.606338983401656" lon="-3.056283965706825">
        <ele>919.07100000000003</ele>
        <time>2021-07-10T10:45:27Z</time>
      </trkpt>
      <trkpt lat="41.60660301335156" lon="-3.056225040927529">
        <ele>918.75099999999998</ele>
        <time>2021-07-10T10:45:28Z</time>
      </trkpt>
      <trkpt lat="41.607123026624322" lon="-3.056064024567604">
        <ele>918.64200000000005</ele>
        <time>2021-07-10T10:45:30Z</time>
      </trkpt>
      <trkpt lat="41.607639016583562" lon="-3.055883981287479">
        <ele>918.38800000000003</ele>
        <time>2021-07-10T10:45:32Z</time>
      </trkpt>
      <trkpt lat="41.607902040705085" lon="-3.055825978517532">
        <ele>918.24000000000001</ele>
        <time>2021-07-10T10:45:34Z</time>
      </trkpt>
      <trkpt lat="41.608166992664337" lon="-3.055789014324546">
        <ele>918.26300000000003</ele>
        <time>2021-07-10T10:45:36Z</time>
      </trkpt>
      <trkpt lat="41.608431022614241" lon="-3.05569002404809">
        <ele>918.78700000000003</ele>
        <time>2021-07-10T10:45:38Z</time>
      </trkpt>
      <trkpt lat="41.608689017593861" lon="-3.055596984922886">
        <ele>919.01599999999996</ele>
        <time>2021-07-10T10:45:40Z</time>
      </trkpt>
      <trkpt lat="41.60920400172472" lon="-3.055426999926567">
        <ele>919.71299999999997</ele>
        <time>2021-07-10T10:45:42Z</time>
      </trkpt>
      <trkpt lat="41.609469959512353" lon="-3.055342007428408">
        <ele>920.64300000000003</ele>
        <time>2021-07-10T10:45:43Z</time>
      </trkpt>
      <trkpt lat="41.609978992491961" lon="-3.055178979411721">
        <ele>921.00699999999995</ele>
        <time>2021-07-10T10:45:44Z</time>
      </trkpt>
      <trkpt lat="41.610484002158046" lon="-3.055012011900544">
        <ele>921.00800000000004</ele>
        <time>2021-07-10T10:45:46Z</time>
      </trkpt>
      <trkpt lat="41.610736967995763" lon="-3.054935988038778">
        <ele>921.428</ele>
        <time>2021-07-10T10:45:47Z</time>
      </trkpt>
      <trkpt lat="41.61098700016737" lon="-3.054858036339283">
        <ele>921.59799999999996</ele>
        <time>2021-07-10T10:45:48Z</time>
      </trkpt>
      <trkpt lat="41.611472982913256" lon="-3.054690985009074">
        <ele>921.71900000000005</ele>
        <time>2021-07-10T10:45:50Z</time>
      </trkpt>
      <trkpt lat="41.611963994801044" lon="-3.054545978084207">
        <ele>922.04499999999996</ele>
        <time>2021-07-10T10:45:51Z</time>
      </trkpt>
      <trkpt lat="41.612454000860453" lon="-3.054443970322609">
        <ele>921.84699999999998</ele>
        <time>2021-07-10T10:45:53Z</time>
      </trkpt>
      <trkpt lat="41.612676037475467" lon="-3.054365012794733">
        <ele>921.96000000000004</ele>
        <time>2021-07-10T10:45:54Z</time>
      </trkpt>
      <trkpt lat="41.613105023279786" lon="-3.054234003648162">
        <ele>921.94399999999996</ele>
        <time>2021-07-10T10:45:56Z</time>
      </trkpt>
      <trkpt lat="41.613517999649048" lon="-3.054124033078551">
        <ele>921.85299999999995</ele>
        <time>2021-07-10T10:45:57Z</time>
      </trkpt>
      <trkpt lat="41.613911027088761" lon="-3.054006015881896">
        <ele>922.25099999999998</ele>
        <time>2021-07-10T10:45:59Z</time>
      </trkpt>
      <trkpt lat="41.614104984328151" lon="-3.053944995626807">
        <ele>922.50099999999998</ele>
        <time>2021-07-10T10:46:00Z</time>
      </trkpt>
      <trkpt lat="41.614299025386572" lon="-3.05388598702848">
        <ele>923.01099999999997</ele>
        <time>2021-07-10T10:46:02Z</time>
      </trkpt>
      <trkpt lat="41.6144909709692" lon="-3.053831001743674">
        <ele>923.30799999999999</ele>
        <time>2021-07-10T10:46:03Z</time>
      </trkpt>
      <trkpt lat="41.614860026165843" lon="-3.053726982325316">
        <ele>923.71199999999999</ele>
        <time>2021-07-10T10:46:04Z</time>
      </trkpt>
      <trkpt lat="41.6150470264256" lon="-3.053682977333665">
        <ele>924.74199999999996</ele>
        <time>2021-07-10T10:46:06Z</time>
      </trkpt>
      <trkpt lat="41.615236960351467" lon="-3.053625980392098">
        <ele>925.36300000000006</ele>
        <time>2021-07-10T10:46:08Z</time>
      </trkpt>
      <trkpt lat="41.615431001409888" lon="-3.053564038127661">
        <ele>925.529</ele>
        <time>2021-07-10T10:46:09Z</time>
      </trkpt>
      <trkpt lat="41.615630993619561" lon="-3.053507041186094">
        <ele>925.59100000000001</ele>
        <time>2021-07-10T10:46:10Z</time>
      </trkpt>
      <trkpt lat="41.616055034101009" lon="-3.053424982354045">
        <ele>925.31399999999996</ele>
        <time>2021-07-10T10:46:12Z</time>
      </trkpt>
      <trkpt lat="41.616492988541722" lon="-3.05339396931231">
        <ele>925.24800000000005</ele>
        <time>2021-07-10T10:46:14Z</time>
      </trkpt>
      <trkpt lat="41.616953993216157" lon="-3.053386006504297">
        <ele>925.22699999999998</ele>
        <time>2021-07-10T10:46:15Z</time>
      </trkpt>
      <trkpt lat="41.617425978183746" lon="-3.05336999706924">
        <ele>925.21900000000005</ele>
        <time>2021-07-10T10:46:17Z</time>
      </trkpt>
      <trkpt lat="41.617916990071535" lon="-3.05334703065455">
        <ele>925.00900000000001</ele>
        <time>2021-07-10T10:46:19Z</time>
      </trkpt>
      <trkpt lat="41.618417976424098" lon="-3.053329009562731">
        <ele>925.01900000000001</ele>
        <time>2021-07-10T10:46:20Z</time>
      </trkpt>
      <trkpt lat="41.618932960554957" lon="-3.05330503731966">
        <ele>925.00800000000004</ele>
        <time>2021-07-10T10:46:22Z</time>
      </trkpt>
      <trkpt lat="41.619199002161622" lon="-3.053294979035854">
        <ele>925.08799999999997</ele>
        <time>2021-07-10T10:46:23Z</time>
      </trkpt>
      <trkpt lat="41.619480969384313" lon="-3.053280981257558">
        <ele>925.16800000000001</ele>
        <time>2021-07-10T10:46:24Z</time>
      </trkpt>
      <trkpt lat="41.619998971000314" lon="-3.053256003186107">
        <ele>925.21900000000005</ele>
        <time>2021-07-10T10:46:25Z</time>
      </trkpt>
      <trkpt lat="41.620269035920501" lon="-3.053245022892952">
        <ele>925.63499999999999</ele>
        <time>2021-07-10T10:46:27Z</time>
      </trkpt>
      <trkpt lat="41.620552008971572" lon="-3.053233958780766">
        <ele>925.947</ele>
        <time>2021-07-10T10:46:29Z</time>
      </trkpt>
      <trkpt lat="41.621060036122799" lon="-3.053214009851217">
        <ele>925.87</ele>
        <time>2021-07-10T10:46:30Z</time>
      </trkpt>
      <trkpt lat="41.621319036930799" lon="-3.053203029558063">
        <ele>926.154</ele>
        <time>2021-07-10T10:46:32Z</time>
      </trkpt>
      <trkpt lat="41.62183603271842" lon="-3.053181990981102">
        <ele>926.25300000000004</ele>
        <time>2021-07-10T10:46:33Z</time>
      </trkpt>
      <trkpt lat="41.622111964970827" lon="-3.053168999031186">
        <ele>926.13599999999997</ele>
        <time>2021-07-10T10:46:34Z</time>
      </trkpt>
      <trkpt lat="41.622607000172138" lon="-3.053148966282606">
        <ele>926.21699999999998</ele>
        <time>2021-07-10T10:46:35Z</time>
      </trkpt>
      <trkpt lat="41.622869018465281" lon="-3.053139997646213">
        <ele>926.61800000000005</ele>
        <time>2021-07-10T10:46:37Z</time>
      </trkpt>
      <trkpt lat="41.623398000374436" lon="-3.053121976554394">
        <ele>926.90800000000002</ele>
        <time>2021-07-10T10:46:38Z</time>
      </trkpt>
      <trkpt lat="41.623673010617495" lon="-3.05311200208962">
        <ele>927.08000000000004</ele>
        <time>2021-07-10T10:46:39Z</time>
      </trkpt>
      <trkpt lat="41.62417802028358" lon="-3.05309196934104">
        <ele>926.74000000000001</ele>
        <time>2021-07-10T10:46:40Z</time>
      </trkpt>
      <trkpt lat="41.624430986121297" lon="-3.053083000704646">
        <ele>926.65099999999995</ele>
        <time>2021-07-10T10:46:42Z</time>
      </trkpt>
      <trkpt lat="41.624685963615775" lon="-3.053072020411491">
        <ele>926.87699999999995</ele>
        <time>2021-07-10T10:46:44Z</time>
      </trkpt>
      <trkpt lat="41.625159038230777" lon="-3.053057016804814">
        <ele>926.81899999999996</ele>
        <time>2021-07-10T10:46:45Z</time>
      </trkpt>
      <trkpt lat="41.625630017369986" lon="-3.053037989884615">
        <ele>926.79200000000003</ele>
        <time>2021-07-10T10:46:47Z</time>
      </trkpt>
      <trkpt lat="41.625877032056451" lon="-3.05302700959146">
        <ele>926.51599999999996</ele>
        <time>2021-07-10T10:46:49Z</time>
      </trkpt>
      <trkpt lat="41.626108959317207" lon="-3.053012005984783">
        <ele>926.78499999999997</ele>
        <time>2021-07-10T10:46:50Z</time>
      </trkpt>
      <trkpt lat="41.626571975648403" lon="-3.052994990721345">
        <ele>926.59699999999998</ele>
        <time>2021-07-10T10:46:51Z</time>
      </trkpt>
      <trkpt lat="41.627066005021334" lon="-3.052976969629526">
        <ele>926.22299999999996</ele>
        <time>2021-07-10T10:46:53Z</time>
      </trkpt>
      <trkpt lat="41.627329029142857" lon="-3.052966995164752">
        <ele>926.32500000000005</ele>
        <time>2021-07-10T10:46:54Z</time>
      </trkpt>
      <trkpt lat="41.627818029373884" lon="-3.052947968244553">
        <ele>926.30799999999999</ele>
        <time>2021-07-10T10:46:55Z</time>
      </trkpt>
      <trkpt lat="41.628335025161505" lon="-3.052927013486624">
        <ele>926.75599999999997</ele>
        <time>2021-07-10T10:46:57Z</time>
      </trkpt>
      <trkpt lat="41.628610035404563" lon="-3.052917961031199">
        <ele>927.346</ele>
        <time>2021-07-10T10:46:58Z</time>
      </trkpt>
      <trkpt lat="41.629113033413887" lon="-3.052899017930031">
        <ele>927.61699999999996</ele>
        <time>2021-07-10T10:46:59Z</time>
      </trkpt>
      <trkpt lat="41.629377985373139" lon="-3.052889965474606">
        <ele>928.29300000000001</ele>
        <time>2021-07-10T10:47:00Z</time>
      </trkpt>
      <trkpt lat="41.629641009494662" lon="-3.052879991009831">
        <ele>928.79499999999996</ele>
        <time>2021-07-10T10:47:02Z</time>
      </trkpt>
      <trkpt lat="41.629905961453915" lon="-3.052871022373438">
        <ele>928.96799999999996</ele>
        <time>2021-07-10T10:47:04Z</time>
      </trkpt>
      <trkpt lat="41.630437960848212" lon="-3.052853001281619">
        <ele>929.24199999999996</ele>
        <time>2021-07-10T10:47:05Z</time>
      </trkpt>
      <trkpt lat="41.630972977727652" lon="-3.05283104069531">
        <ele>928.91099999999994</ele>
        <time>2021-07-10T10:47:06Z</time>
      </trkpt>
      <trkpt lat="41.631254022940993" lon="-3.052818970754743">
        <ele>928.83299999999997</ele>
        <time>2021-07-10T10:47:08Z</time>
      </trkpt>
      <trkpt lat="41.63176498375833" lon="-3.052797010168433">
        <ele>928.923</ele>
        <time>2021-07-10T10:47:09Z</time>
      </trkpt>
      <trkpt lat="41.632028007879853" lon="-3.052787035703659">
        <ele>929.01499999999999</ele>
        <time>2021-07-10T10:47:10Z</time>
      </trkpt>
      <trkpt lat="41.632290026172996" lon="-3.052777983248234">
        <ele>929.40800000000002</ele>
        <time>2021-07-10T10:47:12Z</time>
      </trkpt>
      <trkpt lat="41.632566964253783" lon="-3.05276901461184">
        <ele>929.50999999999999</ele>
        <time>2021-07-10T10:47:14Z</time>
      </trkpt>
      <trkpt lat="41.633044984191656" lon="-3.052750993520021">
        <ele>929.61000000000001</ele>
        <time>2021-07-10T10:47:15Z</time>
      </trkpt>
      <trkpt lat="41.633287975564599" lon="-3.052736995741725">
        <ele>929.62099999999998</ele>
        <time>2021-07-10T10:47:16Z</time>
      </trkpt>
      <trkpt lat="41.63352501578629" lon="-3.052728027105331">
        <ele>930.01700000000005</ele>
        <time>2021-07-10T10:47:18Z</time>
      </trkpt>
      <trkpt lat="41.63376297801733" lon="-3.052716962993145">
        <ele>930.19899999999996</ele>
        <time>2021-07-10T10:47:19Z</time>
      </trkpt>
      <trkpt lat="41.634225994348526" lon="-3.052697014063597">
        <ele>930.17200000000003</ele>
        <time>2021-07-10T10:47:20Z</time>
      </trkpt>
      <trkpt lat="41.634698985144496" lon="-3.052678992971778">
        <ele>930.29600000000005</ele>
        <time>2021-07-10T10:47:21Z</time>
      </trkpt>
      <trkpt lat="41.634938037022948" lon="-3.052670024335384">
        <ele>930.21500000000003</ele>
        <time>2021-07-10T10:47:23Z</time>
      </trkpt>
      <trkpt lat="41.635419996455312" lon="-3.052653009071946">
        <ele>930.02599999999995</ele>
        <time>2021-07-10T10:47:24Z</time>
      </trkpt>
      <trkpt lat="41.635902961716056" lon="-3.052655020728707">
        <ele>929.84699999999998</ele>
        <time>2021-07-10T10:47:26Z</time>
      </trkpt>
      <trkpt lat="41.636152993887663" lon="-3.052648985758424">
        <ele>929.71100000000001</ele>
        <time>2021-07-10T10:47:27Z</time>
      </trkpt>
      <trkpt lat="41.636409983038902" lon="-3.052632976323366">
        <ele>929.60799999999995</ele>
        <time>2021-07-10T10:47:29Z</time>
      </trkpt>
      <trkpt lat="41.63687702268362" lon="-3.05259701795876">
        <ele>929.83900000000006</ele>
        <time>2021-07-10T10:47:31Z</time>
      </trkpt>
      <trkpt lat="41.637123031541705" lon="-3.052582014352083">
        <ele>930.03899999999999</ele>
        <time>2021-07-10T10:47:33Z</time>
      </trkpt>
      <trkpt lat="41.637375997379422" lon="-3.052573967725039">
        <ele>930.01999999999998</ele>
        <time>2021-07-10T10:47:35Z</time>
      </trkpt>
      <trkpt lat="41.637857034802437" lon="-3.052555024623871">
        <ele>930.45600000000002</ele>
        <time>2021-07-10T10:47:36Z</time>
      </trkpt>
      <trkpt lat="41.63810103200376" lon="-3.052544966340065">
        <ele>931.09799999999996</ele>
        <time>2021-07-10T10:47:37Z</time>
      </trkpt>
      <trkpt lat="41.638345029205084" lon="-3.05253298021853">
        <ele>931.75099999999998</ele>
        <time>2021-07-10T10:47:39Z</time>
      </trkpt>
      <trkpt lat="41.638597995042801" lon="-3.052521999925375">
        <ele>932.94500000000005</ele>
        <time>2021-07-10T10:47:40Z</time>
      </trkpt>
      <trkpt lat="41.639083977788687" lon="-3.052500039339066">
        <ele>934.05399999999997</ele>
        <time>2021-07-10T10:47:42Z</time>
      </trkpt>
      <trkpt lat="41.639599967747927" lon="-3.052483024075627">
        <ele>935.03700000000003</ele>
        <time>2021-07-10T10:47:43Z</time>
      </trkpt>
      <trkpt lat="41.639858968555927" lon="-3.052470032125711">
        <ele>935.24900000000002</ele>
        <time>2021-07-10T10:47:45Z</time>
      </trkpt>
      <trkpt lat="41.640129033476114" lon="-3.052461985498667">
        <ele>935.61300000000006</ele>
        <time>2021-07-10T10:47:47Z</time>
      </trkpt>
      <trkpt lat="41.640615016222" lon="-3.052445976063609">
        <ele>935.80799999999999</ele>
        <time>2021-07-10T10:47:48Z</time>
      </trkpt>
      <trkpt lat="41.640867982059717" lon="-3.052436001598835">
        <ele>936.09000000000003</ele>
        <time>2021-07-10T10:47:50Z</time>
      </trkpt>
      <trkpt lat="41.641122959554195" lon="-3.052428038790822">
        <ele>936.78999999999996</ele>
        <time>2021-07-10T10:47:52Z</time>
      </trkpt>
      <trkpt lat="41.641636015847325" lon="-3.052409011870623">
        <ele>936.91099999999994</ele>
        <time>2021-07-10T10:47:53Z</time>
      </trkpt>
      <trkpt lat="41.642170026898384" lon="-3.052384033799171">
        <ele>936.76700000000005</ele>
        <time>2021-07-10T10:47:54Z</time>
      </trkpt>
      <trkpt lat="41.642445959150791" lon="-3.052373975515366">
        <ele>936.13900000000001</ele>
        <time>2021-07-10T10:47:56Z</time>
      </trkpt>
      <trkpt lat="41.642738990485668" lon="-3.052362995222211">
        <ele>935.24199999999996</ele>
        <time>2021-07-10T10:47:58Z</time>
      </trkpt>
      <trkpt lat="41.643293034285307" lon="-3.052342040464282">
        <ele>934.52599999999995</ele>
        <time>2021-07-10T10:48:00Z</time>
      </trkpt>
      <trkpt lat="41.643586987629533" lon="-3.052331982180476">
        <ele>933.81500000000005</ele>
        <time>2021-07-10T10:48:02Z</time>
      </trkpt>
      <trkpt lat="41.643887981772423" lon="-3.052322007715702">
        <ele>933.399</ele>
        <time>2021-07-10T10:48:03Z</time>
      </trkpt>
      <trkpt lat="41.644210014492273" lon="-3.052312033250928">
        <ele>932.50699999999995</ele>
        <time>2021-07-10T10:48:05Z</time>
      </trkpt>
      <trkpt lat="41.644793981686234" lon="-3.052297029644251">
        <ele>932.327</ele>
        <time>2021-07-10T10:48:06Z</time>
      </trkpt>
      <trkpt lat="41.645115008577704" lon="-3.052287977188826">
        <ele>931.90800000000002</ele>
        <time>2021-07-10T10:48:08Z</time>
      </trkpt>
      <trkpt lat="41.645709034055471" lon="-3.052269034087658">
        <ele>931.62599999999998</ele>
        <time>2021-07-10T10:48:09Z</time>
      </trkpt>
      <trkpt lat="41.646032994613051" lon="-3.052258975803852">
        <ele>931.69600000000003</ele>
        <time>2021-07-10T10:48:11Z</time>
      </trkpt>
      <trkpt lat="41.646599024534225" lon="-3.052235003560782">
        <ele>931.46699999999998</ele>
        <time>2021-07-10T10:48:13Z</time>
      </trkpt>
      <trkpt lat="41.647191038355231" lon="-3.05220901966095">
        <ele>931.39300000000003</ele>
        <time>2021-07-10T10:48:14Z</time>
      </trkpt>
      <trkpt lat="41.647772993892431" lon="-3.052183035761118">
        <ele>931.69500000000005</ele>
        <time>2021-07-10T10:48:16Z</time>
      </trkpt>
      <trkpt lat="41.648308010771871" lon="-3.052160991355777">
        <ele>932.72799999999995</ele>
        <time>2021-07-10T10:48:18Z</time>
      </trkpt>
      <trkpt lat="41.648588972166181" lon="-3.052150011062622">
        <ele>933.38199999999995</ele>
        <time>2021-07-10T10:48:19Z</time>
      </trkpt>
      <trkpt lat="41.648869011551142" lon="-3.052140036597848">
        <ele>933.57100000000003</ele>
        <time>2021-07-10T10:48:21Z</time>
      </trkpt>
      <trkpt lat="41.649421965703368" lon="-3.052115980535746">
        <ele>933.28399999999999</ele>
        <time>2021-07-10T10:48:22Z</time>
      </trkpt>
      <trkpt lat="41.649693958461285" lon="-3.05210399441421">
        <ele>932.80700000000002</ele>
        <time>2021-07-10T10:48:23Z</time>
      </trkpt>
      <trkpt lat="41.650212965905666" lon="-3.05208102799952">
        <ele>932.91700000000003</ele>
        <time>2021-07-10T10:48:25Z</time>
      </trkpt>
      <trkpt lat="41.650481019169092" lon="-3.052069963887334">
        <ele>933.00800000000004</ele>
        <time>2021-07-10T10:48:26Z</time>
      </trkpt>
      <trkpt lat="41.650957027450204" lon="-3.052048003301024">
        <ele>933.35500000000002</ele>
        <time>2021-07-10T10:48:28Z</time>
      </trkpt>
      <trkpt lat="41.651435969397426" lon="-3.052028976380825">
        <ele>933.625</ele>
        <time>2021-07-10T10:48:29Z</time>
      </trkpt>
      <trkpt lat="41.651689019054174" lon="-3.052008021622896">
        <ele>933.26599999999996</ele>
        <time>2021-07-10T10:48:31Z</time>
      </trkpt>
      <trkpt lat="41.652135020121932" lon="-3.05190802551806">
        <ele>933.21199999999999</ele>
        <time>2021-07-10T10:48:32Z</time>
      </trkpt>
      <trkpt lat="41.652594013139606" lon="-3.051740974187851">
        <ele>933.79399999999998</ele>
        <time>2021-07-10T10:48:33Z</time>
      </trkpt>
      <trkpt lat="41.652820995077491" lon="-3.051665034145117">
        <ele>934.28700000000003</ele>
        <time>2021-07-10T10:48:34Z</time>
      </trkpt>
      <trkpt lat="41.653050994500518" lon="-3.051608959212899">
        <ele>934.13099999999997</ele>
        <time>2021-07-10T10:48:36Z</time>
      </trkpt>
      <trkpt lat="41.653521973639727" lon="-3.051571995019913">
        <ele>934.37</ele>
        <time>2021-07-10T10:48:38Z</time>
      </trkpt>
      <trkpt lat="41.654034024104476" lon="-3.051620023325086">
        <ele>934.84299999999996</ele>
        <time>2021-07-10T10:48:40Z</time>
      </trkpt>
      <trkpt lat="41.654525035992265" lon="-3.051689006388187">
        <ele>934.96400000000006</ele>
        <time>2021-07-10T10:48:42Z</time>
      </trkpt>
      <trkpt lat="41.655038008466363" lon="-3.051749020814896">
        <ele>935.30999999999995</ele>
        <time>2021-07-10T10:48:44Z</time>
      </trkpt>
      <trkpt lat="41.655302960425615" lon="-3.051763018593192">
        <ele>935.90800000000002</ele>
        <time>2021-07-10T10:48:45Z</time>
      </trkpt>
      <trkpt lat="41.655772011727095" lon="-3.051770981401205">
        <ele>936.26099999999997</ele>
        <time>2021-07-10T10:48:47Z</time>
      </trkpt>
      <trkpt lat="41.656016008928418" lon="-3.051680037751794">
        <ele>936.45100000000002</ele>
        <time>2021-07-10T10:48:48Z</time>
      </trkpt>
      <trkpt lat="41.65651498362422" lon="-3.051507035270333">
        <ele>937.22199999999998</ele>
        <time>2021-07-10T10:48:50Z</time>
      </trkpt>
      <trkpt lat="41.65675101801753" lon="-3.051426988095045">
        <ele>937.74800000000005</ele>
        <time>2021-07-10T10:48:51Z</time>
      </trkpt>
      <trkpt lat="41.657192995771766" lon="-3.051292961463332">
        <ele>938.25999999999999</ele>
        <time>2021-07-10T10:48:52Z</time>
      </trkpt>
      <trkpt lat="41.657646037638187" lon="-3.051167987287045">
        <ele>938.54300000000001</ele>
        <time>2021-07-10T10:48:54Z</time>
      </trkpt>
      <trkpt lat="41.657861033454537" lon="-3.051107972860336">
        <ele>938.79700000000003</ele>
        <time>2021-07-10T10:48:55Z</time>
      </trkpt>
      <trkpt lat="41.658271998167038" lon="-3.050992973148823">
        <ele>938.92600000000004</ele>
        <time>2021-07-10T10:48:56Z</time>
      </trkpt>
      <trkpt lat="41.65870601311326" lon="-3.050875961780548">
        <ele>939.09699999999998</ele>
        <time>2021-07-10T10:48:58Z</time>
      </trkpt>
      <trkpt lat="41.658922014757991" lon="-3.050817037001252">
        <ele>939.423</ele>
        <time>2021-07-10T10:48:59Z</time>
      </trkpt>
      <trkpt lat="41.659337002784014" lon="-3.050701031461358">
        <ele>940.22500000000002</ele>
        <time>2021-07-10T10:49:01Z</time>
      </trkpt>
      <trkpt lat="41.659559039399028" lon="-3.050644034519792">
        <ele>940.60799999999995</ele>
        <time>2021-07-10T10:49:03Z</time>
      </trkpt>
      <trkpt lat="41.659787027165294" lon="-3.050583014264703">
        <ele>941.76599999999996</ele>
        <time>2021-07-10T10:49:05Z</time>
      </trkpt>
      <trkpt lat="41.660244008526206" lon="-3.050455022603273">
        <ele>942.21600000000001</ele>
        <time>2021-07-10T10:49:06Z</time>
      </trkpt>
      <trkpt lat="41.660476019605994" lon="-3.05038302205503">
        <ele>942.64700000000005</ele>
        <time>2021-07-10T10:49:08Z</time>
      </trkpt>
      <trkpt lat="41.660954961553216" lon="-3.050239020958543">
        <ele>942.66300000000001</ele>
        <time>2021-07-10T10:49:09Z</time>
      </trkpt>
      <trkpt lat="41.661212034523487" lon="-3.050169032067061">
        <ele>942.875</ele>
        <time>2021-07-10T10:49:10Z</time>
      </trkpt>
      <trkpt lat="41.661691982299089" lon="-3.050040034577251">
        <ele>943.16800000000001</ele>
        <time>2021-07-10T10:49:12Z</time>
      </trkpt>
      <trkpt lat="41.661946959793568" lon="-3.049973985180259">
        <ele>943.87199999999996</ele>
        <time>2021-07-10T10:49:14Z</time>
      </trkpt>
      <trkpt lat="41.66220897808671" lon="-3.049902990460396">
        <ele>944.04100000000005</ele>
        <time>2021-07-10T10:49:15Z</time>
      </trkpt>
      <trkpt lat="41.662488011643291" lon="-3.049827972427011">
        <ele>944.577</ele>
        <time>2021-07-10T10:49:16Z</time>
      </trkpt>
      <trkpt lat="41.663008024916053" lon="-3.049685982987285">
        <ele>944.86099999999999</ele>
        <time>2021-07-10T10:49:18Z</time>
      </trkpt>
      <trkpt lat="41.663567014038563" lon="-3.04952597245574">
        <ele>945.12699999999995</ele>
        <time>2021-07-10T10:49:19Z</time>
      </trkpt>
      <trkpt lat="41.664112005382776" lon="-3.049376020208001">
        <ele>944.80799999999999</ele>
        <time>2021-07-10T10:49:21Z</time>
      </trkpt>
      <trkpt lat="41.664646016433835" lon="-3.049218021333218">
        <ele>945.07399999999996</ele>
        <time>2021-07-10T10:49:22Z</time>
      </trkpt>
      <trkpt lat="41.665188996121287" lon="-3.049062034115195">
        <ele>945.274</ele>
        <time>2021-07-10T10:49:24Z</time>
      </trkpt>
      <trkpt lat="41.665475992485881" lon="-3.048982992768288">
        <ele>945.38499999999999</ele>
        <time>2021-07-10T10:49:26Z</time>
      </trkpt>
      <trkpt lat="41.665985025465488" lon="-3.048843014985323">
        <ele>945.221</ele>
        <time>2021-07-10T10:49:27Z</time>
      </trkpt>
      <trkpt lat="41.666244026273489" lon="-3.048774031922221">
        <ele>945.45299999999997</ele>
        <time>2021-07-10T10:49:28Z</time>
      </trkpt>
      <trkpt lat="41.666751969605684" lon="-3.048632964491844">
        <ele>946.04600000000005</ele>
        <time>2021-07-10T10:49:30Z</time>
      </trkpt>
      <trkpt lat="41.667004013434052" lon="-3.048564987257123">
        <ele>946.15999999999997</ele>
        <time>2021-07-10T10:49:31Z</time>
      </trkpt>
      <trkpt lat="41.667253961786628" lon="-3.048497010022402">
        <ele>946.65899999999999</ele>
        <time>2021-07-10T10:49:33Z</time>
      </trkpt>
      <trkpt lat="41.667750002816319" lon="-3.048356026411057">
        <ele>946.73900000000003</ele>
        <time>2021-07-10T10:49:35Z</time>
      </trkpt>
      <trkpt lat="41.668001962825656" lon="-3.04827899672091">
        <ele>946.50099999999998</ele>
        <time>2021-07-10T10:49:37Z</time>
      </trkpt>
      <trkpt lat="41.668274039402604" lon="-3.048196015879512">
        <ele>945.92100000000005</ele>
        <time>2021-07-10T10:49:39Z</time>
      </trkpt>
      <trkpt lat="41.668772008270025" lon="-3.048048997297883">
        <ele>946.40800000000002</ele>
        <time>2021-07-10T10:49:41Z</time>
      </trkpt>
      <trkpt lat="41.669033020734787" lon="-3.047979008406401">
        <ele>946.66999999999996</ele>
        <time>2021-07-10T10:49:43Z</time>
      </trkpt>
      <trkpt lat="41.669566025957465" lon="-3.047834001481533">
        <ele>946.67999999999995</ele>
        <time>2021-07-10T10:49:44Z</time>
      </trkpt>
      <trkpt lat="41.670053014531732" lon="-3.047701986506581">
        <ele>946.77099999999996</ele>
        <time>2021-07-10T10:49:45Z</time>
      </trkpt>
      <trkpt lat="41.670541008934379" lon="-3.04756703786552">
        <ele>946.73699999999997</ele>
        <time>2021-07-10T10:49:46Z</time>
      </trkpt>
      <trkpt lat="41.670791041105986" lon="-3.047495959326625">
        <ele>946.19899999999996</ele>
        <time>2021-07-10T10:49:48Z</time>
      </trkpt>
      <trkpt lat="41.67121198028326" lon="-3.047379031777382">
        <ele>945.77200000000005</ele>
        <time>2021-07-10T10:49:49Z</time>
      </trkpt>
      <trkpt lat="41.671419013291597" lon="-3.047317005693913">
        <ele>945.42600000000004</ele>
        <time>2021-07-10T10:49:51Z</time>
      </trkpt>
      <trkpt lat="41.67161900550127" lon="-3.047259002923966">
        <ele>945.03499999999997</ele>
        <time>2021-07-10T10:49:52Z</time>
      </trkpt>
      <trkpt lat="41.6720059979707" lon="-3.047153977677226">
        <ele>945.15499999999997</ele>
        <time>2021-07-10T10:49:53Z</time>
      </trkpt>
      <trkpt lat="41.672353008762002" lon="-3.047059010714293">
        <ele>945.30700000000002</ele>
        <time>2021-07-10T10:49:54Z</time>
      </trkpt>
      <trkpt lat="41.672522993758321" lon="-3.047009976580739">
        <ele>945.71699999999998</ele>
        <time>2021-07-10T10:49:56Z</time>
      </trkpt>
      <trkpt lat="41.672695996239781" lon="-3.046957002952695">
        <ele>946.20799999999997</ele>
        <time>2021-07-10T10:49:57Z</time>
      </trkpt>
      <trkpt lat="41.672977963462472" lon="-3.046877039596438">
        <ele>946.93200000000002</ele>
        <time>2021-07-10T10:49:58Z</time>
      </trkpt>
      <trkpt lat="41.673103021457791" lon="-3.046840997412801">
        <ele>947.18200000000002</ele>
        <time>2021-07-10T10:50:00Z</time>
      </trkpt>
      <trkpt lat="41.673299996182323" lon="-3.046790035441518">
        <ele>947.71299999999997</ele>
        <time>2021-07-10T10:50:01Z</time>
      </trkpt>
      <trkpt lat="41.673376020044088" lon="-3.046765979379416">
        <ele>948.26900000000001</ele>
        <time>2021-07-10T10:50:03Z</time>
      </trkpt>
      <trkpt lat="41.673518009483814" lon="-3.04670998826623">
        <ele>948.73099999999999</ele>
        <time>2021-07-10T10:50:04Z</time>
      </trkpt>
      <trkpt lat="41.673675002530217" lon="-3.046632036566734">
        <ele>949.33399999999995</ele>
        <time>2021-07-10T10:50:06Z</time>
      </trkpt>
      <trkpt lat="41.67376602999866" lon="-3.046589037403464">
        <ele>949.76800000000003</ele>
        <time>2021-07-10T10:50:07Z</time>
      </trkpt>
      <trkpt lat="41.673870971426368" lon="-3.046541009098291">
        <ele>950.12699999999995</ele>
        <time>2021-07-10T10:50:08Z</time>
      </trkpt>
      <trkpt lat="41.674057971686125" lon="-3.046458028256893">
        <ele>950.51400000000001</ele>
        <time>2021-07-10T10:50:09Z</time>
      </trkpt>
      <trkpt lat="41.674142964184284" lon="-3.046414023265243">
        <ele>951.154</ele>
        <time>2021-07-10T10:50:11Z</time>
      </trkpt>
      <trkpt lat="41.674284031614661" lon="-3.046330036595464">
        <ele>951.80899999999997</ele>
        <time>2021-07-10T10:50:13Z</time>
      </trkpt>
      <trkpt lat="41.674399031326175" lon="-3.046250995248556">
        <ele>952.30799999999999</ele>
        <time>2021-07-10T10:50:14Z</time>
      </trkpt>
      <trkpt lat="41.674482012167573" lon="-3.046180000528693">
        <ele>952.71799999999996</ele>
        <time>2021-07-10T10:50:16Z</time>
      </trkpt>
      <trkpt lat="41.67454001493752" lon="-3.046137001365423">
        <ele>953.02800000000002</ele>
        <time>2021-07-10T10:50:17Z</time>
      </trkpt>
      <trkpt lat="41.674630958586931" lon="-3.046067012473941">
        <ele>953.08900000000006</ele>
        <time>2021-07-10T10:50:18Z</time>
      </trkpt>
      <trkpt lat="41.674770014360547" lon="-3.045951006934047">
        <ele>953.07500000000005</ele>
        <time>2021-07-10T10:50:20Z</time>
      </trkpt>
      <trkpt lat="41.674860036000609" lon="-3.045882023870945">
        <ele>953.13699999999994</ele>
        <time>2021-07-10T10:50:22Z</time>
      </trkpt>
      <trkpt lat="41.674963971599936" lon="-3.045811029151082">
        <ele>953.21000000000004</ele>
        <time>2021-07-10T10:50:24Z</time>
      </trkpt>
      <trkpt lat="41.675080982968211" lon="-3.045735005289316">
        <ele>953.46400000000006</ele>
        <time>2021-07-10T10:50:25Z</time>
      </trkpt>
      <trkpt lat="41.675366973504424" lon="-3.045597039163113">
        <ele>953.25300000000004</ele>
        <time>2021-07-10T10:50:27Z</time>
      </trkpt>
      <trkpt lat="41.675525978207588" lon="-3.045540964230895">
        <ele>953.43299999999999</ele>
        <time>2021-07-10T10:50:29Z</time>
      </trkpt>
      <trkpt lat="41.67587298899889" lon="-3.0454439856112">
        <ele>953.62300000000005</ele>
        <time>2021-07-10T10:50:30Z</time>
      </trkpt>
      <trkpt lat="41.67606501840055" lon="-3.045402998104692">
        <ele>953.11500000000001</ele>
        <time>2021-07-10T10:50:32Z</time>
      </trkpt>
      <trkpt lat="41.676267022266984" lon="-3.045367039740086">
        <ele>952.20799999999997</ele>
        <time>2021-07-10T10:50:34Z</time>
      </trkpt>
      <trkpt lat="41.676485035568476" lon="-3.045327980071306">
        <ele>952.07000000000005</ele>
        <time>2021-07-10T10:50:36Z</time>
      </trkpt>
      <trkpt lat="41.676903963088989" lon="-3.045252040028572">
        <ele>951.95000000000005</ele>
        <time>2021-07-10T10:50:38Z</time>
      </trkpt>
      <trkpt lat="41.677133040502667" lon="-3.04520602338016">
        <ele>951.89099999999996</ele>
        <time>2021-07-10T10:50:39Z</time>
      </trkpt>
      <trkpt lat="41.677382988855243" lon="-3.045161012560129">
        <ele>951.77700000000004</ele>
        <time>2021-07-10T10:50:40Z</time>
      </trkpt>
      <trkpt lat="41.677857991307974" lon="-3.04507602006197">
        <ele>951.66899999999998</ele>
        <time>2021-07-10T10:50:41Z</time>
      </trkpt>
      <trkpt lat="41.678119003772736" lon="-3.045027991756797">
        <ele>951.72199999999998</ele>
        <time>2021-07-10T10:50:42Z</time>
      </trkpt>
      <trkpt lat="41.678660977631807" lon="-3.04492698982358">
        <ele>951.93600000000004</ele>
        <time>2021-07-10T10:50:43Z</time>
      </trkpt>
      <trkpt lat="41.678951997309923" lon="-3.044875022023916">
        <ele>952.125</ele>
        <time>2021-07-10T10:50:45Z</time>
      </trkpt>
      <trkpt lat="41.679497994482517" lon="-3.04477603174746">
        <ele>952.03700000000003</ele>
        <time>2021-07-10T10:50:46Z</time>
      </trkpt>
      <trkpt lat="41.679791025817394" lon="-3.044723980128765">
        <ele>952.149</ele>
        <time>2021-07-10T10:50:48Z</time>
      </trkpt>
      <trkpt lat="41.680085984990001" lon="-3.04467000067234">
        <ele>952.41300000000001</ele>
        <time>2021-07-10T10:50:49Z</time>
      </trkpt>
      <trkpt lat="41.680401982739568" lon="-3.044614009559155">
        <ele>952.50800000000004</ele>
        <time>2021-07-10T10:50:51Z</time>
      </trkpt>
      <trkpt lat="41.68098502792418" lon="-3.044510995969176">
        <ele>952.59000000000003</ele>
        <time>2021-07-10T10:50:53Z</time>
      </trkpt>
      <trkpt lat="41.681591961532831" lon="-3.044405970722437">
        <ele>952.78999999999996</ele>
        <time>2021-07-10T10:50:54Z</time>
      </trkpt>
      <trkpt lat="41.681904019787908" lon="-3.044356014579535">
        <ele>952.62099999999998</ele>
        <time>2021-07-10T10:50:56Z</time>
      </trkpt>
      <trkpt lat="41.682465020567179" lon="-3.04430496878922">
        <ele>952.41700000000003</ele>
        <time>2021-07-10T10:50:58Z</time>
      </trkpt>
      <trkpt lat="41.682758973911405" lon="-3.044285019859672">
        <ele>952.55899999999997</ele>
        <time>2021-07-10T10:51:00Z</time>
      </trkpt>
      <trkpt lat="41.683071032166481" lon="-3.044263981282711">
        <ele>952.75199999999995</ele>
        <time>2021-07-10T10:51:01Z</time>
      </trkpt>
      <trkpt lat="41.683654999360442" lon="-3.044227017089725">
        <ele>953.06600000000003</ele>
        <time>2021-07-10T10:51:03Z</time>
      </trkpt>
      <trkpt lat="41.684251958504319" lon="-3.044185023754835">
        <ele>953.57500000000005</ele>
        <time>2021-07-10T10:51:04Z</time>
      </trkpt>
      <trkpt lat="41.684854030609131" lon="-3.044142024591565">
        <ele>953.51900000000001</ele>
        <time>2021-07-10T10:51:05Z</time>
      </trkpt>
      <trkpt lat="41.68517698533833" lon="-3.044117968529463">
        <ele>953.50900000000001</ele>
        <time>2021-07-10T10:51:06Z</time>
      </trkpt>
      <trkpt lat="41.685758018866181" lon="-3.044078992679715">
        <ele>953.61900000000003</ele>
        <time>2021-07-10T10:51:08Z</time>
      </trkpt>
      <trkpt lat="41.686376016587019" lon="-3.044030964374542">
        <ele>953.30799999999999</ele>
        <time>2021-07-10T10:51:09Z</time>
      </trkpt>
      <trkpt lat="41.686705006286502" lon="-3.044005986303091">
        <ele>953.21799999999996</ele>
        <time>2021-07-10T10:51:11Z</time>
      </trkpt>
      <trkpt lat="41.687291990965605" lon="-3.043962987139821">
        <ele>952.82799999999997</ele>
        <time>2021-07-10T10:51:13Z</time>
      </trkpt>
      <trkpt lat="41.687913006171584" lon="-3.043914958834648">
        <ele>952.94899999999996</ele>
        <time>2021-07-10T10:51:15Z</time>
      </trkpt>
      <trkpt lat="41.688549024984241" lon="-3.043866008520126">
        <ele>952.92499999999995</ele>
        <time>2021-07-10T10:51:16Z</time>
      </trkpt>
      <trkpt lat="41.68915101327002" lon="-3.043825021013618">
        <ele>952.72699999999998</ele>
        <time>2021-07-10T10:51:18Z</time>
      </trkpt>
      <trkpt lat="41.689466005191207" lon="-3.043804988265038">
        <ele>952.35000000000002</ele>
        <time>2021-07-10T10:51:20Z</time>
      </trkpt>
      <trkpt lat="41.689777979627252" lon="-3.043783027678728">
        <ele>951.82399999999996</ele>
        <time>2021-07-10T10:51:21Z</time>
      </trkpt>
      <trkpt lat="41.690087020397186" lon="-3.043759977445006">
        <ele>951.31299999999999</ele>
        <time>2021-07-10T10:51:22Z</time>
      </trkpt>
      <trkpt lat="41.690395977348089" lon="-3.043736005201936">
        <ele>951.24900000000002</ele>
        <time>2021-07-10T10:51:24Z</time>
      </trkpt>
      <trkpt lat="41.690703006461263" lon="-3.043713960796595">
        <ele>951.202</ele>
        <time>2021-07-10T10:51:25Z</time>
      </trkpt>
      <trkpt lat="41.691312035545707" lon="-3.043670039623976">
        <ele>951.42200000000003</ele>
        <time>2021-07-10T10:51:26Z</time>
      </trkpt>
      <trkpt lat="41.691626021638513" lon="-3.043650006875396">
        <ele>951.70799999999997</ele>
        <time>2021-07-10T10:51:27Z</time>
      </trkpt>
      <trkpt lat="41.692198002710938" lon="-3.043612036854029">
        <ele>951.94100000000003</ele>
        <time>2021-07-10T10:51:29Z</time>
      </trkpt>
      <trkpt lat="41.692492961883545" lon="-3.043593009933829">
        <ele>952.16099999999994</ele>
        <time>2021-07-10T10:51:30Z</time>
      </trkpt>
      <trkpt lat="41.693081958219409" lon="-3.043554034084082">
        <ele>952.23199999999997</ele>
        <time>2021-07-10T10:51:32Z</time>
      </trkpt>
      <trkpt lat="41.693628961220384" lon="-3.043509023264051">
        <ele>952.41800000000001</ele>
        <time>2021-07-10T10:51:34Z</time>
      </trkpt>
      <trkpt lat="41.693906988948584" lon="-3.043489996343851">
        <ele>953.07000000000005</ele>
        <time>2021-07-10T10:51:36Z</time>
      </trkpt>
      <trkpt lat="41.694464972242713" lon="-3.043452026322484">
        <ele>953.673</ele>
        <time>2021-07-10T10:51:37Z</time>
      </trkpt>
      <trkpt lat="41.694997977465391" lon="-3.043410032987595">
        <ele>953.73699999999997</ele>
        <time>2021-07-10T10:51:39Z</time>
      </trkpt>
      <trkpt lat="41.695526037365198" lon="-3.043376002460718">
        <ele>953.92600000000004</ele>
        <time>2021-07-10T10:51:41Z</time>
      </trkpt>
      <trkpt lat="41.695799035951495" lon="-3.043359993025661">
        <ele>954.32399999999996</ele>
        <time>2021-07-10T10:51:42Z</time>
      </trkpt>
      <trkpt lat="41.696302033960819" lon="-3.043367033824325">
        <ele>955.00400000000002</ele>
        <time>2021-07-10T10:51:43Z</time>
      </trkpt>
      <trkpt lat="41.696562962606549" lon="-3.043386982753873">
        <ele>955.71400000000006</ele>
        <time>2021-07-10T10:51:45Z</time>
      </trkpt>
      <trkpt lat="41.69682196341455" lon="-3.043416989967227">
        <ele>956.10799999999995</ele>
        <time>2021-07-10T10:51:47Z</time>
      </trkpt>
      <trkpt lat="41.697091022506356" lon="-3.0434650182724">
        <ele>957.38900000000001</ele>
        <time>2021-07-10T10:51:49Z</time>
      </trkpt>
      <trkpt lat="41.697585973888636" lon="-3.043595021590591">
        <ele>957.97900000000004</ele>
        <time>2021-07-10T10:51:50Z</time>
      </trkpt>
      <trkpt lat="41.6978520154953" lon="-3.043660987168551">
        <ele>959.50999999999999</ele>
        <time>2021-07-10T10:51:52Z</time>
      </trkpt>
      <trkpt lat="41.698385020717978" lon="-3.043789984658361">
        <ele>960.99599999999998</ele>
        <time>2021-07-10T10:51:54Z</time>
      </trkpt>
      <trkpt lat="41.698891036212444" lon="-3.043911019340158">
        <ele>961.91800000000001</ele>
        <time>2021-07-10T10:51:55Z</time>
      </trkpt>
      <trkpt lat="41.699433010071516" lon="-3.044040016829968">
        <ele>962.58100000000002</ele>
        <time>2021-07-10T10:51:56Z</time>
      </trkpt>
      <trkpt lat="41.699709026142955" lon="-3.044108999893069">
        <ele>963.41499999999996</ele>
        <time>2021-07-10T10:51:57Z</time>
      </trkpt>
      <trkpt lat="41.700240019708872" lon="-3.044242020696402">
        <ele>964.67399999999998</ele>
        <time>2021-07-10T10:51:58Z</time>
      </trkpt>
      <trkpt lat="41.700786016881466" lon="-3.044375963509083">
        <ele>966.15200000000004</ele>
        <time>2021-07-10T10:52:00Z</time>
      </trkpt>
      <trkpt lat="41.701058009639382" lon="-3.044443018734455">
        <ele>967.553</ele>
        <time>2021-07-10T10:52:01Z</time>
      </trkpt>
      <trkpt lat="41.701338971033692" lon="-3.044512001797557">
        <ele>968.40800000000002</ele>
        <time>2021-07-10T10:52:02Z</time>
      </trkpt>
      <trkpt lat="41.701857978478074" lon="-3.044637981802225">
        <ele>969.00800000000004</ele>
        <time>2021-07-10T10:52:03Z</time>
      </trkpt>
      <trkpt lat="41.702127959579229" lon="-3.044705037027597">
        <ele>969.73199999999997</ele>
        <time>2021-07-10T10:52:05Z</time>
      </trkpt>
      <trkpt lat="41.702399030327797" lon="-3.044769996777177">
        <ele>970.572</ele>
        <time>2021-07-10T10:52:07Z</time>
      </trkpt>
      <trkpt lat="41.702675968408585" lon="-3.044835962355137">
        <ele>971.08299999999997</ele>
        <time>2021-07-10T10:52:08Z</time>
      </trkpt>
      <trkpt lat="41.703204028308392" lon="-3.044964959844947">
        <ele>971.32899999999995</ele>
        <time>2021-07-10T10:52:10Z</time>
      </trkpt>
      <trkpt lat="41.703477026894689" lon="-3.045032015070319">
        <ele>971.31100000000004</ele>
        <time>2021-07-10T10:52:12Z</time>
      </trkpt>
      <trkpt lat="41.70401799492538" lon="-3.045160006731749">
        <ele>971.654</ele>
        <time>2021-07-10T10:52:13Z</time>
      </trkpt>
      <trkpt lat="41.704526022076607" lon="-3.045282969251275">
        <ele>972.09799999999996</ele>
        <time>2021-07-10T10:52:15Z</time>
      </trkpt>
      <trkpt lat="41.705045029520988" lon="-3.045408027246594">
        <ele>972.23699999999997</ele>
        <time>2021-07-10T10:52:17Z</time>
      </trkpt>
      <trkpt lat="41.705317022278905" lon="-3.045472986996174">
        <ele>971.99599999999998</ele>
        <time>2021-07-10T10:52:18Z</time>
      </trkpt>
      <trkpt lat="41.70582102611661" lon="-3.045595027506352">
        <ele>971.43100000000004</ele>
        <time>2021-07-10T10:52:20Z</time>
      </trkpt>
      <trkpt lat="41.706324024125934" lon="-3.045714972540736">
        <ele>971.22400000000005</ele>
        <time>2021-07-10T10:52:22Z</time>
      </trkpt>
      <trkpt lat="41.706572966650128" lon="-3.045773981139064">
        <ele>970.70799999999997</ele>
        <time>2021-07-10T10:52:23Z</time>
      </trkpt>
      <trkpt lat="41.706824004650116" lon="-3.045835001394153">
        <ele>970.11599999999999</ele>
        <time>2021-07-10T10:52:24Z</time>
      </trkpt>
      <trkpt lat="41.707328008487821" lon="-3.045960981398821">
        <ele>968.976</ele>
        <time>2021-07-10T10:52:26Z</time>
      </trkpt>
      <trkpt lat="41.707847015932202" lon="-3.046089978888631">
        <ele>968.197</ele>
        <time>2021-07-10T10:52:27Z</time>
      </trkpt>
      <trkpt lat="41.708346996456385" lon="-3.046213025227189">
        <ele>967.45299999999997</ele>
        <time>2021-07-10T10:52:28Z</time>
      </trkpt>
      <trkpt lat="41.70861697755754" lon="-3.04628100246191">
        <ele>966.59500000000003</ele>
        <time>2021-07-10T10:52:29Z</time>
      </trkpt>
      <trkpt lat="41.709164986386895" lon="-3.046414023265243">
        <ele>965.32799999999997</ele>
        <time>2021-07-10T10:52:31Z</time>
      </trkpt>
      <trkpt lat="41.709674019366503" lon="-3.046543020755053">
        <ele>964.54200000000003</ele>
        <time>2021-07-10T10:52:33Z</time>
      </trkpt>
      <trkpt lat="41.709931008517742" lon="-3.046605968847871">
        <ele>964.39099999999996</ele>
        <time>2021-07-10T10:52:35Z</time>
      </trkpt>
      <trkpt lat="41.71018598601222" lon="-3.046671012416482">
        <ele>963.61800000000005</ele>
        <time>2021-07-10T10:52:37Z</time>
      </trkpt>
      <trkpt lat="41.710444986820221" lon="-3.046736977994442">
        <ele>963.39800000000002</ele>
        <time>2021-07-10T10:52:39Z</time>
      </trkpt>
      <trkpt lat="41.710694013163447" lon="-3.046800009906292">
        <ele>962.71699999999998</ele>
        <time>2021-07-10T10:52:41Z</time>
      </trkpt>
      <trkpt lat="41.711167003959417" lon="-3.046918027102947">
        <ele>962.70799999999997</ele>
        <time>2021-07-10T10:52:43Z</time>
      </trkpt>
      <trkpt lat="41.711402032524347" lon="-3.046979969367385">
        <ele>962.65800000000002</ele>
        <time>2021-07-10T10:52:44Z</time>
      </trkpt>
      <trkpt lat="41.711639994755387" lon="-3.047043001279235">
        <ele>963.13800000000003</ele>
        <time>2021-07-10T10:52:46Z</time>
      </trkpt>
      <trkpt lat="41.711865970864892" lon="-3.047107961028814">
        <ele>963.51900000000001</ele>
        <time>2021-07-10T10:52:47Z</time>
      </trkpt>
      <trkpt lat="41.712286993861198" lon="-3.047274006530643">
        <ele>964.44500000000005</ele>
        <time>2021-07-10T10:52:48Z</time>
      </trkpt>
      <trkpt lat="41.712700976058841" lon="-3.047552034258843">
        <ele>964.35699999999997</ele>
        <time>2021-07-10T10:52:49Z</time>
      </trkpt>
      <trkpt lat="41.712903985753655" lon="-3.047748003154993">
        <ele>964.40999999999997</ele>
        <time>2021-07-10T10:52:51Z</time>
      </trkpt>
      <trkpt lat="41.713225012645125" lon="-3.04819199256599">
        <ele>963.53399999999999</ele>
        <time>2021-07-10T10:52:53Z</time>
      </trkpt>
      <trkpt lat="41.713489964604378" lon="-3.048724997788668">
        <ele>963.053</ele>
        <time>2021-07-10T10:52:54Z</time>
      </trkpt>
      <trkpt lat="41.713594989851117" lon="-3.049020962789655">
        <ele>962.27599999999995</ele>
        <time>2021-07-10T10:52:56Z</time>
      </trkpt>
      <trkpt lat="41.713750977069139" lon="-3.049554973840714">
        <ele>961.78999999999996</ele>
        <time>2021-07-10T10:52:58Z</time>
      </trkpt>
      <trkpt lat="41.713920040056109" lon="-3.050084039568901">
        <ele>961.31899999999996</ele>
        <time>2021-07-10T10:52:59Z</time>
      </trkpt>
      <trkpt lat="41.714008972048759" lon="-3.050337005406618">
        <ele>961.10799999999995</ele>
        <time>2021-07-10T10:53:01Z</time>
      </trkpt>
      <trkpt lat="41.714175017550588" lon="-3.050739001482725">
        <ele>961.04399999999998</ele>
        <time>2021-07-10T10:53:02Z</time>
      </trkpt>
      <trkpt lat="41.714392025023699" lon="-3.051019040867686">
        <ele>960.72400000000005</ele>
        <time>2021-07-10T10:53:04Z</time>
      </trkpt>
      <trkpt lat="41.714521022513509" lon="-3.051082994788885">
        <ele>960.59500000000003</ele>
        <time>2021-07-10T10:53:06Z</time>
      </trkpt>
      <trkpt lat="41.714653037488461" lon="-3.05109397508204">
        <ele>960.46100000000001</ele>
        <time>2021-07-10T10:53:08Z</time>
      </trkpt>
      <trkpt lat="41.714904997497797" lon="-3.050961960107088">
        <ele>960.66300000000001</ele>
        <time>2021-07-10T10:53:09Z</time>
      </trkpt>
      <trkpt lat="41.715012034401298" lon="-3.050823993980885">
        <ele>960.93600000000004</ele>
        <time>2021-07-10T10:53:11Z</time>
      </trkpt>
      <trkpt lat="41.715099038556218" lon="-3.050655014812946">
        <ele>961.73000000000002</ele>
        <time>2021-07-10T10:53:13Z</time>
      </trkpt>
      <trkpt lat="41.715171039104462" lon="-3.050486035645008">
        <ele>963.31899999999996</ele>
        <time>2021-07-10T10:53:15Z</time>
      </trkpt>
      <trkpt lat="41.715357033535838" lon="-3.050181018188596">
        <ele>963.93100000000004</ele>
        <time>2021-07-10T10:53:16Z</time>
      </trkpt>
      <trkpt lat="41.71562097966671" lon="-3.049972979351878">
        <ele>964.96100000000001</ele>
        <time>2021-07-10T10:53:17Z</time>
      </trkpt>
      <trkpt lat="41.715902024880052" lon="-3.049829984083772">
        <ele>965.50699999999995</ele>
        <time>2021-07-10T10:53:18Z</time>
      </trkpt>
      <trkpt lat="41.716209976002574" lon="-3.049694029614329">
        <ele>965.40800000000002</ele>
        <time>2021-07-10T10:53:19Z</time>
      </trkpt>
      <trkpt lat="41.716506024822593" lon="-3.049560002982616">
        <ele>965.40999999999997</ele>
        <time>2021-07-10T10:53:21Z</time>
      </trkpt>
      <trkpt lat="41.716732000932097" lon="-3.049452966079116">
        <ele>965.94000000000005</ele>
        <time>2021-07-10T10:53:22Z</time>
      </trkpt>
      <trkpt lat="41.716917995363474" lon="-3.049379037693143">
        <ele>966.81100000000004</ele>
        <time>2021-07-10T10:53:24Z</time>
      </trkpt>
      <trkpt lat="41.716983960941434" lon="-3.049363028258085">
        <ele>967.31700000000001</ele>
        <time>2021-07-10T10:53:25Z</time>
      </trkpt>
      <trkpt lat="41.717064008116722" lon="-3.049382977187634">
        <ele>967.09900000000005</ele>
        <time>2021-07-10T10:53:27Z</time>
      </trkpt>
      <trkpt lat="41.717108013108373" lon="-3.049414996057749">
        <ele>965.88199999999995</ele>
        <time>2021-07-10T10:53:29Z</time>
      </trkpt>
      <trkpt lat="41.717152018100023" lon="-3.049465036019683">
        <ele>965.58600000000001</ele>
        <time>2021-07-10T10:53:30Z</time>
      </trkpt>
      <trkpt lat="41.717196023091674" lon="-3.049532007426024">
        <ele>964.63499999999999</ele>
        <time>2021-07-10T10:53:31Z</time>
      </trkpt>
      <trkpt lat="41.717285960912704" lon="-3.049683971330524">
        <ele>964.226</ele>
        <time>2021-07-10T10:53:33Z</time>
      </trkpt>
      <trkpt lat="41.717397021129727" lon="-3.049870971590281">
        <ele>963.947</ele>
        <time>2021-07-10T10:53:34Z</time>
      </trkpt>
      <trkpt lat="41.717456029728055" lon="-3.049963004887104">
        <ele>963.71100000000001</ele>
        <time>2021-07-10T10:53:35Z</time>
      </trkpt>
      <trkpt lat="41.717557031661272" lon="-3.050054032355547">
        <ele>963.60799999999995</ele>
        <time>2021-07-10T10:53:37Z</time>
      </trkpt>
      <trkpt lat="41.717651998624206" lon="-3.050066018477082">
        <ele>963.47900000000004</ele>
        <time>2021-07-10T10:53:38Z</time>
      </trkpt>
      <trkpt lat="41.717702960595489" lon="-3.050047997385263">
        <ele>963.87900000000002</ele>
        <time>2021-07-10T10:53:40Z</time>
      </trkpt>
      <trkpt lat="41.717808991670609" lon="-3.049974991008639">
        <ele>965.26999999999998</ele>
        <time>2021-07-10T10:53:42Z</time>
      </trkpt>
      <trkpt lat="41.717880992218852" lon="-3.049929980188608">
        <ele>966.08600000000001</ele>
        <time>2021-07-10T10:53:44Z</time>
      </trkpt>
      <trkpt lat="41.718041002750397" lon="-3.049862002953887">
        <ele>966.55799999999999</ele>
        <time>2021-07-10T10:53:45Z</time>
      </trkpt>
      <trkpt lat="41.71822096221149" lon="-3.049852028489113">
        <ele>966.93100000000004</ele>
        <time>2021-07-10T10:53:46Z</time>
      </trkpt>
      <trkpt lat="41.718420032411814" lon="-3.049921011552215">
        <ele>967.495</ele>
        <time>2021-07-10T10:53:48Z</time>
      </trkpt>
      <trkpt lat="41.718526985496283" lon="-3.049969961866736">
        <ele>967.49400000000003</ele>
        <time>2021-07-10T10:53:50Z</time>
      </trkpt>
      <trkpt lat="41.718764025717974" lon="-3.050071969628334">
        <ele>967.399</ele>
        <time>2021-07-10T10:53:51Z</time>
      </trkpt>
      <trkpt lat="41.719093015417457" lon="-3.050176994875073">
        <ele>967.30700000000002</ele>
        <time>2021-07-10T10:53:53Z</time>
      </trkpt>
      <trkpt lat="41.719439020380378" lon="-3.050229968503118">
        <ele>966.62699999999995</ele>
        <time>2021-07-10T10:53:54Z</time>
      </trkpt>
      <trkpt lat="41.719610011205077" lon="-3.050240026786923">
        <ele>966.10799999999995</ele>
        <time>2021-07-10T10:53:56Z</time>
      </trkpt>
      <trkpt lat="41.719779996201396" lon="-3.050246983766556">
        <ele>966.14599999999996</ele>
        <time>2021-07-10T10:53:58Z</time>
      </trkpt>
      <trkpt lat="41.719948975369334" lon="-3.050251007080078">
        <ele>966.26599999999996</ele>
        <time>2021-07-10T10:53:59Z</time>
      </trkpt>
      <trkpt lat="41.720123989507556" lon="-3.050248995423317">
        <ele>965.83699999999999</ele>
        <time>2021-07-10T10:54:00Z</time>
      </trkpt>
      <trkpt lat="41.72043495811522" lon="-3.050251007080078">
        <ele>965.59299999999996</ele>
        <time>2021-07-10T10:54:01Z</time>
      </trkpt>
      <trkpt lat="41.720590023323894" lon="-3.050289982929826">
        <ele>965.11500000000001</ele>
        <time>2021-07-10T10:54:02Z</time>
      </trkpt>
      <trkpt lat="41.720847012475133" lon="-3.050495004281402">
        <ele>965.55799999999999</ele>
        <time>2021-07-10T10:54:04Z</time>
      </trkpt>
      <trkpt lat="41.720975004136562" lon="-3.050596006214619">
        <ele>965.78200000000004</ele>
        <time>2021-07-10T10:54:06Z</time>
      </trkpt>
      <trkpt lat="41.721202991902828" lon="-3.05066398344934">
        <ele>965.83100000000002</ele>
        <time>2021-07-10T10:54:07Z</time>
      </trkpt>
      <trkpt lat="41.721414970234036" lon="-3.05051302537322">
        <ele>965.53800000000001</ele>
        <time>2021-07-10T10:54:09Z</time>
      </trkpt>
      <trkpt lat="41.721496023237705" lon="-3.050363995134831">
        <ele>965.07000000000005</ele>
        <time>2021-07-10T10:54:10Z</time>
      </trkpt>
      <trkpt lat="41.721571041271091" lon="-3.050191998481751">
        <ele>965.01700000000005</ele>
        <time>2021-07-10T10:54:12Z</time>
      </trkpt>
      <trkpt lat="41.721686962991953" lon="-3.049794025719166">
        <ele>965.00800000000004</ele>
        <time>2021-07-10T10:54:14Z</time>
      </trkpt>
      <trkpt lat="41.721729040145874" lon="-3.0495660379529">
        <ele>965.53999999999996</ele>
        <time>2021-07-10T10:54:15Z</time>
      </trkpt>
      <trkpt lat="41.721769021824002" lon="-3.049318017438054">
        <ele>965.53999999999996</ele>
        <time>2021-07-10T10:54:17Z</time>
      </trkpt>
      <trkpt lat="41.721842028200626" lon="-3.048867993056774">
        <ele>965.05100000000004</ele>
        <time>2021-07-10T10:54:18Z</time>
      </trkpt>
      <trkpt lat="41.721883015707135" lon="-3.048646040260792">
        <ele>965.05700000000002</ele>
        <time>2021-07-10T10:54:20Z</time>
      </trkpt>
      <trkpt lat="41.721960967406631" lon="-3.048218982294202">
        <ele>964.76900000000001</ele>
        <time>2021-07-10T10:54:22Z</time>
      </trkpt>
      <trkpt lat="41.722019976004958" lon="-3.047794019803405">
        <ele>965.04200000000003</ele>
        <time>2021-07-10T10:54:23Z</time>
      </trkpt>
      <trkpt lat="41.722011007368565" lon="-3.047427982091904">
        <ele>965.726</ele>
        <time>2021-07-10T10:54:25Z</time>
      </trkpt>
      <trkpt lat="41.721993992105126" lon="-3.047252967953682">
        <ele>966.04499999999996</ele>
        <time>2021-07-10T10:54:26Z</time>
      </trkpt>
      <trkpt lat="41.721990974619985" lon="-3.047082982957363">
        <ele>965.91499999999996</ele>
        <time>2021-07-10T10:54:27Z</time>
      </trkpt>
      <trkpt lat="41.722103040665388" lon="-3.046833034604788">
        <ele>966.26499999999999</ele>
        <time>2021-07-10T10:54:29Z</time>
      </trkpt>
      <trkpt lat="41.722317030653358" lon="-3.046692973002791">
        <ele>966.41099999999994</ele>
        <time>2021-07-10T10:54:31Z</time>
      </trkpt>
      <trkpt lat="41.722461031749845" lon="-3.046661037951708">
        <ele>966.60799999999995</ele>
        <time>2021-07-10T10:54:32Z</time>
      </trkpt>
      <trkpt lat="41.72275397926569" lon="-3.046686016023159">
        <ele>966.87800000000004</ele>
        <time>2021-07-10T10:54:34Z</time>
      </trkpt>
      <trkpt lat="41.722921030595899" lon="-3.046734966337681">
        <ele>966.83799999999997</ele>
        <time>2021-07-10T10:54:36Z</time>
      </trkpt>
      <trkpt lat="41.723264018073678" lon="-3.046845020726323">
        <ele>966.46900000000005</ele>
        <time>2021-07-10T10:54:37Z</time>
      </trkpt>
      <trkpt lat="41.723621003329754" lon="-3.04690201766789">
        <ele>967.14499999999998</ele>
        <time>2021-07-10T10:54:39Z</time>
      </trkpt>
      <trkpt lat="41.72380599193275" lon="-3.046921966597438">
        <ele>968.14700000000005</ele>
        <time>2021-07-10T10:54:40Z</time>
      </trkpt>
      <trkpt lat="41.723987041041255" lon="-3.046944011002779">
        <ele>968.54999999999995</ele>
        <time>2021-07-10T10:54:41Z</time>
      </trkpt>
      <trkpt lat="41.724163983017206" lon="-3.046982986852527">
        <ele>968.88400000000001</ele>
        <time>2021-07-10T10:54:42Z</time>
      </trkpt>
      <trkpt lat="41.724323993548751" lon="-3.047058004885912">
        <ele>968.64300000000003</ele>
        <time>2021-07-10T10:54:44Z</time>
      </trkpt>
      <trkpt lat="41.724576037377119" lon="-3.047329997643828">
        <ele>969.173</ele>
        <time>2021-07-10T10:54:46Z</time>
      </trkpt>
      <trkpt lat="41.724719032645226" lon="-3.04769997484982">
        <ele>969.08500000000004</ele>
        <time>2021-07-10T10:54:47Z</time>
      </trkpt>
      <trkpt lat="41.724776029586792" lon="-3.047897033393383">
        <ele>969.31299999999999</ele>
        <time>2021-07-10T10:54:48Z</time>
      </trkpt>
      <trkpt lat="41.724877031520009" lon="-3.04823599755764">
        <ele>969.80799999999999</ele>
        <time>2021-07-10T10:54:50Z</time>
      </trkpt>
      <trkpt lat="41.724954983219504" lon="-3.048392990604043">
        <ele>969.87400000000002</ele>
        <time>2021-07-10T10:54:52Z</time>
      </trkpt>
      <trkpt lat="41.72518003731966" lon="-3.048611003905535">
        <ele>969.43399999999997</ele>
        <time>2021-07-10T10:54:53Z</time>
      </trkpt>
      <trkpt lat="41.72546099871397" lon="-3.048717034980655">
        <ele>969.255</ele>
        <time>2021-07-10T10:54:55Z</time>
      </trkpt>
      <trkpt lat="41.725621009245515" lon="-3.048760034143925">
        <ele>968.99099999999999</ele>
        <time>2021-07-10T10:54:57Z</time>
      </trkpt>
      <trkpt lat="41.725952010601759" lon="-3.048832034692168">
        <ele>968.81299999999999</ele>
        <time>2021-07-10T10:54:58Z</time>
      </trkpt>
      <trkpt lat="41.726115038618445" lon="-3.048839997500181">
        <ele>969.096</ele>
        <time>2021-07-10T10:55:00Z</time>
      </trkpt>
      <trkpt lat="41.726440005004406" lon="-3.048828011378646">
        <ele>969.36000000000001</ele>
        <time>2021-07-10T10:55:01Z</time>
      </trkpt>
      <trkpt lat="41.726795984432101" lon="-3.048807978630066">
        <ele>969.32899999999995</ele>
        <time>2021-07-10T10:55:03Z</time>
      </trkpt>
      <trkpt lat="41.72696596942842" lon="-3.048780988901854">
        <ele>970.298</ele>
        <time>2021-07-10T10:55:05Z</time>
      </trkpt>
      <trkpt lat="41.727300994098186" lon="-3.048736983910203">
        <ele>970.61500000000001</ele>
        <time>2021-07-10T10:55:06Z</time>
      </trkpt>
      <trkpt lat="41.727478019893169" lon="-3.048712005838752">
        <ele>971.52599999999995</ele>
        <time>2021-07-10T10:55:07Z</time>
      </trkpt>
      <trkpt lat="41.727666025981307" lon="-3.048677975311875">
        <ele>972.00800000000004</ele>
        <time>2021-07-10T10:55:08Z</time>
      </trkpt>
      <trkpt lat="41.728015970438719" lon="-3.048604968935251">
        <ele>972.17600000000004</ele>
        <time>2021-07-10T10:55:10Z</time>
      </trkpt>
      <trkpt lat="41.728397011756897" lon="-3.048498015850782">
        <ele>971.92600000000004</ele>
        <time>2021-07-10T10:55:12Z</time>
      </trkpt>
      <trkpt lat="41.728600021451712" lon="-3.048416040837765">
        <ele>971.91700000000003</ele>
        <time>2021-07-10T10:55:13Z</time>
      </trkpt>
      <trkpt lat="41.728978967294097" lon="-3.04825896397233">
        <ele>971.49300000000005</ele>
        <time>2021-07-10T10:55:15Z</time>
      </trkpt>
      <trkpt lat="41.729345005005598" lon="-3.04810599423945">
        <ele>970.92499999999995</ele>
        <time>2021-07-10T10:55:16Z</time>
      </trkpt>
      <trkpt lat="41.729539968073368" lon="-3.048027036711574">
        <ele>970.73800000000006</ele>
        <time>2021-07-10T10:55:17Z</time>
      </trkpt>
      <trkpt lat="41.729881027713418" lon="-3.0478719715029">
        <ele>970.02200000000005</ele>
        <time>2021-07-10T10:55:18Z</time>
      </trkpt>
      <trkpt lat="41.730049001052976" lon="-3.047769041731954">
        <ele>969.971</ele>
        <time>2021-07-10T10:55:19Z</time>
      </trkpt>
      <trkpt lat="41.730206999927759" lon="-3.047659993171692">
        <ele>969.46900000000005</ele>
        <time>2021-07-10T10:55:21Z</time>
      </trkpt>
      <trkpt lat="41.73035703599453" lon="-3.04754801094532">
        <ele>969.80399999999997</ele>
        <time>2021-07-10T10:55:23Z</time>
      </trkpt>
      <trkpt lat="41.73061897046864" lon="-3.04731197655201">
        <ele>970.32399999999996</ele>
        <time>2021-07-10T10:55:24Z</time>
      </trkpt>
      <trkpt lat="41.730834972113371" lon="-3.047013999894261">
        <ele>971.30799999999999</ele>
        <time>2021-07-10T10:55:26Z</time>
      </trkpt>
      <trkpt lat="41.730932034552097" lon="-3.046852983534336">
        <ele>971.53300000000002</ele>
        <time>2021-07-10T10:55:27Z</time>
      </trkpt>
      <trkpt lat="41.731035970151424" lon="-3.046679981052876">
        <ele>971.64300000000003</ele>
        <time>2021-07-10T10:55:28Z</time>
      </trkpt>
      <trkpt lat="41.731232022866607" lon="-3.046384016051889">
        <ele>971.22400000000005</ele>
        <time>2021-07-10T10:55:29Z</time>
      </trkpt>
      <trkpt lat="41.731434026733041" lon="-3.046092996373773">
        <ele>972.00999999999999</ele>
        <time>2021-07-10T10:55:31Z</time>
      </trkpt>
      <trkpt lat="41.731539973989129" lon="-3.045952012762427">
        <ele>972.63199999999995</ele>
        <time>2021-07-10T10:55:33Z</time>
      </trkpt>
      <trkpt lat="41.731763016432524" lon="-3.045803988352418">
        <ele>972.81500000000005</ele>
        <time>2021-07-10T10:55:34Z</time>
      </trkpt>
      <trkpt lat="41.732020005583763" lon="-3.045798037201166">
        <ele>974.44899999999996</ele>
        <time>2021-07-10T10:55:36Z</time>
      </trkpt>
      <trkpt lat="41.732167024165392" lon="-3.045819997787476">
        <ele>975.44799999999998</ele>
        <time>2021-07-10T10:55:37Z</time>
      </trkpt>
      <trkpt lat="41.73239903524518" lon="-3.045943966135383">
        <ele>976.78800000000001</ele>
        <time>2021-07-10T10:55:39Z</time>
      </trkpt>
      <trkpt lat="41.73248796723783" lon="-3.046014038845897">
        <ele>977.42399999999998</ele>
        <time>2021-07-10T10:55:41Z</time>
      </trkpt>
      <trkpt lat="41.732645966112614" lon="-3.046075981110334">
        <ele>978.02599999999995</ele>
        <time>2021-07-10T10:55:43Z</time>
      </trkpt>
      <trkpt lat="41.732761971652508" lon="-3.045996017754078">
        <ele>979.30799999999999</ele>
        <time>2021-07-10T10:55:44Z</time>
      </trkpt>
      <trkpt lat="41.732814023271203" lon="-3.045922005549073">
        <ele>980.45500000000004</ele>
        <time>2021-07-10T10:55:46Z</time>
      </trkpt>
      <trkpt lat="41.732868002727628" lon="-3.045840030536056">
        <ele>983.38499999999999</ele>
        <time>2021-07-10T10:55:48Z</time>
      </trkpt>
      <trkpt lat="41.732922988012433" lon="-3.045754032209516">
        <ele>985.89599999999996</ele>
        <time>2021-07-10T10:55:49Z</time>
      </trkpt>
      <trkpt lat="41.732967998832464" lon="-3.045586980879307">
        <ele>988.22199999999998</ele>
        <time>2021-07-10T10:55:50Z</time>
      </trkpt>
      <trkpt lat="41.732880994677544" lon="-3.04539998061955">
        <ele>989.524</ele>
        <time>2021-07-10T10:55:52Z</time>
      </trkpt>
      <trkpt lat="41.732800025492907" lon="-3.045303001999855">
        <ele>990.98699999999997</ele>
        <time>2021-07-10T10:55:54Z</time>
      </trkpt>
      <trkpt lat="41.732622999697924" lon="-3.04511901922524">
        <ele>991.94100000000003</ele>
        <time>2021-07-10T10:55:56Z</time>
      </trkpt>
      <trkpt lat="41.732521997764707" lon="-3.045018017292023">
        <ele>992.96000000000004</ele>
        <time>2021-07-10T10:55:58Z</time>
      </trkpt>
      <trkpt lat="41.732417978346348" lon="-3.044919027015567">
        <ele>993.59100000000001</ele>
        <time>2021-07-10T10:55:59Z</time>
      </trkpt>
      <trkpt lat="41.732310019433498" lon="-3.044831017032266">
        <ele>994.38099999999997</ele>
        <time>2021-07-10T10:56:00Z</time>
      </trkpt>
      <trkpt lat="41.732213040813804" lon="-3.044767985120416">
        <ele>995.51900000000001</ele>
        <time>2021-07-10T10:56:02Z</time>
      </trkpt>
      <trkpt lat="41.732043977826834" lon="-3.044704031199217">
        <ele>996.50800000000004</ele>
        <time>2021-07-10T10:56:04Z</time>
      </trkpt>
      <trkpt lat="41.731888996437192" lon="-3.044760022312403">
        <ele>997.846</ele>
        <time>2021-07-10T10:56:06Z</time>
      </trkpt>
      <trkpt lat="41.731805009767413" lon="-3.044808972626925">
        <ele>998.95600000000002</ele>
        <time>2021-07-10T10:56:08Z</time>
      </trkpt>
      <trkpt lat="41.731643993407488" lon="-3.044915003702045">
        <ele>1000.547</ele>
        <time>2021-07-10T10:56:09Z</time>
      </trkpt>
      <trkpt lat="41.731552965939045" lon="-3.044976023957133">
        <ele>1001.453</ele>
        <time>2021-07-10T10:56:10Z</time>
      </trkpt>
      <trkpt lat="41.731457998976111" lon="-3.045025980100036">
        <ele>1003.1849999999999</ele>
        <time>2021-07-10T10:56:12Z</time>
      </trkpt>
      <trkpt lat="41.731352973729372" lon="-3.04507602006197">
        <ele>1005.448</ele>
        <time>2021-07-10T10:56:14Z</time>
      </trkpt>
      <trkpt lat="41.731124985963106" lon="-3.045171992853284">
        <ele>1007.152</ele>
        <time>2021-07-10T10:56:15Z</time>
      </trkpt>
      <trkpt lat="41.730870008468628" lon="-3.045256985351443">
        <ele>1009.321</ele>
        <time>2021-07-10T10:56:17Z</time>
      </trkpt>
      <trkpt lat="41.730726007372141" lon="-3.045296967029572">
        <ele>1011.287</ele>
        <time>2021-07-10T10:56:19Z</time>
      </trkpt>
      <trkpt lat="41.73044697381556" lon="-3.045373996719718">
        <ele>1012.742</ele>
        <time>2021-07-10T10:56:20Z</time>
      </trkpt>
      <trkpt lat="41.730302972719073" lon="-3.045412972569466">
        <ele>1014.926</ele>
        <time>2021-07-10T10:56:22Z</time>
      </trkpt>
      <trkpt lat="41.730019999668002" lon="-3.045484973117709">
        <ele>1017.308</ele>
        <time>2021-07-10T10:56:24Z</time>
      </trkpt>
      <trkpt lat="41.729773990809917" lon="-3.045538030564785">
        <ele>1018.4450000000001</ele>
        <time>2021-07-10T10:56:25Z</time>
      </trkpt>
      <trkpt lat="41.729551032185555" lon="-3.045543981716037">
        <ele>1019.735</ele>
        <time>2021-07-10T10:56:27Z</time>
      </trkpt>
      <trkpt lat="41.729436032474041" lon="-3.045511040836573">
        <ele>1021.116</ele>
        <time>2021-07-10T10:56:29Z</time>
      </trkpt>
      <trkpt lat="41.729224976152182" lon="-3.045401992276311">
        <ele>1021.8819999999999</ele>
        <time>2021-07-10T10:56:30Z</time>
      </trkpt>
      <trkpt lat="41.729001011699438" lon="-3.04522898979485">
        <ele>1022.734</ele>
        <time>2021-07-10T10:56:32Z</time>
      </trkpt>
      <trkpt lat="41.728885006159544" lon="-3.045127987861633">
        <ele>1023.437</ele>
        <time>2021-07-10T10:56:33Z</time>
      </trkpt>
      <trkpt lat="41.728765983134508" lon="-3.045025980100036">
        <ele>1024.3409999999999</ele>
        <time>2021-07-10T10:56:35Z</time>
      </trkpt>
      <trkpt lat="41.72853103838861" lon="-3.04481802508235">
        <ele>1024.6800000000001</ele>
        <time>2021-07-10T10:56:36Z</time>
      </trkpt>
      <trkpt lat="41.728310007601976" lon="-3.04460696876049">
        <ele>1025.1420000000001</ele>
        <time>2021-07-10T10:56:38Z</time>
      </trkpt>
      <trkpt lat="41.72814697958529" lon="-3.044372024014592">
        <ele>1025.722</ele>
        <time>2021-07-10T10:56:39Z</time>
      </trkpt>
      <trkpt lat="41.727980012074113" lon="-3.044148981571198">
        <ele>1026.7139999999999</ele>
        <time>2021-07-10T10:56:40Z</time>
      </trkpt>
      <trkpt lat="41.727875992655754" lon="-3.044061977416277">
        <ele>1027.4079999999999</ele>
        <time>2021-07-10T10:56:41Z</time>
      </trkpt>
      <trkpt lat="41.727789994329214" lon="-3.043962987139821">
        <ele>1028.171</ele>
        <time>2021-07-10T10:56:43Z</time>
      </trkpt>
      <trkpt lat="41.727655967697501" lon="-3.043704992160201">
        <ele>1028.441</ele>
        <time>2021-07-10T10:56:44Z</time>
      </trkpt>
      <trkpt lat="41.727467039600015" lon="-3.043478010222316">
        <ele>1028.7819999999999</ele>
        <time>2021-07-10T10:56:45Z</time>
      </trkpt>
      <trkpt lat="41.727288002148271" lon="-3.043259996920824">
        <ele>1029.3779999999999</ele>
        <time>2021-07-10T10:56:47Z</time>
      </trkpt>
      <trkpt lat="41.727184988558292" lon="-3.042942993342876">
        <ele>1030.0799999999999</ele>
        <time>2021-07-10T10:56:49Z</time>
      </trkpt>
      <trkpt lat="41.727154981344938" lon="-3.0427569989115">
        <ele>1031.883</ele>
        <time>2021-07-10T10:56:51Z</time>
      </trkpt>
      <trkpt lat="41.727122040465474" lon="-3.042550971731544">
        <ele>1032.847</ele>
        <time>2021-07-10T10:56:53Z</time>
      </trkpt>
      <trkpt lat="41.727080969139934" lon="-3.042174037545919">
        <ele>1033.896</ele>
        <time>2021-07-10T10:56:54Z</time>
      </trkpt>
      <trkpt lat="41.727063031867146" lon="-3.041775980964303">
        <ele>1034.711</ele>
        <time>2021-07-10T10:56:56Z</time>
      </trkpt>
      <trkpt lat="41.727064959704876" lon="-3.041564002633095">
        <ele>1035.721</ele>
        <time>2021-07-10T10:56:58Z</time>
      </trkpt>
      <trkpt lat="41.727073006331921" lon="-3.041203999891877">
        <ele>1037.1030000000001</ele>
        <time>2021-07-10T10:57:00Z</time>
      </trkpt>
      <trkpt lat="41.727091027423739" lon="-3.040841985493898">
        <ele>1038.2080000000001</ele>
        <time>2021-07-10T10:57:01Z</time>
      </trkpt>
      <trkpt lat="41.727110976353288" lon="-3.040659008547664">
        <ele>1038.838</ele>
        <time>2021-07-10T10:57:02Z</time>
      </trkpt>
      <trkpt lat="41.727176019921899" lon="-3.040339993312955">
        <ele>1039.538</ele>
        <time>2021-07-10T10:57:03Z</time>
      </trkpt>
      <trkpt lat="41.727282973006368" lon="-3.040026007220149">
        <ele>1040.0889999999999</ele>
        <time>2021-07-10T10:57:04Z</time>
      </trkpt>
      <trkpt lat="41.727353967726231" lon="-3.039870020002127">
        <ele>1040.655</ele>
        <time>2021-07-10T10:57:05Z</time>
      </trkpt>
      <trkpt lat="41.727472990751266" lon="-3.039624011144042">
        <ele>1040.7370000000001</ele>
        <time>2021-07-10T10:57:06Z</time>
      </trkpt>
      <trkpt lat="41.727551026269794" lon="-3.039453020319343">
        <ele>1041.1099999999999</ele>
        <time>2021-07-10T10:57:08Z</time>
      </trkpt>
      <trkpt lat="41.727590002119541" lon="-3.039412032812834">
        <ele>1041.624</ele>
        <time>2021-07-10T10:57:10Z</time>
      </trkpt>
      <trkpt lat="41.727660996839404" lon="-3.039473975077272">
        <ele>1041.7829999999999</ele>
        <time>2021-07-10T10:57:11Z</time>
      </trkpt>
      <trkpt lat="41.727668959647417" lon="-3.039556033909321">
        <ele>1042.1949999999999</ele>
        <time>2021-07-10T10:57:12Z</time>
      </trkpt>
      <trkpt lat="41.727625960484147" lon="-3.039736999198794">
        <ele>1042.249</ele>
        <time>2021-07-10T10:57:14Z</time>
      </trkpt>
      <trkpt lat="41.727595031261444" lon="-3.039844958111644">
        <ele>1042.723</ele>
        <time>2021-07-10T10:57:15Z</time>
      </trkpt>
      <trkpt lat="41.72752495855093" lon="-3.040098007768393">
        <ele>1044.4079999999999</ele>
        <time>2021-07-10T10:57:17Z</time>
      </trkpt>
      <trkpt lat="41.727498974651098" lon="-3.040244020521641">
        <ele>1045.5360000000001</ele>
        <time>2021-07-10T10:57:18Z</time>
      </trkpt>
      <trkpt lat="41.727481037378311" lon="-3.040410988032818">
        <ele>1047.396</ele>
        <time>2021-07-10T10:57:20Z</time>
      </trkpt>
      <trkpt lat="41.727469973266125" lon="-3.040579967200756">
        <ele>1048.127</ele>
        <time>2021-07-10T10:57:21Z</time>
      </trkpt>
      <trkpt lat="41.727467039600015" lon="-3.040937958285213">
        <ele>1049.223</ele>
        <time>2021-07-10T10:57:23Z</time>
      </trkpt>
      <trkpt lat="41.727470979094505" lon="-3.041115989908576">
        <ele>1049.9349999999999</ele>
        <time>2021-07-10T10:57:24Z</time>
      </trkpt>
      <trkpt lat="41.727476008236408" lon="-3.041303995996714">
        <ele>1050.4680000000001</ele>
        <time>2021-07-10T10:57:25Z</time>
      </trkpt>
      <trkpt lat="41.727506015449762" lon="-3.041628962382674">
        <ele>1051.652</ele>
        <time>2021-07-10T10:57:27Z</time>
      </trkpt>
      <trkpt lat="41.727551026269794" lon="-3.041938003152609">
        <ele>1053.1310000000001</ele>
        <time>2021-07-10T10:57:29Z</time>
      </trkpt>
      <trkpt lat="41.727625038474798" lon="-3.042215025052428">
        <ele>1054.9849999999999</ele>
        <time>2021-07-10T10:57:31Z</time>
      </trkpt>
      <trkpt lat="41.727744983509183" lon="-3.042428009212017">
        <ele>1056.0889999999999</ele>
        <time>2021-07-10T10:57:32Z</time>
      </trkpt>
      <trkpt lat="41.727824024856091" lon="-3.042507972568274">
        <ele>1057.617</ele>
        <time>2021-07-10T10:57:33Z</time>
      </trkpt>
      <trkpt lat="41.728028962388635" lon="-3.042614003643394">
        <ele>1059.6079999999999</ele>
        <time>2021-07-10T10:57:35Z</time>
      </trkpt>
      <trkpt lat="41.728250999003649" lon="-3.042706958949566">
        <ele>1061.095</ele>
        <time>2021-07-10T10:57:36Z</time>
      </trkpt>
      <trkpt lat="41.728480998426676" lon="-3.042824976146221">
        <ele>1063.0250000000001</ele>
        <time>2021-07-10T10:57:38Z</time>
      </trkpt>
      <trkpt lat="41.728602033108473" lon="-3.042896976694465">
        <ele>1064.4760000000001</ele>
        <time>2021-07-10T10:57:40Z</time>
      </trkpt>
      <trkpt lat="41.72872700728476" lon="-3.042970988899469">
        <ele>1065.8520000000001</ele>
        <time>2021-07-10T10:57:41Z</time>
      </trkpt>
      <trkpt lat="41.728850975632668" lon="-3.043048018589616">
        <ele>1067.124</ele>
        <time>2021-07-10T10:57:43Z</time>
      </trkpt>
      <trkpt lat="41.728975027799606" lon="-3.043127981945872">
        <ele>1067.7570000000001</ele>
        <time>2021-07-10T10:57:45Z</time>
      </trkpt>
      <trkpt lat="41.729100001975894" lon="-3.043214986100793">
        <ele>1067.8610000000001</ele>
        <time>2021-07-10T10:57:47Z</time>
      </trkpt>
      <trkpt lat="41.729230005294085" lon="-3.043316993862391">
        <ele>1068.21</ele>
        <time>2021-07-10T10:57:49Z</time>
      </trkpt>
      <trkpt lat="41.729445001110435" lon="-3.043506005778909">
        <ele>1069.0150000000001</ele>
        <time>2021-07-10T10:57:51Z</time>
      </trkpt>
      <trkpt lat="41.729621021077037" lon="-3.043699963018298">
        <ele>1070.0650000000001</ele>
        <time>2021-07-10T10:57:52Z</time>
      </trkpt>
      <trkpt lat="41.729707019403577" lon="-3.043801970779896">
        <ele>1071.211</ele>
        <time>2021-07-10T10:57:53Z</time>
      </trkpt>
      <trkpt lat="41.729792011901736" lon="-3.043899033218622">
        <ele>1072.308</ele>
        <time>2021-07-10T10:57:54Z</time>
      </trkpt>
      <trkpt lat="41.729940036311746" lon="-3.044066000729799">
        <ele>1074.048</ele>
        <time>2021-07-10T10:57:56Z</time>
      </trkpt>
      <trkpt lat="41.730012036859989" lon="-3.04413297213614">
        <ele>1074.3679999999999</ele>
        <time>2021-07-10T10:57:58Z</time>
      </trkpt>
      <trkpt lat="41.730124019086361" lon="-3.044160967692733">
        <ele>1074.6590000000001</ele>
        <time>2021-07-10T10:57:59Z</time>
      </trkpt>
      <trkpt lat="41.730153020471334" lon="-3.044114029034972">
        <ele>1075.645</ele>
        <time>2021-07-10T10:58:01Z</time>
      </trkpt>
      <trkpt lat="41.730146985501051" lon="-3.043984025716782">
        <ele>1078.1669999999999</ele>
        <time>2021-07-10T10:58:02Z</time>
      </trkpt>
      <trkpt lat="41.730083031579852" lon="-3.043906996026635">
        <ele>1079.73</ele>
        <time>2021-07-10T10:58:03Z</time>
      </trkpt>
      <trkpt lat="41.7299510166049" lon="-3.043777998536825">
        <ele>1081.3240000000001</ele>
        <time>2021-07-10T10:58:05Z</time>
      </trkpt>
      <trkpt lat="41.729872981086373" lon="-3.043689988553524">
        <ele>1083.153</ele>
        <time>2021-07-10T10:58:07Z</time>
      </trkpt>
      <trkpt lat="41.729787988588214" lon="-3.043583035469055">
        <ele>1084.4549999999999</ele>
        <time>2021-07-10T10:58:08Z</time>
      </trkpt>
      <trkpt lat="41.729604005813599" lon="-3.043339038267732">
        <ele>1085.4069999999999</ele>
        <time>2021-07-10T10:58:10Z</time>
      </trkpt>
      <trkpt lat="41.729417005553842" lon="-3.043046006932855">
        <ele>1086.117</ele>
        <time>2021-07-10T10:58:11Z</time>
      </trkpt>
      <trkpt lat="41.729201003909111" lon="-3.042762028053403">
        <ele>1085.808</ele>
        <time>2021-07-10T10:58:12Z</time>
      </trkpt>
      <trkpt lat="41.729084998369217" lon="-3.04262800142169">
        <ele>1086.2719999999999</ele>
        <time>2021-07-10T10:58:13Z</time>
      </trkpt>
      <trkpt lat="41.728956000879407" lon="-3.042501015588641">
        <ele>1087.0619999999999</ele>
        <time>2021-07-10T10:58:15Z</time>
      </trkpt>
      <trkpt lat="41.728719966486096" lon="-3.04228400811553">
        <ele>1088.0329999999999</ele>
        <time>2021-07-10T10:58:16Z</time>
      </trkpt>
      <trkpt lat="41.728601027280092" lon="-3.042180994525552">
        <ele>1089.0889999999999</ele>
        <time>2021-07-10T10:58:17Z</time>
      </trkpt>
      <trkpt lat="41.728381002321839" lon="-3.041987959295511">
        <ele>1090.3810000000001</ele>
        <time>2021-07-10T10:58:18Z</time>
      </trkpt>
      <trkpt lat="41.728209005668759" lon="-3.041848987340927">
        <ele>1091.5940000000001</ele>
        <time>2021-07-10T10:58:20Z</time>
      </trkpt>
      <trkpt lat="41.728143962100148" lon="-3.041787967085838">
        <ele>1092.9380000000001</ele>
        <time>2021-07-10T10:58:21Z</time>
      </trkpt>
      <trkpt lat="41.728074979037046" lon="-3.041671039536595">
        <ele>1095.047</ele>
        <time>2021-07-10T10:58:23Z</time>
      </trkpt>
      <trkpt lat="41.728088976815343" lon="-3.041584035381675">
        <ele>1096.373</ele>
        <time>2021-07-10T10:58:24Z</time>
      </trkpt>
      <trkpt lat="41.728183021768928" lon="-3.041625022888184">
        <ele>1098.085</ele>
        <time>2021-07-10T10:58:26Z</time>
      </trkpt>
      <trkpt lat="41.728317970409989" lon="-3.041759971529245">
        <ele>1099.6130000000001</ele>
        <time>2021-07-10T10:58:28Z</time>
      </trkpt>
      <trkpt lat="41.728498013690114" lon="-3.041878994554281">
        <ele>1100.6079999999999</ele>
        <time>2021-07-10T10:58:30Z</time>
      </trkpt>
      <trkpt lat="41.728599015623331" lon="-3.041941020637751">
        <ele>1101.7940000000001</ele>
        <time>2021-07-10T10:58:32Z</time>
      </trkpt>
      <trkpt lat="41.728704962879419" lon="-3.042002962902188">
        <ele>1102.4739999999999</ele>
        <time>2021-07-10T10:58:33Z</time>
      </trkpt>
      <trkpt lat="41.728814011439681" lon="-3.042059959843755">
        <ele>1102.7650000000001</ele>
        <time>2021-07-10T10:58:35Z</time>
      </trkpt>
      <trkpt lat="41.72904803417623" lon="-3.042179988697171">
        <ele>1102.5409999999999</ele>
        <time>2021-07-10T10:58:36Z</time>
      </trkpt>
      <trkpt lat="41.729296976700425" lon="-3.042312003672123">
        <ele>1102.5229999999999</ele>
        <time>2021-07-10T10:58:38Z</time>
      </trkpt>
      <trkpt lat="41.729427985846996" lon="-3.042381992563605">
        <ele>1102.7760000000001</ele>
        <time>2021-07-10T10:58:39Z</time>
      </trkpt>
      <trkpt lat="41.729682041332126" lon="-3.042552983388305">
        <ele>1103.0899999999999</ele>
        <time>2021-07-10T10:58:40Z</time>
      </trkpt>
      <trkpt lat="41.729793017730117" lon="-3.042657002806664">
        <ele>1103.6990000000001</ele>
        <time>2021-07-10T10:58:42Z</time>
      </trkpt>
      <trkpt lat="41.729891002178192" lon="-3.04277703166008">
        <ele>1104.5119999999999</ele>
        <time>2021-07-10T10:58:44Z</time>
      </trkpt>
      <trkpt lat="41.730070961639285" lon="-3.043003007769585">
        <ele>1105.1320000000001</ele>
        <time>2021-07-10T10:58:45Z</time>
      </trkpt>
      <trkpt lat="41.73020800575614" lon="-3.043170981109142">
        <ele>1105.405</ele>
        <time>2021-07-10T10:58:46Z</time>
      </trkpt>
      <trkpt lat="41.730259973555803" lon="-3.043211968615651">
        <ele>1106.4079999999999</ele>
        <time>2021-07-10T10:58:48Z</time>
      </trkpt>
      <trkpt lat="41.730330968275666" lon="-3.043163018301129">
        <ele>1107.288</ele>
        <time>2021-07-10T10:58:50Z</time>
      </trkpt>
      <trkpt lat="41.730330968275666" lon="-3.043094035238028">
        <ele>1108.068</ele>
        <time>2021-07-10T10:58:51Z</time>
      </trkpt>
      <trkpt lat="41.730312025174499" lon="-3.043023040518165">
        <ele>1109.7190000000001</ele>
        <time>2021-07-10T10:58:53Z</time>
      </trkpt>
      <trkpt lat="41.730262991040945" lon="-3.042962020263076">
        <ele>1110.395</ele>
        <time>2021-07-10T10:58:54Z</time>
      </trkpt>
      <trkpt lat="41.730121001601219" lon="-3.042828999459744">
        <ele>1110.877</ele>
        <time>2021-07-10T10:58:56Z</time>
      </trkpt>
      <trkpt lat="41.730043971911073" lon="-3.042735038325191">
        <ele>1110.8199999999999</ele>
        <time>2021-07-10T10:58:57Z</time>
      </trkpt>
      <trkpt lat="41.729967026039958" lon="-3.042623978108168">
        <ele>1111.854</ele>
        <time>2021-07-10T10:58:59Z</time>
      </trkpt>
      <trkpt lat="41.729884967207909" lon="-3.042501015588641">
        <ele>1112.933</ele>
        <time>2021-07-10T10:59:00Z</time>
      </trkpt>
      <trkpt lat="41.729698972776532" lon="-3.042240003123879">
        <ele>1113.6369999999999</ele>
        <time>2021-07-10T10:59:01Z</time>
      </trkpt>
      <trkpt lat="41.729599982500076" lon="-3.042111005634069">
        <ele>1113.8489999999999</ele>
        <time>2021-07-10T10:59:02Z</time>
      </trkpt>
      <trkpt lat="41.729378029704094" lon="-3.041871031746268">
        <ele>1115.1130000000001</ele>
        <time>2021-07-10T10:59:04Z</time>
      </trkpt>
      <trkpt lat="41.729261018335819" lon="-3.041763994842768">
        <ele>1115.4079999999999</ele>
        <time>2021-07-10T10:59:05Z</time>
      </trkpt>
      <trkpt lat="41.729033030569553" lon="-3.041571965441108">
        <ele>1115.6099999999999</ele>
        <time>2021-07-10T10:59:06Z</time>
      </trkpt>
      <trkpt lat="41.728846030309796" lon="-3.041387982666493">
        <ele>1116.0899999999999</ele>
        <time>2021-07-10T10:59:08Z</time>
      </trkpt>
      <trkpt lat="41.728710997849703" lon="-3.041223026812077">
        <ele>1116.0709999999999</ele>
        <time>2021-07-10T10:59:09Z</time>
      </trkpt>
      <trkpt lat="41.728629022836685" lon="-3.041076008230448">
        <ele>1117.087</ele>
        <time>2021-07-10T10:59:11Z</time>
      </trkpt>
      <trkpt lat="41.728604966774583" lon="-3.041004007682204">
        <ele>1117.3889999999999</ele>
        <time>2021-07-10T10:59:12Z</time>
      </trkpt>
      <trkpt lat="41.728644026443362" lon="-3.04088800214231">
        <ele>1118.2619999999999</ele>
        <time>2021-07-10T10:59:14Z</time>
      </trkpt>
      <trkpt lat="41.728704962879419" lon="-3.040912980213761">
        <ele>1160.056</ele>
        <time>2021-07-10T11:07:08Z</time>
      </trkpt>
      <trkpt lat="41.728827003389597" lon="-3.041050024330616">
        <ele>1142.595</ele>
        <time>2021-07-10T11:07:15Z</time>
      </trkpt>
      <trkpt lat="41.72889900393784" lon="-3.041129987686873">
        <ele>1125.7560000000001</ele>
        <time>2021-07-10T11:07:17Z</time>
      </trkpt>
      <trkpt lat="41.728982990607619" lon="-3.041207017377019">
        <ele>1121.559</ele>
        <time>2021-07-10T11:07:18Z</time>
      </trkpt>
      <trkpt lat="41.729178037494421" lon="-3.041351018473506">
        <ele>1121.5139999999999</ele>
        <time>2021-07-10T11:07:20Z</time>
      </trkpt>
      <trkpt lat="41.729398984462023" lon="-3.041470963507891">
        <ele>1121.7080000000001</ele>
        <time>2021-07-10T11:07:22Z</time>
      </trkpt>
      <trkpt lat="41.729518007487059" lon="-3.041524020954967">
        <ele>1121.6420000000001</ele>
        <time>2021-07-10T11:07:24Z</time>
      </trkpt>
      <trkpt lat="41.729637030512094" lon="-3.041581017896533">
        <ele>1121.452</ele>
        <time>2021-07-10T11:07:25Z</time>
      </trkpt>
      <trkpt lat="41.729854959994555" lon="-3.041700040921569">
        <ele>1121.2329999999999</ele>
        <time>2021-07-10T11:07:26Z</time>
      </trkpt>
      <trkpt lat="41.730055036023259" lon="-3.041877988725901">
        <ele>1121.259</ele>
        <time>2021-07-10T11:07:28Z</time>
      </trkpt>
      <trkpt lat="41.730152014642954" lon="-3.041995000094175">
        <ele>1121.3309999999999</ele>
        <time>2021-07-10T11:07:29Z</time>
      </trkpt>
      <trkpt lat="41.730314958840609" lon="-3.042202033102512">
        <ele>1120.3240000000001</ele>
        <time>2021-07-10T11:07:31Z</time>
      </trkpt>
      <trkpt lat="41.730395006015897" lon="-3.042289037257433">
        <ele>1119.768</ele>
        <time>2021-07-10T11:07:32Z</time>
      </trkpt>
      <trkpt lat="41.730549987405539" lon="-3.042425997555256">
        <ele>1119.277</ele>
        <time>2021-07-10T11:07:34Z</time>
      </trkpt>
      <trkpt lat="41.730626011267304" lon="-3.042472014203668">
        <ele>1118.873</ele>
        <time>2021-07-10T11:07:35Z</time>
      </trkpt>
      <trkpt lat="41.730778981000185" lon="-3.042480982840061">
        <ele>1118.085</ele>
        <time>2021-07-10T11:07:36Z</time>
      </trkpt>
      <trkpt lat="41.73085399903357" lon="-3.042480982840061">
        <ele>1117.0129999999999</ele>
        <time>2021-07-10T11:07:38Z</time>
      </trkpt>
      <trkpt lat="41.730931028723717" lon="-3.042477965354919">
        <ele>1116.008</ele>
        <time>2021-07-10T11:07:40Z</time>
      </trkpt>
      <trkpt lat="41.730999005958438" lon="-3.042473020032048">
        <ele>1115.0440000000001</ele>
        <time>2021-07-10T11:07:42Z</time>
      </trkpt>
      <trkpt lat="41.73113102093339" lon="-3.042448963969946">
        <ele>1114.194</ele>
        <time>2021-07-10T11:07:44Z</time>
      </trkpt>
      <trkpt lat="41.731212995946407" lon="-3.042424991726875">
        <ele>1113.2349999999999</ele>
        <time>2021-07-10T11:07:45Z</time>
      </trkpt>
      <trkpt lat="41.731302011758089" lon="-3.042400013655424">
        <ele>1112.181</ele>
        <time>2021-07-10T11:07:46Z</time>
      </trkpt>
      <trkpt lat="41.731453975662589" lon="-3.042348967865109">
        <ele>1110.963</ele>
        <time>2021-07-10T11:07:48Z</time>
      </trkpt>
      <trkpt lat="41.731525976210833" lon="-3.042318038642407">
        <ele>1109.9659999999999</ele>
        <time>2021-07-10T11:07:49Z</time>
      </trkpt>
      <trkpt lat="41.731642987579107" lon="-3.042245032265782">
        <ele>1109.23</ele>
        <time>2021-07-10T11:07:50Z</time>
      </trkpt>
      <trkpt lat="41.731697972863913" lon="-3.042224999517202">
        <ele>1108.1289999999999</ele>
        <time>2021-07-10T11:07:52Z</time>
      </trkpt>
      <trkpt lat="41.731766033917665" lon="-3.042208990082145">
        <ele>1107.538</ele>
        <time>2021-07-10T11:07:53Z</time>
      </trkpt>
      <trkpt lat="41.731883967295289" lon="-3.042151993140578">
        <ele>1106.8699999999999</ele>
        <time>2021-07-10T11:07:54Z</time>
      </trkpt>
      <trkpt lat="41.731931995600462" lon="-3.042180994525552">
        <ele>1106.317</ele>
        <time>2021-07-10T11:07:56Z</time>
      </trkpt>
      <trkpt lat="41.731983041390777" lon="-3.042182000353932">
        <ele>1105.9079999999999</ele>
        <time>2021-07-10T11:07:58Z</time>
      </trkpt>
      <trkpt lat="41.732036015018821" lon="-3.04217797704041">
        <ele>1105.5899999999999</ele>
        <time>2021-07-10T11:07:59Z</time>
      </trkpt>
      <trkpt lat="41.732201976701617" lon="-3.042160039767623">
        <ele>1104.6700000000001</ele>
        <time>2021-07-10T11:08:01Z</time>
      </trkpt>
      <trkpt lat="41.732391994446516" lon="-3.042144030332565">
        <ele>1104.6310000000001</ele>
        <time>2021-07-10T11:08:02Z</time>
      </trkpt>
      <trkpt lat="41.732598021626472" lon="-3.042140007019043">
        <ele>1104.117</ele>
        <time>2021-07-10T11:08:04Z</time>
      </trkpt>
      <trkpt lat="41.73270296305418" lon="-3.042142018675804">
        <ele>1103.549</ele>
        <time>2021-07-10T11:08:05Z</time>
      </trkpt>
      <trkpt lat="41.732814023271203" lon="-3.042152998968959">
        <ele>1103.222</ele>
        <time>2021-07-10T11:08:06Z</time>
      </trkpt>
      <trkpt lat="41.733052991330624" lon="-3.042194992303848">
        <ele>1102.326</ele>
        <time>2021-07-10T11:08:08Z</time>
      </trkpt>
      <trkpt lat="41.733176959678531" lon="-3.042231034487486">
        <ele>1102.0350000000001</ele>
        <time>2021-07-10T11:08:10Z</time>
      </trkpt>
      <trkpt lat="41.733444007113576" lon="-3.042334970086813">
        <ele>1101.751</ele>
        <time>2021-07-10T11:08:12Z</time>
      </trkpt>
      <trkpt lat="41.733584990724921" lon="-3.042396996170282">
        <ele>1101.9010000000001</ele>
        <time>2021-07-10T11:08:13Z</time>
      </trkpt>
      <trkpt lat="41.73388397321105" lon="-3.042528005316854">
        <ele>1102.3109999999999</ele>
        <time>2021-07-10T11:08:15Z</time>
      </trkpt>
      <trkpt lat="41.734040966257453" lon="-3.042597994208336">
        <ele>1102.4079999999999</ele>
        <time>2021-07-10T11:08:16Z</time>
      </trkpt>
      <trkpt lat="41.734201982617378" lon="-3.042669994756579">
        <ele>1102.662</ele>
        <time>2021-07-10T11:08:17Z</time>
      </trkpt>
      <trkpt lat="41.734539018943906" lon="-3.042811984196305">
        <ele>1103.0419999999999</ele>
        <time>2021-07-10T11:08:19Z</time>
      </trkpt>
      <trkpt lat="41.734912013635039" lon="-3.042973000556231">
        <ele>1103.2729999999999</ele>
        <time>2021-07-10T11:08:21Z</time>
      </trkpt>
      <trkpt lat="41.735286014154553" lon="-3.043136028572917">
        <ele>1103.329</ele>
        <time>2021-07-10T11:08:22Z</time>
      </trkpt>
      <trkpt lat="41.735707959160209" lon="-3.04331598803401">
        <ele>1103.8610000000001</ele>
        <time>2021-07-10T11:08:24Z</time>
      </trkpt>
      <trkpt lat="41.735926978290081" lon="-3.043407015502453">
        <ele>1103.7639999999999</ele>
        <time>2021-07-10T11:08:26Z</time>
      </trkpt>
      <trkpt lat="41.736150020733476" lon="-3.043504999950528">
        <ele>1104.1379999999999</ele>
        <time>2021-07-10T11:08:27Z</time>
      </trkpt>
      <trkpt lat="41.73661102540791" lon="-3.043704992160201">
        <ele>1104.2570000000001</ele>
        <time>2021-07-10T11:08:28Z</time>
      </trkpt>
      <trkpt lat="41.736850999295712" lon="-3.043803982436657">
        <ele>1104.598</ele>
        <time>2021-07-10T11:08:30Z</time>
      </trkpt>
      <trkpt lat="41.737093990668654" lon="-3.043904984369874">
        <ele>1105.0150000000001</ele>
        <time>2021-07-10T11:08:32Z</time>
      </trkpt>
      <trkpt lat="41.737571004778147" lon="-3.044114029034972">
        <ele>1105.7260000000001</ele>
        <time>2021-07-10T11:08:34Z</time>
      </trkpt>
      <trkpt lat="41.737805027514696" lon="-3.044214025139809">
        <ele>1106.9079999999999</ele>
        <time>2021-07-10T11:08:36Z</time>
      </trkpt>
      <trkpt lat="41.738034021109343" lon="-3.044313015416265">
        <ele>1107.9860000000001</ele>
        <time>2021-07-10T11:08:37Z</time>
      </trkpt>
      <trkpt lat="41.73847901634872" lon="-3.044513007625938">
        <ele>1109.0160000000001</ele>
        <time>2021-07-10T11:08:39Z</time>
      </trkpt>
      <trkpt lat="41.738933986052871" lon="-3.044695984572172">
        <ele>1109.4570000000001</ele>
        <time>2021-07-10T11:08:41Z</time>
      </trkpt>
      <trkpt lat="41.739176977425814" lon="-3.044767985120416">
        <ele>1109.443</ele>
        <time>2021-07-10T11:08:42Z</time>
      </trkpt>
      <trkpt lat="41.73968299292028" lon="-3.044852977618575">
        <ele>1108.875</ele>
        <time>2021-07-10T11:08:43Z</time>
      </trkpt>
      <trkpt lat="41.739953979849815" lon="-3.04486102424562">
        <ele>1108.6980000000001</ele>
        <time>2021-07-10T11:08:45Z</time>
      </trkpt>
      <trkpt lat="41.740486985072494" lon="-3.044868987053633">
        <ele>1109.0419999999999</ele>
        <time>2021-07-10T11:08:47Z</time>
      </trkpt>
      <trkpt lat="41.740766018629074" lon="-3.044877033680677">
        <ele>1108.1510000000001</ele>
        <time>2021-07-10T11:08:49Z</time>
      </trkpt>
      <trkpt lat="41.741052009165287" lon="-3.044881979003549">
        <ele>1108.4649999999999</ele>
        <time>2021-07-10T11:08:51Z</time>
      </trkpt>
      <trkpt lat="41.741606974974275" lon="-3.044893965125084">
        <ele>1108.4680000000001</ele>
        <time>2021-07-10T11:08:52Z</time>
      </trkpt>
      <trkpt lat="41.74213302321732" lon="-3.04490502923727">
        <ele>1108.414</ele>
        <time>2021-07-10T11:08:53Z</time>
      </trkpt>
      <trkpt lat="41.742643984034657" lon="-3.044930007308722">
        <ele>1108.1079999999999</ele>
        <time>2021-07-10T11:08:55Z</time>
      </trkpt>
      <trkpt lat="41.742894016206264" lon="-3.044939981773496">
        <ele>1107.7829999999999</ele>
        <time>2021-07-10T11:08:56Z</time>
      </trkpt>
      <trkpt lat="41.743372036144137" lon="-3.044890025630593">
        <ele>1107.5429999999999</ele>
        <time>2021-07-10T11:08:57Z</time>
      </trkpt>
      <trkpt lat="41.743606980890036" lon="-3.044809978455305">
        <ele>1107.7139999999999</ele>
        <time>2021-07-10T11:08:58Z</time>
      </trkpt>
      <trkpt lat="41.743855001404881" lon="-3.044699002057314">
        <ele>1107.3699999999999</ele>
        <time>2021-07-10T11:09:00Z</time>
      </trkpt>
      <trkpt lat="41.74430200830102" lon="-3.044485012069345">
        <ele>1107.732</ele>
        <time>2021-07-10T11:09:02Z</time>
      </trkpt>
      <trkpt lat="41.744744991883636" lon="-3.044271022081375">
        <ele>1108.155</ele>
        <time>2021-07-10T11:09:03Z</time>
      </trkpt>
      <trkpt lat="41.744972979649901" lon="-3.044161973521113">
        <ele>1108.329</ele>
        <time>2021-07-10T11:09:05Z</time>
      </trkpt>
      <trkpt lat="41.745370030403137" lon="-3.043970027938485">
        <ele>1108.1980000000001</ele>
        <time>2021-07-10T11:09:06Z</time>
      </trkpt>
      <trkpt lat="41.745751993730664" lon="-3.043748997151852">
        <ele>1107.6859999999999</ele>
        <time>2021-07-10T11:09:07Z</time>
      </trkpt>
      <trkpt lat="41.745929019525647" lon="-3.043606001883745">
        <ele>1107.0599999999999</ele>
        <time>2021-07-10T11:09:08Z</time>
      </trkpt>
      <trkpt lat="41.746105961501598" lon="-3.043423024937511">
        <ele>1105.7260000000001</ele>
        <time>2021-07-10T11:09:10Z</time>
      </trkpt>
      <trkpt lat="41.746424976736307" lon="-3.043041983619332">
        <ele>1104.9079999999999</ele>
        <time>2021-07-10T11:09:12Z</time>
      </trkpt>
      <trkpt lat="41.746781961992383" lon="-3.04260796867311">
        <ele>1104.7950000000001</ele>
        <time>2021-07-10T11:09:13Z</time>
      </trkpt>
      <trkpt lat="41.747116986662149" lon="-3.042204966768622">
        <ele>1104.2550000000001</ele>
        <time>2021-07-10T11:09:15Z</time>
      </trkpt>
      <trkpt lat="41.747473971918225" lon="-3.041791990399361">
        <ele>1102.9760000000001</ele>
        <time>2021-07-10T11:09:17Z</time>
      </trkpt>
      <trkpt lat="41.747662983834743" lon="-3.041578000411391">
        <ele>1101.952</ele>
        <time>2021-07-10T11:09:18Z</time>
      </trkpt>
      <trkpt lat="41.747987028211355" lon="-3.041200982406735">
        <ele>1101.114</ele>
        <time>2021-07-10T11:09:19Z</time>
      </trkpt>
      <trkpt lat="41.748331021517515" lon="-3.040860006585717">
        <ele>1099.797</ele>
        <time>2021-07-10T11:09:21Z</time>
      </trkpt>
      <trkpt lat="41.748516010120511" lon="-3.040736960247159">
        <ele>1098.941</ele>
        <time>2021-07-10T11:09:22Z</time>
      </trkpt>
      <trkpt lat="41.7487099673599" lon="-3.040639981627464">
        <ele>1097.1600000000001</ele>
        <time>2021-07-10T11:09:24Z</time>
      </trkpt>
      <trkpt lat="41.749096037819982" lon="-3.040494974702597">
        <ele>1095.623</ele>
        <time>2021-07-10T11:09:26Z</time>
      </trkpt>
      <trkpt lat="41.74948001280427" lon="-3.040306968614459">
        <ele>1094.683</ele>
        <time>2021-07-10T11:09:28Z</time>
      </trkpt>
      <trkpt lat="41.749790981411934" lon="-3.040002034977078">
        <ele>1094.8109999999999</ele>
        <time>2021-07-10T11:09:29Z</time>
      </trkpt>
      <trkpt lat="41.750057023018599" lon="-3.039618982002139">
        <ele>1095.9079999999999</ele>
        <time>2021-07-10T11:09:31Z</time>
      </trkpt>
      <trkpt lat="41.750202029943466" lon="-3.039427036419511">
        <ele>1097.5889999999999</ele>
        <time>2021-07-10T11:09:33Z</time>
      </trkpt>
      <trkpt lat="41.750349970534444" lon="-3.039279012009502">
        <ele>1098.3989999999999</ele>
        <time>2021-07-10T11:09:34Z</time>
      </trkpt>
      <trkpt lat="41.750678960233927" lon="-3.039090000092983">
        <ele>1099.4400000000001</ele>
        <time>2021-07-10T11:09:35Z</time>
      </trkpt>
      <trkpt lat="41.750862020999193" lon="-3.039011964574456">
        <ele>1100.9559999999999</ele>
        <time>2021-07-10T11:09:37Z</time>
      </trkpt>
      <trkpt lat="41.751040974631906" lon="-3.038942981511354">
        <ele>1101.4680000000001</ele>
        <time>2021-07-10T11:09:38Z</time>
      </trkpt>
      <trkpt lat="41.751224035397172" lon="-3.038882967084646">
        <ele>1102.181</ele>
        <time>2021-07-10T11:09:40Z</time>
      </trkpt>
      <trkpt lat="41.751562999561429" lon="-3.038862012326717">
        <ele>1102.625</ele>
        <time>2021-07-10T11:09:42Z</time>
      </trkpt>
      <trkpt lat="41.751912022009492" lon="-3.03895303979516">
        <ele>1103.5540000000001</ele>
        <time>2021-07-10T11:09:44Z</time>
      </trkpt>
      <trkpt lat="41.752097010612488" lon="-3.039048006758094">
        <ele>1105.6780000000001</ele>
        <time>2021-07-10T11:09:46Z</time>
      </trkpt>
      <trkpt lat="41.752422982826829" lon="-3.039309019222856">
        <ele>1106.3330000000001</ele>
        <time>2021-07-10T11:09:48Z</time>
      </trkpt>
      <trkpt lat="41.752594979479909" lon="-3.039453020319343">
        <ele>1106.9259999999999</ele>
        <time>2021-07-10T11:09:49Z</time>
      </trkpt>
      <trkpt lat="41.752776028588414" lon="-3.039602972567082">
        <ele>1107.4079999999999</ele>
        <time>2021-07-10T11:09:51Z</time>
      </trkpt>
      <trkpt lat="41.752978032454848" lon="-3.03977002389729">
        <ele>1108.194</ele>
        <time>2021-07-10T11:09:52Z</time>
      </trkpt>
      <trkpt lat="41.753355972468853" lon="-3.040078980848193">
        <ele>1108.694</ele>
        <time>2021-07-10T11:09:54Z</time>
      </trkpt>
      <trkpt lat="41.753764003515244" lon="-3.040417023003101">
        <ele>1109.0250000000001</ele>
        <time>2021-07-10T11:09:55Z</time>
      </trkpt>
      <trkpt lat="41.753980005159974" lon="-3.040605029091239">
        <ele>1109.3109999999999</ele>
        <time>2021-07-10T11:09:57Z</time>
      </trkpt>
      <trkpt lat="41.75437998957932" lon="-3.040926977992058">
        <ele>1109.7529999999999</ele>
        <time>2021-07-10T11:09:58Z</time>
      </trkpt>
      <trkpt lat="41.754806041717529" lon="-3.041173992678523">
        <ele>1110.2760000000001</ele>
        <time>2021-07-10T11:09:59Z</time>
      </trkpt>
      <trkpt lat="41.755021037533879" lon="-3.041235012933612">
        <ele>1111.1800000000001</ele>
        <time>2021-07-10T11:10:00Z</time>
      </trkpt>
      <trkpt lat="41.755207031965256" lon="-3.041169969365001">
        <ele>1111.789</ele>
        <time>2021-07-10T11:10:02Z</time>
      </trkpt>
      <trkpt lat="41.755567034706473" lon="-3.040946004912257">
        <ele>1112.6769999999999</ele>
        <time>2021-07-10T11:10:03Z</time>
      </trkpt>
      <trkpt lat="41.755726961418986" lon="-3.040771996602416">
        <ele>1112.961</ele>
        <time>2021-07-10T11:10:04Z</time>
      </trkpt>
      <trkpt lat="41.756001971662045" lon="-3.040321972221136">
        <ele>1113.2270000000001</ele>
        <time>2021-07-10T11:10:05Z</time>
      </trkpt>
      <trkpt lat="41.756254015490413" lon="-3.039803970605135">
        <ele>1113.4079999999999</ele>
        <time>2021-07-10T11:10:07Z</time>
      </trkpt>
      <trkpt lat="41.756545035168529" lon="-3.039346989244223">
        <ele>1113.5940000000001</ele>
        <time>2021-07-10T11:10:09Z</time>
      </trkpt>
      <trkpt lat="41.756744021549821" lon="-3.039164012297988">
        <ele>1114.3240000000001</ele>
        <time>2021-07-10T11:10:10Z</time>
      </trkpt>
      <trkpt lat="41.757150962948799" lon="-3.038901994004846">
        <ele>1115.7850000000001</ele>
        <time>2021-07-10T11:10:12Z</time>
      </trkpt>
      <trkpt lat="41.757568968459964" lon="-3.038655985146761">
        <ele>1116.731</ele>
        <time>2021-07-10T11:10:13Z</time>
      </trkpt>
      <trkpt lat="41.757780024781823" lon="-3.038521036505699">
        <ele>1118.0630000000001</ele>
        <time>2021-07-10T11:10:14Z</time>
      </trkpt>
      <trkpt lat="41.757980016991496" lon="-3.038388015702367">
        <ele>1118.886</ele>
        <time>2021-07-10T11:10:16Z</time>
      </trkpt>
      <trkpt lat="41.758325016126037" lon="-3.038061959668994">
        <ele>1120.0699999999999</ele>
        <time>2021-07-10T11:10:18Z</time>
      </trkpt>
      <trkpt lat="41.75848200917244" lon="-3.037851992994547">
        <ele>1120.9390000000001</ele>
        <time>2021-07-10T11:10:19Z</time>
      </trkpt>
      <trkpt lat="41.758773028850555" lon="-3.03738503716886">
        <ele>1121.912</ele>
        <time>2021-07-10T11:10:20Z</time>
      </trkpt>
      <trkpt lat="41.759089026600122" lon="-3.036874998360872">
        <ele>1123.432</ele>
        <time>2021-07-10T11:10:22Z</time>
      </trkpt>
      <trkpt lat="41.759413992986083" lon="-3.036321038380265">
        <ele>1124.8050000000001</ele>
        <time>2021-07-10T11:10:23Z</time>
      </trkpt>
      <trkpt lat="41.759704006835818" lon="-3.035808987915516">
        <ele>1126.008</ele>
        <time>2021-07-10T11:10:24Z</time>
      </trkpt>
      <trkpt lat="41.759985974058509" lon="-3.03530297242105">
        <ele>1126.8879999999999</ele>
        <time>2021-07-10T11:10:25Z</time>
      </trkpt>
      <trkpt lat="41.760131986811757" lon="-3.035068027675152">
        <ele>1127.848</ele>
        <time>2021-07-10T11:10:27Z</time>
      </trkpt>
      <trkpt lat="41.760453013703227" lon="-3.03467801772058">
        <ele>1128.579</ele>
        <time>2021-07-10T11:10:29Z</time>
      </trkpt>
      <trkpt lat="41.760640013962984" lon="-3.034509038552642">
        <ele>1128.635</ele>
        <time>2021-07-10T11:10:30Z</time>
      </trkpt>
      <trkpt lat="41.761036980897188" lon="-3.034256994724274">
        <ele>1128.7470000000001</ele>
        <time>2021-07-10T11:10:32Z</time>
      </trkpt>
      <trkpt lat="41.761253988370299" lon="-3.034169990569353">
        <ele>1128.6199999999999</ele>
        <time>2021-07-10T11:10:33Z</time>
      </trkpt>
      <trkpt lat="41.761707030236721" lon="-3.034018026664853">
        <ele>1129.2439999999999</ele>
        <time>2021-07-10T11:10:35Z</time>
      </trkpt>
      <trkpt lat="41.761941974982619" lon="-3.033937979489565">
        <ele>1129.7629999999999</ele>
        <time>2021-07-10T11:10:37Z</time>
      </trkpt>
      <trkpt lat="41.762191001325846" lon="-3.033852986991406">
        <ele>1129.9860000000001</ele>
        <time>2021-07-10T11:10:38Z</time>
      </trkpt>
      <trkpt lat="41.762426029890776" lon="-3.033769000321627">
        <ele>1130.46</ele>
        <time>2021-07-10T11:10:40Z</time>
      </trkpt>
      <trkpt lat="41.762894997373223" lon="-3.033589040860534">
        <ele>1130.9259999999999</ele>
        <time>2021-07-10T11:10:41Z</time>
      </trkpt>
      <trkpt lat="41.76314402371645" lon="-3.033489966765046">
        <ele>1131.2080000000001</ele>
        <time>2021-07-10T11:10:43Z</time>
      </trkpt>
      <trkpt lat="41.763393972069025" lon="-3.03338997066021">
        <ele>1131.5550000000001</ele>
        <time>2021-07-10T11:10:44Z</time>
      </trkpt>
      <trkpt lat="41.763659007847309" lon="-3.033287962898612">
        <ele>1131.7650000000001</ele>
        <time>2021-07-10T11:10:45Z</time>
      </trkpt>
      <trkpt lat="41.764147002249956" lon="-3.03311001509428">
        <ele>1132.046</ele>
        <time>2021-07-10T11:10:47Z</time>
      </trkpt>
      <trkpt lat="41.764631979167461" lon="-3.032922009006143">
        <ele>1132.1120000000001</ele>
        <time>2021-07-10T11:10:48Z</time>
      </trkpt>
      <trkpt lat="41.76486399024725" lon="-3.032799968495965">
        <ele>1132.3440000000001</ele>
        <time>2021-07-10T11:10:49Z</time>
      </trkpt>
      <trkpt lat="41.765218041837215" lon="-3.032451029866934">
        <ele>1132.6569999999999</ele>
        <time>2021-07-10T11:10:50Z</time>
      </trkpt>
      <trkpt lat="41.76537998020649" lon="-3.032235028222203">
        <ele>1132.8510000000001</ele>
        <time>2021-07-10T11:10:52Z</time>
      </trkpt>
      <trkpt lat="41.765545019879937" lon="-3.032003017142415">
        <ele>1133.27</ele>
        <time>2021-07-10T11:10:54Z</time>
      </trkpt>
      <trkpt lat="41.765860011801124" lon="-3.031586017459631">
        <ele>1134.085</ele>
        <time>2021-07-10T11:10:55Z</time>
      </trkpt>
      <trkpt lat="41.766233006492257" lon="-3.031254010275006">
        <ele>1134.489</ele>
        <time>2021-07-10T11:10:56Z</time>
      </trkpt>
      <trkpt lat="41.766436016187072" lon="-3.031144039705396">
        <ele>1135.2170000000001</ele>
        <time>2021-07-10T11:10:58Z</time>
      </trkpt>
      <trkpt lat="41.766667021438479" lon="-3.031062986701727">
        <ele>1136.308</ele>
        <time>2021-07-10T11:10:59Z</time>
      </trkpt>
      <trkpt lat="41.767116039991379" lon="-3.030957961454988">
        <ele>1137.7449999999999</ele>
        <time>2021-07-10T11:11:00Z</time>
      </trkpt>
      <trkpt lat="41.767345033586025" lon="-3.030901970341802">
        <ele>1137.7349999999999</ele>
        <time>2021-07-10T11:11:01Z</time>
      </trkpt>
      <trkpt lat="41.767564974725246" lon="-3.030845979228616">
        <ele>1138.4960000000001</ele>
        <time>2021-07-10T11:11:03Z</time>
      </trkpt>
      <trkpt lat="41.767778964713216" lon="-3.030787976458669">
        <ele>1138.242</ele>
        <time>2021-07-10T11:11:04Z</time>
      </trkpt>
      <trkpt lat="41.768214991316199" lon="-3.030665013939142">
        <ele>1138.674</ele>
        <time>2021-07-10T11:11:06Z</time>
      </trkpt>
      <trkpt lat="41.768693011254072" lon="-3.030525958165526">
        <ele>1139.7270000000001</ele>
        <time>2021-07-10T11:11:07Z</time>
      </trkpt>
      <trkpt lat="41.768944971263409" lon="-3.030459992587566">
        <ele>1140.721</ele>
        <time>2021-07-10T11:11:08Z</time>
      </trkpt>
      <trkpt lat="41.769465990364552" lon="-3.03031699731946">
        <ele>1141.23</ele>
        <time>2021-07-10T11:11:10Z</time>
      </trkpt>
      <trkpt lat="41.769737983122468" lon="-3.030233010649681">
        <ele>1140.8589999999999</ele>
        <time>2021-07-10T11:11:12Z</time>
      </trkpt>
      <trkpt lat="41.770308958366513" lon="-3.030068976804614">
        <ele>1140.5029999999999</ele>
        <time>2021-07-10T11:11:14Z</time>
      </trkpt>
      <trkpt lat="41.770841041579843" lon="-3.029925981536508">
        <ele>1140.0229999999999</ele>
        <time>2021-07-10T11:11:16Z</time>
      </trkpt>
      <trkpt lat="41.771110016852617" lon="-3.029850041493774">
        <ele>1139.508</ele>
        <time>2021-07-10T11:11:17Z</time>
      </trkpt>
      <trkpt lat="41.77163103595376" lon="-3.029708974063397">
        <ele>1138.7919999999999</ele>
        <time>2021-07-10T11:11:19Z</time>
      </trkpt>
      <trkpt lat="41.771882995963097" lon="-3.029640996828675">
        <ele>1137.2619999999999</ele>
        <time>2021-07-10T11:11:21Z</time>
      </trkpt>
      <trkpt lat="41.772368978708982" lon="-3.029467994347215">
        <ele>1135.5930000000001</ele>
        <time>2021-07-10T11:11:22Z</time>
      </trkpt>
      <trkpt lat="41.77259897813201" lon="-3.029340002685785">
        <ele>1133.6690000000001</ele>
        <time>2021-07-10T11:11:23Z</time>
      </trkpt>
      <trkpt lat="41.772821014747024" lon="-3.029197007417679">
        <ele>1131.1510000000001</ele>
        <time>2021-07-10T11:11:25Z</time>
      </trkpt>
      <trkpt lat="41.773250000551343" lon="-3.02887799218297">
        <ele>1128.434</ele>
        <time>2021-07-10T11:11:27Z</time>
      </trkpt>
      <trkpt lat="41.773463990539312" lon="-3.028712030500174">
        <ele>1125.328</ele>
        <time>2021-07-10T11:11:29Z</time>
      </trkpt>
      <trkpt lat="41.773677980527282" lon="-3.028549002483487">
        <ele>1122.9269999999999</ele>
        <time>2021-07-10T11:11:30Z</time>
      </trkpt>
      <trkpt lat="41.773894988000393" lon="-3.028383040800691">
        <ele>1120.174</ele>
        <time>2021-07-10T11:11:32Z</time>
      </trkpt>
      <trkpt lat="41.774286003783345" lon="-3.028081962838769">
        <ele>1116.856</ele>
        <time>2021-07-10T11:11:34Z</time>
      </trkpt>
      <trkpt lat="41.774681964889169" lon="-3.027772000059485">
        <ele>1114.421</ele>
        <time>2021-07-10T11:11:36Z</time>
      </trkpt>
      <trkpt lat="41.774872988462448" lon="-3.027634033933282">
        <ele>1112.508</ele>
        <time>2021-07-10T11:11:37Z</time>
      </trkpt>
      <trkpt lat="41.775060994550586" lon="-3.027497995644808">
        <ele>1110.8140000000001</ele>
        <time>2021-07-10T11:11:38Z</time>
      </trkpt>
      <trkpt lat="41.775373974815011" lon="-3.027290040627122">
        <ele>1108.7239999999999</ele>
        <time>2021-07-10T11:11:40Z</time>
      </trkpt>
      <trkpt lat="41.775511018931866" lon="-3.027219967916608">
        <ele>1105.835</ele>
        <time>2021-07-10T11:11:42Z</time>
      </trkpt>
      <trkpt lat="41.775626018643379" lon="-3.027119971811771">
        <ele>1104.1510000000001</ele>
        <time>2021-07-10T11:11:43Z</time>
      </trkpt>
      <trkpt lat="41.775741018354893" lon="-3.02702902816236">
        <ele>1102.473</ele>
        <time>2021-07-10T11:11:45Z</time>
      </trkpt>
      <trkpt lat="41.775984009727836" lon="-3.026862982660532">
        <ele>1101.076</ele>
        <time>2021-07-10T11:11:46Z</time>
      </trkpt>
      <trkpt lat="41.776117030531168" lon="-3.026787964627147">
        <ele>1099.53</ele>
        <time>2021-07-10T11:11:47Z</time>
      </trkpt>
      <trkpt lat="41.776409978047013" lon="-3.026671959087253">
        <ele>1097.9590000000001</ele>
        <time>2021-07-10T11:11:48Z</time>
      </trkpt>
      <trkpt lat="41.776575017720461" lon="-3.026636000722647">
        <ele>1096.375</ele>
        <time>2021-07-10T11:11:50Z</time>
      </trkpt>
      <trkpt lat="41.776752965524793" lon="-3.02662200294435">
        <ele>1093.9280000000001</ele>
        <time>2021-07-10T11:11:52Z</time>
      </trkpt>
      <trkpt lat="41.77710902877152" lon="-3.026632983237505">
        <ele>1091.72</ele>
        <time>2021-07-10T11:11:53Z</time>
      </trkpt>
      <trkpt lat="41.777485040947795" lon="-3.02664203569293">
        <ele>1088.2080000000001</ele>
        <time>2021-07-10T11:11:55Z</time>
      </trkpt>
      <trkpt lat="41.777852000668645" lon="-3.026654021814466">
        <ele>1085.9639999999999</ele>
        <time>2021-07-10T11:11:56Z</time>
      </trkpt>
      <trkpt lat="41.778233963996172" lon="-3.026668019592762">
        <ele>1083.2239999999999</ele>
        <time>2021-07-10T11:11:58Z</time>
      </trkpt>
      <trkpt lat="41.778430016711354" lon="-3.026671959087253">
        <ele>1081.1849999999999</ele>
        <time>2021-07-10T11:11:59Z</time>
      </trkpt>
      <trkpt lat="41.778791025280952" lon="-3.026695009320974">
        <ele>1078.9110000000001</ele>
        <time>2021-07-10T11:12:01Z</time>
      </trkpt>
      <trkpt lat="41.779168965294957" lon="-3.026804979890585">
        <ele>1077.0730000000001</ele>
        <time>2021-07-10T11:12:02Z</time>
      </trkpt>
      <trkpt lat="41.779349008575082" lon="-3.026906987652183">
        <ele>1075.1659999999999</ele>
        <time>2021-07-10T11:12:04Z</time>
      </trkpt>
      <trkpt lat="41.779527962207794" lon="-3.027047971263528">
        <ele>1073.03</ele>
        <time>2021-07-10T11:12:05Z</time>
      </trkpt>
      <trkpt lat="41.779843037948012" lon="-3.027405040338635">
        <ele>1071.8589999999999</ele>
        <time>2021-07-10T11:12:07Z</time>
      </trkpt>
      <trkpt lat="41.780171021819115" lon="-3.027826985344291">
        <ele>1070.627</ele>
        <time>2021-07-10T11:12:08Z</time>
      </trkpt>
      <trkpt lat="41.780523983761668" lon="-3.028197968378663">
        <ele>1069.768</ele>
        <time>2021-07-10T11:12:09Z</time>
      </trkpt>
      <trkpt lat="41.780722970142961" lon="-3.028370970860124">
        <ele>1069.2139999999999</ele>
        <time>2021-07-10T11:12:10Z</time>
      </trkpt>
      <trkpt lat="41.781135024502873" lon="-3.028717981651425">
        <ele>1068.9079999999999</ele>
        <time>2021-07-10T11:12:12Z</time>
      </trkpt>
      <trkpt lat="41.781503995880485" lon="-3.029137998819351">
        <ele>1068.8889999999999</ele>
        <time>2021-07-10T11:12:14Z</time>
      </trkpt>
      <trkpt lat="41.781799038872123" lon="-3.029675027355552">
        <ele>1069.049</ele>
        <time>2021-07-10T11:12:16Z</time>
      </trkpt>
      <trkpt lat="41.781919989734888" lon="-3.029978033155203">
        <ele>1069.1800000000001</ele>
        <time>2021-07-10T11:12:17Z</time>
      </trkpt>
      <trkpt lat="41.782043036073446" lon="-3.030295036733151">
        <ele>1069.296</ele>
        <time>2021-07-10T11:12:19Z</time>
      </trkpt>
      <trkpt lat="41.782298013567924" lon="-3.03085302002728">
        <ele>1069.268</ele>
        <time>2021-07-10T11:12:20Z</time>
      </trkpt>
      <trkpt lat="41.782615017145872" lon="-3.031380996108055">
        <ele>1069.3910000000001</ele>
        <time>2021-07-10T11:12:22Z</time>
      </trkpt>
      <trkpt lat="41.782795982435346" lon="-3.031632034108043">
        <ele>1069.4849999999999</ele>
        <time>2021-07-10T11:12:24Z</time>
      </trkpt>
      <trkpt lat="41.783159002661705" lon="-3.032051967456937">
        <ele>1069.144</ele>
        <time>2021-07-10T11:12:25Z</time>
      </trkpt>
      <trkpt lat="41.783366035670042" lon="-3.03225003182888">
        <ele>1069.348</ele>
        <time>2021-07-10T11:12:27Z</time>
      </trkpt>
      <trkpt lat="41.783586982637644" lon="-3.032434014603496">
        <ele>1069.3610000000001</ele>
        <time>2021-07-10T11:12:29Z</time>
      </trkpt>
      <trkpt lat="41.783813964575529" lon="-3.032606011256576">
        <ele>1069.4169999999999</ele>
        <time>2021-07-10T11:12:30Z</time>
      </trkpt>
      <trkpt lat="41.784215038642287" lon="-3.032908011227846">
        <ele>1069.6079999999999</ele>
        <time>2021-07-10T11:12:31Z</time>
      </trkpt>
      <trkpt lat="41.78458996117115" lon="-3.033154020085931">
        <ele>1070.3409999999999</ele>
        <time>2021-07-10T11:12:33Z</time>
      </trkpt>
      <trkpt lat="41.784800011664629" lon="-3.033246975392103">
        <ele>1070.7909999999999</ele>
        <time>2021-07-10T11:12:34Z</time>
      </trkpt>
      <trkpt lat="41.785208964720368" lon="-3.033292992040515">
        <ele>1071.3620000000001</ele>
        <time>2021-07-10T11:12:36Z</time>
      </trkpt>
      <trkpt lat="41.78542697802186" lon="-3.033273965120316">
        <ele>1072.3979999999999</ele>
        <time>2021-07-10T11:12:38Z</time>
      </trkpt>
      <trkpt lat="41.78585596382618" lon="-3.033206993713975">
        <ele>1072.5699999999999</ele>
        <time>2021-07-10T11:12:40Z</time>
      </trkpt>
      <trkpt lat="41.786089986562729" lon="-3.033200036734343">
        <ele>1073.153</ele>
        <time>2021-07-10T11:12:42Z</time>
      </trkpt>
      <trkpt lat="41.786510003730655" lon="-3.03325803950429">
        <ele>1073.9970000000001</ele>
        <time>2021-07-10T11:12:44Z</time>
      </trkpt>
      <trkpt lat="41.786727011203766" lon="-3.033321993425489">
        <ele>1074.846</ele>
        <time>2021-07-10T11:12:46Z</time>
      </trkpt>
      <trkpt lat="41.787138981744647" lon="-3.033455014228821">
        <ele>1075.579</ele>
        <time>2021-07-10T11:12:47Z</time>
      </trkpt>
      <trkpt lat="41.787331011146307" lon="-3.033498013392091">
        <ele>1075.905</ele>
        <time>2021-07-10T11:12:49Z</time>
      </trkpt>
      <trkpt lat="41.787673998624086" lon="-3.033498013392091">
        <ele>1076.125</ele>
        <time>2021-07-10T11:12:51Z</time>
      </trkpt>
      <trkpt lat="41.787848006933928" lon="-3.033456020057201">
        <ele>1076.1079999999999</ele>
        <time>2021-07-10T11:12:52Z</time>
      </trkpt>
      <trkpt lat="41.788018997758627" lon="-3.033384019508958">
        <ele>1076.124</ele>
        <time>2021-07-10T11:12:54Z</time>
      </trkpt>
      <trkpt lat="41.78819702938199" lon="-3.033280000090599">
        <ele>1076.2739999999999</ele>
        <time>2021-07-10T11:12:56Z</time>
      </trkpt>
      <trkpt lat="41.788501041010022" lon="-3.032994009554386">
        <ele>1076.2950000000001</ele>
        <time>2021-07-10T11:12:57Z</time>
      </trkpt>
      <trkpt lat="41.78879801183939" lon="-3.032629983499646">
        <ele>1077.3309999999999</ele>
        <time>2021-07-10T11:12:59Z</time>
      </trkpt>
      <trkpt lat="41.789103029295802" lon="-3.032267969101667">
        <ele>1078.2529999999999</ele>
        <time>2021-07-10T11:13:01Z</time>
      </trkpt>
      <trkpt lat="41.789268990978599" lon="-3.032093960791826">
        <ele>1079.136</ele>
        <time>2021-07-10T11:13:02Z</time>
      </trkpt>
      <trkpt lat="41.789607033133507" lon="-3.031775029376149">
        <ele>1080.3199999999999</ele>
        <time>2021-07-10T11:13:03Z</time>
      </trkpt>
      <trkpt lat="41.7897869925946" lon="-3.031598003581166">
        <ele>1081.5989999999999</ele>
        <time>2021-07-10T11:13:05Z</time>
      </trkpt>
      <trkpt lat="41.790092010051012" lon="-3.031213022768498">
        <ele>1081.865</ele>
        <time>2021-07-10T11:13:06Z</time>
      </trkpt>
      <trkpt lat="41.790383029729128" lon="-3.03076702170074">
        <ele>1082.3679999999999</ele>
        <time>2021-07-10T11:13:07Z</time>
      </trkpt>
      <trkpt lat="41.790535999462008" lon="-3.030548002570868">
        <ele>1082.614</ele>
        <time>2021-07-10T11:13:09Z</time>
      </trkpt>
      <trkpt lat="41.790860965847969" lon="-3.030189005658031">
        <ele>1082.808</ele>
        <time>2021-07-10T11:13:11Z</time>
      </trkpt>
      <trkpt lat="41.791241001337767" lon="-3.029893962666392">
        <ele>1083.5930000000001</ele>
        <time>2021-07-10T11:13:12Z</time>
      </trkpt>
      <trkpt lat="41.791434036567807" lon="-3.029753984883428">
        <ele>1084.3530000000001</ele>
        <time>2021-07-10T11:13:14Z</time>
      </trkpt>
      <trkpt lat="41.791627993807197" lon="-3.029606966301799">
        <ele>1084.8340000000001</ele>
        <time>2021-07-10T11:13:15Z</time>
      </trkpt>
      <trkpt lat="41.791990008205175" lon="-3.029347965493798">
        <ele>1085.48</ele>
        <time>2021-07-10T11:13:17Z</time>
      </trkpt>
      <trkpt lat="41.792155969887972" lon="-3.029236989095807">
        <ele>1085.3520000000001</ele>
        <time>2021-07-10T11:13:18Z</time>
      </trkpt>
      <trkpt lat="41.792486971244216" lon="-3.029055017977953">
        <ele>1085.2950000000001</ele>
        <time>2021-07-10T11:13:20Z</time>
      </trkpt>
      <trkpt lat="41.792825013399124" lon="-3.028958961367607">
        <ele>1085.579</ele>
        <time>2021-07-10T11:13:22Z</time>
      </trkpt>
      <trkpt lat="41.793150985613465" lon="-3.028934989124537">
        <ele>1085.9780000000001</ele>
        <time>2021-07-10T11:13:23Z</time>
      </trkpt>
      <trkpt lat="41.793476035818458" lon="-3.028935994952917">
        <ele>1086.193</ele>
        <time>2021-07-10T11:13:25Z</time>
      </trkpt>
      <trkpt lat="41.793715003877878" lon="-3.028997015208006">
        <ele>1086.5650000000001</ele>
        <time>2021-07-10T11:13:27Z</time>
      </trkpt>
      <trkpt lat="41.79391298443079" lon="-3.029127018526197">
        <ele>1086.221</ele>
        <time>2021-07-10T11:13:28Z</time>
      </trkpt>
      <trkpt lat="41.794011974707246" lon="-3.029230032116175">
        <ele>1085.808</ele>
        <time>2021-07-10T11:13:30Z</time>
      </trkpt>
      <trkpt lat="41.794169973582029" lon="-3.02947998046875">
        <ele>1085.6859999999999</ele>
        <time>2021-07-10T11:13:32Z</time>
      </trkpt>
      <trkpt lat="41.794346999377012" lon="-3.029789021238685">
        <ele>1084.9159999999999</ele>
        <time>2021-07-10T11:13:33Z</time>
      </trkpt>
      <trkpt lat="41.794443977996707" lon="-3.02995297126472">
        <ele>1084.4269999999999</ele>
        <time>2021-07-10T11:13:35Z</time>
      </trkpt>
      <trkpt lat="41.794640030711889" lon="-3.030275003984571">
        <ele>1084.5830000000001</ele>
        <time>2021-07-10T11:13:37Z</time>
      </trkpt>
      <trkpt lat="41.794817978516221" lon="-3.030559988692403">
        <ele>1085.2449999999999</ele>
        <time>2021-07-10T11:13:38Z</time>
      </trkpt>
      <trkpt lat="41.794898025691509" lon="-3.030682029202581">
        <ele>1084.8779999999999</ele>
        <time>2021-07-10T11:13:40Z</time>
      </trkpt>
      <trkpt lat="41.795027023181319" lon="-3.030874980613589">
        <ele>1085.5219999999999</ele>
        <time>2021-07-10T11:13:41Z</time>
      </trkpt>
      <trkpt lat="41.795153003185987" lon="-3.031066004186869">
        <ele>1085.8810000000001</ele>
        <time>2021-07-10T11:13:42Z</time>
      </trkpt>
      <trkpt lat="41.795230032876134" lon="-3.031188966706395">
        <ele>1086.413</ele>
        <time>2021-07-10T11:13:43Z</time>
      </trkpt>
      <trkpt lat="41.795304967090487" lon="-3.031316958367825">
        <ele>1087.3430000000001</ele>
        <time>2021-07-10T11:13:45Z</time>
      </trkpt>
      <trkpt lat="41.795447040349245" lon="-3.03158501163125">
        <ele>1088.807</ele>
        <time>2021-07-10T11:13:47Z</time>
      </trkpt>
      <trkpt lat="41.795515017583966" lon="-3.031719038262963">
        <ele>1090.308</ele>
        <time>2021-07-10T11:13:49Z</time>
      </trkpt>
      <trkpt lat="41.795586012303829" lon="-3.031855998560786">
        <ele>1091.7380000000001</ele>
        <time>2021-07-10T11:13:51Z</time>
      </trkpt>
      <trkpt lat="41.795708974823356" lon="-3.032114999368787">
        <ele>1092.7380000000001</ele>
        <time>2021-07-10T11:13:53Z</time>
      </trkpt>
      <trkpt lat="41.795822968706489" lon="-3.032405013218522">
        <ele>1094.479</ele>
        <time>2021-07-10T11:13:55Z</time>
      </trkpt>
      <trkpt lat="41.795877031981945" lon="-3.032565023750067">
        <ele>1096.0250000000001</ele>
        <time>2021-07-10T11:13:57Z</time>
      </trkpt>
      <trkpt lat="41.795973004773259" lon="-3.032861994579434">
        <ele>1096.777</ele>
        <time>2021-07-10T11:13:58Z</time>
      </trkpt>
      <trkpt lat="41.796021033078432" lon="-3.033016975969076">
        <ele>1097.23</ele>
        <time>2021-07-10T11:13:59Z</time>
      </trkpt>
      <trkpt lat="41.796132009476423" lon="-3.033313024789095">
        <ele>1098.0840000000001</ele>
        <time>2021-07-10T11:14:01Z</time>
      </trkpt>
      <trkpt lat="41.796201998367906" lon="-3.033442022278905">
        <ele>1099.423</ele>
        <time>2021-07-10T11:14:03Z</time>
      </trkpt>
      <trkpt lat="41.796385981142521" lon="-3.033658023923636">
        <ele>1100.3389999999999</ele>
        <time>2021-07-10T11:14:05Z</time>
      </trkpt>
      <trkpt lat="41.796606006100774" lon="-3.033849969506264">
        <ele>1102.701</ele>
        <time>2021-07-10T11:14:07Z</time>
      </trkpt>
      <trkpt lat="41.796716982498765" lon="-3.033936973661184">
        <ele>1104.721</ele>
        <time>2021-07-10T11:14:09Z</time>
      </trkpt>
      <trkpt lat="41.796869030222297" lon="-3.034067982807756">
        <ele>1107.508</ele>
        <time>2021-07-10T11:14:11Z</time>
      </trkpt>
      <trkpt lat="41.797003978863358" lon="-3.034216007217765">
        <ele>1109.8599999999999</ele>
        <time>2021-07-10T11:14:13Z</time>
      </trkpt>
      <trkpt lat="41.797074973583221" lon="-3.034306028857827">
        <ele>1111.5699999999999</ele>
        <time>2021-07-10T11:14:14Z</time>
      </trkpt>
      <trkpt lat="41.79722098633647" lon="-3.034524964168668">
        <ele>1112.921</ele>
        <time>2021-07-10T11:14:16Z</time>
      </trkpt>
      <trkpt lat="41.797389965504408" lon="-3.034787988290191">
        <ele>1114.567</ele>
        <time>2021-07-10T11:14:17Z</time>
      </trkpt>
      <trkpt lat="41.797488033771515" lon="-3.034930983558297">
        <ele>1116.279</ele>
        <time>2021-07-10T11:14:19Z</time>
      </trkpt>
      <trkpt lat="41.79769397713244" lon="-3.035245975479484">
        <ele>1117.182</ele>
        <time>2021-07-10T11:14:21Z</time>
      </trkpt>
      <trkpt lat="41.797895980998874" lon="-3.035592986270785">
        <ele>1117.7159999999999</ele>
        <time>2021-07-10T11:14:22Z</time>
      </trkpt>
      <trkpt lat="41.79799597710371" lon="-3.035786021500826">
        <ele>1118.845</ele>
        <time>2021-07-10T11:14:23Z</time>
      </trkpt>
      <trkpt lat="41.798160010948777" lon="-3.036157004535198">
        <ele>1120.018</ele>
        <time>2021-07-10T11:14:24Z</time>
      </trkpt>
      <trkpt lat="41.798242991790175" lon="-3.036369988694787">
        <ele>1122.098</ele>
        <time>2021-07-10T11:14:26Z</time>
      </trkpt>
      <trkpt lat="41.798324966803193" lon="-3.036591019481421">
        <ele>1123.0170000000001</ele>
        <time>2021-07-10T11:14:27Z</time>
      </trkpt>
      <trkpt lat="41.798412976786494" lon="-3.036835016682744">
        <ele>1124.308</ele>
        <time>2021-07-10T11:14:29Z</time>
      </trkpt>
      <trkpt lat="41.79857399314642" lon="-3.037297027185559">
        <ele>1124.848</ele>
        <time>2021-07-10T11:14:30Z</time>
      </trkpt>
      <trkpt lat="41.798753030598164" lon="-3.037799019366503">
        <ele>1124.8779999999999</ele>
        <time>2021-07-10T11:14:32Z</time>
      </trkpt>
      <trkpt lat="41.79894195869565" lon="-3.038338981568813">
        <ele>1124.3689999999999</ele>
        <time>2021-07-10T11:14:33Z</time>
      </trkpt>
      <trkpt lat="41.799145974218845" lon="-3.038895037025213">
        <ele>1124.7149999999999</ele>
        <time>2021-07-10T11:14:35Z</time>
      </trkpt>
      <trkpt lat="41.799378991127014" lon="-3.039417983964086">
        <ele>1123.9570000000001</ele>
        <time>2021-07-10T11:14:37Z</time>
      </trkpt>
      <trkpt lat="41.799660036340356" lon="-3.03985602222383">
        <ele>1122.6500000000001</ele>
        <time>2021-07-10T11:14:39Z</time>
      </trkpt>
      <trkpt lat="41.800000006332994" lon="-3.04026497527957">
        <ele>1121.3140000000001</ele>
        <time>2021-07-10T11:14:40Z</time>
      </trkpt>
      <trkpt lat="41.800195975229144" lon="-3.040487011894584">
        <ele>1119.893</ele>
        <time>2021-07-10T11:14:41Z</time>
      </trkpt>
      <trkpt lat="41.800385992974043" lon="-3.040697984397411">
        <ele>1117.3910000000001</ele>
        <time>2021-07-10T11:14:43Z</time>
      </trkpt>
      <trkpt lat="41.800768040120602" lon="-3.041119007393718">
        <ele>1115.3810000000001</ele>
        <time>2021-07-10T11:14:44Z</time>
      </trkpt>
      <trkpt lat="41.801179004833102" lon="-3.041550004854798">
        <ele>1112.9190000000001</ele>
        <time>2021-07-10T11:14:46Z</time>
      </trkpt>
      <trkpt lat="41.801586030051112" lon="-3.04196298122406">
        <ele>1109.808</ele>
        <time>2021-07-10T11:14:48Z</time>
      </trkpt>
      <trkpt lat="41.80194896645844" lon="-3.042408982291818">
        <ele>1107.576</ele>
        <time>2021-07-10T11:14:49Z</time>
      </trkpt>
      <trkpt lat="41.802253983914852" lon="-3.042922038584948">
        <ele>1105.7560000000001</ele>
        <time>2021-07-10T11:14:50Z</time>
      </trkpt>
      <trkpt lat="41.802503010258079" lon="-3.043503994122148">
        <ele>1104.4770000000001</ele>
        <time>2021-07-10T11:14:52Z</time>
      </trkpt>
      <trkpt lat="41.802719011902809" lon="-3.044124003499746">
        <ele>1103.223</ele>
        <time>2021-07-10T11:14:54Z</time>
      </trkpt>
      <trkpt lat="41.802837029099464" lon="-3.044461961835623">
        <ele>1102.4449999999999</ele>
        <time>2021-07-10T11:14:55Z</time>
      </trkpt>
      <trkpt lat="41.803056970238686" lon="-3.045079037547112">
        <ele>1100.8579999999999</ele>
        <time>2021-07-10T11:14:57Z</time>
      </trkpt>
      <trkpt lat="41.803175993263721" lon="-3.045404003933072">
        <ele>1099.3520000000001</ele>
        <time>2021-07-10T11:14:59Z</time>
      </trkpt>
      <trkpt lat="41.803428959101439" lon="-3.046076986938715">
        <ele>1097.971</ele>
        <time>2021-07-10T11:15:00Z</time>
      </trkpt>
      <trkpt lat="41.80366700515151" lon="-3.046696996316314">
        <ele>1096.6320000000001</ele>
        <time>2021-07-10T11:15:01Z</time>
      </trkpt>
      <trkpt lat="41.803786028176546" lon="-3.047012994065881">
        <ele>1095.2919999999999</ele>
        <time>2021-07-10T11:15:02Z</time>
      </trkpt>
      <trkpt lat="41.803899016231298" lon="-3.047319017350674">
        <ele>1093.711</ele>
        <time>2021-07-10T11:15:04Z</time>
      </trkpt>
      <trkpt lat="41.804017033427954" lon="-3.047636020928621">
        <ele>1092.6079999999999</ele>
        <time>2021-07-10T11:15:05Z</time>
      </trkpt>
      <trkpt lat="41.804223982617259" lon="-3.048181012272835">
        <ele>1091.0699999999999</ele>
        <time>2021-07-10T11:15:07Z</time>
      </trkpt>
      <trkpt lat="41.804330013692379" lon="-3.048454010859132">
        <ele>1089.3199999999999</ele>
        <time>2021-07-10T11:15:09Z</time>
      </trkpt>
      <trkpt lat="41.80456998758018" lon="-3.049001013860107">
        <ele>1088.271</ele>
        <time>2021-07-10T11:15:10Z</time>
      </trkpt>
      <trkpt lat="41.80469898506999" lon="-3.049251968041062">
        <ele>1087.627</ele>
        <time>2021-07-10T11:15:12Z</time>
      </trkpt>
      <trkpt lat="41.804978018626571" lon="-3.049727976322174">
        <ele>1087.1489999999999</ele>
        <time>2021-07-10T11:15:13Z</time>
      </trkpt>
      <trkpt lat="41.805146997794509" lon="-3.049967028200626">
        <ele>1086.3219999999999</ele>
        <time>2021-07-10T11:15:15Z</time>
      </trkpt>
      <trkpt lat="41.805524015799165" lon="-3.050401965156198">
        <ele>1084.5360000000001</ele>
        <time>2021-07-10T11:15:17Z</time>
      </trkpt>
      <trkpt lat="41.805791985243559" lon="-3.050990039482713">
        <ele>1081.865</ele>
        <time>2021-07-10T11:15:19Z</time>
      </trkpt>
      <trkpt lat="41.806089039891958" lon="-3.051532013341785">
        <ele>1079.4590000000001</ele>
        <time>2021-07-10T11:15:21Z</time>
      </trkpt>
      <trkpt lat="41.806236980482936" lon="-3.051798976957798">
        <ele>1077.1030000000001</ele>
        <time>2021-07-10T11:15:22Z</time>
      </trkpt>
      <trkpt lat="41.806387016549706" lon="-3.052063006907702">
        <ele>1075.5229999999999</ele>
        <time>2021-07-10T11:15:23Z</time>
      </trkpt>
      <trkpt lat="41.806691028177738" lon="-3.05257698521018">
        <ele>1074.508</ele>
        <time>2021-07-10T11:15:25Z</time>
      </trkpt>
      <trkpt lat="41.806845003738999" lon="-3.052831962704659">
        <ele>1073.3119999999999</ele>
        <time>2021-07-10T11:15:26Z</time>
      </trkpt>
      <trkpt lat="41.807152032852173" lon="-3.053335966542363">
        <ele>1073.1120000000001</ele>
        <time>2021-07-10T11:15:28Z</time>
      </trkpt>
      <trkpt lat="41.807456966489553" lon="-3.053852962329984">
        <ele>1071.963</ele>
        <time>2021-07-10T11:15:30Z</time>
      </trkpt>
      <trkpt lat="41.807611025869846" lon="-3.054107017815113">
        <ele>1070.739</ele>
        <time>2021-07-10T11:15:32Z</time>
      </trkpt>
      <trkpt lat="41.807767013087869" lon="-3.054363001137972">
        <ele>1069.451</ele>
        <time>2021-07-10T11:15:34Z</time>
      </trkpt>
      <trkpt lat="41.808072030544281" lon="-3.05487496778369">
        <ele>1067.7940000000001</ele>
        <time>2021-07-10T11:15:35Z</time>
      </trkpt>
      <trkpt lat="41.808333965018392" lon="-3.055429011583328">
        <ele>1066.4280000000001</ele>
        <time>2021-07-10T11:15:36Z</time>
      </trkpt>
      <trkpt lat="41.808487018570304" lon="-3.055697986856103">
        <ele>1065.537</ele>
        <time>2021-07-10T11:15:38Z</time>
      </trkpt>
      <trkpt lat="41.80882497690618" lon="-3.056233003735542">
        <ele>1063.875</ele>
        <time>2021-07-10T11:15:40Z</time>
      </trkpt>
      <trkpt lat="41.80916503071785" lon="-3.056777995079756">
        <ele>1062.4280000000001</ele>
        <time>2021-07-10T11:15:41Z</time>
      </trkpt>
      <trkpt lat="41.809334009885788" lon="-3.057059040293098">
        <ele>1060.72</ele>
        <time>2021-07-10T11:15:43Z</time>
      </trkpt>
      <trkpt lat="41.809502989053726" lon="-3.057346036657691">
        <ele>1058.508</ele>
        <time>2021-07-10T11:15:45Z</time>
      </trkpt>
      <trkpt lat="41.809672974050045" lon="-3.057639990001917">
        <ele>1056.5239999999999</ele>
        <time>2021-07-10T11:15:46Z</time>
      </trkpt>
      <trkpt lat="41.810044040903449" lon="-3.058234015479684">
        <ele>1055.2639999999999</ele>
        <time>2021-07-10T11:15:47Z</time>
      </trkpt>
      <trkpt lat="41.810242021456361" lon="-3.058534003794193">
        <ele>1054.5250000000001</ele>
        <time>2021-07-10T11:15:49Z</time>
      </trkpt>
      <trkpt lat="41.810601018369198" lon="-3.059124005958438">
        <ele>1054.0809999999999</ele>
        <time>2021-07-10T11:15:51Z</time>
      </trkpt>
      <trkpt lat="41.810926990583539" lon="-3.05970897898078">
        <ele>1054.163</ele>
        <time>2021-07-10T11:15:53Z</time>
      </trkpt>
      <trkpt lat="41.811087001115084" lon="-3.060007961466909">
        <ele>1054.1859999999999</ele>
        <time>2021-07-10T11:15:54Z</time>
      </trkpt>
      <trkpt lat="41.811392018571496" lon="-3.060599975287914">
        <ele>1054.02</ele>
        <time>2021-07-10T11:15:56Z</time>
      </trkpt>
      <trkpt lat="41.811539037153125" lon="-3.060895018279553">
        <ele>1053.3889999999999</ele>
        <time>2021-07-10T11:15:58Z</time>
      </trkpt>
      <trkpt lat="41.811801977455616" lon="-3.061472028493881">
        <ele>1052.559</ele>
        <time>2021-07-10T11:16:00Z</time>
      </trkpt>
      <trkpt lat="41.812076987698674" lon="-3.062044009566307">
        <ele>1051.8030000000001</ele>
        <time>2021-07-10T11:16:01Z</time>
      </trkpt>
      <trkpt lat="41.812359038740396" lon="-3.062601992860436">
        <ele>1050.723</ele>
        <time>2021-07-10T11:16:02Z</time>
      </trkpt>
      <trkpt lat="41.812661960721016" lon="-3.063151007518172">
        <ele>1049.508</ele>
        <time>2021-07-10T11:16:04Z</time>
      </trkpt>
      <trkpt lat="41.812819037586451" lon="-3.063430963084102">
        <ele>1047.3520000000001</ele>
        <time>2021-07-10T11:16:06Z</time>
      </trkpt>
      <trkpt lat="41.812978964298964" lon="-3.063713014125824">
        <ele>1045.922</ele>
        <time>2021-07-10T11:16:08Z</time>
      </trkpt>
      <trkpt lat="41.813320023939013" lon="-3.064283989369869">
        <ele>1044.133</ele>
        <time>2021-07-10T11:16:09Z</time>
      </trkpt>
      <trkpt lat="41.813496965914965" lon="-3.064568974077702">
        <ele>1042.519</ele>
        <time>2021-07-10T11:16:10Z</time>
      </trkpt>
      <trkpt lat="41.813854034990072" lon="-3.065138021484017">
        <ele>1041.921</ele>
        <time>2021-07-10T11:16:11Z</time>
      </trkpt>
      <trkpt lat="41.814247984439135" lon="-3.065644958987832">
        <ele>1041.144</ele>
        <time>2021-07-10T11:16:13Z</time>
      </trkpt>
      <trkpt lat="41.814672024920583" lon="-3.06604796089232">
        <ele>1040.318</ele>
        <time>2021-07-10T11:16:15Z</time>
      </trkpt>
      <trkpt lat="41.815135963261127" lon="-3.06639002636075">
        <ele>1039.587</ele>
        <time>2021-07-10T11:16:16Z</time>
      </trkpt>
      <trkpt lat="41.815393036231399" lon="-3.066523969173431">
        <ele>1039.0219999999999</ele>
        <time>2021-07-10T11:16:17Z</time>
      </trkpt>
      <trkpt lat="41.81567600928247" lon="-3.066649027168751">
        <ele>1037.962</ele>
        <time>2021-07-10T11:16:19Z</time>
      </trkpt>
      <trkpt lat="41.816199962049723" lon="-3.066873997449875">
        <ele>1036.7080000000001</ele>
        <time>2021-07-10T11:16:21Z</time>
      </trkpt>
      <trkpt lat="41.81673196144402" lon="-3.067134004086256">
        <ele>1035.4079999999999</ele>
        <time>2021-07-10T11:16:22Z</time>
      </trkpt>
      <trkpt lat="41.816990962252021" lon="-3.067279011011124">
        <ele>1033.759</ele>
        <time>2021-07-10T11:16:24Z</time>
      </trkpt>
      <trkpt lat="41.817471999675035" lon="-3.067623004317284">
        <ele>1033.539</ele>
        <time>2021-07-10T11:16:26Z</time>
      </trkpt>
      <trkpt lat="41.817953959107399" lon="-3.068003039807081">
        <ele>1033.71</ele>
        <time>2021-07-10T11:16:27Z</time>
      </trkpt>
      <trkpt lat="41.818203991279006" lon="-3.068158021196723">
        <ele>1033.336</ele>
        <time>2021-07-10T11:16:29Z</time>
      </trkpt>
      <trkpt lat="41.818463997915387" lon="-3.068279977887869">
        <ele>1033.318</ele>
        <time>2021-07-10T11:16:31Z</time>
      </trkpt>
      <trkpt lat="41.818913016468287" lon="-3.068438982591033">
        <ele>1033.6510000000001</ele>
        <time>2021-07-10T11:16:32Z</time>
      </trkpt>
      <trkpt lat="41.819343008100986" lon="-3.068592958152294">
        <ele>1034.7650000000001</ele>
        <time>2021-07-10T11:16:33Z</time>
      </trkpt>
      <trkpt lat="41.819722037762403" lon="-3.068728996440768">
        <ele>1035.194</ele>
        <time>2021-07-10T11:16:35Z</time>
      </trkpt>
      <trkpt lat="41.819909960031509" lon="-3.068822035565972">
        <ele>1035.6980000000001</ele>
        <time>2021-07-10T11:16:37Z</time>
      </trkpt>
      <trkpt lat="41.820278009399772" lon="-3.069067960605025">
        <ele>1036.0150000000001</ele>
        <time>2021-07-10T11:16:38Z</time>
      </trkpt>
      <trkpt lat="41.820606999099255" lon="-3.069398961961269">
        <ele>1036.9259999999999</ele>
        <time>2021-07-10T11:16:40Z</time>
      </trkpt>
      <trkpt lat="41.820914028212428" lon="-3.069829037413001">
        <ele>1037.4079999999999</ele>
        <time>2021-07-10T11:16:41Z</time>
      </trkpt>
      <trkpt lat="41.821060040965676" lon="-3.070078985765576">
        <ele>1038.046</ele>
        <time>2021-07-10T11:16:42Z</time>
      </trkpt>
      <trkpt lat="41.821200018748641" lon="-3.070336980745196">
        <ele>1037.816</ele>
        <time>2021-07-10T11:16:44Z</time>
      </trkpt>
      <trkpt lat="41.821473017334938" lon="-3.070837967097759">
        <ele>1037.827</ele>
        <time>2021-07-10T11:16:45Z</time>
      </trkpt>
      <trkpt lat="41.821750961244106" lon="-3.071326967328787">
        <ele>1037.5630000000001</ele>
        <time>2021-07-10T11:16:47Z</time>
      </trkpt>
      <trkpt lat="41.822024965658784" lon="-3.071788977831602">
        <ele>1037.855</ele>
        <time>2021-07-10T11:16:48Z</time>
      </trkpt>
      <trkpt lat="41.822163015604019" lon="-3.072001039981842">
        <ele>1038.1479999999999</ele>
        <time>2021-07-10T11:16:50Z</time>
      </trkpt>
      <trkpt lat="41.822299975901842" lon="-3.072188040241599">
        <ele>1038.162</ele>
        <time>2021-07-10T11:16:52Z</time>
      </trkpt>
      <trkpt lat="41.822438025847077" lon="-3.07236397638917">
        <ele>1038.481</ele>
        <time>2021-07-10T11:16:53Z</time>
      </trkpt>
      <trkpt lat="41.822710018604994" lon="-3.072634041309357">
        <ele>1038.8409999999999</ele>
        <time>2021-07-10T11:16:55Z</time>
      </trkpt>
      <trkpt lat="41.822973964735866" lon="-3.072838978841901">
        <ele>1038.8810000000001</ele>
        <time>2021-07-10T11:16:56Z</time>
      </trkpt>
      <trkpt lat="41.823116960003972" lon="-3.072919026017189">
        <ele>1038.9090000000001</ele>
        <time>2021-07-10T11:16:58Z</time>
      </trkpt>
      <trkpt lat="41.823276970535517" lon="-3.072989014908671">
        <ele>1039.1079999999999</ele>
        <time>2021-07-10T11:17:00Z</time>
      </trkpt>
      <trkpt lat="41.823586011305451" lon="-3.073070989921689">
        <ele>1039.1210000000001</ele>
        <time>2021-07-10T11:17:02Z</time>
      </trkpt>
      <trkpt lat="41.823893962427974" lon="-3.073108037933707">
        <ele>1039.441</ele>
        <time>2021-07-10T11:17:03Z</time>
      </trkpt>
      <trkpt lat="41.824057996273041" lon="-3.073111977428198">
        <ele>1039.712</ele>
        <time>2021-07-10T11:17:04Z</time>
      </trkpt>
      <trkpt lat="41.824324959889054" lon="-3.073105020448566">
        <ele>1039.828</ele>
        <time>2021-07-10T11:17:06Z</time>
      </trkpt>
      <trkpt lat="41.824534004554152" lon="-3.073077024891973">
        <ele>1039.8099999999999</ele>
        <time>2021-07-10T11:17:08Z</time>
      </trkpt>
      <trkpt lat="41.824628971517086" lon="-3.073059003800154">
        <ele>1040.173</ele>
        <time>2021-07-10T11:17:09Z</time>
      </trkpt>
      <trkpt lat="41.824796022847295" lon="-3.073021033778787">
        <ele>1040.1969999999999</ele>
        <time>2021-07-10T11:17:11Z</time>
      </trkpt>
      <trkpt lat="41.824986040592194" lon="-3.072991026565433">
        <ele>1040.4860000000001</ele>
        <time>2021-07-10T11:17:12Z</time>
      </trkpt>
      <trkpt lat="41.825092993676662" lon="-3.072970993816853">
        <ele>1040.9359999999999</ele>
        <time>2021-07-10T11:17:13Z</time>
      </trkpt>
      <trkpt lat="41.825196007266641" lon="-3.072948027402163">
        <ele>1041.317</ele>
        <time>2021-07-10T11:17:14Z</time>
      </trkpt>
      <trkpt lat="41.825404968112707" lon="-3.072893964126706">
        <ele>1041.518</ele>
        <time>2021-07-10T11:17:15Z</time>
      </trkpt>
      <trkpt lat="41.825642008334398" lon="-3.072824981063604">
        <ele>1041.308</ele>
        <time>2021-07-10T11:17:17Z</time>
      </trkpt>
      <trkpt lat="41.825761031359434" lon="-3.07279204018414">
        <ele>1041.5799999999999</ele>
        <time>2021-07-10T11:17:18Z</time>
      </trkpt>
      <trkpt lat="41.825990024954081" lon="-3.072722973302007">
        <ele>1041.24</ele>
        <time>2021-07-10T11:17:19Z</time>
      </trkpt>
      <trkpt lat="41.826102007180452" lon="-3.072683997452259">
        <ele>1041.1110000000001</ele>
        <time>2021-07-10T11:17:20Z</time>
      </trkpt>
      <trkpt lat="41.826216001063585" lon="-3.07264300994575">
        <ele>1040.787</ele>
        <time>2021-07-10T11:17:22Z</time>
      </trkpt>
      <trkpt lat="41.826404007151723" lon="-3.072546031326056">
        <ele>1040.6189999999999</ele>
        <time>2021-07-10T11:17:23Z</time>
      </trkpt>
      <trkpt lat="41.826488999649882" lon="-3.072461038827896">
        <ele>1040.212</ele>
        <time>2021-07-10T11:17:24Z</time>
      </trkpt>
      <trkpt lat="41.826600981876254" lon="-3.072202038019896">
        <ele>1039.866</ele>
        <time>2021-07-10T11:17:25Z</time>
      </trkpt>
      <trkpt lat="41.826636018231511" lon="-3.072055019438267">
        <ele>1039.585</ele>
        <time>2021-07-10T11:17:27Z</time>
      </trkpt>
      <trkpt lat="41.826689997687936" lon="-3.071774980053306">
        <ele>1039.2190000000001</ele>
        <time>2021-07-10T11:17:28Z</time>
      </trkpt>
      <trkpt lat="41.826732996851206" lon="-3.071498963981867">
        <ele>1038.9090000000001</ele>
        <time>2021-07-10T11:17:30Z</time>
      </trkpt>
      <trkpt lat="41.826748000457883" lon="-3.071357980370522">
        <ele>1038.7190000000001</ele>
        <time>2021-07-10T11:17:31Z</time>
      </trkpt>
      <trkpt lat="41.826775996014476" lon="-3.071085987612605">
        <ele>1038.308</ele>
        <time>2021-07-10T11:17:33Z</time>
      </trkpt>
      <trkpt lat="41.826789993792772" lon="-3.070943998172879">
        <ele>1037.9480000000001</ele>
        <time>2021-07-10T11:17:34Z</time>
      </trkpt>
      <trkpt lat="41.82682896964252" lon="-3.070647027343512">
        <ele>1037.4680000000001</ele>
        <time>2021-07-10T11:17:35Z</time>
      </trkpt>
      <trkpt lat="41.826876997947693" lon="-3.070359025150538">
        <ele>1037.239</ele>
        <time>2021-07-10T11:17:36Z</time>
      </trkpt>
      <trkpt lat="41.826951010152698" lon="-3.070061970502138">
        <ele>1037.075</ele>
        <time>2021-07-10T11:17:37Z</time>
      </trkpt>
      <trkpt lat="41.8270009662956" lon="-3.069916041567922">
        <ele>1036.857</ele>
        <time>2021-07-10T11:17:39Z</time>
      </trkpt>
      <trkpt lat="41.827054023742676" lon="-3.069758964702487">
        <ele>1037.02</ele>
        <time>2021-07-10T11:17:41Z</time>
      </trkpt>
      <trkpt lat="41.827153014019132" lon="-3.069472974166274">
        <ele>1037.5440000000001</ele>
        <time>2021-07-10T11:17:43Z</time>
      </trkpt>
      <trkpt lat="41.82725602760911" lon="-3.069185977801681">
        <ele>1039.7629999999999</ele>
        <time>2021-07-10T11:18:02Z</time>
      </trkpt>
      <trkpt lat="41.827313024550676" lon="-3.069038037210703">
        <ele>1040.752</ele>
        <time>2021-07-10T11:18:04Z</time>
      </trkpt>
      <trkpt lat="41.827406985685229" lon="-3.068781970068812">
        <ele>1041.453</ele>
        <time>2021-07-10T11:18:06Z</time>
      </trkpt>
      <trkpt lat="41.82745199650526" lon="-3.068652972579002">
        <ele>1041.6079999999999</ele>
        <time>2021-07-10T11:18:08Z</time>
      </trkpt>
      <trkpt lat="41.82749398984015" lon="-3.068526992574334">
        <ele>1041.508</ele>
        <time>2021-07-10T11:18:09Z</time>
      </trkpt>
      <trkpt lat="41.82753698900342" lon="-3.068397995084524">
        <ele>1041.0920000000001</ele>
        <time>2021-07-10T11:18:10Z</time>
      </trkpt>
      <trkpt lat="41.827576970681548" lon="-3.06828198954463">
        <ele>1040.3420000000001</ele>
        <time>2021-07-10T11:18:12Z</time>
      </trkpt>
      <trkpt lat="41.82764695957303" lon="-3.068080991506577">
        <ele>1039.643</ele>
        <time>2021-07-10T11:18:14Z</time>
      </trkpt>
      <trkpt lat="41.827678978443146" lon="-3.067989964038134">
        <ele>1039.799</ele>
        <time>2021-07-10T11:18:16Z</time>
      </trkpt>
      <trkpt lat="41.827710997313261" lon="-3.067899020388722">
        <ele>1040.0309999999999</ele>
        <time>2021-07-10T11:18:17Z</time>
      </trkpt>
      <trkpt lat="41.827741004526615" lon="-3.067818973213434">
        <ele>1040.4939999999999</ele>
        <time>2021-07-10T11:18:18Z</time>
      </trkpt>
      <trkpt lat="41.827802024781704" lon="-3.067661980167031">
        <ele>1040.1679999999999</ele>
        <time>2021-07-10T11:18:20Z</time>
      </trkpt>
      <trkpt lat="41.827839994803071" lon="-3.06757296435535">
        <ele>1040.087</ele>
        <time>2021-07-10T11:18:21Z</time>
      </trkpt>
      <trkpt lat="41.827882993966341" lon="-3.067477997392416">
        <ele>1040.213</ele>
        <time>2021-07-10T11:18:23Z</time>
      </trkpt>
      <trkpt lat="41.82792498730123" lon="-3.067384036257863">
        <ele>1041.5429999999999</ele>
        <time>2021-07-10T11:18:25Z</time>
      </trkpt>
      <trkpt lat="41.828002016991377" lon="-3.067199969664216">
        <ele>1042.2070000000001</ele>
        <time>2021-07-10T11:18:26Z</time>
      </trkpt>
      <trkpt lat="41.828045016154647" lon="-3.06709703989327">
        <ele>1042.4079999999999</ele>
        <time>2021-07-10T11:18:27Z</time>
      </trkpt>
      <trkpt lat="41.828129002824426" lon="-3.066911967471242">
        <ele>1042.9280000000001</ele>
        <time>2021-07-10T11:18:29Z</time>
      </trkpt>
      <trkpt lat="41.828179964795709" lon="-3.066811971366406">
        <ele>1042.848</ele>
        <time>2021-07-10T11:18:31Z</time>
      </trkpt>
      <trkpt lat="41.828295970335603" lon="-3.066651038825512">
        <ele>1043.1890000000001</ele>
        <time>2021-07-10T11:18:32Z</time>
      </trkpt>
      <trkpt lat="41.828360008075833" lon="-3.066576020792127">
        <ele>1043.5650000000001</ele>
        <time>2021-07-10T11:18:33Z</time>
      </trkpt>
      <trkpt lat="41.828423961997032" lon="-3.066507959738374">
        <ele>1044.037</ele>
        <time>2021-07-10T11:18:35Z</time>
      </trkpt>
      <trkpt lat="41.828491017222404" lon="-3.066451968625188">
        <ele>1044.4100000000001</ele>
        <time>2021-07-10T11:18:37Z</time>
      </trkpt>
      <trkpt lat="41.828565029427409" lon="-3.066396983340383">
        <ele>1044.5640000000001</ele>
        <time>2021-07-10T11:18:38Z</time>
      </trkpt>
      <trkpt lat="41.82869603857398" lon="-3.066334035247564">
        <ele>1045.2629999999999</ele>
        <time>2021-07-10T11:18:40Z</time>
      </trkpt>
      <trkpt lat="41.82882403023541" lon="-3.0663269944489">
        <ele>1046.027</ele>
        <time>2021-07-10T11:18:41Z</time>
      </trkpt>
      <trkpt lat="41.828908016905189" lon="-3.066334035247564">
        <ele>1046.8679999999999</ele>
        <time>2021-07-10T11:18:43Z</time>
      </trkpt>
      <trkpt lat="41.828966019675136" lon="-3.0663269944489">
        <ele>1047.7139999999999</ele>
        <time>2021-07-10T11:18:45Z</time>
      </trkpt>
      <trkpt lat="41.82901899330318" lon="-3.066265974193811">
        <ele>1048.308</ele>
        <time>2021-07-10T11:18:46Z</time>
      </trkpt>
      <trkpt lat="41.82904296554625" lon="-3.066185005009174">
        <ele>1048.6489999999999</ele>
        <time>2021-07-10T11:18:48Z</time>
      </trkpt>
      <trkpt lat="41.829057969152927" lon="-3.066098000854254">
        <ele>1049.249</ele>
        <time>2021-07-10T11:18:50Z</time>
      </trkpt>
      <trkpt lat="41.829068027436733" lon="-3.066037986427546">
        <ele>1049.75</ele>
        <time>2021-07-10T11:18:52Z</time>
      </trkpt>
      <trkpt lat="41.82908202521503" lon="-3.065972020849586">
        <ele>1049.626</ele>
        <time>2021-07-10T11:18:53Z</time>
      </trkpt>
      <trkpt lat="41.829110020771623" lon="-3.065825002267957">
        <ele>1050.1880000000001</ele>
        <time>2021-07-10T11:18:55Z</time>
      </trkpt>
      <trkpt lat="41.829134998843074" lon="-3.065688963979483">
        <ele>1050.5409999999999</ele>
        <time>2021-07-10T11:18:56Z</time>
      </trkpt>
      <trkpt lat="41.829155031591654" lon="-3.06557497009635">
        <ele>1050.7950000000001</ele>
        <time>2021-07-10T11:18:58Z</time>
      </trkpt>
      <trkpt lat="41.829162994399667" lon="-3.065512022003532">
        <ele>1050.944</ele>
        <time>2021-07-10T11:19:00Z</time>
      </trkpt>
      <trkpt lat="41.82916902936995" lon="-3.065428035333753">
        <ele>1050.9490000000001</ele>
        <time>2021-07-10T11:19:02Z</time>
      </trkpt>
      <trkpt lat="41.829173974692822" lon="-3.065229970961809">
        <ele>1050.8019999999999</ele>
        <time>2021-07-10T11:19:03Z</time>
      </trkpt>
      <trkpt lat="41.829180009663105" lon="-3.065112959593535">
        <ele>1050.8219999999999</ele>
        <time>2021-07-10T11:19:05Z</time>
      </trkpt>
      <trkpt lat="41.829187972471118" lon="-3.064851025119424">
        <ele>1050.808</ele>
        <time>2021-07-10T11:19:06Z</time>
      </trkpt>
      <trkpt lat="41.82919199578464" lon="-3.064580038189888">
        <ele>1050.8309999999999</ele>
        <time>2021-07-10T11:19:07Z</time>
      </trkpt>
      <trkpt lat="41.829196019098163" lon="-3.064430002123117">
        <ele>1050.991</ele>
        <time>2021-07-10T11:19:09Z</time>
      </trkpt>
      <trkpt lat="41.829205993562937" lon="-3.064266974106431">
        <ele>1051.452</ele>
        <time>2021-07-10T11:19:11Z</time>
      </trkpt>
      <trkpt lat="41.829237006604671" lon="-3.063953993842006">
        <ele>1051.748</ele>
        <time>2021-07-10T11:19:12Z</time>
      </trkpt>
      <trkpt lat="41.829285034909844" lon="-3.063612012192607">
        <ele>1052.01</ele>
        <time>2021-07-10T11:19:13Z</time>
      </trkpt>
      <trkpt lat="41.829317975789309" lon="-3.063426017761231">
        <ele>1052.1130000000001</ele>
        <time>2021-07-10T11:19:15Z</time>
      </trkpt>
      <trkpt lat="41.829344965517521" lon="-3.063254021108151">
        <ele>1052.087</ele>
        <time>2021-07-10T11:19:16Z</time>
      </trkpt>
      <trkpt lat="41.829387964680791" lon="-3.062907010316849">
        <ele>1052.4760000000001</ele>
        <time>2021-07-10T11:19:18Z</time>
      </trkpt>
      <trkpt lat="41.829434987157583" lon="-3.062519012019038">
        <ele>1052.7629999999999</ele>
        <time>2021-07-10T11:19:19Z</time>
      </trkpt>
      <trkpt lat="41.829458037391305" lon="-3.062326982617378">
        <ele>1053.2439999999999</ele>
        <time>2021-07-10T11:19:21Z</time>
      </trkpt>
      <trkpt lat="41.829502964392304" lon="-3.061942001804709">
        <ele>1053.818</ele>
        <time>2021-07-10T11:19:22Z</time>
      </trkpt>
      <trkpt lat="41.829527020454407" lon="-3.061734968796372">
        <ele>1054.2080000000001</ele>
        <time>2021-07-10T11:19:23Z</time>
      </trkpt>
      <trkpt lat="41.829576976597309" lon="-3.061329033225775">
        <ele>1054.3430000000001</ele>
        <time>2021-07-10T11:19:24Z</time>
      </trkpt>
      <trkpt lat="41.829632967710495" lon="-3.060915973037481">
        <ele>1054.373</ele>
        <time>2021-07-10T11:19:26Z</time>
      </trkpt>
      <trkpt lat="41.82966498658061" lon="-3.060706006363034">
        <ele>1054.3140000000001</ele>
        <time>2021-07-10T11:19:27Z</time>
      </trkpt>
      <trkpt lat="41.829761965200305" lon="-3.060291018337011">
        <ele>1054.26</ele>
        <time>2021-07-10T11:19:28Z</time>
      </trkpt>
      <trkpt lat="41.82989900931716" lon="-3.05992104113102">
        <ele>1054.1220000000001</ele>
        <time>2021-07-10T11:19:29Z</time>
      </trkpt>
      <trkpt lat="41.830058014020324" lon="-3.059543017297983">
        <ele>1054.345</ele>
        <time>2021-07-10T11:19:30Z</time>
      </trkpt>
      <trkpt lat="41.830145018175244" lon="-3.059334978461266">
        <ele>1054.539</ele>
        <time>2021-07-10T11:19:32Z</time>
      </trkpt>
      <trkpt lat="41.830301005393267" lon="-3.058949997648597">
        <ele>1054.598</ele>
        <time>2021-07-10T11:19:33Z</time>
      </trkpt>
      <trkpt lat="41.830381974577904" lon="-3.058746987953782">
        <ele>1054.9169999999999</ele>
        <time>2021-07-10T11:19:34Z</time>
      </trkpt>
      <trkpt lat="41.830553971230984" lon="-3.058329988270998">
        <ele>1055.4870000000001</ele>
        <time>2021-07-10T11:19:36Z</time>
      </trkpt>
      <trkpt lat="41.830713981762528" lon="-3.05792698636651">
        <ele>1055.5150000000001</ele>
        <time>2021-07-10T11:19:37Z</time>
      </trkpt>
      <trkpt lat="41.830892013385892" lon="-3.057490959763527">
        <ele>1055.9079999999999</ele>
        <time>2021-07-10T11:19:39Z</time>
      </trkpt>
      <trkpt lat="41.830986980348825" lon="-3.057249980047345">
        <ele>1056.1579999999999</ele>
        <time>2021-07-10T11:19:41Z</time>
      </trkpt>
      <trkpt lat="41.831158977001905" lon="-3.056814037263393">
        <ele>1056.338</ele>
        <time>2021-07-10T11:19:43Z</time>
      </trkpt>
      <trkpt lat="41.83125201612711" lon="-3.056587977334857">
        <ele>1056.3389999999999</ele>
        <time>2021-07-10T11:19:44Z</time>
      </trkpt>
      <trkpt lat="41.831348994746804" lon="-3.056368036195636">
        <ele>1056.385</ele>
        <time>2021-07-10T11:19:46Z</time>
      </trkpt>
      <trkpt lat="41.831591986119747" lon="-3.055971991270781">
        <ele>1056.527</ele>
        <time>2021-07-10T11:19:48Z</time>
      </trkpt>
      <trkpt lat="41.831895997747779" lon="-3.055716007947922">
        <ele>1056.8399999999999</ele>
        <time>2021-07-10T11:19:49Z</time>
      </trkpt>
      <trkpt lat="41.832058019936085" lon="-3.055590027943254">
        <ele>1056.874</ele>
        <time>2021-07-10T11:19:50Z</time>
      </trkpt>
      <trkpt lat="41.832218030467629" lon="-3.055447032675147">
        <ele>1056.943</ele>
        <time>2021-07-10T11:19:52Z</time>
      </trkpt>
      <trkpt lat="41.83247703127563" lon="-3.055122988298535">
        <ele>1057.049</ele>
        <time>2021-07-10T11:19:53Z</time>
      </trkpt>
      <trkpt lat="41.83260896243155" lon="-3.054935988038778">
        <ele>1056.8019999999999</ele>
        <time>2021-07-10T11:19:54Z</time>
      </trkpt>
      <trkpt lat="41.832856982946396" lon="-3.054521000012755">
        <ele>1057.0219999999999</ele>
        <time>2021-07-10T11:19:56Z</time>
      </trkpt>
      <trkpt lat="41.832967037335038" lon="-3.054286977276206">
        <ele>1057.308</ele>
        <time>2021-07-10T11:19:58Z</time>
      </trkpt>
      <trkpt lat="41.833129981532693" lon="-3.053808035328984">
        <ele>1058.1210000000001</ele>
        <time>2021-07-10T11:19:59Z</time>
      </trkpt>
      <trkpt lat="41.833194019272923" lon="-3.053545011207461">
        <ele>1058.8510000000001</ele>
        <time>2021-07-10T11:20:01Z</time>
      </trkpt>
      <trkpt lat="41.833239030092955" lon="-3.053268995136023">
        <ele>1059.492</ele>
        <time>2021-07-10T11:20:02Z</time>
      </trkpt>
      <trkpt lat="41.833271970972419" lon="-3.052978981286287">
        <ele>1059.8779999999999</ele>
        <time>2021-07-10T11:20:03Z</time>
      </trkpt>
      <trkpt lat="41.833306001499295" lon="-3.052432984113693">
        <ele>1060.3199999999999</ele>
        <time>2021-07-10T11:20:05Z</time>
      </trkpt>
      <trkpt lat="41.833315975964069" lon="-3.052141964435577">
        <ele>1060.943</ele>
        <time>2021-07-10T11:20:06Z</time>
      </trkpt>
      <trkpt lat="41.833324022591114" lon="-3.051853040233254">
        <ele>1061.6369999999999</ele>
        <time>2021-07-10T11:20:08Z</time>
      </trkpt>
      <trkpt lat="41.83333701454103" lon="-3.051571995019913">
        <ele>1062.4760000000001</ele>
        <time>2021-07-10T11:20:10Z</time>
      </trkpt>
      <trkpt lat="41.83335998095572" lon="-3.051289021968842">
        <ele>1063.0229999999999</ele>
        <time>2021-07-10T11:20:12Z</time>
      </trkpt>
      <trkpt lat="41.833454025909305" lon="-3.050737995654345">
        <ele>1063.7829999999999</ele>
        <time>2021-07-10T11:20:14Z</time>
      </trkpt>
      <trkpt lat="41.833522003144026" lon="-3.050460973754525">
        <ele>1063.711</ele>
        <time>2021-07-10T11:20:15Z</time>
      </trkpt>
      <trkpt lat="41.833601966500282" lon="-3.050165008753538">
        <ele>1063.7080000000001</ele>
        <time>2021-07-10T11:20:16Z</time>
      </trkpt>
      <trkpt lat="41.833758959546685" lon="-3.049624040722847">
        <ele>1063.6189999999999</ele>
        <time>2021-07-10T11:20:17Z</time>
      </trkpt>
      <trkpt lat="41.833843030035496" lon="-3.049336960539222">
        <ele>1063.989</ele>
        <time>2021-07-10T11:20:19Z</time>
      </trkpt>
      <trkpt lat="41.834012009203434" lon="-3.048759028315544">
        <ele>1064.3299999999999</ele>
        <time>2021-07-10T11:20:21Z</time>
      </trkpt>
      <trkpt lat="41.834163973107934" lon="-3.048230968415737">
        <ele>1065.076</ele>
        <time>2021-07-10T11:20:23Z</time>
      </trkpt>
      <trkpt lat="41.83432599529624" lon="-3.047670973464847">
        <ele>1065.768</ele>
        <time>2021-07-10T11:20:24Z</time>
      </trkpt>
      <trkpt lat="41.834416016936302" lon="-3.047374002635479">
        <ele>1066.271</ele>
        <time>2021-07-10T11:20:25Z</time>
      </trkpt>
      <trkpt lat="41.834574015811086" lon="-3.046834040433168">
        <ele>1066.575</ele>
        <time>2021-07-10T11:20:27Z</time>
      </trkpt>
      <trkpt lat="41.834752969443798" lon="-3.046274967491627">
        <ele>1067.2840000000001</ele>
        <time>2021-07-10T11:20:29Z</time>
      </trkpt>
      <trkpt lat="41.834867969155312" lon="-3.04598000831902">
        <ele>1067.3589999999999</ele>
        <time>2021-07-10T11:20:30Z</time>
      </trkpt>
      <trkpt lat="41.834981963038445" lon="-3.0457220133394">
        <ele>1067.403</ele>
        <time>2021-07-10T11:20:31Z</time>
      </trkpt>
      <trkpt lat="41.835208022966981" lon="-3.045224966481328">
        <ele>1067.923</ele>
        <time>2021-07-10T11:20:32Z</time>
      </trkpt>
      <trkpt lat="41.835328973829746" lon="-3.044966971501708">
        <ele>1068.1079999999999</ele>
        <time>2021-07-10T11:20:33Z</time>
      </trkpt>
      <trkpt lat="41.835455959662795" lon="-3.04469003342092">
        <ele>1068.162</ele>
        <time>2021-07-10T11:20:35Z</time>
      </trkpt>
      <trkpt lat="41.835651006549597" lon="-3.044174965471029">
        <ele>1068.3520000000001</ele>
        <time>2021-07-10T11:20:36Z</time>
      </trkpt>
      <trkpt lat="41.835790984332561" lon="-3.043585969135165">
        <ele>1068.3430000000001</ele>
        <time>2021-07-10T11:20:38Z</time>
      </trkpt>
      <trkpt lat="41.835841024294496" lon="-3.043253039941192">
        <ele>1068.229</ele>
        <time>2021-07-10T11:20:40Z</time>
      </trkpt>
      <trkpt lat="41.835899027064443" lon="-3.04264803417027">
        <ele>1068.3209999999999</ele>
        <time>2021-07-10T11:20:41Z</time>
      </trkpt>
      <trkpt lat="41.835925010964274" lon="-3.042317032814026">
        <ele>1068.5440000000001</ele>
        <time>2021-07-10T11:20:42Z</time>
      </trkpt>
      <trkpt lat="41.835954012349248" lon="-3.04196298122406">
        <ele>1068.6980000000001</ele>
        <time>2021-07-10T11:20:44Z</time>
      </trkpt>
      <trkpt lat="41.836014026775956" lon="-3.041309025138617">
        <ele>1069.0170000000001</ele>
        <time>2021-07-10T11:20:45Z</time>
      </trkpt>
      <trkpt lat="41.836045039817691" lon="-3.040975006297231">
        <ele>1069.492</ele>
        <time>2021-07-10T11:20:47Z</time>
      </trkpt>
      <trkpt lat="41.836102036759257" lon="-3.040325995534658">
        <ele>1069.0730000000001</ele>
        <time>2021-07-10T11:20:49Z</time>
      </trkpt>
      <trkpt lat="41.836157022044063" lon="-3.039681008085609">
        <ele>1069.52</ele>
        <time>2021-07-10T11:20:51Z</time>
      </trkpt>
      <trkpt lat="41.836209995672107" lon="-3.039050018414855">
        <ele>1069.6079999999999</ele>
        <time>2021-07-10T11:20:53Z</time>
      </trkpt>
      <trkpt lat="41.83626196347177" lon="-3.038421040400863">
        <ele>1070.0360000000001</ele>
        <time>2021-07-10T11:20:54Z</time>
      </trkpt>
      <trkpt lat="41.836290964856744" lon="-3.038093978539109">
        <ele>1070.596</ele>
        <time>2021-07-10T11:20:56Z</time>
      </trkpt>
      <trkpt lat="41.83632398955524" lon="-3.037769012153149">
        <ele>1071.1769999999999</ele>
        <time>2021-07-10T11:20:57Z</time>
      </trkpt>
      <trkpt lat="41.836363971233368" lon="-3.037431975826621">
        <ele>1071.9929999999999</ele>
        <time>2021-07-10T11:20:59Z</time>
      </trkpt>
      <trkpt lat="41.83645399287343" lon="-3.036796962842345">
        <ele>1072.145</ele>
        <time>2021-07-10T11:21:00Z</time>
      </trkpt>
      <trkpt lat="41.836567986756563" lon="-3.036163961514831">
        <ele>1072.6279999999999</ele>
        <time>2021-07-10T11:21:02Z</time>
      </trkpt>
      <trkpt lat="41.836687009781599" lon="-3.035556022077799">
        <ele>1073.2719999999999</ele>
        <time>2021-07-10T11:21:04Z</time>
      </trkpt>
      <trkpt lat="41.836748030036688" lon="-3.035240024328232">
        <ele>1073.8910000000001</ele>
        <time>2021-07-10T11:21:06Z</time>
      </trkpt>
      <trkpt lat="41.836811983957887" lon="-3.034909022971988">
        <ele>1074.1579999999999</ele>
        <time>2021-07-10T11:21:07Z</time>
      </trkpt>
      <trkpt lat="41.836921032518148" lon="-3.03433301858604">
        <ele>1074.652</ele>
        <time>2021-07-10T11:21:08Z</time>
      </trkpt>
      <trkpt lat="41.837053969502449" lon="-3.03375399671495">
        <ele>1075.2170000000001</ele>
        <time>2021-07-10T11:21:10Z</time>
      </trkpt>
      <trkpt lat="41.837137034162879" lon="-3.033474963158369">
        <ele>1075.9079999999999</ele>
        <time>2021-07-10T11:21:11Z</time>
      </trkpt>
      <trkpt lat="41.837235018610954" lon="-3.033202970400453">
        <ele>1076.1220000000001</ele>
        <time>2021-07-10T11:21:12Z</time>
      </trkpt>
      <trkpt lat="41.837343983352184" lon="-3.03293701261282">
        <ele>1076.3320000000001</ele>
        <time>2021-07-10T11:21:14Z</time>
      </trkpt>
      <trkpt lat="41.837458983063698" lon="-3.032677005976439">
        <ele>1076.923</ele>
        <time>2021-07-10T11:21:15Z</time>
      </trkpt>
      <trkpt lat="41.837713960558176" lon="-3.032131008803845">
        <ele>1077.6890000000001</ele>
        <time>2021-07-10T11:21:17Z</time>
      </trkpt>
      <trkpt lat="41.837836001068354" lon="-3.031873013824225">
        <ele>1077.8510000000001</ele>
        <time>2021-07-10T11:21:19Z</time>
      </trkpt>
      <trkpt lat="41.838096007704735" lon="-3.031355012208223">
        <ele>1078.684</ele>
        <time>2021-07-10T11:21:21Z</time>
      </trkpt>
      <trkpt lat="41.838390966877341" lon="-3.030826030299068">
        <ele>1079.1880000000001</ele>
        <time>2021-07-10T11:21:22Z</time>
      </trkpt>
      <trkpt lat="41.838539997115731" lon="-3.030564012005925">
        <ele>1079.6569999999999</ele>
        <time>2021-07-10T11:21:24Z</time>
      </trkpt>
      <trkpt lat="41.838688021525741" lon="-3.030310962349176">
        <ele>1080.4190000000001</ele>
        <time>2021-07-10T11:21:26Z</time>
      </trkpt>
      <trkpt lat="41.838974012061954" lon="-3.029815005138516">
        <ele>1080.809</ele>
        <time>2021-07-10T11:21:27Z</time>
      </trkpt>
      <trkpt lat="41.839108960703015" lon="-3.029538989067078">
        <ele>1081.4190000000001</ele>
        <time>2021-07-10T11:21:28Z</time>
      </trkpt>
      <trkpt lat="41.83928900398314" lon="-3.028976982459426">
        <ele>1082.6079999999999</ele>
        <time>2021-07-10T11:21:30Z</time>
      </trkpt>
      <trkpt lat="41.839412972331047" lon="-3.028377005830407">
        <ele>1083.9680000000001</ele>
        <time>2021-07-10T11:21:32Z</time>
      </trkpt>
      <trkpt lat="41.839540963992476" lon="-3.027726989239454">
        <ele>1085.068</ele>
        <time>2021-07-10T11:21:33Z</time>
      </trkpt>
      <trkpt lat="41.839658981189132" lon="-3.027131035923958">
        <ele>1085.729</ele>
        <time>2021-07-10T11:21:35Z</time>
      </trkpt>
      <trkpt lat="41.839716983959079" lon="-3.026821995154023">
        <ele>1086.5450000000001</ele>
        <time>2021-07-10T11:21:36Z</time>
      </trkpt>
      <trkpt lat="41.839836006984115" lon="-3.02621497772634">
        <ele>1087.027</ele>
        <time>2021-07-10T11:21:38Z</time>
      </trkpt>
      <trkpt lat="41.839900966733694" lon="-3.025895040482283">
        <ele>1086.6199999999999</ele>
        <time>2021-07-10T11:21:40Z</time>
      </trkpt>
      <trkpt lat="41.840016972273588" lon="-3.02531199529767">
        <ele>1086.7439999999999</ele>
        <time>2021-07-10T11:21:41Z</time>
      </trkpt>
      <trkpt lat="41.840061983093619" lon="-3.025012006983161">
        <ele>1087.433</ele>
        <time>2021-07-10T11:21:42Z</time>
      </trkpt>
      <trkpt lat="41.840095007792115" lon="-3.024376993998885">
        <ele>1087.3489999999999</ele>
        <time>2021-07-10T11:21:43Z</time>
      </trkpt>
      <trkpt lat="41.840043039992452" lon="-3.023786991834641">
        <ele>1087.502</ele>
        <time>2021-07-10T11:21:45Z</time>
      </trkpt>
      <trkpt lat="41.839951006695628" lon="-3.023172011598945">
        <ele>1087.722</ele>
        <time>2021-07-10T11:21:46Z</time>
      </trkpt>
      <trkpt lat="41.839909013360739" lon="-3.022860959172249">
        <ele>1087.808</ele>
        <time>2021-07-10T11:21:48Z</time>
      </trkpt>
      <trkpt lat="41.839867020025849" lon="-3.022547978907824">
        <ele>1087.991</ele>
        <time>2021-07-10T11:21:49Z</time>
      </trkpt>
      <trkpt lat="41.839785967022181" lon="-3.021928975358605">
        <ele>1088.0509999999999</ele>
        <time>2021-07-10T11:21:51Z</time>
      </trkpt>
      <trkpt lat="41.839744979515672" lon="-3.021613983437419">
        <ele>1087.942</ele>
        <time>2021-07-10T11:21:52Z</time>
      </trkpt>
      <trkpt lat="41.839701980352402" lon="-3.021279964596033">
        <ele>1088.098</ele>
        <time>2021-07-10T11:21:53Z</time>
      </trkpt>
      <trkpt lat="41.839624028652906" lon="-3.02069197408855">
        <ele>1087.8299999999999</ele>
        <time>2021-07-10T11:21:54Z</time>
      </trkpt>
      <trkpt lat="41.839585974812508" lon="-3.020382011309266">
        <ele>1088.213</ele>
        <time>2021-07-10T11:21:56Z</time>
      </trkpt>
      <trkpt lat="41.839509028941393" lon="-3.019748004153371">
        <ele>1088.557</ele>
        <time>2021-07-10T11:21:57Z</time>
      </trkpt>
      <trkpt lat="41.83943803422153" lon="-3.01916697062552">
        <ele>1088.9259999999999</ele>
        <time>2021-07-10T11:21:58Z</time>
      </trkpt>
      <trkpt lat="41.839356981217861" lon="-3.018569005653262">
        <ele>1089.6590000000001</ele>
        <time>2021-07-10T11:21:59Z</time>
      </trkpt>
      <trkpt lat="41.839308030903339" lon="-3.018268011510372">
        <ele>1089.903</ele>
        <time>2021-07-10T11:22:01Z</time>
      </trkpt>
      <trkpt lat="41.839172998443246" lon="-3.017718996852636">
        <ele>1090.123</ele>
        <time>2021-07-10T11:22:02Z</time>
      </trkpt>
      <trkpt lat="41.838955990970135" lon="-3.017209963873029">
        <ele>1090.6079999999999</ele>
        <time>2021-07-10T11:22:03Z</time>
      </trkpt>
      <trkpt lat="41.838830010965466" lon="-3.016972001641989">
        <ele>1091.0219999999999</ele>
        <time>2021-07-10T11:22:04Z</time>
      </trkpt>
      <trkpt lat="41.838691961020231" lon="-3.016725992783904">
        <ele>1091.722</ele>
        <time>2021-07-10T11:22:06Z</time>
      </trkpt>
      <trkpt lat="41.838440001010895" lon="-3.01628602668643">
        <ele>1092.3530000000001</ele>
        <time>2021-07-10T11:22:07Z</time>
      </trkpt>
      <trkpt lat="41.838190974667668" lon="-3.015860980376601">
        <ele>1092.6690000000001</ele>
        <time>2021-07-10T11:22:09Z</time>
      </trkpt>
      <trkpt lat="41.838073041290045" lon="-3.015668028965592">
        <ele>1092.8810000000001</ele>
        <time>2021-07-10T11:22:11Z</time>
      </trkpt>
      <trkpt lat="41.837914036586881" lon="-3.01536301150918">
        <ele>1092.9639999999999</ele>
        <time>2021-07-10T11:22:13Z</time>
      </trkpt>
      <trkpt lat="41.837857039645314" lon="-3.015211969614029">
        <ele>1093.028</ele>
        <time>2021-07-10T11:22:14Z</time>
      </trkpt>
      <trkpt lat="41.837769029662013" lon="-3.014895971864462">
        <ele>1093.617</ele>
        <time>2021-07-10T11:22:16Z</time>
      </trkpt>
      <trkpt lat="41.837707003578544" lon="-3.014564970508218">
        <ele>1094.6980000000001</ele>
        <time>2021-07-10T11:22:18Z</time>
      </trkpt>
      <trkpt lat="41.837675990536809" lon="-3.01437302492559">
        <ele>1095.2149999999999</ele>
        <time>2021-07-10T11:22:19Z</time>
      </trkpt>
      <trkpt lat="41.837645983323455" lon="-3.014170015230775">
        <ele>1096.2260000000001</ele>
        <time>2021-07-10T11:22:21Z</time>
      </trkpt>
      <trkpt lat="41.83761396445334" lon="-3.013944961130619">
        <ele>1097.2080000000001</ele>
        <time>2021-07-10T11:22:23Z</time>
      </trkpt>
      <trkpt lat="41.837556967511773" lon="-3.013523016124964">
        <ele>1097.9459999999999</ele>
        <time>2021-07-10T11:22:24Z</time>
      </trkpt>
      <trkpt lat="41.837524026632309" lon="-3.013297040015459">
        <ele>1098.7260000000001</ele>
        <time>2021-07-10T11:22:26Z</time>
      </trkpt>
      <trkpt lat="41.83746300637722" lon="-3.012851038947702">
        <ele>1099.547</ele>
        <time>2021-07-10T11:22:27Z</time>
      </trkpt>
      <trkpt lat="41.837436016649008" lon="-3.012643000110984">
        <ele>1099.5930000000001</ele>
        <time>2021-07-10T11:22:29Z</time>
      </trkpt>
      <trkpt lat="41.837387988343835" lon="-3.012258019298315">
        <ele>1099.5450000000001</ele>
        <time>2021-07-10T11:22:31Z</time>
      </trkpt>
      <trkpt lat="41.837364016100764" lon="-3.012065989896655">
        <ele>1099.548</ele>
        <time>2021-07-10T11:22:32Z</time>
      </trkpt>
      <trkpt lat="41.837341971695423" lon="-3.011871026828885">
        <ele>1099.8820000000001</ele>
        <time>2021-07-10T11:22:34Z</time>
      </trkpt>
      <trkpt lat="41.837321016937494" lon="-3.01168997772038">
        <ele>1099.8610000000001</ele>
        <time>2021-07-10T11:22:35Z</time>
      </trkpt>
      <trkpt lat="41.837282963097095" lon="-3.011354031041265">
        <ele>1099.7360000000001</ele>
        <time>2021-07-10T11:22:37Z</time>
      </trkpt>
      <trkpt lat="41.837264019995928" lon="-3.011181028559804">
        <ele>1099.9169999999999</ele>
        <time>2021-07-10T11:22:39Z</time>
      </trkpt>
      <trkpt lat="41.837243987247348" lon="-3.011000985279679">
        <ele>1099.9179999999999</ele>
        <time>2021-07-10T11:22:40Z</time>
      </trkpt>
      <trkpt lat="41.837225966155529" lon="-3.010836029425263">
        <ele>1099.6079999999999</ele>
        <time>2021-07-10T11:22:42Z</time>
      </trkpt>
      <trkpt lat="41.837191013619304" lon="-3.010512990877032">
        <ele>1099.3900000000001</ele>
        <time>2021-07-10T11:22:43Z</time>
      </trkpt>
      <trkpt lat="41.837171986699104" lon="-3.010337976738811">
        <ele>1099.6900000000001</ele>
        <time>2021-07-10T11:22:44Z</time>
      </trkpt>
      <trkpt lat="41.837151031941175" lon="-3.010160028934479">
        <ele>1099.4110000000001</ele>
        <time>2021-07-10T11:22:46Z</time>
      </trkpt>
      <trkpt lat="41.837129993364215" lon="-3.009988032281399">
        <ele>1098.9770000000001</ele>
        <time>2021-07-10T11:22:48Z</time>
      </trkpt>
      <trkpt lat="41.83709504082799" lon="-3.009685026481748">
        <ele>1098.9390000000001</ele>
        <time>2021-07-10T11:22:49Z</time>
      </trkpt>
      <trkpt lat="41.837079031392932" lon="-3.009534990414977">
        <ele>1099.2919999999999</ele>
        <time>2021-07-10T11:22:51Z</time>
      </trkpt>
      <trkpt lat="41.837051035836339" lon="-3.009256040677428">
        <ele>1099.1759999999999</ele>
        <time>2021-07-10T11:22:53Z</time>
      </trkpt>
      <trkpt lat="41.837025973945856" lon="-3.009016988798976">
        <ele>1099.2650000000001</ele>
        <time>2021-07-10T11:22:54Z</time>
      </trkpt>
      <trkpt lat="41.836999990046024" lon="-3.008770979940891">
        <ele>1099.1780000000001</ele>
        <time>2021-07-10T11:22:55Z</time>
      </trkpt>
      <trkpt lat="41.836985992267728" lon="-3.00863703712821">
        <ele>1099.433</ele>
        <time>2021-07-10T11:22:57Z</time>
      </trkpt>
      <trkpt lat="41.836953973397613" lon="-3.008376024663448">
        <ele>1100.126</ele>
        <time>2021-07-10T11:22:58Z</time>
      </trkpt>
      <trkpt lat="41.836918015033007" lon="-3.008077964186668">
        <ele>1100.6079999999999</ele>
        <time>2021-07-10T11:23:00Z</time>
      </trkpt>
      <trkpt lat="41.836900999769568" lon="-3.007914014160633">
        <ele>1101.174</ele>
        <time>2021-07-10T11:23:02Z</time>
      </trkpt>
      <trkpt lat="41.836866969242692" lon="-3.007574966177344">
        <ele>1101.624</ele>
        <time>2021-07-10T11:23:03Z</time>
      </trkpt>
      <trkpt lat="41.836835034191608" lon="-3.007268020883203">
        <ele>1102.385</ele>
        <time>2021-07-10T11:23:05Z</time>
      </trkpt>
      <trkpt lat="41.836819024756551" lon="-3.007122008129954">
        <ele>1103.2909999999999</ele>
        <time>2021-07-10T11:23:07Z</time>
      </trkpt>
      <trkpt lat="41.836793962866068" lon="-3.006917992606759">
        <ele>1103.8130000000001</ele>
        <time>2021-07-10T11:23:08Z</time>
      </trkpt>
      <trkpt lat="41.836780970916152" lon="-3.006821013987064">
        <ele>1104.2460000000001</ele>
        <time>2021-07-10T11:23:09Z</time>
      </trkpt>
      <trkpt lat="41.83675398118794" lon="-3.00661800429225">
        <ele>1104.8699999999999</ele>
        <time>2021-07-10T11:23:10Z</time>
      </trkpt>
      <trkpt lat="41.836726991459727" lon="-3.006412982940674">
        <ele>1105.0889999999999</ele>
        <time>2021-07-10T11:23:12Z</time>
      </trkpt>
      <trkpt lat="41.836712993681431" lon="-3.00629697740078">
        <ele>1105.751</ele>
        <time>2021-07-10T11:23:13Z</time>
      </trkpt>
      <trkpt lat="41.836674017831683" lon="-3.006041999906302">
        <ele>1106.4010000000001</ele>
        <time>2021-07-10T11:23:15Z</time>
      </trkpt>
      <trkpt lat="41.836649961769581" lon="-3.005901016294956">
        <ele>1106.8109999999999</ele>
        <time>2021-07-10T11:23:16Z</time>
      </trkpt>
      <trkpt lat="41.836592964828014" lon="-3.005594993010163">
        <ele>1107.308</ele>
        <time>2021-07-10T11:23:18Z</time>
      </trkpt>
      <trkpt lat="41.836529010906816" lon="-3.005256028845906">
        <ele>1108.252</ele>
        <time>2021-07-10T11:23:20Z</time>
      </trkpt>
      <trkpt lat="41.836492968723178" lon="-3.005066011101008">
        <ele>1109.152</ele>
        <time>2021-07-10T11:23:22Z</time>
      </trkpt>
      <trkpt lat="41.836419040337205" lon="-3.00470600835979">
        <ele>1109.8130000000001</ele>
        <time>2021-07-10T11:23:23Z</time>
      </trkpt>
      <trkpt lat="41.836381992325187" lon="-3.00451397895813">
        <ele>1110.789</ele>
        <time>2021-07-10T11:23:25Z</time>
      </trkpt>
      <trkpt lat="41.8363450281322" lon="-3.004324967041612">
        <ele>1111.6510000000001</ele>
        <time>2021-07-10T11:23:26Z</time>
      </trkpt>
      <trkpt lat="41.836270010098815" lon="-3.003965970128775">
        <ele>1112.354</ele>
        <time>2021-07-10T11:23:28Z</time>
      </trkpt>
      <trkpt lat="41.836201027035713" lon="-3.003615019842982">
        <ele>1112.9680000000001</ele>
        <time>2021-07-10T11:23:29Z</time>
      </trkpt>
      <trkpt lat="41.836163979023695" lon="-3.003436988219619">
        <ele>1113.8969999999999</ele>
        <time>2021-07-10T11:23:30Z</time>
      </trkpt>
      <trkpt lat="41.836088038980961" lon="-3.003068016842008">
        <ele>1115.2470000000001</ele>
        <time>2021-07-10T11:23:32Z</time>
      </trkpt>
      <trkpt lat="41.836007991805673" lon="-3.002675995230675">
        <ele>1117.1289999999999</ele>
        <time>2021-07-10T11:23:34Z</time>
      </trkpt>
      <trkpt lat="41.835969015955925" lon="-3.00247197970748">
        <ele>1118.521</ele>
        <time>2021-07-10T11:23:35Z</time>
      </trkpt>
      <trkpt lat="41.835927022621036" lon="-3.002260001376271">
        <ele>1119.7080000000001</ele>
        <time>2021-07-10T11:23:36Z</time>
      </trkpt>
      <trkpt lat="41.835846975445747" lon="-3.001863034442067">
        <ele>1121.451</ele>
        <time>2021-07-10T11:23:38Z</time>
      </trkpt>
      <trkpt lat="41.835800958797336" lon="-3.001651978120208">
        <ele>1122.6410000000001</ele>
        <time>2021-07-10T11:23:40Z</time>
      </trkpt>
      <trkpt lat="41.835691994056106" lon="-3.001230033114553">
        <ele>1123.932</ele>
        <time>2021-07-10T11:23:41Z</time>
      </trkpt>
      <trkpt lat="41.835531983524561" lon="-3.00081797875464">
        <ele>1125.268</ele>
        <time>2021-07-10T11:23:43Z</time>
      </trkpt>
      <trkpt lat="41.835423018783331" lon="-3.000616980716586">
        <ele>1127.1199999999999</ele>
        <time>2021-07-10T11:23:45Z</time>
      </trkpt>
      <trkpt lat="41.835161000490189" lon="-3.000253038480878">
        <ele>1128.153</ele>
        <time>2021-07-10T11:23:46Z</time>
      </trkpt>
      <trkpt lat="41.834880961105227" lon="-2.999896975234151">
        <ele>1128.9770000000001</ele>
        <time>2021-07-10T11:23:48Z</time>
      </trkpt>
      <trkpt lat="41.83473402634263" lon="-2.99970000050962">
        <ele>1129.846</ele>
        <time>2021-07-10T11:23:50Z</time>
      </trkpt>
      <trkpt lat="41.834588013589382" lon="-2.99948500469327">
        <ele>1130.6659999999999</ele>
        <time>2021-07-10T11:23:51Z</time>
      </trkpt>
      <trkpt lat="41.834443006664515" lon="-2.999235978350043">
        <ele>1132.029</ele>
        <time>2021-07-10T11:23:52Z</time>
      </trkpt>
      <trkpt lat="41.834204038605094" lon="-2.998739015311003">
        <ele>1134.221</ele>
        <time>2021-07-10T11:23:54Z</time>
      </trkpt>
      <trkpt lat="41.834087027236819" lon="-2.998461993411183">
        <ele>1136.508</ele>
        <time>2021-07-10T11:23:56Z</time>
      </trkpt>
      <trkpt lat="41.833847975358367" lon="-2.997880037873983">
        <ele>1139.433</ele>
        <time>2021-07-10T11:23:58Z</time>
      </trkpt>
      <trkpt lat="41.83372400701046" lon="-2.997561022639275">
        <ele>1142.653</ele>
        <time>2021-07-10T11:24:00Z</time>
      </trkpt>
      <trkpt lat="41.833537006750703" lon="-2.996933972463012">
        <ele>1146.164</ele>
        <time>2021-07-10T11:24:02Z</time>
      </trkpt>
      <trkpt lat="41.833382025361061" lon="-2.996221007779241">
        <ele>1148.5799999999999</ele>
        <time>2021-07-10T11:24:03Z</time>
      </trkpt>
      <trkpt lat="41.833269959315658" lon="-2.995571997016668">
        <ele>1151.442</ele>
        <time>2021-07-10T11:24:05Z</time>
      </trkpt>
      <trkpt lat="41.833237018436193" lon="-2.995233032852411">
        <ele>1154.125</ele>
        <time>2021-07-10T11:24:07Z</time>
      </trkpt>
      <trkpt lat="41.833240035921335" lon="-2.994571030139923">
        <ele>1156.4190000000001</ele>
        <time>2021-07-10T11:24:08Z</time>
      </trkpt>
      <trkpt lat="41.833247998729348" lon="-2.994225025177002">
        <ele>1159.4880000000001</ele>
        <time>2021-07-10T11:24:10Z</time>
      </trkpt>
      <trkpt lat="41.833235006779432" lon="-2.993614990264177">
        <ele>1162.569</ele>
        <time>2021-07-10T11:24:12Z</time>
      </trkpt>
      <trkpt lat="41.833196030929685" lon="-2.993312990292907">
        <ele>1165.104</ele>
        <time>2021-07-10T11:24:13Z</time>
      </trkpt>
      <trkpt lat="41.83312201872468" lon="-2.99302096478641">
        <ele>1167.924</ele>
        <time>2021-07-10T11:24:15Z</time>
      </trkpt>
      <trkpt lat="41.832914985716343" lon="-2.99252400174737">
        <ele>1170.2080000000001</ele>
        <time>2021-07-10T11:24:16Z</time>
      </trkpt>
      <trkpt lat="41.832676017656922" lon="-2.992041036486626">
        <ele>1171.9829999999999</ele>
        <time>2021-07-10T11:24:17Z</time>
      </trkpt>
      <trkpt lat="41.832562023773789" lon="-2.991795027628541">
        <ele>1174.1130000000001</ele>
        <time>2021-07-10T11:24:19Z</time>
      </trkpt>
      <trkpt lat="41.832452975213528" lon="-2.991525968536735">
        <ele>1175.924</ele>
        <time>2021-07-10T11:24:21Z</time>
      </trkpt>
      <trkpt lat="41.832268992438912" lon="-2.991014001891017">
        <ele>1176.72</ele>
        <time>2021-07-10T11:24:23Z</time>
      </trkpt>
      <trkpt lat="41.832091966643929" lon="-2.990465993061662">
        <ele>1176.6220000000001</ele>
        <time>2021-07-10T11:24:25Z</time>
      </trkpt>
      <trkpt lat="41.832015020772815" lon="-2.990170028060675">
        <ele>1176.375</ele>
        <time>2021-07-10T11:24:26Z</time>
      </trkpt>
      <trkpt lat="41.831915024667978" lon="-2.989615984261036">
        <ele>1176.579</ele>
        <time>2021-07-10T11:24:27Z</time>
      </trkpt>
      <trkpt lat="41.831892980262637" lon="-2.98902003094554">
        <ele>1176.788</ele>
        <time>2021-07-10T11:24:28Z</time>
      </trkpt>
      <trkpt lat="41.831924999132752" lon="-2.988691963255405">
        <ele>1176.712</ele>
        <time>2021-07-10T11:24:29Z</time>
      </trkpt>
      <trkpt lat="41.832038993015885" lon="-2.988099027425051">
        <ele>1177.5319999999999</ele>
        <time>2021-07-10T11:24:31Z</time>
      </trkpt>
      <trkpt lat="41.832166984677315" lon="-2.987451022490859">
        <ele>1178.2049999999999</ele>
        <time>2021-07-10T11:24:32Z</time>
      </trkpt>
      <trkpt lat="41.832218030467629" lon="-2.987109962850809">
        <ele>1178.7080000000001</ele>
        <time>2021-07-10T11:24:33Z</time>
      </trkpt>
      <trkpt lat="41.832257006317377" lon="-2.986740991473198">
        <ele>1179.4580000000001</ele>
        <time>2021-07-10T11:24:34Z</time>
      </trkpt>
      <trkpt lat="41.832275027409196" lon="-2.98605996184051">
        <ele>1181.348</ele>
        <time>2021-07-10T11:24:36Z</time>
      </trkpt>
      <trkpt lat="41.83219900354743" lon="-2.985331993550062">
        <ele>1183.029</ele>
        <time>2021-07-10T11:24:38Z</time>
      </trkpt>
      <trkpt lat="41.832029018551111" lon="-2.984674014151096">
        <ele>1184.9749999999999</ele>
        <time>2021-07-10T11:24:40Z</time>
      </trkpt>
      <trkpt lat="41.831784015521407" lon="-2.984002958983183">
        <ele>1186.6869999999999</ele>
        <time>2021-07-10T11:24:42Z</time>
      </trkpt>
      <trkpt lat="41.831524008885026" lon="-2.983366018161178">
        <ele>1187.8599999999999</ele>
        <time>2021-07-10T11:24:43Z</time>
      </trkpt>
      <trkpt lat="41.831402974203229" lon="-2.983036022633314">
        <ele>1188.644</ele>
        <time>2021-07-10T11:24:44Z</time>
      </trkpt>
      <trkpt lat="41.831213040277362" lon="-2.982417019084096">
        <ele>1190.163</ele>
        <time>2021-07-10T11:24:46Z</time>
      </trkpt>
      <trkpt lat="41.831066021695733" lon="-2.981769014149904">
        <ele>1192.0360000000001</ele>
        <time>2021-07-10T11:24:47Z</time>
      </trkpt>
      <trkpt lat="41.830997038632631" lon="-2.981424015015364">
        <ele>1193.817</ele>
        <time>2021-07-10T11:24:48Z</time>
      </trkpt>
      <trkpt lat="41.830861000344157" lon="-2.98079201951623">
        <ele>1195.518</ele>
        <time>2021-07-10T11:24:49Z</time>
      </trkpt>
      <trkpt lat="41.830706018954515" lon="-2.980143008753657">
        <ele>1198.008</ele>
        <time>2021-07-10T11:24:51Z</time>
      </trkpt>
      <trkpt lat="41.830618008971214" lon="-2.979794992133975">
        <ele>1200.99</ele>
        <time>2021-07-10T11:24:53Z</time>
      </trkpt>
      <trkpt lat="41.83045799843967" lon="-2.979164002463222">
        <ele>1204.3499999999999</ele>
        <time>2021-07-10T11:24:55Z</time>
      </trkpt>
      <trkpt lat="41.830374011769891" lon="-2.978834006935358">
        <ele>1206.8910000000001</ele>
        <time>2021-07-10T11:24:56Z</time>
      </trkpt>
      <trkpt lat="41.830292036756873" lon="-2.978509962558746">
        <ele>1209.867</ele>
        <time>2021-07-10T11:24:58Z</time>
      </trkpt>
      <trkpt lat="41.830130014568567" lon="-2.977849971503019">
        <ele>1212.329</ele>
        <time>2021-07-10T11:24:59Z</time>
      </trkpt>
      <trkpt lat="41.829978972673416" lon="-2.977201966568828">
        <ele>1214.912</ele>
        <time>2021-07-10T11:25:01Z</time>
      </trkpt>
      <trkpt lat="41.829844024032354" lon="-2.976512974128127">
        <ele>1216.9960000000001</ele>
        <time>2021-07-10T11:25:02Z</time>
      </trkpt>
      <trkpt lat="41.829744027927518" lon="-2.975828005000949">
        <ele>1218.8150000000001</ele>
        <time>2021-07-10T11:25:04Z</time>
      </trkpt>
      <trkpt lat="41.8297069799155" lon="-2.975457021966577">
        <ele>1220.595</ele>
        <time>2021-07-10T11:25:06Z</time>
      </trkpt>
      <trkpt lat="41.829675966873765" lon="-2.97507899813354">
        <ele>1221.3489999999999</ele>
        <time>2021-07-10T11:25:08Z</time>
      </trkpt>
      <trkpt lat="41.829651994630694" lon="-2.97466903924942">
        <ele>1221.623</ele>
        <time>2021-07-10T11:25:10Z</time>
      </trkpt>
      <trkpt lat="41.829635985195637" lon="-2.974282968789339">
        <ele>1221.7080000000001</ele>
        <time>2021-07-10T11:25:12Z</time>
      </trkpt>
      <trkpt lat="41.829635985195637" lon="-2.973512001335621">
        <ele>1221.586</ele>
        <time>2021-07-10T11:25:14Z</time>
      </trkpt>
      <trkpt lat="41.829650988802314" lon="-2.973108999431133">
        <ele>1221.1759999999999</ele>
        <time>2021-07-10T11:25:15Z</time>
      </trkpt>
      <trkpt lat="41.829672027379274" lon="-2.97269300557673">
        <ele>1220.127</ele>
        <time>2021-07-10T11:25:17Z</time>
      </trkpt>
      <trkpt lat="41.829701028764248" lon="-2.972298972308636">
        <ele>1219.153</ele>
        <time>2021-07-10T11:25:18Z</time>
      </trkpt>
      <trkpt lat="41.829757019877434" lon="-2.971564969047904">
        <ele>1218.425</ele>
        <time>2021-07-10T11:25:19Z</time>
      </trkpt>
      <trkpt lat="41.829807981848717" lon="-2.97080397605896">
        <ele>1217.9880000000001</ele>
        <time>2021-07-10T11:25:21Z</time>
      </trkpt>
      <trkpt lat="41.829837989062071" lon="-2.970116995275021">
        <ele>1217.462</ele>
        <time>2021-07-10T11:25:22Z</time>
      </trkpt>
      <trkpt lat="41.829789038747549" lon="-2.969420962035656">
        <ele>1217.221</ele>
        <time>2021-07-10T11:25:23Z</time>
      </trkpt>
      <trkpt lat="41.829721983522177" lon="-2.969087027013302">
        <ele>1217.1220000000001</ele>
        <time>2021-07-10T11:25:24Z</time>
      </trkpt>
      <trkpt lat="41.829615030437708" lon="-2.968755019828677">
        <ele>1217.0619999999999</ele>
        <time>2021-07-10T11:25:25Z</time>
      </trkpt>
      <trkpt lat="41.829366004094481" lon="-2.968184966593981">
        <ele>1217.008</ele>
        <time>2021-07-10T11:25:26Z</time>
      </trkpt>
      <trkpt lat="41.829237006604671" lon="-2.967886989936233">
        <ele>1217.008</ele>
        <time>2021-07-10T11:25:28Z</time>
      </trkpt>
      <trkpt lat="41.829033996909857" lon="-2.967647016048431">
        <ele>1217.249</ele>
        <time>2021-07-10T11:25:29Z</time>
      </trkpt>
      <trkpt lat="41.828822018578649" lon="-2.967398995533586">
        <ele>1217.519</ele>
        <time>2021-07-10T11:25:30Z</time>
      </trkpt>
      <trkpt lat="41.828458998352289" lon="-2.966903960332274">
        <ele>1218.01</ele>
        <time>2021-07-10T11:25:32Z</time>
      </trkpt>
      <trkpt lat="41.828174013644457" lon="-2.966299038380384">
        <ele>1218.4960000000001</ele>
        <time>2021-07-10T11:25:34Z</time>
      </trkpt>
      <trkpt lat="41.827979972586036" lon="-2.965635024011135">
        <ele>1218.9580000000001</ele>
        <time>2021-07-10T11:25:35Z</time>
      </trkpt>
      <trkpt lat="41.827928004786372" lon="-2.965286001563072">
        <ele>1219.8710000000001</ele>
        <time>2021-07-10T11:25:37Z</time>
      </trkpt>
      <trkpt lat="41.827907972037792" lon="-2.964573036879301">
        <ele>1220.595</ele>
        <time>2021-07-10T11:25:38Z</time>
      </trkpt>
      <trkpt lat="41.827934961766005" lon="-2.964190989732742">
        <ele>1221.7940000000001</ele>
        <time>2021-07-10T11:25:40Z</time>
      </trkpt>
      <trkpt lat="41.828043004497886" lon="-2.963500991463661">
        <ele>1222.9690000000001</ele>
        <time>2021-07-10T11:25:41Z</time>
      </trkpt>
      <trkpt lat="41.828106036409736" lon="-2.963138977065682">
        <ele>1224.404</ele>
        <time>2021-07-10T11:25:43Z</time>
      </trkpt>
      <trkpt lat="41.828197985887527" lon="-2.96238100156188">
        <ele>1225.7239999999999</ele>
        <time>2021-07-10T11:25:44Z</time>
      </trkpt>
      <trkpt lat="41.828201003372669" lon="-2.961663007736206">
        <ele>1227.508</ele>
        <time>2021-07-10T11:25:46Z</time>
      </trkpt>
      <trkpt lat="41.828126991167665" lon="-2.960911989212036">
        <ele>1229.163</ele>
        <time>2021-07-10T11:25:47Z</time>
      </trkpt>
      <trkpt lat="41.828044010326266" lon="-2.960145967081189">
        <ele>1231.393</ele>
        <time>2021-07-10T11:25:49Z</time>
      </trkpt>
      <trkpt lat="41.827962035313249" lon="-2.959447000175715">
        <ele>1233.124</ele>
        <time>2021-07-10T11:25:50Z</time>
      </trkpt>
      <trkpt lat="41.827877964824438" lon="-2.958715008571744">
        <ele>1235.5899999999999</ele>
        <time>2021-07-10T11:25:52Z</time>
      </trkpt>
      <trkpt lat="41.827839994803071" lon="-2.958369003608823">
        <ele>1237.5219999999999</ele>
        <time>2021-07-10T11:25:53Z</time>
      </trkpt>
      <trkpt lat="41.827776040881872" lon="-2.957699038088322">
        <ele>1239.365</ele>
        <time>2021-07-10T11:25:55Z</time>
      </trkpt>
      <trkpt lat="41.827750978991389" lon="-2.957350015640259">
        <ele>1240.4290000000001</ele>
        <time>2021-07-10T11:25:56Z</time>
      </trkpt>
      <trkpt lat="41.827750978991389" lon="-2.956980960443616">
        <ele>1241.558</ele>
        <time>2021-07-10T11:25:58Z</time>
      </trkpt>
      <trkpt lat="41.827832031995058" lon="-2.956347959116101">
        <ele>1241.8240000000001</ele>
        <time>2021-07-10T11:25:59Z</time>
      </trkpt>
      <trkpt lat="41.827891040593386" lon="-2.956017041578889">
        <ele>1242.104</ele>
        <time>2021-07-10T11:26:00Z</time>
      </trkpt>
      <trkpt lat="41.82794401422143" lon="-2.955699032172561">
        <ele>1241.8140000000001</ele>
        <time>2021-07-10T11:26:02Z</time>
      </trkpt>
      <trkpt lat="41.827977960929275" lon="-2.955398038029671">
        <ele>1241.4079999999999</ele>
        <time>2021-07-10T11:26:03Z</time>
      </trkpt>
      <trkpt lat="41.82798801921308" lon="-2.955088997259736">
        <ele>1240.9390000000001</ele>
        <time>2021-07-10T11:26:04Z</time>
      </trkpt>
      <trkpt lat="41.8279679864645" lon="-2.954785991460085">
        <ele>1240.079</ele>
        <time>2021-07-10T11:26:05Z</time>
      </trkpt>
      <trkpt lat="41.827845023944974" lon="-2.954208981245756">
        <ele>1239.04</ele>
        <time>2021-07-10T11:26:07Z</time>
      </trkpt>
      <trkpt lat="41.827753996476531" lon="-2.953933971002698">
        <ele>1238.366</ele>
        <time>2021-07-10T11:26:08Z</time>
      </trkpt>
      <trkpt lat="41.827648971229792" lon="-2.953666001558304">
        <ele>1237.4480000000001</ele>
        <time>2021-07-10T11:26:10Z</time>
      </trkpt>
      <trkpt lat="41.827432969585061" lon="-2.953155040740967">
        <ele>1236.711</ele>
        <time>2021-07-10T11:26:11Z</time>
      </trkpt>
      <trkpt lat="41.827254015952349" lon="-2.952624969184399">
        <ele>1236.385</ele>
        <time>2021-07-10T11:26:13Z</time>
      </trkpt>
      <trkpt lat="41.82719400152564" lon="-2.952341996133328">
        <ele>1235.454</ele>
        <time>2021-07-10T11:26:15Z</time>
      </trkpt>
      <trkpt lat="41.827143961563706" lon="-2.951802033931017">
        <ele>1234.615</ele>
        <time>2021-07-10T11:26:16Z</time>
      </trkpt>
      <trkpt lat="41.827145973220468" lon="-2.951510008424521">
        <ele>1233.865</ele>
        <time>2021-07-10T11:26:18Z</time>
      </trkpt>
      <trkpt lat="41.827221997082233" lon="-2.950940039008856">
        <ele>1232.9110000000001</ele>
        <time>2021-07-10T11:26:19Z</time>
      </trkpt>
      <trkpt lat="41.82730296626687" lon="-2.950650025159121">
        <ele>1232.1079999999999</ele>
        <time>2021-07-10T11:26:21Z</time>
      </trkpt>
      <trkpt lat="41.827534977346659" lon="-2.950092041864991">
        <ele>1231.288</ele>
        <time>2021-07-10T11:26:22Z</time>
      </trkpt>
      <trkpt lat="41.827677972614765" lon="-2.949808984994888">
        <ele>1230.568</ele>
        <time>2021-07-10T11:26:24Z</time>
      </trkpt>
      <trkpt lat="41.82794502004981" lon="-2.949183024466038">
        <ele>1229.979</ele>
        <time>2021-07-10T11:26:25Z</time>
      </trkpt>
      <trkpt lat="41.828040992841125" lon="-2.948831990361214">
        <ele>1229.335</ele>
        <time>2021-07-10T11:26:26Z</time>
      </trkpt>
      <trkpt lat="41.828169990330935" lon="-2.948131011798978">
        <ele>1228.7670000000001</ele>
        <time>2021-07-10T11:26:28Z</time>
      </trkpt>
      <trkpt lat="41.828154986724257" lon="-2.947764974087477">
        <ele>1228.3299999999999</ele>
        <time>2021-07-10T11:26:29Z</time>
      </trkpt>
      <trkpt lat="41.827993970364332" lon="-2.94708302244544">
        <ele>1227.944</ele>
        <time>2021-07-10T11:26:31Z</time>
      </trkpt>
      <trkpt lat="41.827874025329947" lon="-2.946774987503886">
        <ele>1227.5229999999999</ele>
        <time>2021-07-10T11:26:32Z</time>
      </trkpt>
      <trkpt lat="41.827544029802084" lon="-2.946213986724615">
        <ele>1227.347</ele>
        <time>2021-07-10T11:26:34Z</time>
      </trkpt>
      <trkpt lat="41.827358035370708" lon="-2.945996979251504">
        <ele>1226.9290000000001</ele>
        <time>2021-07-10T11:26:35Z</time>
      </trkpt>
      <trkpt lat="41.826959978789091" lon="-2.945656003430486">
        <ele>1226.721</ele>
        <time>2021-07-10T11:26:36Z</time>
      </trkpt>
      <trkpt lat="41.82674297131598" lon="-2.945520970970392">
        <ele>1226.2080000000001</ele>
        <time>2021-07-10T11:26:37Z</time>
      </trkpt>
      <trkpt lat="41.826521018519998" lon="-2.945403959602118">
        <ele>1225.8810000000001</ele>
        <time>2021-07-10T11:26:39Z</time>
      </trkpt>
      <trkpt lat="41.826076023280621" lon="-2.945227017626166">
        <ele>1225.3810000000001</ele>
        <time>2021-07-10T11:26:40Z</time>
      </trkpt>
      <trkpt lat="41.825852980837226" lon="-2.945144036784768">
        <ele>1225.1120000000001</ele>
        <time>2021-07-10T11:26:41Z</time>
      </trkpt>
      <trkpt lat="41.825637985020876" lon="-2.94506398960948">
        <ele>1224.6379999999999</ele>
        <time>2021-07-10T11:26:43Z</time>
      </trkpt>
      <trkpt lat="41.825413014739752" lon="-2.944976985454559">
        <ele>1223.8800000000001</ele>
        <time>2021-07-10T11:26:45Z</time>
      </trkpt>
      <trkpt lat="41.825015963986516" lon="-2.944801971316338">
        <ele>1223.0129999999999</ele>
        <time>2021-07-10T11:26:46Z</time>
      </trkpt>
      <trkpt lat="41.824824018403888" lon="-2.944689989089966">
        <ele>1222.277</ele>
        <time>2021-07-10T11:26:47Z</time>
      </trkpt>
      <trkpt lat="41.824471978470683" lon="-2.944407016038895">
        <ele>1220.896</ele>
        <time>2021-07-10T11:26:49Z</time>
      </trkpt>
      <trkpt lat="41.824286989867687" lon="-2.944273995235562">
        <ele>1220.499</ele>
        <time>2021-07-10T11:26:50Z</time>
      </trkpt>
      <trkpt lat="41.824025977402925" lon="-2.943853978067637">
        <ele>1219.807</ele>
        <time>2021-07-10T11:26:51Z</time>
      </trkpt>
      <trkpt lat="41.823788015171885" lon="-2.943400014191866">
        <ele>1219.027</ele>
        <time>2021-07-10T11:26:52Z</time>
      </trkpt>
      <trkpt lat="41.82366999797523" lon="-2.943163979798555">
        <ele>1218.4079999999999</ele>
        <time>2021-07-10T11:26:53Z</time>
      </trkpt>
      <trkpt lat="41.823449973016977" lon="-2.942727031186223">
        <ele>1217.646</ele>
        <time>2021-07-10T11:26:55Z</time>
      </trkpt>
      <trkpt lat="41.823337990790606" lon="-2.942500971257687">
        <ele>1217.576</ele>
        <time>2021-07-10T11:26:56Z</time>
      </trkpt>
      <trkpt lat="41.823116960003972" lon="-2.942061005160213">
        <ele>1217.4369999999999</ele>
        <time>2021-07-10T11:26:58Z</time>
      </trkpt>
      <trkpt lat="41.82300397194922" lon="-2.941838968545198">
        <ele>1218.0229999999999</ele>
        <time>2021-07-10T11:26:59Z</time>
      </trkpt>
      <trkpt lat="41.822771960869431" lon="-2.941395984962583">
        <ele>1219.0450000000001</ele>
        <time>2021-07-10T11:27:01Z</time>
      </trkpt>
      <trkpt lat="41.822656961157918" lon="-2.941178977489471">
        <ele>1220.8879999999999</ele>
        <time>2021-07-10T11:27:03Z</time>
      </trkpt>
      <trkpt lat="41.82253098115325" lon="-2.940945960581303">
        <ele>1222.912</ele>
        <time>2021-07-10T11:27:05Z</time>
      </trkpt>
      <trkpt lat="41.822283966466784" lon="-2.940539019182324">
        <ele>1224.5809999999999</ele>
        <time>2021-07-10T11:27:06Z</time>
      </trkpt>
      <trkpt lat="41.822136025875807" lon="-2.940341038629413">
        <ele>1225.6130000000001</ele>
        <time>2021-07-10T11:27:07Z</time>
      </trkpt>
      <trkpt lat="41.821805024519563" lon="-2.939987992867827">
        <ele>1226.8430000000001</ele>
        <time>2021-07-10T11:27:08Z</time>
      </trkpt>
      <trkpt lat="41.821616012603045" lon="-2.939815996214747">
        <ele>1227.9069999999999</ele>
        <time>2021-07-10T11:27:09Z</time>
      </trkpt>
      <trkpt lat="41.821248969063163" lon="-2.939511984586716">
        <ele>1228.808</ele>
        <time>2021-07-10T11:27:11Z</time>
      </trkpt>
      <trkpt lat="41.821061968803406" lon="-2.939352979883552">
        <ele>1229.9680000000001</ele>
        <time>2021-07-10T11:27:13Z</time>
      </trkpt>
      <trkpt lat="41.82087798602879" lon="-2.939190035685897">
        <ele>1230.538</ele>
        <time>2021-07-10T11:27:15Z</time>
      </trkpt>
      <trkpt lat="41.820695009082556" lon="-2.93902700766921">
        <ele>1230.6489999999999</ele>
        <time>2021-07-10T11:27:16Z</time>
      </trkpt>
      <trkpt lat="41.820357972756028" lon="-2.938707992434502">
        <ele>1230.385</ele>
        <time>2021-07-10T11:27:17Z</time>
      </trkpt>
      <trkpt lat="41.820195028558373" lon="-2.938525015488267">
        <ele>1229.777</ele>
        <time>2021-07-10T11:27:19Z</time>
      </trkpt>
      <trkpt lat="41.820041975006461" lon="-2.93831798247993">
        <ele>1229.22</ele>
        <time>2021-07-10T11:27:20Z</time>
      </trkpt>
      <trkpt lat="41.819780962541699" lon="-2.937849014997482">
        <ele>1228.694</ele>
        <time>2021-07-10T11:27:21Z</time>
      </trkpt>
      <trkpt lat="41.819534031674266" lon="-2.937250966206193">
        <ele>1228.2629999999999</ele>
        <time>2021-07-10T11:27:22Z</time>
      </trkpt>
      <trkpt lat="41.819382989779115" lon="-2.936932034790516">
        <ele>1227.8869999999999</ele>
        <time>2021-07-10T11:27:24Z</time>
      </trkpt>
      <trkpt lat="41.819215016439557" lon="-2.936591980978847">
        <ele>1226.942</ele>
        <time>2021-07-10T11:27:26Z</time>
      </trkpt>
      <trkpt lat="41.818901030346751" lon="-2.93593198992312">
        <ele>1226.126</ele>
        <time>2021-07-10T11:27:28Z</time>
      </trkpt>
      <trkpt lat="41.818745965138078" lon="-2.935595037415624">
        <ele>1225.508</ele>
        <time>2021-07-10T11:27:29Z</time>
      </trkpt>
      <trkpt lat="41.818595007061958" lon="-2.935262024402618">
        <ele>1224.835</ele>
        <time>2021-07-10T11:27:31Z</time>
      </trkpt>
      <trkpt lat="41.818446982651949" lon="-2.934945020824671">
        <ele>1224.425</ele>
        <time>2021-07-10T11:27:32Z</time>
      </trkpt>
      <trkpt lat="41.81829602457583" lon="-2.934618964791298">
        <ele>1223.386</ele>
        <time>2021-07-10T11:27:34Z</time>
      </trkpt>
      <trkpt lat="41.818010034039617" lon="-2.933975988999009">
        <ele>1222.8119999999999</ele>
        <time>2021-07-10T11:27:35Z</time>
      </trkpt>
      <trkpt lat="41.817896040156484" lon="-2.933644987642765">
        <ele>1222.164</ele>
        <time>2021-07-10T11:27:37Z</time>
      </trkpt>
      <trkpt lat="41.817777017131448" lon="-2.932964041829109">
        <ele>1221.4169999999999</ele>
        <time>2021-07-10T11:27:38Z</time>
      </trkpt>
      <trkpt lat="41.817766958847642" lon="-2.932616025209427">
        <ele>1220.6510000000001</ele>
        <time>2021-07-10T11:27:40Z</time>
      </trkpt>
      <trkpt lat="41.817827979102731" lon="-2.931957961991429">
        <ele>1220.4100000000001</ele>
        <time>2021-07-10T11:27:41Z</time>
      </trkpt>
      <trkpt lat="41.817969968542457" lon="-2.931338036432862">
        <ele>1219.982</ele>
        <time>2021-07-10T11:27:43Z</time>
      </trkpt>
      <trkpt lat="41.818117992952466" lon="-2.930745016783476">
        <ele>1219.7429999999999</ele>
        <time>2021-07-10T11:27:44Z</time>
      </trkpt>
      <trkpt lat="41.818171972408891" lon="-2.930447962135077">
        <ele>1219.4169999999999</ele>
        <time>2021-07-10T11:27:46Z</time>
      </trkpt>
      <trkpt lat="41.818208014592528" lon="-2.930150991305709">
        <ele>1219.1079999999999</ele>
        <time>2021-07-10T11:27:47Z</time>
      </trkpt>
      <trkpt lat="41.818227963522077" lon="-2.929860977455974">
        <ele>1218.7950000000001</ele>
        <time>2021-07-10T11:27:49Z</time>
      </trkpt>
      <trkpt lat="41.818230981007218" lon="-2.929561994969845">
        <ele>1218.365</ele>
        <time>2021-07-10T11:27:50Z</time>
      </trkpt>
      <trkpt lat="41.818227963522077" lon="-2.928985990583897">
        <ele>1217.816</ele>
        <time>2021-07-10T11:27:52Z</time>
      </trkpt>
      <trkpt lat="41.818218994885683" lon="-2.928446028381586">
        <ele>1216.972</ele>
        <time>2021-07-10T11:27:54Z</time>
      </trkpt>
      <trkpt lat="41.818223018199205" lon="-2.92794001288712">
        <ele>1216.184</ele>
        <time>2021-07-10T11:27:56Z</time>
      </trkpt>
      <trkpt lat="41.818227963522077" lon="-2.927701966837049">
        <ele>1214.9369999999999</ele>
        <time>2021-07-10T11:27:58Z</time>
      </trkpt>
      <trkpt lat="41.818237015977502" lon="-2.927461992949247">
        <ele>1213.1410000000001</ele>
        <time>2021-07-10T11:27:59Z</time>
      </trkpt>
      <trkpt lat="41.818258976563811" lon="-2.926984978839755">
        <ele>1211.53</ele>
        <time>2021-07-10T11:28:01Z</time>
      </trkpt>
      <trkpt lat="41.818267023190856" lon="-2.926745004951954">
        <ele>1210.1320000000001</ele>
        <time>2021-07-10T11:28:02Z</time>
      </trkpt>
      <trkpt lat="41.818274985998869" lon="-2.92650100775063">
        <ele>1209.0920000000001</ele>
        <time>2021-07-10T11:28:04Z</time>
      </trkpt>
      <trkpt lat="41.818283032625914" lon="-2.926251981407404">
        <ele>1207.711</ele>
        <time>2021-07-10T11:28:05Z</time>
      </trkpt>
      <trkpt lat="41.818300969898701" lon="-2.925745965912938">
        <ele>1205.7080000000001</ele>
        <time>2021-07-10T11:28:07Z</time>
      </trkpt>
      <trkpt lat="41.81831899099052" lon="-2.925228970125318">
        <ele>1204.76</ele>
        <time>2021-07-10T11:28:08Z</time>
      </trkpt>
      <trkpt lat="41.818337012082338" lon="-2.924709962680936">
        <ele>1204.3900000000001</ele>
        <time>2021-07-10T11:28:10Z</time>
      </trkpt>
      <trkpt lat="41.818351009860635" lon="-2.924455991014838">
        <ele>1203.8209999999999</ele>
        <time>2021-07-10T11:28:11Z</time>
      </trkpt>
      <trkpt lat="41.818390991538763" lon="-2.92394301854074">
        <ele>1203.367</ele>
        <time>2021-07-10T11:28:13Z</time>
      </trkpt>
      <trkpt lat="41.818416975438595" lon="-2.923681000247598">
        <ele>1203.549</ele>
        <time>2021-07-10T11:28:14Z</time>
      </trkpt>
      <trkpt lat="41.818477995693684" lon="-2.92317096143961">
        <ele>1203.682</ele>
        <time>2021-07-10T11:28:15Z</time>
      </trkpt>
      <trkpt lat="41.818513032048941" lon="-2.922908021137118">
        <ele>1203.2360000000001</ele>
        <time>2021-07-10T11:28:17Z</time>
      </trkpt>
      <trkpt lat="41.818566005676985" lon="-2.92237401008606">
        <ele>1203.165</ele>
        <time>2021-07-10T11:28:18Z</time>
      </trkpt>
      <trkpt lat="41.818580003455281" lon="-2.922086007893086">
        <ele>1202.7950000000001</ele>
        <time>2021-07-10T11:28:20Z</time>
      </trkpt>
      <trkpt lat="41.81855502538383" lon="-2.921567000448704">
        <ele>1201.8489999999999</ele>
        <time>2021-07-10T11:28:22Z</time>
      </trkpt>
      <trkpt lat="41.818514037877321" lon="-2.92129903100431">
        <ele>1201.623</ele>
        <time>2021-07-10T11:28:23Z</time>
      </trkpt>
      <trkpt lat="41.818379005417228" lon="-2.920779017731547">
        <ele>1200.4079999999999</ele>
        <time>2021-07-10T11:28:24Z</time>
      </trkpt>
      <trkpt lat="41.818282026797533" lon="-2.920509958639741">
        <ele>1198.7460000000001</ele>
        <time>2021-07-10T11:28:26Z</time>
      </trkpt>
      <trkpt lat="41.818069964647293" lon="-2.920043002814055">
        <ele>1196.6559999999999</ele>
        <time>2021-07-10T11:28:28Z</time>
      </trkpt>
      <trkpt lat="41.817951025441289" lon="-2.91979699395597">
        <ele>1193.9469999999999</ele>
        <time>2021-07-10T11:28:30Z</time>
      </trkpt>
      <trkpt lat="41.817715996876359" lon="-2.919275974854827">
        <ele>1191.7829999999999</ele>
        <time>2021-07-10T11:28:31Z</time>
      </trkpt>
      <trkpt lat="41.817606026306748" lon="-2.919020997360349">
        <ele>1189.075</ele>
        <time>2021-07-10T11:28:33Z</time>
      </trkpt>
      <trkpt lat="41.817409973591566" lon="-2.918510958552361">
        <ele>1186.9880000000001</ele>
        <time>2021-07-10T11:28:34Z</time>
      </trkpt>
      <trkpt lat="41.817217022180557" lon="-2.917923973873258">
        <ele>1184.932</ele>
        <time>2021-07-10T11:28:35Z</time>
      </trkpt>
      <trkpt lat="41.817043013870716" lon="-2.917308993637562">
        <ele>1183.5309999999999</ele>
        <time>2021-07-10T11:28:36Z</time>
      </trkpt>
      <trkpt lat="41.816845033317804" lon="-2.916581025347114">
        <ele>1181.6469999999999</ele>
        <time>2021-07-10T11:28:38Z</time>
      </trkpt>
      <trkpt lat="41.81673196144402" lon="-2.916162014007568">
        <ele>1180.4290000000001</ele>
        <time>2021-07-10T11:28:39Z</time>
      </trkpt>
      <trkpt lat="41.816502967849374" lon="-2.915373025462031">
        <ele>1178.3209999999999</ele>
        <time>2021-07-10T11:28:41Z</time>
      </trkpt>
      <trkpt lat="41.816372964531183" lon="-2.914933981373906">
        <ele>1177.2080000000001</ele>
        <time>2021-07-10T11:28:42Z</time>
      </trkpt>
      <trkpt lat="41.816116981208324" lon="-2.914065029472113">
        <ele>1176.3109999999999</ele>
        <time>2021-07-10T11:28:43Z</time>
      </trkpt>
      <trkpt lat="41.815971974283457" lon="-2.913593966513872">
        <ele>1175.8810000000001</ele>
        <time>2021-07-10T11:28:44Z</time>
      </trkpt>
      <trkpt lat="41.815716996788979" lon="-2.912778994068503">
        <ele>1176.0219999999999</ele>
        <time>2021-07-10T11:28:45Z</time>
      </trkpt>
      <trkpt lat="41.815601997077465" lon="-2.912366017699242">
        <ele>1175.778</ele>
        <time>2021-07-10T11:28:47Z</time>
      </trkpt>
      <trkpt lat="41.815385995432734" lon="-2.911581974476576">
        <ele>1175.5799999999999</ele>
        <time>2021-07-10T11:28:48Z</time>
      </trkpt>
      <trkpt lat="41.815282981842756" lon="-2.911196993663907">
        <ele>1175.3530000000001</ele>
        <time>2021-07-10T11:28:49Z</time>
      </trkpt>
      <trkpt lat="41.815091958269477" lon="-2.910456033423543">
        <ele>1175.117</ele>
        <time>2021-07-10T11:28:50Z</time>
      </trkpt>
      <trkpt lat="41.815001014620066" lon="-2.91008597239852">
        <ele>1175.066</ele>
        <time>2021-07-10T11:28:52Z</time>
      </trkpt>
      <trkpt lat="41.814910992980003" lon="-2.909701997414231">
        <ele>1175.117</ele>
        <time>2021-07-10T11:28:54Z</time>
      </trkpt>
      <trkpt lat="41.8147539999336" lon="-2.90903102606535">
        <ele>1174.9870000000001</ele>
        <time>2021-07-10T11:28:55Z</time>
      </trkpt>
      <trkpt lat="41.814674958586693" lon="-2.908678986132145">
        <ele>1175.5150000000001</ele>
        <time>2021-07-10T11:28:56Z</time>
      </trkpt>
      <trkpt lat="41.814510002732277" lon="-2.907984964549542">
        <ele>1176.2080000000001</ele>
        <time>2021-07-10T11:28:58Z</time>
      </trkpt>
      <trkpt lat="41.814359966665506" lon="-2.90733796544373">
        <ele>1176.578</ele>
        <time>2021-07-10T11:29:00Z</time>
      </trkpt>
      <trkpt lat="41.814285032451153" lon="-2.907005036249757">
        <ele>1176.4680000000001</ele>
        <time>2021-07-10T11:29:02Z</time>
      </trkpt>
      <trkpt lat="41.814215965569019" lon="-2.90666900575161">
        <ele>1176.759</ele>
        <time>2021-07-10T11:29:04Z</time>
      </trkpt>
      <trkpt lat="41.814105994999409" lon="-2.905970038846135">
        <ele>1176.875</ele>
        <time>2021-07-10T11:29:06Z</time>
      </trkpt>
      <trkpt lat="41.814027037471533" lon="-2.905231006443501">
        <ele>1176.8969999999999</ele>
        <time>2021-07-10T11:29:08Z</time>
      </trkpt>
      <trkpt lat="41.813944978639483" lon="-2.904439000412822">
        <ele>1176.1900000000001</ele>
        <time>2021-07-10T11:29:09Z</time>
      </trkpt>
      <trkpt lat="41.813898039981723" lon="-2.904049996286631">
        <ele>1175.5340000000001</ele>
        <time>2021-07-10T11:29:10Z</time>
      </trkpt>
      <trkpt lat="41.813802989199758" lon="-2.903278023004532">
        <ele>1174.5630000000001</ele>
        <time>2021-07-10T11:29:11Z</time>
      </trkpt>
      <trkpt lat="41.813753033056855" lon="-2.902872003614903">
        <ele>1173.5740000000001</ele>
        <time>2021-07-10T11:29:13Z</time>
      </trkpt>
      <trkpt lat="41.813701987266541" lon="-2.902444023638964">
        <ele>1172.6559999999999</ele>
        <time>2021-07-10T11:29:14Z</time>
      </trkpt>
      <trkpt lat="41.813656976446509" lon="-2.902048984542489">
        <ele>1171.921</ele>
        <time>2021-07-10T11:29:15Z</time>
      </trkpt>
      <trkpt lat="41.81361498311162" lon="-2.901265025138855">
        <ele>1171.008</ele>
        <time>2021-07-10T11:29:17Z</time>
      </trkpt>
      <trkpt lat="41.813625963404775" lon="-2.900849031284452">
        <ele>1170.0740000000001</ele>
        <time>2021-07-10T11:29:18Z</time>
      </trkpt>
      <trkpt lat="41.813708022236824" lon="-2.9000089969486">
        <ele>1168.934</ele>
        <time>2021-07-10T11:29:20Z</time>
      </trkpt>
      <trkpt lat="41.813757978379726" lon="-2.899587973952293">
        <ele>1167.8150000000001</ele>
        <time>2021-07-10T11:29:21Z</time>
      </trkpt>
      <trkpt lat="41.813805000856519" lon="-2.89917198009789">
        <ele>1166.6510000000001</ele>
        <time>2021-07-10T11:29:22Z</time>
      </trkpt>
      <trkpt lat="41.813849005848169" lon="-2.898765038698912">
        <ele>1164.663</ele>
        <time>2021-07-10T11:29:24Z</time>
      </trkpt>
      <trkpt lat="41.813895022496581" lon="-2.898340998217464">
        <ele>1162.546</ele>
        <time>2021-07-10T11:29:26Z</time>
      </trkpt>
      <trkpt lat="41.813984038308263" lon="-2.897587968036532">
        <ele>1160.8599999999999</ele>
        <time>2021-07-10T11:29:27Z</time>
      </trkpt>
      <trkpt lat="41.814021002501249" lon="-2.897198041900992">
        <ele>1158.3589999999999</ele>
        <time>2021-07-10T11:29:29Z</time>
      </trkpt>
      <trkpt lat="41.814047992229462" lon="-2.896812977269292">
        <ele>1156.596</ele>
        <time>2021-07-10T11:29:30Z</time>
      </trkpt>
      <trkpt lat="41.814051009714603" lon="-2.89640000090003">
        <ele>1155.231</ele>
        <time>2021-07-10T11:29:31Z</time>
      </trkpt>
      <trkpt lat="41.813998036086559" lon="-2.895620986819267">
        <ele>1154.3240000000001</ele>
        <time>2021-07-10T11:29:32Z</time>
      </trkpt>
      <trkpt lat="41.813853029161692" lon="-2.894812971353531">
        <ele>1153.2080000000001</ele>
        <time>2021-07-10T11:29:34Z</time>
      </trkpt>
      <trkpt lat="41.813749009743333" lon="-2.894414998590946">
        <ele>1152.796</ele>
        <time>2021-07-10T11:29:35Z</time>
      </trkpt>
      <trkpt lat="41.813626969233155" lon="-2.894028006121516">
        <ele>1152.296</ele>
        <time>2021-07-10T11:29:36Z</time>
      </trkpt>
      <trkpt lat="41.813305020332336" lon="-2.893303977325559">
        <ele>1151.627</ele>
        <time>2021-07-10T11:29:38Z</time>
      </trkpt>
      <trkpt lat="41.812922973185778" lon="-2.89264096878469">
        <ele>1150.973</ele>
        <time>2021-07-10T11:29:40Z</time>
      </trkpt>
      <trkpt lat="41.812511002644897" lon="-2.891989024356008">
        <ele>1150.2950000000001</ele>
        <time>2021-07-10T11:29:41Z</time>
      </trkpt>
      <trkpt lat="41.812106994912028" lon="-2.891329033300281">
        <ele>1149.9179999999999</ele>
        <time>2021-07-10T11:29:43Z</time>
      </trkpt>
      <trkpt lat="41.811795020475984" lon="-2.890672981739044">
        <ele>1149.8420000000001</ele>
        <time>2021-07-10T11:29:44Z</time>
      </trkpt>
      <trkpt lat="41.811560997739434" lon="-2.889950964599848">
        <ele>1149.491</ele>
        <time>2021-07-10T11:29:45Z</time>
      </trkpt>
      <trkpt lat="41.811477011069655" lon="-2.889561038464308">
        <ele>1149.336</ele>
        <time>2021-07-10T11:29:47Z</time>
      </trkpt>
      <trkpt lat="41.811406016349792" lon="-2.889164993539453">
        <ele>1148.7170000000001</ele>
        <time>2021-07-10T11:29:49Z</time>
      </trkpt>
      <trkpt lat="41.811337033286691" lon="-2.888736007735133">
        <ele>1148.2180000000001</ele>
        <time>2021-07-10T11:29:51Z</time>
      </trkpt>
      <trkpt lat="41.811223039403558" lon="-2.887951964512467">
        <ele>1147.808</ele>
        <time>2021-07-10T11:29:52Z</time>
      </trkpt>
      <trkpt lat="41.811162019148469" lon="-2.887536976486445">
        <ele>1147.71</ele>
        <time>2021-07-10T11:29:53Z</time>
      </trkpt>
      <trkpt lat="41.811098987236619" lon="-2.88711897097528">
        <ele>1148.1400000000001</ele>
        <time>2021-07-10T11:29:55Z</time>
      </trkpt>
      <trkpt lat="41.810966972261667" lon="-2.886283965781331">
        <ele>1148.471</ele>
        <time>2021-07-10T11:29:56Z</time>
      </trkpt>
      <trkpt lat="41.810892960056663" lon="-2.885878030210733">
        <ele>1148.847</ele>
        <time>2021-07-10T11:29:58Z</time>
      </trkpt>
      <trkpt lat="41.810699002817273" lon="-2.885101027786732">
        <ele>1149.0989999999999</ele>
        <time>2021-07-10T11:29:59Z</time>
      </trkpt>
      <trkpt lat="41.810576962307096" lon="-2.884737001731992">
        <ele>1149.442</ele>
        <time>2021-07-10T11:30:01Z</time>
      </trkpt>
      <trkpt lat="41.81043203920126" lon="-2.884376998990774">
        <ele>1150.086</ele>
        <time>2021-07-10T11:30:02Z</time>
      </trkpt>
      <trkpt lat="41.810113023966551" lon="-2.883679959923029">
        <ele>1150.4949999999999</ele>
        <time>2021-07-10T11:30:03Z</time>
      </trkpt>
      <trkpt lat="41.809785962104797" lon="-2.882994990795851">
        <ele>1150.847</ele>
        <time>2021-07-10T11:30:04Z</time>
      </trkpt>
      <trkpt lat="41.809626035392284" lon="-2.882650997489691">
        <ele>1151.329</ele>
        <time>2021-07-10T11:30:06Z</time>
      </trkpt>
      <trkpt lat="41.809324035421014" lon="-2.881965022534132">
        <ele>1152.021</ele>
        <time>2021-07-10T11:30:07Z</time>
      </trkpt>
      <trkpt lat="41.809182967990637" lon="-2.881616000086069">
        <ele>1152.6079999999999</ele>
        <time>2021-07-10T11:30:08Z</time>
      </trkpt>
      <trkpt lat="41.809048019349575" lon="-2.881264965981245">
        <ele>1153.0709999999999</ele>
        <time>2021-07-10T11:30:10Z</time>
      </trkpt>
      <trkpt lat="41.808913992717862" lon="-2.880903035402298">
        <ele>1153.481</ele>
        <time>2021-07-10T11:30:11Z</time>
      </trkpt>
      <trkpt lat="41.808671001344919" lon="-2.880227034911513">
        <ele>1153.6220000000001</ele>
        <time>2021-07-10T11:30:12Z</time>
      </trkpt>
      <trkpt lat="41.808546027168632" lon="-2.879885975271463">
        <ele>1153.4580000000001</ele>
        <time>2021-07-10T11:30:14Z</time>
      </trkpt>
      <trkpt lat="41.808422980830073" lon="-2.879551034420729">
        <ele>1152.95</ele>
        <time>2021-07-10T11:30:16Z</time>
      </trkpt>
      <trkpt lat="41.808186024427414" lon="-2.878899006173015">
        <ele>1152.3230000000001</ele>
        <time>2021-07-10T11:30:18Z</time>
      </trkpt>
      <trkpt lat="41.807948984205723" lon="-2.878260975703597">
        <ele>1151.327</ele>
        <time>2021-07-10T11:30:20Z</time>
      </trkpt>
      <trkpt lat="41.807829039171338" lon="-2.877926034852862">
        <ele>1151.2360000000001</ele>
        <time>2021-07-10T11:30:21Z</time>
      </trkpt>
      <trkpt lat="41.807579006999731" lon="-2.877257997170091">
        <ele>1150.597</ele>
        <time>2021-07-10T11:30:22Z</time>
      </trkpt>
      <trkpt lat="41.807453026995063" lon="-2.876920960843563">
        <ele>1149.8230000000001</ele>
        <time>2021-07-10T11:30:23Z</time>
      </trkpt>
      <trkpt lat="41.807326041162014" lon="-2.876578979194164">
        <ele>1149.125</ele>
        <time>2021-07-10T11:30:24Z</time>
      </trkpt>
      <trkpt lat="41.807068968191743" lon="-2.875886969268322">
        <ele>1148.308</ele>
        <time>2021-07-10T11:30:26Z</time>
      </trkpt>
      <trkpt lat="41.806809967383742" lon="-2.875188002362847">
        <ele>1147.576</ele>
        <time>2021-07-10T11:30:27Z</time>
      </trkpt>
      <trkpt lat="41.806539986282587" lon="-2.874471014365554">
        <ele>1146.7360000000001</ele>
        <time>2021-07-10T11:30:28Z</time>
      </trkpt>
      <trkpt lat="41.806406965479255" lon="-2.874107994139195">
        <ele>1145.337</ele>
        <time>2021-07-10T11:30:30Z</time>
      </trkpt>
      <trkpt lat="41.806275034323335" lon="-2.873748997226358">
        <ele>1143.7329999999999</ele>
        <time>2021-07-10T11:30:32Z</time>
      </trkpt>
      <trkpt lat="41.806004969403148" lon="-2.873017005622387">
        <ele>1142.2850000000001</ele>
        <time>2021-07-10T11:30:33Z</time>
      </trkpt>
      <trkpt lat="41.805872032418847" lon="-2.87265800870955">
        <ele>1140.8979999999999</ele>
        <time>2021-07-10T11:30:35Z</time>
      </trkpt>
      <trkpt lat="41.805603979155421" lon="-2.871933979913592">
        <ele>1139.8720000000001</ele>
        <time>2021-07-10T11:30:36Z</time>
      </trkpt>
      <trkpt lat="41.805470958352089" lon="-2.871575988829136">
        <ele>1138.961</ele>
        <time>2021-07-10T11:30:37Z</time>
      </trkpt>
      <trkpt lat="41.805208018049598" lon="-2.870867969468236">
        <ele>1138.0329999999999</ele>
        <time>2021-07-10T11:30:39Z</time>
      </trkpt>
      <trkpt lat="41.805077008903027" lon="-2.870515007525682">
        <ele>1137.223</ele>
        <time>2021-07-10T11:30:41Z</time>
      </trkpt>
      <trkpt lat="41.804948011413217" lon="-2.87016598507762">
        <ele>1136.615</ele>
        <time>2021-07-10T11:30:42Z</time>
      </trkpt>
      <trkpt lat="41.804819013923407" lon="-2.86982199177146">
        <ele>1136.2080000000001</ele>
        <time>2021-07-10T11:30:43Z</time>
      </trkpt>
      <trkpt lat="41.8045689817518" lon="-2.869150014594197">
        <ele>1135.5899999999999</ele>
        <time>2021-07-10T11:30:44Z</time>
      </trkpt>
      <trkpt lat="41.804447025060654" lon="-2.868822030723095">
        <ele>1135.45</ele>
        <time>2021-07-10T11:30:45Z</time>
      </trkpt>
      <trkpt lat="41.804329007863998" lon="-2.868498992174864">
        <ele>1135.011</ele>
        <time>2021-07-10T11:30:47Z</time>
      </trkpt>
      <trkpt lat="41.804141001775861" lon="-2.86784796975553">
        <ele>1134.7670000000001</ele>
        <time>2021-07-10T11:30:49Z</time>
      </trkpt>
      <trkpt lat="41.804081993177533" lon="-2.867496013641357">
        <ele>1134.519</ele>
        <time>2021-07-10T11:30:51Z</time>
      </trkpt>
      <trkpt lat="41.804035976529121" lon="-2.867135005071759">
        <ele>1134.472</ele>
        <time>2021-07-10T11:30:52Z</time>
      </trkpt>
      <trkpt lat="41.80398995988071" lon="-2.866391027346253">
        <ele>1134.2260000000001</ele>
        <time>2021-07-10T11:30:53Z</time>
      </trkpt>
      <trkpt lat="41.80403103120625" lon="-2.865636991336942">
        <ele>1134.355</ele>
        <time>2021-07-10T11:30:54Z</time>
      </trkpt>
      <trkpt lat="41.804152987897396" lon="-2.864884966984391">
        <ele>1134.4870000000001</ele>
        <time>2021-07-10T11:30:56Z</time>
      </trkpt>
      <trkpt lat="41.804309980943799" lon="-2.864137971773744">
        <ele>1133.942</ele>
        <time>2021-07-10T11:30:58Z</time>
      </trkpt>
      <trkpt lat="41.804393967613578" lon="-2.863749973475933">
        <ele>1133.626</ele>
        <time>2021-07-10T11:30:59Z</time>
      </trkpt>
      <trkpt lat="41.804476026445627" lon="-2.863362981006503">
        <ele>1133.508</ele>
        <time>2021-07-10T11:31:00Z</time>
      </trkpt>
      <trkpt lat="41.804554983973503" lon="-2.862979006022215">
        <ele>1133.0550000000001</ele>
        <time>2021-07-10T11:31:02Z</time>
      </trkpt>
      <trkpt lat="41.80463201366365" lon="-2.862598970532417">
        <ele>1132.7349999999999</ele>
        <time>2021-07-10T11:31:03Z</time>
      </trkpt>
      <trkpt lat="41.804782971739769" lon="-2.86184904165566">
        <ele>1132.146</ele>
        <time>2021-07-10T11:31:05Z</time>
      </trkpt>
      <trkpt lat="41.804860001429915" lon="-2.861469006165862">
        <ele>1131.3520000000001</ele>
        <time>2021-07-10T11:31:06Z</time>
      </trkpt>
      <trkpt lat="41.804940970614552" lon="-2.861100034788251">
        <ele>1130.5340000000001</ele>
        <time>2021-07-10T11:31:08Z</time>
      </trkpt>
      <trkpt lat="41.805124031379819" lon="-2.860357984900475">
        <ele>1129.7170000000001</ele>
        <time>2021-07-10T11:31:10Z</time>
      </trkpt>
      <trkpt lat="41.80534296669066" lon="-2.859640996903181">
        <ele>1128.931</ele>
        <time>2021-07-10T11:31:11Z</time>
      </trkpt>
      <trkpt lat="41.805467018857598" lon="-2.859289962798357">
        <ele>1128.3800000000001</ele>
        <time>2021-07-10T11:31:12Z</time>
      </trkpt>
      <trkpt lat="41.805729959160089" lon="-2.858602982014418">
        <ele>1127.8389999999999</ele>
        <time>2021-07-10T11:31:14Z</time>
      </trkpt>
      <trkpt lat="41.80585996247828" lon="-2.858264017850161">
        <ele>1127.501</ele>
        <time>2021-07-10T11:31:16Z</time>
      </trkpt>
      <trkpt lat="41.805991977453232" lon="-2.85791801288724">
        <ele>1127.3209999999999</ele>
        <time>2021-07-10T11:31:17Z</time>
      </trkpt>
      <trkpt lat="41.806256007403135" lon="-2.857222985476255">
        <ele>1127.508</ele>
        <time>2021-07-10T11:31:19Z</time>
      </trkpt>
      <trkpt lat="41.806522971019149" lon="-2.856541033834219">
        <ele>1127.6300000000001</ele>
        <time>2021-07-10T11:31:21Z</time>
      </trkpt>
      <trkpt lat="41.806654985994101" lon="-2.856193017214537">
        <ele>1127.78</ele>
        <time>2021-07-10T11:31:23Z</time>
      </trkpt>
      <trkpt lat="41.806776020675898" lon="-2.855839971452951">
        <ele>1127.741</ele>
        <time>2021-07-10T11:31:24Z</time>
      </trkpt>
      <trkpt lat="41.806890014559031" lon="-2.85549002699554">
        <ele>1128.337</ele>
        <time>2021-07-10T11:31:26Z</time>
      </trkpt>
      <trkpt lat="41.806995961815119" lon="-2.85512700676918">
        <ele>1128.529</ele>
        <time>2021-07-10T11:31:27Z</time>
      </trkpt>
      <trkpt lat="41.807186985388398" lon="-2.854390991851687">
        <ele>1128.6320000000001</ele>
        <time>2021-07-10T11:31:28Z</time>
      </trkpt>
      <trkpt lat="41.807351019233465" lon="-2.853656988590956">
        <ele>1128.846</ele>
        <time>2021-07-10T11:31:30Z</time>
      </trkpt>
      <trkpt lat="41.807501977309585" lon="-2.852940000593662">
        <ele>1129.355</ele>
        <time>2021-07-10T11:31:32Z</time>
      </trkpt>
      <trkpt lat="41.807569032534957" lon="-2.852587038651109">
        <ele>1129.751</ele>
        <time>2021-07-10T11:31:33Z</time>
      </trkpt>
      <trkpt lat="41.807624017819762" lon="-2.852236004546285">
        <ele>1129.8009999999999</ele>
        <time>2021-07-10T11:31:34Z</time>
      </trkpt>
      <trkpt lat="41.807661987841129" lon="-2.851886982098222">
        <ele>1130.4110000000001</ele>
        <time>2021-07-10T11:31:36Z</time>
      </trkpt>
      <trkpt lat="41.807676991447806" lon="-2.851197989657521">
        <ele>1130.6079999999999</ele>
        <time>2021-07-10T11:31:37Z</time>
      </trkpt>
      <trkpt lat="41.807656036689878" lon="-2.850514026358724">
        <ele>1130.932</ele>
        <time>2021-07-10T11:31:39Z</time>
      </trkpt>
      <trkpt lat="41.807647990062833" lon="-2.850166009739041">
        <ele>1131.652</ele>
        <time>2021-07-10T11:31:41Z</time>
      </trkpt>
      <trkpt lat="41.807637009769678" lon="-2.849816987290978">
        <ele>1132.0830000000001</ele>
        <time>2021-07-10T11:31:43Z</time>
      </trkpt>
      <trkpt lat="41.80761999450624" lon="-2.849112991243601">
        <ele>1132.569</ele>
        <time>2021-07-10T11:31:44Z</time>
      </trkpt>
      <trkpt lat="41.807613037526608" lon="-2.848756005987525">
        <ele>1132.951</ele>
        <time>2021-07-10T11:31:45Z</time>
      </trkpt>
      <trkpt lat="41.80760096758604" lon="-2.84803700633347">
        <ele>1133.8440000000001</ele>
        <time>2021-07-10T11:31:47Z</time>
      </trkpt>
      <trkpt lat="41.807599039748311" lon="-2.847673986107111">
        <ele>1134.8979999999999</ele>
        <time>2021-07-10T11:31:49Z</time>
      </trkpt>
      <trkpt lat="41.807589987292886" lon="-2.846945011988282">
        <ele>1135.557</ele>
        <time>2021-07-10T11:31:50Z</time>
      </trkpt>
      <trkpt lat="41.80757699534297" lon="-2.846185024827719">
        <ele>1136.1489999999999</ele>
        <time>2021-07-10T11:31:52Z</time>
      </trkpt>
      <trkpt lat="41.807570960372686" lon="-2.845790991559625">
        <ele>1136.8019999999999</ele>
        <time>2021-07-10T11:31:54Z</time>
      </trkpt>
      <trkpt lat="41.807565009221435" lon="-2.845381032675505">
        <ele>1137.3219999999999</ele>
        <time>2021-07-10T11:31:55Z</time>
      </trkpt>
      <trkpt lat="41.80755402892828" lon="-2.844581985846162">
        <ele>1138.008</ele>
        <time>2021-07-10T11:31:57Z</time>
      </trkpt>
      <trkpt lat="41.807541958987713" lon="-2.843749998137355">
        <ele>1138.731</ele>
        <time>2021-07-10T11:31:59Z</time>
      </trkpt>
      <trkpt lat="41.807536007836461" lon="-2.843326041474938">
        <ele>1139.521</ele>
        <time>2021-07-10T11:32:00Z</time>
      </trkpt>
      <trkpt lat="41.807524021714926" lon="-2.842475026845932">
        <ele>1140.0920000000001</ele>
        <time>2021-07-10T11:32:02Z</time>
      </trkpt>
      <trkpt lat="41.80751102976501" lon="-2.841620994731784">
        <ele>1140.4580000000001</ele>
        <time>2021-07-10T11:32:03Z</time>
      </trkpt>
      <trkpt lat="41.807498037815094" lon="-2.840765034779906">
        <ele>1141.3599999999999</ele>
        <time>2021-07-10T11:32:05Z</time>
      </trkpt>
      <trkpt lat="41.80749099701643" lon="-2.840334959328175">
        <ele>1142.1130000000001</ele>
        <time>2021-07-10T11:32:06Z</time>
      </trkpt>
      <trkpt lat="41.807475993409753" lon="-2.839486040174961">
        <ele>1142.847</ele>
        <time>2021-07-10T11:32:08Z</time>
      </trkpt>
      <trkpt lat="41.80746903643012" lon="-2.839060993865132">
        <ele>1143.2260000000001</ele>
        <time>2021-07-10T11:32:09Z</time>
      </trkpt>
      <trkpt lat="41.807460989803076" lon="-2.838623039424419">
        <ele>1143.4960000000001</ele>
        <time>2021-07-10T11:32:11Z</time>
      </trkpt>
      <trkpt lat="41.807446992024779" lon="-2.837781999260187">
        <ele>1143.6310000000001</ele>
        <time>2021-07-10T11:32:13Z</time>
      </trkpt>
      <trkpt lat="41.807435005903244" lon="-2.836958980187774">
        <ele>1143.8240000000001</ele>
        <time>2021-07-10T11:32:14Z</time>
      </trkpt>
      <trkpt lat="41.807428970932961" lon="-2.836533011868596">
        <ele>1143.808</ele>
        <time>2021-07-10T11:32:15Z</time>
      </trkpt>
      <trkpt lat="41.807423019781709" lon="-2.836082987487316">
        <ele>1144.336</ele>
        <time>2021-07-10T11:32:17Z</time>
      </trkpt>
      <trkpt lat="41.807411033660173" lon="-2.835267009213567">
        <ele>1144.2560000000001</ele>
        <time>2021-07-10T11:32:19Z</time>
      </trkpt>
      <trkpt lat="41.80740499868989" lon="-2.834841040894389">
        <ele>1144.1569999999999</ele>
        <time>2021-07-10T11:32:20Z</time>
      </trkpt>
      <trkpt lat="41.807393012568355" lon="-2.833978040143848">
        <ele>1143.393</ele>
        <time>2021-07-10T11:32:22Z</time>
      </trkpt>
      <trkpt lat="41.807385971769691" lon="-2.83314798027277">
        <ele>1142.4649999999999</ele>
        <time>2021-07-10T11:32:24Z</time>
      </trkpt>
      <trkpt lat="41.807380020618439" lon="-2.832303000614047">
        <ele>1141.288</ele>
        <time>2021-07-10T11:32:26Z</time>
      </trkpt>
      <trkpt lat="41.807375997304916" lon="-2.831881977617741">
        <ele>1140.1220000000001</ele>
        <time>2021-07-10T11:32:28Z</time>
      </trkpt>
      <trkpt lat="41.807371973991394" lon="-2.831439999863505">
        <ele>1139.1610000000001</ele>
        <time>2021-07-10T11:32:30Z</time>
      </trkpt>
      <trkpt lat="41.807358982041478" lon="-2.83063399605453">
        <ele>1138.684</ele>
        <time>2021-07-10T11:32:31Z</time>
      </trkpt>
      <trkpt lat="41.807342972606421" lon="-2.829799996688962">
        <ele>1138.5070000000001</ele>
        <time>2021-07-10T11:32:33Z</time>
      </trkpt>
      <trkpt lat="41.807335009798408" lon="-2.829356007277966">
        <ele>1138.7170000000001</ele>
        <time>2021-07-10T11:32:34Z</time>
      </trkpt>
      <trkpt lat="41.807322017848492" lon="-2.828551009297371">
        <ele>1139.2080000000001</ele>
        <time>2021-07-10T11:32:36Z</time>
      </trkpt>
      <trkpt lat="41.807311959564686" lon="-2.827717009931803">
        <ele>1139.425</ele>
        <time>2021-07-10T11:32:38Z</time>
      </trkpt>
      <trkpt lat="41.807303996756673" lon="-2.827268997207284">
        <ele>1139.7550000000001</ele>
        <time>2021-07-10T11:32:39Z</time>
      </trkpt>
      <trkpt lat="41.807289998978376" lon="-2.826463999226689">
        <ele>1139.2159999999999</ele>
        <time>2021-07-10T11:32:41Z</time>
      </trkpt>
      <trkpt lat="41.807274995371699" lon="-2.825608039274812">
        <ele>1138.6320000000001</ele>
        <time>2021-07-10T11:32:43Z</time>
      </trkpt>
      <trkpt lat="41.807268038392067" lon="-2.825150974094868">
        <ele>1138.2539999999999</ele>
        <time>2021-07-10T11:32:45Z</time>
      </trkpt>
      <trkpt lat="41.8072559684515" lon="-2.824324015527964">
        <ele>1138.1669999999999</ele>
        <time>2021-07-10T11:32:46Z</time>
      </trkpt>
      <trkpt lat="41.807250017300248" lon="-2.823885977268219">
        <ele>1137.8510000000001</ele>
        <time>2021-07-10T11:32:47Z</time>
      </trkpt>
      <trkpt lat="41.807238031178713" lon="-2.823010990396142">
        <ele>1137.49</ele>
        <time>2021-07-10T11:32:48Z</time>
      </trkpt>
      <trkpt lat="41.807230990380049" lon="-2.822546968236566">
        <ele>1137.1379999999999</ele>
        <time>2021-07-10T11:32:49Z</time>
      </trkpt>
      <trkpt lat="41.807217998430133" lon="-2.82169402576983">
        <ele>1136.27</ele>
        <time>2021-07-10T11:32:51Z</time>
      </trkpt>
      <trkpt lat="41.8072110414505" lon="-2.821251964196563">
        <ele>1135.7170000000001</ele>
        <time>2021-07-10T11:32:53Z</time>
      </trkpt>
      <trkpt lat="41.807196037843823" lon="-2.820367002859712">
        <ele>1135.008</ele>
        <time>2021-07-10T11:32:54Z</time>
      </trkpt>
      <trkpt lat="41.807182040065527" lon="-2.819491010159254">
        <ele>1134.52</ele>
        <time>2021-07-10T11:32:56Z</time>
      </trkpt>
      <trkpt lat="41.807174999266863" lon="-2.819050960242748">
        <ele>1134.73</ele>
        <time>2021-07-10T11:32:58Z</time>
      </trkpt>
      <trkpt lat="41.807167958468199" lon="-2.818585010245442">
        <ele>1135.6210000000001</ele>
        <time>2021-07-10T11:33:00Z</time>
      </trkpt>
      <trkpt lat="41.807162007316947" lon="-2.817748999223113">
        <ele>1136.1669999999999</ele>
        <time>2021-07-10T11:33:01Z</time>
      </trkpt>
      <trkpt lat="41.807151027023792" lon="-2.816859008744359">
        <ele>1136.6189999999999</ele>
        <time>2021-07-10T11:33:03Z</time>
      </trkpt>
      <trkpt lat="41.807142980396748" lon="-2.816403033211827">
        <ele>1136.912</ele>
        <time>2021-07-10T11:33:05Z</time>
      </trkpt>
      <trkpt lat="41.80712697096169" lon="-2.815536009147763">
        <ele>1136.7260000000001</ele>
        <time>2021-07-10T11:33:06Z</time>
      </trkpt>
      <trkpt lat="41.807112973183393" lon="-2.814651969820261">
        <ele>1135.9449999999999</ele>
        <time>2021-07-10T11:33:08Z</time>
      </trkpt>
      <trkpt lat="41.807098975405097" lon="-2.813734989613295">
        <ele>1135.1579999999999</ele>
        <time>2021-07-10T11:33:09Z</time>
      </trkpt>
      <trkpt lat="41.807085983455181" lon="-2.81288699246943">
        <ele>1134.0519999999999</ele>
        <time>2021-07-10T11:33:11Z</time>
      </trkpt>
      <trkpt lat="41.807070979848504" lon="-2.81200597062707">
        <ele>1133.0170000000001</ele>
        <time>2021-07-10T11:33:12Z</time>
      </trkpt>
      <trkpt lat="41.807063017040491" lon="-2.811545971781015">
        <ele>1132.008</ele>
        <time>2021-07-10T11:33:14Z</time>
      </trkpt>
      <trkpt lat="41.807050025090575" lon="-2.810725970193744">
        <ele>1131.5920000000001</ele>
        <time>2021-07-10T11:33:15Z</time>
      </trkpt>
      <trkpt lat="41.807043990120292" lon="-2.810303019359708">
        <ele>1131.5820000000001</ele>
        <time>2021-07-10T11:33:17Z</time>
      </trkpt>
      <trkpt lat="41.807033009827137" lon="-2.80947002582252">
        <ele>1132.453</ele>
        <time>2021-07-10T11:33:19Z</time>
      </trkpt>
      <trkpt lat="41.807026974856853" lon="-2.808691011741757">
        <ele>1133.3589999999999</ele>
        <time>2021-07-10T11:33:21Z</time>
      </trkpt>
      <trkpt lat="41.807021023705602" lon="-2.808290021494031">
        <ele>1134.251</ele>
        <time>2021-07-10T11:33:22Z</time>
      </trkpt>
      <trkpt lat="41.807009037584066" lon="-2.807492986321449">
        <ele>1134.894</ele>
        <time>2021-07-10T11:33:24Z</time>
      </trkpt>
      <trkpt lat="41.806996967643499" lon="-2.806698968634009">
        <ele>1135.828</ele>
        <time>2021-07-10T11:33:26Z</time>
      </trkpt>
      <trkpt lat="41.806984981521964" lon="-2.805920038372278">
        <ele>1136.6569999999999</ele>
        <time>2021-07-10T11:33:27Z</time>
      </trkpt>
      <trkpt lat="41.806979030370712" lon="-2.805526005104184">
        <ele>1137.6769999999999</ele>
        <time>2021-07-10T11:33:29Z</time>
      </trkpt>
      <trkpt lat="41.806972995400429" lon="-2.805141024291515">
        <ele>1138.5609999999999</ele>
        <time>2021-07-10T11:33:31Z</time>
      </trkpt>
      <trkpt lat="41.806966960430145" lon="-2.804746991023421">
        <ele>1139.2270000000001</ele>
        <time>2021-07-10T11:33:32Z</time>
      </trkpt>
      <trkpt lat="41.806961009278893" lon="-2.804358992725611">
        <ele>1139.9079999999999</ele>
        <time>2021-07-10T11:33:34Z</time>
      </trkpt>
      <trkpt lat="41.806947011500597" lon="-2.803534967824817">
        <ele>1140.134</ele>
        <time>2021-07-10T11:33:35Z</time>
      </trkpt>
      <trkpt lat="41.806934019550681" lon="-2.802770035341382">
        <ele>1139.894</ele>
        <time>2021-07-10T11:33:37Z</time>
      </trkpt>
      <trkpt lat="41.806926978752017" lon="-2.802364015951753">
        <ele>1138.9449999999999</ele>
        <time>2021-07-10T11:33:38Z</time>
      </trkpt>
      <trkpt lat="41.806913986802101" lon="-2.801531022414565">
        <ele>1138.3109999999999</ele>
        <time>2021-07-10T11:33:40Z</time>
      </trkpt>
      <trkpt lat="41.806902000680566" lon="-2.800743039697409">
        <ele>1137.0830000000001</ele>
        <time>2021-07-10T11:33:42Z</time>
      </trkpt>
      <trkpt lat="41.806890014559031" lon="-2.799949022009969">
        <ele>1135.866</ele>
        <time>2021-07-10T11:33:43Z</time>
      </trkpt>
      <trkpt lat="41.806882973760366" lon="-2.799539985135198">
        <ele>1134.27</ele>
        <time>2021-07-10T11:33:45Z</time>
      </trkpt>
      <trkpt lat="41.80686897598207" lon="-2.798767006024718">
        <ele>1133.229</ele>
        <time>2021-07-10T11:33:46Z</time>
      </trkpt>
      <trkpt lat="41.806856989860535" lon="-2.797996038571">
        <ele>1132.3679999999999</ele>
        <time>2021-07-10T11:33:47Z</time>
      </trkpt>
      <trkpt lat="41.806851038709283" lon="-2.797595970332623">
        <ele>1131.6420000000001</ele>
        <time>2021-07-10T11:33:49Z</time>
      </trkpt>
      <trkpt lat="41.806843997910619" lon="-2.796846963465214">
        <ele>1130.7260000000001</ele>
        <time>2021-07-10T11:33:51Z</time>
      </trkpt>
      <trkpt lat="41.806840980425477" lon="-2.796454019844532">
        <ele>1130.008</ele>
        <time>2021-07-10T11:33:52Z</time>
      </trkpt>
      <trkpt lat="41.806830000132322" lon="-2.795666037127376">
        <ele>1129.5129999999999</ele>
        <time>2021-07-10T11:33:53Z</time>
      </trkpt>
      <trkpt lat="41.806822037324309" lon="-2.795241996645927">
        <ele>1128.9929999999999</ele>
        <time>2021-07-10T11:33:55Z</time>
      </trkpt>
      <trkpt lat="41.806793035939336" lon="-2.794473962858319">
        <ele>1128.5340000000001</ele>
        <time>2021-07-10T11:33:57Z</time>
      </trkpt>
      <trkpt lat="41.806753976270556" lon="-2.794078001752496">
        <ele>1127.76</ele>
        <time>2021-07-10T11:33:59Z</time>
      </trkpt>
      <trkpt lat="41.806613998487592" lon="-2.793333018198609">
        <ele>1127.3219999999999</ele>
        <time>2021-07-10T11:34:00Z</time>
      </trkpt>
      <trkpt lat="41.806435966864228" lon="-2.792632039636374">
        <ele>1126.7249999999999</ele>
        <time>2021-07-10T11:34:02Z</time>
      </trkpt>
      <trkpt lat="41.806265981867909" lon="-2.791970036923885">
        <ele>1126.3889999999999</ele>
        <time>2021-07-10T11:34:03Z</time>
      </trkpt>
      <trkpt lat="41.806179983541369" lon="-2.791625037789345">
        <ele>1125.838</ele>
        <time>2021-07-10T11:34:05Z</time>
      </trkpt>
      <trkpt lat="41.80603195913136" lon="-2.791021037846804">
        <ele>1125.1769999999999</ele>
        <time>2021-07-10T11:34:06Z</time>
      </trkpt>
      <trkpt lat="41.805882006883621" lon="-2.790399016812444">
        <ele>1124.461</ele>
        <time>2021-07-10T11:34:07Z</time>
      </trkpt>
      <trkpt lat="41.805798020213842" lon="-2.790067009627819">
        <ele>1123.527</ele>
        <time>2021-07-10T11:34:08Z</time>
      </trkpt>
      <trkpt lat="41.805648989975452" lon="-2.789452029392123">
        <ele>1121.9079999999999</ele>
        <time>2021-07-10T11:34:10Z</time>
      </trkpt>
      <trkpt lat="41.80551303550601" lon="-2.788793966174126">
        <ele>1119.884</ele>
        <time>2021-07-10T11:34:12Z</time>
      </trkpt>
      <trkpt lat="41.805462995544076" lon="-2.788443015888333">
        <ele>1117.5840000000001</ele>
        <time>2021-07-10T11:34:13Z</time>
      </trkpt>
      <trkpt lat="41.805414967238903" lon="-2.78779299929738">
        <ele>1115.865</ele>
        <time>2021-07-10T11:34:14Z</time>
      </trkpt>
      <trkpt lat="41.80540700443089" lon="-2.787445988506079">
        <ele>1113.751</ele>
        <time>2021-07-10T11:34:16Z</time>
      </trkpt>
      <trkpt lat="41.805434999987483" lon="-2.786752972751856">
        <ele>1112.5229999999999</ele>
        <time>2021-07-10T11:34:17Z</time>
      </trkpt>
      <trkpt lat="41.805474981665611" lon="-2.786419037729502">
        <ele>1111.9159999999999</ele>
        <time>2021-07-10T11:34:18Z</time>
      </trkpt>
      <trkpt lat="41.805590987205505" lon="-2.785790981724858">
        <ele>1111.97</ele>
        <time>2021-07-10T11:34:19Z</time>
      </trkpt>
      <trkpt lat="41.805748986080289" lon="-2.785110035911202">
        <ele>1113.029</ele>
        <time>2021-07-10T11:34:21Z</time>
      </trkpt>
      <trkpt lat="41.805825009942055" lon="-2.784779034554958">
        <ele>1114.825</ele>
        <time>2021-07-10T11:34:23Z</time>
      </trkpt>
      <trkpt lat="41.805966999381781" lon="-2.784133963286877">
        <ele>1116.826</ele>
        <time>2021-07-10T11:34:25Z</time>
      </trkpt>
      <trkpt lat="41.806038999930024" lon="-2.783797010779381">
        <ele>1118.7080000000001</ele>
        <time>2021-07-10T11:34:27Z</time>
      </trkpt>
      <trkpt lat="41.806112006306648" lon="-2.783455029129982">
        <ele>1120.4079999999999</ele>
        <time>2021-07-10T11:34:28Z</time>
      </trkpt>
      <trkpt lat="41.806258019059896" lon="-2.782797971740365">
        <ele>1121.8489999999999</ele>
        <time>2021-07-10T11:34:30Z</time>
      </trkpt>
      <trkpt lat="41.806428004056215" lon="-2.782143009826541">
        <ele>1122.8989999999999</ele>
        <time>2021-07-10T11:34:31Z</time>
      </trkpt>
      <trkpt lat="41.806528000161052" lon="-2.781827012076974">
        <ele>1123.8499999999999</ele>
        <time>2021-07-10T11:34:33Z</time>
      </trkpt>
      <trkpt lat="41.806638976559043" lon="-2.781505985185504">
        <ele>1124.6559999999999</ele>
        <time>2021-07-10T11:34:34Z</time>
      </trkpt>
      <trkpt lat="41.806857995688915" lon="-2.780905002728105">
        <ele>1125.058</ele>
        <time>2021-07-10T11:34:36Z</time>
      </trkpt>
      <trkpt lat="41.807075003162026" lon="-2.780284993350506">
        <ele>1125.5309999999999</ele>
        <time>2021-07-10T11:34:38Z</time>
      </trkpt>
      <trkpt lat="41.807291004806757" lon="-2.779650986194611">
        <ele>1126.0550000000001</ele>
        <time>2021-07-10T11:34:39Z</time>
      </trkpt>
      <trkpt lat="41.807388989254832" lon="-2.779319984838367">
        <ele>1126.614</ele>
        <time>2021-07-10T11:34:41Z</time>
      </trkpt>
      <trkpt lat="41.807551011443138" lon="-2.778624035418034">
        <ele>1127.452</ele>
        <time>2021-07-10T11:34:43Z</time>
      </trkpt>
      <trkpt lat="41.807628963142633" lon="-2.778241988271475">
        <ele>1127.953</ele>
        <time>2021-07-10T11:34:44Z</time>
      </trkpt>
      <trkpt lat="41.807747986167669" lon="-2.777543021366">
        <ele>1127.7080000000001</ele>
        <time>2021-07-10T11:34:46Z</time>
      </trkpt>
      <trkpt lat="41.807806994765997" lon="-2.777168015018106">
        <ele>1127.4079999999999</ele>
        <time>2021-07-10T11:34:47Z</time>
      </trkpt>
      <trkpt lat="41.807867009192705" lon="-2.77679099701345">
        <ele>1126.982</ele>
        <time>2021-07-10T11:34:49Z</time>
      </trkpt>
      <trkpt lat="41.807931968942285" lon="-2.776389000937343">
        <ele>1126.492</ele>
        <time>2021-07-10T11:34:51Z</time>
      </trkpt>
      <trkpt lat="41.808040011674166" lon="-2.775660026818514">
        <ele>1125.8530000000001</ele>
        <time>2021-07-10T11:34:53Z</time>
      </trkpt>
      <trkpt lat="41.808102037757635" lon="-2.774894004687667">
        <ele>1125.3889999999999</ele>
        <time>2021-07-10T11:34:54Z</time>
      </trkpt>
      <trkpt lat="41.808106983080506" lon="-2.774483039975166">
        <ele>1124.761</ele>
        <time>2021-07-10T11:34:56Z</time>
      </trkpt>
      <trkpt lat="41.808088961988688" lon="-2.774097975343466">
        <ele>1124.2439999999999</ele>
        <time>2021-07-10T11:34:58Z</time>
      </trkpt>
      <trkpt lat="41.807990977540612" lon="-2.773357015103102">
        <ele>1124.048</ele>
        <time>2021-07-10T11:34:59Z</time>
      </trkpt>
      <trkpt lat="41.807902967557311" lon="-2.772975973784924">
        <ele>1124.047</ele>
        <time>2021-07-10T11:35:01Z</time>
      </trkpt>
      <trkpt lat="41.807795008644462" lon="-2.772573977708817">
        <ele>1124.058</ele>
        <time>2021-07-10T11:35:03Z</time>
      </trkpt>
      <trkpt lat="41.807685038074851" lon="-2.772210035473108">
        <ele>1124.252</ele>
        <time>2021-07-10T11:35:04Z</time>
      </trkpt>
      <trkpt lat="41.807456966489553" lon="-2.771502016112208">
        <ele>1124.4169999999999</ele>
        <time>2021-07-10T11:35:05Z</time>
      </trkpt>
      <trkpt lat="41.807239037007093" lon="-2.770758960396051">
        <ele>1124.308</ele>
        <time>2021-07-10T11:35:06Z</time>
      </trkpt>
      <trkpt lat="41.807092018425465" lon="-2.770063010975719">
        <ele>1124.7919999999999</ele>
        <time>2021-07-10T11:35:08Z</time>
      </trkpt>
      <trkpt lat="41.80701800622046" lon="-2.769345017150044">
        <ele>1125.192</ele>
        <time>2021-07-10T11:35:09Z</time>
      </trkpt>
      <trkpt lat="41.807006020098925" lon="-2.768978979438543">
        <ele>1125.883</ele>
        <time>2021-07-10T11:35:11Z</time>
      </trkpt>
      <trkpt lat="41.807035021483898" lon="-2.76826199144125">
        <ele>1126.799</ele>
        <time>2021-07-10T11:35:13Z</time>
      </trkpt>
      <trkpt lat="41.807076008990407" lon="-2.76789603754878">
        <ele>1127.511</ele>
        <time>2021-07-10T11:35:15Z</time>
      </trkpt>
      <trkpt lat="41.807168964296579" lon="-2.767154993489385">
        <ele>1128.174</ele>
        <time>2021-07-10T11:35:17Z</time>
      </trkpt>
      <trkpt lat="41.807220010086894" lon="-2.766756014898419">
        <ele>1129.058</ele>
        <time>2021-07-10T11:35:18Z</time>
      </trkpt>
      <trkpt lat="41.807302990928292" lon="-2.76602896861732">
        <ele>1129.9770000000001</ele>
        <time>2021-07-10T11:35:19Z</time>
      </trkpt>
      <trkpt lat="41.807385971769691" lon="-2.76527501642704">
        <ele>1130.819</ele>
        <time>2021-07-10T11:35:20Z</time>
      </trkpt>
      <trkpt lat="41.80742603726685" lon="-2.764884000644088">
        <ele>1131.809</ele>
        <time>2021-07-10T11:35:22Z</time>
      </trkpt>
      <trkpt lat="41.807497031986713" lon="-2.76420003734529">
        <ele>1133.019</ele>
        <time>2021-07-10T11:35:24Z</time>
      </trkpt>
      <trkpt lat="41.807575989514589" lon="-2.763516996055841">
        <ele>1133.7080000000001</ele>
        <time>2021-07-10T11:35:25Z</time>
      </trkpt>
      <trkpt lat="41.807615971192718" lon="-2.763199992477894">
        <ele>1134.548</ele>
        <time>2021-07-10T11:35:26Z</time>
      </trkpt>
      <trkpt lat="41.807736000046134" lon="-2.762595992535353">
        <ele>1135.278</ele>
        <time>2021-07-10T11:35:28Z</time>
      </trkpt>
      <trkpt lat="41.807819986715913" lon="-2.762306984513998">
        <ele>1136.1590000000001</ele>
        <time>2021-07-10T11:35:30Z</time>
      </trkpt>
      <trkpt lat="41.808036994189024" lon="-2.761739026755095">
        <ele>1137.085</ele>
        <time>2021-07-10T11:35:32Z</time>
      </trkpt>
      <trkpt lat="41.808270011097193" lon="-2.761189006268978">
        <ele>1137.4469999999999</ele>
        <time>2021-07-10T11:35:33Z</time>
      </trkpt>
      <trkpt lat="41.808494981378317" lon="-2.760645020753145">
        <ele>1137.76</ele>
        <time>2021-07-10T11:35:35Z</time>
      </trkpt>
      <trkpt lat="41.808611992746592" lon="-2.760360036045313">
        <ele>1138.0640000000001</ele>
        <time>2021-07-10T11:35:37Z</time>
      </trkpt>
      <trkpt lat="41.808822965249419" lon="-2.759842034429312">
        <ele>1138.133</ele>
        <time>2021-07-10T11:35:38Z</time>
      </trkpt>
      <trkpt lat="41.80903603322804" lon="-2.759320009499788">
        <ele>1138.5360000000001</ele>
        <time>2021-07-10T11:35:39Z</time>
      </trkpt>
      <trkpt lat="41.809148015454412" lon="-2.759048016741872">
        <ele>1138.817</ele>
        <time>2021-07-10T11:35:40Z</time>
      </trkpt>
      <trkpt lat="41.809347001835704" lon="-2.758563961833715">
        <ele>1139.018</ele>
        <time>2021-07-10T11:35:42Z</time>
      </trkpt>
      <trkpt lat="41.809521010145545" lon="-2.75814201682806">
        <ele>1139.008</ele>
        <time>2021-07-10T11:35:43Z</time>
      </trkpt>
      <trkpt lat="41.809583036229014" lon="-2.757989969104528">
        <ele>1139.1300000000001</ele>
        <time>2021-07-10T11:35:44Z</time>
      </trkpt>
      <trkpt lat="41.809632992371917" lon="-2.757866000756621">
        <ele>1138.9300000000001</ele>
        <time>2021-07-10T11:35:45Z</time>
      </trkpt>
      <trkpt lat="41.809683032333851" lon="-2.757743960246444">
        <ele>1138.8409999999999</ele>
        <time>2021-07-10T11:35:47Z</time>
      </trkpt>
      <trkpt lat="41.809772970154881" lon="-2.757521001622081">
        <ele>1138.4970000000001</ele>
        <time>2021-07-10T11:35:49Z</time>
      </trkpt>
      <trkpt lat="41.809819992631674" lon="-2.757407007738948">
        <ele>1138.4490000000001</ele>
        <time>2021-07-10T11:35:51Z</time>
      </trkpt>
      <trkpt lat="41.809901967644691" lon="-2.757206009700894">
        <ele>1138.462</ele>
        <time>2021-07-10T11:35:53Z</time>
      </trkpt>
      <trkpt lat="41.809987965971231" lon="-2.756992019712925">
        <ele>1138.576</ele>
        <time>2021-07-10T11:35:54Z</time>
      </trkpt>
      <trkpt lat="41.81011101230979" lon="-2.756683984771371">
        <ele>1138.135</ele>
        <time>2021-07-10T11:35:55Z</time>
      </trkpt>
      <trkpt lat="41.810256019234657" lon="-2.756357006728649">
        <ele>1138.3689999999999</ele>
        <time>2021-07-10T11:35:56Z</time>
      </trkpt>
      <trkpt lat="41.810342017561197" lon="-2.756182998418808">
        <ele>1137.604</ele>
        <time>2021-07-10T11:35:58Z</time>
      </trkpt>
      <trkpt lat="41.81043203920126" lon="-2.75601502507925">
        <ele>1136.924</ele>
        <time>2021-07-10T11:35:59Z</time>
      </trkpt>
      <trkpt lat="41.810523988679051" lon="-2.755841016769409">
        <ele>1136.508</ele>
        <time>2021-07-10T11:36:00Z</time>
      </trkpt>
      <trkpt lat="41.81069003418088" lon="-2.755519989877939">
        <ele>1135.883</ele>
        <time>2021-07-10T11:36:02Z</time>
      </trkpt>
      <trkpt lat="41.810852978378534" lon="-2.755174990743399">
        <ele>1134.933</ele>
        <time>2021-07-10T11:36:04Z</time>
      </trkpt>
      <trkpt lat="41.810932019725442" lon="-2.75498203933239">
        <ele>1134.3140000000001</ele>
        <time>2021-07-10T11:36:05Z</time>
      </trkpt>
      <trkpt lat="41.811007037758827" lon="-2.754781963303685">
        <ele>1133.8900000000001</ele>
        <time>2021-07-10T11:36:06Z</time>
      </trkpt>
      <trkpt lat="41.811138968914747" lon="-2.754358006641269">
        <ele>1132.922</ele>
        <time>2021-07-10T11:36:08Z</time>
      </trkpt>
      <trkpt lat="41.811246005818248" lon="-2.753886021673679">
        <ele>1132.2349999999999</ele>
        <time>2021-07-10T11:36:10Z</time>
      </trkpt>
      <trkpt lat="41.811313983052969" lon="-2.753400038927794">
        <ele>1131.829</ele>
        <time>2021-07-10T11:36:11Z</time>
      </trkpt>
      <trkpt lat="41.81133502162993" lon="-2.753140032291412">
        <ele>1131.288</ele>
        <time>2021-07-10T11:36:13Z</time>
      </trkpt>
      <trkpt lat="41.811344996094704" lon="-2.752600992098451">
        <ele>1130.8340000000001</ele>
        <time>2021-07-10T11:36:14Z</time>
      </trkpt>
      <trkpt lat="41.811313983052969" lon="-2.752062035724521">
        <ele>1130.155</ele>
        <time>2021-07-10T11:36:16Z</time>
      </trkpt>
      <trkpt lat="41.811282970011234" lon="-2.751796999946237">
        <ele>1129.6099999999999</ele>
        <time>2021-07-10T11:36:17Z</time>
      </trkpt>
      <trkpt lat="41.811239970847964" lon="-2.751555014401674">
        <ele>1128.9079999999999</ele>
        <time>2021-07-10T11:36:18Z</time>
      </trkpt>
      <trkpt lat="41.811191020533442" lon="-2.75133197195828">
        <ele>1127.8199999999999</ele>
        <time>2021-07-10T11:36:20Z</time>
      </trkpt>
      <trkpt lat="41.811106028035283" lon="-2.750961994752288">
        <ele>1127.1400000000001</ele>
        <time>2021-07-10T11:36:21Z</time>
      </trkpt>
      <trkpt lat="41.811065962538123" lon="-2.750778011977673">
        <ele>1126.0809999999999</ele>
        <time>2021-07-10T11:36:23Z</time>
      </trkpt>
      <trkpt lat="41.811031010001898" lon="-2.750616995617747">
        <ele>1125.077</ele>
        <time>2021-07-10T11:36:25Z</time>
      </trkpt>
      <trkpt lat="41.811003014445305" lon="-2.750480035319924">
        <ele>1124.029</ele>
        <time>2021-07-10T11:36:26Z</time>
      </trkpt>
      <trkpt lat="41.81095196865499" lon="-2.750227991491556">
        <ele>1123.3320000000001</ele>
        <time>2021-07-10T11:36:28Z</time>
      </trkpt>
      <trkpt lat="41.810897989198565" lon="-2.749969996511936">
        <ele>1122.366</ele>
        <time>2021-07-10T11:36:30Z</time>
      </trkpt>
      <trkpt lat="41.810839986428618" lon="-2.749664979055524">
        <ele>1121.845</ele>
        <time>2021-07-10T11:36:31Z</time>
      </trkpt>
      <trkpt lat="41.810782989487052" lon="-2.749335989356041">
        <ele>1121.1210000000001</ele>
        <time>2021-07-10T11:36:33Z</time>
      </trkpt>
      <trkpt lat="41.810761028900743" lon="-2.749191988259554">
        <ele>1121.1410000000001</ele>
        <time>2021-07-10T11:36:35Z</time>
      </trkpt>
      <trkpt lat="41.81073596701026" lon="-2.749001970514655">
        <ele>1121.0050000000001</ele>
        <time>2021-07-10T11:36:36Z</time>
      </trkpt>
      <trkpt lat="41.810710988938808" lon="-2.748784963041544">
        <ele>1121.1079999999999</ele>
        <time>2021-07-10T11:36:37Z</time>
      </trkpt>
      <trkpt lat="41.810694979503751" lon="-2.748372992500663">
        <ele>1121.3589999999999</ele>
        <time>2021-07-10T11:36:39Z</time>
      </trkpt>
      <trkpt lat="41.81069397367537" lon="-2.748063029721379">
        <ele>1121.6890000000001</ele>
        <time>2021-07-10T11:36:40Z</time>
      </trkpt>
      <trkpt lat="41.810702020302415" lon="-2.747761029750109">
        <ele>1121.9300000000001</ele>
        <time>2021-07-10T11:36:41Z</time>
      </trkpt>
      <trkpt lat="41.810747031122446" lon="-2.747159041464329">
        <ele>1122.1959999999999</ele>
        <time>2021-07-10T11:36:42Z</time>
      </trkpt>
      <trkpt lat="41.810806961730123" lon="-2.746560992673039">
        <ele>1122.3879999999999</ele>
        <time>2021-07-10T11:36:44Z</time>
      </trkpt>
      <trkpt lat="41.810838980600238" lon="-2.746251029893756">
        <ele>1122.6110000000001</ele>
        <time>2021-07-10T11:36:45Z</time>
      </trkpt>
      <trkpt lat="41.810867981985211" lon="-2.745924973860383">
        <ele>1122.655</ele>
        <time>2021-07-10T11:36:47Z</time>
      </trkpt>
      <trkpt lat="41.810926990583539" lon="-2.745317034423351">
        <ele>1123.3240000000001</ele>
        <time>2021-07-10T11:36:49Z</time>
      </trkpt>
      <trkpt lat="41.810993039980531" lon="-2.744661988690496">
        <ele>1123.9179999999999</ele>
        <time>2021-07-10T11:36:51Z</time>
      </trkpt>
      <trkpt lat="41.811028998345137" lon="-2.744300980120897">
        <ele>1124.998</ele>
        <time>2021-07-10T11:36:53Z</time>
      </trkpt>
      <trkpt lat="41.811093036085367" lon="-2.743645012378693">
        <ele>1126.0170000000001</ele>
        <time>2021-07-10T11:36:55Z</time>
      </trkpt>
      <trkpt lat="41.811126982793212" lon="-2.743291966617107">
        <ele>1127.2080000000001</ele>
        <time>2021-07-10T11:36:57Z</time>
      </trkpt>
      <trkpt lat="41.811194960027933" lon="-2.742579001933336">
        <ele>1128.098</ele>
        <time>2021-07-10T11:36:58Z</time>
      </trkpt>
      <trkpt lat="41.811224967241287" lon="-2.742218999192119">
        <ele>1128.4380000000001</ele>
        <time>2021-07-10T11:37:00Z</time>
      </trkpt>
      <trkpt lat="41.811260003596544" lon="-2.74185698479414">
        <ele>1128.7190000000001</ele>
        <time>2021-07-10T11:37:01Z</time>
      </trkpt>
      <trkpt lat="41.811325969174504" lon="-2.741147037595511">
        <ele>1128.4749999999999</ele>
        <time>2021-07-10T11:37:03Z</time>
      </trkpt>
      <trkpt lat="41.811363017186522" lon="-2.740773037075996">
        <ele>1128.297</ele>
        <time>2021-07-10T11:37:04Z</time>
      </trkpt>
      <trkpt lat="41.811428982764482" lon="-2.740111034363508">
        <ele>1127.8699999999999</ele>
        <time>2021-07-10T11:37:06Z</time>
      </trkpt>
      <trkpt lat="41.811497965827584" lon="-2.739420030266047">
        <ele>1127.624</ele>
        <time>2021-07-10T11:37:07Z</time>
      </trkpt>
      <trkpt lat="41.811534008011222" lon="-2.739052986726165">
        <ele>1127.193</ele>
        <time>2021-07-10T11:37:09Z</time>
      </trkpt>
      <trkpt lat="41.811597039923072" lon="-2.738405987620354">
        <ele>1126.5129999999999</ele>
        <time>2021-07-10T11:37:11Z</time>
      </trkpt>
      <trkpt lat="41.811665017157793" lon="-2.737714983522892">
        <ele>1126.3430000000001</ele>
        <time>2021-07-10T11:37:12Z</time>
      </trkpt>
      <trkpt lat="41.811700975522399" lon="-2.7373450063169">
        <ele>1125.9069999999999</ele>
        <time>2021-07-10T11:37:13Z</time>
      </trkpt>
      <trkpt lat="41.81176601909101" lon="-2.736674034968019">
        <ele>1125.7080000000001</ele>
        <time>2021-07-10T11:37:14Z</time>
      </trkpt>
      <trkpt lat="41.811836007982492" lon="-2.735958974808455">
        <ele>1125.1880000000001</ele>
        <time>2021-07-10T11:37:16Z</time>
      </trkpt>
      <trkpt lat="41.811871966347098" lon="-2.735592015087605">
        <ele>1124.568</ele>
        <time>2021-07-10T11:37:17Z</time>
      </trkpt>
      <trkpt lat="41.811904991045594" lon="-2.73521801456809">
        <ele>1124.059</ele>
        <time>2021-07-10T11:37:18Z</time>
      </trkpt>
      <trkpt lat="41.811974979937077" lon="-2.734515024349093">
        <ele>1123.5150000000001</ele>
        <time>2021-07-10T11:37:19Z</time>
      </trkpt>
      <trkpt lat="41.812012027949095" lon="-2.734140018001199">
        <ele>1122.597</ele>
        <time>2021-07-10T11:37:21Z</time>
      </trkpt>
      <trkpt lat="41.812047986313701" lon="-2.733767023310065">
        <ele>1121.1300000000001</ele>
        <time>2021-07-10T11:37:23Z</time>
      </trkpt>
      <trkpt lat="41.812086962163448" lon="-2.73336997255683">
        <ele>1120.2639999999999</ele>
        <time>2021-07-10T11:37:24Z</time>
      </trkpt>
      <trkpt lat="41.812155023217201" lon="-2.732657007873058">
        <ele>1119.2729999999999</ele>
        <time>2021-07-10T11:37:26Z</time>
      </trkpt>
      <trkpt lat="41.812190981581807" lon="-2.732277978211641">
        <ele>1118.165</ele>
        <time>2021-07-10T11:37:27Z</time>
      </trkpt>
      <trkpt lat="41.812265999615192" lon="-2.731503993272781">
        <ele>1116.9680000000001</ele>
        <time>2021-07-10T11:37:29Z</time>
      </trkpt>
      <trkpt lat="41.812333976849914" lon="-2.730784993618727">
        <ele>1115.914</ele>
        <time>2021-07-10T11:37:31Z</time>
      </trkpt>
      <trkpt lat="41.812406983226538" lon="-2.73001997731626">
        <ele>1114.6079999999999</ele>
        <time>2021-07-10T11:37:33Z</time>
      </trkpt>
      <trkpt lat="41.81247403845191" lon="-2.729318998754025">
        <ele>1113.6130000000001</ele>
        <time>2021-07-10T11:37:34Z</time>
      </trkpt>
      <trkpt lat="41.812542015686631" lon="-2.728605028241873">
        <ele>1112.7729999999999</ele>
        <time>2021-07-10T11:37:36Z</time>
      </trkpt>
      <trkpt lat="41.812608987092972" lon="-2.727888962253928">
        <ele>1111.894</ele>
        <time>2021-07-10T11:37:38Z</time>
      </trkpt>
      <trkpt lat="41.812642011791468" lon="-2.727537006139755">
        <ele>1110.8800000000001</ele>
        <time>2021-07-10T11:37:40Z</time>
      </trkpt>
      <trkpt lat="41.812704959884286" lon="-2.726854970678687">
        <ele>1110.5619999999999</ele>
        <time>2021-07-10T11:37:42Z</time>
      </trkpt>
      <trkpt lat="41.812736978754401" lon="-2.726508965715766">
        <ele>1110.2550000000001</ele>
        <time>2021-07-10T11:37:44Z</time>
      </trkpt>
      <trkpt lat="41.812807973474264" lon="-2.725801030173898">
        <ele>1110.299</ele>
        <time>2021-07-10T11:37:45Z</time>
      </trkpt>
      <trkpt lat="41.812849966809154" lon="-2.725449996069074">
        <ele>1110.518</ele>
        <time>2021-07-10T11:37:47Z</time>
      </trkpt>
      <trkpt lat="41.812946023419499" lon="-2.72477500140667">
        <ele>1110.749</ele>
        <time>2021-07-10T11:37:49Z</time>
      </trkpt>
      <trkpt lat="41.812997991219163" lon="-2.724412987008691">
        <ele>1111.702</ele>
        <time>2021-07-10T11:37:51Z</time>
      </trkpt>
      <trkpt lat="41.813103016465902" lon="-2.723677977919579">
        <ele>1112.6220000000001</ele>
        <time>2021-07-10T11:37:52Z</time>
      </trkpt>
      <trkpt lat="41.813201000913978" lon="-2.722987979650497">
        <ele>1113.508</ele>
        <time>2021-07-10T11:37:54Z</time>
      </trkpt>
      <trkpt lat="41.813251962885261" lon="-2.722625965252519">
        <ele>1114.491</ele>
        <time>2021-07-10T11:37:55Z</time>
      </trkpt>
      <trkpt lat="41.813303008675575" lon="-2.722265040501952">
        <ele>1114.981</ele>
        <time>2021-07-10T11:37:57Z</time>
      </trkpt>
      <trkpt lat="41.813354976475239" lon="-2.721894979476929">
        <ele>1115.3520000000001</ele>
        <time>2021-07-10T11:37:58Z</time>
      </trkpt>
      <trkpt lat="41.813452960923314" lon="-2.721186960116029">
        <ele>1115.6980000000001</ele>
        <time>2021-07-10T11:37:59Z</time>
      </trkpt>
      <trkpt lat="41.813504006713629" lon="-2.720818994566798">
        <ele>1116.3599999999999</ele>
        <time>2021-07-10T11:38:00Z</time>
      </trkpt>
      <trkpt lat="41.813553962856531" lon="-2.720454968512058">
        <ele>1116.8630000000001</ele>
        <time>2021-07-10T11:38:02Z</time>
      </trkpt>
      <trkpt lat="41.813606014475226" lon="-2.720074011012912">
        <ele>1118.037</ele>
        <time>2021-07-10T11:38:04Z</time>
      </trkpt>
      <trkpt lat="41.813679020851851" lon="-2.719390969723463">
        <ele>1118.586</ele>
        <time>2021-07-10T11:38:05Z</time>
      </trkpt>
      <trkpt lat="41.813698969781399" lon="-2.718664007261396">
        <ele>1119.2329999999999</ele>
        <time>2021-07-10T11:38:07Z</time>
      </trkpt>
      <trkpt lat="41.813690001145005" lon="-2.718279026448727">
        <ele>1120.123</ele>
        <time>2021-07-10T11:38:09Z</time>
      </trkpt>
      <trkpt lat="41.81367801502347" lon="-2.717560026794672">
        <ele>1120.615</ele>
        <time>2021-07-10T11:38:10Z</time>
      </trkpt>
      <trkpt lat="41.813673991709948" lon="-2.717189965769649">
        <ele>1121.1079999999999</ele>
        <time>2021-07-10T11:38:11Z</time>
      </trkpt>
      <trkpt lat="41.813664017245173" lon="-2.716412963345647">
        <ele>1121.03</ele>
        <time>2021-07-10T11:38:12Z</time>
      </trkpt>
      <trkpt lat="41.813639961183071" lon="-2.715698992833495">
        <ele>1121.04</ele>
        <time>2021-07-10T11:38:13Z</time>
      </trkpt>
      <trkpt lat="41.813620012253523" lon="-2.714958032593131">
        <ele>1121.7909999999999</ele>
        <time>2021-07-10T11:38:15Z</time>
      </trkpt>
      <trkpt lat="41.813611965626478" lon="-2.714567016810179">
        <ele>1122.1569999999999</ele>
        <time>2021-07-10T11:38:16Z</time>
      </trkpt>
      <trkpt lat="41.813598973676562" lon="-2.713879030197859">
        <ele>1122.6690000000001</ele>
        <time>2021-07-10T11:38:18Z</time>
      </trkpt>
      <trkpt lat="41.813583970069885" lon="-2.71315198391676">
        <ele>1123.0119999999999</ele>
        <time>2021-07-10T11:38:20Z</time>
      </trkpt>
      <trkpt lat="41.813557986170053" lon="-2.712397025898099">
        <ele>1123.636</ele>
        <time>2021-07-10T11:38:21Z</time>
      </trkpt>
      <trkpt lat="41.813535019755363" lon="-2.711684983223677">
        <ele>1123.7349999999999</ele>
        <time>2021-07-10T11:38:23Z</time>
      </trkpt>
      <trkpt lat="41.813518004491925" lon="-2.710935976356268">
        <ele>1124.1590000000001</ele>
        <time>2021-07-10T11:38:25Z</time>
      </trkpt>
      <trkpt lat="41.813510963693261" lon="-2.710577985271812">
        <ele>1124.5029999999999</ele>
        <time>2021-07-10T11:38:27Z</time>
      </trkpt>
      <trkpt lat="41.813477016985416" lon="-2.709898967295885">
        <ele>1125.0229999999999</ele>
        <time>2021-07-10T11:38:28Z</time>
      </trkpt>
      <trkpt lat="41.813382972031832" lon="-2.709208969026804">
        <ele>1125.6079999999999</ele>
        <time>2021-07-10T11:38:30Z</time>
      </trkpt>
      <trkpt lat="41.813225978985429" lon="-2.708615027368069">
        <ele>1126.3320000000001</ele>
        <time>2021-07-10T11:38:32Z</time>
      </trkpt>
      <trkpt lat="41.813123971223831" lon="-2.708313027396798">
        <ele>1127.0920000000001</ele>
        <time>2021-07-10T11:38:34Z</time>
      </trkpt>
      <trkpt lat="41.812911992892623" lon="-2.707709027454257">
        <ele>1127.663</ele>
        <time>2021-07-10T11:38:35Z</time>
      </trkpt>
      <trkpt lat="41.812807973474264" lon="-2.707405015826225">
        <ele>1127.989</ele>
        <time>2021-07-10T11:38:36Z</time>
      </trkpt>
      <trkpt lat="41.812604963779449" lon="-2.706822976469994">
        <ele>1128.0509999999999</ele>
        <time>2021-07-10T11:38:38Z</time>
      </trkpt>
      <trkpt lat="41.812498010694981" lon="-2.706509996205568">
        <ele>1128.0840000000001</ele>
        <time>2021-07-10T11:38:39Z</time>
      </trkpt>
      <trkpt lat="41.812393991276622" lon="-2.70619098097086">
        <ele>1127.7380000000001</ele>
        <time>2021-07-10T11:38:40Z</time>
      </trkpt>
      <trkpt lat="41.812278991565108" lon="-2.705852016806603">
        <ele>1127.537</ele>
        <time>2021-07-10T11:38:41Z</time>
      </trkpt>
      <trkpt lat="41.812072964385152" lon="-2.705241981893778">
        <ele>1127.114</ele>
        <time>2021-07-10T11:38:43Z</time>
      </trkpt>
      <trkpt lat="41.811861991882324" lon="-2.704610992223024">
        <ele>1126.5540000000001</ele>
        <time>2021-07-10T11:38:45Z</time>
      </trkpt>
      <trkpt lat="41.811749003827572" lon="-2.704274961724877">
        <ele>1126.009</ele>
        <time>2021-07-10T11:38:46Z</time>
      </trkpt>
      <trkpt lat="41.811548005789518" lon="-2.703670961782336">
        <ele>1125.2080000000001</ele>
        <time>2021-07-10T11:38:48Z</time>
      </trkpt>
      <trkpt lat="41.811371985822916" lon="-2.703060004860163">
        <ele>1124.4380000000001</ele>
        <time>2021-07-10T11:38:50Z</time>
      </trkpt>
      <trkpt lat="41.811299985274673" lon="-2.702750964090228">
        <ele>1124.028</ele>
        <time>2021-07-10T11:38:51Z</time>
      </trkpt>
      <trkpt lat="41.811242988333106" lon="-2.702438989654183">
        <ele>1123.029</ele>
        <time>2021-07-10T11:38:53Z</time>
      </trkpt>
      <trkpt lat="41.811203006654978" lon="-2.702122991904616">
        <ele>1122.0350000000001</ele>
        <time>2021-07-10T11:38:55Z</time>
      </trkpt>
      <trkpt lat="41.811172999441624" lon="-2.701791990548372">
        <ele>1121.1569999999999</ele>
        <time>2021-07-10T11:38:56Z</time>
      </trkpt>
      <trkpt lat="41.811124971136451" lon="-2.701152032241225">
        <ele>1120.49</ele>
        <time>2021-07-10T11:38:58Z</time>
      </trkpt>
      <trkpt lat="41.811098987236619" lon="-2.700794041156769">
        <ele>1119.7539999999999</ele>
        <time>2021-07-10T11:39:00Z</time>
      </trkpt>
      <trkpt lat="41.811045007780194" lon="-2.700134972110391">
        <ele>1118.8430000000001</ele>
        <time>2021-07-10T11:39:02Z</time>
      </trkpt>
      <trkpt lat="41.810974013060331" lon="-2.699415972456336">
        <ele>1117.739</ele>
        <time>2021-07-10T11:39:04Z</time>
      </trkpt>
      <trkpt lat="41.810945011675358" lon="-2.699055969715118">
        <ele>1116.9010000000001</ele>
        <time>2021-07-10T11:39:05Z</time>
      </trkpt>
      <trkpt lat="41.81088499724865" lon="-2.698345016688108">
        <ele>1116.3209999999999</ele>
        <time>2021-07-10T11:39:06Z</time>
      </trkpt>
      <trkpt lat="41.810811990872025" lon="-2.697570025920868">
        <ele>1115.2080000000001</ele>
        <time>2021-07-10T11:39:08Z</time>
      </trkpt>
      <trkpt lat="41.810740996152163" lon="-2.696839040145278">
        <ele>1114.49</ele>
        <time>2021-07-10T11:39:10Z</time>
      </trkpt>
      <trkpt lat="41.810708977282047" lon="-2.69645900465548">
        <ele>1113.76</ele>
        <time>2021-07-10T11:39:11Z</time>
      </trkpt>
      <trkpt lat="41.810634965077043" lon="-2.695669010281563">
        <ele>1112.941</ele>
        <time>2021-07-10T11:39:13Z</time>
      </trkpt>
      <trkpt lat="41.810562964528799" lon="-2.694946993142366">
        <ele>1112.557</ele>
        <time>2021-07-10T11:39:14Z</time>
      </trkpt>
      <trkpt lat="41.810494987294078" lon="-2.694191029295325">
        <ele>1111.989</ele>
        <time>2021-07-10T11:39:15Z</time>
      </trkpt>
      <trkpt lat="41.810461962595582" lon="-2.693803030997515">
        <ele>1111.422</ele>
        <time>2021-07-10T11:39:16Z</time>
      </trkpt>
      <trkpt lat="41.810429021716118" lon="-2.693422995507717">
        <ele>1110.9659999999999</ele>
        <time>2021-07-10T11:39:17Z</time>
      </trkpt>
      <trkpt lat="41.810364983975887" lon="-2.69269603304565">
        <ele>1110.4649999999999</ele>
        <time>2021-07-10T11:39:19Z</time>
      </trkpt>
      <trkpt lat="41.810328019782901" lon="-2.692317003384233">
        <ele>1109.8869999999999</ele>
        <time>2021-07-10T11:39:20Z</time>
      </trkpt>
      <trkpt lat="41.810291977599263" lon="-2.691941997036338">
        <ele>1109.6420000000001</ele>
        <time>2021-07-10T11:39:21Z</time>
      </trkpt>
      <trkpt lat="41.810255013406277" lon="-2.691555004566908">
        <ele>1109.4259999999999</ele>
        <time>2021-07-10T11:39:22Z</time>
      </trkpt>
      <trkpt lat="41.810187036171556" lon="-2.690841034054756">
        <ele>1108.9079999999999</ele>
        <time>2021-07-10T11:39:24Z</time>
      </trkpt>
      <trkpt lat="41.810117969289422" lon="-2.690105019137263">
        <ele>1108.335</ele>
        <time>2021-07-10T11:39:26Z</time>
      </trkpt>
      <trkpt lat="41.810081005096436" lon="-2.68971299752593">
        <ele>1108.095</ele>
        <time>2021-07-10T11:39:27Z</time>
      </trkpt>
      <trkpt lat="41.810015961527824" lon="-2.689012018963695">
        <ele>1107.556</ele>
        <time>2021-07-10T11:39:28Z</time>
      </trkpt>
      <trkpt lat="41.809951001778245" lon="-2.688292013481259">
        <ele>1106.8820000000001</ele>
        <time>2021-07-10T11:39:30Z</time>
      </trkpt>
      <trkpt lat="41.809924012050033" lon="-2.687927987426519">
        <ele>1106.5139999999999</ele>
        <time>2021-07-10T11:39:32Z</time>
      </trkpt>
      <trkpt lat="41.809887969866395" lon="-2.687205970287323">
        <ele>1106.1669999999999</ele>
        <time>2021-07-10T11:39:34Z</time>
      </trkpt>
      <trkpt lat="41.809901967644691" lon="-2.686460986733437">
        <ele>1105.6610000000001</ele>
        <time>2021-07-10T11:39:36Z</time>
      </trkpt>
      <trkpt lat="41.809922000393271" lon="-2.68605899065733">
        <ele>1105.45</ele>
        <time>2021-07-10T11:39:37Z</time>
      </trkpt>
      <trkpt lat="41.809947984293103" lon="-2.685348959639669">
        <ele>1105.021</ele>
        <time>2021-07-10T11:39:39Z</time>
      </trkpt>
      <trkpt lat="41.809985032305121" lon="-2.684611016884446">
        <ele>1105.0409999999999</ele>
        <time>2021-07-10T11:39:41Z</time>
      </trkpt>
      <trkpt lat="41.810062984004617" lon="-2.683853963389993">
        <ele>1105.105</ele>
        <time>2021-07-10T11:39:42Z</time>
      </trkpt>
      <trkpt lat="41.810189969837666" lon="-2.683145022019744">
        <ele>1105.2080000000001</ele>
        <time>2021-07-10T11:39:44Z</time>
      </trkpt>
      <trkpt lat="41.810260964557528" lon="-2.682780995965004">
        <ele>1105.049</ele>
        <time>2021-07-10T11:39:46Z</time>
      </trkpt>
      <trkpt lat="41.810330031439662" lon="-2.682398026809096">
        <ele>1105.229</ele>
        <time>2021-07-10T11:39:47Z</time>
      </trkpt>
      <trkpt lat="41.810459028929472" lon="-2.681714985519648">
        <ele>1105.28</ele>
        <time>2021-07-10T11:39:48Z</time>
      </trkpt>
      <trkpt lat="41.810588026419282" lon="-2.681014006957412">
        <ele>1105.386</ele>
        <time>2021-07-10T11:39:50Z</time>
      </trkpt>
      <trkpt lat="41.810653991997242" lon="-2.680651992559433">
        <ele>1105.4480000000001</ele>
        <time>2021-07-10T11:39:51Z</time>
      </trkpt>
      <trkpt lat="41.810772009193897" lon="-2.679994013160467">
        <ele>1105.3209999999999</ele>
        <time>2021-07-10T11:39:53Z</time>
      </trkpt>
      <trkpt lat="41.810833029448986" lon="-2.679641973227263">
        <ele>1105.325</ele>
        <time>2021-07-10T11:39:54Z</time>
      </trkpt>
      <trkpt lat="41.810887008905411" lon="-2.67929102294147">
        <ele>1105.124</ele>
        <time>2021-07-10T11:39:55Z</time>
      </trkpt>
      <trkpt lat="41.810931013897061" lon="-2.678932026028633">
        <ele>1104.9159999999999</ele>
        <time>2021-07-10T11:39:57Z</time>
      </trkpt>
      <trkpt lat="41.810965966433287" lon="-2.678567999973893">
        <ele>1104.9760000000001</ele>
        <time>2021-07-10T11:39:59Z</time>
      </trkpt>
      <trkpt lat="41.811018018051982" lon="-2.677904991433024">
        <ele>1104.6130000000001</ele>
        <time>2021-07-10T11:40:01Z</time>
      </trkpt>
      <trkpt lat="41.811046013608575" lon="-2.677553035318852">
        <ele>1104.4079999999999</ele>
        <time>2021-07-10T11:40:02Z</time>
      </trkpt>
      <trkpt lat="41.811074009165168" lon="-2.677205018699169">
        <ele>1104.288</ele>
        <time>2021-07-10T11:40:03Z</time>
      </trkpt>
      <trkpt lat="41.811104016378522" lon="-2.676835963502526">
        <ele>1104.348</ele>
        <time>2021-07-10T11:40:04Z</time>
      </trkpt>
      <trkpt lat="41.811157995834947" lon="-2.676185024902225">
        <ele>1103.9290000000001</ele>
        <time>2021-07-10T11:40:06Z</time>
      </trkpt>
      <trkpt lat="41.811221027746797" lon="-2.675526039674878">
        <ele>1103.845</ele>
        <time>2021-07-10T11:40:07Z</time>
      </trkpt>
      <trkpt lat="41.811262015253305" lon="-2.67520803026855">
        <ele>1103.617</ele>
        <time>2021-07-10T11:40:08Z</time>
      </trkpt>
      <trkpt lat="41.811318006366491" lon="-2.674890020862222">
        <ele>1103.1500000000001</ele>
        <time>2021-07-10T11:40:10Z</time>
      </trkpt>
      <trkpt lat="41.811456978321075" lon="-2.674287026748061">
        <ele>1102.5640000000001</ele>
        <time>2021-07-10T11:40:12Z</time>
      </trkpt>
      <trkpt lat="41.811606008559465" lon="-2.673677997663617">
        <ele>1101.7829999999999</ele>
        <time>2021-07-10T11:40:14Z</time>
      </trkpt>
      <trkpt lat="41.811741963028908" lon="-2.67312403768301">
        <ele>1100.825</ele>
        <time>2021-07-10T11:40:16Z</time>
      </trkpt>
      <trkpt lat="41.811868026852608" lon="-2.672605030238628">
        <ele>1100.2260000000001</ele>
        <time>2021-07-10T11:40:17Z</time>
      </trkpt>
      <trkpt lat="41.811928963288665" lon="-2.672353992238641">
        <ele>1099.4079999999999</ele>
        <time>2021-07-10T11:40:19Z</time>
      </trkpt>
      <trkpt lat="41.812028959393501" lon="-2.671940010040999">
        <ele>1098.808</ele>
        <time>2021-07-10T11:40:20Z</time>
      </trkpt>
      <trkpt lat="41.812125016003847" lon="-2.671544970944524">
        <ele>1098.019</ele>
        <time>2021-07-10T11:40:22Z</time>
      </trkpt>
      <trkpt lat="41.812176983803511" lon="-2.67134003341198">
        <ele>1097.569</ele>
        <time>2021-07-10T11:40:23Z</time>
      </trkpt>
      <trkpt lat="41.812263987958431" lon="-2.670980030670762">
        <ele>1096.6300000000001</ele>
        <time>2021-07-10T11:40:25Z</time>
      </trkpt>
      <trkpt lat="41.812360966578126" lon="-2.67061298713088">
        <ele>1096.086</ele>
        <time>2021-07-10T11:40:27Z</time>
      </trkpt>
      <trkpt lat="41.812414024025202" lon="-2.670419029891491">
        <ele>1095.4580000000001</ele>
        <time>2021-07-10T11:40:28Z</time>
      </trkpt>
      <trkpt lat="41.812461968511343" lon="-2.670243009924889">
        <ele>1094.721</ele>
        <time>2021-07-10T11:40:29Z</time>
      </trkpt>
      <trkpt lat="41.812535980716348" lon="-2.669888036325574">
        <ele>1094.115</ele>
        <time>2021-07-10T11:40:31Z</time>
      </trkpt>
      <trkpt lat="41.812563976272941" lon="-2.669702041894198">
        <ele>1093.5640000000001</ele>
        <time>2021-07-10T11:40:32Z</time>
      </trkpt>
      <trkpt lat="41.812591971829534" lon="-2.669316977262497">
        <ele>1093.194</ele>
        <time>2021-07-10T11:40:33Z</time>
      </trkpt>
      <trkpt lat="41.812595995143056" lon="-2.669118996709585">
        <ele>1092.857</ele>
        <time>2021-07-10T11:40:34Z</time>
      </trkpt>
      <trkpt lat="41.812599012628198" lon="-2.668920010328293">
        <ele>1092.3219999999999</ele>
        <time>2021-07-10T11:40:36Z</time>
      </trkpt>
      <trkpt lat="41.812607981264591" lon="-2.668503010645509">
        <ele>1091.6079999999999</ele>
        <time>2021-07-10T11:40:38Z</time>
      </trkpt>
      <trkpt lat="41.812618039548397" lon="-2.668101014569402">
        <ele>1090.9159999999999</ele>
        <time>2021-07-10T11:40:40Z</time>
      </trkpt>
      <trkpt lat="41.812630025669932" lon="-2.667676974087954">
        <ele>1090.6759999999999</ele>
        <time>2021-07-10T11:40:41Z</time>
      </trkpt>
      <trkpt lat="41.812635976821184" lon="-2.667463989928365">
        <ele>1090.4970000000001</ele>
        <time>2021-07-10T11:40:43Z</time>
      </trkpt>
      <trkpt lat="41.812642011791468" lon="-2.667249999940395">
        <ele>1090.123</ele>
        <time>2021-07-10T11:40:44Z</time>
      </trkpt>
      <trkpt lat="41.8126489687711" lon="-2.667037015780807">
        <ele>1090.1849999999999</ele>
        <time>2021-07-10T11:40:46Z</time>
      </trkpt>
      <trkpt lat="41.812663972377777" lon="-2.66659596003592">
        <ele>1090.048</ele>
        <time>2021-07-10T11:40:47Z</time>
      </trkpt>
      <trkpt lat="41.812672019004822" lon="-2.666368978098035">
        <ele>1090.0319999999999</ele>
        <time>2021-07-10T11:40:48Z</time>
      </trkpt>
      <trkpt lat="41.812679981812835" lon="-2.666134033352137">
        <ele>1089.771</ele>
        <time>2021-07-10T11:40:50Z</time>
      </trkpt>
      <trkpt lat="41.812695991247892" lon="-2.665638998150826">
        <ele>1089.6590000000001</ele>
        <time>2021-07-10T11:40:51Z</time>
      </trkpt>
      <trkpt lat="41.812713006511331" lon="-2.665122002363205">
        <ele>1089.0029999999999</ele>
        <time>2021-07-10T11:40:53Z</time>
      </trkpt>
      <trkpt lat="41.812730021774769" lon="-2.664584973827004">
        <ele>1088.723</ele>
        <time>2021-07-10T11:40:54Z</time>
      </trkpt>
      <trkpt lat="41.812748964875937" lon="-2.664029002189636">
        <ele>1088.4079999999999</ele>
        <time>2021-07-10T11:40:56Z</time>
      </trkpt>
      <trkpt lat="41.812759023159742" lon="-2.663744017481804">
        <ele>1088.5119999999999</ele>
        <time>2021-07-10T11:40:57Z</time>
      </trkpt>
      <trkpt lat="41.812778972089291" lon="-2.663163989782333">
        <ele>1088.2919999999999</ele>
        <time>2021-07-10T11:40:59Z</time>
      </trkpt>
      <trkpt lat="41.812788024544716" lon="-2.662881016731262">
        <ele>1087.7829999999999</ele>
        <time>2021-07-10T11:41:01Z</time>
      </trkpt>
      <trkpt lat="41.812808979302645" lon="-2.662293026223779">
        <ele>1087.6790000000001</ele>
        <time>2021-07-10T11:41:02Z</time>
      </trkpt>
      <trkpt lat="41.81282096542418" lon="-2.66197401098907">
        <ele>1087.491</ele>
        <time>2021-07-10T11:41:04Z</time>
      </trkpt>
      <trkpt lat="41.812844015657902" lon="-2.661366993561387">
        <ele>1087.2339999999999</ele>
        <time>2021-07-10T11:41:06Z</time>
      </trkpt>
      <trkpt lat="41.812867987900972" lon="-2.660704990848899">
        <ele>1087.018</ele>
        <time>2021-07-10T11:41:08Z</time>
      </trkpt>
      <trkpt lat="41.812879974022508" lon="-2.660374995321035">
        <ele>1086.837</ele>
        <time>2021-07-10T11:41:10Z</time>
      </trkpt>
      <trkpt lat="41.812891960144043" lon="-2.660024967044592">
        <ele>1086.6110000000001</ele>
        <time>2021-07-10T11:41:12Z</time>
      </trkpt>
      <trkpt lat="41.812912998721004" lon="-2.659387020394206">
        <ele>1086.6210000000001</ele>
        <time>2021-07-10T11:41:14Z</time>
      </trkpt>
      <trkpt lat="41.812923979014158" lon="-2.659059036523104">
        <ele>1086.203</ele>
        <time>2021-07-10T11:41:16Z</time>
      </trkpt>
      <trkpt lat="41.812935965135694" lon="-2.658727029338479">
        <ele>1085.808</ele>
        <time>2021-07-10T11:41:18Z</time>
      </trkpt>
      <trkpt lat="41.81294702924788" lon="-2.658400973305106">
        <ele>1085.1780000000001</ele>
        <time>2021-07-10T11:41:20Z</time>
      </trkpt>
      <trkpt lat="41.812965972349048" lon="-2.657789010554552">
        <ele>1084.7280000000001</ele>
        <time>2021-07-10T11:41:22Z</time>
      </trkpt>
      <trkpt lat="41.812987010926008" lon="-2.657136982306838">
        <ele>1084.279</ele>
        <time>2021-07-10T11:41:23Z</time>
      </trkpt>
      <trkpt lat="41.813005032017827" lon="-2.656530970707536">
        <ele>1083.9349999999999</ele>
        <time>2021-07-10T11:41:24Z</time>
      </trkpt>
      <trkpt lat="41.813015006482601" lon="-2.656218996271491">
        <ele>1083.787</ele>
        <time>2021-07-10T11:41:25Z</time>
      </trkpt>
      <trkpt lat="41.81303596124053" lon="-2.655585994943976">
        <ele>1083.4100000000001</ele>
        <time>2021-07-10T11:41:27Z</time>
      </trkpt>
      <trkpt lat="41.813047025352716" lon="-2.655259016901255">
        <ele>1083.4639999999999</ele>
        <time>2021-07-10T11:41:28Z</time>
      </trkpt>
      <trkpt lat="41.813066974282265" lon="-2.654624003916979">
        <ele>1083.423</ele>
        <time>2021-07-10T11:41:29Z</time>
      </trkpt>
      <trkpt lat="41.813078038394451" lon="-2.654285039752722">
        <ele>1083.3610000000001</ele>
        <time>2021-07-10T11:41:30Z</time>
      </trkpt>
      <trkpt lat="41.813089018687606" lon="-2.653941968455911">
        <ele>1083.421</ele>
        <time>2021-07-10T11:41:32Z</time>
      </trkpt>
      <trkpt lat="41.813110979273915" lon="-2.65325197018683">
        <ele>1083.713</ele>
        <time>2021-07-10T11:41:34Z</time>
      </trkpt>
      <trkpt lat="41.813122965395451" lon="-2.652898002415896">
        <ele>1083.808</ele>
        <time>2021-07-10T11:41:35Z</time>
      </trkpt>
      <trkpt lat="41.813148027285933" lon="-2.65219802968204">
        <ele>1083.9929999999999</ele>
        <time>2021-07-10T11:41:37Z</time>
      </trkpt>
      <trkpt lat="41.813160013407469" lon="-2.651849007233977">
        <ele>1083.973</ele>
        <time>2021-07-10T11:41:38Z</time>
      </trkpt>
      <trkpt lat="41.813182979822159" lon="-2.651170995086432">
        <ele>1084.144</ele>
        <time>2021-07-10T11:41:40Z</time>
      </trkpt>
      <trkpt lat="41.813193960115314" lon="-2.650836976245046">
        <ele>1084.23</ele>
        <time>2021-07-10T11:41:42Z</time>
      </trkpt>
      <trkpt lat="41.813214998692274" lon="-2.650169022381306">
        <ele>1084.3820000000001</ele>
        <time>2021-07-10T11:41:43Z</time>
      </trkpt>
      <trkpt lat="41.813234025612473" lon="-2.649583965539932">
        <ele>1084.645</ele>
        <time>2021-07-10T11:41:44Z</time>
      </trkpt>
      <trkpt lat="41.813244000077248" lon="-2.649284983053803">
        <ele>1085.1489999999999</ele>
        <time>2021-07-10T11:41:46Z</time>
      </trkpt>
      <trkpt lat="41.813264032825828" lon="-2.648689029738307">
        <ele>1085.4480000000001</ele>
        <time>2021-07-10T11:41:48Z</time>
      </trkpt>
      <trkpt lat="41.813282975926995" lon="-2.648149989545345">
        <ele>1085.3389999999999</ele>
        <time>2021-07-10T11:41:49Z</time>
      </trkpt>
      <trkpt lat="41.813302002847195" lon="-2.647583037614822">
        <ele>1085.3009999999999</ele>
        <time>2021-07-10T11:41:50Z</time>
      </trkpt>
      <trkpt lat="41.813322035595775" lon="-2.647008961066604">
        <ele>1085.021</ele>
        <time>2021-07-10T11:41:52Z</time>
      </trkpt>
      <trkpt lat="41.813339972868562" lon="-2.646489031612873">
        <ele>1084.808</ele>
        <time>2021-07-10T11:41:54Z</time>
      </trkpt>
      <trkpt lat="41.813358999788761" lon="-2.645938005298376">
        <ele>1084.55</ele>
        <time>2021-07-10T11:41:55Z</time>
      </trkpt>
      <trkpt lat="41.813376015052199" lon="-2.645429978147149">
        <ele>1084.1700000000001</ele>
        <time>2021-07-10T11:41:56Z</time>
      </trkpt>
      <trkpt lat="41.813393030315638" lon="-2.644910970702767">
        <ele>1084.1610000000001</ele>
        <time>2021-07-10T11:41:58Z</time>
      </trkpt>
      <trkpt lat="41.813411973416805" lon="-2.644392969086766">
        <ele>1083.6369999999999</ele>
        <time>2021-07-10T11:42:00Z</time>
      </trkpt>
      <trkpt lat="41.813425971195102" lon="-2.643957026302815">
        <ele>1082.789</ele>
        <time>2021-07-10T11:42:02Z</time>
      </trkpt>
      <trkpt lat="41.813433011993766" lon="-2.643752004951239">
        <ele>1082.472</ele>
        <time>2021-07-10T11:42:04Z</time>
      </trkpt>
      <trkpt lat="41.813438963145018" lon="-2.64356198720634">
        <ele>1081.9860000000001</ele>
        <time>2021-07-10T11:42:06Z</time>
      </trkpt>
      <trkpt lat="41.813444998115301" lon="-2.643384039402008">
        <ele>1081.5250000000001</ele>
        <time>2021-07-10T11:42:07Z</time>
      </trkpt>
      <trkpt lat="41.813456984236836" lon="-2.643079021945596">
        <ele>1080.761</ele>
        <time>2021-07-10T11:42:09Z</time>
      </trkpt>
      <trkpt lat="41.813462013378739" lon="-2.642928985878825">
        <ele>1080.221</ele>
        <time>2021-07-10T11:42:10Z</time>
      </trkpt>
      <trkpt lat="41.813466036692262" lon="-2.64278800226748">
        <ele>1079.913</ele>
        <time>2021-07-10T11:42:11Z</time>
      </trkpt>
      <trkpt lat="41.813470982015133" lon="-2.642644001170993">
        <ele>1079.508</ele>
        <time>2021-07-10T11:42:12Z</time>
      </trkpt>
      <trkpt lat="41.813478022813797" lon="-2.642398998141289">
        <ele>1077.3530000000001</ele>
        <time>2021-07-10T11:42:14Z</time>
      </trkpt>
      <trkpt lat="41.81348598562181" lon="-2.642145026475191">
        <ele>1077.153</ele>
        <time>2021-07-10T11:42:16Z</time>
      </trkpt>
      <trkpt lat="41.813491014763713" lon="-2.642008988186717">
        <ele>1076.4639999999999</ele>
        <time>2021-07-10T11:42:17Z</time>
      </trkpt>
      <trkpt lat="41.813496965914965" lon="-2.641753004863858">
        <ele>1076.03</ele>
        <time>2021-07-10T11:42:18Z</time>
      </trkpt>
      <trkpt lat="41.813500989228487" lon="-2.641619984060526">
        <ele>1075.722</ele>
        <time>2021-07-10T11:42:19Z</time>
      </trkpt>
      <trkpt lat="41.813509035855532" lon="-2.641360983252525">
        <ele>1075.395</ele>
        <time>2021-07-10T11:42:21Z</time>
      </trkpt>
      <trkpt lat="41.813513981178403" lon="-2.641112040728331">
        <ele>1074.979</ele>
        <time>2021-07-10T11:42:22Z</time>
      </trkpt>
      <trkpt lat="41.813515992835164" lon="-2.640980025753379">
        <ele>1074.4880000000001</ele>
        <time>2021-07-10T11:42:23Z</time>
      </trkpt>
      <trkpt lat="41.813520016148686" lon="-2.640845999121666">
        <ele>1074.018</ele>
        <time>2021-07-10T11:42:24Z</time>
      </trkpt>
      <trkpt lat="41.813527978956699" lon="-2.64057501219213">
        <ele>1074.098</ele>
        <time>2021-07-10T11:42:26Z</time>
      </trkpt>
      <trkpt lat="41.813536025583744" lon="-2.640300001949072">
        <ele>1074.2170000000001</ele>
        <time>2021-07-10T11:42:28Z</time>
      </trkpt>
      <trkpt lat="41.813539965078235" lon="-2.640162035822868">
        <ele>1073.9079999999999</ele>
        <time>2021-07-10T11:42:29Z</time>
      </trkpt>
      <trkpt lat="41.813541976734996" lon="-2.64001602306962">
        <ele>1073.3979999999999</ele>
        <time>2021-07-10T11:42:31Z</time>
      </trkpt>
      <trkpt lat="41.81354901753366" lon="-2.639749981462956">
        <ele>1073.088</ele>
        <time>2021-07-10T11:42:32Z</time>
      </trkpt>
      <trkpt lat="41.813555974513292" lon="-2.639476982876658">
        <ele>1072.8489999999999</ele>
        <time>2021-07-10T11:42:33Z</time>
      </trkpt>
      <trkpt lat="41.813558991998434" lon="-2.63933097012341">
        <ele>1072.2950000000001</ele>
        <time>2021-07-10T11:42:35Z</time>
      </trkpt>
      <trkpt lat="41.813562009483576" lon="-2.639175988733769">
        <ele>1071.6669999999999</ele>
        <time>2021-07-10T11:42:37Z</time>
      </trkpt>
      <trkpt lat="41.813568966463208" lon="-2.638865020126104">
        <ele>1071.55</ele>
        <time>2021-07-10T11:42:38Z</time>
      </trkpt>
      <trkpt lat="41.81357198394835" lon="-2.638531001284719">
        <ele>1071.614</ele>
        <time>2021-07-10T11:42:39Z</time>
      </trkpt>
      <trkpt lat="41.813561003655195" lon="-2.638167981058359">
        <ele>1071.913</ele>
        <time>2021-07-10T11:42:40Z</time>
      </trkpt>
      <trkpt lat="41.813537031412125" lon="-2.637830022722483">
        <ele>1071.7149999999999</ele>
        <time>2021-07-10T11:42:42Z</time>
      </trkpt>
      <trkpt lat="41.813494032248855" lon="-2.63746197335422">
        <ele>1071.7650000000001</ele>
        <time>2021-07-10T11:42:44Z</time>
      </trkpt>
      <trkpt lat="41.813466036692262" lon="-2.637259969487786">
        <ele>1071.9110000000001</ele>
        <time>2021-07-10T11:42:45Z</time>
      </trkpt>
      <trkpt lat="41.813409039750695" lon="-2.636867025867105">
        <ele>1071.6079999999999</ele>
        <time>2021-07-10T11:42:46Z</time>
      </trkpt>
      <trkpt lat="41.813376015052199" lon="-2.636650018393993">
        <ele>1071.8679999999999</ele>
        <time>2021-07-10T11:42:48Z</time>
      </trkpt>
      <trkpt lat="41.813345002010465" lon="-2.636427981778979">
        <ele>1071.8779999999999</ele>
        <time>2021-07-10T11:42:49Z</time>
      </trkpt>
      <trkpt lat="41.813311977311969" lon="-2.636193037033081">
        <ele>1071.329</ele>
        <time>2021-07-10T11:42:50Z</time>
      </trkpt>
      <trkpt lat="41.813226984813809" lon="-2.635753992944956">
        <ele>1071.2349999999999</ele>
        <time>2021-07-10T11:42:52Z</time>
      </trkpt>
      <trkpt lat="41.813132017850876" lon="-2.63531100936234">
        <ele>1070.6969999999999</ele>
        <time>2021-07-10T11:42:54Z</time>
      </trkpt>
      <trkpt lat="41.813109973445535" lon="-2.635072963312268">
        <ele>1070.0599999999999</ele>
        <time>2021-07-10T11:42:55Z</time>
      </trkpt>
      <trkpt lat="41.813080972060561" lon="-2.634836006909609">
        <ele>1069.434</ele>
        <time>2021-07-10T11:42:57Z</time>
      </trkpt>
      <trkpt lat="41.813048031181097" lon="-2.634595027193427">
        <ele>1069.163</ele>
        <time>2021-07-10T11:42:58Z</time>
      </trkpt>
      <trkpt lat="41.812972007319331" lon="-2.634111978113651">
        <ele>1068.923</ele>
        <time>2021-07-10T11:43:00Z</time>
      </trkpt>
      <trkpt lat="41.812935965135694" lon="-2.633867980912328">
        <ele>1069.2829999999999</ele>
        <time>2021-07-10T11:43:01Z</time>
      </trkpt>
      <trkpt lat="41.812894977629185" lon="-2.633624989539385">
        <ele>1068.8109999999999</ele>
        <time>2021-07-10T11:43:03Z</time>
      </trkpt>
      <trkpt lat="41.812864970415831" lon="-2.633379986509681">
        <ele>1068.9079999999999</ele>
        <time>2021-07-10T11:43:04Z</time>
      </trkpt>
      <trkpt lat="41.812780983746052" lon="-2.632892997935414">
        <ele>1068.779</ele>
        <time>2021-07-10T11:43:06Z</time>
      </trkpt>
      <trkpt lat="41.812707977369428" lon="-2.632407015189529">
        <ele>1068.479</ele>
        <time>2021-07-10T11:43:07Z</time>
      </trkpt>
      <trkpt lat="41.812679981812835" lon="-2.632169974967837">
        <ele>1068.3499999999999</ele>
        <time>2021-07-10T11:43:09Z</time>
      </trkpt>
      <trkpt lat="41.812618039548397" lon="-2.631740989163518">
        <ele>1068.556</ele>
        <time>2021-07-10T11:43:10Z</time>
      </trkpt>
      <trkpt lat="41.812580991536379" lon="-2.631533034145832">
        <ele>1068.8579999999999</ele>
        <time>2021-07-10T11:43:12Z</time>
      </trkpt>
      <trkpt lat="41.812545033171773" lon="-2.631328012794256">
        <ele>1068.671</ele>
        <time>2021-07-10T11:43:14Z</time>
      </trkpt>
      <trkpt lat="41.812448976561427" lon="-2.630912018939853">
        <ele>1068.5350000000001</ele>
        <time>2021-07-10T11:43:15Z</time>
      </trkpt>
      <trkpt lat="41.812383010983467" lon="-2.630439028143883">
        <ele>1067.7339999999999</ele>
        <time>2021-07-10T11:43:17Z</time>
      </trkpt>
      <trkpt lat="41.812345962971449" lon="-2.630188995972276">
        <ele>1066.9949999999999</ele>
        <time>2021-07-10T11:43:18Z</time>
      </trkpt>
      <trkpt lat="41.81230497546494" lon="-2.629932006821036">
        <ele>1066.549</ele>
        <time>2021-07-10T11:43:20Z</time>
      </trkpt>
      <trkpt lat="41.812259964644909" lon="-2.629668982699513">
        <ele>1066.423</ele>
        <time>2021-07-10T11:43:22Z</time>
      </trkpt>
      <trkpt lat="41.812163991853595" lon="-2.629131032153964">
        <ele>1066.808</ele>
        <time>2021-07-10T11:43:24Z</time>
      </trkpt>
      <trkpt lat="41.812092997133732" lon="-2.628557039424777">
        <ele>1066.7860000000001</ele>
        <time>2021-07-10T11:43:26Z</time>
      </trkpt>
      <trkpt lat="41.81204597465694" lon="-2.6282640080899">
        <ele>1066.7760000000001</ele>
        <time>2021-07-10T11:43:27Z</time>
      </trkpt>
      <trkpt lat="41.811996018514037" lon="-2.627969970926642">
        <ele>1066.6969999999999</ele>
        <time>2021-07-10T11:43:29Z</time>
      </trkpt>
      <trkpt lat="41.811900967732072" lon="-2.62736395932734">
        <ele>1066.943</ele>
        <time>2021-07-10T11:43:30Z</time>
      </trkpt>
      <trkpt lat="41.81185101158917" lon="-2.627052990719676">
        <ele>1068.0350000000001</ele>
        <time>2021-07-10T11:43:32Z</time>
      </trkpt>
      <trkpt lat="41.811799965798855" lon="-2.62673900462687">
        <ele>1069.348</ele>
        <time>2021-07-10T11:43:34Z</time>
      </trkpt>
      <trkpt lat="41.811698963865638" lon="-2.626085970550776">
        <ele>1070.5319999999999</ele>
        <time>2021-07-10T11:43:35Z</time>
      </trkpt>
      <trkpt lat="41.811646996065974" lon="-2.625422962009907">
        <ele>1071.0909999999999</ele>
        <time>2021-07-10T11:43:37Z</time>
      </trkpt>
      <trkpt lat="41.811599973589182" lon="-2.625089026987553">
        <ele>1071.3119999999999</ele>
        <time>2021-07-10T11:43:39Z</time>
      </trkpt>
      <trkpt lat="41.811498971655965" lon="-2.624403974041343">
        <ele>1071.3320000000001</ele>
        <time>2021-07-10T11:43:40Z</time>
      </trkpt>
      <trkpt lat="41.811430994421244" lon="-2.624046988785267">
        <ele>1071.2049999999999</ele>
        <time>2021-07-10T11:43:42Z</time>
      </trkpt>
      <trkpt lat="41.811281964182854" lon="-2.623365959152579">
        <ele>1071.308</ele>
        <time>2021-07-10T11:43:44Z</time>
      </trkpt>
      <trkpt lat="41.811212981119752" lon="-2.623025989159942">
        <ele>1071.6980000000001</ele>
        <time>2021-07-10T11:43:46Z</time>
      </trkpt>
      <trkpt lat="41.811084989458323" lon="-2.622362980619073">
        <ele>1071.8879999999999</ele>
        <time>2021-07-10T11:43:48Z</time>
      </trkpt>
      <trkpt lat="41.811022963374853" lon="-2.622032985091209">
        <ele>1071.799</ele>
        <time>2021-07-10T11:43:49Z</time>
      </trkpt>
      <trkpt lat="41.810900000855327" lon="-2.621366959065199">
        <ele>1071.7449999999999</ele>
        <time>2021-07-10T11:43:51Z</time>
      </trkpt>
      <trkpt lat="41.810839986428618" lon="-2.621025983244181">
        <ele>1071.4169999999999</ele>
        <time>2021-07-10T11:43:52Z</time>
      </trkpt>
      <trkpt lat="41.810720041394234" lon="-2.620354006066918">
        <ele>1071.4100000000001</ele>
        <time>2021-07-10T11:43:54Z</time>
      </trkpt>
      <trkpt lat="41.810662960633636" lon="-2.620010012760758">
        <ele>1071.394</ele>
        <time>2021-07-10T11:43:56Z</time>
      </trkpt>
      <trkpt lat="41.810553995892406" lon="-2.619302999228239">
        <ele>1071.3230000000001</ele>
        <time>2021-07-10T11:43:58Z</time>
      </trkpt>
      <trkpt lat="41.810444025322795" lon="-2.61857695877552">
        <ele>1071.597</ele>
        <time>2021-07-10T11:43:59Z</time>
      </trkpt>
      <trkpt lat="41.81038904003799" lon="-2.618217039853334">
        <ele>1071.923</ele>
        <time>2021-07-10T11:44:01Z</time>
      </trkpt>
      <trkpt lat="41.810296000912786" lon="-2.617489993572235">
        <ele>1072.625</ele>
        <time>2021-07-10T11:44:03Z</time>
      </trkpt>
      <trkpt lat="41.810250990092754" lon="-2.617126973345876">
        <ele>1073.308</ele>
        <time>2021-07-10T11:44:04Z</time>
      </trkpt>
      <trkpt lat="41.810147976502776" lon="-2.616424988955259">
        <ele>1073.6559999999999</ele>
        <time>2021-07-10T11:44:05Z</time>
      </trkpt>
      <trkpt lat="41.810042029246688" lon="-2.615723004564643">
        <ele>1074.366</ele>
        <time>2021-07-10T11:44:06Z</time>
      </trkpt>
      <trkpt lat="41.80993901565671" lon="-2.615034012123942">
        <ele>1074.9369999999999</ele>
        <time>2021-07-10T11:44:07Z</time>
      </trkpt>
      <trkpt lat="41.809839019551873" lon="-2.614375026896596">
        <ele>1075.8330000000001</ele>
        <time>2021-07-10T11:44:09Z</time>
      </trkpt>
      <trkpt lat="41.809786967933178" lon="-2.614046037197113">
        <ele>1077.165</ele>
        <time>2021-07-10T11:44:11Z</time>
      </trkpt>
      <trkpt lat="41.809693006798625" lon="-2.61343801394105">
        <ele>1077.9580000000001</ele>
        <time>2021-07-10T11:44:12Z</time>
      </trkpt>
      <trkpt lat="41.809643972665071" lon="-2.613140037283301">
        <ele>1078.912</ele>
        <time>2021-07-10T11:44:14Z</time>
      </trkpt>
      <trkpt lat="41.809555040672421" lon="-2.612569984048605">
        <ele>1079.8910000000001</ele>
        <time>2021-07-10T11:44:15Z</time>
      </trkpt>
      <trkpt lat="41.809463007375598" lon="-2.612017029896379">
        <ele>1080.9179999999999</ele>
        <time>2021-07-10T11:44:17Z</time>
      </trkpt>
      <trkpt lat="41.809415984898806" lon="-2.61174101382494">
        <ele>1082.3979999999999</ele>
        <time>2021-07-10T11:44:19Z</time>
      </trkpt>
      <trkpt lat="41.809321017935872" lon="-2.611186970025301">
        <ele>1083.617</ele>
        <time>2021-07-10T11:44:20Z</time>
      </trkpt>
      <trkpt lat="41.809225967153907" lon="-2.610605014488101">
        <ele>1084.6079999999999</ele>
        <time>2021-07-10T11:44:21Z</time>
      </trkpt>
      <trkpt lat="41.809178022667766" lon="-2.610301002860069">
        <ele>1085.6780000000001</ele>
        <time>2021-07-10T11:44:23Z</time>
      </trkpt>
      <trkpt lat="41.809076014906168" lon="-2.609688034281135">
        <ele>1086.3579999999999</ele>
        <time>2021-07-10T11:44:25Z</time>
      </trkpt>
      <trkpt lat="41.808971995487809" lon="-2.609042041003704">
        <ele>1086.559</ele>
        <time>2021-07-10T11:44:26Z</time>
      </trkpt>
      <trkpt lat="41.808869987726212" lon="-2.608394036069512">
        <ele>1086.2550000000001</ele>
        <time>2021-07-10T11:44:28Z</time>
      </trkpt>
      <trkpt lat="41.808770997449756" lon="-2.607762962579727">
        <ele>1084.9670000000001</ele>
        <time>2021-07-10T11:44:30Z</time>
      </trkpt>
      <trkpt lat="41.808721041306853" lon="-2.607455011457205">
        <ele>1083.9100000000001</ele>
        <time>2021-07-10T11:44:31Z</time>
      </trkpt>
      <trkpt lat="41.808624984696507" lon="-2.606856962665916">
        <ele>1083.3340000000001</ele>
        <time>2021-07-10T11:44:32Z</time>
      </trkpt>
      <trkpt lat="41.808577962219715" lon="-2.60656401515007">
        <ele>1083.0129999999999</ele>
        <time>2021-07-10T11:44:34Z</time>
      </trkpt>
      <trkpt lat="41.808485006913543" lon="-2.605988010764122">
        <ele>1082.8109999999999</ele>
        <time>2021-07-10T11:44:36Z</time>
      </trkpt>
      <trkpt lat="41.808392973616719" lon="-2.605417035520077">
        <ele>1082.1210000000001</ele>
        <time>2021-07-10T11:44:38Z</time>
      </trkpt>
      <trkpt lat="41.808298006653786" lon="-2.604836001992226">
        <ele>1081.3030000000001</ele>
        <time>2021-07-10T11:44:40Z</time>
      </trkpt>
      <trkpt lat="41.808247966691852" lon="-2.604537019506097">
        <ele>1080.7080000000001</ele>
        <time>2021-07-10T11:44:41Z</time>
      </trkpt>
      <trkpt lat="41.808144031092525" lon="-2.603932013735175">
        <ele>1079.7380000000001</ele>
        <time>2021-07-10T11:44:43Z</time>
      </trkpt>
      <trkpt lat="41.808045040816069" lon="-2.603330025449395">
        <ele>1079.328</ele>
        <time>2021-07-10T11:44:44Z</time>
      </trkpt>
      <trkpt lat="41.807996006682515" lon="-2.603030959144235">
        <ele>1078.999</ele>
        <time>2021-07-10T11:44:46Z</time>
      </trkpt>
      <trkpt lat="41.807947978377342" lon="-2.602734994143248">
        <ele>1078.2550000000001</ele>
        <time>2021-07-10T11:44:47Z</time>
      </trkpt>
      <trkpt lat="41.80789902806282" lon="-2.60243802331388">
        <ele>1078.297</ele>
        <time>2021-07-10T11:44:49Z</time>
      </trkpt>
      <trkpt lat="41.807850999757648" lon="-2.602138034999371">
        <ele>1077.49</ele>
        <time>2021-07-10T11:44:51Z</time>
      </trkpt>
      <trkpt lat="41.807753015309572" lon="-2.60153696872294">
        <ele>1076.5340000000001</ele>
        <time>2021-07-10T11:44:53Z</time>
      </trkpt>
      <trkpt lat="41.807655030861497" lon="-2.600925005972385">
        <ele>1074.8430000000001</ele>
        <time>2021-07-10T11:44:55Z</time>
      </trkpt>
      <trkpt lat="41.807603985071182" lon="-2.60061495937407">
        <ele>1073.9269999999999</ele>
        <time>2021-07-10T11:44:57Z</time>
      </trkpt>
      <trkpt lat="41.807500971481204" lon="-2.599992016330361">
        <ele>1073.068</ele>
        <time>2021-07-10T11:44:59Z</time>
      </trkpt>
      <trkpt lat="41.807452021166682" lon="-2.599675012752414">
        <ele>1072.414</ele>
        <time>2021-07-10T11:45:00Z</time>
      </trkpt>
      <trkpt lat="41.807352025061846" lon="-2.599041005596519">
        <ele>1072.2080000000001</ele>
        <time>2021-07-10T11:45:01Z</time>
      </trkpt>
      <trkpt lat="41.807251023128629" lon="-2.59840096347034">
        <ele>1072.3789999999999</ele>
        <time>2021-07-10T11:45:02Z</time>
      </trkpt>
      <trkpt lat="41.807200983166695" lon="-2.59807700291276">
        <ele>1072.3889999999999</ele>
        <time>2021-07-10T11:45:03Z</time>
      </trkpt>
      <trkpt lat="41.807151027023792" lon="-2.597750024870038">
        <ele>1072.48</ele>
        <time>2021-07-10T11:45:05Z</time>
      </trkpt>
      <trkpt lat="41.807054970413446" lon="-2.597092967480421">
        <ele>1072.5360000000001</ele>
        <time>2021-07-10T11:45:06Z</time>
      </trkpt>
      <trkpt lat="41.806949023157358" lon="-2.596429036930203">
        <ele>1072.828</ele>
        <time>2021-07-10T11:45:08Z</time>
      </trkpt>
      <trkpt lat="41.806896971538663" lon="-2.596085965633392">
        <ele>1073.3610000000001</ele>
        <time>2021-07-10T11:45:10Z</time>
      </trkpt>
      <trkpt lat="41.806779960170388" lon="-2.595386998727918">
        <ele>1073.575</ele>
        <time>2021-07-10T11:45:11Z</time>
      </trkpt>
      <trkpt lat="41.806658003479242" lon="-2.594664981588721">
        <ele>1073.7639999999999</ele>
        <time>2021-07-10T11:45:13Z</time>
      </trkpt>
      <trkpt lat="41.806592037901282" lon="-2.594297016039491">
        <ele>1073.886</ele>
        <time>2021-07-10T11:45:14Z</time>
      </trkpt>
      <trkpt lat="41.806523976847529" lon="-2.593924021348357">
        <ele>1074.26</ele>
        <time>2021-07-10T11:45:16Z</time>
      </trkpt>
      <trkpt lat="41.806378969922662" lon="-2.593182977288961">
        <ele>1075.126</ele>
        <time>2021-07-10T11:45:18Z</time>
      </trkpt>
      <trkpt lat="41.806236980482936" lon="-2.592473030090332">
        <ele>1076.4079999999999</ele>
        <time>2021-07-10T11:45:20Z</time>
      </trkpt>
      <trkpt lat="41.806095996871591" lon="-2.591772973537445">
        <ele>1077.155</ele>
        <time>2021-07-10T11:45:21Z</time>
      </trkpt>
      <trkpt lat="41.805960964411497" lon="-2.59109403938055">
        <ele>1077.585</ele>
        <time>2021-07-10T11:45:23Z</time>
      </trkpt>
      <trkpt lat="41.805889969691634" lon="-2.590760020539165">
        <ele>1077.2360000000001</ele>
        <time>2021-07-10T11:45:25Z</time>
      </trkpt>
      <trkpt lat="41.805752003565431" lon="-2.590100029483438">
        <ele>1077.1120000000001</ele>
        <time>2021-07-10T11:45:26Z</time>
      </trkpt>
      <trkpt lat="41.805682014673948" lon="-2.589766010642052">
        <ele>1077.114</ele>
        <time>2021-07-10T11:45:28Z</time>
      </trkpt>
      <trkpt lat="41.805541031062603" lon="-2.589104007929564">
        <ele>1076.297</ele>
        <time>2021-07-10T11:45:30Z</time>
      </trkpt>
      <trkpt lat="41.80547297000885" lon="-2.588770994916558">
        <ele>1075.5909999999999</ele>
        <time>2021-07-10T11:45:31Z</time>
      </trkpt>
      <trkpt lat="41.80534397251904" lon="-2.588105974718928">
        <ele>1074.6500000000001</ele>
        <time>2021-07-10T11:45:33Z</time>
      </trkpt>
      <trkpt lat="41.805230984464288" lon="-2.587460987269878">
        <ele>1073.884</ele>
        <time>2021-07-10T11:45:35Z</time>
      </trkpt>
      <trkpt lat="41.805165018886328" lon="-2.586829997599125">
        <ele>1073.0070000000001</ele>
        <time>2021-07-10T11:45:36Z</time>
      </trkpt>
      <trkpt lat="41.805168958380818" lon="-2.586215017363429">
        <ele>1072.5170000000001</ele>
        <time>2021-07-10T11:45:37Z</time>
      </trkpt>
      <trkpt lat="41.805207012221217" lon="-2.585672959685326">
        <ele>1072.1079999999999</ele>
        <time>2021-07-10T11:45:39Z</time>
      </trkpt>
      <trkpt lat="41.805250011384487" lon="-2.585226958617568">
        <ele>1071.575</ele>
        <time>2021-07-10T11:45:41Z</time>
      </trkpt>
      <trkpt lat="41.805269960314035" lon="-2.585023026913405">
        <ele>1071.395</ele>
        <time>2021-07-10T11:45:43Z</time>
      </trkpt>
      <trkpt lat="41.805285969749093" lon="-2.584837032482028">
        <ele>1071.096</ele>
        <time>2021-07-10T11:45:45Z</time>
      </trkpt>
      <trkpt lat="41.805298961699009" lon="-2.584674004465342">
        <ele>1071.0820000000001</ele>
        <time>2021-07-10T11:45:47Z</time>
      </trkpt>
      <trkpt lat="41.805310025811195" lon="-2.584528997540474">
        <ele>1070.384</ele>
        <time>2021-07-10T11:45:49Z</time>
      </trkpt>
      <trkpt lat="41.805329974740744" lon="-2.584292041137815">
        <ele>1069.6369999999999</ele>
        <time>2021-07-10T11:45:50Z</time>
      </trkpt>
      <trkpt lat="41.805340033024549" lon="-2.58417502976954">
        <ele>1069.0409999999999</ele>
        <time>2021-07-10T11:45:51Z</time>
      </trkpt>
      <trkpt lat="41.805356964468956" lon="-2.583959028124809">
        <ele>1068.04</ele>
        <time>2021-07-10T11:45:53Z</time>
      </trkpt>
      <trkpt lat="41.805370962247252" lon="-2.583785019814968">
        <ele>1067.5840000000001</ele>
        <time>2021-07-10T11:45:54Z</time>
      </trkpt>
      <trkpt lat="41.805375991389155" lon="-2.583717964589596">
        <ele>1067.0070000000001</ele>
        <time>2021-07-10T11:45:56Z</time>
      </trkpt>
      <trkpt lat="41.8053840380162" lon="-2.583601037040353">
        <ele>1066.5170000000001</ele>
        <time>2021-07-10T11:45:58Z</time>
      </trkpt>
      <trkpt lat="41.805388983339071" lon="-2.583538005128503">
        <ele>1066.008</ele>
        <time>2021-07-10T11:45:59Z</time>
      </trkpt>
      <trkpt lat="41.805403986945748" lon="-2.583386963233352">
        <ele>1065.7550000000001</ele>
        <time>2021-07-10T11:46:00Z</time>
      </trkpt>
      <trkpt lat="41.805421002209187" lon="-2.583208009600639">
        <ele>1065.0550000000001</ele>
        <time>2021-07-10T11:46:02Z</time>
      </trkpt>
      <trkpt lat="41.80542997084558" lon="-2.58301698602736">
        <ele>1064.896</ele>
        <time>2021-07-10T11:46:03Z</time>
      </trkpt>
      <trkpt lat="41.805437011644244" lon="-2.582914978265762">
        <ele>1064.5219999999999</ele>
        <time>2021-07-10T11:46:04Z</time>
      </trkpt>
      <trkpt lat="41.805457966402173" lon="-2.582690007984638">
        <ele>1063.9939999999999</ele>
        <time>2021-07-10T11:46:05Z</time>
      </trkpt>
      <trkpt lat="41.80547297000885" lon="-2.582425978034735">
        <ele>1062.817</ele>
        <time>2021-07-10T11:46:07Z</time>
      </trkpt>
      <trkpt lat="41.80547297000885" lon="-2.582275019958615">
        <ele>1062.461</ele>
        <time>2021-07-10T11:46:08Z</time>
      </trkpt>
      <trkpt lat="41.805444974452257" lon="-2.581938989460468">
        <ele>1062.4200000000001</ele>
        <time>2021-07-10T11:46:09Z</time>
      </trkpt>
      <trkpt lat="41.805388983339071" lon="-2.581578986719251">
        <ele>1061.4459999999999</ele>
        <time>2021-07-10T11:46:10Z</time>
      </trkpt>
      <trkpt lat="41.805355958640575" lon="-2.581384023651481">
        <ele>1060.9880000000001</ele>
        <time>2021-07-10T11:46:12Z</time>
      </trkpt>
      <trkpt lat="41.805282030254602" lon="-2.580968029797077">
        <ele>1061.0160000000001</ele>
        <time>2021-07-10T11:46:13Z</time>
      </trkpt>
      <trkpt lat="41.805206006392837" lon="-2.580518005415797">
        <ele>1061.008</ele>
        <time>2021-07-10T11:46:14Z</time>
      </trkpt>
      <trkpt lat="41.805167030543089" lon="-2.580283982679248">
        <ele>1060.991</ele>
        <time>2021-07-10T11:46:16Z</time>
      </trkpt>
      <trkpt lat="41.80512797087431" lon="-2.580046020448208">
        <ele>1060.511</ele>
        <time>2021-07-10T11:46:17Z</time>
      </trkpt>
      <trkpt lat="41.805044990032911" lon="-2.579554002732039">
        <ele>1060.662</ele>
        <time>2021-07-10T11:46:18Z</time>
      </trkpt>
      <trkpt lat="41.804967038333416" lon="-2.57906299084425">
        <ele>1060.4480000000001</ele>
        <time>2021-07-10T11:46:20Z</time>
      </trkpt>
      <trkpt lat="41.804884979501367" lon="-2.578573990613222">
        <ele>1060.6199999999999</ele>
        <time>2021-07-10T11:46:22Z</time>
      </trkpt>
      <trkpt lat="41.804798981174827" lon="-2.578077027574182">
        <ele>1060.3630000000001</ele>
        <time>2021-07-10T11:46:23Z</time>
      </trkpt>
      <trkpt lat="41.804717006161809" lon="-2.57758199237287">
        <ele>1059.8969999999999</ele>
        <time>2021-07-10T11:46:25Z</time>
      </trkpt>
      <trkpt lat="41.804630002006888" lon="-2.577077988535166">
        <ele>1059.7860000000001</ele>
        <time>2021-07-10T11:46:27Z</time>
      </trkpt>
      <trkpt lat="41.804585997015238" lon="-2.576819993555546">
        <ele>1059.4390000000001</ele>
        <time>2021-07-10T11:46:29Z</time>
      </trkpt>
      <trkpt lat="41.804541992023587" lon="-2.576559986919165">
        <ele>1059.8009999999999</ele>
        <time>2021-07-10T11:46:30Z</time>
      </trkpt>
      <trkpt lat="41.804458005353808" lon="-2.576021030545235">
        <ele>1060.521</ele>
        <time>2021-07-10T11:46:32Z</time>
      </trkpt>
      <trkpt lat="41.804414000362158" lon="-2.575750965625048">
        <ele>1060.808</ele>
        <time>2021-07-10T11:46:33Z</time>
      </trkpt>
      <trkpt lat="41.804321967065334" lon="-2.575197005644441">
        <ele>1061.6400000000001</ele>
        <time>2021-07-10T11:46:34Z</time>
      </trkpt>
      <trkpt lat="41.804222976788878" lon="-2.574645979329944">
        <ele>1062.28</ele>
        <time>2021-07-10T11:46:36Z</time>
      </trkpt>
      <trkpt lat="41.804175032302737" lon="-2.57437800988555">
        <ele>1062.8109999999999</ele>
        <time>2021-07-10T11:46:38Z</time>
      </trkpt>
      <trkpt lat="41.804129015654325" lon="-2.574110962450504">
        <ele>1063.2570000000001</ele>
        <time>2021-07-10T11:46:40Z</time>
      </trkpt>
      <trkpt lat="41.804044023156166" lon="-2.573578041046858">
        <ele>1063.4190000000001</ele>
        <time>2021-07-10T11:46:41Z</time>
      </trkpt>
      <trkpt lat="41.804003035649657" lon="-2.573315016925335">
        <ele>1063.992</ele>
        <time>2021-07-10T11:46:43Z</time>
      </trkpt>
      <trkpt lat="41.803960958495736" lon="-2.573051992803812">
        <ele>1064.1959999999999</ele>
        <time>2021-07-10T11:46:45Z</time>
      </trkpt>
      <trkpt lat="41.803917037323117" lon="-2.572784023359418">
        <ele>1063.9649999999999</ele>
        <time>2021-07-10T11:46:47Z</time>
      </trkpt>
      <trkpt lat="41.803827015683055" lon="-2.572238026186824">
        <ele>1063.787</ele>
        <time>2021-07-10T11:46:49Z</time>
      </trkpt>
      <trkpt lat="41.803780999034643" lon="-2.571962010115385">
        <ele>1063.8420000000001</ele>
        <time>2021-07-10T11:46:50Z</time>
      </trkpt>
      <trkpt lat="41.803735988214612" lon="-2.571691023185849">
        <ele>1064.126</ele>
        <time>2021-07-10T11:46:52Z</time>
      </trkpt>
      <trkpt lat="41.803698018193245" lon="-2.571419030427933">
        <ele>1064.2080000000001</ele>
        <time>2021-07-10T11:46:53Z</time>
      </trkpt>
      <trkpt lat="41.803612019866705" lon="-2.570876972749829">
        <ele>1064.585</ele>
        <time>2021-07-10T11:46:54Z</time>
      </trkpt>
      <trkpt lat="41.803567009046674" lon="-2.570604979991913">
        <ele>1065.075</ele>
        <time>2021-07-10T11:46:56Z</time>
      </trkpt>
      <trkpt lat="41.803525015711784" lon="-2.570334998890758">
        <ele>1065.336</ele>
        <time>2021-07-10T11:46:57Z</time>
      </trkpt>
      <trkpt lat="41.803443962708116" lon="-2.569786990061402">
        <ele>1065.722</ele>
        <time>2021-07-10T11:46:58Z</time>
      </trkpt>
      <trkpt lat="41.803400963544846" lon="-2.569508962333202">
        <ele>1066.0540000000001</ele>
        <time>2021-07-10T11:46:59Z</time>
      </trkpt>
      <trkpt lat="41.803356958553195" lon="-2.569222971796989">
        <ele>1066.2170000000001</ele>
        <time>2021-07-10T11:47:00Z</time>
      </trkpt>
      <trkpt lat="41.803262997418642" lon="-2.568657025694847">
        <ele>1066.011</ele>
        <time>2021-07-10T11:47:02Z</time>
      </trkpt>
      <trkpt lat="41.803168030455709" lon="-2.568087978288531">
        <ele>1065.6700000000001</ele>
        <time>2021-07-10T11:47:04Z</time>
      </trkpt>
      <trkpt lat="41.803120002150536" lon="-2.567800981923938">
        <ele>1064.8579999999999</ele>
        <time>2021-07-10T11:47:06Z</time>
      </trkpt>
      <trkpt lat="41.803024029359221" lon="-2.567230006679893">
        <ele>1063.652</ele>
        <time>2021-07-10T11:47:08Z</time>
      </trkpt>
      <trkpt lat="41.802929984405637" lon="-2.566651990637183">
        <ele>1062.7170000000001</ele>
        <time>2021-07-10T11:47:09Z</time>
      </trkpt>
      <trkpt lat="41.802833005785942" lon="-2.566066011786461">
        <ele>1061.6079999999999</ele>
        <time>2021-07-10T11:47:11Z</time>
      </trkpt>
      <trkpt lat="41.802784977480769" lon="-2.565768035128713">
        <ele>1061.0119999999999</ele>
        <time>2021-07-10T11:47:12Z</time>
      </trkpt>
      <trkpt lat="41.802686993032694" lon="-2.565160011872649">
        <ele>1060.3219999999999</ele>
        <time>2021-07-10T11:47:14Z</time>
      </trkpt>
      <trkpt lat="41.802636031061411" lon="-2.564848037436605">
        <ele>1060.0530000000001</ele>
        <time>2021-07-10T11:47:16Z</time>
      </trkpt>
      <trkpt lat="41.802586996927857" lon="-2.564533967524767">
        <ele>1059.799</ele>
        <time>2021-07-10T11:47:18Z</time>
      </trkpt>
      <trkpt lat="41.802477026358247" lon="-2.563898032531142">
        <ele>1059.4110000000001</ele>
        <time>2021-07-10T11:47:19Z</time>
      </trkpt>
      <trkpt lat="41.802308969199657" lon="-2.563307024538517">
        <ele>1058.9739999999999</ele>
        <time>2021-07-10T11:47:20Z</time>
      </trkpt>
      <trkpt lat="41.802252978086472" lon="-2.562663964927197">
        <ele>1058.518</ele>
        <time>2021-07-10T11:47:22Z</time>
      </trkpt>
      <trkpt lat="41.80220796726644" lon="-2.562361964955926">
        <ele>1058.4169999999999</ele>
        <time>2021-07-10T11:47:23Z</time>
      </trkpt>
      <trkpt lat="41.802115011960268" lon="-2.561765005812049">
        <ele>1057.9559999999999</ele>
        <time>2021-07-10T11:47:25Z</time>
      </trkpt>
      <trkpt lat="41.802018033340573" lon="-2.561167040839791">
        <ele>1057.6590000000001</ele>
        <time>2021-07-10T11:47:26Z</time>
      </trkpt>
      <trkpt lat="41.801918959245086" lon="-2.56056203506887">
        <ele>1057.114</ele>
        <time>2021-07-10T11:47:28Z</time>
      </trkpt>
      <trkpt lat="41.801791973412037" lon="-2.559985024854541">
        <ele>1057.008</ele>
        <time>2021-07-10T11:47:29Z</time>
      </trkpt>
      <trkpt lat="41.801743023097515" lon="-2.559689981862903">
        <ele>1057.0619999999999</ele>
        <time>2021-07-10T11:47:30Z</time>
      </trkpt>
      <trkpt lat="41.801599022001028" lon="-2.559115989133716">
        <ele>1057.692</ele>
        <time>2021-07-10T11:47:31Z</time>
      </trkpt>
      <trkpt lat="41.801572032272816" lon="-2.558807032182813">
        <ele>1058.623</ele>
        <time>2021-07-10T11:47:33Z</time>
      </trkpt>
      <trkpt lat="41.80153900757432" lon="-2.558504026383162">
        <ele>1058.6990000000001</ele>
        <time>2021-07-10T11:47:35Z</time>
      </trkpt>
      <trkpt lat="41.801461977884173" lon="-2.557911006733775">
        <ele>1058.7909999999999</ele>
        <time>2021-07-10T11:47:36Z</time>
      </trkpt>
      <trkpt lat="41.801402969285846" lon="-2.557621998712421">
        <ele>1058.144</ele>
        <time>2021-07-10T11:47:38Z</time>
      </trkpt>
      <trkpt lat="41.801359970122576" lon="-2.557328967377543">
        <ele>1057.9780000000001</ele>
        <time>2021-07-10T11:47:39Z</time>
      </trkpt>
      <trkpt lat="41.80130498483777" lon="-2.557040965184569">
        <ele>1057.357</ele>
        <time>2021-07-10T11:47:41Z</time>
      </trkpt>
      <trkpt lat="41.801252011209726" lon="-2.556752040982246">
        <ele>1056.9449999999999</ele>
        <time>2021-07-10T11:47:42Z</time>
      </trkpt>
      <trkpt lat="41.801114967092872" lon="-2.55618198774755">
        <ele>1056.6469999999999</ele>
        <time>2021-07-10T11:47:43Z</time>
      </trkpt>
      <trkpt lat="41.801011031493545" lon="-2.555582011118531">
        <ele>1056.711</ele>
        <time>2021-07-10T11:47:44Z</time>
      </trkpt>
      <trkpt lat="41.800902988761663" lon="-2.554980022832751">
        <ele>1056.508</ele>
        <time>2021-07-10T11:47:45Z</time>
      </trkpt>
      <trkpt lat="41.800753036513925" lon="-2.55439798347652">
        <ele>1056.3910000000001</ele>
        <time>2021-07-10T11:47:47Z</time>
      </trkpt>
      <trkpt lat="41.800671983510256" lon="-2.554109981283546">
        <ele>1055.8209999999999</ele>
        <time>2021-07-10T11:47:49Z</time>
      </trkpt>
      <trkpt lat="41.800478026270866" lon="-2.553529031574726">
        <ele>1055.672</ele>
        <time>2021-07-10T11:47:51Z</time>
      </trkpt>
      <trkpt lat="41.800392027944326" lon="-2.553224014118314">
        <ele>1055.4280000000001</ele>
        <time>2021-07-10T11:47:53Z</time>
      </trkpt>
      <trkpt lat="41.800203016027808" lon="-2.552622025832534">
        <ele>1055.28</ele>
        <time>2021-07-10T11:47:55Z</time>
      </trkpt>
      <trkpt lat="41.800006963312626" lon="-2.552023977041245">
        <ele>1054.943</ele>
        <time>2021-07-10T11:47:56Z</time>
      </trkpt>
      <trkpt lat="41.799786016345024" lon="-2.55143498070538">
        <ele>1054.597</ele>
        <time>2021-07-10T11:47:57Z</time>
      </trkpt>
      <trkpt lat="41.799677973613143" lon="-2.551135998219252">
        <ele>1054.7760000000001</ele>
        <time>2021-07-10T11:47:59Z</time>
      </trkpt>
      <trkpt lat="41.799561968073249" lon="-2.550833998247981">
        <ele>1054.8420000000001</ele>
        <time>2021-07-10T11:48:01Z</time>
      </trkpt>
      <trkpt lat="41.799303973093629" lon="-2.550253970548511">
        <ele>1055.5219999999999</ele>
        <time>2021-07-10T11:48:02Z</time>
      </trkpt>
      <trkpt lat="41.799165001139045" lon="-2.549976026639342">
        <ele>1056.5139999999999</ele>
        <time>2021-07-10T11:48:04Z</time>
      </trkpt>
      <trkpt lat="41.798953022807837" lon="-2.549354005604982">
        <ele>1057.508</ele>
        <time>2021-07-10T11:48:06Z</time>
      </trkpt>
      <trkpt lat="41.798857972025871" lon="-2.549038007855415">
        <ele>1057.8910000000001</ele>
        <time>2021-07-10T11:48:07Z</time>
      </trkpt>
      <trkpt lat="41.798649011179805" lon="-2.548413975164294">
        <ele>1058.941</ele>
        <time>2021-07-10T11:48:09Z</time>
      </trkpt>
      <trkpt lat="41.798547003418207" lon="-2.54810200072825">
        <ele>1060.0219999999999</ele>
        <time>2021-07-10T11:48:10Z</time>
      </trkpt>
      <trkpt lat="41.798448013141751" lon="-2.547792959958315">
        <ele>1060.7380000000001</ele>
        <time>2021-07-10T11:48:12Z</time>
      </trkpt>
      <trkpt lat="41.798343993723392" lon="-2.547490959987044">
        <ele>1061.21</ele>
        <time>2021-07-10T11:48:13Z</time>
      </trkpt>
      <trkpt lat="41.798131009563804" lon="-2.546912021934986">
        <ele>1061.7629999999999</ele>
        <time>2021-07-10T11:48:14Z</time>
      </trkpt>
      <trkpt lat="41.797920959070325" lon="-2.546335011720657">
        <ele>1061.9970000000001</ele>
        <time>2021-07-10T11:48:15Z</time>
      </trkpt>
      <trkpt lat="41.797815011814237" lon="-2.54604198038578">
        <ele>1062.146</ele>
        <time>2021-07-10T11:48:17Z</time>
      </trkpt>
      <trkpt lat="41.797595992684364" lon="-2.545453989878297">
        <ele>1062.748</ele>
        <time>2021-07-10T11:48:19Z</time>
      </trkpt>
      <trkpt lat="41.797477975487709" lon="-2.545156013220549">
        <ele>1063.6610000000001</ele>
        <time>2021-07-10T11:48:21Z</time>
      </trkpt>
      <trkpt lat="41.797246970236301" lon="-2.54455603659153">
        <ele>1064.617</ele>
        <time>2021-07-10T11:48:23Z</time>
      </trkpt>
      <trkpt lat="41.797133982181549" lon="-2.544259987771511">
        <ele>1064.9079999999999</ele>
        <time>2021-07-10T11:48:25Z</time>
      </trkpt>
      <trkpt lat="41.797024011611938" lon="-2.543968968093395">
        <ele>1065.271</ele>
        <time>2021-07-10T11:48:26Z</time>
      </trkpt>
      <trkpt lat="41.796915968880057" lon="-2.543683983385563">
        <ele>1065.221</ele>
        <time>2021-07-10T11:48:28Z</time>
      </trkpt>
      <trkpt lat="41.796807004138827" lon="-2.543400004506111">
        <ele>1065.692</ele>
        <time>2021-07-10T11:48:30Z</time>
      </trkpt>
      <trkpt lat="41.796592008322477" lon="-2.542832968756557">
        <ele>1066.078</ele>
        <time>2021-07-10T11:48:31Z</time>
      </trkpt>
      <trkpt lat="41.796378018334508" lon="-2.542265010997653">
        <ele>1066.0799999999999</ele>
        <time>2021-07-10T11:48:32Z</time>
      </trkpt>
      <trkpt lat="41.796161010861397" lon="-2.541682971641421">
        <ele>1066.133</ele>
        <time>2021-07-10T11:48:33Z</time>
      </trkpt>
      <trkpt lat="41.795937968418002" lon="-2.541092969477177">
        <ele>1066.9269999999999</ele>
        <time>2021-07-10T11:48:35Z</time>
      </trkpt>
      <trkpt lat="41.795711992308497" lon="-2.540501039475203">
        <ele>1067.2760000000001</ele>
        <time>2021-07-10T11:48:36Z</time>
      </trkpt>
      <trkpt lat="41.795596992596984" lon="-2.540199039503932">
        <ele>1067.4780000000001</ele>
        <time>2021-07-10T11:48:37Z</time>
      </trkpt>
      <trkpt lat="41.795485010370612" lon="-2.53989402204752">
        <ele>1067.8330000000001</ele>
        <time>2021-07-10T11:48:38Z</time>
      </trkpt>
      <trkpt lat="41.795256016775966" lon="-2.539291027933359">
        <ele>1068.4259999999999</ele>
        <time>2021-07-10T11:48:40Z</time>
      </trkpt>
      <trkpt lat="41.795026017352939" lon="-2.538679987192154">
        <ele>1069.308</ele>
        <time>2021-07-10T11:48:42Z</time>
      </trkpt>
      <trkpt lat="41.794912023469806" lon="-2.538374969735742">
        <ele>1070.374</ele>
        <time>2021-07-10T11:48:43Z</time>
      </trkpt>
      <trkpt lat="41.79468403570354" lon="-2.537765018641949">
        <ele>1072.184</ele>
        <time>2021-07-10T11:48:45Z</time>
      </trkpt>
      <trkpt lat="41.794459987431765" lon="-2.537162024527788">
        <ele>1073.575</ele>
        <time>2021-07-10T11:48:46Z</time>
      </trkpt>
      <trkpt lat="41.794345993548632" lon="-2.536862036213279">
        <ele>1076.1610000000001</ele>
        <time>2021-07-10T11:48:48Z</time>
      </trkpt>
      <trkpt lat="41.794120017439127" lon="-2.536282008513808">
        <ele>1077.5229999999999</ele>
        <time>2021-07-10T11:48:50Z</time>
      </trkpt>
      <trkpt lat="41.794010968878865" lon="-2.536001969128847">
        <ele>1078.616</ele>
        <time>2021-07-10T11:48:51Z</time>
      </trkpt>
      <trkpt lat="41.793801002204418" lon="-2.535464018583298">
        <ele>1080.1800000000001</ele>
        <time>2021-07-10T11:48:53Z</time>
      </trkpt>
      <trkpt lat="41.79369798861444" lon="-2.535199988633394">
        <ele>1082.269</ele>
        <time>2021-07-10T11:48:55Z</time>
      </trkpt>
      <trkpt lat="41.793593969196081" lon="-2.534942999482155">
        <ele>1083.9559999999999</ele>
        <time>2021-07-10T11:48:56Z</time>
      </trkpt>
      <trkpt lat="41.793489027768373" lon="-2.534689027816057">
        <ele>1086.059</ele>
        <time>2021-07-10T11:48:58Z</time>
      </trkpt>
      <trkpt lat="41.793255005031824" lon="-2.534199021756649">
        <ele>1088.614</ele>
        <time>2021-07-10T11:49:00Z</time>
      </trkpt>
      <trkpt lat="41.792988963425159" lon="-2.533752014860511">
        <ele>1091.1079999999999</ele>
        <time>2021-07-10T11:49:01Z</time>
      </trkpt>
      <trkpt lat="41.792710013687611" lon="-2.53334398381412">
        <ele>1092.952</ele>
        <time>2021-07-10T11:49:03Z</time>
      </trkpt>
      <trkpt lat="41.792418994009495" lon="-2.532966965809465">
        <ele>1095.2819999999999</ele>
        <time>2021-07-10T11:49:05Z</time>
      </trkpt>
      <trkpt lat="41.792105007916689" lon="-2.532620960846543">
        <ele>1097.433</ele>
        <time>2021-07-10T11:49:07Z</time>
      </trkpt>
      <trkpt lat="41.791949020698667" lon="-2.532449970021844">
        <ele>1099.4290000000001</ele>
        <time>2021-07-10T11:49:08Z</time>
      </trkpt>
      <trkpt lat="41.791602009907365" lon="-2.53216297365725">
        <ele>1100.3810000000001</ele>
        <time>2021-07-10T11:49:09Z</time>
      </trkpt>
      <trkpt lat="41.79122599773109" lon="-2.531915958970785">
        <ele>1101.694</ele>
        <time>2021-07-10T11:49:11Z</time>
      </trkpt>
      <trkpt lat="41.791037991642952" lon="-2.531777992844582">
        <ele>1103.268</ele>
        <time>2021-07-10T11:49:13Z</time>
      </trkpt>
      <trkpt lat="41.790851997211576" lon="-2.531633991748095">
        <ele>1103.6669999999999</ele>
        <time>2021-07-10T11:49:14Z</time>
      </trkpt>
      <trkpt lat="41.790663991123438" lon="-2.531489990651608">
        <ele>1102.9829999999999</ele>
        <time>2021-07-10T11:49:16Z</time>
      </trkpt>
      <trkpt lat="41.790289990603924" lon="-2.531198970973492">
        <ele>1101.7249999999999</ele>
        <time>2021-07-10T11:49:18Z</time>
      </trkpt>
      <trkpt lat="41.790113970637321" lon="-2.531030997633934">
        <ele>1100.7170000000001</ele>
        <time>2021-07-10T11:49:20Z</time>
      </trkpt>
      <trkpt lat="41.789924036711454" lon="-2.530879033729434">
        <ele>1099.308</ele>
        <time>2021-07-10T11:49:21Z</time>
      </trkpt>
      <trkpt lat="41.78972203284502" lon="-2.530746012926102">
        <ele>1098.665</ele>
        <time>2021-07-10T11:49:22Z</time>
      </trkpt>
      <trkpt lat="41.789331017062068" lon="-2.530448958277702">
        <ele>1097.675</ele>
        <time>2021-07-10T11:49:24Z</time>
      </trkpt>
      <trkpt lat="41.788940001279116" lon="-2.530153999105096">
        <ele>1097.1859999999999</ele>
        <time>2021-07-10T11:49:26Z</time>
      </trkpt>
      <trkpt lat="41.788746966049075" lon="-2.530003963038325">
        <ele>1097.472</ele>
        <time>2021-07-10T11:49:28Z</time>
      </trkpt>
      <trkpt lat="41.788367014378309" lon="-2.52971101552248">
        <ele>1097.9839999999999</ele>
        <time>2021-07-10T11:49:29Z</time>
      </trkpt>
      <trkpt lat="41.788172973319888" lon="-2.529562991112471">
        <ele>1098.7470000000001</ele>
        <time>2021-07-10T11:49:31Z</time>
      </trkpt>
      <trkpt lat="41.787794027477503" lon="-2.529255961999297">
        <ele>1099.3810000000001</ele>
        <time>2021-07-10T11:49:32Z</time>
      </trkpt>
      <trkpt lat="41.787413991987705" lon="-2.528941975906491">
        <ele>1100.3499999999999</ele>
        <time>2021-07-10T11:49:34Z</time>
      </trkpt>
      <trkpt lat="41.787217017263174" lon="-2.528803003951907">
        <ele>1101.7239999999999</ele>
        <time>2021-07-10T11:49:35Z</time>
      </trkpt>
      <trkpt lat="41.786839999258518" lon="-2.528469990938902">
        <ele>1102.8040000000001</ele>
        <time>2021-07-10T11:49:36Z</time>
      </trkpt>
      <trkpt lat="41.786482008174062" lon="-2.52810001373291">
        <ele>1103.414</ele>
        <time>2021-07-10T11:49:38Z</time>
      </trkpt>
      <trkpt lat="41.786315962672234" lon="-2.527888035401702">
        <ele>1104.9079999999999</ele>
        <time>2021-07-10T11:49:40Z</time>
      </trkpt>
      <trkpt lat="41.786009017378092" lon="-2.5274149607867">
        <ele>1106.259</ele>
        <time>2021-07-10T11:49:41Z</time>
      </trkpt>
      <trkpt lat="41.785746999084949" lon="-2.526878016069531">
        <ele>1107.579</ele>
        <time>2021-07-10T11:49:43Z</time>
      </trkpt>
      <trkpt lat="41.785633005201817" lon="-2.526585990563035">
        <ele>1108.1300000000001</ele>
        <time>2021-07-10T11:49:45Z</time>
      </trkpt>
      <trkpt lat="41.785449022427201" lon="-2.525964975357056">
        <ele>1109.116</ele>
        <time>2021-07-10T11:49:47Z</time>
      </trkpt>
      <trkpt lat="41.785295968875289" lon="-2.525324011221528">
        <ele>1110.078</ele>
        <time>2021-07-10T11:49:48Z</time>
      </trkpt>
      <trkpt lat="41.785136964172125" lon="-2.524693021550775">
        <ele>1110.931</ele>
        <time>2021-07-10T11:49:50Z</time>
      </trkpt>
      <trkpt lat="41.785047026351094" lon="-2.524390015751123">
        <ele>1111.7650000000001</ele>
        <time>2021-07-10T11:49:51Z</time>
      </trkpt>
      <trkpt lat="41.784946024417877" lon="-2.524097990244627">
        <ele>1112.5139999999999</ele>
        <time>2021-07-10T11:49:52Z</time>
      </trkpt>
      <trkpt lat="41.784705966711044" lon="-2.523552998900414">
        <ele>1114.086</ele>
        <time>2021-07-10T11:49:54Z</time>
      </trkpt>
      <trkpt lat="41.784404972568154" lon="-2.523075984790921">
        <ele>1115.1600000000001</ele>
        <time>2021-07-10T11:49:56Z</time>
      </trkpt>
      <trkpt lat="41.784236999228597" lon="-2.522863000631332">
        <ele>1115.626</ele>
        <time>2021-07-10T11:49:57Z</time>
      </trkpt>
      <trkpt lat="41.783884037286043" lon="-2.522453963756561">
        <ele>1116.4079999999999</ele>
        <time>2021-07-10T11:49:59Z</time>
      </trkpt>
      <trkpt lat="41.783519005402923" lon="-2.522026989609003">
        <ele>1117.345</ele>
        <time>2021-07-10T11:50:00Z</time>
      </trkpt>
      <trkpt lat="41.783152967691422" lon="-2.521571014076471">
        <ele>1118.145</ele>
        <time>2021-07-10T11:50:02Z</time>
      </trkpt>
      <trkpt lat="41.782979965209961" lon="-2.521319976076484">
        <ele>1117.9159999999999</ele>
        <time>2021-07-10T11:50:04Z</time>
      </trkpt>
      <trkpt lat="41.782817021012306" lon="-2.521055024117231">
        <ele>1117.6120000000001</ele>
        <time>2021-07-10T11:50:05Z</time>
      </trkpt>
      <trkpt lat="41.782518038526177" lon="-2.520482037216425">
        <ele>1117.2239999999999</ele>
        <time>2021-07-10T11:50:07Z</time>
      </trkpt>
      <trkpt lat="41.782248979434371" lon="-2.519888011738658">
        <ele>1117.1469999999999</ele>
        <time>2021-07-10T11:50:09Z</time>
      </trkpt>
      <trkpt lat="41.78198897279799" lon="-2.519290968775749">
        <ele>1117.241</ele>
        <time>2021-07-10T11:50:11Z</time>
      </trkpt>
      <trkpt lat="41.781866010278463" lon="-2.518999027088285">
        <ele>1117.8299999999999</ele>
        <time>2021-07-10T11:50:13Z</time>
      </trkpt>
      <trkpt lat="41.781646991148591" lon="-2.51841003075242">
        <ele>1118.4359999999999</ele>
        <time>2021-07-10T11:50:15Z</time>
      </trkpt>
      <trkpt lat="41.781556969508529" lon="-2.518106019124389">
        <ele>1119.4169999999999</ele>
        <time>2021-07-10T11:50:16Z</time>
      </trkpt>
      <trkpt lat="41.781421015039086" lon="-2.517462959513068">
        <ele>1119.9179999999999</ele>
        <time>2021-07-10T11:50:18Z</time>
      </trkpt>
      <trkpt lat="41.781384972855449" lon="-2.517133969813585">
        <ele>1120.308</ele>
        <time>2021-07-10T11:50:19Z</time>
      </trkpt>
      <trkpt lat="41.781366029754281" lon="-2.51679802313447">
        <ele>1120.3800000000001</ele>
        <time>2021-07-10T11:50:21Z</time>
      </trkpt>
      <trkpt lat="41.781373992562294" lon="-2.516172984614968">
        <ele>1120.78</ele>
        <time>2021-07-10T11:50:23Z</time>
      </trkpt>
      <trkpt lat="41.781433001160622" lon="-2.515602009370923">
        <ele>1120.5809999999999</ele>
        <time>2021-07-10T11:50:25Z</time>
      </trkpt>
      <trkpt lat="41.781480023637414" lon="-2.515329010784626">
        <ele>1119.4570000000001</ele>
        <time>2021-07-10T11:50:27Z</time>
      </trkpt>
      <trkpt lat="41.781595023348927" lon="-2.514802040532231">
        <ele>1118.9490000000001</ele>
        <time>2021-07-10T11:50:28Z</time>
      </trkpt>
      <trkpt lat="41.781701976433396" lon="-2.51428303308785">
        <ele>1118.3620000000001</ele>
        <time>2021-07-10T11:50:29Z</time>
      </trkpt>
      <trkpt lat="41.781809013336897" lon="-2.513777017593384">
        <ele>1117.856</ele>
        <time>2021-07-10T11:50:31Z</time>
      </trkpt>
      <trkpt lat="41.78186098113656" lon="-2.51353302039206">
        <ele>1117.095</ele>
        <time>2021-07-10T11:50:32Z</time>
      </trkpt>
      <trkpt lat="41.781958965584636" lon="-2.51303899101913">
        <ele>1116.0319999999999</ele>
        <time>2021-07-10T11:50:33Z</time>
      </trkpt>
      <trkpt lat="41.782001964747906" lon="-2.512788958847523">
        <ele>1115.5920000000001</ele>
        <time>2021-07-10T11:50:35Z</time>
      </trkpt>
      <trkpt lat="41.782033983618021" lon="-2.512538004666567">
        <ele>1115.1110000000001</ele>
        <time>2021-07-10T11:50:36Z</time>
      </trkpt>
      <trkpt lat="41.782072959467769" lon="-2.512038024142385">
        <ele>1114.808</ele>
        <time>2021-07-10T11:50:38Z</time>
      </trkpt>
      <trkpt lat="41.782087041065097" lon="-2.511542988941073">
        <ele>1114.0899999999999</ele>
        <time>2021-07-10T11:50:40Z</time>
      </trkpt>
      <trkpt lat="41.782078994438052" lon="-2.511290023103356">
        <ele>1113.0699999999999</ele>
        <time>2021-07-10T11:50:42Z</time>
      </trkpt>
      <trkpt lat="41.782033983618021" lon="-2.510786019265652">
        <ele>1111.8710000000001</ele>
        <time>2021-07-10T11:50:44Z</time>
      </trkpt>
      <trkpt lat="41.782002970576286" lon="-2.510532969608903">
        <ele>1111.087</ele>
        <time>2021-07-10T11:50:46Z</time>
      </trkpt>
      <trkpt lat="41.781918983906507" lon="-2.510018991306424">
        <ele>1110.6790000000001</ele>
        <time>2021-07-10T11:50:48Z</time>
      </trkpt>
      <trkpt lat="41.781810019165277" lon="-2.509499983862042">
        <ele>1110.0519999999999</ele>
        <time>2021-07-10T11:50:49Z</time>
      </trkpt>
      <trkpt lat="41.78175101056695" lon="-2.50923503190279">
        <ele>1109.326</ele>
        <time>2021-07-10T11:50:50Z</time>
      </trkpt>
      <trkpt lat="41.781626036390662" lon="-2.508695991709828">
        <ele>1109.2349999999999</ele>
        <time>2021-07-10T11:50:52Z</time>
      </trkpt>
      <trkpt lat="41.781497960910201" lon="-2.508145971223712">
        <ele>1108.9739999999999</ele>
        <time>2021-07-10T11:50:54Z</time>
      </trkpt>
      <trkpt lat="41.781377010047436" lon="-2.507597962394357">
        <ele>1108.6559999999999</ele>
        <time>2021-07-10T11:50:56Z</time>
      </trkpt>
      <trkpt lat="41.781246000900865" lon="-2.507055988535285">
        <ele>1108.1210000000001</ele>
        <time>2021-07-10T11:50:58Z</time>
      </trkpt>
      <trkpt lat="41.781114991754293" lon="-2.506518037989736">
        <ele>1107.4079999999999</ele>
        <time>2021-07-10T11:50:59Z</time>
      </trkpt>
      <trkpt lat="41.781051959842443" lon="-2.50624998472631">
        <ele>1106.4939999999999</ele>
        <time>2021-07-10T11:51:01Z</time>
      </trkpt>
      <trkpt lat="41.780928997322917" lon="-2.505725026130676">
        <ele>1106.0440000000001</ele>
        <time>2021-07-10T11:51:03Z</time>
      </trkpt>
      <trkpt lat="41.780873006209731" lon="-2.505463007837534">
        <ele>1105.7550000000001</ele>
        <time>2021-07-10T11:51:04Z</time>
      </trkpt>
      <trkpt lat="41.780774015933275" lon="-2.504940982908011">
        <ele>1105.521</ele>
        <time>2021-07-10T11:51:06Z</time>
      </trkpt>
      <trkpt lat="41.780665973201394" lon="-2.50442398712039">
        <ele>1105.0329999999999</ele>
        <time>2021-07-10T11:51:07Z</time>
      </trkpt>
      <trkpt lat="41.780542004853487" lon="-2.503912020474672">
        <ele>1105.386</ele>
        <time>2021-07-10T11:51:08Z</time>
      </trkpt>
      <trkpt lat="41.780389035120606" lon="-2.5034149736166">
        <ele>1105.78</ele>
        <time>2021-07-10T11:51:09Z</time>
      </trkpt>
      <trkpt lat="41.780295995995402" lon="-2.503168964758515">
        <ele>1106.3389999999999</ele>
        <time>2021-07-10T11:51:11Z</time>
      </trkpt>
      <trkpt lat="41.780192982405424" lon="-2.502931002527475">
        <ele>1106.7750000000001</ele>
        <time>2021-07-10T11:51:13Z</time>
      </trkpt>
      <trkpt lat="41.779954014346004" lon="-2.502492964267731">
        <ele>1107.1279999999999</ele>
        <time>2021-07-10T11:51:15Z</time>
      </trkpt>
      <trkpt lat="41.779814958572388" lon="-2.50229699537158">
        <ele>1107.02</ele>
        <time>2021-07-10T11:51:17Z</time>
      </trkpt>
      <trkpt lat="41.779662994667888" lon="-2.502107983455062">
        <ele>1107.508</ele>
        <time>2021-07-10T11:51:18Z</time>
      </trkpt>
      <trkpt lat="41.779369963333011" lon="-2.501770025119185">
        <ele>1107.614</ele>
        <time>2021-07-10T11:51:19Z</time>
      </trkpt>
      <trkpt lat="41.779210958629847" lon="-2.501604985445738">
        <ele>1107.684</ele>
        <time>2021-07-10T11:51:21Z</time>
      </trkpt>
      <trkpt lat="41.778884986415505" lon="-2.501302985474467">
        <ele>1107.7750000000001</ele>
        <time>2021-07-10T11:51:22Z</time>
      </trkpt>
      <trkpt lat="41.778559014201164" lon="-2.501021018251777">
        <ele>1107.8209999999999</ele>
        <time>2021-07-10T11:51:23Z</time>
      </trkpt>
      <trkpt lat="41.778232036158442" lon="-2.50074902549386">
        <ele>1108.0429999999999</ele>
        <time>2021-07-10T11:51:25Z</time>
      </trkpt>
      <trkpt lat="41.777916038408875" lon="-2.500478038564324">
        <ele>1107.9760000000001</ele>
        <time>2021-07-10T11:51:27Z</time>
      </trkpt>
      <trkpt lat="41.777609009295702" lon="-2.500218031927943">
        <ele>1108.01</ele>
        <time>2021-07-10T11:51:29Z</time>
      </trkpt>
      <trkpt lat="41.777317989617586" lon="-2.499958025291562">
        <ele>1108.1790000000001</ele>
        <time>2021-07-10T11:51:30Z</time>
      </trkpt>
      <trkpt lat="41.777168959379196" lon="-2.499843025580049">
        <ele>1108.1990000000001</ele>
        <time>2021-07-10T11:51:31Z</time>
      </trkpt>
      <trkpt lat="41.77702403627336" lon="-2.499725008383393">
        <ele>1108.2070000000001</ele>
        <time>2021-07-10T11:51:33Z</time>
      </trkpt>
      <trkpt lat="41.77672597579658" lon="-2.499483022838831">
        <ele>1107.7270000000001</ele>
        <time>2021-07-10T11:51:35Z</time>
      </trkpt>
      <trkpt lat="41.776427999138832" lon="-2.499236008152366">
        <ele>1107.7080000000001</ele>
        <time>2021-07-10T11:51:37Z</time>
      </trkpt>
      <trkpt lat="41.776141002774239" lon="-2.498983964323998">
        <ele>1107.4259999999999</ele>
        <time>2021-07-10T11:51:49Z</time>
      </trkpt>
      <trkpt lat="41.775831039994955" lon="-2.498761005699635">
        <ele>1107.576</ele>
        <time>2021-07-10T11:51:50Z</time>
      </trkpt>
      <trkpt lat="41.775681003928185" lon="-2.498648017644882">
        <ele>1106.9469999999999</ele>
        <time>2021-07-10T11:51:52Z</time>
      </trkpt>
      <trkpt lat="41.775390990078449" lon="-2.498436039313674">
        <ele>1105.913</ele>
        <time>2021-07-10T11:51:54Z</time>
      </trkpt>
      <trkpt lat="41.775107011198997" lon="-2.498222971335053">
        <ele>1105.5350000000001</ele>
        <time>2021-07-10T11:51:55Z</time>
      </trkpt>
      <trkpt lat="41.774964015930891" lon="-2.498118029907346">
        <ele>1105.3979999999999</ele>
        <time>2021-07-10T11:51:57Z</time>
      </trkpt>
      <trkpt lat="41.774669978767633" lon="-2.497947961091995">
        <ele>1105.452</ele>
        <time>2021-07-10T11:51:59Z</time>
      </trkpt>
      <trkpt lat="41.774524971842766" lon="-2.497851988300681">
        <ele>1105.251</ele>
        <time>2021-07-10T11:52:03Z</time>
      </trkpt>
      <trkpt lat="41.774380970746279" lon="-2.497745035216212">
        <ele>1104.778</ele>
        <time>2021-07-10T11:52:05Z</time>
      </trkpt>
      <trkpt lat="41.774235963821411" lon="-2.497629029676318">
        <ele>1104.7329999999999</ele>
        <time>2021-07-10T11:52:07Z</time>
      </trkpt>
      <trkpt lat="41.773950979113579" lon="-2.497396012768149">
        <ele>1104.4259999999999</ele>
        <time>2021-07-10T11:52:08Z</time>
      </trkpt>
      <trkpt lat="41.773677980527282" lon="-2.497171964496374">
        <ele>1104.1079999999999</ele>
        <time>2021-07-10T11:52:10Z</time>
      </trkpt>
      <trkpt lat="41.773445969447494" lon="-2.496984964236617">
        <ele>1104.2539999999999</ele>
        <time>2021-07-10T11:52:11Z</time>
      </trkpt>
      <trkpt lat="41.773238014429808" lon="-2.496824031695724">
        <ele>1104.7739999999999</ele>
        <time>2021-07-10T11:52:13Z</time>
      </trkpt>
      <trkpt lat="41.773151010274887" lon="-2.496759993955493">
        <ele>1104.845</ele>
        <time>2021-07-10T11:52:14Z</time>
      </trkpt>
      <trkpt lat="41.773073980584741" lon="-2.496706014499068">
        <ele>1104.711</ele>
        <time>2021-07-10T11:52:16Z</time>
      </trkpt>
      <trkpt lat="41.772934002801776" lon="-2.496612975373864">
        <ele>1104.873</ele>
        <time>2021-07-10T11:52:17Z</time>
      </trkpt>
      <trkpt lat="41.772865019738674" lon="-2.496566036716104">
        <ele>1094.046</ele>
        <time>2021-07-21T22:16:28Z</time>
      </trkpt>
      <trkpt lat="41.772797964513302" lon="-2.496520020067692">
        <ele>1094.088</ele>
        <time>2021-07-21T22:16:35Z</time>
      </trkpt>
      <trkpt lat="41.772669972851872" lon="-2.496421029791236">
        <ele>1094.0160000000001</ele>
        <time>2021-07-21T22:16:37Z</time>
      </trkpt>
      <trkpt lat="41.772546004503965" lon="-2.496317010372877">
        <ele>1094.008</ele>
        <time>2021-07-21T22:16:40Z</time>
      </trkpt>
      <trkpt lat="41.772412983700633" lon="-2.496225982904434">
        <ele>1094.0509999999999</ele>
        <time>2021-07-21T22:16:42Z</time>
      </trkpt>
      <trkpt lat="41.772351041436195" lon="-2.496183989569545">
        <ele>1094.0820000000001</ele>
        <time>2021-07-21T22:16:44Z</time>
      </trkpt>
      <trkpt lat="41.772296978160739" lon="-2.496139984577894">
        <ele>1095.0519999999999</ele>
        <time>2021-07-21T22:16:46Z</time>
      </trkpt>
      <trkpt lat="41.772207962349057" lon="-2.496069995686412">
        <ele>1095.077</ele>
        <time>2021-07-21T22:16:48Z</time>
      </trkpt>
      <trkpt lat="41.772144008427858" lon="-2.496014004573226">
        <ele>1095.0609999999999</ele>
        <time>2021-07-21T22:16:51Z</time>
      </trkpt>
      <trkpt lat="41.772087011486292" lon="-2.495965976268053">
        <ele>1096.0229999999999</ele>
        <time>2021-07-21T22:16:56Z</time>
      </trkpt>
      <trkpt lat="41.7720399890095" lon="-2.495907973498106">
        <ele>1096.0150000000001</ele>
        <time>2021-07-21T22:16:59Z</time>
      </trkpt>
      <trkpt lat="41.772010987624526" lon="-2.495858017355204">
        <ele>1097.0340000000001</ele>
        <time>2021-07-21T22:17:03Z</time>
      </trkpt>
      <trkpt lat="41.771920965984464" lon="-2.495738994330168">
        <ele>1096.0740000000001</ele>
        <time>2021-07-21T22:17:06Z</time>
      </trkpt>
      <trkpt lat="41.771821975708008" lon="-2.495623994618654">
        <ele>1096.056</ele>
        <time>2021-07-21T22:17:09Z</time>
      </trkpt>
      <trkpt lat="41.77178199402988" lon="-2.495584012940526">
        <ele>1096.021</ele>
        <time>2021-07-21T22:17:12Z</time>
      </trkpt>
      <trkpt lat="41.771708987653255" lon="-2.495497008785605">
        <ele>1096.008</ele>
        <time>2021-07-21T22:17:15Z</time>
      </trkpt>
      <trkpt lat="41.77165299654007" lon="-2.495467001572251">
        <ele>1095.0440000000001</ele>
        <time>2021-07-21T22:17:17Z</time>
      </trkpt>
      <trkpt lat="41.771586025133729" lon="-2.49546398408711">
        <ele>1095.095</ele>
        <time>2021-07-21T22:17:20Z</time>
      </trkpt>
      <trkpt lat="41.771474964916706" lon="-2.49548502266407">
        <ele>1094.0550000000001</ele>
        <time>2021-07-21T22:17:30Z</time>
      </trkpt>
      <trkpt lat="41.77128603681922" lon="-2.495520981028676">
        <ele>1096.01</ele>
        <time>2021-07-21T22:17:41Z</time>
      </trkpt>
      <trkpt lat="41.77118101157248" lon="-2.495510000735521">
        <ele>1097.0540000000001</ele>
        <time>2021-07-21T22:17:49Z</time>
      </trkpt>
      <trkpt lat="41.770994011312723" lon="-2.495386032387614">
        <ele>1094.0360000000001</ele>
        <time>2021-07-21T22:18:21Z</time>
      </trkpt>
      <trkpt lat="41.770912036299706" lon="-2.495307996869087">
        <ele>1093.018</ele>
        <time>2021-07-21T22:18:30Z</time>
      </trkpt>
      <trkpt lat="41.770795024931431" lon="-2.495083026587963">
        <ele>1090.037</ele>
        <time>2021-07-21T22:18:41Z</time>
      </trkpt>
      <trkpt lat="41.770763006061316" lon="-2.494956040754914">
        <ele>1088.0450000000001</ele>
        <time>2021-07-21T22:18:48Z</time>
      </trkpt>
      <trkpt lat="41.770755965262651" lon="-2.494708020240068">
        <ele>1087.047</ele>
        <time>2021-07-21T22:18:59Z</time>
      </trkpt>
      <trkpt lat="41.770770968869328" lon="-2.494578016921878">
        <ele>1087.011</ele>
        <time>2021-07-21T22:19:08Z</time>
      </trkpt>
      <trkpt lat="41.771930018439889" lon="-2.49567998573184">
        <ele>1085.008</ele>
        <time>2021-07-21T22:20:01Z</time>
      </trkpt>
      <trkpt lat="41.7716099973768" lon="-2.495389971882105">
        <ele>1087.0609999999999</ele>
        <time>2021-07-21T22:20:17Z</time>
      </trkpt>
      <trkpt lat="41.771489968523383" lon="-2.495459960773587">
        <ele>1090.0519999999999</ele>
        <time>2021-07-21T22:20:30Z</time>
      </trkpt>
      <trkpt lat="41.771349990740418" lon="-2.495489967986941">
        <ele>1091.0319999999999</ele>
        <time>2021-07-21T22:20:44Z</time>
      </trkpt>
      <trkpt lat="41.771249994635582" lon="-2.495479993522167">
        <ele>1092.057</ele>
        <time>2021-07-21T22:20:55Z</time>
      </trkpt>
      <trkpt lat="41.771119991317391" lon="-2.495430037379265">
        <ele>1090.0709999999999</ele>
        <time>2021-07-21T22:21:06Z</time>
      </trkpt>
      <trkpt lat="41.771040027961135" lon="-2.495359964668751">
        <ele>1090.0530000000001</ele>
        <time>2021-07-21T22:21:15Z</time>
      </trkpt>
      <trkpt lat="41.770940031856298" lon="-2.495219986885786">
        <ele>1091.0650000000001</ele>
        <time>2021-07-21T22:21:33Z</time>
      </trkpt>
      <trkpt lat="41.77085998468101" lon="-2.495010020211339">
        <ele>1085.0840000000001</ele>
        <time>2021-07-21T22:22:01Z</time>
      </trkpt>
      <trkpt lat="41.770850010216236" lon="-2.49466996639967">
        <ele>1075.046</ele>
        <time>2021-07-21T22:22:31Z</time>
      </trkpt>
      <trkpt lat="41.770929973572493" lon="-2.494439966976643">
        <ele>1074.088</ele>
        <time>2021-07-21T22:22:40Z</time>
      </trkpt>
      <trkpt lat="41.771099958568811" lon="-2.49423997476697">
        <ele>1074.0160000000001</ele>
        <time>2021-07-21T22:22:50Z</time>
      </trkpt>
      <trkpt lat="41.771249994635582" lon="-2.494169985875487">
        <ele>1073.008</ele>
        <time>2021-07-21T22:23:06Z</time>
      </trkpt>
      <trkpt lat="41.771389972418547" lon="-2.494160011410713">
        <ele>1073.021</ele>
        <time>2021-07-21T22:23:10Z</time>
      </trkpt>
      <trkpt lat="41.77158996462822" lon="-2.494250033050776">
        <ele>1073.0219999999999</ele>
        <time>2021-07-21T22:23:11Z</time>
      </trkpt>
      <trkpt lat="41.771700019016862" lon="-2.49436997808516">
        <ele>1073.0920000000001</ele>
        <time>2021-07-21T22:23:15Z</time>
      </trkpt>
      <trkpt lat="41.771809989586473" lon="-2.494429992511869">
        <ele>1073.067</ele>
        <time>2021-07-21T22:23:20Z</time>
      </trkpt>
      <trkpt lat="41.771990032866597" lon="-2.494450025260449">
        <ele>1074.0509999999999</ele>
        <time>2021-07-21T22:23:24Z</time>
      </trkpt>
      <trkpt lat="41.772499987855554" lon="-2.49426000751555">
        <ele>1074.0730000000001</ele>
        <time>2021-07-21T22:23:25Z</time>
      </trkpt>
      <trkpt lat="41.773099964484572" lon="-2.493990026414394">
        <ele>1073.0450000000001</ele>
        <time>2021-07-21T22:23:27Z</time>
      </trkpt>
      <trkpt lat="41.773540014401078" lon="-2.493930011987686">
        <ele>1073.0540000000001</ele>
        <time>2021-07-21T22:23:30Z</time>
      </trkpt>
      <trkpt lat="41.775289988145232" lon="-2.493279995396733">
        <ele>1075.039</ele>
        <time>2021-07-21T22:23:34Z</time>
      </trkpt>
      <trkpt lat="41.775770019739866" lon="-2.493089977651835">
        <ele>1076.001</ele>
        <time>2021-07-21T22:23:38Z</time>
      </trkpt>
      <trkpt lat="41.776339989155531" lon="-2.492799963802099">
        <ele>1078.021</ele>
        <time>2021-07-21T22:23:41Z</time>
      </trkpt>
      <trkpt lat="41.776679959148169" lon="-2.49254004098475">
        <ele>1079.008</ele>
        <time>2021-07-21T22:23:45Z</time>
      </trkpt>
      <trkpt lat="41.777180023491383" lon="-2.49206998385489">
        <ele>1080.02</ele>
        <time>2021-07-21T22:23:48Z</time>
      </trkpt>
      <trkpt lat="41.777570033445954" lon="-2.49161995947361">
        <ele>1080.0309999999999</ele>
        <time>2021-07-21T22:23:55Z</time>
      </trkpt>
      <trkpt lat="41.779789980500937" lon="-2.48888997361064">
        <ele>1081.011</ele>
        <time>2021-07-21T22:24:01Z</time>
      </trkpt>
      <trkpt lat="41.780430022627115" lon="-2.488080030307174">
        <ele>1083.046</ele>
        <time>2021-07-21T22:24:07Z</time>
      </trkpt>
      <trkpt lat="41.780899995937943" lon="-2.487330017611384">
        <ele>1093.04</ele>
        <time>2021-07-21T22:24:36Z</time>
      </trkpt>
      <trkpt lat="41.781350020319223" lon="-2.486489983275533">
        <ele>1093.0219999999999</ele>
        <time>2021-07-21T22:24:39Z</time>
      </trkpt>
      <trkpt lat="41.781629975885153" lon="-2.485750028863549">
        <ele>1094.0340000000001</ele>
        <time>2021-07-21T22:24:43Z</time>
      </trkpt>
      <trkpt lat="41.78188000805676" lon="-2.484990041702986">
        <ele>1094.0630000000001</ele>
        <time>2021-07-21T22:24:50Z</time>
      </trkpt>
      <trkpt lat="41.782049993053079" lon="-2.484299959614873">
        <ele>1094.0250000000001</ele>
        <time>2021-07-21T22:25:51Z</time>
      </trkpt>
      <trkpt lat="41.782279992476106" lon="-2.482990035787225">
        <ele>1074.0260000000001</ele>
        <time>2021-07-21T22:26:58Z</time>
      </trkpt>
      <trkpt lat="41.782579980790615" lon="-2.480949964374304">
        <ele>1071.008</ele>
        <time>2021-07-21T22:27:07Z</time>
      </trkpt>
      <trkpt lat="41.782950041815639" lon="-2.47874996624887">
        <ele>1068.008</ele>
        <time>2021-07-21T22:27:15Z</time>
      </trkpt>
      <trkpt lat="41.783009972423315" lon="-2.478070026263595">
        <ele>1053.069</ele>
        <time>2021-07-21T22:27:51Z</time>
      </trkpt>
      <trkpt lat="41.783039979636669" lon="-2.477329988032579">
        <ele>1051.0699999999999</ele>
        <time>2021-07-21T22:27:58Z</time>
      </trkpt>
      <trkpt lat="41.782950041815639" lon="-2.476070020347834">
        <ele>1049.05</ele>
        <time>2021-07-21T22:28:07Z</time>
      </trkpt>
      <trkpt lat="41.78289002738893" lon="-2.475829962641001">
        <ele>1049.0250000000001</ele>
        <time>2021-07-21T22:28:19Z</time>
      </trkpt>
      <trkpt lat="41.782839987426996" lon="-2.475729966536164">
        <ele>1046.059</ele>
        <time>2021-07-21T22:28:36Z</time>
      </trkpt>
      <trkpt lat="41.782670002430677" lon="-2.475529974326491">
        <ele>1041.0509999999999</ele>
        <time>2021-07-21T22:28:57Z</time>
      </trkpt>
      <trkpt lat="41.78244000300765" lon="-2.475320007652044">
        <ele>1039.0229999999999</ele>
        <time>2021-07-21T22:29:05Z</time>
      </trkpt>
      <trkpt lat="41.782379988580942" lon="-2.475069975480437">
        <ele>1036.0419999999999</ele>
        <time>2021-07-21T22:29:20Z</time>
      </trkpt>
      <trkpt lat="41.782379988580942" lon="-2.474969979375601">
        <ele>1034.067</ele>
        <time>2021-07-21T22:29:28Z</time>
      </trkpt>
      <trkpt lat="41.782409995794296" lon="-2.474850034341216">
        <ele>1032.0809999999999</ele>
        <time>2021-07-21T22:29:39Z</time>
      </trkpt>
      <trkpt lat="41.782500017434359" lon="-2.474690023809671">
        <ele>1042.019</ele>
        <time>2021-07-21T22:31:51Z</time>
      </trkpt>
      <trkpt lat="41.78276002407074" lon="-2.474590027704835">
        <ele>1041.008</ele>
        <time>2021-07-21T22:32:03Z</time>
      </trkpt>
      <trkpt lat="41.782939983531833" lon="-2.474569994956255">
        <ele>1039.0429999999999</ele>
        <time>2021-07-21T22:32:16Z</time>
      </trkpt>
      <trkpt lat="41.783130001276731" lon="-2.474590027704835">
        <ele>1036.0540000000001</ele>
        <time>2021-07-21T22:32:34Z</time>
      </trkpt>
      <trkpt lat="41.783369975164533" lon="-2.474649958312511">
        <ele>1034.0139999999999</ele>
        <time>2021-07-21T22:32:39Z</time>
      </trkpt>
      <trkpt lat="41.783499978482723" lon="-2.474699998274446">
        <ele>1033.039</ele>
        <time>2021-07-21T22:32:57Z</time>
      </trkpt>
      <trkpt lat="41.783829974010587" lon="-2.474969979375601">
        <ele>1016.073</ele>
        <time>2021-07-21T22:34:00Z</time>
      </trkpt>
      <trkpt lat="41.784149995073676" lon="-2.475169971585274">
        <ele>1011.0549999999999</ele>
        <time>2021-07-21T22:35:14Z</time>
      </trkpt>
      <trkpt lat="41.784460041671991" lon="-2.475259993225336">
        <ele>1013.037</ele>
        <time>2021-07-21T22:35:41Z</time>
      </trkpt>
      <trkpt lat="41.786129968240857" lon="-2.475459985435009">
        <ele>1011.0359999999999</ele>
        <time>2021-07-21T22:36:06Z</time>
      </trkpt>
      <trkpt lat="41.786289978772402" lon="-2.475440036505461">
        <ele>1013.069</ele>
        <time>2021-07-21T22:36:28Z</time>
      </trkpt>
      <trkpt lat="41.786479996517301" lon="-2.475369963794947">
        <ele>1014.004</ele>
        <time>2021-07-21T22:36:49Z</time>
      </trkpt>
      <trkpt lat="41.786819966509938" lon="-2.475129989907146">
        <ele>1014.024</ele>
        <time>2021-07-21T22:38:15Z</time>
      </trkpt>
      <trkpt lat="41.789709962904453" lon="-2.472630003467202">
        <ele>1015.008</ele>
        <time>2021-07-21T22:38:48Z</time>
      </trkpt>
      <trkpt lat="41.792710013687611" lon="-2.469540014863014">
        <ele>1014.033</ele>
        <time>2021-07-21T22:39:04Z</time>
      </trkpt>
      <trkpt lat="41.793170012533665" lon="-2.469240026548505">
        <ele>1014.064</ele>
        <time>2021-07-21T22:39:14Z</time>
      </trkpt>
      <trkpt lat="41.793600004166365" lon="-2.469110023230314">
        <ele>1014.0839999999999</ele>
        <time>2021-07-21T22:39:23Z</time>
      </trkpt>
      <trkpt lat="41.7956099845469" lon="-2.46938000433147">
        <ele>1014.0890000000001</ele>
        <time>2021-07-21T22:39:30Z</time>
      </trkpt>
      <trkpt lat="41.795990020036697" lon="-2.469389978796244">
        <ele>1013.063</ele>
        <time>2021-07-21T22:39:42Z</time>
      </trkpt>
      <trkpt lat="41.796529982239008" lon="-2.469250001013279">
        <ele>1015.035</ele>
        <time>2021-07-21T22:39:51Z</time>
      </trkpt>
      <trkpt lat="41.797140017151833" lon="-2.46892997995019">
        <ele>1016.027</ele>
        <time>2021-07-21T22:39:59Z</time>
      </trkpt>
      <trkpt lat="41.797949960455298" lon="-2.468299996107817">
        <ele>1016.0359999999999</ele>
        <time>2021-07-21T22:40:07Z</time>
      </trkpt>
      <trkpt lat="41.799040026962757" lon="-2.467579990625382">
        <ele>1015.0839999999999</ele>
        <time>2021-07-21T22:40:20Z</time>
      </trkpt>
      <trkpt lat="41.799459960311651" lon="-2.467359965667129">
        <ele>1015.0069999999999</ele>
        <time>2021-07-21T22:40:35Z</time>
      </trkpt>
      <trkpt lat="41.800179965794086" lon="-2.466899966821075">
        <ele>1018.0170000000001</ele>
        <time>2021-07-21T22:42:58Z</time>
      </trkpt>
      <trkpt lat="41.800580034032464" lon="-2.466550022363663">
        <ele>1037.008</ele>
        <time>2021-07-21T22:46:36Z</time>
      </trkpt>
      <trkpt lat="41.801029974594712" lon="-2.466000001877546">
        <ele>1077.0250000000001</ele>
        <time>2021-07-21T22:51:59Z</time>
      </trkpt>
      <trkpt lat="41.806170009076595" lon="-2.458810005337">
        <ele>1102.0160000000001</ele>
        <time>2021-07-21T22:55:14Z</time>
      </trkpt>
      <trkpt lat="41.806669989600778" lon="-2.458189995959401">
        <ele>1103.066</ele>
        <time>2021-07-21T22:55:24Z</time>
      </trkpt>
      <trkpt lat="41.807220010086894" lon="-2.457590019330382">
        <ele>1107.0409999999999</ele>
        <time>2021-07-21T22:57:41Z</time>
      </trkpt>
      <trkpt lat="41.808079993352294" lon="-2.456870013847947">
        <ele>1106.0450000000001</ele>
        <time>2021-07-21T22:57:48Z</time>
      </trkpt>
      <trkpt lat="41.808330025523901" lon="-2.456679996103048">
        <ele>1100.037</ele>
        <time>2021-07-21T22:59:41Z</time>
      </trkpt>
      <trkpt lat="41.809269972145557" lon="-2.456110026687384">
        <ele>1095.069</ele>
        <time>2021-07-21T22:59:56Z</time>
      </trkpt>
      <trkpt lat="41.812660032883286" lon="-2.454909989610314">
        <ele>1094.028</ele>
        <time>2021-07-21T23:00:04Z</time>
      </trkpt>
      <trkpt lat="41.816710000857711" lon="-2.453580033034086">
        <ele>1093.058</ele>
        <time>2021-07-21T23:00:10Z</time>
      </trkpt>
      <trkpt lat="41.818159986287355" lon="-2.45303001254797">
        <ele>1092.0519999999999</ele>
        <time>2021-07-21T23:00:20Z</time>
      </trkpt>
      <trkpt lat="41.819530008360744" lon="-2.452470017597079">
        <ele>1090.0170000000001</ele>
        <time>2021-07-21T23:00:28Z</time>
      </trkpt>
      <trkpt lat="41.820700038224459" lon="-2.451929971575737">
        <ele>1088.008</ele>
        <time>2021-07-21T23:00:35Z</time>
      </trkpt>
      <trkpt lat="41.82179999537766" lon="-2.451369976624847">
        <ele>1084.0719999999999</ele>
        <time>2021-07-21T23:00:51Z</time>
      </trkpt>
      <trkpt lat="41.826320020481944" lon="-2.448999993503094">
        <ele>1084.0429999999999</ele>
        <time>2021-07-21T23:01:23Z</time>
      </trkpt>
      <trkpt lat="41.82800997979939" lon="-2.448149984702468">
        <ele>1087.0229999999999</ele>
        <time>2021-07-21T23:01:38Z</time>
      </trkpt>
      <trkpt lat="41.82888999581337" lon="-2.447759974747896">
        <ele>1087.018</ele>
        <time>2021-07-21T23:01:45Z</time>
      </trkpt>
      <trkpt lat="41.829419983550906" lon="-2.447580015286803">
        <ele>1089.0820000000001</ele>
        <time>2021-07-21T23:01:50Z</time>
      </trkpt>
      <trkpt lat="41.829930022358894" lon="-2.447459986433387">
        <ele>1090.0940000000001</ele>
        <time>2021-07-21T23:01:54Z</time>
      </trkpt>
      <trkpt lat="41.83033000677824" lon="-2.447389997541904">
        <ele>1091.0260000000001</ele>
        <time>2021-07-21T23:02:03Z</time>
      </trkpt>
      <trkpt lat="41.830980023369193" lon="-2.447350015863776">
        <ele>1092.0550000000001</ele>
        <time>2021-07-21T23:02:14Z</time>
      </trkpt>
      <trkpt lat="41.831519985571504" lon="-2.44735999032855">
        <ele>1093.021</ele>
        <time>2021-07-21T23:02:19Z</time>
      </trkpt>
      <trkpt lat="41.831930028274655" lon="-2.447399972006679">
        <ele>1095.0409999999999</ele>
        <time>2021-07-21T23:02:30Z</time>
      </trkpt>
      <trkpt lat="41.832409976050258" lon="-2.447489993646741">
        <ele>1098.0050000000001</ele>
        <time>2021-07-21T23:02:41Z</time>
      </trkpt>
      <trkpt lat="41.833110032603145" lon="-2.447689985856414">
        <ele>1100.008</ele>
        <time>2021-07-21T23:02:51Z</time>
      </trkpt>
      <trkpt lat="41.833930034190416" lon="-2.448030039668083">
        <ele>1101.059</ele>
        <time>2021-07-21T23:03:05Z</time>
      </trkpt>
      <trkpt lat="41.841520015150309" lon="-2.451469972729683">
        <ele>1105.01</ele>
        <time>2021-07-21T23:03:57Z</time>
      </trkpt>
      <trkpt lat="41.853130040690303" lon="-2.456789966672659">
        <ele>1106.05</ele>
        <time>2021-07-21T23:04:13Z</time>
      </trkpt>
      <trkpt lat="41.870259968563914" lon="-2.464819997549057">
        <ele>1104.075</ele>
        <time>2021-07-21T23:04:29Z</time>
      </trkpt>
      <trkpt lat="41.880620000883937" lon="-2.469709999859333">
        <ele>1104.0989999999999</ele>
        <time>2021-07-21T23:04:30Z</time>
      </trkpt>
      <trkpt lat="41.881130039691925" lon="-2.469900017604232">
        <ele>1107.0409999999999</ele>
        <time>2021-07-21T23:04:49Z</time>
      </trkpt>
      <trkpt lat="41.8887900095433" lon="-2.471210025250912">
        <ele>1107.0429999999999</ele>
        <time>2021-07-21T23:04:50Z</time>
      </trkpt>
      <trkpt lat="41.889180019497871" lon="-2.47125000692904">
        <ele>1107.0119999999999</ele>
        <time>2021-07-21T23:04:52Z</time>
      </trkpt>
      <trkpt lat="41.895490000024438" lon="-2.470499994233251">
        <ele>1107.0219999999999</ele>
        <time>2021-07-21T23:04:59Z</time>
      </trkpt>
      <trkpt lat="41.896319976076484" lon="-2.47023998759687">
        <ele>1101.0619999999999</ele>
        <time>2021-07-21T23:06:36Z</time>
      </trkpt>
      <trkpt lat="41.896730018779635" lon="-2.470039995387197">
        <ele>1102.008</ele>
        <time>2021-07-21T23:06:51Z</time>
      </trkpt>
      <trkpt lat="41.897050039842725" lon="-2.469849977642298">
        <ele>1100.008</ele>
        <time>2021-07-21T23:07:06Z</time>
      </trkpt>
      <trkpt lat="41.897539962083101" lon="-2.469480000436306">
        <ele>1097.019</ele>
        <time>2021-07-21T23:07:24Z</time>
      </trkpt>
      <trkpt lat="41.897929972037673" lon="-2.469140030443668">
        <ele>1095.02</ele>
        <time>2021-07-21T23:07:43Z</time>
      </trkpt>
      <trkpt lat="41.898240018635988" lon="-2.468810034915805">
        <ele>1096.0599999999999</ele>
        <time>2021-07-21T23:07:51Z</time>
      </trkpt>
      <trkpt lat="41.898849969729781" lon="-2.467939993366599">
        <ele>1095.0350000000001</ele>
        <time>2021-07-21T23:07:57Z</time>
      </trkpt>
      <trkpt lat="41.900040032342076" lon="-2.466150037944317">
        <ele>1094.0989999999999</ele>
        <time>2021-07-21T23:08:06Z</time>
      </trkpt>
      <trkpt lat="41.900619976222515" lon="-2.465359959751368">
        <ele>1096.0609999999999</ele>
        <time>2021-07-21T23:08:27Z</time>
      </trkpt>
      <trkpt lat="41.900949971750379" lon="-2.464989982545376">
        <ele>1098.0229999999999</ele>
        <time>2021-07-21T23:08:40Z</time>
      </trkpt>
      <trkpt lat="41.901190029457211" lon="-2.464780015870929">
        <ele>1129.0119999999999</ele>
        <time>2021-07-21T23:10:51Z</time>
      </trkpt>
      <trkpt lat="41.90136001445353" lon="-2.464580023661256">
        <ele>1131.0609999999999</ele>
        <time>2021-07-21T23:11:02Z</time>
      </trkpt>
      <trkpt lat="41.90179000608623" lon="-2.464260002598167">
        <ele>1133.021</ele>
        <time>2021-07-21T23:11:09Z</time>
      </trkpt>
      <trkpt lat="41.902359975501895" lon="-2.463939981535077">
        <ele>1134.0129999999999</ele>
        <time>2021-07-21T23:11:17Z</time>
      </trkpt>
      <trkpt lat="41.902619982138276" lon="-2.463830010965467">
        <ele>1156.008</ele>
        <time>2021-07-21T23:16:52Z</time>
      </trkpt>
      <trkpt lat="41.903219958767295" lon="-2.463630018755794">
        <ele>1157.0630000000001</ele>
        <time>2021-07-21T23:17:02Z</time>
      </trkpt>
      <trkpt lat="41.90382999368012" lon="-2.463519964367151">
        <ele>1158.0440000000001</ele>
        <time>2021-07-21T23:17:15Z</time>
      </trkpt>
      <trkpt lat="41.90438998863101" lon="-2.463509989902377">
        <ele>1155.0740000000001</ele>
        <time>2021-07-21T23:17:24Z</time>
      </trkpt>
      <trkpt lat="41.905170008540154" lon="-2.46357997879386">
        <ele>1153.029</ele>
        <time>2021-07-21T23:17:30Z</time>
      </trkpt>
      <trkpt lat="41.908080037683249" lon="-2.463969988748431">
        <ele>1152.0630000000001</ele>
        <time>2021-07-21T23:17:38Z</time>
      </trkpt>
      <trkpt lat="41.909000035375357" lon="-2.464050035923719">
        <ele>1152.085</ele>
        <time>2021-07-21T23:17:48Z</time>
      </trkpt>
      <trkpt lat="41.909860018640757" lon="-2.46416000649333">
        <ele>1137.067</ele>
        <time>2021-07-21T23:20:01Z</time>
      </trkpt>
      <trkpt lat="41.909950040280819" lon="-2.464199988171458">
        <ele>1137.0260000000001</ele>
        <time>2021-07-21T23:20:10Z</time>
      </trkpt>
      <trkpt lat="41.911019990220666" lon="-2.464350024238229">
        <ele>1140.0909999999999</ele>
        <time>2021-07-21T23:20:32Z</time>
      </trkpt>
      <trkpt lat="41.91104999743402" lon="-2.464369973167777">
        <ele>1141.0809999999999</ele>
        <time>2021-07-21T23:20:36Z</time>
      </trkpt>
      <trkpt lat="41.911080004647374" lon="-2.464520009234548">
        <ele>1139.019</ele>
        <time>2021-07-21T23:20:44Z</time>
      </trkpt>
      <trkpt lat="41.911100037395954" lon="-2.465010015293956">
        <ele>1139.008</ele>
        <time>2021-07-21T23:20:45Z</time>
      </trkpt>
      <trkpt lat="41.912190020084381" lon="-2.472209986299276">
        <ele>1140.076</ele>
        <time>2021-07-21T23:20:57Z</time>
      </trkpt>
      <trkpt lat="41.912409961223602" lon="-2.473299968987703">
        <ele>1144.067</ele>
        <time>2021-07-21T23:21:23Z</time>
      </trkpt>
      <trkpt lat="41.912699975073338" lon="-2.474339995533228">
        <ele>1145.057</ele>
        <time>2021-07-21T23:21:39Z</time>
      </trkpt>
      <trkpt lat="41.913140024989843" lon="-2.4755899887532">
        <ele>1145.0519999999999</ele>
        <time>2021-07-21T23:21:45Z</time>
      </trkpt>
      <trkpt lat="41.913709994405508" lon="-2.476809974759817">
        <ele>1146.0160000000001</ele>
        <time>2021-07-21T23:22:00Z</time>
      </trkpt>
      <trkpt lat="41.913900012150407" lon="-2.477329988032579">
        <ele>1148.018</ele>
        <time>2021-07-21T23:22:46Z</time>
      </trkpt>
      <trkpt lat="41.914000008255243" lon="-2.477780012413859">
        <ele>1148.04</ele>
        <time>2021-07-21T23:22:55Z</time>
      </trkpt>
      <trkpt lat="41.914060022681952" lon="-2.478440003469586">
        <ele>1148.019</ele>
        <time>2021-07-21T23:23:03Z</time>
      </trkpt>
      <trkpt lat="41.914009982720017" lon="-2.480070032179356">
        <ele>1147.0309999999999</ele>
        <time>2021-07-21T23:23:12Z</time>
      </trkpt>
      <trkpt lat="41.914139986038208" lon="-2.481030011549592">
        <ele>1146.0609999999999</ele>
        <time>2021-07-21T23:23:19Z</time>
      </trkpt>
      <trkpt lat="41.916690012440085" lon="-2.49032998457551">
        <ele>1146.0070000000001</ele>
        <time>2021-07-21T23:23:27Z</time>
      </trkpt>
      <trkpt lat="41.916869971901178" lon="-2.491079997271299">
        <ele>1134.008</ele>
        <time>2021-07-21T23:26:55Z</time>
      </trkpt>
      <trkpt lat="41.916959993541241" lon="-2.491609985008836">
        <ele>1132.02</ele>
        <time>2021-07-21T23:27:04Z</time>
      </trkpt>
      <trkpt lat="41.917020007967949" lon="-2.492190012708306">
        <ele>1130.0309999999999</ele>
        <time>2021-07-21T23:27:10Z</time>
      </trkpt>
      <trkpt lat="41.918149972334504" lon="-2.517500007525086">
        <ele>1129.0609999999999</ele>
        <time>2021-07-21T23:27:17Z</time>
      </trkpt>
      <trkpt lat="41.918230019509792" lon="-2.518190005794168">
        <ele>1114.086</ele>
        <time>2021-07-21T23:28:45Z</time>
      </trkpt>
      <trkpt lat="41.918469993397593" lon="-2.519159959629178">
        <ele>1113.02</ele>
        <time>2021-07-21T23:28:53Z</time>
      </trkpt>
      <trkpt lat="41.918669985607266" lon="-2.519749961793423">
        <ele>1112.0519999999999</ele>
        <time>2021-07-21T23:29:00Z</time>
      </trkpt>
      <trkpt lat="41.918850028887391" lon="-2.520120022818446">
        <ele>1112.0440000000001</ele>
        <time>2021-07-21T23:29:08Z</time>
      </trkpt>
      <trkpt lat="41.919129984453321" lon="-2.520650010555983">
        <ele>1113.0429999999999</ele>
        <time>2021-07-21T23:29:15Z</time>
      </trkpt>
      <trkpt lat="41.919480012729764" lon="-2.521170023828745">
        <ele>1114.0609999999999</ele>
        <time>2021-07-21T23:29:21Z</time>
      </trkpt>
      <trkpt lat="41.924749966710806" lon="-2.528300005942583">
        <ele>1116.021</ele>
        <time>2021-07-21T23:29:30Z</time>
      </trkpt>
      <trkpt lat="41.925069987773895" lon="-2.528910040855408">
        <ele>1122.0129999999999</ele>
        <time>2021-07-21T23:30:39Z</time>
      </trkpt>
      <trkpt lat="41.92568002268672" lon="-2.530279979109764">
        <ele>1125.008</ele>
        <time>2021-07-21T23:31:30Z</time>
      </trkpt>
      <trkpt lat="41.925759986042976" lon="-2.530560018494725">
        <ele>1125.0630000000001</ele>
        <time>2021-07-21T23:31:38Z</time>
      </trkpt>
      <trkpt lat="41.925840033218265" lon="-2.531159995123744">
        <ele>1124.0840000000001</ele>
        <time>2021-07-21T23:31:44Z</time>
      </trkpt>
      <trkpt lat="41.925889989361167" lon="-2.531259991228581">
        <ele>1120.0340000000001</ele>
        <time>2021-07-21T23:31:57Z</time>
      </trkpt>
      <trkpt lat="41.926430035382509" lon="-2.531789978966117">
        <ele>1118.049</ele>
        <time>2021-07-21T23:32:06Z</time>
      </trkpt>
      <trkpt lat="41.927360007539392" lon="-2.533280029892921">
        <ele>1105.0329999999999</ele>
        <time>2021-07-21T23:33:55Z</time>
      </trkpt>
      <trkpt lat="41.927769966423512" lon="-2.53433003090322">
        <ele>1100.0450000000001</ele>
        <time>2021-07-21T23:34:18Z</time>
      </trkpt>
      <trkpt lat="41.927880020812154" lon="-2.534830011427403">
        <ele>1103.087</ele>
        <time>2021-07-21T23:37:40Z</time>
      </trkpt>
      <trkpt lat="41.927880020812154" lon="-2.535929968580604">
        <ele>1102.046</ele>
        <time>2021-07-21T23:37:49Z</time>
      </trkpt>
      <trkpt lat="41.927729984745383" lon="-2.539399992674589">
        <ele>1102.0709999999999</ele>
        <time>2021-07-21T23:37:56Z</time>
      </trkpt>
      <trkpt lat="41.927729984745383" lon="-2.540040034800768">
        <ele>1105.0409999999999</ele>
        <time>2021-07-21T23:38:16Z</time>
      </trkpt>
      <trkpt lat="41.927769966423512" lon="-2.540649985894561">
        <ele>1107.0150000000001</ele>
        <time>2021-07-21T23:38:26Z</time>
      </trkpt>
      <trkpt lat="41.927869962528348" lon="-2.541360016912222">
        <ele>1110.008</ele>
        <time>2021-07-21T23:38:35Z</time>
      </trkpt>
      <trkpt lat="41.927989991381764" lon="-2.541880030184984">
        <ele>1112.0239999999999</ele>
        <time>2021-07-21T23:38:48Z</time>
      </trkpt>
      <trkpt lat="41.928140027448535" lon="-2.542389985173941">
        <ele>1113.0550000000001</ele>
        <time>2021-07-21T23:38:56Z</time>
      </trkpt>
      <trkpt lat="41.933290036395192" lon="-2.556499997153878">
        <ele>1114.085</ele>
        <time>2021-07-21T23:39:07Z</time>
      </trkpt>
      <trkpt lat="41.933539984747767" lon="-2.557099973782897">
        <ele>1118.0699999999999</ele>
        <time>2021-07-21T23:39:59Z</time>
      </trkpt>
      <trkpt lat="41.933779958635569" lon="-2.557470034807921">
        <ele>1117.0940000000001</ele>
        <time>2021-07-21T23:40:07Z</time>
      </trkpt>
      <trkpt lat="41.93403996527195" lon="-2.557800030335784">
        <ele>1116.086</ele>
        <time>2021-07-21T23:40:16Z</time>
      </trkpt>
      <trkpt lat="41.938009969890118" lon="-2.561750002205372">
        <ele>1119.088</ele>
        <time>2021-07-21T23:40:49Z</time>
      </trkpt>
      <trkpt lat="41.938350023701787" lon="-2.562200026586652">
        <ele>1119.027</ele>
        <time>2021-07-21T23:40:57Z</time>
      </trkpt>
      <trkpt lat="41.938580023124814" lon="-2.562609985470772">
        <ele>1121.056</ele>
        <time>2021-07-21T23:41:18Z</time>
      </trkpt>
      <trkpt lat="41.938780015334487" lon="-2.563139973208308">
        <ele>1122.059</ele>
        <time>2021-07-21T23:41:37Z</time>
      </trkpt>
      <trkpt lat="41.938889985904098" lon="-2.563640037551522">
        <ele>1123.0139999999999</ele>
        <time>2021-07-21T23:41:45Z</time>
      </trkpt>
      <trkpt lat="41.938970033079386" lon="-2.564080003648996">
        <ele>1123.008</ele>
        <time>2021-07-21T23:41:51Z</time>
      </trkpt>
      <trkpt lat="41.939019989222288" lon="-2.564760027453303">
        <ele>1128.0920000000001</ele>
        <time>2021-07-21T23:42:03Z</time>
      </trkpt>
      <trkpt lat="41.939330035820603" lon="-2.569959992542863">
        <ele>1129.0429999999999</ele>
        <time>2021-07-21T23:42:09Z</time>
      </trkpt>
      <trkpt lat="41.939530028030276" lon="-2.573830001056194">
        <ele>1127.0630000000001</ele>
        <time>2021-07-21T23:42:16Z</time>
      </trkpt>
      <trkpt lat="41.939530028030276" lon="-2.574440035969019">
        <ele>1127.098</ele>
        <time>2021-07-21T23:42:35Z</time>
      </trkpt>
      <trkpt lat="41.939449980854988" lon="-2.574870027601719">
        <ele>1129.0219999999999</ele>
        <time>2021-07-21T23:43:01Z</time>
      </trkpt>
      <trkpt lat="41.939119985327125" lon="-2.575720036402345">
        <ele>1129.0940000000001</ele>
        <time>2021-07-21T23:43:09Z</time>
      </trkpt>
      <trkpt lat="41.938970033079386" lon="-2.576369969174266">
        <ele>1130.076</ele>
        <time>2021-07-21T23:43:15Z</time>
      </trkpt>
      <trkpt lat="41.937349978834391" lon="-2.584309978410602">
        <ele>1135.0650000000001</ele>
        <time>2021-07-21T23:44:14Z</time>
      </trkpt>
      <trkpt lat="41.937030041590333" lon="-2.585989963263273">
        <ele>1135.0509999999999</ele>
        <time>2021-07-21T23:44:21Z</time>
      </trkpt>
      <trkpt lat="41.934069972485304" lon="-2.60074001736939">
        <ele>1136.001</ele>
        <time>2021-07-21T23:44:28Z</time>
      </trkpt>
      <trkpt lat="41.933920020237565" lon="-2.601379975676537">
        <ele>1136.011</ele>
        <time>2021-07-21T23:44:35Z</time>
      </trkpt>
      <trkpt lat="41.933730002492666" lon="-2.601839974522591">
        <ele>1136.008</ele>
        <time>2021-07-21T23:44:46Z</time>
      </trkpt>
      <trkpt lat="41.932989964261651" lon="-2.60304001159966">
        <ele>1144.0219999999999</ele>
        <time>2021-07-21T23:46:03Z</time>
      </trkpt>
      <trkpt lat="41.932759964838624" lon="-2.603669995442033">
        <ele>1145.0730000000001</ele>
        <time>2021-07-21T23:46:09Z</time>
      </trkpt>
      <trkpt lat="41.932589979842305" lon="-2.60435001924634">
        <ele>1145.0530000000001</ele>
        <time>2021-07-21T23:46:14Z</time>
      </trkpt>
      <trkpt lat="41.932629961520433" lon="-2.605309998616576">
        <ele>1146.048</ele>
        <time>2021-07-21T23:46:23Z</time>
      </trkpt>
      <trkpt lat="41.932740015909076" lon="-2.605900000780821">
        <ele>1151.0820000000001</ele>
        <time>2021-07-21T23:46:36Z</time>
      </trkpt>
      <trkpt lat="41.933009997010231" lon="-2.606669962406158">
        <ele>1152.0440000000001</ele>
        <time>2021-07-21T23:46:47Z</time>
      </trkpt>
      <trkpt lat="41.934329979121685" lon="-2.61013001203537">
        <ele>1155.086</ele>
        <time>2021-07-21T23:47:51Z</time>
      </trkpt>
      <trkpt lat="41.93461999297142" lon="-2.610680032521486">
        <ele>1157.0250000000001</ele>
        <time>2021-07-21T23:48:17Z</time>
      </trkpt>
      <trkpt lat="41.93491998128593" lon="-2.611150005832315">
        <ele>1155.0540000000001</ele>
        <time>2021-07-21T23:48:28Z</time>
      </trkpt>
      <trkpt lat="41.936220014467835" lon="-2.612920012325048">
        <ele>1159.056</ele>
        <time>2021-07-21T23:48:37Z</time>
      </trkpt>
      <trkpt lat="41.936499970033765" lon="-2.613389985635877">
        <ele>1160.011</ele>
        <time>2021-07-21T23:48:46Z</time>
      </trkpt>
      <trkpt lat="41.937189968302846" lon="-2.614730000495911">
        <ele>1161.008</ele>
        <time>2021-07-21T23:49:16Z</time>
      </trkpt>
      <trkpt lat="41.937930006533861" lon="-2.615780001506209">
        <ele>1161.0319999999999</ele>
        <time>2021-07-21T23:49:23Z</time>
      </trkpt>
      <trkpt lat="41.938190013170242" lon="-2.616249974817038">
        <ele>1162.0630000000001</ele>
        <time>2021-07-21T23:49:28Z</time>
      </trkpt>
      <trkpt lat="41.938350023701787" lon="-2.616679966449738">
        <ele>1163.0229999999999</ele>
        <time>2021-07-21T23:49:34Z</time>
      </trkpt>
      <trkpt lat="41.93855001591146" lon="-2.617489993572235">
        <ele>1164.018</ele>
        <time>2021-07-21T23:49:39Z</time>
      </trkpt>
      <trkpt lat="41.938699968159199" lon="-2.617959966883063">
        <ele>1166.0519999999999</ele>
        <time>2021-07-21T23:49:45Z</time>
      </trkpt>
      <trkpt lat="41.938889985904098" lon="-2.618370009586215">
        <ele>1166.0139999999999</ele>
        <time>2021-07-21T23:49:51Z</time>
      </trkpt>
      <trkpt lat="41.939530028030276" lon="-2.61949997395277">
        <ele>1168.086</ele>
        <time>2021-07-21T23:49:58Z</time>
      </trkpt>
      <trkpt lat="41.94026998244226" lon="-2.62126000598073">
        <ele>1177.095</ele>
        <time>2021-07-21T23:50:20Z</time>
      </trkpt>
      <trkpt lat="41.940429992973804" lon="-2.621750012040138">
        <ele>1179.086</ele>
        <time>2021-07-21T23:50:24Z</time>
      </trkpt>
      <trkpt lat="41.940520014613867" lon="-2.622219985350967">
        <ele>1180.0599999999999</ele>
        <time>2021-07-21T23:50:30Z</time>
      </trkpt>
      <trkpt lat="41.941189980134368" lon="-2.626559967175126">
        <ele>1179.0260000000001</ele>
        <time>2021-07-21T23:50:34Z</time>
      </trkpt>
      <trkpt lat="41.94125996902585" lon="-2.627130020409823">
        <ele>1179.008</ele>
        <time>2021-07-21T23:50:37Z</time>
      </trkpt>
      <trkpt lat="41.941270027309656" lon="-2.627639975398779">
        <ele>1178.0550000000001</ele>
        <time>2021-07-21T23:50:43Z</time>
      </trkpt>
      <trkpt lat="41.941219987347722" lon="-2.628159988671541">
        <ele>1182.096</ele>
        <time>2021-07-21T23:51:05Z</time>
      </trkpt>
      <trkpt lat="41.941070035099983" lon="-2.628970015794039">
        <ele>1183.0260000000001</ele>
        <time>2021-07-21T23:51:13Z</time>
      </trkpt>
      <trkpt lat="41.939690038561821" lon="-2.634480027481914">
        <ele>1186.011</ele>
        <time>2021-07-21T23:51:25Z</time>
      </trkpt>
      <trkpt lat="41.93954000249505" lon="-2.634910019114614">
        <ele>1190.085</ele>
        <time>2021-07-21T23:51:34Z</time>
      </trkpt>
      <trkpt lat="41.93938996642828" lon="-2.635189974680543">
        <ele>1192.047</ele>
        <time>2021-07-21T23:51:42Z</time>
      </trkpt>
      <trkpt lat="41.939059970900416" lon="-2.635709987953305">
        <ele>1194.059</ele>
        <time>2021-07-21T23:51:56Z</time>
      </trkpt>
      <trkpt lat="41.938559990376234" lon="-2.636409960687161">
        <ele>1199.068</ele>
        <time>2021-07-21T23:52:21Z</time>
      </trkpt>
      <trkpt lat="41.938199987635016" lon="-2.637099958956242">
        <ele>1200.0219999999999</ele>
        <time>2021-07-21T23:52:28Z</time>
      </trkpt>
      <trkpt lat="41.936559984460473" lon="-2.641410017386079">
        <ele>1204.0619999999999</ele>
        <time>2021-07-21T23:52:38Z</time>
      </trkpt>
      <trkpt lat="41.936050029471517" lon="-2.643240038305521">
        <ele>1212.008</ele>
        <time>2021-07-21T23:53:08Z</time>
      </trkpt>
      <trkpt lat="41.935850037261844" lon="-2.644079988822341">
        <ele>1216.008</ele>
        <time>2021-07-21T23:53:19Z</time>
      </trkpt>
      <trkpt lat="41.935769990086555" lon="-2.64469999819994">
        <ele>1214.0989999999999</ele>
        <time>2021-07-21T23:53:32Z</time>
      </trkpt>
      <trkpt lat="41.935739982873201" lon="-2.645369963720441">
        <ele>1214.05</ele>
        <time>2021-07-21T23:53:38Z</time>
      </trkpt>
      <trkpt lat="41.935850037261844" lon="-2.647689990699291">
        <ele>1215.0699999999999</ele>
        <time>2021-07-21T23:53:44Z</time>
      </trkpt>
      <trkpt lat="41.935830004513264" lon="-2.648170022293925">
        <ele>1216.0350000000001</ele>
        <time>2021-07-21T23:53:48Z</time>
      </trkpt>
      <trkpt lat="41.935769990086555" lon="-2.648579981178045">
        <ele>1217.079</ele>
        <time>2021-07-21T23:53:51Z</time>
      </trkpt>
      <trkpt lat="41.935660019516945" lon="-2.649009972810745">
        <ele>1219.0809999999999</ele>
        <time>2021-07-21T23:53:55Z</time>
      </trkpt>
      <trkpt lat="41.935539990663528" lon="-2.649350026622415">
        <ele>1220.0429999999999</ele>
        <time>2021-07-21T23:53:59Z</time>
      </trkpt>
      <trkpt lat="41.935339998453856" lon="-2.649720003828406">
        <ele>1221.0419999999999</ele>
        <time>2021-07-21T23:54:03Z</time>
      </trkpt>
      <trkpt lat="41.935119973495603" lon="-2.65004999935627">
        <ele>1223.0450000000001</ele>
        <time>2021-07-21T23:54:08Z</time>
      </trkpt>
      <trkpt lat="41.934840017929673" lon="-2.650349987670779">
        <ele>1225.047</ele>
        <time>2021-07-21T23:54:13Z</time>
      </trkpt>
      <trkpt lat="41.933769984170794" lon="-2.651299992576242">
        <ele>1227.011</ele>
        <time>2021-07-21T23:54:19Z</time>
      </trkpt>
      <trkpt lat="41.933599999174476" lon="-2.651499984785914">
        <ele>1229.008</ele>
        <time>2021-07-21T23:54:25Z</time>
      </trkpt>
      <trkpt lat="41.933400006964803" lon="-2.651850013062358">
        <ele>1231.0509999999999</ele>
        <time>2021-07-21T23:54:45Z</time>
      </trkpt>
      <trkpt lat="41.93333001807332" lon="-2.652099961414933">
        <ele>1235.0920000000001</ele>
        <time>2021-07-21T23:55:06Z</time>
      </trkpt>
      <trkpt lat="41.933270003646612" lon="-2.652359968051314">
        <ele>1235.0419999999999</ele>
        <time>2021-07-21T23:55:13Z</time>
      </trkpt>
      <trkpt lat="41.933239996433258" lon="-2.65280001796782">
        <ele>1233.087</ele>
        <time>2021-07-21T23:55:19Z</time>
      </trkpt>
      <trkpt lat="41.93320001475513" lon="-2.654429962858558">
        <ele>1230.0709999999999</ele>
        <time>2021-07-21T23:55:26Z</time>
      </trkpt>
      <trkpt lat="41.933140000328422" lon="-2.655009990558028">
        <ele>1227.0630000000001</ele>
        <time>2021-07-21T23:55:30Z</time>
      </trkpt>
      <trkpt lat="41.932949982583523" lon="-2.655880032107234">
        <ele>1222.0450000000001</ele>
        <time>2021-07-21T23:55:40Z</time>
      </trkpt>
      <trkpt lat="41.932849986478686" lon="-2.656540023162961">
        <ele>1217.0440000000001</ele>
        <time>2021-07-21T23:55:55Z</time>
      </trkpt>
      <trkpt lat="41.93285996094346" lon="-2.65716003254056">
        <ele>1213.0450000000001</ele>
        <time>2021-07-21T23:56:03Z</time>
      </trkpt>
      <trkpt lat="41.932970015332103" lon="-2.658220008015633">
        <ele>1191.047</ele>
        <time>2021-07-21T23:57:02Z</time>
      </trkpt>
      <trkpt lat="41.932970015332103" lon="-2.660090010613203">
        <ele>1187.011</ele>
        <time>2021-07-21T23:57:08Z</time>
      </trkpt>
      <trkpt lat="41.932940008118749" lon="-2.660610023885965">
        <ele>1185.008</ele>
        <time>2021-07-21T23:57:15Z</time>
      </trkpt>
      <trkpt lat="41.93274999037385" lon="-2.661330029368401">
        <ele>1183.021</ele>
        <time>2021-07-21T23:57:20Z</time>
      </trkpt>
      <trkpt lat="41.931920014321804" lon="-2.663310002535582">
        <ele>1181.0719999999999</ele>
        <time>2021-07-21T23:57:28Z</time>
      </trkpt>
      <trkpt lat="41.931739971041679" lon="-2.664090022444725">
        <ele>1179.0719999999999</ele>
        <time>2021-07-21T23:57:33Z</time>
      </trkpt>
      <trkpt lat="41.931579960510135" lon="-2.66511001624167">
        <ele>1177.027</ele>
        <time>2021-07-21T23:57:39Z</time>
      </trkpt>
      <trkpt lat="41.931490022689104" lon="-2.665500026196241">
        <ele>1169.011</ele>
        <time>2021-07-21T23:57:53Z</time>
      </trkpt>
      <trkpt lat="41.931320037692785" lon="-2.665919959545136">
        <ele>1166.0530000000001</ele>
        <time>2021-07-21T23:57:58Z</time>
      </trkpt>
      <trkpt lat="41.931190034374595" lon="-2.66612003557384">
        <ele>1164.0650000000001</ele>
        <time>2021-07-21T23:58:03Z</time>
      </trkpt>
      <trkpt lat="41.93103002384305" lon="-2.666309969499707">
        <ele>1162.0740000000001</ele>
        <time>2021-07-21T23:58:07Z</time>
      </trkpt>
      <trkpt lat="41.930860038846731" lon="-2.666460005566478">
        <ele>1160.059</ele>
        <time>2021-07-21T23:58:12Z</time>
      </trkpt>
      <trkpt lat="41.930670021101832" lon="-2.666580034419894">
        <ele>1157.0029999999999</ele>
        <time>2021-07-21T23:58:17Z</time>
      </trkpt>
      <trkpt lat="41.930449996143579" lon="-2.666669972240925">
        <ele>1153.0229999999999</ele>
        <time>2021-07-21T23:58:36Z</time>
      </trkpt>
      <trkpt lat="41.93017004057765" lon="-2.666729986667633">
        <ele>1152.008</ele>
        <time>2021-07-21T23:58:41Z</time>
      </trkpt>
      <trkpt lat="41.929880026727915" lon="-2.666699979454279">
        <ele>1148.0820000000001</ele>
        <time>2021-07-21T23:58:49Z</time>
      </trkpt>
      <trkpt lat="41.929560005664825" lon="-2.666560001671314">
        <ele>1145.0530000000001</ele>
        <time>2021-07-21T23:58:57Z</time>
      </trkpt>
      <trkpt lat="41.92924995906651" lon="-2.666320027783513">
        <ele>1141.0229999999999</ele>
        <time>2021-07-21T23:59:02Z</time>
      </trkpt>
      <trkpt lat="41.928400034084916" lon="-2.665430037304759">
        <ele>1137.098</ele>
        <time>2021-07-21T23:59:09Z</time>
      </trkpt>
      <trkpt lat="41.927450029179454" lon="-2.664420017972589">
        <ele>1129.0619999999999</ele>
        <time>2021-07-21T23:59:26Z</time>
      </trkpt>
      <trkpt lat="41.927169989794493" lon="-2.664039982482791">
        <ele>1128.0740000000001</ele>
        <time>2021-07-21T23:59:31Z</time>
      </trkpt>
      <trkpt lat="41.926979972049594" lon="-2.663660030812025">
        <ele>1126.0360000000001</ele>
        <time>2021-07-21T23:59:35Z</time>
      </trkpt>
      <trkpt lat="41.926830019801855" lon="-2.663219980895519">
        <ele>1125.0650000000001</ele>
        <time>2021-07-21T23:59:40Z</time>
      </trkpt>
      <trkpt lat="41.926760030910373" lon="-2.662889985367656">
        <ele>1123.086</ele>
        <time>2021-07-21T23:59:46Z</time>
      </trkpt>
      <trkpt lat="41.926700016483665" lon="-2.662180038169026">
        <ele>1110.0599999999999</ele>
        <time>2021-07-22T00:00:15Z</time>
      </trkpt>
      <trkpt lat="41.926730023697019" lon="-2.660989975556731">
        <ele>1108.0260000000001</ele>
        <time>2021-07-22T00:00:25Z</time>
      </trkpt>
      <trkpt lat="41.926689958199859" lon="-2.660399973392487">
        <ele>1097.008</ele>
        <time>2021-07-22T00:00:54Z</time>
      </trkpt>
      <trkpt lat="41.925970036536455" lon="-2.656069966033101">
        <ele>1088.0150000000001</ele>
        <time>2021-07-22T00:01:22Z</time>
      </trkpt>
      <trkpt lat="41.925820000469685" lon="-2.655639974400401">
        <ele>1082.066</ele>
        <time>2021-07-22T00:01:36Z</time>
      </trkpt>
      <trkpt lat="41.925610033795238" lon="-2.655239989981055">
        <ele>1075.076</ele>
        <time>2021-07-22T00:01:51Z</time>
      </trkpt>
      <trkpt lat="41.925429990515113" lon="-2.6549700088799">
        <ele>1068.0409999999999</ele>
        <time>2021-07-22T00:02:13Z</time>
      </trkpt>
      <trkpt lat="41.925060013309121" lon="-2.654610006138682">
        <ele>1065.0650000000001</ele>
        <time>2021-07-22T00:02:45Z</time>
      </trkpt>
      <trkpt lat="41.924790032207966" lon="-2.654419988393784">
        <ele>1065.087</ele>
        <time>2021-07-22T00:02:52Z</time>
      </trkpt>
      <trkpt lat="41.924479985609651" lon="-2.654280010610819">
        <ele>1065.049</ele>
        <time>2021-07-22T00:02:53Z</time>
      </trkpt>
      <trkpt lat="41.923719998449087" lon="-2.65406996011734">
        <ele>1065.048</ele>
        <time>2021-07-22T00:02:54Z</time>
      </trkpt>
      <trkpt lat="41.923459991812706" lon="-2.653940040618181">
        <ele>1063.0889999999999</ele>
        <time>2021-07-22T00:03:00Z</time>
      </trkpt>
      <trkpt lat="41.923209959641099" lon="-2.653769971802831">
        <ele>1063.0060000000001</ele>
        <time>2021-07-22T00:03:01Z</time>
      </trkpt>
      <trkpt lat="41.922999992966652" lon="-2.653560005128384">
        <ele>1062.0260000000001</ele>
        <time>2021-07-22T00:03:11Z</time>
      </trkpt>
      <trkpt lat="41.922830007970333" lon="-2.653320031240583">
        <ele>1062.008</ele>
        <time>2021-07-22T00:03:19Z</time>
      </trkpt>
      <trkpt lat="41.922649964690208" lon="-2.652979977428913">
        <ele>1057.0250000000001</ele>
        <time>2021-07-22T00:03:31Z</time>
      </trkpt>
      <trkpt lat="41.9221599586308" lon="-2.651739958673716">
        <ele>1052.086</ele>
        <time>2021-07-22T00:03:45Z</time>
      </trkpt>
      <trkpt lat="41.921979999169707" lon="-2.651420021429658">
        <ele>1051.066</ele>
        <time>2021-07-22T00:03:51Z</time>
      </trkpt>
      <trkpt lat="41.921650003641844" lon="-2.651030011475086">
        <ele>1044.0409999999999</ele>
        <time>2021-07-22T00:05:12Z</time>
      </trkpt>
      <trkpt lat="41.921269968152046" lon="-2.650760030373931">
        <ele>1044.0250000000001</ele>
        <time>2021-07-22T00:05:21Z</time>
      </trkpt>
      <trkpt lat="41.920980038121343" lon="-2.650660034269095">
        <ele>1044.047</ele>
        <time>2021-07-22T00:05:41Z</time>
      </trkpt>
      <trkpt lat="41.920560020953417" lon="-2.650600019842386">
        <ele>1043.029</ele>
        <time>2021-07-22T00:05:48Z</time>
      </trkpt>
      <trkpt lat="41.919619990512729" lon="-2.650549979880452">
        <ele>1043.048</ele>
        <time>2021-07-22T00:06:25Z</time>
      </trkpt>
      <trkpt lat="41.919369958341122" lon="-2.650489965453744">
        <ele>1043.075</ele>
        <time>2021-07-22T00:06:34Z</time>
      </trkpt>
      <trkpt lat="41.919120009988546" lon="-2.650389969348908">
        <ele>1041.028</ele>
        <time>2021-07-22T00:07:14Z</time>
      </trkpt>
      <trkpt lat="41.918899985030293" lon="-2.650270024314523">
        <ele>1041.02</ele>
        <time>2021-07-22T00:07:24Z</time>
      </trkpt>
      <trkpt lat="41.918609971180558" lon="-2.650040024891496">
        <ele>1043.008</ele>
        <time>2021-07-22T00:08:44Z</time>
      </trkpt>
      <trkpt lat="41.917240032926202" lon="-2.648749966174364">
        <ele>1042.0540000000001</ele>
        <time>2021-07-22T00:09:04Z</time>
      </trkpt>
      <trkpt lat="41.916760001331568" lon="-2.648419970646501">
        <ele>1061.095</ele>
        <time>2021-07-22T00:14:21Z</time>
      </trkpt>
      <trkpt lat="41.915189987048507" lon="-2.647889982908964">
        <ele>1063.095</ele>
        <time>2021-07-22T00:14:28Z</time>
      </trkpt>
      <trkpt lat="41.913740001618862" lon="-2.647099988535047">
        <ele>1065.01</ele>
        <time>2021-07-22T00:14:34Z</time>
      </trkpt>
      <trkpt lat="41.91294003278017" lon="-2.646800000220537">
        <ele>1067.0239999999999</ele>
        <time>2021-07-22T00:14:39Z</time>
      </trkpt>
      <trkpt lat="41.912120031192899" lon="-2.646630015224218">
        <ele>1069.0260000000001</ele>
        <time>2021-07-22T00:14:44Z</time>
      </trkpt>
      <trkpt lat="41.910880012437701" lon="-2.646490037441254">
        <ele>1070.098</ele>
        <time>2021-07-22T00:14:51Z</time>
      </trkpt>
      <trkpt lat="41.909230034798384" lon="-2.64558001421392">
        <ele>1072.067</ele>
        <time>2021-07-22T00:15:13Z</time>
      </trkpt>
      <trkpt lat="41.908870032057166" lon="-2.645410029217601">
        <ele>1072.0119999999999</ele>
        <time>2021-07-22T00:15:23Z</time>
      </trkpt>
      <trkpt lat="41.908789984881878" lon="-2.645399970933795">
        <ele>1072.0319999999999</ele>
        <time>2021-07-22T00:15:33Z</time>
      </trkpt>
      <trkpt lat="41.90877003595233" lon="-2.645420003682375">
        <ele>1070.0050000000001</ele>
        <time>2021-07-22T00:17:23Z</time>
      </trkpt>
      <trkpt lat="41.908680014312267" lon="-2.645849995315075">
        <ele>1072.008</ele>
        <time>2021-07-22T00:17:33Z</time>
      </trkpt>
      <trkpt lat="41.908599967136979" lon="-2.645910009741783">
        <ele>1068.048</ele>
        <time>2021-07-22T00:17:50Z</time>
      </trkpt>
      <trkpt lat="41.908050030469894" lon="-2.645789980888367">
        <ele>1067.049</ele>
        <time>2021-07-22T00:17:56Z</time>
      </trkpt>
      <trkpt lat="41.907630013301969" lon="-2.645670035853982">
        <ele>1068.079</ele>
        <time>2021-07-22T00:18:01Z</time>
      </trkpt>
      <trkpt lat="41.907209996134043" lon="-2.646370008587837">
        <ele>1070.0540000000001</ele>
        <time>2021-07-22T00:18:10Z</time>
      </trkpt>
      <trkpt lat="41.906629968434572" lon="-2.647150028496981">
        <ele>1072.048</ele>
        <time>2021-07-22T00:18:16Z</time>
      </trkpt>
      <trkpt lat="41.906389994546771" lon="-2.647420009598136">
        <ele>1074.0699999999999</ele>
        <time>2021-07-22T00:18:23Z</time>
      </trkpt>
      <trkpt lat="41.902659963816404" lon="-2.650969997048378">
        <ele>1082.0419999999999</ele>
        <time>2021-07-22T00:18:45Z</time>
      </trkpt>
      <trkpt lat="41.902280012145638" lon="-2.651450028643012">
        <ele>1084.0809999999999</ele>
        <time>2021-07-22T00:18:50Z</time>
      </trkpt>
      <trkpt lat="41.901569981127977" lon="-2.652540011331439">
        <ele>1085.0840000000001</ele>
        <time>2021-07-22T00:18:54Z</time>
      </trkpt>
      <trkpt lat="41.901239985600114" lon="-2.652919963002205">
        <ele>1086.0070000000001</ele>
        <time>2021-07-22T00:18:59Z</time>
      </trkpt>
      <trkpt lat="41.899569975212216" lon="-2.654589973390102">
        <ele>1092.0170000000001</ele>
        <time>2021-07-22T00:19:23Z</time>
      </trkpt>
      <trkpt lat="41.899220030754805" lon="-2.655039997771382">
        <ele>1094.008</ele>
        <time>2021-07-22T00:19:28Z</time>
      </trkpt>
      <trkpt lat="41.897820001468062" lon="-2.657430013641715">
        <ele>1095.075</ele>
        <time>2021-07-22T00:19:33Z</time>
      </trkpt>
      <trkpt lat="41.897599976509809" lon="-2.65812998637557">
        <ele>1095.076</ele>
        <time>2021-07-22T00:19:38Z</time>
      </trkpt>
      <trkpt lat="41.896340008825064" lon="-2.663900004699826">
        <ele>1095.0260000000001</ele>
        <time>2021-07-22T00:19:43Z</time>
      </trkpt>
      <trkpt lat="41.895949998870492" lon="-2.665330041199923">
        <ele>1096.021</ele>
        <time>2021-07-22T00:19:48Z</time>
      </trkpt>
      <trkpt lat="41.887659961357713" lon="-2.686499962583184">
        <ele>1099.0650000000001</ele>
        <time>2021-07-22T00:20:13Z</time>
      </trkpt>
      <trkpt lat="41.887510009109974" lon="-2.687019975855947">
        <ele>1105.087</ele>
        <time>2021-07-22T00:21:05Z</time>
      </trkpt>
      <trkpt lat="41.887429961934686" lon="-2.687419960275292">
        <ele>1107.079</ele>
        <time>2021-07-22T00:21:13Z</time>
      </trkpt>
      <trkpt lat="41.887400038540363" lon="-2.687809970229864">
        <ele>1108.098</ele>
        <time>2021-07-22T00:21:25Z</time>
      </trkpt>
      <trkpt lat="41.887410013005137" lon="-2.688199980184436">
        <ele>1106.057</ele>
        <time>2021-07-22T00:21:40Z</time>
      </trkpt>
      <trkpt lat="41.88745996914804" lon="-2.688689986243844">
        <ele>1103</ele>
        <time>2021-07-22T00:21:55Z</time>
      </trkpt>
      <trkpt lat="41.887730034068227" lon="-2.690350022166967">
        <ele>1102.02</ele>
        <time>2021-07-22T00:22:00Z</time>
      </trkpt>
      <trkpt lat="41.887789964675903" lon="-2.691070027649403">
        <ele>1101.008</ele>
        <time>2021-07-22T00:22:05Z</time>
      </trkpt>
      <trkpt lat="41.887789964675903" lon="-2.691800007596612">
        <ele>1100.0820000000001</ele>
        <time>2021-07-22T00:22:11Z</time>
      </trkpt>
      <trkpt lat="41.886720014736056" lon="-2.699979990720749">
        <ele>1099.0429999999999</ele>
        <time>2021-07-22T00:22:22Z</time>
      </trkpt>
      <trkpt lat="41.88672998920083" lon="-2.700779959559441">
        <ele>1093.0329999999999</ele>
        <time>2021-07-22T00:22:49Z</time>
      </trkpt>
      <trkpt lat="41.886829985305667" lon="-2.702030036598444">
        <ele>1092.048</ele>
        <time>2021-07-22T00:23:09Z</time>
      </trkpt>
      <trkpt lat="41.886820010840893" lon="-2.702479977160692">
        <ele>1090.0119999999999</ele>
        <time>2021-07-22T00:23:16Z</time>
      </trkpt>
      <trkpt lat="41.886759996414185" lon="-2.70286001265049">
        <ele>1090.0740000000001</ele>
        <time>2021-07-22T00:23:31Z</time>
      </trkpt>
      <trkpt lat="41.886580036953092" lon="-2.703489996492863">
        <ele>1090.0360000000001</ele>
        <time>2021-07-22T00:23:35Z</time>
      </trkpt>
      <trkpt lat="41.886409968137741" lon="-2.703859973698854">
        <ele>1092.0350000000001</ele>
        <time>2021-07-22T00:23:49Z</time>
      </trkpt>
      <trkpt lat="41.886130012571812" lon="-2.704219976440072">
        <ele>1092.0820000000001</ele>
        <time>2021-07-22T00:23:53Z</time>
      </trkpt>
      <trkpt lat="41.885119993239641" lon="-2.705250028520823">
        <ele>1091.0429999999999</ele>
        <time>2021-07-22T00:23:56Z</time>
      </trkpt>
      <trkpt lat="41.884899968281388" lon="-2.705420013517141">
        <ele>1092.0170000000001</ele>
        <time>2021-07-22T00:24:00Z</time>
      </trkpt>
      <trkpt lat="41.884669968858361" lon="-2.705559991300106">
        <ele>1090.008</ele>
        <time>2021-07-22T00:24:18Z</time>
      </trkpt>
      <trkpt lat="41.88440996222198" lon="-2.705650012940168">
        <ele>1090.085</ele>
        <time>2021-07-22T00:24:24Z</time>
      </trkpt>
      <trkpt lat="41.883049998432398" lon="-2.70588998682797">
        <ele>1091.0360000000001</ele>
        <time>2021-07-22T00:24:29Z</time>
      </trkpt>
      <trkpt lat="41.882789991796017" lon="-2.70601999014616">
        <ele>1091.0160000000001</ele>
        <time>2021-07-22T00:24:36Z</time>
      </trkpt>
      <trkpt lat="41.88253995962441" lon="-2.706210007891059">
        <ele>1091.0609999999999</ele>
        <time>2021-07-22T00:24:43Z</time>
      </trkpt>
      <trkpt lat="41.882320018485188" lon="-2.706430032849312">
        <ele>1092.0450000000001</ele>
        <time>2021-07-22T00:24:51Z</time>
      </trkpt>
      <trkpt lat="41.88215003348887" lon="-2.706670006737113">
        <ele>1093.097</ele>
        <time>2021-07-22T00:25:03Z</time>
      </trkpt>
      <trkpt lat="41.881960015743971" lon="-2.707020035013557">
        <ele>1092.039</ele>
        <time>2021-07-22T00:25:14Z</time>
      </trkpt>
      <trkpt lat="41.881470009684563" lon="-2.708749976009131">
        <ele>1090.018</ele>
        <time>2021-07-22T00:25:26Z</time>
      </trkpt>
      <trkpt lat="41.880559986457229" lon="-2.712459973990917">
        <ele>1089.057</ele>
        <time>2021-07-22T00:25:29Z</time>
      </trkpt>
      <trkpt lat="41.880450015887618" lon="-2.713079983368516">
        <ele>1089</ele>
        <time>2021-07-22T00:25:33Z</time>
      </trkpt>
      <trkpt lat="41.880459990352392" lon="-2.713999981060624">
        <ele>1089.02</ele>
        <time>2021-07-22T00:25:49Z</time>
      </trkpt>
      <trkpt lat="41.880529979243875" lon="-2.715100022032857">
        <ele>1088.008</ele>
        <time>2021-07-22T00:25:56Z</time>
      </trkpt>
      <trkpt lat="41.880529979243875" lon="-2.716250019147992">
        <ele>1088.0119999999999</ele>
        <time>2021-07-22T00:25:59Z</time>
      </trkpt>
      <trkpt lat="41.880569960922003" lon="-2.716629970818758">
        <ele>1089.0329999999999</ele>
        <time>2021-07-22T00:26:15Z</time>
      </trkpt>
      <trkpt lat="41.880659982562065" lon="-2.716979999095202">
        <ele>1089.0229999999999</ele>
        <time>2021-07-22T00:26:26Z</time>
      </trkpt>
      <trkpt lat="41.880810018628836" lon="-2.717360034584999">
        <ele>1090.068</ele>
        <time>2021-07-22T00:26:34Z</time>
      </trkpt>
      <trkpt lat="41.881179995834827" lon="-2.718060007318854">
        <ele>1091.0219999999999</ele>
        <time>2021-07-22T00:26:40Z</time>
      </trkpt>
      <trkpt lat="41.88215003348887" lon="-2.71963999606669">
        <ele>1091.0540000000001</ele>
        <time>2021-07-22T00:26:47Z</time>
      </trkpt>
      <trkpt lat="41.883049998432398" lon="-2.720520012080669">
        <ele>1091.0260000000001</ele>
        <time>2021-07-22T00:26:51Z</time>
      </trkpt>
      <trkpt lat="41.883359961211681" lon="-2.720859982073307">
        <ele>1091.0150000000001</ele>
        <time>2021-07-22T00:26:58Z</time>
      </trkpt>
      <trkpt lat="41.883939988911152" lon="-2.721630027517676">
        <ele>1090.0619999999999</ele>
        <time>2021-07-22T00:27:04Z</time>
      </trkpt>
      <trkpt lat="41.884150039404631" lon="-2.721809986978769">
        <ele>1089.0830000000001</ele>
        <time>2021-07-22T00:27:07Z</time>
      </trkpt>
      <trkpt lat="41.884899968281388" lon="-2.722199996933341">
        <ele>1090.011</ele>
        <time>2021-07-22T00:27:38Z</time>
      </trkpt>
      <trkpt lat="41.885059978812933" lon="-2.72236998192966">
        <ele>1090.008</ele>
        <time>2021-07-22T00:27:49Z</time>
      </trkpt>
      <trkpt lat="41.885159974917769" lon="-2.722559999674559">
        <ele>1090.0630000000001</ele>
        <time>2021-07-22T00:27:53Z</time>
      </trkpt>
      <trkpt lat="41.885229963809252" lon="-2.72284003905952">
        <ele>1091.0640000000001</ele>
        <time>2021-07-22T00:28:04Z</time>
      </trkpt>
      <trkpt lat="41.885379999876022" lon="-2.724139988422394">
        <ele>1091.0139999999999</ele>
        <time>2021-07-22T00:28:45Z</time>
      </trkpt>
      <trkpt lat="41.885479995980859" lon="-2.724620020017028">
        <ele>1093.029</ele>
        <time>2021-07-22T00:28:58Z</time>
      </trkpt>
      <trkpt lat="41.885589966550469" lon="-2.724959990009666">
        <ele>1095.0830000000001</ele>
        <time>2021-07-22T00:29:22Z</time>
      </trkpt>
      <trkpt lat="41.885789958760142" lon="-2.725380007177591">
        <ele>1095.0650000000001</ele>
        <time>2021-07-22T00:29:35Z</time>
      </trkpt>
      <trkpt lat="41.886079972609878" lon="-2.725819973275065">
        <ele>1095.097</ele>
        <time>2021-07-22T00:29:39Z</time>
      </trkpt>
      <trkpt lat="41.886420026421547" lon="-2.726179976016283">
        <ele>1095.0360000000001</ele>
        <time>2021-07-22T00:29:43Z</time>
      </trkpt>
      <trkpt lat="41.886980021372437" lon="-2.726650033146143">
        <ele>1097.0129999999999</ele>
        <time>2021-07-22T00:29:51Z</time>
      </trkpt>
      <trkpt lat="41.887579998001456" lon="-2.726990003138781">
        <ele>1098.0429999999999</ele>
        <time>2021-07-22T00:30:13Z</time>
      </trkpt>
      <trkpt lat="41.888179974630475" lon="-2.727250009775162">
        <ele>1095.0070000000001</ele>
        <time>2021-07-22T00:30:21Z</time>
      </trkpt>
      <trkpt lat="41.8883600179106" lon="-2.727380013093352">
        <ele>1093.008</ele>
        <time>2021-07-22T00:30:29Z</time>
      </trkpt>
      <trkpt lat="41.888520028442144" lon="-2.727580005303025">
        <ele>1089.028</ele>
        <time>2021-07-22T00:32:28Z</time>
      </trkpt>
      <trkpt lat="41.889040041714907" lon="-2.72857996635139">
        <ele>1087.059</ele>
        <time>2021-07-22T00:32:48Z</time>
      </trkpt>
      <trkpt lat="41.889319997280836" lon="-2.728920020163059">
        <ele>1089.0889999999999</ele>
        <time>2021-07-22T00:33:05Z</time>
      </trkpt>
      <trkpt lat="41.889470033347607" lon="-2.729020016267896">
        <ele>1090.0540000000001</ele>
        <time>2021-07-22T00:33:14Z</time>
      </trkpt>
      <trkpt lat="41.890290034934878" lon="-2.729399967938662">
        <ele>1090.048</ele>
        <time>2021-07-22T00:33:22Z</time>
      </trkpt>
      <trkpt lat="41.890920018777251" lon="-2.72961001843214">
        <ele>1091.0799999999999</ele>
        <time>2021-07-22T00:33:31Z</time>
      </trkpt>
      <trkpt lat="41.891369959339499" lon="-2.729619992896915">
        <ele>1090.0219999999999</ele>
        <time>2021-07-22T00:33:44Z</time>
      </trkpt>
      <trkpt lat="41.891700038686395" lon="-2.729559978470206">
        <ele>1089.0809999999999</ele>
        <time>2021-07-22T00:33:49Z</time>
      </trkpt>
      <trkpt lat="41.892109997570515" lon="-2.729550004005432">
        <ele>1090.049</ele>
        <time>2021-07-22T00:34:05Z</time>
      </trkpt>
      <trkpt lat="41.892309989780188" lon="-2.72958998568356">
        <ele>1091.002</ele>
        <time>2021-07-22T00:34:19Z</time>
      </trkpt>
      <trkpt lat="41.892690025269985" lon="-2.729810010641813">
        <ele>1092.0219999999999</ele>
        <time>2021-07-22T00:34:24Z</time>
      </trkpt>
      <trkpt lat="41.892950031906366" lon="-2.730070017278194">
        <ele>1093.008</ele>
        <time>2021-07-22T00:35:09Z</time>
      </trkpt>
      <trkpt lat="41.893050028011203" lon="-2.730209995061159">
        <ele>1092.0809999999999</ele>
        <time>2021-07-22T00:35:16Z</time>
      </trkpt>
      <trkpt lat="41.894049989059567" lon="-2.732119979336858">
        <ele>1092.0719999999999</ele>
        <time>2021-07-22T00:35:20Z</time>
      </trkpt>
      <trkpt lat="41.894530020654202" lon="-2.732749963179231">
        <ele>1092.0319999999999</ele>
        <time>2021-07-22T00:35:24Z</time>
      </trkpt>
      <trkpt lat="41.894690031185746" lon="-2.732890024781227">
        <ele>1092.067</ele>
        <time>2021-07-22T00:35:28Z</time>
      </trkpt>
      <trkpt lat="41.895239967852831" lon="-2.733260001987219">
        <ele>1093.0809999999999</ele>
        <time>2021-07-22T00:35:34Z</time>
      </trkpt>
      <trkpt lat="41.897439965978265" lon="-2.734240014106035">
        <ele>1092.0229999999999</ele>
        <time>2021-07-22T00:36:09Z</time>
      </trkpt>
      <trkpt lat="41.898080008104444" lon="-2.734739994630218">
        <ele>1092.0150000000001</ele>
        <time>2021-07-22T00:36:23Z</time>
      </trkpt>
      <trkpt lat="41.899150041863322" lon="-2.73584003560245">
        <ele>1092.0540000000001</ele>
        <time>2021-07-22T00:36:28Z</time>
      </trkpt>
      <trkpt lat="41.899780025705695" lon="-2.736349990591407">
        <ele>1095.0150000000001</ele>
        <time>2021-07-22T00:37:11Z</time>
      </trkpt>
      <trkpt lat="41.899929977953434" lon="-2.736500026658177">
        <ele>1099.0650000000001</ele>
        <time>2021-07-22T00:37:18Z</time>
      </trkpt>
      <trkpt lat="41.900110021233559" lon="-2.736749975010753">
        <ele>1101.011</ele>
        <time>2021-07-22T00:37:22Z</time>
      </trkpt>
      <trkpt lat="41.900380002334714" lon="-2.737230006605387">
        <ele>1104.008</ele>
        <time>2021-07-22T00:37:30Z</time>
      </trkpt>
      <trkpt lat="41.90090999007225" lon="-2.738700024783611">
        <ele>1108.068</ele>
        <time>2021-07-22T00:37:36Z</time>
      </trkpt>
      <trkpt lat="41.901149963960052" lon="-2.739209979772568">
        <ele>1111.069</ele>
        <time>2021-07-22T00:37:46Z</time>
      </trkpt>
      <trkpt lat="41.901439977809787" lon="-2.739699985831976">
        <ele>1115.0889999999999</ele>
        <time>2021-07-22T00:37:57Z</time>
      </trkpt>
      <trkpt lat="41.906420001760125" lon="-2.745720036327839">
        <ele>1115.0840000000001</ele>
        <time>2021-07-22T00:38:03Z</time>
      </trkpt>
      <trkpt lat="41.907240003347397" lon="-2.746740030124784">
        <ele>1114.098</ele>
        <time>2021-07-22T00:38:13Z</time>
      </trkpt>
      <trkpt lat="41.907969983294606" lon="-2.747539998963475">
        <ele>1112.0899999999999</ele>
        <time>2021-07-22T00:38:23Z</time>
      </trkpt>
      <trkpt lat="41.908369967713952" lon="-2.747920034453273">
        <ele>1105.0419999999999</ele>
        <time>2021-07-22T00:38:46Z</time>
      </trkpt>
      <trkpt lat="41.908710021525621" lon="-2.748299986124039">
        <ele>1102.0709999999999</ele>
        <time>2021-07-22T00:38:56Z</time>
      </trkpt>
      <trkpt lat="41.909010009840131" lon="-2.748910021036863">
        <ele>1101.0940000000001</ele>
        <time>2021-07-22T00:39:16Z</time>
      </trkpt>
      <trkpt lat="41.909240009263158" lon="-2.749809985980392">
        <ele>1101.057</ele>
        <time>2021-07-22T00:39:28Z</time>
      </trkpt>
      <trkpt lat="41.909379987046123" lon="-2.750190021470189">
        <ele>1105.0219999999999</ele>
        <time>2021-07-22T00:39:46Z</time>
      </trkpt>
      <trkpt lat="41.909920033067465" lon="-2.751110019162297">
        <ele>1111.008</ele>
        <time>2021-07-22T00:40:03Z</time>
      </trkpt>
      <trkpt lat="41.910439962521195" lon="-2.751879980787635">
        <ele>1112.096</ele>
        <time>2021-07-22T00:40:18Z</time>
      </trkpt>
      <trkpt lat="41.91059997305274" lon="-2.752209976315498">
        <ele>1109.057</ele>
        <time>2021-07-22T00:40:26Z</time>
      </trkpt>
      <trkpt lat="41.911819959059358" lon="-2.755180019885302">
        <ele>1106.067</ele>
        <time>2021-07-22T00:40:33Z</time>
      </trkpt>
      <trkpt lat="41.911949962377548" lon="-2.755700033158064">
        <ele>1104.0419999999999</ele>
        <time>2021-07-22T00:40:44Z</time>
      </trkpt>
      <trkpt lat="41.911969995126128" lon="-2.755970014259219">
        <ele>1102.0360000000001</ele>
        <time>2021-07-22T00:40:51Z</time>
      </trkpt>
      <trkpt lat="41.911960020661354" lon="-2.756290035322309">
        <ele>1100.038</ele>
        <time>2021-07-22T00:40:56Z</time>
      </trkpt>
      <trkpt lat="41.911920038983226" lon="-2.756569990888238">
        <ele>1098.01</ele>
        <time>2021-07-22T00:41:02Z</time>
      </trkpt>
      <trkpt lat="41.911790035665035" lon="-2.757029989734292">
        <ele>1092.069</ele>
        <time>2021-07-22T00:41:26Z</time>
      </trkpt>
      <trkpt lat="41.910899961367249" lon="-2.759329983964562">
        <ele>1088.0119999999999</ele>
        <time>2021-07-22T00:41:47Z</time>
      </trkpt>
      <trkpt lat="41.910559991374612" lon="-2.760300021618605">
        <ele>1096.0319999999999</ele>
        <time>2021-07-22T00:42:10Z</time>
      </trkpt>
      <trkpt lat="41.910420013591647" lon="-2.760639991611242">
        <ele>1101.0050000000001</ele>
        <time>2021-07-22T00:42:43Z</time>
      </trkpt>
      <trkpt lat="41.909049991518259" lon="-2.763369977474213">
        <ele>1100.008</ele>
        <time>2021-07-22T00:42:48Z</time>
      </trkpt>
      <trkpt lat="41.908799959346652" lon="-2.76372998021543">
        <ele>1098.088</ele>
        <time>2021-07-22T00:43:06Z</time>
      </trkpt>
      <trkpt lat="41.908599967136979" lon="-2.763899965211749">
        <ele>1104.039</ele>
        <time>2021-07-22T00:43:20Z</time>
      </trkpt>
      <trkpt lat="41.908269971609116" lon="-2.764240019023418">
        <ele>1109.029</ele>
        <time>2021-07-22T00:44:11Z</time>
      </trkpt>
      <trkpt lat="41.90799999050796" lon="-2.764560040086508">
        <ele>1111.0940000000001</ele>
        <time>2021-07-22T00:44:20Z</time>
      </trkpt>
      <trkpt lat="41.907560024410486" lon="-2.765009980648756">
        <ele>1110.018</ele>
        <time>2021-07-22T00:44:29Z</time>
      </trkpt>
      <trkpt lat="41.907019978389144" lon="-2.765499986708164">
        <ele>1108.02</ele>
        <time>2021-07-22T00:44:37Z</time>
      </trkpt>
      <trkpt lat="41.906740022823215" lon="-2.765629990026355">
        <ele>1106.0719999999999</ele>
        <time>2021-07-22T00:45:07Z</time>
      </trkpt>
      <trkpt lat="41.906190002337098" lon="-2.765739960595965">
        <ele>1107.0409999999999</ele>
        <time>2021-07-22T00:45:17Z</time>
      </trkpt>
      <trkpt lat="41.905630007386208" lon="-2.765820007771254">
        <ele>1104.0160000000001</ele>
        <time>2021-07-22T00:45:33Z</time>
      </trkpt>
      <trkpt lat="41.904289992526174" lon="-2.765889996662736">
        <ele>1105.076</ele>
        <time>2021-07-22T00:45:40Z</time>
      </trkpt>
      <trkpt lat="41.903750030323863" lon="-2.766040032729507">
        <ele>1102.0129999999999</ele>
        <time>2021-07-22T00:45:49Z</time>
      </trkpt>
      <trkpt lat="41.902700029313564" lon="-2.766559962183237">
        <ele>1099.008</ele>
        <time>2021-07-22T00:45:55Z</time>
      </trkpt>
      <trkpt lat="41.902129976078868" lon="-2.766939997673035">
        <ele>1104.028</ele>
        <time>2021-07-22T00:46:07Z</time>
      </trkpt>
      <trkpt lat="41.90133998170495" lon="-2.767890002578497">
        <ele>1105.0989999999999</ele>
        <time>2021-07-22T00:46:15Z</time>
      </trkpt>
      <trkpt lat="41.900700023397803" lon="-2.768770018592477">
        <ele>1105.069</ele>
        <time>2021-07-22T00:46:20Z</time>
      </trkpt>
      <trkpt lat="41.900059981271625" lon="-2.76955003850162">
        <ele>1105.0440000000001</ele>
        <time>2021-07-22T00:46:29Z</time>
      </trkpt>
      <trkpt lat="41.899669971317053" lon="-2.769839968532324">
        <ele>1106.068</ele>
        <time>2021-07-22T00:46:40Z</time>
      </trkpt>
      <trkpt lat="41.899290019646287" lon="-2.770020011812449">
        <ele>1108.0699999999999</ele>
        <time>2021-07-22T00:47:11Z</time>
      </trkpt>
      <trkpt lat="41.898700017482042" lon="-2.770229978486896">
        <ele>1107.0920000000001</ele>
        <time>2021-07-22T00:47:15Z</time>
      </trkpt>
      <trkpt lat="41.898310007527471" lon="-2.770419996231794">
        <ele>1105.011</ele>
        <time>2021-07-22T00:47:29Z</time>
      </trkpt>
      <trkpt lat="41.898070033639669" lon="-2.770600039511919">
        <ele>1104.0840000000001</ele>
        <time>2021-07-22T00:47:44Z</time>
      </trkpt>
      <trkpt lat="41.897820001468062" lon="-2.77084001339972">
        <ele>1103.0070000000001</ele>
        <time>2021-07-22T00:47:55Z</time>
      </trkpt>
      <trkpt lat="41.896809982135892" lon="-2.772090006619692">
        <ele>1103.0170000000001</ele>
        <time>2021-07-22T00:48:04Z</time>
      </trkpt>
      <trkpt lat="41.896049994975328" lon="-2.773330025374889">
        <ele>1102.008</ele>
        <time>2021-07-22T00:48:10Z</time>
      </trkpt>
      <trkpt lat="41.895339963957667" lon="-2.774699963629246">
        <ele>1101.085</ele>
        <time>2021-07-22T00:48:18Z</time>
      </trkpt>
      <trkpt lat="41.894430024549365" lon="-2.776950001716614">
        <ele>1100.0260000000001</ele>
        <time>2021-07-22T00:48:30Z</time>
      </trkpt>
      <trkpt lat="41.894279988482594" lon="-2.777230041101575">
        <ele>1100.086</ele>
        <time>2021-07-22T00:48:41Z</time>
      </trkpt>
      <trkpt lat="41.893540034070611" lon="-2.778139980509877">
        <ele>1102.0409999999999</ele>
        <time>2021-07-22T00:48:46Z</time>
      </trkpt>
      <trkpt lat="41.892999988049269" lon="-2.778889993205667">
        <ele>1104.0250000000001</ele>
        <time>2021-07-22T00:48:55Z</time>
      </trkpt>
      <trkpt lat="41.891080029308796" lon="-2.781730033457279">
        <ele>1106.097</ele>
        <time>2021-07-22T00:49:17Z</time>
      </trkpt>
      <trkpt lat="41.890679961070418" lon="-2.782230013981462">
        <ele>1106.029</ele>
        <time>2021-07-22T00:49:23Z</time>
      </trkpt>
      <trkpt lat="41.890349965542555" lon="-2.78269998729229">
        <ele>1107.038</ele>
        <time>2021-07-22T00:49:38Z</time>
      </trkpt>
      <trkpt lat="41.890109991654754" lon="-2.783229975029826">
        <ele>1108.058</ele>
        <time>2021-07-22T00:49:42Z</time>
      </trkpt>
      <trkpt lat="41.889280015602708" lon="-2.785240039229393">
        <ele>1106.0519999999999</ele>
        <time>2021-07-22T00:50:21Z</time>
      </trkpt>
      <trkpt lat="41.888990001752973" lon="-2.78587999753654">
        <ele>1109.0170000000001</ele>
        <time>2021-07-22T00:50:53Z</time>
      </trkpt>
      <trkpt lat="41.888509970158339" lon="-2.786830002442002">
        <ele>1111.008</ele>
        <time>2021-07-22T00:51:12Z</time>
      </trkpt>
      <trkpt lat="41.888239989057183" lon="-2.787269968539476">
        <ele>1110.0619999999999</ele>
        <time>2021-07-22T00:51:18Z</time>
      </trkpt>
      <trkpt lat="41.887849979102612" lon="-2.787729967385531">
        <ele>1110.0830000000001</ele>
        <time>2021-07-22T00:51:26Z</time>
      </trkpt>
      <trkpt lat="41.887619979679585" lon="-2.787959966808558">
        <ele>1108.0830000000001</ele>
        <time>2021-07-22T00:51:30Z</time>
      </trkpt>
      <trkpt lat="41.887559965252876" lon="-2.788890022784472">
        <ele>1107.048</ele>
        <time>2021-07-22T00:51:46Z</time>
      </trkpt>
      <trkpt lat="41.887570023536682" lon="-2.789540039375424">
        <ele>1107.0619999999999</ele>
        <time>2021-07-22T00:51:50Z</time>
      </trkpt>
      <trkpt lat="41.88761000521481" lon="-2.789880009368062">
        <ele>1107.0740000000001</ele>
        <time>2021-07-22T00:51:54Z</time>
      </trkpt>
      <trkpt lat="41.887760041281581" lon="-2.790560033172369">
        <ele>1108.066</ele>
        <time>2021-07-22T00:51:59Z</time>
      </trkpt>
      <trkpt lat="41.887990040704608" lon="-2.791260005906224">
        <ele>1109.0150000000001</ele>
        <time>2021-07-22T00:52:10Z</time>
      </trkpt>
      <trkpt lat="41.88889998011291" lon="-2.793330000713468">
        <ele>1114.0519999999999</ele>
        <time>2021-07-22T00:52:24Z</time>
      </trkpt>
      <trkpt lat="41.888980027288198" lon="-2.793610040098429">
        <ele>1122.0530000000001</ele>
        <time>2021-07-22T00:53:03Z</time>
      </trkpt>
      <trkpt lat="41.889110030606389" lon="-2.794610001146793">
        <ele>1115.008</ele>
        <time>2021-07-22T00:53:16Z</time>
      </trkpt>
      <trkpt lat="41.889289990067482" lon="-2.7957200165838">
        <ele>1114.008</ele>
        <time>2021-07-22T00:53:38Z</time>
      </trkpt>
      <trkpt lat="41.889450000599027" lon="-2.796510010957718">
        <ele>1114.0419999999999</ele>
        <time>2021-07-22T00:53:46Z</time>
      </trkpt>
      <trkpt lat="41.889619985595345" lon="-2.797200009226799">
        <ele>1114.0930000000001</ele>
        <time>2021-07-22T00:54:19Z</time>
      </trkpt>
      <trkpt lat="41.889689974486828" lon="-2.797609968110919">
        <ele>1112.0129999999999</ele>
        <time>2021-07-22T00:54:24Z</time>
      </trkpt>
      <trkpt lat="41.88975996337831" lon="-2.798199970275164">
        <ele>1115.018</ele>
        <time>2021-07-22T00:54:32Z</time>
      </trkpt>
      <trkpt lat="41.889810003340244" lon="-2.799109993502498">
        <ele>1117.0419999999999</ele>
        <time>2021-07-22T00:54:36Z</time>
      </trkpt>
      <trkpt lat="41.890030028298497" lon="-2.799890013411641">
        <ele>1120.0940000000001</ele>
        <time>2021-07-22T00:54:51Z</time>
      </trkpt>
      <trkpt lat="41.890170006081462" lon="-2.800220008939505">
        <ele>1121.096</ele>
        <time>2021-07-22T00:54:54Z</time>
      </trkpt>
      <trkpt lat="41.890469994395971" lon="-2.800749996677041">
        <ele>1124.0650000000001</ele>
        <time>2021-07-22T00:55:03Z</time>
      </trkpt>
      <trkpt lat="41.89109000377357" lon="-2.802190007641912">
        <ele>1127.0889999999999</ele>
        <time>2021-07-22T00:55:12Z</time>
      </trkpt>
      <trkpt lat="41.891299970448017" lon="-2.802550010383129">
        <ele>1131.0060000000001</ele>
        <time>2021-07-22T00:55:19Z</time>
      </trkpt>
      <trkpt lat="41.891910005360842" lon="-2.803389960899949">
        <ele>1143.0260000000001</ele>
        <time>2021-07-22T00:55:48Z</time>
      </trkpt>
      <trkpt lat="41.892040008679032" lon="-2.803609985858202">
        <ele>1144.008</ele>
        <time>2021-07-22T00:55:54Z</time>
      </trkpt>
      <trkpt lat="41.893120016902685" lon="-2.806150037795305">
        <ele>1145.0650000000001</ele>
        <time>2021-07-22T00:56:13Z</time>
      </trkpt>
      <trkpt lat="41.894089970737696" lon="-2.808179967105389">
        <ele>1145.076</ele>
        <time>2021-07-22T00:56:20Z</time>
      </trkpt>
      <trkpt lat="41.894800001755357" lon="-2.809250000864267">
        <ele>1146.076</ele>
        <time>2021-07-22T00:56:24Z</time>
      </trkpt>
      <trkpt lat="41.894990019500256" lon="-2.809679992496967">
        <ele>1147.0709999999999</ele>
        <time>2021-07-22T00:56:27Z</time>
      </trkpt>
      <trkpt lat="41.895120022818446" lon="-2.810239987447858">
        <ele>1157.075</ele>
        <time>2021-07-22T00:56:47Z</time>
      </trkpt>
      <trkpt lat="41.895139971747994" lon="-2.810509968549013">
        <ele>1160.0170000000001</ele>
        <time>2021-07-22T00:56:53Z</time>
      </trkpt>
      <trkpt lat="41.895120022818446" lon="-2.811730038374662">
        <ele>1157.0889999999999</ele>
        <time>2021-07-22T00:57:10Z</time>
      </trkpt>
      <trkpt lat="41.8951500300318" lon="-2.812040001153946">
        <ele>1158.028</ele>
        <time>2021-07-22T00:57:28Z</time>
      </trkpt>
      <trkpt lat="41.895209960639477" lon="-2.812320040538907">
        <ele>1160.049</ele>
        <time>2021-07-22T00:57:34Z</time>
      </trkpt>
      <trkpt lat="41.895339963957667" lon="-2.812639977782965">
        <ele>1163.002</ele>
        <time>2021-07-22T00:57:39Z</time>
      </trkpt>
      <trkpt lat="41.895699966698885" lon="-2.8133599832654">
        <ele>1170.0219999999999</ele>
        <time>2021-07-22T00:57:52Z</time>
      </trkpt>
      <trkpt lat="41.896210005506873" lon="-2.814179984852672">
        <ele>1170.008</ele>
        <time>2021-07-22T00:57:56Z</time>
      </trkpt>
      <trkpt lat="41.897199992090464" lon="-2.816760018467903">
        <ele>1169.0909999999999</ele>
        <time>2021-07-22T00:58:00Z</time>
      </trkpt>
      <trkpt lat="41.897469973191619" lon="-2.817710023373365">
        <ele>1168.0820000000001</ele>
        <time>2021-07-22T00:58:04Z</time>
      </trkpt>
      <trkpt lat="41.897789994254708" lon="-2.819260004907847">
        <ele>1166.0920000000001</ele>
        <time>2021-07-22T00:58:17Z</time>
      </trkpt>
      <trkpt lat="41.898010019212961" lon="-2.819789992645383">
        <ele>1166.057</ele>
        <time>2021-07-22T00:58:25Z</time>
      </trkpt>
      <trkpt lat="41.899020038545132" lon="-2.821940034627914">
        <ele>1164.0609999999999</ele>
        <time>2021-07-22T00:58:46Z</time>
      </trkpt>
      <trkpt lat="41.899160016328096" lon="-2.82218998298049">
        <ele>1162.0530000000001</ele>
        <time>2021-07-22T00:58:55Z</time>
      </trkpt>
      <trkpt lat="41.89949001185596" lon="-2.822610000148416">
        <ele>1161.0650000000001</ele>
        <time>2021-07-22T00:59:01Z</time>
      </trkpt>
      <trkpt lat="41.899690004065633" lon="-2.822779985144734">
        <ele>1162.0640000000001</ele>
        <time>2021-07-22T00:59:06Z</time>
      </trkpt>
      <trkpt lat="41.900440016761422" lon="-2.823309972882271">
        <ele>1158.0440000000001</ele>
        <time>2021-07-22T00:59:20Z</time>
      </trkpt>
      <trkpt lat="41.900589969009161" lon="-2.823490016162396">
        <ele>1153.0050000000001</ele>
        <time>2021-07-22T00:59:33Z</time>
      </trkpt>
      <trkpt lat="41.900879982858896" lon="-2.824020003899932">
        <ele>1149.0150000000001</ele>
        <time>2021-07-22T00:59:45Z</time>
      </trkpt>
      <trkpt lat="41.901120040565729" lon="-2.824579998850822">
        <ele>1149.008</ele>
        <time>2021-07-22T00:59:54Z</time>
      </trkpt>
      <trkpt lat="41.901430003345013" lon="-2.824979983270168">
        <ele>1153.0809999999999</ele>
        <time>2021-07-22T01:00:03Z</time>
      </trkpt>
      <trkpt lat="41.902689971029758" lon="-2.826280016452074">
        <ele>1152.0920000000001</ele>
        <time>2021-07-22T01:00:21Z</time>
      </trkpt>
      <trkpt lat="41.902940003201365" lon="-2.82665996812284">
        <ele>1149.0820000000001</ele>
        <time>2021-07-22T01:00:36Z</time>
      </trkpt>
      <trkpt lat="41.903520030900836" lon="-2.827850030735135">
        <ele>1147.057</ele>
        <time>2021-07-22T01:00:45Z</time>
      </trkpt>
      <trkpt lat="41.903750030323863" lon="-2.828269964084029">
        <ele>1148.021</ele>
        <time>2021-07-22T01:00:52Z</time>
      </trkpt>
      <trkpt lat="41.903899982571602" lon="-2.828450007364154">
        <ele>1161.0630000000001</ele>
        <time>2021-07-22T01:01:33Z</time>
      </trkpt>
      <trkpt lat="41.904059993103147" lon="-2.828599959611893">
        <ele>1163.075</ele>
        <time>2021-07-22T01:01:39Z</time>
      </trkpt>
      <trkpt lat="41.905109994113445" lon="-2.829070016741753">
        <ele>1165.0440000000001</ele>
        <time>2021-07-22T01:01:48Z</time>
      </trkpt>
      <trkpt lat="41.905360026285052" lon="-2.829330023378134">
        <ele>1162.0630000000001</ele>
        <time>2021-07-22T01:02:07Z</time>
      </trkpt>
      <trkpt lat="41.905880039557815" lon="-2.830459987744689">
        <ele>1162.0440000000001</ele>
        <time>2021-07-22T01:02:14Z</time>
      </trkpt>
      <trkpt lat="41.906540030613542" lon="-2.831519963219762">
        <ele>1162.018</ele>
        <time>2021-07-22T01:02:20Z</time>
      </trkpt>
      <trkpt lat="41.906789978966117" lon="-2.831790028139949">
        <ele>1168.008</ele>
        <time>2021-07-22T01:02:45Z</time>
      </trkpt>
      <trkpt lat="41.907070018351078" lon="-2.83187996596098">
        <ele>1168.0530000000001</ele>
        <time>2021-07-22T01:02:52Z</time>
      </trkpt>
      <trkpt lat="41.907799998298287" lon="-2.831999994814396">
        <ele>1170.0340000000001</ele>
        <time>2021-07-22T01:03:15Z</time>
      </trkpt>
      <trkpt lat="41.90799999050796" lon="-2.832139972597361">
        <ele>1168.0440000000001</ele>
        <time>2021-07-22T01:03:32Z</time>
      </trkpt>
      <trkpt lat="41.908180033788085" lon="-2.832310041412711">
        <ele>1170.049</ele>
        <time>2021-07-22T01:03:37Z</time>
      </trkpt>
      <trkpt lat="41.90829997882247" lon="-2.832540040835738">
        <ele>1173.0930000000001</ele>
        <time>2021-07-22T01:03:41Z</time>
      </trkpt>
      <trkpt lat="41.908589992672205" lon="-2.833419973030686">
        <ele>1175.0650000000001</ele>
        <time>2021-07-22T01:03:46Z</time>
      </trkpt>
      <trkpt lat="41.908919988200068" lon="-2.833909979090095">
        <ele>1179.097</ele>
        <time>2021-07-22T01:04:01Z</time>
      </trkpt>
      <trkpt lat="41.909800004214048" lon="-2.834869958460331">
        <ele>1179.096</ele>
        <time>2021-07-22T01:04:06Z</time>
      </trkpt>
      <trkpt lat="41.910250028595328" lon="-2.835280001163483">
        <ele>1176.037</ele>
        <time>2021-07-22T01:04:16Z</time>
      </trkpt>
      <trkpt lat="41.910510035231709" lon="-2.835459960624576">
        <ele>1176.049</ele>
        <time>2021-07-22T01:04:33Z</time>
      </trkpt>
      <trkpt lat="41.910810023546219" lon="-2.835589963942766">
        <ele>1174.0129999999999</ele>
        <time>2021-07-22T01:04:37Z</time>
      </trkpt>
      <trkpt lat="41.9115000218153" lon="-2.836060021072626">
        <ele>1171.008</ele>
        <time>2021-07-22T01:04:44Z</time>
      </trkpt>
      <trkpt lat="41.912109972909093" lon="-2.836620016023517">
        <ele>1174.03</ele>
        <time>2021-07-22T01:04:53Z</time>
      </trkpt>
      <trkpt lat="41.912599978968501" lon="-2.83722996711731">
        <ele>1169.0709999999999</ele>
        <time>2021-07-22T01:05:07Z</time>
      </trkpt>
      <trkpt lat="41.912910025566816" lon="-2.837770013138652">
        <ele>1170.0409999999999</ele>
        <time>2021-07-22T01:05:11Z</time>
      </trkpt>
      <trkpt lat="41.913189981132746" lon="-2.838320033624768">
        <ele>1175.076</ele>
        <time>2021-07-22T01:05:37Z</time>
      </trkpt>
      <trkpt lat="41.913660038262606" lon="-2.839559968560934">
        <ele>1172.02</ele>
        <time>2021-07-22T01:05:48Z</time>
      </trkpt>
      <trkpt lat="41.914020041003823" lon="-2.840609969571233">
        <ele>1174.0519999999999</ele>
        <time>2021-07-22T01:05:53Z</time>
      </trkpt>
      <trkpt lat="41.91425004042685" lon="-2.841129982843995">
        <ele>1175.0940000000001</ele>
        <time>2021-07-22T01:06:07Z</time>
      </trkpt>
      <trkpt lat="41.9145099632442" lon="-2.841610014438629">
        <ele>1174.0830000000001</ele>
        <time>2021-07-22T01:06:15Z</time>
      </trkpt>
      <trkpt lat="41.916009988635778" lon="-2.843949990347028">
        <ele>1176.0730000000001</ele>
        <time>2021-07-22T01:06:42Z</time>
      </trkpt>
      <trkpt lat="41.916190031915903" lon="-2.844309993088245">
        <ele>1171.085</ele>
        <time>2021-07-22T01:07:14Z</time>
      </trkpt>
      <trkpt lat="41.916409973055124" lon="-2.844950035214424">
        <ele>1170.0129999999999</ele>
        <time>2021-07-22T01:07:19Z</time>
      </trkpt>
      <trkpt lat="41.916650030761957" lon="-2.846340006217361">
        <ele>1171.008</ele>
        <time>2021-07-22T01:07:29Z</time>
      </trkpt>
      <trkpt lat="41.916799983009696" lon="-2.846779972314835">
        <ele>1174.0440000000001</ele>
        <time>2021-07-22T01:07:49Z</time>
      </trkpt>
      <trkpt lat="41.916969968006015" lon="-2.847180040553212">
        <ele>1176.0350000000001</ele>
        <time>2021-07-22T01:07:56Z</time>
      </trkpt>
      <trkpt lat="41.917979987338185" lon="-2.848549978807569">
        <ele>1178.0650000000001</ele>
        <time>2021-07-22T01:08:02Z</time>
      </trkpt>
      <trkpt lat="41.918200012296438" lon="-2.84893998876214">
        <ele>1179.0799999999999</ele>
        <time>2021-07-22T01:08:11Z</time>
      </trkpt>
      <trkpt lat="41.918850028887391" lon="-2.850489970296621">
        <ele>1179.0940000000001</ele>
        <time>2021-07-22T01:08:16Z</time>
      </trkpt>
      <trkpt lat="41.919329976662993" lon="-2.851529996842146">
        <ele>1177.0160000000001</ele>
        <time>2021-07-22T01:08:34Z</time>
      </trkpt>
      <trkpt lat="41.91947003826499" lon="-2.851889999583364">
        <ele>1176.028</ele>
        <time>2021-07-22T01:08:38Z</time>
      </trkpt>
      <trkpt lat="41.919550001621246" lon="-2.852219995111227">
        <ele>1174.057</ele>
        <time>2021-07-22T01:08:42Z</time>
      </trkpt>
      <trkpt lat="41.919589983299375" lon="-2.852589972317219">
        <ele>1172.066</ele>
        <time>2021-07-22T01:08:49Z</time>
      </trkpt>
      <trkpt lat="41.91955997608602" lon="-2.853680038824678">
        <ele>1172.029</ele>
        <time>2021-07-22T01:08:57Z</time>
      </trkpt>
      <trkpt lat="41.919570034369826" lon="-2.854050016030669">
        <ele>1167.021</ele>
        <time>2021-07-22T01:09:29Z</time>
      </trkpt>
      <trkpt lat="41.919719986617565" lon="-2.854800028726459">
        <ele>1168.008</ele>
        <time>2021-07-22T01:09:36Z</time>
      </trkpt>
      <trkpt lat="41.919819982722402" lon="-2.856110036373138">
        <ele>1168.0930000000001</ele>
        <time>2021-07-22T01:10:02Z</time>
      </trkpt>
      <trkpt lat="41.919870022684336" lon="-2.856380017474294">
        <ele>1167.0740000000001</ele>
        <time>2021-07-22T01:10:05Z</time>
      </trkpt>
      <trkpt lat="41.9200100004673" lon="-2.856830041855574">
        <ele>1165.0840000000001</ele>
        <time>2021-07-22T01:10:12Z</time>
      </trkpt>
      <trkpt lat="41.920300014317036" lon="-2.857439992949367">
        <ele>1168.039</ele>
        <time>2021-07-22T01:10:34Z</time>
      </trkpt>
      <trkpt lat="41.920750038698316" lon="-2.858250020071864">
        <ele>1169.0229999999999</ele>
        <time>2021-07-22T01:10:38Z</time>
      </trkpt>
      <trkpt lat="41.920929998159409" lon="-2.858469961211085">
        <ele>1171.0550000000001</ele>
        <time>2021-07-22T01:10:43Z</time>
      </trkpt>
      <trkpt lat="41.922130035236478" lon="-2.859570002183318">
        <ele>1172.037</ele>
        <time>2021-07-22T01:10:48Z</time>
      </trkpt>
      <trkpt lat="41.922579975798726" lon="-2.860120022669435">
        <ele>1173.0360000000001</ele>
        <time>2021-07-22T01:10:54Z</time>
      </trkpt>
      <trkpt lat="41.922739986330271" lon="-2.860439959913492">
        <ele>1174.0820000000001</ele>
        <time>2021-07-22T01:11:00Z</time>
      </trkpt>
      <trkpt lat="41.923129996284842" lon="-2.861389964818955">
        <ele>1175.0429999999999</ele>
        <time>2021-07-22T01:11:04Z</time>
      </trkpt>
      <trkpt lat="41.923259999603033" lon="-2.861990025267005">
        <ele>1177.0170000000001</ele>
        <time>2021-07-22T01:11:08Z</time>
      </trkpt>
      <trkpt lat="41.923450017347932" lon="-2.86397997289896">
        <ele>1180.008</ele>
        <time>2021-07-22T01:11:12Z</time>
      </trkpt>
      <trkpt lat="41.923610027879477" lon="-2.866399995982647">
        <ele>1181.0450000000001</ele>
        <time>2021-07-22T01:11:17Z</time>
      </trkpt>
      <trkpt lat="41.923710023984313" lon="-2.866759998723865">
        <ele>1180.0360000000001</ele>
        <time>2021-07-22T01:11:28Z</time>
      </trkpt>
      <trkpt lat="41.924029961228371" lon="-2.867340026423335">
        <ele>1179.046</ele>
        <time>2021-07-22T01:11:33Z</time>
      </trkpt>
      <trkpt lat="41.924849962815642" lon="-2.868390027433634">
        <ele>1187.021</ele>
        <time>2021-07-22T01:12:03Z</time>
      </trkpt>
      <trkpt lat="41.925109969452024" lon="-2.86879001185298">
        <ele>1187.0250000000001</ele>
        <time>2021-07-22T01:12:07Z</time>
      </trkpt>
      <trkpt lat="41.925290012732148" lon="-2.869180021807551">
        <ele>1188.057</ele>
        <time>2021-07-22T01:12:10Z</time>
      </trkpt>
      <trkpt lat="41.925480030477047" lon="-2.869840012863278">
        <ele>1190.039</ele>
        <time>2021-07-22T01:12:12Z</time>
      </trkpt>
      <trkpt lat="41.925539961084723" lon="-2.870200015604496">
        <ele>1191.038</ele>
        <time>2021-07-22T01:12:14Z</time>
      </trkpt>
      <trkpt lat="41.925650015473366" lon="-2.871550004929304">
        <ele>1193.0609999999999</ele>
        <time>2021-07-22T01:12:17Z</time>
      </trkpt>
      <trkpt lat="41.925699971616268" lon="-2.871849993243814">
        <ele>1195.021</ele>
        <time>2021-07-22T01:12:20Z</time>
      </trkpt>
      <trkpt lat="41.925769960507751" lon="-2.872109999880195">
        <ele>1196.0129999999999</ele>
        <time>2021-07-22T01:12:35Z</time>
      </trkpt>
      <trkpt lat="41.925959978252649" lon="-2.872569998726249">
        <ele>1196.008</ele>
        <time>2021-07-22T01:12:38Z</time>
      </trkpt>
      <trkpt lat="41.926289973780513" lon="-2.873020023107529">
        <ele>1196.0229999999999</ele>
        <time>2021-07-22T01:12:40Z</time>
      </trkpt>
      <trkpt lat="41.927629988640547" lon="-2.87454997189343">
        <ele>1196.0440000000001</ele>
        <time>2021-07-22T01:12:41Z</time>
      </trkpt>
      <trkpt lat="41.927920002490282" lon="-2.874930007383227">
        <ele>1197.0640000000001</ele>
        <time>2021-07-22T01:12:43Z</time>
      </trkpt>
      <trkpt lat="41.928909989073873" lon="-2.876400025561452">
        <ele>1200.029</ele>
        <time>2021-07-22T01:12:54Z</time>
      </trkpt>
      <trkpt lat="41.929030017927289" lon="-2.876609992235899">
        <ele>1203.0630000000001</ele>
        <time>2021-07-22T01:13:12Z</time>
      </trkpt>
      <trkpt lat="41.929120039567351" lon="-2.877069991081953">
        <ele>1204.0650000000001</ele>
        <time>2021-07-22T01:13:16Z</time>
      </trkpt>
      <trkpt lat="41.929130014032125" lon="-2.878779983147979">
        <ele>1204.067</ele>
        <time>2021-07-22T01:13:18Z</time>
      </trkpt>
      <trkpt lat="41.929190028458834" lon="-2.87903998978436">
        <ele>1206.056</ele>
        <time>2021-07-22T01:13:23Z</time>
      </trkpt>
      <trkpt lat="41.929360013455153" lon="-2.879339978098869">
        <ele>1206.056</ele>
        <time>2021-07-22T01:13:27Z</time>
      </trkpt>
      <trkpt lat="41.929539972916245" lon="-2.879620017483831">
        <ele>1203.059</ele>
        <time>2021-07-22T01:13:41Z</time>
      </trkpt>
      <trkpt lat="41.929820012301207" lon="-2.879889998584986">
        <ele>1201.0139999999999</ele>
        <time>2021-07-22T01:13:44Z</time>
      </trkpt>
      <trkpt lat="41.930120000615716" lon="-2.880129972472787">
        <ele>1201.008</ele>
        <time>2021-07-22T01:13:45Z</time>
      </trkpt>
      <trkpt lat="41.930299960076809" lon="-2.880229968577623">
        <ele>1200.0319999999999</ele>
        <time>2021-07-22T01:13:53Z</time>
      </trkpt>
      <trkpt lat="41.930519985035062" lon="-2.880259975790978">
        <ele>1200.0329999999999</ele>
        <time>2021-07-22T01:13:57Z</time>
      </trkpt>
      <trkpt lat="41.930759958922863" lon="-2.880199961364269">
        <ele>1200.0129999999999</ele>
        <time>2021-07-22T01:14:03Z</time>
      </trkpt>
      <trkpt lat="41.93103002384305" lon="-2.88007004186511">
        <ele>1198.018</ele>
        <time>2021-07-22T01:14:06Z</time>
      </trkpt>
      <trkpt lat="41.931630000472069" lon="-2.879869965836406">
        <ele>1196.0119999999999</ele>
        <time>2021-07-22T01:14:09Z</time>
      </trkpt>
      <trkpt lat="41.931929988786578" lon="-2.879859991371632">
        <ele>1188.0440000000001</ele>
        <time>2021-07-22T01:14:31Z</time>
      </trkpt>
      <trkpt lat="41.93360997363925" lon="-2.879969961941242">
        <ele>1188.0360000000001</ele>
        <time>2021-07-22T01:14:34Z</time>
      </trkpt>
      <trkpt lat="41.933829998597503" lon="-2.879989994689822">
        <ele>1186.0350000000001</ele>
        <time>2021-07-22T01:14:45Z</time>
      </trkpt>
      <trkpt lat="41.933969976380467" lon="-2.880080016329885">
        <ele>1185.076</ele>
        <time>2021-07-22T01:14:48Z</time>
      </trkpt>
      <trkpt lat="41.934050023555756" lon="-2.880199961364269">
        <ele>1183.0899999999999</ele>
        <time>2021-07-22T01:14:55Z</time>
      </trkpt>
      <trkpt lat="41.934099979698658" lon="-2.880359971895814">
        <ele>1184.019</ele>
        <time>2021-07-22T01:15:20Z</time>
      </trkpt>
      <trkpt lat="41.934110037982464" lon="-2.880540015175939">
        <ele>1186.008</ele>
        <time>2021-07-22T01:15:28Z</time>
      </trkpt>
      <trkpt lat="41.93405999802053" lon="-2.880730032920837">
        <ele>1188.0239999999999</ele>
        <time>2021-07-22T01:15:34Z</time>
      </trkpt>
      <trkpt lat="41.933500003069639" lon="-2.881599990651012">
        <ele>1193.085</ele>
        <time>2021-07-22T01:15:47Z</time>
      </trkpt>
      <trkpt lat="41.933400006964803" lon="-2.881829990074039">
        <ele>1193.075</ele>
        <time>2021-07-22T01:15:50Z</time>
      </trkpt>
      <trkpt lat="41.933379974216223" lon="-2.881920011714101">
        <ele>1194.0699999999999</ele>
        <time>2021-07-22T01:15:56Z</time>
      </trkpt>
      <trkpt lat="41.933390032500029" lon="-2.882059989497066">
        <ele>1195.0940000000001</ele>
        <time>2021-07-22T01:16:22Z</time>
      </trkpt>
      <trkpt lat="41.933439988642931" lon="-2.882159985601902">
        <ele>1188.046</ele>
        <time>2021-07-22T01:16:48Z</time>
      </trkpt>
      <trkpt lat="41.933909961953759" lon="-2.882719980552793">
        <ele>1187.018</ele>
        <time>2021-07-22T01:16:56Z</time>
      </trkpt>
      <trkpt lat="41.934629967436194" lon="-2.883660010993481">
        <ele>1188.057</ele>
        <time>2021-07-22T01:17:03Z</time>
      </trkpt>
      <trkpt lat="41.934819985181093" lon="-2.883860003203154">
        <ele>1202.0429999999999</ele>
        <time>2021-07-22T01:17:36Z</time>
      </trkpt>
      <trkpt lat="41.934910006821156" lon="-2.883890010416508">
        <ele>1203.0640000000001</ele>
        <time>2021-07-22T01:17:53Z</time>
      </trkpt>
      <trkpt lat="41.935219969600439" lon="-2.883899984881282">
        <ele>1198.01</ele>
        <time>2021-07-22T01:20:09Z</time>
      </trkpt>
      <trkpt lat="41.935360031202435" lon="-2.884120009839535">
        <ele>1200.008</ele>
        <time>2021-07-22T01:20:31Z</time>
      </trkpt>
      <trkpt lat="41.93579999729991" lon="-2.885010000318289">
        <ele>1206.0509999999999</ele>
        <time>2021-07-22T01:21:19Z</time>
      </trkpt>
      <trkpt lat="41.935899993404746" lon="-2.885100021958351">
        <ele>1193.0219999999999</ele>
        <time>2021-07-22T01:22:01Z</time>
      </trkpt>
      <trkpt lat="41.935999989509583" lon="-2.885140003636479">
        <ele>1193.0319999999999</ele>
        <time>2021-07-22T01:22:23Z</time>
      </trkpt>
      <trkpt lat="41.936429981142282" lon="-2.885119970887899">
        <ele>1199.057</ele>
        <time>2021-07-22T01:22:32Z</time>
      </trkpt>
      <trkpt lat="41.936640031635761" lon="-2.885079989209771">
        <ele>1203.0409999999999</ele>
        <time>2021-07-22T01:23:38Z</time>
      </trkpt>
      <trkpt lat="41.936970027163625" lon="-2.885060040280223">
        <ele>1202.0830000000001</ele>
        <time>2021-07-22T01:23:50Z</time>
      </trkpt>
      <trkpt lat="41.937119979411364" lon="-2.885130029171705">
        <ele>1202.085</ele>
        <time>2021-07-22T01:23:55Z</time>
      </trkpt>
      <trkpt lat="41.937289964407682" lon="-2.88529003970325">
        <ele>1199.0540000000001</ele>
        <time>2021-07-22T01:24:24Z</time>
      </trkpt>
      <trkpt lat="41.938169980421662" lon="-2.886420004069805">
        <ele>1194.0160000000001</ele>
        <time>2021-07-22T01:24:47Z</time>
      </trkpt>
      <trkpt lat="41.938309958204627" lon="-2.886529974639416">
        <ele>1194.076</ele>
        <time>2021-07-22T01:24:54Z</time>
      </trkpt>
      <trkpt lat="41.938880011439323" lon="-2.886840021237731">
        <ele>1193.0129999999999</ele>
        <time>2021-07-22T01:24:59Z</time>
      </trkpt>
      <trkpt lat="41.939029963687062" lon="-2.886949991807342">
        <ele>1192.008</ele>
        <time>2021-07-22T01:25:42Z</time>
      </trkpt>
      <trkpt lat="41.939319977536798" lon="-2.887309994548559">
        <ele>1192.058</ele>
        <time>2021-07-22T01:25:53Z</time>
      </trkpt>
      <trkpt lat="41.940060015767813" lon="-2.888889983296394">
        <ele>1192.019</ele>
        <time>2021-07-22T01:25:56Z</time>
      </trkpt>
      <trkpt lat="41.940250033512712" lon="-2.889440003782511">
        <ele>1192.079</ele>
        <time>2021-07-22T01:25:59Z</time>
      </trkpt>
      <trkpt lat="41.940329996868968" lon="-2.889939984306693">
        <ele>1189.0139999999999</ele>
        <time>2021-07-22T01:26:27Z</time>
      </trkpt>
      <trkpt lat="41.940380036830902" lon="-2.890910021960735">
        <ele>1188.088</ele>
        <time>2021-07-22T01:27:03Z</time>
      </trkpt>
      <trkpt lat="41.94042001850903" lon="-2.891149995848537">
        <ele>1188.03</ele>
        <time>2021-07-22T01:27:07Z</time>
      </trkpt>
      <trkpt lat="41.940539963543415" lon="-2.891560038551688">
        <ele>1186.0920000000001</ele>
        <time>2021-07-22T01:27:36Z</time>
      </trkpt>
      <trkpt lat="41.941319983452559" lon="-2.893180008977652">
        <ele>1186.021</ele>
        <time>2021-07-22T01:27:44Z</time>
      </trkpt>
      <trkpt lat="41.94200998172164" lon="-2.894929982721806">
        <ele>1186.0309999999999</ele>
        <time>2021-07-22T01:27:51Z</time>
      </trkpt>
      <trkpt lat="41.94216001778841" lon="-2.895459970459342">
        <ele>1186.0609999999999</ele>
        <time>2021-07-22T01:28:06Z</time>
      </trkpt>
      <trkpt lat="41.942299995571375" lon="-2.895979983732104">
        <ele>1208.0070000000001</ele>
        <time>2021-07-22T01:31:10Z</time>
      </trkpt>
      <trkpt lat="41.942750019952655" lon="-2.898369999602437">
        <ele>1209.008</ele>
        <time>2021-07-22T01:31:16Z</time>
      </trkpt>
      <trkpt lat="41.943059982731938" lon="-2.899610018357635">
        <ele>1208.02</ele>
        <time>2021-07-22T01:31:27Z</time>
      </trkpt>
      <trkpt lat="41.945730037987232" lon="-2.909279968589544">
        <ele>1207.0809999999999</ele>
        <time>2021-07-22T01:31:32Z</time>
      </trkpt>
      <trkpt lat="41.946339989081025" lon="-2.910689972341061">
        <ele>1206.0309999999999</ele>
        <time>2021-07-22T01:31:36Z</time>
      </trkpt>
      <trkpt lat="41.94781000725925" lon="-2.913769986480475">
        <ele>1203.076</ele>
        <time>2021-07-22T01:31:49Z</time>
      </trkpt>
      <trkpt lat="41.949020018801093" lon="-2.916450016200542">
        <ele>1196.0699999999999</ele>
        <time>2021-07-22T01:32:01Z</time>
      </trkpt>
      <trkpt lat="41.949729965999722" lon="-2.917800005525351">
        <ele>1194.0519999999999</ele>
        <time>2021-07-22T01:32:09Z</time>
      </trkpt>
      <trkpt lat="41.950000030919909" lon="-2.918420014902949">
        <ele>1192.0340000000001</ele>
        <time>2021-07-22T01:32:16Z</time>
      </trkpt>
      <trkpt lat="41.951559986919165" lon="-2.92291003279388">
        <ele>1188.0429999999999</ele>
        <time>2021-07-22T01:32:25Z</time>
      </trkpt>
      <trkpt lat="41.951819993555546" lon="-2.923770016059279">
        <ele>1184.0350000000001</ele>
        <time>2021-07-22T01:32:31Z</time>
      </trkpt>
      <trkpt lat="41.951910015195608" lon="-2.924160026013851">
        <ele>1173.086</ele>
        <time>2021-07-22T01:32:41Z</time>
      </trkpt>
      <trkpt lat="41.952230036258698" lon="-2.926239995285869">
        <ele>1173.0139999999999</ele>
        <time>2021-07-22T01:32:47Z</time>
      </trkpt>
      <trkpt lat="41.952470010146499" lon="-2.928010001778603">
        <ele>1174.008</ele>
        <time>2021-07-22T01:32:52Z</time>
      </trkpt>
      <trkpt lat="41.952570006251335" lon="-2.928460026159883">
        <ele>1165.0599999999999</ele>
        <time>2021-07-22T01:33:22Z</time>
      </trkpt>
      <trkpt lat="41.952700009569526" lon="-2.928790021687746">
        <ele>1161.011</ele>
        <time>2021-07-22T01:33:30Z</time>
      </trkpt>
      <trkpt lat="41.95401999168098" lon="-2.931559989228845">
        <ele>1158.021</ele>
        <time>2021-07-22T01:33:39Z</time>
      </trkpt>
      <trkpt lat="41.954330038279295" lon="-2.93227999471128">
        <ele>1159.056</ele>
        <time>2021-07-22T01:34:05Z</time>
      </trkpt>
      <trkpt lat="41.954349987208843" lon="-2.932479986920953">
        <ele>1152.0899999999999</ele>
        <time>2021-07-22T01:34:13Z</time>
      </trkpt>
      <trkpt lat="41.954289972782135" lon="-2.932700011879206">
        <ele>1149.0820000000001</ele>
        <time>2021-07-22T01:34:17Z</time>
      </trkpt>
      <trkpt lat="41.953599974513054" lon="-2.934589963406324">
        <ele>1131.0940000000001</ele>
        <time>2021-07-22T01:35:04Z</time>
      </trkpt>
      <trkpt lat="41.952969990670681" lon="-2.93722003698349">
        <ele>1127.0830000000001</ele>
        <time>2021-07-22T01:35:13Z</time>
      </trkpt>
      <trkpt lat="41.952879969030619" lon="-2.937439978122711">
        <ele>1126.0809999999999</ele>
        <time>2021-07-22T01:36:32Z</time>
      </trkpt>
      <trkpt lat="41.951759979128838" lon="-2.939100014045835">
        <ele>1125.0609999999999</ele>
        <time>2021-07-22T01:36:53Z</time>
      </trkpt>
      <trkpt lat="41.95144004188478" lon="-2.9394799657166">
        <ele>1123.0170000000001</ele>
        <time>2021-07-22T01:36:59Z</time>
      </trkpt>
      <trkpt lat="41.951120020821691" lon="-2.939780037850142">
        <ele>1122.008</ele>
        <time>2021-07-22T01:37:05Z</time>
      </trkpt>
      <trkpt lat="41.950400015339255" lon="-2.94035998173058">
        <ele>1122.0350000000001</ele>
        <time>2021-07-22T01:37:10Z</time>
      </trkpt>
      <trkpt lat="41.941229961812496" lon="-2.946829972788692">
        <ele>1122.096</ele>
        <time>2021-07-22T01:37:13Z</time>
      </trkpt>
      <trkpt lat="41.940910024568439" lon="-2.947029964998364">
        <ele>1121.056</ele>
        <time>2021-07-22T01:37:26Z</time>
      </trkpt>
      <trkpt lat="41.94039998576045" lon="-2.947440007701516">
        <ele>1121.0309999999999</ele>
        <time>2021-07-22T01:37:29Z</time>
      </trkpt>
      <trkpt lat="41.940169986337423" lon="-2.947660032659769">
        <ele>1123.085</ele>
        <time>2021-07-22T01:37:37Z</time>
      </trkpt>
      <trkpt lat="41.93999002687633" lon="-2.94787997379899">
        <ele>1122.047</ele>
        <time>2021-07-22T01:37:41Z</time>
      </trkpt>
      <trkpt lat="41.939530028030276" lon="-2.948599979281426">
        <ele>1122.079</ele>
        <time>2021-07-22T01:37:59Z</time>
      </trkpt>
      <trkpt lat="41.939210006967187" lon="-2.949410006403923">
        <ele>1122.058</ele>
        <time>2021-07-22T01:38:05Z</time>
      </trkpt>
      <trkpt lat="41.939070029184222" lon="-2.950030015781522">
        <ele>1120.085</ele>
        <time>2021-07-22T01:38:09Z</time>
      </trkpt>
      <trkpt lat="41.93900004029274" lon="-2.950509963557124">
        <ele>1120.0889999999999</ele>
        <time>2021-07-22T01:38:14Z</time>
      </trkpt>
      <trkpt lat="41.93898000754416" lon="-2.951229969039559">
        <ele>1122.0170000000001</ele>
        <time>2021-07-22T01:38:28Z</time>
      </trkpt>
      <trkpt lat="41.939010014757514" lon="-2.951640011742711">
        <ele>1120.008</ele>
        <time>2021-07-22T01:38:33Z</time>
      </trkpt>
      <trkpt lat="41.939140018075705" lon="-2.9523900244385">
        <ele>1124.0250000000001</ele>
        <time>2021-07-22T01:39:11Z</time>
      </trkpt>
      <trkpt lat="41.939249988645315" lon="-2.952780034393072">
        <ele>1118.076</ele>
        <time>2021-07-22T01:39:17Z</time>
      </trkpt>
      <trkpt lat="41.939370017498732" lon="-2.95312000438571">
        <ele>1113.076</ele>
        <time>2021-07-22T01:39:21Z</time>
      </trkpt>
      <trkpt lat="41.940199993550777" lon="-2.955139959231019">
        <ele>1112.011</ele>
        <time>2021-07-22T01:39:26Z</time>
      </trkpt>
      <trkpt lat="41.940380036830902" lon="-2.955689979717135">
        <ele>1111.075</ele>
        <time>2021-07-22T01:39:42Z</time>
      </trkpt>
      <trkpt lat="41.940490007400513" lon="-2.956360029056668">
        <ele>1112.057</ele>
        <time>2021-07-22T01:39:46Z</time>
      </trkpt>
      <trkpt lat="41.940599977970123" lon="-2.958270013332367">
        <ele>1111.019</ele>
        <time>2021-07-22T01:39:54Z</time>
      </trkpt>
      <trkpt lat="41.940669966861606" lon="-2.95887996442616">
        <ele>1112.028</ele>
        <time>2021-07-22T01:39:59Z</time>
      </trkpt>
      <trkpt lat="41.940729981288314" lon="-2.959169978275895">
        <ele>1113.0519999999999</ele>
        <time>2021-07-22T01:40:03Z</time>
      </trkpt>
      <trkpt lat="41.941860029473901" lon="-2.96240002848208">
        <ele>1115.0530000000001</ele>
        <time>2021-07-22T01:40:13Z</time>
      </trkpt>
      <trkpt lat="41.942000007256866" lon="-2.963060019537807">
        <ele>1116.008</ele>
        <time>2021-07-22T01:40:16Z</time>
      </trkpt>
      <trkpt lat="41.94243997335434" lon="-2.968960041180253">
        <ele>1116.008</ele>
        <time>2021-07-22T01:40:23Z</time>
      </trkpt>
      <trkpt lat="41.942469980567694" lon="-2.970559978857637">
        <ele>1115.0419999999999</ele>
        <time>2021-07-22T01:40:27Z</time>
      </trkpt>
      <trkpt lat="41.942580034956336" lon="-2.971049984917045">
        <ele>1109.0429999999999</ele>
        <time>2021-07-22T01:40:47Z</time>
      </trkpt>
      <trkpt lat="41.942729987204075" lon="-2.971379980444908">
        <ele>1108.0229999999999</ele>
        <time>2021-07-22T01:40:50Z</time>
      </trkpt>
      <trkpt lat="41.942859990522265" lon="-2.97176999039948">
        <ele>1107.038</ele>
        <time>2021-07-22T01:40:53Z</time>
      </trkpt>
      <trkpt lat="41.94288999773562" lon="-2.971999989822507">
        <ele>1106.0920000000001</ele>
        <time>2021-07-22T01:40:56Z</time>
      </trkpt>
      <trkpt lat="41.9429100304842" lon="-2.972980001941323">
        <ele>1104.0540000000001</ele>
        <time>2021-07-22T01:41:00Z</time>
      </trkpt>
      <trkpt lat="41.942940037697554" lon="-2.973170019686222">
        <ele>1105.0360000000001</ele>
        <time>2021-07-22T01:41:02Z</time>
      </trkpt>
      <trkpt lat="41.943110022693872" lon="-2.973769996315241">
        <ele>1107.085</ele>
        <time>2021-07-22T01:41:05Z</time>
      </trkpt>
      <trkpt lat="41.943159978836775" lon="-2.974050035700202">
        <ele>1109.0329999999999</ele>
        <time>2021-07-22T01:41:08Z</time>
      </trkpt>
      <trkpt lat="41.943219993263483" lon="-2.975370017811656">
        <ele>1113.0229999999999</ele>
        <time>2021-07-22T01:41:17Z</time>
      </trkpt>
      <trkpt lat="41.943259974941611" lon="-2.975819958373904">
        <ele>1113.0150000000001</ele>
        <time>2021-07-22T01:41:20Z</time>
      </trkpt>
      <trkpt lat="41.943340022116899" lon="-2.976150037720799">
        <ele>1115.008</ele>
        <time>2021-07-22T01:41:26Z</time>
      </trkpt>
      <trkpt lat="41.943459967151284" lon="-2.976429993286729">
        <ele>1117.01</ele>
        <time>2021-07-22T01:41:31Z</time>
      </trkpt>
      <trkpt lat="41.943979980424047" lon="-2.977310009300709">
        <ele>1118.0609999999999</ele>
        <time>2021-07-22T01:41:38Z</time>
      </trkpt>
      <trkpt lat="41.944109983742237" lon="-2.977640004828572">
        <ele>1126.0909999999999</ele>
        <time>2021-07-22T01:42:14Z</time>
      </trkpt>
      <trkpt lat="41.944729993119836" lon="-2.980339983478189">
        <ele>1125.0260000000001</ele>
        <time>2021-07-22T01:42:20Z</time>
      </trkpt>
      <trkpt lat="41.944839963689446" lon="-2.98075002618134">
        <ele>1124.0799999999999</ele>
        <time>2021-07-22T01:42:38Z</time>
      </trkpt>
      <trkpt lat="41.944959992542863" lon="-2.981069963425398">
        <ele>1124.0519999999999</ele>
        <time>2021-07-22T01:42:41Z</time>
      </trkpt>
      <trkpt lat="41.945129977539182" lon="-2.981319995597005">
        <ele>1125.0540000000001</ele>
        <time>2021-07-22T01:42:43Z</time>
      </trkpt>
      <trkpt lat="41.945800026878715" lon="-2.982130022719502">
        <ele>1124.0129999999999</ele>
        <time>2021-07-22T01:43:08Z</time>
      </trkpt>
      <trkpt lat="41.945949979126453" lon="-2.982420036569238">
        <ele>1126.046</ele>
        <time>2021-07-22T01:43:14Z</time>
      </trkpt>
      <trkpt lat="41.94609004072845" lon="-2.98292001709342">
        <ele>1127.088</ele>
        <time>2021-07-22T01:43:19Z</time>
      </trkpt>
      <trkpt lat="41.946290032938123" lon="-2.983240038156509">
        <ele>1127.0160000000001</ele>
        <time>2021-07-22T01:43:20Z</time>
      </trkpt>
      <trkpt lat="41.94647996686399" lon="-2.983419997617602">
        <ele>1128.008</ele>
        <time>2021-07-22T01:43:27Z</time>
      </trkpt>
      <trkpt lat="41.946969972923398" lon="-2.983789974823594">
        <ele>1124.0409999999999</ele>
        <time>2021-07-22T01:43:38Z</time>
      </trkpt>
      <trkpt lat="41.947120008990169" lon="-2.983930036425591">
        <ele>1125.0119999999999</ele>
        <time>2021-07-22T01:43:41Z</time>
      </trkpt>
      <trkpt lat="41.94738001562655" lon="-2.984260031953454">
        <ele>1128.0820000000001</ele>
        <time>2021-07-22T01:43:47Z</time>
      </trkpt>
      <trkpt lat="41.94751001894474" lon="-2.984530013054609">
        <ele>1128.027</ele>
        <time>2021-07-22T01:43:50Z</time>
      </trkpt>
      <trkpt lat="41.947879996150732" lon="-2.985959965735674">
        <ele>1128.0709999999999</ele>
        <time>2021-07-22T01:43:53Z</time>
      </trkpt>
      <trkpt lat="41.947949985042214" lon="-2.986160041764379">
        <ele>1130.0930000000001</ele>
        <time>2021-07-22T01:43:59Z</time>
      </trkpt>
      <trkpt lat="41.948060039430857" lon="-2.986370008438826">
        <ele>1125.095</ele>
        <time>2021-07-22T01:44:44Z</time>
      </trkpt>
      <trkpt lat="41.948170010000467" lon="-2.986519960686564">
        <ele>1125.0340000000001</ele>
        <time>2021-07-22T01:44:48Z</time>
      </trkpt>
      <trkpt lat="41.948319962248206" lon="-2.986669996753335">
        <ele>1124.028</ele>
        <time>2021-07-22T01:44:52Z</time>
      </trkpt>
      <trkpt lat="41.948460023850203" lon="-2.986760018393397">
        <ele>1122.0889999999999</ele>
        <time>2021-07-22T01:44:56Z</time>
      </trkpt>
      <trkpt lat="41.948630008846521" lon="-2.98683000728488">
        <ele>1120.0170000000001</ele>
        <time>2021-07-22T01:45:00Z</time>
      </trkpt>
      <trkpt lat="41.94877996109426" lon="-2.98685004003346">
        <ele>1120.008</ele>
        <time>2021-07-22T01:45:04Z</time>
      </trkpt>
      <trkpt lat="41.949289999902248" lon="-2.98685004003346">
        <ele>1119.069</ele>
        <time>2021-07-22T01:45:09Z</time>
      </trkpt>
      <trkpt lat="41.949459984898567" lon="-2.986899996176362">
        <ele>1115.01</ele>
        <time>2021-07-22T01:45:27Z</time>
      </trkpt>
      <trkpt lat="41.949759973213077" lon="-2.987099988386035">
        <ele>1109.02</ele>
        <time>2021-07-22T01:45:39Z</time>
      </trkpt>
      <trkpt lat="41.949970023706555" lon="-2.987339962273836">
        <ele>1108.075</ele>
        <time>2021-07-22T01:45:41Z</time>
      </trkpt>
      <trkpt lat="41.950170015916228" lon="-2.987810019403696">
        <ele>1107.0889999999999</ele>
        <time>2021-07-22T01:45:45Z</time>
      </trkpt>
      <trkpt lat="41.950899995863438" lon="-2.990349987521768">
        <ele>1106.0709999999999</ele>
        <time>2021-07-22T01:45:49Z</time>
      </trkpt>
      <trkpt lat="41.951029999181628" lon="-2.990709990262985">
        <ele>1106.0530000000001</ele>
        <time>2021-07-22T01:45:54Z</time>
      </trkpt>
      <trkpt lat="41.951610026881099" lon="-2.9918800201267">
        <ele>1108.0820000000001</ele>
        <time>2021-07-22T01:46:02Z</time>
      </trkpt>
      <trkpt lat="41.951650008559227" lon="-2.992040030658245">
        <ele>1110.077</ele>
        <time>2021-07-22T01:46:07Z</time>
      </trkpt>
      <trkpt lat="41.951680015772581" lon="-2.992219990119338">
        <ele>1111.0609999999999</ele>
        <time>2021-07-22T01:46:12Z</time>
      </trkpt>
      <trkpt lat="41.951699964702129" lon="-2.994080018252134">
        <ele>1114.027</ele>
        <time>2021-07-22T01:46:19Z</time>
      </trkpt>
      <trkpt lat="41.951640034094453" lon="-2.994579998776317">
        <ele>1115.008</ele>
        <time>2021-07-22T01:46:26Z</time>
      </trkpt>
      <trkpt lat="41.951559986919165" lon="-2.994900019839406">
        <ele>1115.0540000000001</ele>
        <time>2021-07-22T01:46:36Z</time>
      </trkpt>
      <trkpt lat="41.951510030776262" lon="-2.995009990409017">
        <ele>1110.095</ele>
        <time>2021-07-22T01:46:48Z</time>
      </trkpt>
      <trkpt lat="41.951290005818009" lon="-2.995400000363588">
        <ele>1109.075</ele>
        <time>2021-07-22T01:46:51Z</time>
      </trkpt>
      <trkpt lat="41.950850039720535" lon="-2.996039958670735">
        <ele>1110.03</ele>
        <time>2021-07-22T01:46:55Z</time>
      </trkpt>
      <trkpt lat="41.950760018080473" lon="-2.996229976415634">
        <ele>1111.0340000000001</ele>
        <time>2021-07-22T01:47:01Z</time>
      </trkpt>
      <trkpt lat="41.950649963691831" lon="-2.99662996083498">
        <ele>1114.056</ele>
        <time>2021-07-22T01:47:10Z</time>
      </trkpt>
      <trkpt lat="41.950630014762282" lon="-2.996849985793233">
        <ele>1109.078</ele>
        <time>2021-07-22T01:47:43Z</time>
      </trkpt>
      <trkpt lat="41.950630014762282" lon="-2.997060036286712">
        <ele>1110.027</ele>
        <time>2021-07-22T01:47:48Z</time>
      </trkpt>
      <trkpt lat="41.950690029188991" lon="-2.997539984062314">
        <ele>1111.0409999999999</ele>
        <time>2021-07-22T01:47:53Z</time>
      </trkpt>
      <trkpt lat="41.951259998604655" lon="-3.000870030373335">
        <ele>1111.0809999999999</ele>
        <time>2021-07-22T01:47:59Z</time>
      </trkpt>
      <trkpt lat="41.951290005818009" lon="-3.001149985939264">
        <ele>1111.009</ele>
        <time>2021-07-22T01:48:04Z</time>
      </trkpt>
      <trkpt lat="41.951280031353235" lon="-3.001400018110871">
        <ele>1111.008</ele>
        <time>2021-07-22T01:48:11Z</time>
      </trkpt>
      <trkpt lat="41.951220016926527" lon="-3.001709980890155">
        <ele>1107.0409999999999</ele>
        <time>2021-07-22T01:48:25Z</time>
      </trkpt>
      <trkpt lat="41.951099988073111" lon="-3.001990020275116">
        <ele>1107.0419999999999</ele>
        <time>2021-07-22T01:48:32Z</time>
      </trkpt>
      <trkpt lat="41.951020024716854" lon="-3.002290008589625">
        <ele>1106.0219999999999</ele>
        <time>2021-07-22T01:48:41Z</time>
      </trkpt>
      <trkpt lat="41.950960010290146" lon="-3.002640036866069">
        <ele>1103.057</ele>
        <time>2021-07-22T01:48:50Z</time>
      </trkpt>
      <trkpt lat="41.950909970328212" lon="-3.004030007869005">
        <ele>1102.0809999999999</ele>
        <time>2021-07-22T01:48:54Z</time>
      </trkpt>
      <trkpt lat="41.950920028612018" lon="-3.004889991134405">
        <ele>1103.0930000000001</ele>
        <time>2021-07-22T01:49:04Z</time>
      </trkpt>
      <trkpt lat="41.950950035825372" lon="-3.005080008879304">
        <ele>1107.0650000000001</ele>
        <time>2021-07-22T01:49:20Z</time>
      </trkpt>
      <trkpt lat="41.951039973646402" lon="-3.005359964445233">
        <ele>1107.0940000000001</ele>
        <time>2021-07-22T01:49:30Z</time>
      </trkpt>
      <trkpt lat="41.951169976964593" lon="-3.005600022152066">
        <ele>1107.0350000000001</ele>
        <time>2021-07-22T01:49:36Z</time>
      </trkpt>
      <trkpt lat="41.951369969174266" lon="-3.005849970504642">
        <ele>1106.086</ele>
        <time>2021-07-22T01:49:42Z</time>
      </trkpt>
      <trkpt lat="41.951750004664063" lon="-3.006169991567731">
        <ele>1106.0139999999999</ele>
        <time>2021-07-22T01:49:56Z</time>
      </trkpt>
      <trkpt lat="41.951940022408962" lon="-3.006460005417466">
        <ele>1105.008</ele>
        <time>2021-07-22T01:51:15Z</time>
      </trkpt>
      <trkpt lat="41.952049992978573" lon="-3.00681003369391">
        <ele>1106.03</ele>
        <time>2021-07-22T01:51:20Z</time>
      </trkpt>
      <trkpt lat="41.952110007405281" lon="-3.007300039753318">
        <ele>1107.0509999999999</ele>
        <time>2021-07-22T01:51:36Z</time>
      </trkpt>
      <trkpt lat="41.952110007405281" lon="-3.007809994742274">
        <ele>1106.011</ele>
        <time>2021-07-22T01:51:41Z</time>
      </trkpt>
      <trkpt lat="41.952049992978573" lon="-3.008560007438064">
        <ele>1105.0360000000001</ele>
        <time>2021-07-22T01:52:20Z</time>
      </trkpt>
      <trkpt lat="41.951799960806966" lon="-3.009429965168238">
        <ele>1107.03</ele>
        <time>2021-07-22T01:52:33Z</time>
      </trkpt>
      <trkpt lat="41.951780011877418" lon="-3.009619982913137">
        <ele>1110.0719999999999</ele>
        <time>2021-07-22T01:54:13Z</time>
      </trkpt>
      <trkpt lat="41.951810019090772" lon="-3.009989960119128">
        <ele>1116.0440000000001</ele>
        <time>2021-07-22T01:55:31Z</time>
      </trkpt>
      <trkpt lat="41.951910015195608" lon="-3.010349962860346">
        <ele>1115.0429999999999</ele>
        <time>2021-07-22T01:55:34Z</time>
      </trkpt>
      <trkpt lat="41.952230036258698" lon="-3.010950023308396">
        <ele>1114.0360000000001</ele>
        <time>2021-07-22T01:55:44Z</time>
      </trkpt>
      <trkpt lat="41.952879969030619" lon="-3.013250017538667">
        <ele>1103.0170000000001</ele>
        <time>2021-07-22T01:56:13Z</time>
      </trkpt>
      <trkpt lat="41.953060012310743" lon="-3.01358001306653">
        <ele>1102.018</ele>
        <time>2021-07-22T01:56:19Z</time>
      </trkpt>
      <trkpt lat="41.95326997898519" lon="-3.013819986954331">
        <ele>1100.008</ele>
        <time>2021-07-22T01:56:26Z</time>
      </trkpt>
      <trkpt lat="41.953550018370152" lon="-3.014000030234456">
        <ele>1097.04</ele>
        <time>2021-07-22T01:56:33Z</time>
      </trkpt>
      <trkpt lat="41.953850006684661" lon="-3.014089968055487">
        <ele>1085.0309999999999</ele>
        <time>2021-07-22T01:57:49Z</time>
      </trkpt>
      <trkpt lat="41.954210009425879" lon="-3.014059960842133">
        <ele>1091.0809999999999</ele>
        <time>2021-07-22T01:58:07Z</time>
      </trkpt>
      <trkpt lat="41.955020036548376" lon="-3.013889975845814">
        <ele>1086.096</ele>
        <time>2021-07-22T01:58:43Z</time>
      </trkpt>
      <trkpt lat="41.955390013754368" lon="-3.013840019702911">
        <ele>1085.0699999999999</ele>
        <time>2021-07-22T01:58:46Z</time>
      </trkpt>
      <trkpt lat="41.955920001491904" lon="-3.01388000138104">
        <ele>1085.0719999999999</ele>
        <time>2021-07-22T01:58:49Z</time>
      </trkpt>
      <trkpt lat="41.956400033086538" lon="-3.014040011912584">
        <ele>1085.0840000000001</ele>
        <time>2021-07-22T01:58:51Z</time>
      </trkpt>
      <trkpt lat="41.956589967012405" lon="-3.014140008017421">
        <ele>1083.0329999999999</ele>
        <time>2021-07-22T01:59:03Z</time>
      </trkpt>
      <trkpt lat="41.957109980285168" lon="-3.014479978010058">
        <ele>1082.057</ele>
        <time>2021-07-22T01:59:10Z</time>
      </trkpt>
      <trkpt lat="41.957899974659085" lon="-3.015080038458109">
        <ele>1082</ele>
        <time>2021-07-22T01:59:13Z</time>
      </trkpt>
      <trkpt lat="41.958389980718493" lon="-3.015489997342229">
        <ele>1082.02</ele>
        <time>2021-07-22T01:59:17Z</time>
      </trkpt>
      <trkpt lat="41.958649987354875" lon="-3.015740029513836">
        <ele>1082.008</ele>
        <time>2021-07-22T01:59:21Z</time>
      </trkpt>
      <trkpt lat="41.958900019526482" lon="-3.01602995954454">
        <ele>1083.0319999999999</ele>
        <time>2021-07-22T01:59:28Z</time>
      </trkpt>
      <trkpt lat="41.959460014477372" lon="-3.016790030524135">
        <ele>1084.0630000000001</ele>
        <time>2021-07-22T01:59:30Z</time>
      </trkpt>
      <trkpt lat="41.962489988654852" lon="-3.021109979599714">
        <ele>1085.0530000000001</ele>
        <time>2021-07-22T01:59:33Z</time>
      </trkpt>
      <trkpt lat="41.962689980864525" lon="-3.021369986236095">
        <ele>1086.058</ele>
        <time>2021-07-22T01:59:36Z</time>
      </trkpt>
      <trkpt lat="41.963390037417412" lon="-3.022150006145239">
        <ele>1088.0820000000001</ele>
        <time>2021-07-22T01:59:57Z</time>
      </trkpt>
      <trkpt lat="41.963609978556633" lon="-3.022429961711168">
        <ele>1088.0239999999999</ele>
        <time>2021-07-22T01:59:59Z</time>
      </trkpt>
      <trkpt lat="41.965059963986278" lon="-3.024619985371828">
        <ele>1088.056</ele>
        <time>2021-07-22T02:00:01Z</time>
      </trkpt>
      <trkpt lat="41.965500013902783" lon="-3.025400005280972">
        <ele>1089.075</ele>
        <time>2021-07-22T02:00:06Z</time>
      </trkpt>
      <trkpt lat="41.968109970912337" lon="-3.032069988548756">
        <ele>1090.075</ele>
        <time>2021-07-22T02:00:10Z</time>
      </trkpt>
      <trkpt lat="41.969730025157332" lon="-3.037559967488051">
        <ele>1091.028</ele>
        <time>2021-07-22T02:00:37Z</time>
      </trkpt>
      <trkpt lat="41.969809988513589" lon="-3.037809999659658">
        <ele>1091.02</ele>
        <time>2021-07-22T02:00:43Z</time>
      </trkpt>
      <trkpt lat="41.970100002363324" lon="-3.038430009037256">
        <ele>1091.008</ele>
        <time>2021-07-22T02:00:49Z</time>
      </trkpt>
      <trkpt lat="41.971140028908849" lon="-3.040079986676574">
        <ele>1093.0740000000001</ele>
        <time>2021-07-22T02:01:27Z</time>
      </trkpt>
      <trkpt lat="41.971419984474778" lon="-3.040319960564375">
        <ele>1093.0350000000001</ele>
        <time>2021-07-22T02:01:38Z</time>
      </trkpt>
      <trkpt lat="41.97178996168077" lon="-3.040590025484562">
        <ele>1083.0150000000001</ele>
        <time>2021-07-22T02:02:38Z</time>
      </trkpt>
      <trkpt lat="41.972109982743859" lon="-3.040899988263845">
        <ele>1081.0799999999999</ele>
        <time>2021-07-22T02:02:57Z</time>
      </trkpt>
      <trkpt lat="41.974939964711666" lon="-3.045229995623231">
        <ele>1082.0340000000001</ele>
        <time>2021-07-22T02:03:34Z</time>
      </trkpt>
      <trkpt lat="41.975589981302619" lon="-3.046189974993467">
        <ele>1087.0160000000001</ele>
        <time>2021-07-22T02:03:59Z</time>
      </trkpt>
      <trkpt lat="41.977050025016069" lon="-3.048110017552972">
        <ele>1091.078</ele>
        <time>2021-07-22T02:04:15Z</time>
      </trkpt>
      <trkpt lat="41.977199977263808" lon="-3.048210013657808">
        <ele>1083.087</ele>
        <time>2021-07-22T02:05:56Z</time>
      </trkpt>
      <trkpt lat="41.977350013330579" lon="-3.048259969800711">
        <ele>1081.087</ele>
        <time>2021-07-22T02:06:08Z</time>
      </trkpt>
      <trkpt lat="41.977480016648769" lon="-3.048270028084517">
        <ele>1079.0419999999999</ele>
        <time>2021-07-22T02:07:00Z</time>
      </trkpt>
      <trkpt lat="41.978160040453076" lon="-3.048159973695874">
        <ele>1079.0260000000001</ele>
        <time>2021-07-22T02:07:06Z</time>
      </trkpt>
      <trkpt lat="41.978569999337196" lon="-3.048140024766326">
        <ele>1081.008</ele>
        <time>2021-07-22T02:07:16Z</time>
      </trkpt>
      <trkpt lat="41.978700002655387" lon="-3.048180006444454">
        <ele>1081.075</ele>
        <time>2021-07-22T02:07:22Z</time>
      </trkpt>
      <trkpt lat="41.978930002078414" lon="-3.048340016975999">
        <ele>1081.086</ele>
        <time>2021-07-22T02:07:30Z</time>
      </trkpt>
      <trkpt lat="41.979060005396605" lon="-3.048519976437092">
        <ele>1080.0160000000001</ele>
        <time>2021-07-22T02:08:11Z</time>
      </trkpt>
      <trkpt lat="41.979299979284406" lon="-3.048990033566952">
        <ele>1080.0509999999999</ele>
        <time>2021-07-22T02:08:20Z</time>
      </trkpt>
      <trkpt lat="41.979339960962534" lon="-3.049130011349917">
        <ele>1082.075</ele>
        <time>2021-07-22T02:08:40Z</time>
      </trkpt>
      <trkpt lat="41.979339960962534" lon="-3.049330003559589">
        <ele>1081.0170000000001</ele>
        <time>2021-07-22T02:08:55Z</time>
      </trkpt>
      <trkpt lat="41.979259997606277" lon="-3.049529995769262">
        <ele>1081.069</ele>
        <time>2021-07-22T02:08:56Z</time>
      </trkpt>
      <trkpt lat="41.978509984910488" lon="-3.05077001452446">
        <ele>1081.098</ele>
        <time>2021-07-22T02:08:57Z</time>
      </trkpt>
      <trkpt lat="41.97844997048378" lon="-3.050919966772199">
        <ele>1080.0329999999999</ele>
        <time>2021-07-22T02:08:59Z</time>
      </trkpt>
      <trkpt lat="41.978419963270426" lon="-3.051079977303743">
        <ele>1081.0229999999999</ele>
        <time>2021-07-22T02:10:42Z</time>
      </trkpt>
      <trkpt lat="41.978390039876103" lon="-3.051390023902059">
        <ele>1078.0150000000001</ele>
        <time>2021-07-22T02:11:23Z</time>
      </trkpt>
      <trkpt lat="41.978400014340878" lon="-3.051709961146116">
        <ele>1075.008</ele>
        <time>2021-07-22T02:11:30Z</time>
      </trkpt>
      <trkpt lat="41.978990016505122" lon="-3.053620029240847">
        <ele>1074.05</ele>
        <time>2021-07-22T02:11:39Z</time>
      </trkpt>
      <trkpt lat="41.97905003093183" lon="-3.054069969803095">
        <ele>1073.0509999999999</ele>
        <time>2021-07-22T02:11:49Z</time>
      </trkpt>
      <trkpt lat="41.97905003093183" lon="-3.054499961435795">
        <ele>1071.021</ele>
        <time>2021-07-22T02:12:02Z</time>
      </trkpt>
      <trkpt lat="41.978839980438352" lon="-3.057370008900762">
        <ele>1068.0260000000001</ele>
        <time>2021-07-22T02:12:28Z</time>
      </trkpt>
      <trkpt lat="41.978700002655387" lon="-3.058190010488033">
        <ele>1069.05</ele>
        <time>2021-07-22T02:12:36Z</time>
      </trkpt>
      <trkpt lat="41.977570038288832" lon="-3.062429996207357">
        <ele>1067.0820000000001</ele>
        <time>2021-07-22T02:13:02Z</time>
      </trkpt>
      <trkpt lat="41.977150021120906" lon="-3.06377001106739">
        <ele>1065.0540000000001</ele>
        <time>2021-07-22T02:13:39Z</time>
      </trkpt>
      <trkpt lat="41.97630001232028" lon="-3.066309979185462">
        <ele>1066.0129999999999</ele>
        <time>2021-07-22T02:13:43Z</time>
      </trkpt>
      <trkpt lat="41.975680002942681" lon="-3.068040004000068">
        <ele>1066.077</ele>
        <time>2021-07-22T02:13:51Z</time>
      </trkpt>
      <trkpt lat="41.975159989669919" lon="-3.068980034440756">
        <ele>1068.0609999999999</ele>
        <time>2021-07-22T02:14:05Z</time>
      </trkpt>
      <trkpt lat="41.971610002219677" lon="-3.074949961155653">
        <ele>1069.027</ele>
        <time>2021-07-22T02:14:10Z</time>
      </trkpt>
      <trkpt lat="41.971240025013685" lon="-3.075720006600022">
        <ele>1070.008</ele>
        <time>2021-07-22T02:14:16Z</time>
      </trkpt>
      <trkpt lat="41.970000006258488" lon="-3.07926001958549">
        <ele>1069.0540000000001</ele>
        <time>2021-07-22T02:14:37Z</time>
      </trkpt>
      <trkpt lat="41.9699199590832" lon="-3.079720018431544">
        <ele>1069.0450000000001</ele>
        <time>2021-07-22T02:14:40Z</time>
      </trkpt>
      <trkpt lat="41.969870002940297" lon="-3.080500038340688">
        <ele>1070.075</ele>
        <time>2021-07-22T02:14:46Z</time>
      </trkpt>
      <trkpt lat="41.969800014048815" lon="-3.080900022760034">
        <ele>1069.01</ele>
        <time>2021-07-22T02:14:55Z</time>
      </trkpt>
      <trkpt lat="41.969589963555336" lon="-3.081460017710924">
        <ele>1069.0540000000001</ele>
        <time>2021-07-22T02:15:04Z</time>
      </trkpt>
      <trkpt lat="41.968420017510653" lon="-3.08415999636054">
        <ele>1069.086</ele>
        <time>2021-07-22T02:15:23Z</time>
      </trkpt>
      <trkpt lat="41.968209967017174" lon="-3.084759972989559">
        <ele>1066.028</ele>
        <time>2021-07-22T02:15:56Z</time>
      </trkpt>
      <trkpt lat="41.96787997148931" lon="-3.086190009489656">
        <ele>1058.097</ele>
        <time>2021-07-22T02:16:54Z</time>
      </trkpt>
      <trkpt lat="41.96774996817112" lon="-3.087319973856211">
        <ele>1058.0550000000001</ele>
        <time>2021-07-22T02:17:08Z</time>
      </trkpt>
      <trkpt lat="41.967719960957766" lon="-3.087400021031499">
        <ele>1069.0070000000001</ele>
        <time>2021-07-22T02:18:54Z</time>
      </trkpt>
      <trkpt lat="41.967670004814863" lon="-3.087449977174401">
        <ele>1075.0170000000001</ele>
        <time>2021-07-22T02:19:13Z</time>
      </trkpt>
      <trkpt lat="41.967600015923381" lon="-3.087460035458207">
        <ele>1076.008</ele>
        <time>2021-07-22T02:19:21Z</time>
      </trkpt>
      <trkpt lat="41.965950038284063" lon="-3.094950020313263">
        <ele>1077.0619999999999</ele>
        <time>2021-07-22T02:19:24Z</time>
      </trkpt>
      <trkpt lat="41.964900037273765" lon="-3.097680006176233">
        <ele>1077.0930000000001</ele>
        <time>2021-07-22T02:19:28Z</time>
      </trkpt>
      <trkpt lat="41.964780008420348" lon="-3.09820999391377">
        <ele>1078.0229999999999</ele>
        <time>2021-07-22T02:19:34Z</time>
      </trkpt>
      <trkpt lat="41.964759975671768" lon="-3.098860010504723">
        <ele>1080.088</ele>
        <time>2021-07-22T02:19:38Z</time>
      </trkpt>
      <trkpt lat="41.964770033955574" lon="-3.099680012091994">
        <ele>1080.0219999999999</ele>
        <time>2021-07-22T02:19:44Z</time>
      </trkpt>
      <trkpt lat="41.964840022847056" lon="-3.100609984248877">
        <ele>1080.0139999999999</ele>
        <time>2021-07-22T02:19:47Z</time>
      </trkpt>
      <trkpt lat="41.965079996734858" lon="-3.102570008486509">
        <ele>1082.076</ele>
        <time>2021-07-22T02:19:52Z</time>
      </trkpt>
      <trkpt lat="41.965189967304468" lon="-3.103160010650754">
        <ele>1085.0650000000001</ele>
        <time>2021-07-22T02:20:23Z</time>
      </trkpt>
      <trkpt lat="41.965720038861036" lon="-3.10497997328639">
        <ele>1083.086</ele>
        <time>2021-07-22T02:20:32Z</time>
      </trkpt>
      <trkpt lat="41.966750007122755" lon="-3.107379963621497">
        <ele>1083.0599999999999</ele>
        <time>2021-07-22T02:20:34Z</time>
      </trkpt>
      <trkpt lat="41.966840028762817" lon="-3.107650028541684">
        <ele>1083.0260000000001</ele>
        <time>2021-07-22T02:20:39Z</time>
      </trkpt>
      <trkpt lat="41.966989981010556" lon="-3.108219997957349">
        <ele>1085.008</ele>
        <time>2021-07-22T02:20:43Z</time>
      </trkpt>
      <trkpt lat="41.967170024290681" lon="-3.109269998967648">
        <ele>1087.0450000000001</ele>
        <time>2021-07-22T02:20:47Z</time>
      </trkpt>
      <trkpt lat="41.967189973220229" lon="-3.109650034457445">
        <ele>1089.076</ele>
        <time>2021-07-22T02:20:52Z</time>
      </trkpt>
      <trkpt lat="41.967159966006875" lon="-3.110080026090145">
        <ele>1090.0360000000001</ele>
        <time>2021-07-22T02:20:56Z</time>
      </trkpt>
      <trkpt lat="41.966829970479012" lon="-3.111650040373206">
        <ele>1096.0909999999999</ele>
        <time>2021-07-22T02:21:30Z</time>
      </trkpt>
      <trkpt lat="41.966789988800883" lon="-3.111890014261007">
        <ele>1096.095</ele>
        <time>2021-07-22T02:21:38Z</time>
      </trkpt>
      <trkpt lat="41.966759981587529" lon="-3.112329980358481">
        <ele>1093.087</ele>
        <time>2021-07-22T02:21:57Z</time>
      </trkpt>
      <trkpt lat="41.966789988800883" lon="-3.11294998973608">
        <ele>1089.029</ele>
        <time>2021-07-22T02:22:17Z</time>
      </trkpt>
      <trkpt lat="41.966919992119074" lon="-3.113660020753741">
        <ele>1088.088</ele>
        <time>2021-07-22T02:22:21Z</time>
      </trkpt>
      <trkpt lat="41.967100035399199" lon="-3.115049991756678">
        <ele>1085.0820000000001</ele>
        <time>2021-07-22T02:22:28Z</time>
      </trkpt>
      <trkpt lat="41.967340009287" lon="-3.117540003731847">
        <ele>1083.0429999999999</ele>
        <time>2021-07-22T02:22:36Z</time>
      </trkpt>
      <trkpt lat="41.967549975961447" lon="-3.121879985556006">
        <ele>1081.0170000000001</ele>
        <time>2021-07-22T02:22:43Z</time>
      </trkpt>
      <trkpt lat="41.967690037563443" lon="-3.122980026528239">
        <ele>1081.008</ele>
        <time>2021-07-22T02:22:50Z</time>
      </trkpt>
      <trkpt lat="41.968889990821481" lon="-3.130830014124513">
        <ele>1081.075</ele>
        <time>2021-07-22T02:22:53Z</time>
      </trkpt>
      <trkpt lat="41.969129964709282" lon="-3.132189977914095">
        <ele>1081.0360000000001</ele>
        <time>2021-07-22T02:22:57Z</time>
      </trkpt>
      <trkpt lat="41.969319982454181" lon="-3.132709991186857">
        <ele>1076.086</ele>
        <time>2021-07-22T02:23:41Z</time>
      </trkpt>
      <trkpt lat="41.969430036842823" lon="-3.132900008931756">
        <ele>1074.0509999999999</ele>
        <time>2021-07-22T02:23:45Z</time>
      </trkpt>
      <trkpt lat="41.96961997076869" lon="-3.133150041103363">
        <ele>1067.0150000000001</ele>
        <time>2021-07-22T02:23:55Z</time>
      </trkpt>
      <trkpt lat="41.969849970191717" lon="-3.13338004052639">
        <ele>1064.097</ele>
        <time>2021-07-22T02:24:02Z</time>
      </trkpt>
      <trkpt lat="41.970100002363324" lon="-3.133529992774129">
        <ele>1062.069</ele>
        <time>2021-07-22T02:24:09Z</time>
      </trkpt>
      <trkpt lat="41.970399990677834" lon="-3.133650021627545">
        <ele>1061.078</ele>
        <time>2021-07-22T02:24:17Z</time>
      </trkpt>
      <trkpt lat="41.970580033957958" lon="-3.133690003305674">
        <ele>1054.068</ele>
        <time>2021-07-22T02:25:50Z</time>
      </trkpt>
      <trkpt lat="41.970840040594339" lon="-3.133699977770448">
        <ele>1062.0419999999999</ele>
        <time>2021-07-22T02:26:02Z</time>
      </trkpt>
      <trkpt lat="41.972580039873719" lon="-3.133390014991164">
        <ele>1064.0260000000001</ele>
        <time>2021-07-22T02:26:08Z</time>
      </trkpt>
      <trkpt lat="41.973089994862676" lon="-3.133330000564456">
        <ele>1070.008</ele>
        <time>2021-07-22T02:26:24Z</time>
      </trkpt>
      <trkpt lat="41.973189990967512" lon="-3.13333997502923">
        <ele>1068.0129999999999</ele>
        <time>2021-07-22T02:26:35Z</time>
      </trkpt>
      <trkpt lat="41.973449997603893" lon="-3.133450029417872">
        <ele>1063.0840000000001</ele>
        <time>2021-07-22T02:27:27Z</time>
      </trkpt>
      <trkpt lat="41.97365996427834" lon="-3.133610039949417">
        <ele>1059.0740000000001</ele>
        <time>2021-07-22T02:27:43Z</time>
      </trkpt>
      <trkpt lat="41.973840007558465" lon="-3.13381003215909">
        <ele>1066.049</ele>
        <time>2021-07-22T02:27:52Z</time>
      </trkpt>
      <trkpt lat="41.97397998534143" lon="-3.134070038795471">
        <ele>1074.0229999999999</ele>
        <time>2021-07-22T02:28:12Z</time>
      </trkpt>
      <trkpt lat="41.974079981446266" lon="-3.134400034323335">
        <ele>1078.0150000000001</ele>
        <time>2021-07-22T02:28:43Z</time>
      </trkpt>
      <trkpt lat="41.974530005827546" lon="-3.136900020763278">
        <ele>1078.067</ele>
        <time>2021-07-22T02:28:50Z</time>
      </trkpt>
      <trkpt lat="41.974729998037219" lon="-3.137409975752235">
        <ele>1076.096</ele>
        <time>2021-07-22T02:28:58Z</time>
      </trkpt>
      <trkpt lat="41.975450003519654" lon="-3.138470035046339">
        <ele>1077.087</ele>
        <time>2021-07-22T02:29:07Z</time>
      </trkpt>
      <trkpt lat="41.976230023428798" lon="-3.139560017734766">
        <ele>1080.0419999999999</ele>
        <time>2021-07-22T02:29:15Z</time>
      </trkpt>
      <trkpt lat="41.976409982889891" lon="-3.139760009944439">
        <ele>1088.0260000000001</ele>
        <time>2021-07-22T02:29:32Z</time>
      </trkpt>
      <trkpt lat="41.97675003670156" lon="-3.140069972723723">
        <ele>1086.008</ele>
        <time>2021-07-22T02:29:38Z</time>
      </trkpt>
      <trkpt lat="41.977129988372326" lon="-3.140310030430555">
        <ele>1079.095</ele>
        <time>2021-07-22T02:29:47Z</time>
      </trkpt>
      <trkpt lat="41.977459983900189" lon="-3.140580011531711">
        <ele>1072.096</ele>
        <time>2021-07-22T02:29:58Z</time>
      </trkpt>
      <trkpt lat="41.977749997749925" lon="-3.140930039808154">
        <ele>1068.0360000000001</ele>
        <time>2021-07-22T02:30:08Z</time>
      </trkpt>
      <trkpt lat="41.977870026603341" lon="-3.141109999269247">
        <ele>1067.0509999999999</ele>
        <time>2021-07-22T02:30:17Z</time>
      </trkpt>
      <trkpt lat="41.978000029921532" lon="-3.141360031440854">
        <ele>1069.0350000000001</ele>
        <time>2021-07-22T02:30:30Z</time>
      </trkpt>
      <trkpt lat="41.979290004819632" lon="-3.144239969551563">
        <ele>1068.087</ele>
        <time>2021-07-22T02:30:37Z</time>
      </trkpt>
      <trkpt lat="41.979369968175888" lon="-3.144480027258396">
        <ele>1066.039</ele>
        <time>2021-07-22T02:30:42Z</time>
      </trkpt>
      <trkpt lat="41.979520004242659" lon="-3.145230039954186">
        <ele>1066.098</ele>
        <time>2021-07-22T02:30:48Z</time>
      </trkpt>
      <trkpt lat="41.979559985920787" lon="-3.145719962194562">
        <ele>1068.0820000000001</ele>
        <time>2021-07-22T02:30:53Z</time>
      </trkpt>
      <trkpt lat="41.979529978707433" lon="-3.146290015429258">
        <ele>1071.0429999999999</ele>
        <time>2021-07-22T02:30:59Z</time>
      </trkpt>
      <trkpt lat="41.979450015351176" lon="-3.146899966523051">
        <ele>1075.0170000000001</ele>
        <time>2021-07-22T02:31:10Z</time>
      </trkpt>
      <trkpt lat="41.977770030498505" lon="-3.153519993647933">
        <ele>1068.008</ele>
        <time>2021-07-22T02:31:17Z</time>
      </trkpt>
      <trkpt lat="41.977580012753606" lon="-3.154400009661913">
        <ele>1061.0450000000001</ele>
        <time>2021-07-22T02:31:26Z</time>
      </trkpt>
      <trkpt lat="41.977519998326898" lon="-3.154809968546033">
        <ele>1062.0360000000001</ele>
        <time>2021-07-22T02:31:32Z</time>
      </trkpt>
      <trkpt lat="41.977469958364964" lon="-3.156040012836456">
        <ele>1063.076</ele>
        <time>2021-07-22T02:31:38Z</time>
      </trkpt>
      <trkpt lat="41.977529972791672" lon="-3.156850039958954">
        <ele>1066.0409999999999</ele>
        <time>2021-07-22T02:31:44Z</time>
      </trkpt>
      <trkpt lat="41.977989971637726" lon="-3.160779979079962">
        <ele>1070.095</ele>
        <time>2021-07-22T02:31:51Z</time>
      </trkpt>
      <trkpt lat="41.978200022131205" lon="-3.161950008943677">
        <ele>1074.027</ele>
        <time>2021-07-22T02:31:57Z</time>
      </trkpt>
      <trkpt lat="41.978349974378943" lon="-3.162570018321276">
        <ele>1078.069</ele>
        <time>2021-07-22T02:32:16Z</time>
      </trkpt>
      <trkpt lat="41.978839980438352" lon="-3.163959989324212">
        <ele>1074.028</ele>
        <time>2021-07-22T02:32:24Z</time>
      </trkpt>
      <trkpt lat="41.979640033096075" lon="-3.16603995859623">
        <ele>1073.019</ele>
        <time>2021-07-22T02:32:29Z</time>
      </trkpt>
      <trkpt lat="41.979799959808588" lon="-3.16651001572609">
        <ele>1073.009</ele>
        <time>2021-07-22T02:32:35Z</time>
      </trkpt>
      <trkpt lat="41.979980003088713" lon="-3.167089959606528">
        <ele>1074.019</ele>
        <time>2021-07-22T02:32:41Z</time>
      </trkpt>
      <trkpt lat="41.980119980871677" lon="-3.167709968984127">
        <ele>1072.008</ele>
        <time>2021-07-22T02:32:49Z</time>
      </trkpt>
      <trkpt lat="41.98021000251174" lon="-3.168320003896952">
        <ele>1067.018</ele>
        <time>2021-07-22T02:32:56Z</time>
      </trkpt>
      <trkpt lat="41.980289965867996" lon="-3.169569997116923">
        <ele>1064.059</ele>
        <time>2021-07-22T02:33:02Z</time>
      </trkpt>
      <trkpt lat="41.980279991403222" lon="-3.170050028711557">
        <ele>1062.029</ele>
        <time>2021-07-22T02:33:09Z</time>
      </trkpt>
      <trkpt lat="41.980219976976514" lon="-3.170729968696833">
        <ele>1075.0840000000001</ele>
        <time>2021-07-22T02:34:03Z</time>
      </trkpt>
      <trkpt lat="41.980070024728775" lon="-3.17153999581933">
        <ele>1084.018</ele>
        <time>2021-07-22T02:34:23Z</time>
      </trkpt>
      <trkpt lat="41.979900039732456" lon="-3.172220019623637">
        <ele>1080.01</ele>
        <time>2021-07-22T02:34:30Z</time>
      </trkpt>
      <trkpt lat="41.979670040309429" lon="-3.172880010679364">
        <ele>1072.0519999999999</ele>
        <time>2021-07-22T02:34:40Z</time>
      </trkpt>
      <trkpt lat="41.979440040886402" lon="-3.173830015584827">
        <ele>1068.0509999999999</ele>
        <time>2021-07-22T02:34:45Z</time>
      </trkpt>
      <trkpt lat="41.979410033673048" lon="-3.174309963360429">
        <ele>1065.0740000000001</ele>
        <time>2021-07-22T02:34:52Z</time>
      </trkpt>
      <trkpt lat="41.979420008137822" lon="-3.174710031598806">
        <ele>1063.056</ele>
        <time>2021-07-22T02:35:00Z</time>
      </trkpt>
      <trkpt lat="41.979469964280725" lon="-3.175129964947701">
        <ele>1070.021</ele>
        <time>2021-07-22T02:36:17Z</time>
      </trkpt>
      <trkpt lat="41.979559985920787" lon="-3.175500025972724">
        <ele>1073.008</ele>
        <time>2021-07-22T02:36:39Z</time>
      </trkpt>
      <trkpt lat="41.979710021987557" lon="-3.175949966534972">
        <ele>1065.0640000000001</ele>
        <time>2021-07-22T02:37:56Z</time>
      </trkpt>
      <trkpt lat="41.980070024728775" lon="-3.176580034196377">
        <ele>1064.0250000000001</ele>
        <time>2021-07-22T02:38:11Z</time>
      </trkpt>
      <trkpt lat="41.980400020256639" lon="-3.176929978653789">
        <ele>1059.075</ele>
        <time>2021-07-22T02:38:20Z</time>
      </trkpt>
      <trkpt lat="41.980800004675984" lon="-3.177219992503524">
        <ele>1057.0899999999999</ele>
        <time>2021-07-22T02:38:27Z</time>
      </trkpt>
      <trkpt lat="41.981150032952428" lon="-3.177380003035069">
        <ele>1055.0239999999999</ele>
        <time>2021-07-22T02:38:50Z</time>
      </trkpt>
      <trkpt lat="41.98149997740984" lon="-3.177429959177971">
        <ele>1052.066</ele>
        <time>2021-07-22T02:39:02Z</time>
      </trkpt>
      <trkpt lat="41.981829972937703" lon="-3.177429959177971">
        <ele>1053.048</ele>
        <time>2021-07-22T02:39:08Z</time>
      </trkpt>
      <trkpt lat="41.982230041176081" lon="-3.177329963073134">
        <ele>1052.067</ele>
        <time>2021-07-22T02:39:17Z</time>
      </trkpt>
      <trkpt lat="41.98250999674201" lon="-3.177199959754944">
        <ele>1044.027</ele>
        <time>2021-07-22T02:39:58Z</time>
      </trkpt>
      <trkpt lat="41.983480034396052" lon="-3.176560001447797">
        <ele>1043.068</ele>
        <time>2021-07-22T02:41:09Z</time>
      </trkpt>
      <trkpt lat="41.983929974958301" lon="-3.176379958167672">
        <ele>1046.0139999999999</ele>
        <time>2021-07-22T02:41:28Z</time>
      </trkpt>
      <trkpt lat="41.984219988808036" lon="-3.176360009238124">
        <ele>1044.008</ele>
        <time>2021-07-22T02:41:37Z</time>
      </trkpt>
      <trkpt lat="41.984549984335899" lon="-3.176369983702898">
        <ele>1040.019</ele>
        <time>2021-07-22T02:41:48Z</time>
      </trkpt>
      <trkpt lat="41.984839998185635" lon="-3.17643997259438">
        <ele>1035.0899999999999</ele>
        <time>2021-07-22T02:42:32Z</time>
      </trkpt>
      <trkpt lat="41.985290022566915" lon="-3.176669972017407">
        <ele>1035.03</ele>
        <time>2021-07-22T02:42:39Z</time>
      </trkpt>
      <trkpt lat="41.985609959810972" lon="-3.176929978653789">
        <ele>1035.0450000000001</ele>
        <time>2021-07-22T02:42:44Z</time>
      </trkpt>
      <trkpt lat="41.985869966447353" lon="-3.177199959754944">
        <ele>1034.039</ele>
        <time>2021-07-22T02:42:51Z</time>
      </trkpt>
      <trkpt lat="41.98614003136754" lon="-3.177630035206676">
        <ele>1014.051</ele>
        <time>2021-07-22T02:43:47Z</time>
      </trkpt>
      <trkpt lat="41.987760001793504" lon="-3.181110033765435">
        <ele>1016.053</ele>
        <time>2021-07-22T02:43:56Z</time>
      </trkpt>
      <trkpt lat="41.988299963995814" lon="-3.182379975914955">
        <ele>1011.0119999999999</ele>
        <time>2021-07-22T02:44:06Z</time>
      </trkpt>
      <trkpt lat="41.988450000062585" lon="-3.182880040258169">
        <ele>1000.014</ele>
        <time>2021-07-22T02:45:22Z</time>
      </trkpt>
      <trkpt lat="41.988580003380775" lon="-3.183589987456799">
        <ele>1001.054</ele>
        <time>2021-07-22T02:45:29Z</time>
      </trkpt>
      <trkpt lat="41.988619985058904" lon="-3.184010004624724">
        <ele>999.00900000000001</ele>
        <time>2021-07-22T02:45:43Z</time>
      </trkpt>
      <trkpt lat="41.988629959523678" lon="-3.184530017897487">
        <ele>996.00800000000004</ele>
        <time>2021-07-22T02:46:06Z</time>
      </trkpt>
      <trkpt lat="41.988600036129355" lon="-3.18516000173986">
        <ele>992.09799999999996</ele>
        <time>2021-07-22T02:46:18Z</time>
      </trkpt>
      <trkpt lat="41.987959994003177" lon="-3.190900012850761">
        <ele>990.09900000000005</ele>
        <time>2021-07-22T02:46:21Z</time>
      </trkpt>
      <trkpt lat="41.987650031223893" lon="-3.192519983276725">
        <ele>989.09900000000005</ele>
        <time>2021-07-22T02:46:24Z</time>
      </trkpt>
      <trkpt lat="41.986470026895404" lon="-3.198129991069436">
        <ele>985.07399999999996</ele>
        <time>2021-07-22T02:46:41Z</time>
      </trkpt>
      <trkpt lat="41.986389979720116" lon="-3.199219973757863">
        <ele>984.08799999999997</ele>
        <time>2021-07-22T02:46:44Z</time>
      </trkpt>
      <trkpt lat="41.986280009150505" lon="-3.199869990348816">
        <ele>983.08000000000004</ele>
        <time>2021-07-22T02:46:49Z</time>
      </trkpt>
      <trkpt lat="41.986089991405606" lon="-3.200380029156804">
        <ele>981.072</ele>
        <time>2021-07-22T02:46:54Z</time>
      </trkpt>
      <trkpt lat="41.985399993136525" lon="-3.201839989051223">
        <ele>972.01099999999997</ele>
        <time>2021-07-22T02:47:18Z</time>
      </trkpt>
      <trkpt lat="41.985060023143888" lon="-3.20265001617372">
        <ele>972.06200000000001</ele>
        <time>2021-07-22T02:47:25Z</time>
      </trkpt>
      <trkpt lat="41.984949968755245" lon="-3.20308000780642">
        <ele>970.08299999999997</ele>
        <time>2021-07-22T02:47:43Z</time>
      </trkpt>
      <trkpt lat="41.984839998185635" lon="-3.203700017184019">
        <ele>969.01099999999997</ele>
        <time>2021-07-22T02:47:49Z</time>
      </trkpt>
      <trkpt lat="41.984419981017709" lon="-3.206769973039627">
        <ele>969.00800000000004</ele>
        <time>2021-07-22T02:47:55Z</time>
      </trkpt>
      <trkpt lat="41.983439968898892" lon="-3.211979996412993">
        <ele>969.06299999999999</ele>
        <time>2021-07-22T02:48:00Z</time>
      </trkpt>
      <trkpt lat="41.983209969475865" lon="-3.213390000164509">
        <ele>968.09400000000005</ele>
        <time>2021-07-22T02:48:13Z</time>
      </trkpt>
      <trkpt lat="41.983199995011091" lon="-3.214019984006882">
        <ele>967.024</ele>
        <time>2021-07-22T02:48:30Z</time>
      </trkpt>
      <trkpt lat="41.983269983902574" lon="-3.214900000020862">
        <ele>965.06899999999996</ele>
        <time>2021-07-22T02:51:09Z</time>
      </trkpt>
      <trkpt lat="41.983580030500889" lon="-3.218159973621368">
        <ele>965.02300000000002</ele>
        <time>2021-07-22T02:51:23Z</time>
      </trkpt>
      <trkpt lat="41.983659993857145" lon="-3.218709994107485">
        <ele>966.08500000000004</ele>
        <time>2021-07-22T02:51:40Z</time>
      </trkpt>
      <trkpt lat="41.983720008283854" lon="-3.219030015170574">
        <ele>967.06700000000001</ele>
        <time>2021-07-22T02:51:58Z</time>
      </trkpt>
      <trkpt lat="41.983869960531592" lon="-3.219569977372885">
        <ele>960.01599999999996</ele>
        <time>2021-07-22T02:52:19Z</time>
      </trkpt>
      <trkpt lat="41.985030015930533" lon="-3.22346999309957">
        <ele>958.07299999999998</ele>
        <time>2021-07-22T02:52:28Z</time>
      </trkpt>
      <trkpt lat="41.985190026462078" lon="-3.224159991368651">
        <ele>958.08500000000004</ele>
        <time>2021-07-22T02:52:52Z</time>
      </trkpt>
      <trkpt lat="41.985309971496463" lon="-3.224840015172958">
        <ele>967.01300000000003</ele>
        <time>2021-07-22T02:55:45Z</time>
      </trkpt>
      <trkpt lat="41.98609996587038" lon="-3.230529986321926">
        <ele>969.00800000000004</ele>
        <time>2021-07-22T02:55:55Z</time>
      </trkpt>
      <trkpt lat="41.986219994723797" lon="-3.231019992381334">
        <ele>970.08399999999995</ele>
        <time>2021-07-22T02:56:04Z</time>
      </trkpt>
      <trkpt lat="41.98657002300024" lon="-3.231969997286797">
        <ele>963.03499999999997</ele>
        <time>2021-07-22T02:58:28Z</time>
      </trkpt>
      <trkpt lat="41.986809996888041" lon="-3.233709996566176">
        <ele>973.08500000000004</ele>
        <time>2021-07-22T03:00:04Z</time>
      </trkpt>
      <trkpt lat="41.987109985202551" lon="-3.234460009261966">
        <ele>979.04999999999995</ele>
        <time>2021-07-22T03:00:33Z</time>
      </trkpt>
      <trkpt lat="41.987169999629259" lon="-3.234710041433573">
        <ele>977.06399999999996</ele>
        <time>2021-07-22T03:00:41Z</time>
      </trkpt>
      <trkpt lat="41.987179974094033" lon="-3.2349400408566">
        <ele>977.01599999999996</ele>
        <time>2021-07-22T03:00:48Z</time>
      </trkpt>
      <trkpt lat="41.987100010737777" lon="-3.23620998300612">
        <ele>973.07799999999997</ele>
        <time>2021-07-22T03:01:39Z</time>
      </trkpt>
      <trkpt lat="41.987070003524423" lon="-3.236409975215793">
        <ele>972.08699999999999</ele>
        <time>2021-07-22T03:01:43Z</time>
      </trkpt>
      <trkpt lat="41.986930025741458" lon="-3.236750029027462">
        <ele>968.04300000000001</ele>
        <time>2021-07-22T03:01:54Z</time>
      </trkpt>
      <trkpt lat="41.98684997856617" lon="-3.237150013446808">
        <ele>968.06399999999996</ele>
        <time>2021-07-22T03:01:56Z</time>
      </trkpt>
      <trkpt lat="41.986579997465014" lon="-3.238909961655736">
        <ele>966.00999999999999</ele>
        <time>2021-07-22T03:02:01Z</time>
      </trkpt>
      <trkpt lat="41.986429961398244" lon="-3.23941002599895">
        <ele>966.00800000000004</ele>
        <time>2021-07-22T03:02:03Z</time>
      </trkpt>
      <trkpt lat="41.98601002804935" lon="-3.240620037540793">
        <ele>960.06100000000004</ele>
        <time>2021-07-22T03:02:28Z</time>
      </trkpt>
      <trkpt lat="41.985910031944513" lon="-3.241099985316396">
        <ele>953.072</ele>
        <time>2021-07-22T03:02:43Z</time>
      </trkpt>
      <trkpt lat="41.985910031944513" lon="-3.241520002484322">
        <ele>954.08199999999999</ele>
        <time>2021-07-22T03:02:49Z</time>
      </trkpt>
      <trkpt lat="41.98596996255219" lon="-3.241889979690313">
        <ele>957.05700000000002</ele>
        <time>2021-07-22T03:03:02Z</time>
      </trkpt>
      <trkpt lat="41.986329965293407" lon="-3.242779970169067">
        <ele>957.01099999999997</ele>
        <time>2021-07-22T03:03:09Z</time>
      </trkpt>
      <trkpt lat="41.986830029636621" lon="-3.24385997839272">
        <ele>956.06299999999999</ele>
        <time>2021-07-22T03:03:18Z</time>
      </trkpt>
      <trkpt lat="41.991430018097162" lon="-3.254180029034615">
        <ele>956.05499999999995</ele>
        <time>2021-07-22T03:03:25Z</time>
      </trkpt>
      <trkpt lat="41.991869984194636" lon="-3.255040012300015">
        <ele>956.05399999999997</ele>
        <time>2021-07-22T03:03:27Z</time>
      </trkpt>
      <trkpt lat="41.992469960823655" lon="-3.256029998883605">
        <ele>956.09699999999998</ele>
        <time>2021-07-22T03:03:35Z</time>
      </trkpt>
      <trkpt lat="41.993170017376542" lon="-3.257040018215776">
        <ele>956.02300000000002</ele>
        <time>2021-07-22T03:03:37Z</time>
      </trkpt>
      <trkpt lat="41.994020026177168" lon="-3.25806001201272">
        <ele>957.02499999999998</ele>
        <time>2021-07-22T03:03:40Z</time>
      </trkpt>
      <trkpt lat="41.994439959526062" lon="-3.258510036394">
        <ele>958.00800000000004</ele>
        <time>2021-07-22T03:03:46Z</time>
      </trkpt>
      <trkpt lat="41.995530026033521" lon="-3.259519971907139">
        <ele>956.04600000000005</ele>
        <time>2021-07-22T03:04:01Z</time>
      </trkpt>
      <trkpt lat="42.003600038588047" lon="-3.266850030049682">
        <ele>953.06700000000001</ele>
        <time>2021-07-22T03:04:28Z</time>
      </trkpt>
      <trkpt lat="42.004079986363649" lon="-3.267199974507093">
        <ele>954.01700000000005</ele>
        <time>2021-07-22T03:04:30Z</time>
      </trkpt>
      <trkpt lat="42.004560017958283" lon="-3.267480013892055">
        <ele>957.09199999999998</ele>
        <time>2021-07-22T03:04:35Z</time>
      </trkpt>
      <trkpt lat="42.01185998506844" lon="-3.272100035101175">
        <ele>962.01599999999996</ele>
        <time>2021-07-22T03:04:52Z</time>
      </trkpt>
      <trkpt lat="42.016770020127296" lon="-3.275169990956783">
        <ele>980.02800000000002</ele>
        <time>2021-07-22T03:07:18Z</time>
      </trkpt>
      <trkpt lat="42.018269961699843" lon="-3.276140028610826">
        <ele>975.01999999999998</ele>
        <time>2021-07-22T03:07:34Z</time>
      </trkpt>
      <trkpt lat="42.018610015511513" lon="-3.276479998603463">
        <ele>971.06899999999996</ele>
        <time>2021-07-22T03:07:42Z</time>
      </trkpt>
      <trkpt lat="42.018859963864088" lon="-3.276840001344681">
        <ele>969.09500000000003</ele>
        <time>2021-07-22T03:07:49Z</time>
      </trkpt>
      <trkpt lat="42.020599963143468" lon="-3.279980029910803">
        <ele>968.04899999999998</ele>
        <time>2021-07-22T03:07:59Z</time>
      </trkpt>
      <trkpt lat="42.02068998478353" lon="-3.28021002933383">
        <ele>969.02300000000002</ele>
        <time>2021-07-22T03:08:06Z</time>
      </trkpt>
      <trkpt lat="42.020919984206557" lon="-3.280979990959168">
        <ele>971.00800000000004</ele>
        <time>2021-07-22T03:08:20Z</time>
      </trkpt>
      <trkpt lat="42.020979998633265" lon="-3.281100019812584">
        <ele>970.07600000000002</ele>
        <time>2021-07-22T03:08:26Z</time>
      </trkpt>
      <trkpt lat="42.021189965307713" lon="-3.281379975378513">
        <ele>967.077</ele>
        <time>2021-07-22T03:08:34Z</time>
      </trkpt>
      <trkpt lat="42.021240005269647" lon="-3.281509978696704">
        <ele>967.05700000000002</ele>
        <time>2021-07-22T03:08:39Z</time>
      </trkpt>
      <trkpt lat="42.021809974685311" lon="-3.28326003625989">
        <ele>965.05200000000002</ele>
        <time>2021-07-22T03:10:29Z</time>
      </trkpt>
      <trkpt lat="42.022050032392144" lon="-3.284320011734963">
        <ele>964.03599999999994</ele>
        <time>2021-07-22T03:11:01Z</time>
      </trkpt>
      <trkpt lat="42.022109962999821" lon="-3.284759977832437">
        <ele>956.07799999999997</ele>
        <time>2021-07-22T03:11:31Z</time>
      </trkpt>
      <trkpt lat="42.022160002961755" lon="-3.285769997164607">
        <ele>956.01999999999998</ele>
        <time>2021-07-22T03:12:03Z</time>
      </trkpt>
      <trkpt lat="42.022229991853237" lon="-3.286290010437369">
        <ele>956.06899999999996</ele>
        <time>2021-07-22T03:13:06Z</time>
      </trkpt>
      <trkpt lat="42.022359995171428" lon="-3.286970034241676">
        <ele>947.06100000000004</ele>
        <time>2021-07-22T03:13:38Z</time>
      </trkpt>
      <trkpt lat="42.022080039605498" lon="-3.28730002976954">
        <ele>941.02099999999996</ele>
        <time>2021-07-22T03:17:33Z</time>
      </trkpt>
      <trkpt lat="42.02199999243021" lon="-3.287440007552505">
        <ele>939.01300000000003</ele>
        <time>2021-07-22T03:18:05Z</time>
      </trkpt>
      <trkpt lat="42.021820032969117" lon="-3.287979969754815">
        <ele>941.00800000000004</ele>
        <time>2021-07-22T03:18:29Z</time>
      </trkpt>
      <trkpt lat="42.021760018542409" lon="-3.288079965859652">
        <ele>943.02300000000002</ele>
        <time>2021-07-22T03:18:41Z</time>
      </trkpt>
      <trkpt lat="42.021909970790148" lon="-3.288169987499714">
        <ele>945.01400000000001</ele>
        <time>2021-07-22T03:18:49Z</time>
      </trkpt>
      <trkpt lat="42.022199984639883" lon="-3.288399986922741">
        <ele>945.07399999999996</ele>
        <time>2021-07-22T03:18:57Z</time>
      </trkpt>
      <trkpt lat="42.022819994017482" lon="-3.28917003236711">
        <ele>945.03899999999999</ele>
        <time>2021-07-22T03:19:16Z</time>
      </trkpt>
      <trkpt lat="42.023809980601072" lon="-3.290699981153011">
        <ele>944.09299999999996</ele>
        <time>2021-07-22T03:19:28Z</time>
      </trkpt>
      <trkpt lat="42.023869995027781" lon="-3.290850017219782">
        <ele>949.04499999999996</ele>
        <time>2021-07-22T03:19:38Z</time>
      </trkpt>
      <trkpt lat="42.023800006136298" lon="-3.291229968890548">
        <ele>953.01700000000005</ele>
        <time>2021-07-22T03:19:47Z</time>
      </trkpt>
      <trkpt lat="42.023400021716952" lon="-3.292439980432391">
        <ele>953.08600000000001</ele>
        <time>2021-07-22T03:19:53Z</time>
      </trkpt>
      <trkpt lat="42.020780006423593" lon="-3.302849968895316">
        <ele>953.06600000000003</ele>
        <time>2021-07-22T03:20:02Z</time>
      </trkpt>
      <trkpt lat="42.02055998146534" lon="-3.304050005972385">
        <ele>954.029</ele>
        <time>2021-07-22T03:20:42Z</time>
      </trkpt>
      <trkpt lat="42.020540032535791" lon="-3.304649982601404">
        <ele>952.02099999999996</ele>
        <time>2021-07-22T03:21:02Z</time>
      </trkpt>
      <trkpt lat="42.020589988678694" lon="-3.305209977552295">
        <ele>949.00800000000004</ele>
        <time>2021-07-22T03:21:12Z</time>
      </trkpt>
      <trkpt lat="42.020759973675013" lon="-3.30592998303473">
        <ele>945.053</ele>
        <time>2021-07-22T03:21:26Z</time>
      </trkpt>
      <trkpt lat="42.020919984206557" lon="-3.306370032951236">
        <ele>942.03399999999999</ele>
        <time>2021-07-22T03:21:41Z</time>
      </trkpt>
      <trkpt lat="42.021319968625903" lon="-3.307309979572892">
        <ele>941.05399999999997</ele>
        <time>2021-07-22T03:21:56Z</time>
      </trkpt>
      <trkpt lat="42.0214600302279" lon="-3.307720022276044">
        <ele>940.03899999999999</ele>
        <time>2021-07-22T03:22:10Z</time>
      </trkpt>
      <trkpt lat="42.021600008010864" lon="-3.30825001001358">
        <ele>936.09299999999996</ele>
        <time>2021-07-22T03:22:47Z</time>
      </trkpt>
      <trkpt lat="42.021649964153767" lon="-3.3086599688977">
        <ele>937.09500000000003</ele>
        <time>2021-07-22T03:23:02Z</time>
      </trkpt>
      <trkpt lat="42.023419970646501" lon="-3.316659992560744">
        <ele>939.077</ele>
        <time>2021-07-22T03:23:20Z</time>
      </trkpt>
      <trkpt lat="42.023990023881197" lon="-3.318910030648112">
        <ele>940.06600000000003</ele>
        <time>2021-07-22T03:23:36Z</time>
      </trkpt>
      <trkpt lat="42.02462000772357" lon="-3.321020007133484">
        <ele>940.02099999999996</ele>
        <time>2021-07-22T03:23:46Z</time>
      </trkpt>
      <trkpt lat="42.025349987670779" lon="-3.323210030794144">
        <ele>940.04100000000005</ele>
        <time>2021-07-22T03:23:52Z</time>
      </trkpt>
      <trkpt lat="42.02694003470242" lon="-3.327510030940175">
        <ele>940.005</ele>
        <time>2021-07-22T03:23:58Z</time>
      </trkpt>
      <trkpt lat="42.027819966897368" lon="-3.329629981890321">
        <ele>939.00800000000004</ele>
        <time>2021-07-22T03:24:02Z</time>
      </trkpt>
      <trkpt lat="42.034809971228242" lon="-3.344699973240495">
        <ele>938.09900000000005</ele>
        <time>2021-07-22T03:24:15Z</time>
      </trkpt>
      <trkpt lat="42.035800041630864" lon="-3.346690004691482">
        <ele>936.04999999999995</ele>
        <time>2021-07-22T03:26:10Z</time>
      </trkpt>
      <trkpt lat="42.03660998493433" lon="-3.348200004547834">
        <ele>940.09000000000003</ele>
        <time>2021-07-22T03:26:29Z</time>
      </trkpt>
      <trkpt lat="42.036939980462193" lon="-3.34892001003027">
        <ele>944.02499999999998</ele>
        <time>2021-07-22T03:26:37Z</time>
      </trkpt>
      <trkpt lat="42.037109965458512" lon="-3.34950003772974">
        <ele>946.08900000000006</ele>
        <time>2021-07-22T03:26:45Z</time>
      </trkpt>
      <trkpt lat="42.037239968776703" lon="-3.350119963288307">
        <ele>945.08100000000002</ele>
        <time>2021-07-22T03:26:54Z</time>
      </trkpt>
      <trkpt lat="42.037420012056828" lon="-3.351549999788404">
        <ele>942.04300000000001</ele>
        <time>2021-07-22T03:27:23Z</time>
      </trkpt>
      <trkpt lat="42.037580022588372" lon="-3.352400008589029">
        <ele>939.03200000000004</ele>
        <time>2021-07-22T03:27:39Z</time>
      </trkpt>
      <trkpt lat="42.037810022011399" lon="-3.35306997410953">
        <ele>939.09299999999996</ele>
        <time>2021-07-22T03:27:49Z</time>
      </trkpt>
      <trkpt lat="42.03807002864778" lon="-3.353629969060421">
        <ele>937.06500000000005</ele>
        <time>2021-07-22T03:28:13Z</time>
      </trkpt>
      <trkpt lat="42.038310002535582" lon="-3.354030037298799">
        <ele>935.02099999999996</ele>
        <time>2021-07-22T03:28:34Z</time>
      </trkpt>
      <trkpt lat="42.038670005276799" lon="-3.354509985074401">
        <ele>929.00800000000004</ele>
        <time>2021-07-22T03:29:23Z</time>
      </trkpt>
      <trkpt lat="42.040280001237988" lon="-3.35657000541687">
        <ele>926.096</ele>
        <time>2021-07-22T03:29:54Z</time>
      </trkpt>
      <trkpt lat="42.041109977290034" lon="-3.357559992000461">
        <ele>925.02700000000004</ele>
        <time>2021-07-22T03:31:35Z</time>
      </trkpt>
      <trkpt lat="42.041499987244606" lon="-3.358100038021803">
        <ele>924.01700000000005</ele>
        <time>2021-07-22T03:31:54Z</time>
      </trkpt>
      <trkpt lat="42.042129971086979" lon="-3.358800010755658">
        <ele>926.08199999999999</ele>
        <time>2021-07-22T03:32:18Z</time>
      </trkpt>
      <trkpt lat="42.042809994891286" lon="-3.359499983489513">
        <ele>924.08600000000001</ele>
        <time>2021-07-22T03:32:37Z</time>
      </trkpt>
      <trkpt lat="42.043499993160367" lon="-3.360119992867112">
        <ele>924.05799999999999</ele>
        <time>2021-07-22T03:32:54Z</time>
      </trkpt>
      <trkpt lat="42.044169958680868" lon="-3.360679987818003">
        <ele>926.07000000000005</ele>
        <time>2021-07-22T03:36:06Z</time>
      </trkpt>
      <trkpt lat="42.04602001234889" lon="-3.362010028213263">
        <ele>922.03899999999999</ele>
        <time>2021-07-22T03:36:43Z</time>
      </trkpt>
      <trkpt lat="42.046719985082746" lon="-3.362619979307056">
        <ele>921.05799999999999</ele>
        <time>2021-07-22T03:36:53Z</time>
      </trkpt>
      <trkpt lat="42.047479972243309" lon="-3.363450039178133">
        <ele>921.05200000000002</ele>
        <time>2021-07-22T03:37:04Z</time>
      </trkpt>
      <trkpt lat="42.04816997051239" lon="-3.364289989694953">
        <ele>924.01700000000005</ele>
        <time>2021-07-22T03:37:15Z</time>
      </trkpt>
      <trkpt lat="42.048529973253608" lon="-3.364819977432489">
        <ele>925.00800000000004</ele>
        <time>2021-07-22T03:37:24Z</time>
      </trkpt>
      <trkpt lat="42.048710016533732" lon="-3.365219961851835">
        <ele>925.02200000000005</ele>
        <time>2021-07-22T03:37:34Z</time>
      </trkpt>
      <trkpt lat="42.048849994316697" lon="-3.365620030090213">
        <ele>925.09299999999996</ele>
        <time>2021-07-22T03:37:39Z</time>
      </trkpt>
      <trkpt lat="42.048919983208179" lon="-3.365909960120916">
        <ele>927.07299999999998</ele>
        <time>2021-07-22T03:37:46Z</time>
      </trkpt>
      <trkpt lat="42.049089968204498" lon="-3.366889972239733">
        <ele>929.08799999999997</ele>
        <time>2021-07-22T03:38:09Z</time>
      </trkpt>
      <trkpt lat="42.050399975851178" lon="-3.375449990853667">
        <ele>931.03200000000004</ele>
        <time>2021-07-22T03:38:18Z</time>
      </trkpt>
      <trkpt lat="42.050629975274205" lon="-3.376799980178475">
        <ele>931.08399999999995</ele>
        <time>2021-07-22T03:38:22Z</time>
      </trkpt>
      <trkpt lat="42.050770036876202" lon="-3.377359975129366">
        <ele>933.04600000000005</ele>
        <time>2021-07-22T03:38:32Z</time>
      </trkpt>
      <trkpt lat="42.050959970802069" lon="-3.377919970080257">
        <ele>934.05499999999995</ele>
        <time>2021-07-22T03:38:39Z</time>
      </trkpt>
      <trkpt lat="42.051230035722256" lon="-3.378539979457855">
        <ele>934.06600000000003</ele>
        <time>2021-07-22T03:38:45Z</time>
      </trkpt>
      <trkpt lat="42.05220996402204" lon="-3.380239997059107">
        <ele>934.029</ele>
        <time>2021-07-22T03:38:53Z</time>
      </trkpt>
      <trkpt lat="42.052759984508157" lon="-3.381269965320826">
        <ele>934.02099999999996</ele>
        <time>2021-07-22T03:39:00Z</time>
      </trkpt>
      <trkpt lat="42.053059972822666" lon="-3.381870025768876">
        <ele>933.00800000000004</ele>
        <time>2021-07-22T03:39:03Z</time>
      </trkpt>
      <trkpt lat="42.053779978305101" lon="-3.383440040051937">
        <ele>945.01300000000003</ele>
        <time>2021-07-22T03:40:22Z</time>
      </trkpt>
      <trkpt lat="42.054320024326444" lon="-3.384779971092939">
        <ele>949.06399999999996</ele>
        <time>2021-07-22T03:41:20Z</time>
      </trkpt>
      <trkpt lat="42.055519977584481" lon="-3.388180006295443">
        <ele>951.01400000000001</ele>
        <time>2021-07-22T03:41:34Z</time>
      </trkpt>
      <trkpt lat="42.056360011920333" lon="-3.390180012211204">
        <ele>951.08900000000006</ele>
        <time>2021-07-22T03:41:45Z</time>
      </trkpt>
      <trkpt lat="42.059440026059747" lon="-3.396629970520735">
        <ele>956.08299999999997</ele>
        <time>2021-07-22T03:42:15Z</time>
      </trkpt>
      <trkpt lat="42.060040002688766" lon="-3.39782003313303">
        <ele>959.06500000000005</ele>
        <time>2021-07-22T03:42:32Z</time>
      </trkpt>
      <trkpt lat="42.060760008171201" lon="-3.399389963597059">
        <ele>965.06700000000001</ele>
        <time>2021-07-22T03:44:06Z</time>
      </trkpt>
      <trkpt lat="42.061139959841967" lon="-3.400740036740899">
        <ele>966.01599999999996</ele>
        <time>2021-07-22T03:44:14Z</time>
      </trkpt>
      <trkpt lat="42.061399966478348" lon="-3.401979971677065">
        <ele>971.04100000000005</ele>
        <time>2021-07-22T03:44:34Z</time>
      </trkpt>
      <trkpt lat="42.064619958400726" lon="-3.415820002555847">
        <ele>977.08100000000002</ele>
        <time>2021-07-22T03:44:59Z</time>
      </trkpt>
      <trkpt lat="42.06542001105845" lon="-3.418389977887273">
        <ele>977.00900000000001</ele>
        <time>2021-07-22T03:45:12Z</time>
      </trkpt>
      <trkpt lat="42.065689992159605" lon="-3.41909003444016">
        <ele>998.00800000000004</ele>
        <time>2021-07-22T03:48:52Z</time>
      </trkpt>
      <trkpt lat="42.066029962152243" lon="-3.419739967212081">
        <ele>996.02099999999996</ele>
        <time>2021-07-22T03:49:23Z</time>
      </trkpt>
      <trkpt lat="42.066479986533523" lon="-3.420329969376326">
        <ele>1001.0119999999999</ele>
        <time>2021-07-22T03:49:54Z</time>
      </trkpt>
      <trkpt lat="42.066890029236674" lon="-3.420740012079477">
        <ele>1010.052</ele>
        <time>2021-07-22T03:50:30Z</time>
      </trkpt>
      <trkpt lat="42.067380035296082" lon="-3.421139996498823">
        <ele>1014.077</ele>
        <time>2021-07-22T03:50:43Z</time>
      </trkpt>
      <trkpt lat="42.067650016397238" lon="-3.421300007030368">
        <ele>1015.091</ele>
        <time>2021-07-22T03:50:51Z</time>
      </trkpt>
      <trkpt lat="42.06801999360323" lon="-3.421479966491461">
        <ele>1016.043</ele>
        <time>2021-07-22T03:50:58Z</time>
      </trkpt>
      <trkpt lat="42.069250037893653" lon="-3.421980030834675">
        <ele>1020.015</ele>
        <time>2021-07-22T03:51:12Z</time>
      </trkpt>
      <trkpt lat="42.069729985669255" lon="-3.422240037471056">
        <ele>1022.054</ele>
        <time>2021-07-22T03:51:19Z</time>
      </trkpt>
      <trkpt lat="42.069920003414154" lon="-3.422370040789247">
        <ele>1023.043</ele>
        <time>2021-07-22T03:51:26Z</time>
      </trkpt>
      <trkpt lat="42.070380002260208" lon="-3.422749992460012">
        <ele>1024.0640000000001</ele>
        <time>2021-07-22T03:51:37Z</time>
      </trkpt>
      <trkpt lat="42.070700023323298" lon="-3.42308996245265">
        <ele>1031.01</ele>
        <time>2021-07-22T03:52:38Z</time>
      </trkpt>
      <trkpt lat="42.070939997211099" lon="-3.423370001837611">
        <ele>1037.008</ele>
        <time>2021-07-22T03:52:48Z</time>
      </trkpt>
      <trkpt lat="42.071239985525608" lon="-3.423839975148439">
        <ele>1038.0609999999999</ele>
        <time>2021-07-22T03:52:56Z</time>
      </trkpt>
      <trkpt lat="42.071469984948635" lon="-3.424280025064945">
        <ele>1040.0719999999999</ele>
        <time>2021-07-22T03:53:06Z</time>
      </trkpt>
      <trkpt lat="42.071550032123923" lon="-3.424480017274618">
        <ele>1041.0920000000001</ele>
        <time>2021-07-22T03:53:14Z</time>
      </trkpt>
      <trkpt lat="42.073449958115816" lon="-3.429870000109077">
        <ele>1043.027</ele>
        <time>2021-07-22T03:53:23Z</time>
      </trkpt>
      <trkpt lat="42.075089961290359" lon="-3.4336799941957">
        <ele>1047.0709999999999</ele>
        <time>2021-07-22T03:53:34Z</time>
      </trkpt>
      <trkpt lat="42.075509978458285" lon="-3.434569984674454">
        <ele>1049.0930000000001</ele>
        <time>2021-07-22T03:53:43Z</time>
      </trkpt>
      <trkpt lat="42.075890013948083" lon="-3.435259982943535">
        <ele>1049.0550000000001</ele>
        <time>2021-07-22T03:53:48Z</time>
      </trkpt>
      <trkpt lat="42.076970022171736" lon="-3.437020014971495">
        <ele>1049.0540000000001</ele>
        <time>2021-07-22T03:53:57Z</time>
      </trkpt>
      <trkpt lat="42.077530017122626" lon="-3.438030034303665">
        <ele>1049.039</ele>
        <time>2021-07-22T03:55:25Z</time>
      </trkpt>
      <trkpt lat="42.08045999519527" lon="-3.443940030410886">
        <ele>1052.001</ele>
        <time>2021-07-22T03:55:36Z</time>
      </trkpt>
      <trkpt lat="42.080729976296425" lon="-3.444430036470294">
        <ele>1052.021</ele>
        <time>2021-07-22T03:55:49Z</time>
      </trkpt>
      <trkpt lat="42.081440007314086" lon="-3.445590008050203">
        <ele>1055.008</ele>
        <time>2021-07-22T03:56:04Z</time>
      </trkpt>
      <trkpt lat="42.082409961149096" lon="-3.44700001180172">
        <ele>1055.0699999999999</ele>
        <time>2021-07-22T03:56:14Z</time>
      </trkpt>
      <trkpt lat="42.082840036600828" lon="-3.447739966213703">
        <ele>1053.021</ele>
        <time>2021-07-22T03:56:57Z</time>
      </trkpt>
      <trkpt lat="42.090149978175759" lon="-3.461250001564622">
        <ele>1057.021</ele>
        <time>2021-07-22T03:57:25Z</time>
      </trkpt>
      <trkpt lat="42.091129990294576" lon="-3.463140036910772">
        <ele>1058.0160000000001</ele>
        <time>2021-07-22T03:57:30Z</time>
      </trkpt>
      <trkpt lat="42.092100027948618" lon="-3.465099977329373">
        <ele>1061.0899999999999</ele>
        <time>2021-07-22T03:57:40Z</time>
      </trkpt>
      <trkpt lat="42.093199985101819" lon="-3.467420004308224">
        <ele>1059.0119999999999</ele>
        <time>2021-07-22T03:57:55Z</time>
      </trkpt>
      <trkpt lat="42.093529980629683" lon="-3.468309994786978">
        <ele>1056.0239999999999</ele>
        <time>2021-07-22T03:58:24Z</time>
      </trkpt>
      <trkpt lat="42.093659983947873" lon="-3.46883000805974">
        <ele>1057.0229999999999</ele>
        <time>2021-07-22T03:58:35Z</time>
      </trkpt>
      <trkpt lat="42.09375998005271" lon="-3.469399977475405">
        <ele>1056.0260000000001</ele>
        <time>2021-07-22T03:58:53Z</time>
      </trkpt>
      <trkpt lat="42.093819994479418" lon="-3.470440004020929">
        <ele>1058.047</ele>
        <time>2021-07-22T03:59:27Z</time>
      </trkpt>
      <trkpt lat="42.093789987266064" lon="-3.47097996622324">
        <ele>1058.011</ele>
        <time>2021-07-22T03:59:34Z</time>
      </trkpt>
      <trkpt lat="42.093729972839355" lon="-3.471490005031228">
        <ele>1060.008</ele>
        <time>2021-07-22T04:00:59Z</time>
      </trkpt>
      <trkpt lat="42.093569962307811" lon="-3.4723100066185">
        <ele>1062.059</ele>
        <time>2021-07-22T04:01:23Z</time>
      </trkpt>
      <trkpt lat="42.092519961297512" lon="-3.476670021191239">
        <ele>1065.0799999999999</ele>
        <time>2021-07-22T04:02:57Z</time>
      </trkpt>
      <trkpt lat="42.092370009049773" lon="-3.477439982816577">
        <ele>1065.01</ele>
        <time>2021-07-22T04:03:10Z</time>
      </trkpt>
      <trkpt lat="42.092309994623065" lon="-3.478039959445596">
        <ele>1065.085</ele>
        <time>2021-07-22T04:03:28Z</time>
      </trkpt>
      <trkpt lat="42.092300020158291" lon="-3.478759964928031">
        <ele>1071.059</ele>
        <time>2021-07-22T04:03:54Z</time>
      </trkpt>
      <trkpt lat="42.092340001836419" lon="-3.47940000705421">
        <ele>1069.021</ele>
        <time>2021-07-22T04:05:59Z</time>
      </trkpt>
      <trkpt lat="42.092430023476481" lon="-3.480069972574711">
        <ele>1037.0329999999999</ele>
        <time>2021-07-22T04:11:55Z</time>
      </trkpt>
      <trkpt lat="42.092609982937574" lon="-3.480800036340952">
        <ele>1036.0119999999999</ele>
        <time>2021-07-22T04:12:10Z</time>
      </trkpt>
      <trkpt lat="42.092839982360601" lon="-3.481449969112873">
        <ele>1036.0170000000001</ele>
        <time>2021-07-22T04:12:22Z</time>
      </trkpt>
      <trkpt lat="42.092979960143566" lon="-3.481799997389317">
        <ele>1036.087</ele>
        <time>2021-07-22T04:12:38Z</time>
      </trkpt>
      <trkpt lat="42.093259999528527" lon="-3.482369966804981">
        <ele>1033.0150000000001</ele>
        <time>2021-07-22T04:13:14Z</time>
      </trkpt>
      <trkpt lat="42.096089981496334" lon="-3.487760033458471">
        <ele>1033.008</ele>
        <time>2021-07-22T04:13:30Z</time>
      </trkpt>
      <trkpt lat="42.096449984237552" lon="-3.488520020619035">
        <ele>1028.028</ele>
        <time>2021-07-22T04:13:55Z</time>
      </trkpt>
      <trkpt lat="42.096800012513995" lon="-3.489349996671081">
        <ele>1024.059</ele>
        <time>2021-07-22T04:14:59Z</time>
      </trkpt>
      <trkpt lat="42.097160015255213" lon="-3.490350041538477">
        <ele>1024.069</ele>
        <time>2021-07-22T04:15:09Z</time>
      </trkpt>
      <trkpt lat="42.097450029104948" lon="-3.491059988737106">
        <ele>1024.0940000000001</ele>
        <time>2021-07-22T04:15:17Z</time>
      </trkpt>
      <trkpt lat="42.098870007321239" lon="-3.493629964068532">
        <ele>1026.088</ele>
        <time>2021-07-22T04:15:29Z</time>
      </trkpt>
      <trkpt lat="42.099780030548573" lon="-3.495369963347912">
        <ele>1028.0899999999999</ele>
        <time>2021-07-22T04:15:36Z</time>
      </trkpt>
      <trkpt lat="42.099920008331537" lon="-3.495710017159581">
        <ele>1031.0519999999999</ele>
        <time>2021-07-22T04:15:47Z</time>
      </trkpt>
      <trkpt lat="42.100219996646047" lon="-3.496319968253374">
        <ele>1032.0309999999999</ele>
        <time>2021-07-22T04:15:52Z</time>
      </trkpt>
      <trkpt lat="42.100630039349198" lon="-3.497339962050319">
        <ele>1032.0440000000001</ele>
        <time>2021-07-22T04:15:59Z</time>
      </trkpt>
      <trkpt lat="42.101260023191571" lon="-3.499350026249886">
        <ele>1031.0050000000001</ele>
        <time>2021-07-22T04:16:14Z</time>
      </trkpt>
      <trkpt lat="42.101539978757501" lon="-3.500129962339997">
        <ele>1030.0150000000001</ele>
        <time>2021-07-22T04:16:54Z</time>
      </trkpt>
      <trkpt lat="42.102039959281683" lon="-3.501260010525584">
        <ele>1031.008</ele>
        <time>2021-07-22T04:17:19Z</time>
      </trkpt>
      <trkpt lat="42.103109993040562" lon="-3.503480041399598">
        <ele>1042.011</ele>
        <time>2021-07-22T04:20:20Z</time>
      </trkpt>
      <trkpt lat="42.10327997803688" lon="-3.503880025818944">
        <ele>1042.0820000000001</ele>
        <time>2021-07-22T04:20:36Z</time>
      </trkpt>
      <trkpt lat="42.105419961735606" lon="-3.509639985859394">
        <ele>1043.0619999999999</ele>
        <time>2021-07-22T04:20:46Z</time>
      </trkpt>
      <trkpt lat="42.106109960004687" lon="-3.511230032891035">
        <ele>1044.047</ele>
        <time>2021-07-22T04:20:55Z</time>
      </trkpt>
      <trkpt lat="42.108899960294366" lon="-3.517240025103092">
        <ele>1043.0709999999999</ele>
        <time>2021-07-22T04:21:03Z</time>
      </trkpt>
      <trkpt lat="42.109310002997518" lon="-3.518070001155138">
        <ele>1043.0630000000001</ele>
        <time>2021-07-22T04:21:12Z</time>
      </trkpt>
      <trkpt lat="42.109909979626536" lon="-3.519180016592145">
        <ele>1023.095</ele>
        <time>2021-07-22T04:23:53Z</time>
      </trkpt>
      <trkpt lat="42.11082000285387" lon="-3.52078003808856">
        <ele>1021.034</ele>
        <time>2021-07-22T04:24:09Z</time>
      </trkpt>
      <trkpt lat="42.114920010790229" lon="-3.528460040688515">
        <ele>1019.013</ele>
        <time>2021-07-22T04:24:23Z</time>
      </trkpt>
      <trkpt lat="42.125520016998053" lon="-3.55126996524632">
        <ele>1008.043</ele>
        <time>2021-07-22T04:26:07Z</time>
      </trkpt>
      <trkpt lat="42.125940034165978" lon="-3.552289959043264">
        <ele>1006.0069999999999</ele>
        <time>2021-07-22T04:26:36Z</time>
      </trkpt>
      <trkpt lat="42.126240022480488" lon="-3.553090011700988">
        <ele>1009.008</ele>
        <time>2021-07-22T04:27:04Z</time>
      </trkpt>
      <trkpt lat="42.126600025221705" lon="-3.554179994389415">
        <ele>998.06799999999998</ele>
        <time>2021-07-22T04:28:43Z</time>
      </trkpt>
      <trkpt lat="42.127360012382269" lon="-3.556760028004646">
        <ele>999.07899999999995</ele>
        <time>2021-07-22T04:29:20Z</time>
      </trkpt>
      <trkpt lat="42.127660000696778" lon="-3.55792997404933">
        <ele>998.04899999999998</ele>
        <time>2021-07-22T04:29:53Z</time>
      </trkpt>
      <trkpt lat="42.128020003437996" lon="-3.559739962220192">
        <ele>997.03399999999999</ele>
        <time>2021-07-22T04:30:06Z</time>
      </trkpt>
      <trkpt lat="42.128740008920431" lon="-3.564480012282729">
        <ele>989.03800000000001</ele>
        <time>2021-07-22T04:31:14Z</time>
      </trkpt>
      <trkpt lat="42.128900019451976" lon="-3.565230024978519">
        <ele>989.04999999999995</ele>
        <time>2021-07-22T04:31:21Z</time>
      </trkpt>
      <trkpt lat="42.129079978913069" lon="-3.565730005502701">
        <ele>975.02200000000005</ele>
        <time>2021-07-22T04:33:21Z</time>
      </trkpt>
      <trkpt lat="42.129499996080995" lon="-3.566429978236556">
        <ele>980.03099999999995</ele>
        <time>2021-07-22T04:33:47Z</time>
      </trkpt>
      <trkpt lat="42.129799984395504" lon="-3.56680003926158">
        <ele>983.03099999999995</ele>
        <time>2021-07-22T04:33:56Z</time>
      </trkpt>
      <trkpt lat="42.130280015990138" lon="-3.567330026999116">
        <ele>987.06100000000004</ele>
        <time>2021-07-22T04:34:04Z</time>
      </trkpt>
      <trkpt lat="42.130540022626519" lon="-3.567570000886917">
        <ele>989.00699999999995</ele>
        <time>2021-07-22T04:34:12Z</time>
      </trkpt>
      <trkpt lat="42.1308000292629" lon="-3.567909970879555">
        <ele>991.00800000000004</ele>
        <time>2021-07-22T04:34:19Z</time>
      </trkpt>
      <trkpt lat="42.1312300208956" lon="-3.568900041282177">
        <ele>992.04999999999995</ele>
        <time>2021-07-22T04:34:29Z</time>
      </trkpt>
      <trkpt lat="42.132269963622093" lon="-3.571560038253665">
        <ele>981.05100000000004</ele>
        <time>2021-07-22T04:35:36Z</time>
      </trkpt>
      <trkpt lat="42.13297002017498" lon="-3.573189983144403">
        <ele>981.04100000000005</ele>
        <time>2021-07-22T04:35:44Z</time>
      </trkpt>
      <trkpt lat="42.138999961316586" lon="-3.58424998819828">
        <ele>982.07600000000002</ele>
        <time>2021-07-22T04:35:50Z</time>
      </trkpt>
      <trkpt lat="42.139560040086508" lon="-3.585260007530451">
        <ele>981.08000000000004</ele>
        <time>2021-07-22T04:35:56Z</time>
      </trkpt>
      <trkpt lat="42.1399300172925" lon="-3.585840035229921">
        <ele>979.06200000000001</ele>
        <time>2021-07-22T04:36:05Z</time>
      </trkpt>
      <trkpt lat="42.140279961749911" lon="-3.58628997579217">
        <ele>976.01400000000001</ele>
        <time>2021-07-22T04:36:15Z</time>
      </trkpt>
      <trkpt lat="42.140639964491129" lon="-3.586700018495321">
        <ele>972.09299999999996</ele>
        <time>2021-07-22T04:36:27Z</time>
      </trkpt>
      <trkpt lat="42.141019999980927" lon="-3.587069995701313">
        <ele>955.05799999999999</ele>
        <time>2021-07-22T04:37:33Z</time>
      </trkpt>
      <trkpt lat="42.148879962041974" lon="-3.593200016766787">
        <ele>953.05200000000002</ele>
        <time>2021-07-22T04:37:42Z</time>
      </trkpt>
      <trkpt lat="42.149610025808215" lon="-3.59380996786058">
        <ele>953.01700000000005</ele>
        <time>2021-07-22T04:37:50Z</time>
      </trkpt>
      <trkpt lat="42.150259958580136" lon="-3.594399970024824">
        <ele>949.00800000000004</ele>
        <time>2021-07-22T04:38:04Z</time>
      </trkpt>
      <trkpt lat="42.155009983107448" lon="-3.599100038409233">
        <ele>943.02200000000005</ele>
        <time>2021-07-22T04:39:03Z</time>
      </trkpt>
      <trkpt lat="42.156310016289353" lon="-3.600429994985461">
        <ele>941.053</ele>
        <time>2021-07-22T04:39:14Z</time>
      </trkpt>
      <trkpt lat="42.157520027831197" lon="-3.601760035380721">
        <ele>936.03300000000002</ele>
        <time>2021-07-22T04:39:25Z</time>
      </trkpt>
      <trkpt lat="42.161750039085746" lon="-3.606560016050935">
        <ele>933.01800000000003</ele>
        <time>2021-07-22T04:39:34Z</time>
      </trkpt>
      <trkpt lat="42.163379983976483" lon="-3.608339997008443">
        <ele>932.05200000000002</ele>
        <time>2021-07-22T04:39:44Z</time>
      </trkpt>
      <trkpt lat="42.164859976619482" lon="-3.609819989651442">
        <ele>933.01400000000001</ele>
        <time>2021-07-22T04:39:51Z</time>
      </trkpt>
      <trkpt lat="42.165489960461855" lon="-3.610389959067106">
        <ele>933.04600000000005</ele>
        <time>2021-07-22T04:39:56Z</time>
      </trkpt>
      <trkpt lat="42.168590007349849" lon="-3.613390009850264">
        <ele>935.07500000000005</ele>
        <time>2021-07-22T04:40:12Z</time>
      </trkpt>
      <trkpt lat="42.168889995664358" lon="-3.613710030913353">
        <ele>935.03899999999999</ele>
        <time>2021-07-22T04:40:36Z</time>
      </trkpt>
      <trkpt lat="42.174379974603653" lon="-3.619000017642975">
        <ele>932.00099999999998</ele>
        <time>2021-07-22T04:40:55Z</time>
      </trkpt>
      <trkpt lat="42.175580011680722" lon="-3.620210029184818">
        <ele>932.02099999999996</ele>
        <time>2021-07-22T04:41:12Z</time>
      </trkpt>
      <trkpt lat="42.175930039957166" lon="-3.620670028030872">
        <ele>924.00800000000004</ele>
        <time>2021-07-22T04:41:41Z</time>
      </trkpt>
      <trkpt lat="42.176170013844967" lon="-3.621140001341701">
        <ele>923.08000000000004</ele>
        <time>2021-07-22T04:41:49Z</time>
      </trkpt>
      <trkpt lat="42.176379980519414" lon="-3.621679963544011">
        <ele>925.03099999999995</ele>
        <time>2021-07-22T04:43:34Z</time>
      </trkpt>
      <trkpt lat="42.17650000937283" lon="-3.622229984030128">
        <ele>926.08100000000002</ele>
        <time>2021-07-22T04:43:39Z</time>
      </trkpt>
      <trkpt lat="42.176579972729087" lon="-3.622979996725917">
        <ele>925.02599999999995</ele>
        <time>2021-07-22T04:43:52Z</time>
      </trkpt>
      <trkpt lat="42.176679968833923" lon="-3.628060016781092">
        <ele>923.00999999999999</ele>
        <time>2021-07-22T04:44:13Z</time>
      </trkpt>
      <trkpt lat="42.176730008795857" lon="-3.628620011731982">
        <ele>923.08199999999999</ele>
        <time>2021-07-22T04:44:18Z</time>
      </trkpt>
      <trkpt lat="42.176809972152114" lon="-3.629099959507585">
        <ele>923.024</ele>
        <time>2021-07-22T04:44:31Z</time>
      </trkpt>
      <trkpt lat="42.176920026540756" lon="-3.62951997667551">
        <ele>923.03300000000002</ele>
        <time>2021-07-22T04:44:41Z</time>
      </trkpt>
      <trkpt lat="42.177180033177137" lon="-3.630139986053109">
        <ele>921.02800000000002</ele>
        <time>2021-07-22T04:45:19Z</time>
      </trkpt>
      <trkpt lat="42.177540035918355" lon="-3.630710039287806">
        <ele>920.08900000000006</ele>
        <time>2021-07-22T04:45:30Z</time>
      </trkpt>
      <trkpt lat="42.178049990907311" lon="-3.631240027025342">
        <ele>918.01700000000005</ele>
        <time>2021-07-22T04:45:50Z</time>
      </trkpt>
      <trkpt lat="42.181220026686788" lon="-3.633870016783476">
        <ele>916.00800000000004</ele>
        <time>2021-07-22T04:46:00Z</time>
      </trkpt>
      <trkpt lat="42.181620011106133" lon="-3.634219961240888">
        <ele>913.01900000000001</ele>
        <time>2021-07-22T04:46:11Z</time>
      </trkpt>
      <trkpt lat="42.181989988312125" lon="-3.634590022265911">
        <ele>909.08000000000004</ele>
        <time>2021-07-22T04:46:19Z</time>
      </trkpt>
      <trkpt lat="42.18257999047637" lon="-3.635280020534992">
        <ele>912.01999999999998</ele>
        <time>2021-07-22T04:48:05Z</time>
      </trkpt>
      <trkpt lat="42.185049969702959" lon="-3.638360034674406">
        <ele>909.03499999999997</ele>
        <time>2021-07-22T04:48:16Z</time>
      </trkpt>
      <trkpt lat="42.185520026832819" lon="-3.638869989663363">
        <ele>908.06899999999996</ele>
        <time>2021-07-22T04:48:25Z</time>
      </trkpt>
      <trkpt lat="42.186029981821775" lon="-3.639269974082708">
        <ele>909.08100000000002</ele>
        <time>2021-07-22T04:48:37Z</time>
      </trkpt>
      <trkpt lat="42.186519987881184" lon="-3.639559987932444">
        <ele>912.03300000000002</ele>
        <time>2021-07-22T04:48:44Z</time>
      </trkpt>
      <trkpt lat="42.187030026689172" lon="-3.639819994568825">
        <ele>912.09199999999998</ele>
        <time>2021-07-22T04:48:56Z</time>
      </trkpt>
      <trkpt lat="42.187430011108518" lon="-3.640000037848949">
        <ele>913.05100000000004</ele>
        <time>2021-07-22T04:49:32Z</time>
      </trkpt>
      <trkpt lat="42.187679959461093" lon="-3.640080001205206">
        <ele>913.00099999999998</ele>
        <time>2021-07-22T04:49:42Z</time>
      </trkpt>
      <trkpt lat="42.188519993796945" lon="-3.640460036695004">
        <ele>913.01099999999997</ele>
        <time>2021-07-22T04:49:49Z</time>
      </trkpt>
      <trkpt lat="42.18982002697885" lon="-3.641090020537376">
        <ele>912.00800000000004</ele>
        <time>2021-07-22T04:49:58Z</time>
      </trkpt>
      <trkpt lat="42.190819988027215" lon="-3.641590001061559">
        <ele>894.072</ele>
        <time>2021-07-22T04:51:26Z</time>
      </trkpt>
      <trkpt lat="42.191709978505969" lon="-3.642080007120967">
        <ele>889.08299999999997</ele>
        <time>2021-07-22T04:51:38Z</time>
      </trkpt>
      <trkpt lat="42.193219978362322" lon="-3.64286002703011">
        <ele>886.03300000000002</ele>
        <time>2021-07-22T04:51:49Z</time>
      </trkpt>
      <trkpt lat="42.193639995530248" lon="-3.643130008131266">
        <ele>885.03800000000001</ele>
        <time>2021-07-22T04:51:58Z</time>
      </trkpt>
      <trkpt lat="42.198790004476905" lon="-3.646940002217889">
        <ele>885.08199999999999</ele>
        <time>2021-07-22T04:52:03Z</time>
      </trkpt>
      <trkpt lat="42.19905998557806" lon="-3.647119961678982">
        <ele>879.04399999999998</ele>
        <time>2021-07-22T04:53:16Z</time>
      </trkpt>
      <trkpt lat="42.199740009382367" lon="-3.647509971633554">
        <ele>877.04600000000005</ele>
        <time>2021-07-22T04:54:07Z</time>
      </trkpt>
      <trkpt lat="42.200859999284148" lon="-3.648020010441542">
        <ele>876.08500000000004</ele>
        <time>2021-07-22T04:55:12Z</time>
      </trkpt>
      <trkpt lat="42.201120005920529" lon="-3.648120006546378">
        <ele>879.01599999999996</ele>
        <time>2021-07-22T04:55:20Z</time>
      </trkpt>
      <trkpt lat="42.20181000418961" lon="-3.648310024291277">
        <ele>875.07600000000002</ele>
        <time>2021-07-22T04:55:48Z</time>
      </trkpt>
      <trkpt lat="42.202360024675727" lon="-3.648429969325662">
        <ele>876.01300000000003</ele>
        <time>2021-07-22T04:55:56Z</time>
      </trkpt>
      <trkpt lat="42.204479975625873" lon="-3.648770023137331">
        <ele>877.00800000000004</ele>
        <time>2021-07-22T04:56:03Z</time>
      </trkpt>
      <trkpt lat="42.205099985003471" lon="-3.648910000920296">
        <ele>870.09799999999996</ele>
        <time>2021-07-22T04:56:36Z</time>
      </trkpt>
      <trkpt lat="42.206230033189058" lon="-3.649079985916615">
        <ele>871.03899999999999</ele>
        <time>2021-07-22T04:56:52Z</time>
      </trkpt>
      <trkpt lat="42.206760020926595" lon="-3.649209989234805">
        <ele>873.05899999999997</ele>
        <time>2021-07-22T04:57:08Z</time>
      </trkpt>
      <trkpt lat="42.207380030304193" lon="-3.649420039728284">
        <ele>870.024</ele>
        <time>2021-07-22T04:58:05Z</time>
      </trkpt>
      <trkpt lat="42.207829970866442" lon="-3.649599999189377">
        <ele>869.06799999999998</ele>
        <time>2021-07-22T04:58:17Z</time>
      </trkpt>
      <trkpt lat="42.213399996981025" lon="-3.652320010587573">
        <ele>869.09000000000003</ele>
        <time>2021-07-22T04:58:20Z</time>
      </trkpt>
      <trkpt lat="42.214020006358624" lon="-3.652599966153503">
        <ele>868.02200000000005</ele>
        <time>2021-07-22T04:58:35Z</time>
      </trkpt>
      <trkpt lat="42.214480005204678" lon="-3.652759976685047">
        <ele>868.07100000000003</ele>
        <time>2021-07-22T04:58:37Z</time>
      </trkpt>
      <trkpt lat="42.215160029008985" lon="-3.652919987216592">
        <ele>867.08699999999999</ele>
        <time>2021-07-22T04:58:40Z</time>
      </trkpt>
      <trkpt lat="42.215569987893105" lon="-3.65295996889472">
        <ele>866.04200000000003</ele>
        <time>2021-07-22T04:58:43Z</time>
      </trkpt>
      <trkpt lat="42.216199971735477" lon="-3.65295996889472">
        <ele>866.02599999999995</ele>
        <time>2021-07-22T04:58:47Z</time>
      </trkpt>
      <trkpt lat="42.218239959329367" lon="-3.652759976685047">
        <ele>866.00800000000004</ele>
        <time>2021-07-22T04:58:58Z</time>
      </trkpt>
      <trkpt lat="42.218770030885935" lon="-3.652740027755499">
        <ele>865.07500000000005</ele>
        <time>2021-07-22T04:59:17Z</time>
      </trkpt>
      <trkpt lat="42.219189964234829" lon="-3.652780009433627">
        <ele>866.07600000000002</ele>
        <time>2021-07-22T04:59:44Z</time>
      </trkpt>
      <trkpt lat="42.219669995829463" lon="-3.652929961681366">
        <ele>867.03599999999994</ele>
        <time>2021-07-22T04:59:46Z</time>
      </trkpt>
      <trkpt lat="42.224450027570128" lon="-3.654819997027516">
        <ele>867.03099999999995</ele>
        <time>2021-07-22T04:59:53Z</time>
      </trkpt>
      <trkpt lat="42.225080011412501" lon="-3.6551299598068">
        <ele>870.05499999999995</ele>
        <time>2021-07-22T05:00:06Z</time>
      </trkpt>
      <trkpt lat="42.225600024685264" lon="-3.655519969761372">
        <ele>871.03700000000003</ele>
        <time>2021-07-22T05:00:09Z</time>
      </trkpt>
      <trkpt lat="42.226020041853189" lon="-3.655960019677877">
        <ele>872.07899999999995</ele>
        <time>2021-07-22T05:00:12Z</time>
      </trkpt>
      <trkpt lat="42.226209975779057" lon="-3.656199993565679">
        <ele>872.048</ele>
        <time>2021-07-22T05:00:14Z</time>
      </trkpt>
      <trkpt lat="42.229150012135506" lon="-3.660019962117076">
        <ele>873.02800000000002</ele>
        <time>2021-07-22T05:00:18Z</time>
      </trkpt>
      <trkpt lat="42.231210032477975" lon="-3.662769980728626">
        <ele>874.08900000000006</ele>
        <time>2021-07-22T05:00:29Z</time>
      </trkpt>
      <trkpt lat="42.233849996700883" lon="-3.666209997609258">
        <ele>876.01700000000005</ele>
        <time>2021-07-22T05:00:34Z</time>
      </trkpt>
      <trkpt lat="42.234170017763972" lon="-3.666549967601895">
        <ele>883.00800000000004</ele>
        <time>2021-07-22T05:00:48Z</time>
      </trkpt>
      <trkpt lat="42.235629977658391" lon="-3.667499972507358">
        <ele>883.04899999999998</ele>
        <time>2021-07-22T05:00:50Z</time>
      </trkpt>
      <trkpt lat="42.235989980399609" lon="-3.667799960821867">
        <ele>884.02999999999997</ele>
        <time>2021-07-22T05:00:52Z</time>
      </trkpt>
      <trkpt lat="42.236310001462698" lon="-3.668140014633536">
        <ele>885.04999999999995</ele>
        <time>2021-07-22T05:01:18Z</time>
      </trkpt>
      <trkpt lat="42.23768999800086" lon="-3.6697599850595">
        <ele>885.09500000000003</ele>
        <time>2021-07-22T05:01:24Z</time>
      </trkpt>
      <trkpt lat="42.238359963521361" lon="-3.6706199683249">
        <ele>886.01900000000001</ele>
        <time>2021-07-22T05:01:31Z</time>
      </trkpt>
      <trkpt lat="42.239039987325668" lon="-3.671420020982623">
        <ele>883.08100000000002</ele>
        <time>2021-07-22T05:02:01Z</time>
      </trkpt>
      <trkpt lat="42.241450035944581" lon="-3.674199962988496">
        <ele>888.07299999999998</ele>
        <time>2021-07-22T05:02:30Z</time>
      </trkpt>
      <trkpt lat="42.241980023682117" lon="-3.674749983474612">
        <ele>889.02200000000005</ele>
        <time>2021-07-22T05:02:34Z</time>
      </trkpt>
      <trkpt lat="42.24215998314321" lon="-3.674900019541383">
        <ele>897.06100000000004</ele>
        <time>2021-07-22T05:03:12Z</time>
      </trkpt>
      <trkpt lat="42.242809999734163" lon="-3.675639973953366">
        <ele>895.02099999999996</ele>
        <time>2021-07-22T05:03:37Z</time>
      </trkpt>
      <trkpt lat="42.24288996309042" lon="-3.6756900139153">
        <ele>885.01300000000003</ele>
        <time>2021-07-22T05:04:19Z</time>
      </trkpt>
      <trkpt lat="42.243049973621964" lon="-3.675709962844849">
        <ele>884.00800000000004</ele>
        <time>2021-07-22T05:04:27Z</time>
      </trkpt>
      <trkpt lat="42.243190035223961" lon="-3.675639973953366">
        <ele>879.02300000000002</ele>
        <time>2021-07-22T05:04:49Z</time>
      </trkpt>
      <trkpt lat="42.243400001898408" lon="-3.675420032814145">
        <ele>879.06399999999996</ele>
        <time>2021-07-22T05:04:53Z</time>
      </trkpt>
      <trkpt lat="42.243820019066334" lon="-3.674860037863255">
        <ele>877.05399999999997</ele>
        <time>2021-07-22T05:05:02Z</time>
      </trkpt>
      <trkpt lat="42.244529966264963" lon="-3.673750022426248">
        <ele>877.04899999999998</ele>
        <time>2021-07-22T05:05:14Z</time>
      </trkpt>
      <trkpt lat="42.245460022240877" lon="-3.672110019251704">
        <ele>877.01300000000003</ele>
        <time>2021-07-22T05:05:17Z</time>
      </trkpt>
      <trkpt lat="42.245539985597134" lon="-3.672050004824996">
        <ele>878.09500000000003</ele>
        <time>2021-07-22T05:05:20Z</time>
      </trkpt>
      <trkpt lat="42.245909962803125" lon="-3.671889994293451">
        <ele>885.02700000000004</ele>
        <time>2021-07-22T05:05:34Z</time>
      </trkpt>
      <trkpt lat="42.24654003046453" lon="-3.671390013769269">
        <ele>885.06600000000003</ele>
        <time>2021-07-22T05:05:42Z</time>
      </trkpt>
      <trkpt lat="42.246689982712269" lon="-3.671239977702498">
        <ele>885.07899999999995</ele>
        <time>2021-07-22T05:05:45Z</time>
      </trkpt>
      <trkpt lat="42.246810011565685" lon="-3.67106999270618">
        <ele>884.005</ele>
        <time>2021-07-22T05:05:47Z</time>
      </trkpt>
      <trkpt lat="42.246870025992393" lon="-3.670949963852763">
        <ele>886.02499999999998</ele>
        <time>2021-07-22T05:05:53Z</time>
      </trkpt>
      <trkpt lat="42.246919982135296" lon="-3.670700015500188">
        <ele>886.00800000000004</ele>
        <time>2021-07-22T05:05:54Z</time>
      </trkpt>
      <trkpt lat="42.246770029887557" lon="-3.669829973950982">
        <ele>882.03399999999999</ele>
        <time>2021-07-22T05:06:01Z</time>
      </trkpt>
      <trkpt lat="42.246759971603751" lon="-3.66948002949357">
        <ele>881.08500000000004</ele>
        <time>2021-07-22T05:06:03Z</time>
      </trkpt>
      <trkpt lat="42.246889974921942" lon="-3.668430028483272">
        <ele>880.06500000000005</ele>
        <time>2021-07-22T05:06:05Z</time>
      </trkpt>
      <trkpt lat="42.246940014883876" lon="-3.668289966881275">
        <ele>879.07000000000005</ele>
        <time>2021-07-22T05:06:13Z</time>
      </trkpt>
      <trkpt lat="42.247019978240132" lon="-3.668159963563085">
        <ele>878.08399999999995</ele>
        <time>2021-07-22T05:06:24Z</time>
      </trkpt>
      <trkpt lat="42.24828002974391" lon="-3.6671800352633">
        <ele>878.08600000000001</ele>
        <time>2021-07-22T05:06:27Z</time>
      </trkpt>
      <trkpt lat="42.248569959774613" lon="-3.666999991983175">
        <ele>880.05799999999999</ele>
        <time>2021-07-22T05:06:42Z</time>
      </trkpt>
      <trkpt lat="42.248929962515831" lon="-3.666839981451631">
        <ele>881.05700000000002</ele>
        <time>2021-07-22T05:06:45Z</time>
      </trkpt>
      <trkpt lat="42.2505599912256" lon="-3.666209997609258">
        <ele>881.07100000000003</ele>
        <time>2021-07-22T05:06:46Z</time>
      </trkpt>
      <trkpt lat="42.252039983868599" lon="-3.665299974381924">
        <ele>881.04100000000005</ele>
        <time>2021-07-22T05:06:48Z</time>
      </trkpt>
      <trkpt lat="42.252260008826852" lon="-3.665239959955216">
        <ele>885.01499999999999</ele>
        <time>2021-07-22T05:07:03Z</time>
      </trkpt>
      <trkpt lat="42.254390018060803" lon="-3.664890015497804">
        <ele>887.00800000000004</ele>
        <time>2021-07-22T05:07:07Z</time>
      </trkpt>
      <trkpt lat="42.255749981850386" lon="-3.664370002225041">
        <ele>888.08399999999995</ele>
        <time>2021-07-22T05:07:10Z</time>
      </trkpt>
      <trkpt lat="42.258049976080656" lon="-3.663719985634089">
        <ele>900.05499999999995</ele>
        <time>2021-07-22T05:07:40Z</time>
      </trkpt>
      <trkpt lat="42.258479967713356" lon="-3.663480011746287">
        <ele>901.04499999999996</ele>
        <time>2021-07-22T05:07:44Z</time>
      </trkpt>
      <trkpt lat="42.259619990363717" lon="-3.662750031799078">
        <ele>904.02999999999997</ele>
        <time>2021-07-22T05:07:52Z</time>
      </trkpt>
      <trkpt lat="42.259800033643842" lon="-3.662599995732307">
        <ele>905.07399999999996</ele>
        <time>2021-07-22T05:07:55Z</time>
      </trkpt>
      <trkpt lat="42.260170010849833" lon="-3.662149971351028">
        <ele>905.04600000000005</ele>
        <time>2021-07-22T05:07:58Z</time>
      </trkpt>
      <trkpt lat="42.260660016909242" lon="-3.661519987508655">
        <ele>906.09799999999996</ele>
        <time>2021-07-22T05:08:14Z</time>
      </trkpt>
      <trkpt lat="42.260760013014078" lon="-3.661350002512336">
        <ele>905.06700000000001</ele>
        <time>2021-07-22T05:08:26Z</time>
      </trkpt>
      <trkpt lat="42.260799994692206" lon="-3.661159984767437">
        <ele>905.06500000000005</ele>
        <time>2021-07-22T05:08:30Z</time>
      </trkpt>
      <trkpt lat="42.260820027440786" lon="-3.660039994865656">
        <ele>905.06799999999998</ele>
        <time>2021-07-22T05:08:36Z</time>
      </trkpt>
      <trkpt lat="42.260880041867495" lon="-3.659449992701411">
        <ele>905.01400000000001</ele>
        <time>2021-07-22T05:08:39Z</time>
      </trkpt>
      <trkpt lat="42.260939972475171" lon="-3.659250000491738">
        <ele>906.00800000000004</ele>
        <time>2021-07-22T05:08:45Z</time>
      </trkpt>
      <trkpt lat="42.261050026863813" lon="-3.659150004386902">
        <ele>908.06299999999999</ele>
        <time>2021-07-22T05:08:56Z</time>
      </trkpt>
      <trkpt lat="42.261090008541942" lon="-3.658729987218976">
        <ele>910.04399999999998</ele>
        <time>2021-07-22T05:08:58Z</time>
      </trkpt>
      <trkpt lat="42.26112999022007" lon="-3.658659998327494">
        <ele>910.09400000000005</ele>
        <time>2021-07-22T05:08:59Z</time>
      </trkpt>
      <trkpt lat="42.261499967426062" lon="-3.658580034971237">
        <ele>911.06899999999996</ele>
        <time>2021-07-22T05:09:01Z</time>
      </trkpt>
      <trkpt lat="42.261640029028058" lon="-3.658499987795949">
        <ele>913.06299999999999</ele>
        <time>2021-07-22T05:09:03Z</time>
      </trkpt>
      <trkpt lat="42.261699959635735" lon="-3.658499987795949">
        <ele>920.07500000000005</ele>
        <time>2021-07-22T05:09:12Z</time>
      </trkpt>
      <trkpt lat="42.26214000955224" lon="-3.65865002386272">
        <ele>924.09699999999998</ele>
        <time>2021-07-22T05:09:26Z</time>
      </trkpt>
      <trkpt lat="42.262749960646033" lon="-3.65878002718091">
        <ele>925.07600000000002</ele>
        <time>2021-07-22T05:09:28Z</time>
      </trkpt>
      <trkpt lat="42.262920029461384" lon="-3.658799976110458">
        <ele>926.05899999999997</ele>
        <time>2021-07-22T05:09:30Z</time>
      </trkpt>
      <trkpt lat="42.263799961656332" lon="-3.65873996168375">
        <ele>935.00300000000004</ele>
        <time>2021-07-22T05:09:50Z</time>
      </trkpt>
      <trkpt lat="42.263919990509748" lon="-3.658769968897104">
        <ele>938.02300000000002</ele>
        <time>2021-07-22T05:09:57Z</time>
      </trkpt>
      <trkpt lat="42.264000037685037" lon="-3.658820008859038">
        <ele>945.00800000000004</ele>
        <time>2021-07-22T05:10:11Z</time>
      </trkpt>
      <trkpt lat="42.264070026576519" lon="-3.658910030499101">
        <ele>950.072</ele>
        <time>2021-07-22T05:10:18Z</time>
      </trkpt>
      <trkpt lat="42.264649970456958" lon="-3.659749981015921">
        <ele>951.04300000000001</ele>
        <time>2021-07-22T05:10:21Z</time>
      </trkpt>
      <trkpt lat="42.264830013737082" lon="-3.65991996601224">
        <ele>951.03300000000002</ele>
        <time>2021-07-22T05:10:23Z</time>
      </trkpt>
      <trkpt lat="42.265030005946755" lon="-3.659979980438948">
        <ele>948.048</ele>
        <time>2021-07-22T05:10:29Z</time>
      </trkpt>
      <trkpt lat="42.266700016334653" lon="-3.660100009292364">
        <ele>949.08199999999999</ele>
        <time>2021-07-22T05:10:33Z</time>
      </trkpt>
      <trkpt lat="42.26693001575768" lon="-3.660160023719072">
        <ele>952.03399999999999</ele>
        <time>2021-07-22T05:10:38Z</time>
      </trkpt>
      <trkpt lat="42.267330000177026" lon="-3.660399997606874">
        <ele>957.07600000000002</ele>
        <time>2021-07-22T05:10:44Z</time>
      </trkpt>
      <trkpt lat="42.267499985173345" lon="-3.660439979285002">
        <ele>958.06500000000005</ele>
        <time>2021-07-22T05:10:47Z</time>
      </trkpt>
      <trkpt lat="42.267669970169663" lon="-3.660409972071648">
        <ele>962.01199999999994</ele>
        <time>2021-07-22T05:11:06Z</time>
      </trkpt>
      <trkpt lat="42.268519978970289" lon="-3.659990038722754">
        <ele>963.03200000000004</ele>
        <time>2021-07-22T05:11:14Z</time>
      </trkpt>
      <trkpt lat="42.269049966707826" lon="-3.659449992701411">
        <ele>958.005</ele>
        <time>2021-07-22T05:11:42Z</time>
      </trkpt>
      <trkpt lat="42.269179970026016" lon="-3.659250000491738">
        <ele>956.00800000000004</ele>
        <time>2021-07-22T05:11:49Z</time>
      </trkpt>
      <trkpt lat="42.269260017201304" lon="-3.65878002718091">
        <ele>957.01800000000003</ele>
        <time>2021-07-22T05:12:16Z</time>
      </trkpt>
      <trkpt lat="42.269269991666079" lon="-3.658569976687431">
        <ele>958.03899999999999</ele>
        <time>2021-07-22T05:12:31Z</time>
      </trkpt>
      <trkpt lat="42.269179970026016" lon="-3.658100003376603">
        <ele>958.01900000000001</ele>
        <time>2021-07-22T05:12:37Z</time>
      </trkpt>
      <trkpt lat="42.268930021673441" lon="-3.657349990680814">
        <ele>957.03399999999999</ele>
        <time>2021-07-22T05:12:53Z</time>
      </trkpt>
      <trkpt lat="42.268919963389635" lon="-3.657189980149269">
        <ele>956.02800000000002</ele>
        <time>2021-07-22T05:12:58Z</time>
      </trkpt>
      <trkpt lat="42.268939996138215" lon="-3.657129965722561">
        <ele>951.07000000000005</ele>
        <time>2021-07-22T05:13:34Z</time>
      </trkpt>
      <trkpt lat="42.269019959494472" lon="-3.657080009579659">
        <ele>949.09199999999998</ele>
        <time>2021-07-22T05:13:45Z</time>
      </trkpt>
      <trkpt lat="42.269179970026016" lon="-3.657089984044433">
        <ele>943.05100000000004</ele>
        <time>2021-07-22T05:14:15Z</time>
      </trkpt>
      <trkpt lat="42.269629994407296" lon="-3.657289976254106">
        <ele>944.02099999999996</ele>
        <time>2021-07-22T05:14:20Z</time>
      </trkpt>
      <trkpt lat="42.270370032638311" lon="-3.657679986208677">
        <ele>941.04100000000005</ele>
        <time>2021-07-22T05:14:38Z</time>
      </trkpt>
      <trkpt lat="42.270500035956502" lon="-3.657700018957257">
        <ele>941.005</ele>
        <time>2021-07-22T05:14:40Z</time>
      </trkpt>
      <trkpt lat="42.270610006526113" lon="-3.657689960673451">
        <ele>941.00800000000004</ele>
        <time>2021-07-22T05:14:43Z</time>
      </trkpt>
      <trkpt lat="42.271669982001185" lon="-3.65734001621604">
        <ele>940.05899999999997</ele>
        <time>2021-07-22T05:14:48Z</time>
      </trkpt>
      <trkpt lat="42.272050017490983" lon="-3.657240020111203">
        <ele>941.07000000000005</ele>
        <time>2021-07-22T05:15:08Z</time>
      </trkpt>
      <trkpt lat="42.272849986329675" lon="-3.657189980149269">
        <ele>941.08000000000004</ele>
        <time>2021-07-22T05:15:38Z</time>
      </trkpt>
      <trkpt lat="42.273270003497601" lon="-3.657119991257787">
        <ele>940.02499999999998</ele>
        <time>2021-07-22T05:15:41Z</time>
      </trkpt>
      <trkpt lat="42.273390032351017" lon="-3.657159972935915">
        <ele>933.03899999999999</ele>
        <time>2021-07-22T05:15:58Z</time>
      </trkpt>
      <trkpt lat="42.273460021242499" lon="-3.657280001789331">
        <ele>932.07100000000003</ele>
        <time>2021-07-22T05:16:00Z</time>
      </trkpt>
      <trkpt lat="42.273539984598756" lon="-3.65779004059732">
        <ele>932.06299999999999</ele>
        <time>2021-07-22T05:16:02Z</time>
      </trkpt>
      <trkpt lat="42.273630006238818" lon="-3.658009981736541">
        <ele>932.01199999999994</ele>
        <time>2021-07-22T05:16:05Z</time>
      </trkpt>
      <trkpt lat="42.273839972913265" lon="-3.658260013908148">
        <ele>932.05100000000004</ele>
        <time>2021-07-22T05:16:07Z</time>
      </trkpt>
      <trkpt lat="42.27415001951158" lon="-3.658480038866401">
        <ele>927.00099999999998</ele>
        <time>2021-07-22T05:16:18Z</time>
      </trkpt>
      <trkpt lat="42.274320004507899" lon="-3.658520020544529">
        <ele>924.01099999999997</ele>
        <time>2021-07-22T05:16:21Z</time>
      </trkpt>
      <trkpt lat="42.275379979982972" lon="-3.658460006117821">
        <ele>914.00800000000004</ele>
        <time>2021-07-22T05:16:46Z</time>
      </trkpt>
      <trkpt lat="42.275850037112832" lon="-3.658369984477758">
        <ele>918.01199999999994</ele>
        <time>2021-07-22T05:17:00Z</time>
      </trkpt>
      <trkpt lat="42.277330029755831" lon="-3.65779004059732">
        <ele>918.02300000000002</ele>
        <time>2021-07-22T05:17:05Z</time>
      </trkpt>
      <trkpt lat="42.277720039710402" lon="-3.657609997317195">
        <ele>919.03300000000002</ele>
        <time>2021-07-22T05:17:07Z</time>
      </trkpt>
      <trkpt lat="42.27891999296844" lon="-3.656339971348643">
        <ele>919.08799999999997</ele>
        <time>2021-07-22T05:17:20Z</time>
      </trkpt>
      <trkpt lat="42.279639998450875" lon="-3.655719961971045">
        <ele>919.02200000000005</ele>
        <time>2021-07-22T05:17:29Z</time>
      </trkpt>
      <trkpt lat="42.279879972338676" lon="-3.655479988083243">
        <ele>913.01400000000001</ele>
        <time>2021-07-22T05:18:13Z</time>
      </trkpt>
      <trkpt lat="42.280569970607758" lon="-3.654620004817843">
        <ele>914.02599999999995</ele>
        <time>2021-07-22T05:18:18Z</time>
      </trkpt>
      <trkpt lat="42.28078999556601" lon="-3.654399979859591">
        <ele>913.05499999999995</ele>
        <time>2021-07-22T05:18:23Z</time>
      </trkpt>
      <trkpt lat="42.282699979841709" lon="-3.653579978272319">
        <ele>912.07500000000005</ele>
        <time>2021-07-22T05:18:38Z</time>
      </trkpt>
      <trkpt lat="42.283270033076406" lon="-3.653309997171164">
        <ele>910.02800000000002</ele>
        <time>2021-07-22T05:18:59Z</time>
      </trkpt>
      <trkpt lat="42.284810040146112" lon="-3.652389999479055">
        <ele>908.01999999999998</ele>
        <time>2021-07-22T05:19:08Z</time>
      </trkpt>
      <trkpt lat="42.285080021247268" lon="-3.652169974520803">
        <ele>910.00800000000004</ele>
        <time>2021-07-22T05:19:14Z</time>
      </trkpt>
      <trkpt lat="42.285849982872605" lon="-3.651279984042049">
        <ele>911.04399999999998</ele>
        <time>2021-07-22T05:19:18Z</time>
      </trkpt>
      <trkpt lat="42.285930030047894" lon="-3.651200020685792">
        <ele>910.09500000000003</ele>
        <time>2021-07-22T05:19:26Z</time>
      </trkpt>
      <trkpt lat="42.286090040579438" lon="-3.651100024580956">
        <ele>909.05499999999995</ele>
        <time>2021-07-22T05:19:29Z</time>
      </trkpt>
      <trkpt lat="42.286360021680593" lon="-3.651030035689473">
        <ele>909.03999999999996</ele>
        <time>2021-07-22T05:19:39Z</time>
      </trkpt>
      <trkpt lat="42.287480011582375" lon="-3.650970021262765">
        <ele>906.04399999999998</ele>
        <time>2021-07-22T05:19:57Z</time>
      </trkpt>
      <trkpt lat="42.289139963686466" lon="-3.650559978559613">
        <ele>906.04600000000005</ele>
        <time>2021-07-22T05:20:02Z</time>
      </trkpt>
      <trkpt lat="42.289299974218011" lon="-3.650489989668131">
        <ele>908.08799999999997</ele>
        <time>2021-07-22T05:20:14Z</time>
      </trkpt>
      <trkpt lat="42.290010005235672" lon="-3.649660013616085">
        <ele>910.077</ele>
        <time>2021-07-22T05:20:24Z</time>
      </trkpt>
      <trkpt lat="42.290040012449026" lon="-3.64947997033596">
        <ele>908.07100000000003</ele>
        <time>2021-07-22T05:20:36Z</time>
      </trkpt>
      <trkpt lat="42.290030037984252" lon="-3.64936999976635">
        <ele>908.04100000000005</ele>
        <time>2021-07-22T05:20:45Z</time>
      </trkpt>
      <trkpt lat="42.289959965273738" lon="-3.649140000343323">
        <ele>903.01499999999999</ele>
        <time>2021-07-22T05:21:02Z</time>
      </trkpt>
      <trkpt lat="42.289970023557544" lon="-3.648949982598424">
        <ele>903.00800000000004</ele>
        <time>2021-07-22T05:21:07Z</time>
      </trkpt>
      <trkpt lat="42.290289960801601" lon="-3.648319998756051">
        <ele>903.07399999999996</ele>
        <time>2021-07-22T05:21:10Z</time>
      </trkpt>
      <trkpt lat="42.290439996868372" lon="-3.648129981011152">
        <ele>903.09500000000003</ele>
        <time>2021-07-22T05:21:19Z</time>
      </trkpt>
      <trkpt lat="42.291689990088344" lon="-3.647230016067624">
        <ele>903.04499999999996</ele>
        <time>2021-07-22T05:21:22Z</time>
      </trkpt>
      <trkpt lat="42.292319973930717" lon="-3.647820018231869">
        <ele>896.02999999999997</ele>
        <time>2021-07-22T05:22:13Z</time>
      </trkpt>
      <trkpt lat="42.292489958927035" lon="-3.648120006546378">
        <ele>897.09400000000005</ele>
        <time>2021-07-22T05:22:16Z</time>
      </trkpt>
      <trkpt lat="42.292530024424195" lon="-3.648269958794117">
        <ele>897.01599999999996</ele>
        <time>2021-07-22T05:22:17Z</time>
      </trkpt>
      <trkpt lat="42.292619962245226" lon="-3.649270003661513">
        <ele>901.01800000000003</ele>
        <time>2021-07-22T05:22:22Z</time>
      </trkpt>
      <trkpt lat="42.292739991098642" lon="-3.649880038574338">
        <ele>903.06700000000001</ele>
        <time>2021-07-22T05:22:25Z</time>
      </trkpt>
      <trkpt lat="42.293689996004105" lon="-3.653019983321428">
        <ele>905.06299999999999</ele>
        <time>2021-07-22T05:22:28Z</time>
      </trkpt>
      <trkpt lat="42.293819999322295" lon="-3.653330029919744">
        <ele>905.04399999999998</ele>
        <time>2021-07-22T05:22:32Z</time>
      </trkpt>
      <trkpt lat="42.293989984318614" lon="-3.653649967163801">
        <ele>902.01800000000003</ele>
        <time>2021-07-22T05:22:40Z</time>
      </trkpt>
      <trkpt lat="42.294570012018085" lon="-3.654480027034879">
        <ele>901.00800000000004</ele>
        <time>2021-07-22T05:22:49Z</time>
      </trkpt>
      <trkpt lat="42.295490009710193" lon="-3.655440006405115">
        <ele>900.04300000000001</ele>
        <time>2021-07-22T05:22:54Z</time>
      </trkpt>
      <trkpt lat="42.295920001342893" lon="-3.655820041894913">
        <ele>896.07399999999996</ele>
        <time>2021-07-22T05:23:00Z</time>
      </trkpt>
      <trkpt lat="42.296180007979274" lon="-3.656090022996068">
        <ele>895.04399999999998</ele>
        <time>2021-07-22T05:23:07Z</time>
      </trkpt>
      <trkpt lat="42.296329960227013" lon="-3.656299989670515">
        <ele>895.06899999999996</ele>
        <time>2021-07-22T05:23:10Z</time>
      </trkpt>
      <trkpt lat="42.2966000251472" lon="-3.656840035691857">
        <ele>897.053</ele>
        <time>2021-07-22T05:23:24Z</time>
      </trkpt>
      <trkpt lat="42.296660039573908" lon="-3.657010020688176">
        <ele>898.06500000000005</ele>
        <time>2021-07-22T05:23:32Z</time>
      </trkpt>
      <trkpt lat="42.296779984608293" lon="-3.657740000635386">
        <ele>898.06700000000001</ele>
        <time>2021-07-22T05:23:36Z</time>
      </trkpt>
      <trkpt lat="42.296890038996935" lon="-3.659119997173548">
        <ele>897.04600000000005</ele>
        <time>2021-07-22T05:23:39Z</time>
      </trkpt>
      <trkpt lat="42.296960027888417" lon="-3.65951000712812">
        <ele>893.029</ele>
        <time>2021-07-22T05:23:48Z</time>
      </trkpt>
      <trkpt lat="42.297209976240993" lon="-3.660360015928745">
        <ele>889</ele>
        <time>2021-07-22T05:24:03Z</time>
      </trkpt>
      <trkpt lat="42.297520022839308" lon="-3.660939959809184">
        <ele>888.01999999999998</ele>
        <time>2021-07-22T05:24:16Z</time>
      </trkpt>
      <trkpt lat="42.297759996727109" lon="-3.661840008571744">
        <ele>890.00800000000004</ele>
        <time>2021-07-22T05:24:33Z</time>
      </trkpt>
      <trkpt lat="42.29804003611207" lon="-3.662409977987409">
        <ele>890.07899999999995</ele>
        <time>2021-07-22T05:24:37Z</time>
      </trkpt>
      <trkpt lat="42.298359973356128" lon="-3.663629963994026">
        <ele>888.09000000000003</ele>
        <time>2021-07-22T05:24:45Z</time>
      </trkpt>
      <trkpt lat="42.298500034958124" lon="-3.663930036127567">
        <ele>888.04999999999995</ele>
        <time>2021-07-22T05:24:50Z</time>
      </trkpt>
      <trkpt lat="42.298630038276315" lon="-3.664119970053434">
        <ele>886.03499999999997</ele>
        <time>2021-07-22T05:24:57Z</time>
      </trkpt>
      <trkpt lat="42.299009989947081" lon="-3.66456001996994">
        <ele>886.04899999999998</ele>
        <time>2021-07-22T05:25:04Z</time>
      </trkpt>
      <trkpt lat="42.299100011587143" lon="-3.664709972217679">
        <ele>886.02099999999996</ele>
        <time>2021-07-22T05:25:12Z</time>
      </trkpt>
      <trkpt lat="42.300819978117943" lon="-3.667850000783801">
        <ele>886.01300000000003</ele>
        <time>2021-07-22T05:25:17Z</time>
      </trkpt>
      <trkpt lat="42.300919974222779" lon="-3.667970029637218">
        <ele>887.06200000000001</ele>
        <time>2021-07-22T05:25:23Z</time>
      </trkpt>
      <trkpt lat="42.300989963114262" lon="-3.668000036850572">
        <ele>888.08299999999997</ele>
        <time>2021-07-22T05:25:31Z</time>
      </trkpt>
      <trkpt lat="42.301279976963997" lon="-3.667959971353412">
        <ele>886.02499999999998</ele>
        <time>2021-07-22T05:25:54Z</time>
      </trkpt>
      <trkpt lat="42.301439987495542" lon="-3.667970029637218">
        <ele>885.01700000000005</ele>
        <time>2021-07-22T05:25:57Z</time>
      </trkpt>
      <trkpt lat="42.30163000524044" lon="-3.66801998578012">
        <ele>884.00800000000004</ele>
        <time>2021-07-22T05:26:14Z</time>
      </trkpt>
      <trkpt lat="42.301799990236759" lon="-3.668100032955408">
        <ele>884.06500000000005</ele>
        <time>2021-07-22T05:26:28Z</time>
      </trkpt>
      <trkpt lat="42.302220007404685" lon="-3.668409995734692">
        <ele>884.01599999999996</ele>
        <time>2021-07-22T05:26:37Z</time>
      </trkpt>
      <trkpt lat="42.302719987928867" lon="-3.668630020692945">
        <ele>884.096</ele>
        <time>2021-07-22T05:26:42Z</time>
      </trkpt>
      <trkpt lat="42.30294001288712" lon="-3.668830012902618">
        <ele>883.03099999999995</ele>
        <time>2021-07-22T05:27:06Z</time>
      </trkpt>
      <trkpt lat="42.303160037845373" lon="-3.669180041179061">
        <ele>881.05499999999995</ele>
        <time>2021-07-22T05:27:15Z</time>
      </trkpt>
      <trkpt lat="42.303449967876077" lon="-3.669469971209765">
        <ele>881.06700000000001</ele>
        <time>2021-07-22T05:27:29Z</time>
      </trkpt>
      <trkpt lat="42.303630011156201" lon="-3.669590000063181">
        <ele>879.01900000000001</ele>
        <time>2021-07-22T05:27:35Z</time>
      </trkpt>
      <trkpt lat="42.304380023851991" lon="-3.669940028339624">
        <ele>878.01800000000003</ele>
        <time>2021-07-22T05:28:06Z</time>
      </trkpt>
      <trkpt lat="42.304759975522757" lon="-3.67021000944078">
        <ele>877.04700000000003</ele>
        <time>2021-07-22T05:28:20Z</time>
      </trkpt>
      <trkpt lat="42.304940018802881" lon="-3.670410001650453">
        <ele>877.029</ele>
        <time>2021-07-22T05:28:24Z</time>
      </trkpt>
      <trkpt lat="42.305040014907718" lon="-3.670560037717223">
        <ele>873.02099999999996</ele>
        <time>2021-07-22T05:28:41Z</time>
      </trkpt>
      <trkpt lat="42.305300021544099" lon="-3.671169988811016">
        <ele>872.00800000000004</ele>
        <time>2021-07-22T05:28:44Z</time>
      </trkpt>
      <trkpt lat="42.305839983746409" lon="-3.67208001203835">
        <ele>872.04100000000005</ele>
        <time>2021-07-22T05:28:48Z</time>
      </trkpt>
      <trkpt lat="42.306220019236207" lon="-3.672930020838976">
        <ele>873.01199999999994</ele>
        <time>2021-07-22T05:28:52Z</time>
      </trkpt>
      <trkpt lat="42.306970031931996" lon="-3.673690007999539">
        <ele>874.09199999999998</ele>
        <time>2021-07-22T05:29:28Z</time>
      </trkpt>
      <trkpt lat="42.307089976966381" lon="-3.673929981887341">
        <ele>874.09699999999998</ele>
        <time>2021-07-22T05:29:38Z</time>
      </trkpt>
      <trkpt lat="42.30730002745986" lon="-3.674510009586811">
        <ele>873.08100000000002</ele>
        <time>2021-07-22T05:29:50Z</time>
      </trkpt>
      <trkpt lat="42.307440005242825" lon="-3.674800023436546">
        <ele>873.06299999999999</ele>
        <time>2021-07-22T05:29:55Z</time>
      </trkpt>
      <trkpt lat="42.307719960808754" lon="-3.675200007855892">
        <ele>872.08500000000004</ele>
        <time>2021-07-22T05:30:01Z</time>
      </trkpt>
      <trkpt lat="42.308060014620423" lon="-3.675450040027499">
        <ele>874.09400000000005</ele>
        <time>2021-07-22T05:30:08Z</time>
      </trkpt>
      <trkpt lat="42.308490006253123" lon="-3.675639973953366">
        <ele>869.09199999999998</ele>
        <time>2021-07-22T05:30:55Z</time>
      </trkpt>
      <trkpt lat="42.30872000567615" lon="-3.675799984484911">
        <ele>869.07299999999998</ele>
        <time>2021-07-22T05:31:01Z</time>
      </trkpt>
      <trkpt lat="42.30901999399066" lon="-3.676110031083226">
        <ele>869.01999999999998</ele>
        <time>2021-07-22T05:31:04Z</time>
      </trkpt>
      <trkpt lat="42.309330040588975" lon="-3.676480008289218">
        <ele>869.00800000000004</ele>
        <time>2021-07-22T05:31:08Z</time>
      </trkpt>
      <trkpt lat="42.310220031067729" lon="-3.677720027044416">
        <ele>869.08600000000001</ele>
        <time>2021-07-22T05:31:11Z</time>
      </trkpt>
      <trkpt lat="42.310380041599274" lon="-3.6778399720788">
        <ele>869.01700000000005</ele>
        <time>2021-07-22T05:31:13Z</time>
      </trkpt>
      <trkpt lat="42.311270032078028" lon="-3.6782699637115">
        <ele>869.03700000000003</ele>
        <time>2021-07-22T05:31:18Z</time>
      </trkpt>
      <trkpt lat="42.312019960954785" lon="-3.678759969770908">
        <ele>869.08199999999999</ele>
        <time>2021-07-22T05:31:21Z</time>
      </trkpt>
      <trkpt lat="42.312420029193163" lon="-3.679070016369224">
        <ele>869.07600000000002</ele>
        <time>2021-07-22T05:31:37Z</time>
      </trkpt>
      <trkpt lat="42.312660003080964" lon="-3.679300015792251">
        <ele>872.08799999999997</ele>
        <time>2021-07-22T05:31:42Z</time>
      </trkpt>
      <trkpt lat="42.313649989664555" lon="-3.680529976263642">
        <ele>878.04999999999995</ele>
        <time>2021-07-22T05:32:05Z</time>
      </trkpt>
      <trkpt lat="42.314030025154352" lon="-3.681049989536405">
        <ele>882.09900000000005</ele>
        <time>2021-07-22T05:32:14Z</time>
      </trkpt>
      <trkpt lat="42.314539980143309" lon="-3.681849958375096">
        <ele>887.04100000000005</ele>
        <time>2021-07-22T05:32:26Z</time>
      </trkpt>
      <trkpt lat="42.314709965139627" lon="-3.682190012186766">
        <ele>887.08100000000002</ele>
        <time>2021-07-22T05:32:30Z</time>
      </trkpt>
      <trkpt lat="42.315549999475479" lon="-3.684239974245429">
        <ele>886.00900000000001</ele>
        <time>2021-07-22T05:32:39Z</time>
      </trkpt>
      <trkpt lat="42.31578997336328" lon="-3.685259968042374">
        <ele>884.00800000000004</ele>
        <time>2021-07-22T05:32:47Z</time>
      </trkpt>
      <trkpt lat="42.315819980576634" lon="-3.685589963570237">
        <ele>883.06100000000004</ele>
        <time>2021-07-22T05:32:52Z</time>
      </trkpt>
      <trkpt lat="42.31578997336328" lon="-3.686880022287369">
        <ele>882.072</ele>
        <time>2021-07-22T05:32:55Z</time>
      </trkpt>
      <trkpt lat="42.31581000611186" lon="-3.68709996342659">
        <ele>882.08199999999999</ele>
        <time>2021-07-22T05:32:59Z</time>
      </trkpt>
      <trkpt lat="42.315879995003343" lon="-3.687370028346777">
        <ele>882.03700000000003</ele>
        <time>2021-07-22T05:33:02Z</time>
      </trkpt>
      <trkpt lat="42.316030031070113" lon="-3.687649983912706">
        <ele>882.04100000000005</ele>
        <time>2021-07-22T05:33:12Z</time>
      </trkpt>
      <trkpt lat="42.31742000207305" lon="-3.689640015363693">
        <ele>881.06299999999999</ele>
        <time>2021-07-22T05:33:16Z</time>
      </trkpt>
      <trkpt lat="42.317759972065687" lon="-3.690179977566004">
        <ele>880.02499999999998</ele>
        <time>2021-07-22T05:33:19Z</time>
      </trkpt>
      <trkpt lat="42.318289959803224" lon="-3.690790012478828">
        <ele>879.04399999999998</ele>
        <time>2021-07-22T05:33:34Z</time>
      </trkpt>
      <trkpt lat="42.318479977548122" lon="-3.691099975258112">
        <ele>875.02800000000002</ele>
        <time>2021-07-22T05:33:47Z</time>
      </trkpt>
      <trkpt lat="42.318639988079667" lon="-3.691470036283135">
        <ele>875.08900000000006</ele>
        <time>2021-07-22T05:34:14Z</time>
      </trkpt>
      <trkpt lat="42.318790024146438" lon="-3.691940009593964">
        <ele>876.01700000000005</ele>
        <time>2021-07-22T05:34:21Z</time>
      </trkpt>
      <trkpt lat="42.319680014625192" lon="-3.695310037583113">
        <ele>872.00800000000004</ele>
        <time>2021-07-22T05:34:32Z</time>
      </trkpt>
      <trkpt lat="42.319859974086285" lon="-3.695759978145361">
        <ele>872.05899999999997</ele>
        <time>2021-07-22T05:34:38Z</time>
      </trkpt>
      <trkpt lat="42.319959970191121" lon="-3.695910014212132">
        <ele>869.05999999999995</ele>
        <time>2021-07-22T05:34:56Z</time>
      </trkpt>
      <trkpt lat="42.320140013471246" lon="-3.69610003195703">
        <ele>868.05999999999995</ele>
        <time>2021-07-22T05:35:10Z</time>
      </trkpt>
      <trkpt lat="42.32025995850563" lon="-3.696179995313287">
        <ele>868.05499999999995</ele>
        <time>2021-07-22T05:35:11Z</time>
      </trkpt>
      <trkpt lat="42.320409994572401" lon="-3.696259958669543">
        <ele>868.07899999999995</ele>
        <time>2021-07-22T05:35:13Z</time>
      </trkpt>
      <trkpt lat="42.320679975673556" lon="-3.696319973096252">
        <ele>867.06100000000004</ele>
        <time>2021-07-22T05:35:14Z</time>
      </trkpt>
      <trkpt lat="42.320839986205101" lon="-3.696309998631477">
        <ele>867.01300000000003</ele>
        <time>2021-07-22T05:35:16Z</time>
      </trkpt>
      <trkpt lat="42.321740034967661" lon="-3.696140013635159">
        <ele>868.08199999999999</ele>
        <time>2021-07-22T05:35:23Z</time>
      </trkpt>
      <trkpt lat="42.322029964998364" lon="-3.696130039170384">
        <ele>868.029</ele>
        <time>2021-07-22T05:35:25Z</time>
      </trkpt>
      <trkpt lat="42.323299990966916" lon="-3.696319973096252">
        <ele>868</ele>
        <time>2021-07-22T05:35:27Z</time>
      </trkpt>
      <trkpt lat="42.323789997026324" lon="-3.696370013058186">
        <ele>864.01999999999998</ele>
        <time>2021-07-22T05:35:42Z</time>
      </trkpt>
      <trkpt lat="42.324459962546825" lon="-3.696330031380057">
        <ele>862.00800000000004</ele>
        <time>2021-07-22T05:36:03Z</time>
      </trkpt>
      <trkpt lat="42.324689961969852" lon="-3.696389961987734">
        <ele>864.06899999999996</ele>
        <time>2021-07-22T05:36:21Z</time>
      </trkpt>
      <trkpt lat="42.325169993564487" lon="-3.696600012481213">
        <ele>863.02999999999997</ele>
        <time>2021-07-22T05:36:24Z</time>
      </trkpt>
      <trkpt lat="42.325590010732412" lon="-3.696849960833788">
        <ele>865.04999999999995</ele>
        <time>2021-07-22T05:36:58Z</time>
      </trkpt>
      <trkpt lat="42.325839959084988" lon="-3.696979964151979">
        <ele>864.08500000000004</ele>
        <time>2021-07-22T05:37:04Z</time>
      </trkpt>
      <trkpt lat="42.326010027900338" lon="-3.697039978578687">
        <ele>863.08900000000006</ele>
        <time>2021-07-22T05:37:06Z</time>
      </trkpt>
      <trkpt lat="42.326240027323365" lon="-3.697050036862493">
        <ele>861.07100000000003</ele>
        <time>2021-07-22T05:37:08Z</time>
      </trkpt>
      <trkpt lat="42.326410012319684" lon="-3.697030004113913">
        <ele>861.03300000000002</ele>
        <time>2021-07-22T05:37:10Z</time>
      </trkpt>
      <trkpt lat="42.326970007270575" lon="-3.696909975260496">
        <ele>860.072</ele>
        <time>2021-07-22T05:37:13Z</time>
      </trkpt>
      <trkpt lat="42.327200006693602" lon="-3.696920033544302">
        <ele>859.09400000000005</ele>
        <time>2021-07-22T05:37:14Z</time>
      </trkpt>
      <trkpt lat="42.32734995894134" lon="-3.696969989687204">
        <ele>860.05700000000002</ele>
        <time>2021-07-22T05:37:16Z</time>
      </trkpt>
      <trkpt lat="42.328169960528612" lon="-3.697320017963648">
        <ele>863.02200000000005</ele>
        <time>2021-07-22T05:37:23Z</time>
      </trkpt>
      <trkpt lat="42.328870017081499" lon="-3.697539959102869">
        <ele>861.00800000000004</ele>
        <time>2021-07-22T05:37:26Z</time>
      </trkpt>
      <trkpt lat="42.330329976975918" lon="-3.698059972375631">
        <ele>861.05600000000004</ele>
        <time>2021-07-22T05:37:27Z</time>
      </trkpt>
      <trkpt lat="42.330649998039007" lon="-3.698300030082464">
        <ele>860.09699999999998</ele>
        <time>2021-07-22T05:37:30Z</time>
      </trkpt>
      <trkpt lat="42.331130029633641" lon="-3.698819959536195">
        <ele>859.04700000000003</ele>
        <time>2021-07-22T05:37:31Z</time>
      </trkpt>
      <trkpt lat="42.331469999626279" lon="-3.698990028351545">
        <ele>858.05200000000002</ele>
        <time>2021-07-22T05:37:39Z</time>
      </trkpt>
      <trkpt lat="42.332440037280321" lon="-3.699299991130829">
        <ele>854.02599999999995</ele>
        <time>2021-07-22T05:38:12Z</time>
      </trkpt>
      <trkpt lat="42.333230031654239" lon="-3.699460001662374">
        <ele>855.06799999999998</ele>
        <time>2021-07-22T05:38:33Z</time>
      </trkpt>
      <trkpt lat="42.333289962261915" lon="-3.699420019984245">
        <ele>854.02999999999997</ele>
        <time>2021-07-22T05:38:39Z</time>
      </trkpt>
      <trkpt lat="42.333379983901978" lon="-3.699439968913794">
        <ele>855.03899999999999</ele>
        <time>2021-07-22T05:38:53Z</time>
      </trkpt>
      <trkpt lat="42.333430023863912" lon="-3.699490008875728">
        <ele>855.06700000000001</ele>
        <time>2021-07-22T05:38:54Z</time>
      </trkpt>
      <trkpt lat="42.333530019968748" lon="-3.699499983340502">
        <ele>855.08100000000002</ele>
        <time>2021-07-22T05:38:56Z</time>
      </trkpt>
      <trkpt lat="42.333960011601448" lon="-3.699380038306117">
        <ele>855.01900000000001</ele>
        <time>2021-07-22T05:38:59Z</time>
      </trkpt>
      <trkpt lat="42.334039974957705" lon="-3.699380038306117">
        <ele>854.00800000000004</ele>
        <time>2021-07-22T05:39:01Z</time>
      </trkpt>
      <trkpt lat="42.334150029346347" lon="-3.699420019984245">
        <ele>857.01300000000003</ele>
        <time>2021-07-22T05:39:14Z</time>
      </trkpt>
      <trkpt lat="42.334940023720264" lon="-3.699859986081719">
        <ele>856.01400000000001</ele>
        <time>2021-07-22T05:39:24Z</time>
      </trkpt>
      <trkpt lat="42.336020031943917" lon="-3.700389973819256">
        <ele>852.07399999999996</ele>
        <time>2021-07-22T05:39:37Z</time>
      </trkpt>
      <trkpt lat="42.336980011314154" lon="-3.700919961556792">
        <ele>854.04899999999998</ele>
        <time>2021-07-22T05:39:57Z</time>
      </trkpt>
      <trkpt lat="42.337119989097118" lon="-3.701100004836917">
        <ele>854.01300000000003</ele>
        <time>2021-07-22T05:40:08Z</time>
      </trkpt>
      <trkpt lat="42.338789999485016" lon="-3.702370030805469">
        <ele>854.07500000000005</ele>
        <time>2021-07-22T05:40:30Z</time>
      </trkpt>
      <trkpt lat="42.339080013334751" lon="-3.702410012483597">
        <ele>854.01700000000005</ele>
        <time>2021-07-22T05:41:00Z</time>
      </trkpt>
      <trkpt lat="42.339140027761459" lon="-3.702559964731336">
        <ele>854.02599999999995</ele>
        <time>2021-07-22T05:41:06Z</time>
      </trkpt>
      <trkpt lat="42.339150002226233" lon="-3.702749982476234">
        <ele>854.07899999999995</ele>
        <time>2021-07-22T05:41:08Z</time>
      </trkpt>
      <trkpt lat="42.339129969477654" lon="-3.702860036864877">
        <ele>854.005</ele>
        <time>2021-07-22T05:41:10Z</time>
      </trkpt>
      <trkpt lat="42.339070038869977" lon="-3.70303999632597">
        <ele>851.02499999999998</ele>
        <time>2021-07-22T05:41:28Z</time>
      </trkpt>
      <trkpt lat="42.338999966159463" lon="-3.703130017966032">
        <ele>851.00800000000004</ele>
        <time>2021-07-22T05:41:34Z</time>
      </trkpt>
      <trkpt lat="42.339010024443269" lon="-3.703000014647842">
        <ele>852.08399999999995</ele>
        <time>2021-07-22T05:41:42Z</time>
      </trkpt>
      <trkpt lat="42.339119995012879" lon="-3.702519983053207">
        <ele>853.03499999999997</ele>
        <time>2021-07-22T05:41:50Z</time>
      </trkpt>
      <trkpt lat="42.339150002226233" lon="-3.702749982476234">
        <ele>852.02499999999998</ele>
        <time>2021-07-22T05:41:54Z</time>
      </trkpt>
      <trkpt lat="42.339129969477654" lon="-3.702860036864877">
        <ele>852.03999999999996</ele>
        <time>2021-07-22T05:41:56Z</time>
      </trkpt>
      <trkpt lat="42.339070038869977" lon="-3.70303999632597">
        <ele>852.01400000000001</ele>
        <time>2021-07-22T05:41:57Z</time>
      </trkpt>
      <trkpt lat="42.338999966159463" lon="-3.703130017966032">
        <ele>852.02599999999995</ele>
        <time>2021-07-22T05:41:59Z</time>
      </trkpt>
      <trkpt lat="42.338810032233596" lon="-3.70362002402544">
        <ele>851.07799999999997</ele>
        <time>2021-07-22T05:42:20Z</time>
      </trkpt>
      <trkpt lat="42.337519973516464" lon="-3.705469993874431">
        <ele>851.03700000000003</ele>
        <time>2021-07-22T05:42:22Z</time>
      </trkpt>
      <trkpt lat="42.336959978565574" lon="-3.706840015947819">
        <ele>847.06200000000001</ele>
        <time>2021-07-22T05:43:44Z</time>
      </trkpt>
      <trkpt lat="42.336850007995963" lon="-3.707309989258647">
        <ele>847.08299999999997</ele>
        <time>2021-07-22T05:43:49Z</time>
      </trkpt>
      <trkpt lat="42.336699971929193" lon="-3.708310034126043">
        <ele>847.01099999999997</ele>
        <time>2021-07-22T05:43:51Z</time>
      </trkpt>
      <trkpt lat="42.336750011891127" lon="-3.708420004695654">
        <ele>847.00800000000004</ele>
        <time>2021-07-22T05:43:52Z</time>
      </trkpt>
      <trkpt lat="42.336750011891127" lon="-3.70854003354907">
        <ele>847.02300000000002</ele>
        <time>2021-07-22T05:43:56Z</time>
      </trkpt>
      <trkpt lat="42.336659990251064" lon="-3.708729967474937">
        <ele>847.04399999999998</ele>
        <time>2021-07-22T05:44:01Z</time>
      </trkpt>
      <trkpt lat="42.336659990251064" lon="-3.708880003541708">
        <ele>844.08399999999995</ele>
        <time>2021-07-22T05:44:46Z</time>
      </trkpt>
      <trkpt lat="42.336850007995963" lon="-3.70983000844717"/>
      <trkpt lat="42.33710004016757" lon="-3.710499973967671"/>
      <trkpt lat="42.337500024586916" lon="-3.711330033838749"/>
      <trkpt lat="42.338239978998899" lon="-3.712539961561561"/>
      <trkpt lat="42.338580032810569" lon="-3.713229959830642"/>
      <trkpt lat="42.339159976691008" lon="-3.714720010757446"/>
      <trkpt lat="42.339740004390478" lon="-3.716820012778044"/>
      <trkpt lat="42.339900014922023" lon="-3.71719996444881"/>
      <trkpt lat="42.340000011026859" lon="-3.717319993302226"/>
      <trkpt lat="42.339990036562085" lon="-3.717459971085191"/>
      <trkpt lat="42.340650027617812" lon="-3.718479964882135"/>
      <trkpt lat="42.340850019827485" lon="-3.718869974836707"/>
      <trkpt lat="42.341040037572384" lon="-3.719399962574244"/>
      <trkpt lat="42.341219997033477" lon="-3.720019971951842"/>
      <trkpt lat="42.341350000351667" lon="-3.720200015231967"/>
      <trkpt lat="42.341350000351667" lon="-3.720349967479706"/>
      <trkpt lat="42.341299960389733" lon="-3.72042004019022"/>
      <trkpt lat="42.341289985924959" lon="-3.720549959689379"/>
      <trkpt lat="42.34144002199173" lon="-3.722130032256246"/>
      <trkpt lat="42.341429963707924" lon="-3.72227001003921"/>
      <trkpt lat="42.342049973085523" lon="-3.728449987247586"/>
      <trkpt lat="42.342179976403713" lon="-3.728839997202158"/>
      <trkpt lat="42.342260023579001" lon="-3.728949967771769"/>
      <trkpt lat="42.34227997250855" lon="-3.729039989411831"/>
      <trkpt lat="42.342200009152293" lon="-3.729320028796792"/>
      <trkpt lat="42.342170001938939" lon="-3.729650024324656"/>
      <trkpt lat="42.342499997466803" lon="-3.733049975708127"/>
      <trkpt lat="42.342499997466803" lon="-3.733049975708127">
        <ele>844.08399999999995</ele>
        <time>2021-07-22T05:44:46Z</time>
      </trkpt>
      <trkpt lat="42.342590019106865" lon="-3.733430011197925">
        <ele>843.06899999999996</ele>
        <time>2021-07-22T05:44:51Z</time>
      </trkpt>
      <trkpt lat="42.342639975249767" lon="-3.733490025624633">
        <ele>843.03300000000002</ele>
        <time>2021-07-22T05:44:52Z</time>
      </trkpt>
      <trkpt lat="42.342669982463121" lon="-3.733639977872372">
        <ele>843.05499999999995</ele>
        <time>2021-07-22T05:44:54Z</time>
      </trkpt>
      <trkpt lat="42.342630000784993" lon="-3.733769981190562">
        <ele>843.03700000000003</ele>
        <time>2021-07-22T05:44:56Z</time>
      </trkpt>
      <trkpt lat="42.342599993571639" lon="-3.733799988403916">
        <ele>843.04600000000005</ele>
        <time>2021-07-22T05:44:57Z</time>
      </trkpt>
      <trkpt lat="42.342590019106865" lon="-3.734189998358488">
        <ele>843.053</ele>
        <time>2021-07-22T05:45:02Z</time>
      </trkpt>
      <trkpt lat="42.342680040746927" lon="-3.734849989414215">
        <ele>846.00400000000002</ele>
        <time>2021-07-22T05:45:11Z</time>
      </trkpt>
      <trkpt lat="42.342850025743246" lon="-3.736499967053533">
        <ele>844.01400000000001</ele>
        <time>2021-07-22T05:45:33Z</time>
      </trkpt>
      <trkpt lat="42.34283996745944" lon="-3.736840020865202">
        <ele>844.00800000000004</ele>
        <time>2021-07-22T05:45:37Z</time>
      </trkpt>
      <trkpt lat="42.342769978567958" lon="-3.73720002360642">
        <ele>844.02200000000005</ele>
        <time>2021-07-22T05:45:42Z</time>
      </trkpt>
      <trkpt lat="42.342579960823059" lon="-3.737690029665828">
        <ele>844.04300000000001</ele>
        <time>2021-07-22T05:45:49Z</time>
      </trkpt>
      <trkpt lat="42.341909995302558" lon="-3.739140015095472">
        <ele>845.07299999999998</ele>
        <time>2021-07-22T05:46:12Z</time>
      </trkpt>
      <trkpt lat="42.341740010306239" lon="-3.739670002833009">
        <ele>844.03800000000001</ele>
        <time>2021-07-22T05:46:19Z</time>
      </trkpt>
      <trkpt lat="42.340750023722649" lon="-3.743380000814796">
        <ele>846.03200000000004</ele>
        <time>2021-07-22T05:47:11Z</time>
      </trkpt>
      <trkpt lat="42.340609962120652" lon="-3.744019959121943">
        <ele>847.07399999999996</ele>
        <time>2021-07-22T05:47:20Z</time>
      </trkpt>
      <trkpt lat="42.34053997322917" lon="-3.744480041787028">
        <ele>848.096</ele>
        <time>2021-07-22T05:47:26Z</time>
      </trkpt>
      <trkpt lat="42.340750023722649" lon="-3.759959992021322">
        <ele>869.09500000000003</ele>
        <time>2021-07-22T05:50:50Z</time>
      </trkpt>
      <trkpt lat="42.340780030936003" lon="-3.760089995339513">
        <ele>869.08500000000004</ele>
        <time>2021-07-22T05:50:52Z</time>
      </trkpt>
      <trkpt lat="42.340980023145676" lon="-3.76044999808073">
        <ele>868.08900000000006</ele>
        <time>2021-07-22T05:50:58Z</time>
      </trkpt>
      <trkpt lat="42.341020004823804" lon="-3.760640015825629">
        <ele>868.01700000000005</ele>
        <time>2021-07-22T05:51:00Z</time>
      </trkpt>
      <trkpt lat="42.34096996486187" lon="-3.760810000821948">
        <ele>867.00800000000004</ele>
        <time>2021-07-22T05:51:03Z</time>
      </trkpt>
      <trkpt lat="42.340890001505613" lon="-3.760919971391559">
        <ele>867.04499999999996</ele>
        <time>2021-07-22T05:51:05Z</time>
      </trkpt>
      <trkpt lat="42.340839961543679" lon="-3.761060032993555">
        <ele>866.08600000000001</ele>
        <time>2021-07-22T05:51:07Z</time>
      </trkpt>
      <trkpt lat="42.340820012614131" lon="-3.761320039629936">
        <ele>866.05600000000004</ele>
        <time>2021-07-22T05:51:10Z</time>
      </trkpt>
      <trkpt lat="42.340880027040839" lon="-3.765909969806671">
        <ele>870.08100000000002</ele>
        <time>2021-07-22T05:52:11Z</time>
      </trkpt>
      <trkpt lat="42.340910034254193" lon="-3.766780011355877">
        <ele>870.04499999999996</ele>
        <time>2021-07-22T05:52:22Z</time>
      </trkpt>
      <trkpt lat="42.34101003035903" lon="-3.76751996576786">
        <ele>873.08699999999999</ele>
        <time>2021-07-22T05:52:32Z</time>
      </trkpt>
      <trkpt lat="42.341170040890574" lon="-3.768329992890358">
        <ele>873.01900000000001</ele>
        <time>2021-07-22T05:52:43Z</time>
      </trkpt>
      <trkpt lat="42.342130020260811" lon="-3.772650025784969">
        <ele>871.08799999999997</ele>
        <time>2021-07-22T05:53:42Z</time>
      </trkpt>
      <trkpt lat="42.342290030792356" lon="-3.773270035162568">
        <ele>868.07799999999997</ele>
        <time>2021-07-22T05:53:51Z</time>
      </trkpt>
      <trkpt lat="42.342339986935258" lon="-3.773370031267405">
        <ele>868.03300000000002</ele>
        <time>2021-07-22T05:53:52Z</time>
      </trkpt>
      <trkpt lat="42.342439983040094" lon="-3.773449994623661">
        <ele>868.02599999999995</ele>
        <time>2021-07-22T05:53:55Z</time>
      </trkpt>
      <trkpt lat="42.342490023002028" lon="-3.773540016263723">
        <ele>868.00800000000004</ele>
        <time>2021-07-22T05:53:56Z</time>
      </trkpt>
      <trkpt lat="42.342530004680157" lon="-3.773689968511462">
        <ele>867.08399999999995</ele>
        <time>2021-07-22T05:53:58Z</time>
      </trkpt>
      <trkpt lat="42.342520030215383" lon="-3.773830030113459">
        <ele>867.06500000000005</ele>
        <time>2021-07-22T05:54:00Z</time>
      </trkpt>
      <trkpt lat="42.342420034110546" lon="-3.77409003674984">
        <ele>865.03499999999997</ele>
        <time>2021-07-22T05:54:04Z</time>
      </trkpt>
      <trkpt lat="42.342379968613386" lon="-3.77447996288538">
        <ele>862.09000000000003</ele>
        <time>2021-07-22T05:54:09Z</time>
      </trkpt>
      <trkpt lat="42.342520030215383" lon="-3.775350004434586">
        <ele>859.05399999999997</ele>
        <time>2021-07-22T05:54:21Z</time>
      </trkpt>
      <trkpt lat="42.342599993571639" lon="-3.775710007175803">
        <ele>859.08600000000001</ele>
        <time>2021-07-22T05:54:26Z</time>
      </trkpt>
      <trkpt lat="42.342790011316538" lon="-3.776300009340048">
        <ele>856.07799999999997</ele>
        <time>2021-07-22T05:54:34Z</time>
      </trkpt>
      <trkpt lat="42.343140039592981" lon="-3.776869978755713">
        <ele>854.06700000000001</ele>
        <time>2021-07-22T05:54:44Z</time>
      </trkpt>
      <trkpt lat="42.345840018242598" lon="-3.780330028384924">
        <ele>840.09199999999998</ele>
        <time>2021-07-22T05:55:50Z</time>
      </trkpt>
      <trkpt lat="42.345989970490336" lon="-3.780579976737499">
        <ele>839.07299999999998</ele>
        <time>2021-07-22T05:55:54Z</time>
      </trkpt>
      <trkpt lat="42.346140006557107" lon="-3.780950037762523">
        <ele>838.01999999999998</ele>
        <time>2021-07-22T05:56:00Z</time>
      </trkpt>
      <trkpt lat="42.346309991553426" lon="-3.78156996332109">
        <ele>835.00800000000004</ele>
        <time>2021-07-22T05:56:09Z</time>
      </trkpt>
      <trkpt lat="42.347870031371713" lon="-3.788549993187189">
        <ele>826.01599999999996</ele>
        <time>2021-07-22T05:57:44Z</time>
      </trkpt>
      <trkpt lat="42.34805996529758" lon="-3.789579961448908">
        <ele>827.02700000000004</ele>
        <time>2021-07-22T05:57:58Z</time>
      </trkpt>
      <trkpt lat="42.348539996892214" lon="-3.791699996218085">
        <ele>826.03700000000003</ele>
        <time>2021-07-22T05:58:28Z</time>
      </trkpt>
      <trkpt lat="42.348800003528595" lon="-3.792710015550256">
        <ele>823.03200000000004</ele>
        <time>2021-07-22T05:58:42Z</time>
      </trkpt>
      <trkpt lat="42.348860017955303" lon="-3.792870026081801">
        <ele>824.05600000000004</ele>
        <time>2021-07-22T05:58:44Z</time>
      </trkpt>
      <trkpt lat="42.34893998131156" lon="-3.793000029399991">
        <ele>824.03800000000001</ele>
        <time>2021-07-22T05:58:46Z</time>
      </trkpt>
      <trkpt lat="42.349320016801357" lon="-3.79317001439631">
        <ele>824.00999999999999</ele>
        <time>2021-07-22T05:58:53Z</time>
      </trkpt>
      <trkpt lat="42.349450020119548" lon="-3.793289959430695">
        <ele>824.09900000000005</ele>
        <time>2021-07-22T05:58:56Z</time>
      </trkpt>
      <trkpt lat="42.349620005115867" lon="-3.793530017137528">
        <ele>825.08799999999997</ele>
        <time>2021-07-22T05:59:00Z</time>
      </trkpt>
      <trkpt lat="42.349689994007349" lon="-3.793739983811975">
        <ele>825.024</ele>
        <time>2021-07-22T05:59:03Z</time>
      </trkpt>
      <trkpt lat="42.349729975685477" lon="-3.794120019301772">
        <ele>825.02599999999995</ele>
        <time>2021-07-22T05:59:09Z</time>
      </trkpt>
      <trkpt lat="42.349710026755929" lon="-3.794320011511445">
        <ele>824.00800000000004</ele>
        <time>2021-07-22T05:59:11Z</time>
      </trkpt>
      <trkpt lat="42.349629979580641" lon="-3.794599967077375">
        <ele>824.05499999999995</ele>
        <time>2021-07-22T05:59:15Z</time>
      </trkpt>
      <trkpt lat="42.34954004175961" lon="-3.794759977608919">
        <ele>824.02599999999995</ele>
        <time>2021-07-22T05:59:18Z</time>
      </trkpt>
      <trkpt lat="42.349309958517551" lon="-3.794970028102398">
        <ele>823.06600000000003</ele>
        <time>2021-07-22T05:59:23Z</time>
      </trkpt>
      <trkpt lat="42.349060010164976" lon="-3.795070024207234">
        <ele>823.07100000000003</ele>
        <time>2021-07-22T05:59:27Z</time>
      </trkpt>
      <trkpt lat="42.348879966884851" lon="-3.795049991458654">
        <ele>824.06500000000005</ele>
        <time>2021-07-22T05:59:31Z</time>
      </trkpt>
      <trkpt lat="42.348739989101887" lon="-3.795110005885363">
        <ele>825.03700000000003</ele>
        <time>2021-07-22T05:59:33Z</time>
      </trkpt>
      <trkpt lat="42.348679974675179" lon="-3.795200027525425">
        <ele>825.08900000000006</ele>
        <time>2021-07-22T05:59:35Z</time>
      </trkpt>
      <trkpt lat="42.348649967461824" lon="-3.795370012521744">
        <ele>824.05799999999999</ele>
        <time>2021-07-22T05:59:37Z</time>
      </trkpt>
      <trkpt lat="42.34866002574563" lon="-3.79547000862658">
        <ele>824.06399999999996</ele>
        <time>2021-07-22T05:59:38Z</time>
      </trkpt>
      <trkpt lat="42.348820036277175" lon="-3.795709982514381">
        <ele>823.00599999999997</ele>
        <time>2021-07-22T05:59:43Z</time>
      </trkpt>
      <trkpt lat="42.34893998131156" lon="-3.795809978619218">
        <ele>823.01599999999996</ele>
        <time>2021-07-22T05:59:45Z</time>
      </trkpt>
      <trkpt lat="42.349359998479486" lon="-3.796050036326051">
        <ele>823.00800000000004</ele>
        <time>2021-07-22T05:59:53Z</time>
      </trkpt>
      <trkpt lat="42.34952000901103" lon="-3.796169981360436">
        <ele>824.07299999999998</ele>
        <time>2021-07-22T05:59:57Z</time>
      </trkpt>
      <trkpt lat="42.349659986793995" lon="-3.796320017427206">
        <ele>824.03399999999999</ele>
        <time>2021-07-22T06:00:00Z</time>
      </trkpt>
      <trkpt lat="42.349780015647411" lon="-3.796499976888299">
        <ele>825.024</ele>
        <time>2021-07-22T06:00:03Z</time>
      </trkpt>
      <trkpt lat="42.349899960681796" lon="-3.796750009059906">
        <ele>826.06899999999996</ele>
        <time>2021-07-22T06:00:07Z</time>
      </trkpt>
      <trkpt lat="42.350000040605664" lon="-3.797370018437505">
        <ele>827.01300000000003</ele>
        <time>2021-07-22T06:00:15Z</time>
      </trkpt>
      <trkpt lat="42.350019989535213" lon="-3.798599978908896">
        <ele>825.06500000000005</ele>
        <time>2021-07-22T06:00:31Z</time>
      </trkpt>
      <trkpt lat="42.349980007857084" lon="-3.799410006031394">
        <ele>827.01700000000005</ele>
        <time>2021-07-22T06:00:42Z</time>
      </trkpt>
      <trkpt lat="42.349910018965602" lon="-3.799890037626028">
        <ele>828.07600000000002</ele>
        <time>2021-07-22T06:00:48Z</time>
      </trkpt>
      <trkpt lat="42.349729975685477" lon="-3.800550028681755">
        <ele>828.03200000000004</ele>
        <time>2021-07-22T06:00:58Z</time>
      </trkpt>
      <trkpt lat="42.349599972367287" lon="-3.800859991461039">
        <ele>828.09199999999998</ele>
        <time>2021-07-22T06:01:02Z</time>
      </trkpt>
      <trkpt lat="42.348419968038797" lon="-3.803080022335053">
        <ele>828.01099999999997</ele>
        <time>2021-07-22T06:01:38Z</time>
      </trkpt>
      <trkpt lat="42.348219975829124" lon="-3.803540021181107">
        <ele>828.00800000000004</ele>
        <time>2021-07-22T06:01:45Z</time>
      </trkpt>
      <trkpt lat="42.348030041903257" lon="-3.804060034453869">
        <ele>828.02999999999997</ele>
        <time>2021-07-22T06:01:53Z</time>
      </trkpt>
      <trkpt lat="42.347889980301261" lon="-3.804530007764697">
        <ele>828.03099999999995</ele>
        <time>2021-07-22T06:02:00Z</time>
      </trkpt>
      <trkpt lat="42.347789984196424" lon="-3.805010039359331">
        <ele>828.03099999999995</ele>
        <time>2021-07-22T06:02:06Z</time>
      </trkpt>
      <trkpt lat="42.34767003916204" lon="-3.805810008198023">
        <ele>828.04600000000005</ele>
        <time>2021-07-22T06:02:17Z</time>
      </trkpt>
      <trkpt lat="42.347640031948686" lon="-3.806799994781613">
        <ele>828.00999999999999</ele>
        <time>2021-07-22T06:02:30Z</time>
      </trkpt>
      <trkpt lat="42.34767003916204" lon="-3.807450011372566">
        <ele>829.01199999999994</ele>
        <time>2021-07-22T06:02:39Z</time>
      </trkpt>
      <trkpt lat="42.347949994727969" lon="-3.810430029407144">
        <ele>829.08399999999995</ele>
        <time>2021-07-22T06:03:18Z</time>
      </trkpt>
      <trkpt lat="42.34810003079474" lon="-3.811350027099252">
        <ele>829.09299999999996</ele>
        <time>2021-07-22T06:03:30Z</time>
      </trkpt>
      <trkpt lat="42.348490040749311" lon="-3.813399989157915">
        <ele>829.03700000000003</ele>
        <time>2021-07-22T06:03:58Z</time>
      </trkpt>
      <trkpt lat="42.348700007423759" lon="-3.813980016857386">
        <ele>829.04899999999998</ele>
        <time>2021-07-22T06:04:07Z</time>
      </trkpt>
      <trkpt lat="42.349129999056458" lon="-3.81497997790575">
        <ele>829.01300000000003</ele>
        <time>2021-07-22T06:04:22Z</time>
      </trkpt>
      <trkpt lat="42.349239969626069" lon="-3.815230010077357">
        <ele>828.00800000000004</ele>
        <time>2021-07-22T06:04:26Z</time>
      </trkpt>
      <trkpt lat="42.34941003844142" lon="-3.815490016713738">
        <ele>828.07000000000005</ele>
        <time>2021-07-22T06:04:30Z</time>
      </trkpt>
      <trkpt lat="42.34954004175961" lon="-3.815599987283349">
        <ele>829.05100000000004</ele>
        <time>2021-07-22T06:04:33Z</time>
      </trkpt>
      <trkpt lat="42.34979996457696" lon="-3.815739965066314">
        <ele>830.02099999999996</ele>
        <time>2021-07-22T06:04:38Z</time>
      </trkpt>
      <trkpt lat="42.349989982321858" lon="-3.815929982811213">
        <ele>831.01599999999996</ele>
        <time>2021-07-22T06:04:42Z</time>
      </trkpt>
      <trkpt lat="42.350070029497147" lon="-3.816080018877983">
        <ele>831.01999999999998</ele>
        <time>2021-07-22T06:04:45Z</time>
      </trkpt>
      <trkpt lat="42.350690038874745" lon="-3.81757996045053">
        <ele>830.09199999999998</ele>
        <time>2021-07-22T06:05:07Z</time>
      </trkpt>
      <trkpt lat="42.350939987227321" lon="-3.818110032007098">
        <ele>831.09400000000005</ele>
        <time>2021-07-22T06:05:16Z</time>
      </trkpt>
      <trkpt lat="42.351209968328476" lon="-3.818470034748316">
        <ele>831.09299999999996</ele>
        <time>2021-07-22T06:05:22Z</time>
      </trkpt>
      <trkpt lat="42.356700031086802" lon="-3.822320010513067">
        <ele>826.03399999999999</ele>
        <time>2021-07-22T06:07:12Z</time>
      </trkpt>
      <trkpt lat="42.36501001752913" lon="-3.828090028837323">
        <ele>824.05499999999995</ele>
        <time>2021-07-22T06:09:59Z</time>
      </trkpt>
      <trkpt lat="42.365489965304732" lon="-3.828469980508089">
        <ele>825.00999999999999</ele>
        <time>2021-07-22T06:10:08Z</time>
      </trkpt>
      <trkpt lat="42.365920040756464" lon="-3.828940037637949">
        <ele>825.00800000000004</ele>
        <time>2021-07-22T06:10:18Z</time>
      </trkpt>
      <trkpt lat="42.366350032389164" lon="-3.829619977623224">
        <ele>825.03999999999996</ele>
        <time>2021-07-22T06:10:30Z</time>
      </trkpt>
      <trkpt lat="42.369449995458126" lon="-3.835970023646951">
        <ele>833.01099999999997</ele>
        <time>2021-07-22T06:12:10Z</time>
      </trkpt>
      <trkpt lat="42.369670020416379" lon="-3.836500011384487">
        <ele>833.02099999999996</ele>
        <time>2021-07-22T06:12:18Z</time>
      </trkpt>
      <trkpt lat="42.369979983195662" lon="-3.837450016289949">
        <ele>835.07600000000002</ele>
        <time>2021-07-22T06:12:32Z</time>
      </trkpt>
      <trkpt lat="42.370499996468425" lon="-3.839580025523901">
        <ele>833.03999999999996</ele>
        <time>2021-07-22T06:13:01Z</time>
      </trkpt>
      <trkpt lat="42.372219962999225" lon="-3.847230020910502">
        <ele>846.08199999999999</ele>
        <time>2021-07-22T06:14:46Z</time>
      </trkpt>
      <trkpt lat="42.372360024601221" lon="-3.84812998585403">
        <ele>846.04399999999998</ele>
        <time>2021-07-22T06:14:58Z</time>
      </trkpt>
      <trkpt lat="42.372890012338758" lon="-3.857259973883629">
        <ele>870.04300000000001</ele>
        <time>2021-07-22T06:16:59Z</time>
      </trkpt>
      <trkpt lat="42.372929994016886" lon="-3.858279967680574">
        <ele>872.08600000000001</ele>
        <time>2021-07-22T06:17:12Z</time>
      </trkpt>
      <trkpt lat="42.372869979590178" lon="-3.859189990907908">
        <ele>874.05999999999995</ele>
        <time>2021-07-22T06:17:24Z</time>
      </trkpt>
      <trkpt lat="42.372799990698695" lon="-3.859630040824413">
        <ele>875.02599999999995</ele>
        <time>2021-07-22T06:17:30Z</time>
      </trkpt>
      <trkpt lat="42.372290035709739" lon="-3.861659970134497">
        <ele>878.00800000000004</ele>
        <time>2021-07-22T06:17:58Z</time>
      </trkpt>
      <trkpt lat="42.372149974107742" lon="-3.862370001152158">
        <ele>880.03499999999997</ele>
        <time>2021-07-22T06:18:08Z</time>
      </trkpt>
      <trkpt lat="42.371350005269051" lon="-3.869920000433922">
        <ele>890.04600000000005</ele>
        <time>2021-07-22T06:19:48Z</time>
      </trkpt>
      <trkpt lat="42.37124003469944" lon="-3.87126998975873">
        <ele>895.02599999999995</ele>
        <time>2021-07-22T06:20:06Z</time>
      </trkpt>
      <trkpt lat="42.371250009164214" lon="-3.871940039098263">
        <ele>898.09100000000001</ele>
        <time>2021-07-22T06:20:15Z</time>
      </trkpt>
      <trkpt lat="42.371280016377568" lon="-3.8722800090909">
        <ele>900.09500000000003</ele>
        <time>2021-07-22T06:20:19Z</time>
      </trkpt>
      <trkpt lat="42.371359979733825" lon="-3.872900018468499">
        <ele>903.01700000000005</ele>
        <time>2021-07-22T06:20:28Z</time>
      </trkpt>
      <trkpt lat="42.371619986370206" lon="-3.8744299672544">
        <ele>908.09900000000005</ele>
        <time>2021-07-22T06:20:48Z</time>
      </trkpt>
      <trkpt lat="42.371689975261688" lon="-3.875119965523481">
        <ele>909.06799999999998</ele>
        <time>2021-07-22T06:20:57Z</time>
      </trkpt>
      <trkpt lat="42.371710008010268" lon="-3.875899985432625">
        <ele>912.08900000000006</ele>
        <time>2021-07-22T06:21:08Z</time>
      </trkpt>
      <trkpt lat="42.370750028640032" lon="-3.886509966105223">
        <ele>918.00599999999997</ele>
        <time>2021-07-22T06:23:28Z</time>
      </trkpt>
      <trkpt lat="42.370739970356226" lon="-3.887419989332557">
        <ele>916.02599999999995</ele>
        <time>2021-07-22T06:23:40Z</time>
      </trkpt>
      <trkpt lat="42.370890006422997" lon="-3.890140000730753">
        <ele>909.00800000000004</ele>
        <time>2021-07-22T06:24:16Z</time>
      </trkpt>
      <trkpt lat="42.370980028063059" lon="-3.891389993950725">
        <ele>905.07500000000005</ele>
        <time>2021-07-22T06:24:33Z</time>
      </trkpt>
      <trkpt lat="42.371059991419315" lon="-3.892100024968386">
        <ele>906.03599999999994</ele>
        <time>2021-07-22T06:24:42Z</time>
      </trkpt>
      <trkpt lat="42.371229976415634" lon="-3.892999989911914">
        <ele>906.096</ele>
        <time>2021-07-22T06:24:54Z</time>
      </trkpt>
      <trkpt lat="42.371380012482405" lon="-3.89352997764945">
        <ele>904.05100000000004</ele>
        <time>2021-07-22T06:25:02Z</time>
      </trkpt>
      <trkpt lat="42.371529964730144" lon="-3.89400003477931">
        <ele>900.07500000000005</ele>
        <time>2021-07-22T06:25:08Z</time>
      </trkpt>
      <trkpt lat="42.371800029650331" lon="-3.894630018621683">
        <ele>897.04700000000003</ele>
        <time>2021-07-22T06:25:18Z</time>
      </trkpt>
      <trkpt lat="42.377840029075742" lon="-3.90631003305316">
        <ele>864.06899999999996</ele>
        <time>2021-07-22T06:28:25Z</time>
      </trkpt>
      <trkpt lat="42.378110010176897" lon="-3.90674002468586">
        <ele>863.07799999999997</ele>
        <time>2021-07-22T06:28:33Z</time>
      </trkpt>
      <trkpt lat="42.378509994596243" lon="-3.90727998688817">
        <ele>863.04899999999998</ele>
        <time>2021-07-22T06:28:43Z</time>
      </trkpt>
      <trkpt lat="42.37962001003325" lon="-3.908599968999624">
        <ele>859.00199999999995</ele>
        <time>2021-07-22T06:29:09Z</time>
      </trkpt>
      <trkpt lat="42.379980012774467" lon="-3.909089975059032">
        <ele>856.02200000000005</ele>
        <time>2021-07-22T06:29:18Z</time>
      </trkpt>
      <trkpt lat="42.38020003773272" lon="-3.909440003335476">
        <ele>856.00800000000004</ele>
        <time>2021-07-22T06:29:24Z</time>
      </trkpt>
      <trkpt lat="42.38047999329865" lon="-3.910050038248301">
        <ele>855.09100000000001</ele>
        <time>2021-07-22T06:29:34Z</time>
      </trkpt>
      <trkpt lat="42.380779981613159" lon="-3.911049999296665">
        <ele>850.01199999999994</ele>
        <time>2021-07-22T06:29:48Z</time>
      </trkpt>
      <trkpt lat="42.380900010466576" lon="-3.912139981985092">
        <ele>848.072</ele>
        <time>2021-07-22T06:30:02Z</time>
      </trkpt>
      <trkpt lat="42.380900010466576" lon="-3.912590006366372">
        <ele>848.01700000000005</ele>
        <time>2021-07-22T06:30:08Z</time>
      </trkpt>
      <trkpt lat="42.380830021575093" lon="-3.913280004635453">
        <ele>846.08100000000002</ele>
        <time>2021-07-22T06:30:17Z</time>
      </trkpt>
      <trkpt lat="42.380760032683611" lon="-3.913670014590025">
        <ele>845.07299999999998</ele>
        <time>2021-07-22T06:30:23Z</time>
      </trkpt>
      <trkpt lat="42.380249993875623" lon="-3.915740009397268">
        <ele>838.03499999999997</ele>
        <time>2021-07-22T06:30:51Z</time>
      </trkpt>
      <trkpt lat="42.380100041627884" lon="-3.91653997823596">
        <ele>837.05399999999997</ele>
        <time>2021-07-22T06:31:02Z</time>
      </trkpt>
      <trkpt lat="42.379880016669631" lon="-3.918309984728694">
        <ele>836.096</ele>
        <time>2021-07-22T06:31:26Z</time>
      </trkpt>
      <trkpt lat="42.379740038886666" lon="-3.919010041281581">
        <ele>838.03099999999995</ele>
        <time>2021-07-22T06:31:35Z</time>
      </trkpt>
      <trkpt lat="42.379569970071316" lon="-3.919629966840148">
        <ele>840.024</ele>
        <time>2021-07-22T06:31:44Z</time>
      </trkpt>
      <trkpt lat="42.379559995606542" lon="-3.919749995693564">
        <ele>840.00800000000004</ele>
        <time>2021-07-22T06:31:46Z</time>
      </trkpt>
      <trkpt lat="42.379309963434935" lon="-3.920850036665797">
        <ele>839.08600000000001</ele>
        <time>2021-07-22T06:32:01Z</time>
      </trkpt>
      <trkpt lat="42.379120029509068" lon="-3.921900037676096">
        <ele>840.02700000000004</ele>
        <time>2021-07-22T06:32:15Z</time>
      </trkpt>
      <trkpt lat="42.378849964588881" lon="-3.923540040850639">
        <ele>840.05700000000002</ele>
        <time>2021-07-22T06:32:37Z</time>
      </trkpt>
      <trkpt lat="42.378779975697398" lon="-3.924370016902685">
        <ele>839.08199999999999</ele>
        <time>2021-07-22T06:32:48Z</time>
      </trkpt>
      <trkpt lat="42.378779975697398" lon="-3.924830015748739">
        <ele>838.02599999999995</ele>
        <time>2021-07-22T06:32:54Z</time>
      </trkpt>
      <trkpt lat="42.378879971802235" lon="-3.925720006227493">
        <ele>840.048</ele>
        <time>2021-07-22T06:33:06Z</time>
      </trkpt>
      <trkpt lat="42.379020033404231" lon="-3.926340015605092">
        <ele>840.09000000000003</ele>
        <time>2021-07-22T06:33:14Z</time>
      </trkpt>
      <trkpt lat="42.379139978438616" lon="-3.926749974489212">
        <ele>839.09900000000005</ele>
        <time>2021-07-22T06:33:20Z</time>
      </trkpt>
      <trkpt lat="42.382020000368357" lon="-3.93389998935163">
        <ele>840.08199999999999</ele>
        <time>2021-07-22T06:35:07Z</time>
      </trkpt>
      <trkpt lat="42.382389977574348" lon="-3.934870027005673">
        <ele>841.04300000000001</ele>
        <time>2021-07-22T06:35:22Z</time>
      </trkpt>
      <trkpt lat="42.382530039176345" lon="-3.935360033065081">
        <ele>842.01700000000005</ele>
        <time>2021-07-22T06:35:29Z</time>
      </trkpt>
      <trkpt lat="42.382730031386018" lon="-3.936420008540154">
        <ele>843.00800000000004</ele>
        <time>2021-07-22T06:35:43Z</time>
      </trkpt>
      <trkpt lat="42.382770013064146" lon="-3.936840025708079">
        <ele>843.07500000000005</ele>
        <time>2021-07-22T06:35:49Z</time>
      </trkpt>
      <trkpt lat="42.382789961993694" lon="-3.937649969011545">
        <ele>844.05600000000004</ele>
        <time>2021-07-22T06:35:59Z</time>
      </trkpt>
      <trkpt lat="42.382709998637438" lon="-3.938539959490299">
        <ele>847.06600000000003</ele>
        <time>2021-07-22T06:36:11Z</time>
      </trkpt>
      <trkpt lat="42.381969960406423" lon="-3.943219995126128">
        <ele>857.07100000000003</ele>
        <time>2021-07-22T06:37:14Z</time>
      </trkpt>
      <trkpt lat="42.38192000426352" lon="-3.9440399967134">
        <ele>857.07500000000005</ele>
        <time>2021-07-22T06:37:25Z</time>
      </trkpt>
      <trkpt lat="42.38176996819675" lon="-3.949520001187921">
        <ele>863.03700000000003</ele>
        <time>2021-07-22T06:38:37Z</time>
      </trkpt>
      <trkpt lat="42.38176996819675" lon="-3.950539994984865">
        <ele>863.01900000000001</ele>
        <time>2021-07-22T06:38:50Z</time>
      </trkpt>
      <trkpt lat="42.381820008158684" lon="-3.951870035380125">
        <ele>862.02800000000002</ele>
        <time>2021-07-22T06:39:08Z</time>
      </trkpt>
      <trkpt lat="42.3819400370121" lon="-3.953490005806088">
        <ele>867.09199999999998</ele>
        <time>2021-07-22T06:39:29Z</time>
      </trkpt>
      <trkpt lat="42.382059982046485" lon="-3.954459959641099">
        <ele>872.07299999999998</ele>
        <time>2021-07-22T06:39:42Z</time>
      </trkpt>
      <trkpt lat="42.382380003109574" lon="-3.956370027735829">
        <ele>876.01999999999998</ele>
        <time>2021-07-22T06:40:08Z</time>
      </trkpt>
      <trkpt lat="42.382619976997375" lon="-3.957509966567159">
        <ele>878.00800000000004</ele>
        <time>2021-07-22T06:40:23Z</time>
      </trkpt>
      <trkpt lat="42.382939998060465" lon="-3.95875995978713">
        <ele>880.07600000000002</ele>
        <time>2021-07-22T06:40:41Z</time>
      </trkpt>
      <trkpt lat="42.383090034127235" lon="-3.959479965269566">
        <ele>880.05700000000002</ele>
        <time>2021-07-22T06:40:51Z</time>
      </trkpt>
      <trkpt lat="42.383220037445426" lon="-3.960199970752001">
        <ele>879.02700000000004</ele>
        <time>2021-07-22T06:41:00Z</time>
      </trkpt>
      <trkpt lat="42.383599989116192" lon="-3.962749997153878">
        <ele>879.072</ele>
        <time>2021-07-22T06:41:34Z</time>
      </trkpt>
      <trkpt lat="42.383759999647737" lon="-3.96359003148973">
        <ele>883.02599999999995</ele>
        <time>2021-07-22T06:41:46Z</time>
      </trkpt>
      <trkpt lat="42.383899977430701" lon="-3.964099986478686">
        <ele>885.07799999999997</ele>
        <time>2021-07-22T06:41:53Z</time>
      </trkpt>
      <trkpt lat="42.384919971227646" lon="-3.967149993404746">
        <ele>893.08000000000004</ele>
        <time>2021-07-22T06:42:37Z</time>
      </trkpt>
      <trkpt lat="42.385100014507771" lon="-3.967570010572672">
        <ele>894.03899999999999</ele>
        <time>2021-07-22T06:42:43Z</time>
      </trkpt>
      <trkpt lat="42.385369995608926" lon="-3.968069991096854">
        <ele>896.07799999999997</ele>
        <time>2021-07-22T06:42:52Z</time>
      </trkpt>
      <trkpt lat="42.386229978874326" lon="-3.969319984316826">
        <ele>901.03300000000002</ele>
        <time>2021-07-22T06:43:14Z</time>
      </trkpt>
      <trkpt lat="42.386399963870645" lon="-3.969649979844689">
        <ele>902.02599999999995</ele>
        <time>2021-07-22T06:43:19Z</time>
      </trkpt>
      <trkpt lat="42.386549999937415" lon="-3.969979975372553">
        <ele>903.00800000000004</ele>
        <time>2021-07-22T06:43:24Z</time>
      </trkpt>
      <trkpt lat="42.386670028790832" lon="-3.970339978113771">
        <ele>903.06399999999996</ele>
        <time>2021-07-22T06:43:30Z</time>
      </trkpt>
      <trkpt lat="42.386959958821535" lon="-3.971570022404194">
        <ele>905.06500000000005</ele>
        <time>2021-07-22T06:43:46Z</time>
      </trkpt>
      <trkpt lat="42.387189958244562" lon="-3.972109984606504">
        <ele>907.05499999999995</ele>
        <time>2021-07-22T06:43:55Z</time>
      </trkpt>
      <trkpt lat="42.387449964880943" lon="-3.972539976239204">
        <ele>908.00999999999999</ele>
        <time>2021-07-22T06:44:02Z</time>
      </trkpt>
      <trkpt lat="42.38799998536706" lon="-3.973240032792091">
        <ele>912.04399999999998</ele>
        <time>2021-07-22T06:44:15Z</time>
      </trkpt>
      <trkpt lat="42.388239959254861" lon="-3.973619984462857">
        <ele>913.05600000000004</ele>
        <time>2021-07-22T06:44:22Z</time>
      </trkpt>
      <trkpt lat="42.388420002534986" lon="-3.974040001630783">
        <ele>909.02800000000002</ele>
        <time>2021-07-22T06:44:28Z</time>
      </trkpt>
      <trkpt lat="42.38855998031795" lon="-3.974479967728257">
        <ele>910.05700000000002</ele>
        <time>2021-07-22T06:44:35Z</time>
      </trkpt>
      <trkpt lat="42.388640027493238" lon="-3.974909959360957">
        <ele>910.03300000000002</ele>
        <time>2021-07-22T06:44:40Z</time>
      </trkpt>
      <trkpt lat="42.388670034706593" lon="-3.975610015913844">
        <ele>915.02300000000002</ele>
        <time>2021-07-22T06:44:50Z</time>
      </trkpt>
      <trkpt lat="42.388610020279884" lon="-3.976100021973252">
        <ele>917.01499999999999</ele>
        <time>2021-07-22T06:44:56Z</time>
      </trkpt>
      <trkpt lat="42.388289999216795" lon="-3.977870028465986">
        <ele>922.00800000000004</ele>
        <time>2021-07-22T06:45:20Z</time>
      </trkpt>
      <trkpt lat="42.388269966468215" lon="-3.978600008413196">
        <ele>923.08000000000004</ele>
        <time>2021-07-22T06:45:30Z</time>
      </trkpt>
      <trkpt lat="42.388340039178729" lon="-3.979109963402152">
        <ele>925.02099999999996</ele>
        <time>2021-07-22T06:45:37Z</time>
      </trkpt>
      <trkpt lat="42.388399969786406" lon="-3.979380028322339">
        <ele>925.09100000000001</ele>
        <time>2021-07-22T06:45:40Z</time>
      </trkpt>
      <trkpt lat="42.388819986954331" lon="-3.980679977685213">
        <ele>928.05600000000004</ele>
        <time>2021-07-22T06:45:59Z</time>
      </trkpt>
      <trkpt lat="42.388970023021102" lon="-3.98125003091991">
        <ele>930.05999999999995</ele>
        <time>2021-07-22T06:46:07Z</time>
      </trkpt>
      <trkpt lat="42.391000036150217" lon="-3.991140006110072">
        <ele>933.06200000000001</ele>
        <time>2021-07-22T06:48:22Z</time>
      </trkpt>
      <trkpt lat="42.391240010038018" lon="-3.992150025442243">
        <ele>932.05399999999997</ele>
        <time>2021-07-22T06:48:36Z</time>
      </trkpt>
      <trkpt lat="42.391489958390594" lon="-3.992880005389452">
        <ele>930.08299999999997</ele>
        <time>2021-07-22T06:48:46Z</time>
      </trkpt>
      <trkpt lat="42.392359999939799" lon="-3.99468001909554">
        <ele>918.01900000000001</ele>
        <time>2021-07-22T06:49:15Z</time>
      </trkpt>
      <trkpt lat="42.392680021002889" lon="-3.995470013469458">
        <ele>916.00900000000001</ele>
        <time>2021-07-22T06:49:26Z</time>
      </trkpt>
      <trkpt lat="42.392810024321079" lon="-3.995900005102158">
        <ele>916.01900000000001</ele>
        <time>2021-07-22T06:49:33Z</time>
      </trkpt>
      <trkpt lat="42.393809985369444" lon="-4.000100009143353">
        <ele>898.00800000000004</ele>
        <time>2021-07-22T06:50:31Z</time>
      </trkpt>
      <trkpt lat="42.394889993593097" lon="-4.003759967163205">
        <ele>871.03800000000001</ele>
        <time>2021-07-22T06:51:22Z</time>
      </trkpt>
      <trkpt lat="42.395119993016124" lon="-4.005020018666983">
        <ele>867.03899999999999</ele>
        <time>2021-07-22T06:51:39Z</time>
      </trkpt>
      <trkpt lat="42.395200040191412" lon="-4.005940016359091">
        <ele>868.029</ele>
        <time>2021-07-22T06:51:52Z</time>
      </trkpt>
      <trkpt lat="42.395210014656186" lon="-4.006439996883273">
        <ele>869.024</ele>
        <time>2021-07-22T06:51:58Z</time>
      </trkpt>
      <trkpt lat="42.395159974694252" lon="-4.007569961249828">
        <ele>867.048</ele>
        <time>2021-07-22T06:52:13Z</time>
      </trkpt>
      <trkpt lat="42.394699975848198" lon="-4.012519977986813">
        <ele>854.08000000000004</ele>
        <time>2021-07-22T06:53:19Z</time>
      </trkpt>
      <trkpt lat="42.39465999417007" lon="-4.013839960098267">
        <ele>851.08199999999999</ele>
        <time>2021-07-22T06:53:36Z</time>
      </trkpt>
      <trkpt lat="42.394650019705296" lon="-4.015039997175336">
        <ele>849.02099999999996</ele>
        <time>2021-07-22T06:53:52Z</time>
      </trkpt>
      <trkpt lat="42.394669968634844" lon="-4.015550035983324">
        <ele>849.05499999999995</ele>
        <time>2021-07-22T06:53:58Z</time>
      </trkpt>
      <trkpt lat="42.394720008596778" lon="-4.016020009294152">
        <ele>848.00699999999995</ele>
        <time>2021-07-22T06:54:05Z</time>
      </trkpt>
      <trkpt lat="42.394899968057871" lon="-4.016879992559552">
        <ele>847.01700000000005</ele>
        <time>2021-07-22T06:54:16Z</time>
      </trkpt>
      <trkpt lat="42.395200040191412" lon="-4.017730001360178">
        <ele>848.00800000000004</ele>
        <time>2021-07-22T06:54:29Z</time>
      </trkpt>
      <trkpt lat="42.395839998498559" lon="-4.019030034542084">
        <ele>851.09199999999998</ele>
        <time>2021-07-22T06:54:49Z</time>
      </trkpt>
      <trkpt lat="42.395960027351975" lon="-4.019330022856593">
        <ele>850.053</ele>
        <time>2021-07-22T06:54:54Z</time>
      </trkpt>
      <trkpt lat="42.396200001239777" lon="-4.020180031657219">
        <ele>849.07299999999998</ele>
        <time>2021-07-22T06:55:06Z</time>
      </trkpt>
      <trkpt lat="42.396320030093193" lon="-4.0208700299263">
        <ele>849.02800000000002</ele>
        <time>2021-07-22T06:55:15Z</time>
      </trkpt>
      <trkpt lat="42.396369986236095" lon="-4.021500013768673">
        <ele>845.02200000000005</ele>
        <time>2021-07-22T06:55:23Z</time>
      </trkpt>
      <trkpt lat="42.396360011771321" lon="-4.022310040891171">
        <ele>841.07399999999996</ele>
        <time>2021-07-22T06:55:34Z</time>
      </trkpt>
      <trkpt lat="42.396239982917905" lon="-4.023149991407991">
        <ele>838.01599999999996</ele>
        <time>2021-07-22T06:55:45Z</time>
      </trkpt>
      <trkpt lat="42.39599003456533" lon="-4.024529987946153">
        <ele>833.03499999999997</ele>
        <time>2021-07-22T06:56:04Z</time>
      </trkpt>
      <trkpt lat="42.39594996906817" lon="-4.025059975683689">
        <ele>832.02300000000002</ele>
        <time>2021-07-22T06:56:11Z</time>
      </trkpt>
      <trkpt lat="42.39599003456533" lon="-4.026190023869276">
        <ele>830.08299999999997</ele>
        <time>2021-07-22T06:56:26Z</time>
      </trkpt>
      <trkpt lat="42.396299997344613" lon="-4.028060026466847">
        <ele>830.01099999999997</ele>
        <time>2021-07-22T06:56:51Z</time>
      </trkpt>
      <trkpt lat="42.396490015089512" lon="-4.028910035267472">
        <ele>829.00800000000004</ele>
        <time>2021-07-22T06:57:03Z</time>
      </trkpt>
      <trkpt lat="42.397259976714849" lon="-4.031589981168509">
        <ele>826.07899999999995</ele>
        <time>2021-07-22T06:57:40Z</time>
      </trkpt>
      <trkpt lat="42.397610004991293" lon="-4.032739978283644">
        <ele>826.02999999999997</ele>
        <time>2021-07-22T06:57:57Z</time>
      </trkpt>
      <trkpt lat="42.398239988833666" lon="-4.034549966454506">
        <ele>821.09000000000003</ele>
        <time>2021-07-22T06:58:23Z</time>
      </trkpt>
      <trkpt lat="42.398899979889393" lon="-4.036219976842403">
        <ele>821.04499999999996</ele>
        <time>2021-07-22T06:58:48Z</time>
      </trkpt>
      <trkpt lat="42.399140037596226" lon="-4.036890026181936">
        <ele>819.04899999999998</ele>
        <time>2021-07-22T06:58:58Z</time>
      </trkpt>
      <trkpt lat="42.399359978735447" lon="-4.037299985066056">
        <ele>819.01099999999997</ele>
        <time>2021-07-22T06:59:04Z</time>
      </trkpt>
      <trkpt lat="42.399370037019253" lon="-4.037359999492765">
        <ele>818.01300000000003</ele>
        <time>2021-07-22T06:59:05Z</time>
      </trkpt>
      <trkpt lat="42.399359978735447" lon="-4.037420013919473">
        <ele>818.04200000000003</ele>
        <time>2021-07-22T06:59:06Z</time>
      </trkpt>
      <trkpt lat="42.399310022592545" lon="-4.037499977275729">
        <ele>818.02300000000002</ele>
        <time>2021-07-22T06:59:07Z</time>
      </trkpt>
      <trkpt lat="42.39928001537919" lon="-4.037510035559535">
        <ele>818.08299999999997</ele>
        <time>2021-07-22T06:59:08Z</time>
      </trkpt>
      <trkpt lat="42.399289989843965" lon="-4.038049997761846">
        <ele>817.01099999999997</ele>
        <time>2021-07-22T06:59:15Z</time>
      </trkpt>
      <trkpt lat="42.397849978879094" lon="-4.049530019983649">
        <ele>817.00800000000004</ele>
        <time>2021-07-22T07:01:48Z</time>
      </trkpt>
      <trkpt lat="42.395960027351975" lon="-4.064969988539815">
        <ele>801.029</ele>
        <time>2021-07-22T07:05:14Z</time>
      </trkpt>
      <trkpt lat="42.395849972963333" lon="-4.06568999402225">
        <ele>801.02999999999997</ele>
        <time>2021-07-22T07:05:23Z</time>
      </trkpt>
      <trkpt lat="42.395630031824112" lon="-4.066589958965778">
        <ele>800.07000000000005</ele>
        <time>2021-07-22T07:05:36Z</time>
      </trkpt>
      <trkpt lat="42.395370025187731" lon="-4.067250033840537">
        <ele>800.07500000000005</ele>
        <time>2021-07-22T07:05:46Z</time>
      </trkpt>
      <trkpt lat="42.395080011337996" lon="-4.067829977720976">
        <ele>800.05899999999997</ele>
        <time>2021-07-22T07:05:55Z</time>
      </trkpt>
      <trkpt lat="42.394869960844517" lon="-4.068189980462194">
        <ele>799.05100000000004</ele>
        <time>2021-07-22T07:06:01Z</time>
      </trkpt>
      <trkpt lat="42.394130006432533" lon="-4.069269988685846">
        <ele>799.08299999999997</ele>
        <time>2021-07-22T07:06:20Z</time>
      </trkpt>
      <trkpt lat="42.393670007586479" lon="-4.07007004134357">
        <ele>799.02200000000005</ele>
        <time>2021-07-22T07:06:34Z</time>
      </trkpt>
      <trkpt lat="42.393440008163452" lon="-4.070570021867752">
        <ele>798.08600000000001</ele>
        <time>2021-07-22T07:06:41Z</time>
      </trkpt>
      <trkpt lat="42.393270023167133" lon="-4.071049969643354">
        <ele>798.05999999999995</ele>
        <time>2021-07-22T07:06:48Z</time>
      </trkpt>
      <trkpt lat="42.393059972673655" lon="-4.071799982339144">
        <ele>799.02599999999995</ele>
        <time>2021-07-22T07:06:59Z</time>
      </trkpt>
      <trkpt lat="42.392980009317398" lon="-4.072210025042296">
        <ele>798.00800000000004</ele>
        <time>2021-07-22T07:07:04Z</time>
      </trkpt>
      <trkpt lat="42.392880013212562" lon="-4.072949979454279">
        <ele>797.06500000000005</ele>
        <time>2021-07-22T07:07:14Z</time>
      </trkpt>
      <trkpt lat="42.392850005999207" lon="-4.073469992727041">
        <ele>796.01599999999996</ele>
        <time>2021-07-22T07:07:21Z</time>
      </trkpt>
      <trkpt lat="42.392889987677336" lon="-4.076050026342273">
        <ele>797.07600000000002</ele>
        <time>2021-07-22T07:07:55Z</time>
      </trkpt>
      <trkpt lat="42.392780017107725" lon="-4.077439997345209">
        <ele>795.04100000000005</ele>
        <time>2021-07-22T07:08:13Z</time>
      </trkpt>
      <trkpt lat="42.392520010471344" lon="-4.078819993883371">
        <ele>795.07500000000005</ele>
        <time>2021-07-22T07:08:32Z</time>
      </trkpt>
      <trkpt lat="42.392380032688379" lon="-4.079379988834262">
        <ele>794.077</ele>
        <time>2021-07-22T07:08:40Z</time>
      </trkpt>
      <trkpt lat="42.392150033265352" lon="-4.080060012638569">
        <ele>792.01900000000001</ele>
        <time>2021-07-22T07:08:50Z</time>
      </trkpt>
      <trkpt lat="42.392020029947162" lon="-4.080399982631207">
        <ele>793.08799999999997</ele>
        <time>2021-07-22T07:08:55Z</time>
      </trkpt>
      <trkpt lat="42.391549972817302" lon="-4.081370020285249">
        <ele>794.02800000000002</ele>
        <time>2021-07-22T07:09:10Z</time>
      </trkpt>
      <trkpt lat="42.391100032255054" lon="-4.082150040194392">
        <ele>793.08900000000006</ele>
        <time>2021-07-22T07:09:23Z</time>
      </trkpt>
      <trkpt lat="42.376800002530217" lon="-4.103479972109199">
        <ele>792.01700000000005</ele>
        <time>2021-07-22T07:15:42Z</time>
      </trkpt>
      <trkpt lat="42.376389959827065" lon="-4.10419000312686">
        <ele>793.00800000000004</ele>
        <time>2021-07-22T07:15:53Z</time>
      </trkpt>
      <trkpt lat="42.376249982044101" lon="-4.104519998654723">
        <ele>793.029</ele>
        <time>2021-07-22T07:15:58Z</time>
      </trkpt>
      <trkpt lat="42.37614001147449" lon="-4.104329980909824">
        <ele>793.01999999999998</ele>
        <time>2021-07-22T07:16:02Z</time>
      </trkpt>
      <trkpt lat="42.375980000942945" lon="-4.104229984804988">
        <ele>793.03999999999996</ele>
        <time>2021-07-22T07:16:05Z</time>
      </trkpt>
      <trkpt lat="42.370530003681779" lon="-4.104540031403303">
        <ele>788.04499999999996</ele>
        <time>2021-07-22T07:17:42Z</time>
      </trkpt>
      <trkpt lat="42.36801995895803" lon="-4.10464002750814">
        <ele>787.05899999999997</ele>
        <time>2021-07-22T07:18:26Z</time>
      </trkpt>
      <trkpt lat="42.367459964007139" lon="-4.104699958115816">
        <ele>786.06100000000004</ele>
        <time>2021-07-22T07:18:36Z</time>
      </trkpt>
      <trkpt lat="42.367229964584112" lon="-4.104759972542524">
        <ele>787.03300000000002</ele>
        <time>2021-07-22T07:18:41Z</time>
      </trkpt>
      <trkpt lat="42.366970041766763" lon="-4.104859968647361">
        <ele>787.08199999999999</ele>
        <time>2021-07-22T07:18:45Z</time>
      </trkpt>
      <trkpt lat="42.366669969633222" lon="-4.10504998639226">
        <ele>788.08199999999999</ele>
        <time>2021-07-22T07:18:51Z</time>
      </trkpt>
      <trkpt lat="42.364180041477084" lon="-4.107179995626211">
        <ele>787.04300000000001</ele>
        <time>2021-07-22T07:19:44Z</time>
      </trkpt>
      <trkpt lat="42.350960019975901" lon="-4.118309989571571">
        <ele>786.01700000000005</ele>
        <time>2021-07-22T07:24:21Z</time>
      </trkpt>
      <trkpt lat="42.332229986786842" lon="-4.13527999073267">
        <ele>787.00800000000004</ele>
        <time>2021-07-22T07:31:02Z</time>
      </trkpt>
      <trkpt lat="42.331920024007559" lon="-4.135500015690923">
        <ele>787.02499999999998</ele>
        <time>2021-07-22T07:31:08Z</time>
      </trkpt>
      <trkpt lat="42.330859964713454" lon="-4.136009970679879">
        <ele>786.07600000000002</ele>
        <time>2021-07-22T07:31:28Z</time>
      </trkpt>
      <trkpt lat="42.327739968895912" lon="-4.137430032715201">
        <ele>783.05600000000004</ele>
        <time>2021-07-22T07:32:27Z</time>
      </trkpt>
      <trkpt lat="42.315069967880845" lon="-4.141389979049563">
        <ele>794.04100000000005</ele>
        <time>2021-07-22T07:36:18Z</time>
      </trkpt>
      <trkpt lat="42.308539962396026" lon="-4.143510013818741">
        <ele>805.04499999999996</ele>
        <time>2021-07-22T07:38:18Z</time>
      </trkpt>
      <trkpt lat="42.308099996298552" lon="-4.143610009923577">
        <ele>806.077</ele>
        <time>2021-07-22T07:38:25Z</time>
      </trkpt>
      <trkpt lat="42.307879971340299" lon="-4.143619984388351">
        <ele>806.01900000000001</ele>
        <time>2021-07-22T07:38:29Z</time>
      </trkpt>
      <trkpt lat="42.307700011879206" lon="-4.143600035458803">
        <ele>806.048</ele>
        <time>2021-07-22T07:38:33Z</time>
      </trkpt>
      <trkpt lat="42.307219980284572" lon="-4.143519988283515">
        <ele>807.03700000000003</ele>
        <time>2021-07-22T07:38:41Z</time>
      </trkpt>
      <trkpt lat="42.299179974943399" lon="-4.141889959573746">
        <ele>811.04899999999998</ele>
        <time>2021-07-22T07:41:06Z</time>
      </trkpt>
      <trkpt lat="42.298670019954443" lon="-4.141879985108972">
        <ele>806.01300000000003</ele>
        <time>2021-07-22T07:41:15Z</time>
      </trkpt>
      <trkpt lat="42.298380006104708" lon="-4.14193999953568">
        <ele>804.00800000000004</ele>
        <time>2021-07-22T07:41:20Z</time>
      </trkpt>
      <trkpt lat="42.297810036689043" lon="-4.142160024493933">
        <ele>800.00999999999999</ele>
        <time>2021-07-22T07:41:31Z</time>
      </trkpt>
      <trkpt lat="42.290660021826625" lon="-4.145429972559214">
        <ele>800.09100000000001</ele>
        <time>2021-07-22T07:43:45Z</time>
      </trkpt>
      <trkpt lat="42.289680009707808" lon="-4.145740019157529">
        <ele>799.06100000000004</ele>
        <time>2021-07-22T07:44:03Z</time>
      </trkpt>
      <trkpt lat="42.28906000033021" lon="-4.146160036325455">
        <ele>794.04600000000005</ele>
        <time>2021-07-22T07:44:15Z</time>
      </trkpt>
      <trkpt lat="42.288929997012019" lon="-4.146290039643645">
        <ele>793.00999999999999</ele>
        <time>2021-07-22T07:44:18Z</time>
      </trkpt>
      <trkpt lat="42.288839975371957" lon="-4.146439991891384">
        <ele>791.06200000000001</ele>
        <time>2021-07-22T07:44:21Z</time>
      </trkpt>
      <trkpt lat="42.288809968158603" lon="-4.146630009636283">
        <ele>790.06399999999996</ele>
        <time>2021-07-22T07:44:23Z</time>
      </trkpt>
      <trkpt lat="42.288820026442409" lon="-4.146769987419248">
        <ele>790.06299999999999</ele>
        <time>2021-07-22T07:44:25Z</time>
      </trkpt>
      <trkpt lat="42.288799993693829" lon="-4.146850034594536">
        <ele>790.05799999999999</ele>
        <time>2021-07-22T07:44:26Z</time>
      </trkpt>
      <trkpt lat="42.288709972053766" lon="-4.146960005164146">
        <ele>789.05200000000002</ele>
        <time>2021-07-22T07:44:28Z</time>
      </trkpt>
      <trkpt lat="42.288560019806027" lon="-4.146960005164146">
        <ele>789.01700000000005</ele>
        <time>2021-07-22T07:44:31Z</time>
      </trkpt>
      <trkpt lat="42.288439990952611" lon="-4.146899990737438">
        <ele>789.00800000000004</ele>
        <time>2021-07-22T07:44:33Z</time>
      </trkpt>
      <trkpt lat="42.288339994847775" lon="-4.146899990737438">
        <ele>788.06200000000001</ele>
        <time>2021-07-22T07:44:35Z</time>
      </trkpt>
      <trkpt lat="42.288239998742938" lon="-4.146909965202212">
        <ele>788.08299999999997</ele>
        <time>2021-07-22T07:44:37Z</time>
      </trkpt>
      <trkpt lat="42.288000024855137" lon="-4.147029994055629">
        <ele>788.08299999999997</ele>
        <time>2021-07-22T07:44:41Z</time>
      </trkpt>
      <trkpt lat="42.281549982726574" lon="-4.151689996942878">
        <ele>781.02800000000002</ele>
        <time>2021-07-22T07:46:52Z</time>
      </trkpt>
      <trkpt lat="42.281129965558648" lon="-4.15208000689745">
        <ele>782.09199999999998</ele>
        <time>2021-07-22T07:47:01Z</time>
      </trkpt>
      <trkpt lat="42.274729963392019" lon="-4.15874001570046">
        <ele>787.01400000000001</ele>
        <time>2021-07-22T07:49:24Z</time>
      </trkpt>
      <trkpt lat="42.274310030043125" lon="-4.159219963476062">
        <ele>787.05600000000004</ele>
        <time>2021-07-22T07:49:34Z</time>
      </trkpt>
      <trkpt lat="42.274139961227775" lon="-4.159449962899089">
        <ele>787.06500000000005</ele>
        <time>2021-07-22T07:49:38Z</time>
      </trkpt>
      <trkpt lat="42.273909961804748" lon="-4.159829998388887">
        <ele>787.04100000000005</ele>
        <time>2021-07-22T07:49:45Z</time>
      </trkpt>
      <trkpt lat="42.273500002920628" lon="-4.160369960591197">
        <ele>788.08100000000002</ele>
        <time>2021-07-22T07:49:55Z</time>
      </trkpt>
      <trkpt lat="42.273400006815791" lon="-4.160580011084676">
        <ele>788.00900000000001</ele>
        <time>2021-07-22T07:49:58Z</time>
      </trkpt>
      <trkpt lat="42.273319959640503" lon="-4.160829959437251">
        <ele>789.00800000000004</ele>
        <time>2021-07-22T07:50:02Z</time>
      </trkpt>
      <trkpt lat="42.273149974644184" lon="-4.161100024357438">
        <ele>788.05100000000004</ele>
        <time>2021-07-22T07:50:07Z</time>
      </trkpt>
      <trkpt lat="42.271910039708018" lon="-4.162589991465211">
        <ele>785.04200000000003</ele>
        <time>2021-07-22T07:50:36Z</time>
      </trkpt>
      <trkpt lat="42.271579960361123" lon="-4.163019983097911">
        <ele>785.03200000000004</ele>
        <time>2021-07-22T07:50:44Z</time>
      </trkpt>
      <trkpt lat="42.264869995415211" lon="-4.172460017725825">
        <ele>777.06700000000001</ele>
        <time>2021-07-22T07:53:37Z</time>
      </trkpt>
      <trkpt lat="42.264679977670312" lon="-4.172820020467043">
        <ele>776.02099999999996</ele>
        <time>2021-07-22T07:53:42Z</time>
      </trkpt>
      <trkpt lat="42.263350021094084" lon="-4.175870027393103">
        <ele>774.08299999999997</ele>
        <time>2021-07-22T07:54:29Z</time>
      </trkpt>
      <trkpt lat="42.263090014457703" lon="-4.176400015130639">
        <ele>774.03499999999997</ele>
        <time>2021-07-22T07:54:37Z</time>
      </trkpt>
      <trkpt lat="42.26286998949945" lon="-4.176739985123277">
        <ele>774.03399999999999</ele>
        <time>2021-07-22T07:54:43Z</time>
      </trkpt>
      <trkpt lat="42.260160036385059" lon="-4.180460041388869">
        <ele>768.05399999999997</ele>
        <time>2021-07-22T07:55:52Z</time>
      </trkpt>
      <trkpt lat="42.253719968721271" lon="-4.189869984984398">
        <ele>774.05600000000004</ele>
        <time>2021-07-22T07:58:41Z</time>
      </trkpt>
      <trkpt lat="42.253559958189726" lon="-4.190210038796067">
        <ele>774.01099999999997</ele>
        <time>2021-07-22T07:58:46Z</time>
      </trkpt>
      <trkpt lat="42.251340011134744" lon="-4.196020038798451">
        <ele>769.00800000000004</ele>
        <time>2021-07-22T08:00:12Z</time>
      </trkpt>
      <trkpt lat="42.251000041142106" lon="-4.197040032595396">
        <ele>769.04200000000003</ele>
        <time>2021-07-22T08:00:27Z</time>
      </trkpt>
      <trkpt lat="42.250669961795211" lon="-4.197919964790344">
        <ele>768.053</ele>
        <time>2021-07-22T08:00:40Z</time>
      </trkpt>
      <trkpt lat="42.250229995697737" lon="-4.199319994077086">
        <ele>768.03300000000002</ele>
        <time>2021-07-22T08:01:00Z</time>
      </trkpt>
      <trkpt lat="42.249920032918453" lon="-4.200160028412938">
        <ele>767.08799999999997</ele>
        <time>2021-07-22T08:01:12Z</time>
      </trkpt>
      <trkpt lat="42.249860018491745" lon="-4.200449958443642">
        <ele>767.03200000000004</ele>
        <time>2021-07-22T08:01:16Z</time>
      </trkpt>
      <trkpt lat="42.249769996851683" lon="-4.200699990615249">
        <ele>767.06399999999996</ele>
        <time>2021-07-22T08:01:20Z</time>
      </trkpt>
      <trkpt lat="42.249600011855364" lon="-4.201050018891692">
        <ele>767.04600000000005</ele>
        <time>2021-07-22T08:01:26Z</time>
      </trkpt>
      <trkpt lat="42.249360037967563" lon="-4.20141002163291">
        <ele>766.06500000000005</ele>
        <time>2021-07-22T08:01:32Z</time>
      </trkpt>
      <trkpt lat="42.246420001611114" lon="-4.205290004611015">
        <ele>765.053</ele>
        <time>2021-07-22T08:02:45Z</time>
      </trkpt>
      <trkpt lat="42.244210029020905" lon="-4.208129961043596">
        <ele>764.00400000000002</ele>
        <time>2021-07-22T08:03:39Z</time>
      </trkpt>
      <trkpt lat="42.243209984153509" lon="-4.209460001438856">
        <ele>767.01400000000001</ele>
        <time>2021-07-22T08:04:04Z</time>
      </trkpt>
      <trkpt lat="42.23844001069665" lon="-4.212700026109815">
        <ele>777.00800000000004</ele>
        <time>2021-07-22T08:05:39Z</time>
      </trkpt>
      <trkpt lat="42.236500019207597" lon="-4.213969968259335">
        <ele>775.04200000000003</ele>
        <time>2021-07-22T08:06:18Z</time>
      </trkpt>
      <trkpt lat="42.23597003147006" lon="-4.214270040392876">
        <ele>774.08299999999997</ele>
        <time>2021-07-22T08:06:28Z</time>
      </trkpt>
      <trkpt lat="42.235569963231683" lon="-4.214399959892035">
        <ele>772.07299999999998</ele>
        <time>2021-07-22T08:06:35Z</time>
      </trkpt>
      <trkpt lat="42.235139971598983" lon="-4.214440025389195">
        <ele>770.048</ele>
        <time>2021-07-22T08:06:43Z</time>
      </trkpt>
      <trkpt lat="42.233989974483848" lon="-4.214310022071004">
        <ele>769.06200000000001</ele>
        <time>2021-07-22T08:07:03Z</time>
      </trkpt>
      <trkpt lat="42.233710018917918" lon="-4.214319996535778">
        <ele>768.01400000000001</ele>
        <time>2021-07-22T08:07:08Z</time>
      </trkpt>
      <trkpt lat="42.233359990641475" lon="-4.214399959892035">
        <ele>767.08600000000001</ele>
        <time>2021-07-22T08:07:15Z</time>
      </trkpt>
      <trkpt lat="42.233060002326965" lon="-4.214540021494031">
        <ele>767.03499999999997</ele>
        <time>2021-07-22T08:07:20Z</time>
      </trkpt>
      <trkpt lat="42.231399966403842" lon="-4.21556998975575">
        <ele>768.01400000000001</ele>
        <time>2021-07-22T08:07:53Z</time>
      </trkpt>
      <trkpt lat="42.225110018625855" lon="-4.218589989468455">
        <ele>762.05399999999997</ele>
        <time>2021-07-22T08:09:52Z</time>
      </trkpt>
      <trkpt lat="42.219890020787716" lon="-4.221409996971488">
        <ele>758.00900000000001</ele>
        <time>2021-07-22T08:11:32Z</time>
      </trkpt>
      <trkpt lat="42.199010029435158" lon="-4.232509983703494">
        <ele>757.00800000000004</ele>
        <time>2021-07-22T08:18:11Z</time>
      </trkpt>
      <trkpt lat="42.197709996253252" lon="-4.233129993081093">
        <ele>759.09799999999996</ele>
        <time>2021-07-22T08:18:36Z</time>
      </trkpt>
      <trkpt lat="42.188689978793263" lon="-4.23729001544416">
        <ele>754.03899999999999</ele>
        <time>2021-07-22T08:21:25Z</time>
      </trkpt>
      <trkpt lat="42.187899984419346" lon="-4.237689999863505">
        <ele>754.05899999999997</ele>
        <time>2021-07-22T08:21:40Z</time>
      </trkpt>
      <trkpt lat="42.18747996725142" lon="-4.237980013713241">
        <ele>754.06399999999996</ele>
        <time>2021-07-22T08:21:49Z</time>
      </trkpt>
      <trkpt lat="42.186960037797689" lon="-4.238470019772649">
        <ele>754.03800000000001</ele>
        <time>2021-07-22T08:22:00Z</time>
      </trkpt>
      <trkpt lat="42.185360016301274" lon="-4.240210019052029">
        <ele>752.01999999999998</ele>
        <time>2021-07-22T08:22:36Z</time>
      </trkpt>
      <trkpt lat="42.184930024668574" lon="-4.240709999576211">
        <ele>754.05200000000002</ele>
        <time>2021-07-22T08:22:46Z</time>
      </trkpt>
      <trkpt lat="42.184630036354065" lon="-4.241149965673685">
        <ele>754.08100000000002</ele>
        <time>2021-07-22T08:22:54Z</time>
      </trkpt>
      <trkpt lat="42.18444999307394" lon="-4.241479961201549">
        <ele>754.09900000000005</ele>
        <time>2021-07-22T08:23:00Z</time>
      </trkpt>
      <trkpt lat="42.184210019186139" lon="-4.242010032758117">
        <ele>754.00699999999995</ele>
        <time>2021-07-22T08:23:08Z</time>
      </trkpt>
      <trkpt lat="42.184010026976466" lon="-4.242600034922361">
        <ele>753.02700000000004</ele>
        <time>2021-07-22T08:23:17Z</time>
      </trkpt>
      <trkpt lat="42.183790002018213" lon="-4.243469992652535">
        <ele>752.00800000000004</ele>
        <time>2021-07-22T08:23:29Z</time>
      </trkpt>
      <trkpt lat="42.182749975472689" lon="-4.24799001775682">
        <ele>754.04600000000005</ele>
        <time>2021-07-22T08:24:31Z</time>
      </trkpt>
      <trkpt lat="42.182630030438304" lon="-4.248620001599193">
        <ele>753.03700000000003</ele>
        <time>2021-07-22T08:24:40Z</time>
      </trkpt>
      <trkpt lat="42.18257999047637" lon="-4.249110007658601">
        <ele>754.05700000000002</ele>
        <time>2021-07-22T08:24:46Z</time>
      </trkpt>
      <trkpt lat="42.182560041546822" lon="-4.249649969860911">
        <ele>753.04200000000003</ele>
        <time>2021-07-22T08:24:53Z</time>
      </trkpt>
      <trkpt lat="42.18257999047637" lon="-4.250299986451864">
        <ele>751.07600000000002</ele>
        <time>2021-07-22T08:25:02Z</time>
      </trkpt>
      <trkpt lat="42.182670012116432" lon="-4.250950003042817">
        <ele>749.08799999999997</ele>
        <time>2021-07-22T08:25:11Z</time>
      </trkpt>
      <trkpt lat="42.18273002654314" lon="-4.251300031319261">
        <ele>749.01999999999998</ele>
        <time>2021-07-22T08:25:15Z</time>
      </trkpt>
      <trkpt lat="42.182979974895716" lon="-4.252130007371306">
        <ele>750.05899999999997</ele>
        <time>2021-07-22T08:25:27Z</time>
      </trkpt>
      <trkpt lat="42.183269988745451" lon="-4.252789998427033">
        <ele>753.04100000000005</ele>
        <time>2021-07-22T08:25:37Z</time>
      </trkpt>
      <trkpt lat="42.183759994804859" lon="-4.253579992800951">
        <ele>754.08100000000002</ele>
        <time>2021-07-22T08:25:51Z</time>
      </trkpt>
      <trkpt lat="42.184540014714003" lon="-4.25462999381125">
        <ele>754.00900000000001</ele>
        <time>2021-07-22T08:26:10Z</time>
      </trkpt>
      <trkpt lat="42.184909991919994" lon="-4.25521002151072">
        <ele>755.00800000000004</ele>
        <time>2021-07-22T08:26:20Z</time>
      </trkpt>
      <trkpt lat="42.18517997302115" lon="-4.255770016461611">
        <ele>754.03099999999995</ele>
        <time>2021-07-22T08:26:29Z</time>
      </trkpt>
      <trkpt lat="42.185450037941337" lon="-4.256509970873594">
        <ele>757.05200000000002</ele>
        <time>2021-07-22T08:26:40Z</time>
      </trkpt>
      <trkpt lat="42.185539975762367" lon="-4.256869973614812">
        <ele>758.01199999999994</ele>
        <time>2021-07-22T08:26:45Z</time>
      </trkpt>
      <trkpt lat="42.185690011829138" lon="-4.257689975202084">
        <ele>759.01700000000005</ele>
        <time>2021-07-22T08:26:56Z</time>
      </trkpt>
      <trkpt lat="42.186419991776347" lon="-4.266979973763228">
        <ele>784.01099999999997</ele>
        <time>2021-07-22T08:28:59Z</time>
      </trkpt>
      <trkpt lat="42.186570027843118" lon="-4.268219992518425">
        <ele>787.06299999999999</ele>
        <time>2021-07-22T08:29:16Z</time>
      </trkpt>
      <trkpt lat="42.186849983409047" lon="-4.269880028441548">
        <ele>784.01499999999999</ele>
        <time>2021-07-22T08:29:38Z</time>
      </trkpt>
      <trkpt lat="42.187400003895164" lon="-4.272700035944581">
        <ele>782.07399999999996</ele>
        <time>2021-07-22T08:30:17Z</time>
      </trkpt>
      <trkpt lat="42.187609970569611" lon="-4.273669989779592">
        <ele>782.04899999999998</ele>
        <time>2021-07-22T08:30:30Z</time>
      </trkpt>
      <trkpt lat="42.187780039384961" lon="-4.274299973621965">
        <ele>784.00199999999995</ele>
        <time>2021-07-22T08:30:39Z</time>
      </trkpt>
      <trkpt lat="42.188870022073388" lon="-4.276919988915324">
        <ele>786.02200000000005</ele>
        <time>2021-07-22T08:31:19Z</time>
      </trkpt>
      <trkpt lat="42.189100021496415" lon="-4.277670001611114">
        <ele>786.00800000000004</ele>
        <time>2021-07-22T08:31:29Z</time>
      </trkpt>
      <trkpt lat="42.189170010387897" lon="-4.277960015460849">
        <ele>786.04100000000005</ele>
        <time>2021-07-22T08:31:33Z</time>
      </trkpt>
      <trkpt lat="42.189709972590208" lon="-4.281500028446317">
        <ele>789.06200000000001</ele>
        <time>2021-07-22T08:32:21Z</time>
      </trkpt>
      <trkpt lat="42.189809968695045" lon="-4.282039990648627">
        <ele>787.02200000000005</ele>
        <time>2021-07-22T08:32:28Z</time>
      </trkpt>
      <trkpt lat="42.190060000866652" lon="-4.282859992235899">
        <ele>785.01700000000005</ele>
        <time>2021-07-22T08:32:40Z</time>
      </trkpt>
      <trkpt lat="42.190239960327744" lon="-4.283310016617179">
        <ele>784.08100000000002</ele>
        <time>2021-07-22T08:32:47Z</time>
      </trkpt>
      <trkpt lat="42.191909970715642" lon="-4.286409979686141">
        <ele>783.07299999999998</ele>
        <time>2021-07-22T08:33:37Z</time>
      </trkpt>
      <trkpt lat="42.192129995673895" lon="-4.286650037392974">
        <ele>782.06500000000005</ele>
        <time>2021-07-22T08:33:42Z</time>
      </trkpt>
      <trkpt lat="42.192220017313957" lon="-4.286650037392974">
        <ele>782.04399999999998</ele>
        <time>2021-07-22T08:33:44Z</time>
      </trkpt>
      <trkpt lat="42.192280031740665" lon="-4.286699993535876">
        <ele>782.01499999999999</ele>
        <time>2021-07-22T08:33:45Z</time>
      </trkpt>
      <trkpt lat="42.192320013418794" lon="-4.286780040711165">
        <ele>782.06500000000005</ele>
        <time>2021-07-22T08:33:47Z</time>
      </trkpt>
      <trkpt lat="42.19231003895402" lon="-4.286950025707483">
        <ele>782.01099999999997</ele>
        <time>2021-07-22T08:33:49Z</time>
      </trkpt>
      <trkpt lat="42.192229991778731" lon="-4.287059996277094">
        <ele>782.00800000000004</ele>
        <time>2021-07-22T08:33:51Z</time>
      </trkpt>
      <trkpt lat="42.192099988460541" lon="-4.287069970741868">
        <ele>782.01800000000003</ele>
        <time>2021-07-22T08:33:53Z</time>
      </trkpt>
      <trkpt lat="42.191779967397451" lon="-4.28718002513051">
        <ele>783.06899999999996</ele>
        <time>2021-07-22T08:33:59Z</time>
      </trkpt>
      <trkpt lat="42.190889976918697" lon="-4.287759969010949">
        <ele>787.08900000000006</ele>
        <time>2021-07-22T08:34:17Z</time>
      </trkpt>
      <trkpt lat="42.190749999135733" lon="-4.287919979542494">
        <ele>789.01400000000001</ele>
        <time>2021-07-22T08:34:20Z</time>
      </trkpt>
      <trkpt lat="42.19068001024425" lon="-4.288130030035973">
        <ele>791.03800000000001</ele>
        <time>2021-07-22T08:34:23Z</time>
      </trkpt>
      <trkpt lat="42.19065997749567" lon="-4.28844996728003">
        <ele>792.09000000000003</ele>
        <time>2021-07-22T08:34:27Z</time>
      </trkpt>
      <trkpt lat="42.190719991922379" lon="-4.28967003710568">
        <ele>792.03200000000004</ele>
        <time>2021-07-22T08:34:43Z</time>
      </trkpt>
      <trkpt lat="42.190269967541099" lon="-4.292509993538261">
        <ele>800.02099999999996</ele>
        <time>2021-07-22T08:35:22Z</time>
      </trkpt>
      <trkpt lat="42.190239960327744" lon="-4.292930010706186">
        <ele>799.05100000000004</ele>
        <time>2021-07-22T08:35:27Z</time>
      </trkpt>
      <trkpt lat="42.19025001861155" lon="-4.293959978967905">
        <ele>794.00099999999998</ele>
        <time>2021-07-22T08:35:41Z</time>
      </trkpt>
      <trkpt lat="42.19022998586297" lon="-4.29470001719892">
        <ele>794.01099999999997</ele>
        <time>2021-07-22T08:35:50Z</time>
      </trkpt>
      <trkpt lat="42.190199978649616" lon="-4.294919958338141">
        <ele>794.00800000000004</ele>
        <time>2021-07-22T08:35:53Z</time>
      </trkpt>
      <trkpt lat="42.189909964799881" lon="-4.29588002152741">
        <ele>797.072</ele>
        <time>2021-07-22T08:36:07Z</time>
      </trkpt>
      <trkpt lat="42.189720030874014" lon="-4.296380002051592">
        <ele>798.053</ele>
        <time>2021-07-22T08:36:14Z</time>
      </trkpt>
      <trkpt lat="42.189309988170862" lon="-4.297220036387444">
        <ele>798.08299999999997</ele>
        <time>2021-07-22T08:36:28Z</time>
      </trkpt>
      <trkpt lat="42.188700037077069" lon="-4.298689970746636">
        <ele>795.09799999999996</ele>
        <time>2021-07-22T08:36:50Z</time>
      </trkpt>
      <trkpt lat="42.1883599832654" lon="-4.299209984019399">
        <ele>792.04200000000003</ele>
        <time>2021-07-22T08:36:59Z</time>
      </trkpt>
      <trkpt lat="42.187959998846054" lon="-4.299760004505515">
        <ele>790.07399999999996</ele>
        <time>2021-07-22T08:37:09Z</time>
      </trkpt>
      <trkpt lat="42.187620028853416" lon="-4.30032997392118">
        <ele>789.03599999999994</ele>
        <time>2021-07-22T08:37:19Z</time>
      </trkpt>
      <trkpt lat="42.185709960758686" lon="-4.303999990224838">
        <ele>795.02499999999998</ele>
        <time>2021-07-22T08:38:18Z</time>
      </trkpt>
      <trkpt lat="42.185469986870885" lon="-4.304359992966056">
        <ele>795.05100000000004</ele>
        <time>2021-07-22T08:38:24Z</time>
      </trkpt>
      <trkpt lat="42.18522003851831" lon="-4.304599966853857">
        <ele>795.00099999999998</ele>
        <time>2021-07-22T08:38:30Z</time>
      </trkpt>
      <trkpt lat="42.185100009664893" lon="-4.304670039564371">
        <ele>795.01099999999997</ele>
        <time>2021-07-22T08:38:32Z</time>
      </trkpt>
      <trkpt lat="42.184830028563738" lon="-4.30479995906353">
        <ele>794.00800000000004</ele>
        <time>2021-07-22T08:38:37Z</time>
      </trkpt>
      <trkpt lat="42.18404003418982" lon="-4.305079998448491">
        <ele>790.04200000000003</ele>
        <time>2021-07-22T08:38:52Z</time>
      </trkpt>
      <trkpt lat="42.183769969269633" lon="-4.305210001766682">
        <ele>788.06299999999999</ele>
        <time>2021-07-22T08:38:57Z</time>
      </trkpt>
      <trkpt lat="42.18356997705996" lon="-4.305340005084872">
        <ele>787.04300000000001</ele>
        <time>2021-07-22T08:39:01Z</time>
      </trkpt>
      <trkpt lat="42.181859984993935" lon="-4.306770041584969">
        <ele>792.03800000000001</ele>
        <time>2021-07-22T08:39:37Z</time>
      </trkpt>
      <trkpt lat="42.181230001151562" lon="-4.30746003985405">
        <ele>789.02200000000005</ele>
        <time>2021-07-22T08:39:51Z</time>
      </trkpt>
      <trkpt lat="42.178739989176393" lon="-4.310490014031529">
        <ele>785.09400000000005</ele>
        <time>2021-07-22T08:40:51Z</time>
      </trkpt>
      <trkpt lat="42.178570004180074" lon="-4.310739962384105">
        <ele>785.05600000000004</ele>
        <time>2021-07-22T08:40:55Z</time>
      </trkpt>
      <trkpt lat="42.177829965949059" lon="-4.312139991670847">
        <ele>782.02499999999998</ele>
        <time>2021-07-22T08:41:18Z</time>
      </trkpt>
      <trkpt lat="42.16938997618854" lon="-4.328519990667701">
        <ele>794.04399999999998</ele>
        <time>2021-07-22T08:45:41Z</time>
      </trkpt>
      <trkpt lat="42.169170035049319" lon="-4.328889967873693">
        <ele>793.005</ele>
        <time>2021-07-22T08:45:47Z</time>
      </trkpt>
      <trkpt lat="42.167930016294122" lon="-4.330719988793135">
        <ele>792.01499999999999</ele>
        <time>2021-07-22T08:46:20Z</time>
      </trkpt>
      <trkpt lat="42.16315995901823" lon="-4.337689960375428">
        <ele>799.00800000000004</ele>
        <time>2021-07-22T08:48:25Z</time>
      </trkpt>
      <trkpt lat="42.162940017879009" lon="-4.33807997033">
        <ele>802.06100000000004</ele>
        <time>2021-07-22T08:48:32Z</time>
      </trkpt>
      <trkpt lat="42.16277003288269" lon="-4.338460005819798">
        <ele>803.05200000000002</ele>
        <time>2021-07-22T08:48:37Z</time>
      </trkpt>
      <trkpt lat="42.162670036777854" lon="-4.338780026882887">
        <ele>804.09199999999998</ele>
        <time>2021-07-22T08:48:42Z</time>
      </trkpt>
      <trkpt lat="42.160819983109832" lon="-4.345629969611764">
        <ele>821.06700000000001</ele>
        <time>2021-07-22T08:50:18Z</time>
      </trkpt>
      <trkpt lat="42.160629965364933" lon="-4.346209997311235">
        <ele>825.04100000000005</ele>
        <time>2021-07-22T08:50:26Z</time>
      </trkpt>
      <trkpt lat="42.160320002585649" lon="-4.346860013902187">
        <ele>830.09299999999996</ele>
        <time>2021-07-22T08:50:37Z</time>
      </trkpt>
      <trkpt lat="42.160099977627397" lon="-4.347220016643405">
        <ele>831.01499999999999</ele>
        <time>2021-07-22T08:50:43Z</time>
      </trkpt>
      <trkpt lat="42.159639978781343" lon="-4.347780011594296">
        <ele>835.08399999999995</ele>
        <time>2021-07-22T08:50:54Z</time>
      </trkpt>
      <trkpt lat="42.159420037642121" lon="-4.347980003803968">
        <ele>837.08699999999999</ele>
        <time>2021-07-22T08:50:59Z</time>
      </trkpt>
      <trkpt lat="42.158930031582713" lon="-4.348360039293766">
        <ele>839.04200000000003</ele>
        <time>2021-07-22T08:51:09Z</time>
      </trkpt>
      <trkpt lat="42.153130006045103" lon="-4.352359967306256">
        <ele>864.02599999999995</ele>
        <time>2021-07-22T08:53:05Z</time>
      </trkpt>
      <trkpt lat="42.152600018307567" lon="-4.352770010009408">
        <ele>867.00800000000004</ele>
        <time>2021-07-22T08:53:15Z</time>
      </trkpt>
      <trkpt lat="42.152359960600734" lon="-4.352979976683855">
        <ele>869.07500000000005</ele>
        <time>2021-07-22T08:53:20Z</time>
      </trkpt>
      <trkpt lat="42.152100037783384" lon="-4.35326999053359">
        <ele>870.096</ele>
        <time>2021-07-22T08:53:26Z</time>
      </trkpt>
      <trkpt lat="42.149510029703379" lon="-4.356370037421584">
        <ele>879.01599999999996</ele>
        <time>2021-07-22T08:54:28Z</time>
      </trkpt>
      <trkpt lat="42.149039972573519" lon="-4.356849985197187">
        <ele>878.02099999999996</ele>
        <time>2021-07-22T08:54:39Z</time>
      </trkpt>
      <trkpt lat="42.137080002576113" lon="-4.367099963128567">
        <ele>884.02499999999998</ele>
        <time>2021-07-22T08:58:51Z</time>
      </trkpt>
      <trkpt lat="42.12184002622962" lon="-4.380040029063821">
        <ele>887.01700000000005</ele>
        <time>2021-07-22T09:04:11Z</time>
      </trkpt>
      <trkpt lat="42.121359994634986" lon="-4.380470020696521">
        <ele>886.08900000000006</ele>
        <time>2021-07-22T09:04:21Z</time>
      </trkpt>
      <trkpt lat="42.121009966358542" lon="-4.380870005115867">
        <ele>886.08799999999997</ele>
        <time>2021-07-22T09:04:30Z</time>
      </trkpt>
      <trkpt lat="42.106159999966621" lon="-4.402999989688397">
        <ele>857.04200000000003</ele>
        <time>2021-07-22T09:11:03Z</time>
      </trkpt>
      <trkpt lat="42.105750041082501" lon="-4.403689987957478">
        <ele>853.02200000000005</ele>
        <time>2021-07-22T09:11:15Z</time>
      </trkpt>
      <trkpt lat="42.105189962312579" lon="-4.404709981754422">
        <ele>852.01400000000001</ele>
        <time>2021-07-22T09:11:32Z</time>
      </trkpt>
      <trkpt lat="42.104719989001751" lon="-4.405459994450212">
        <ele>850.00800000000004</ele>
        <time>2021-07-22T09:11:45Z</time>
      </trkpt>
      <trkpt lat="42.103950027376413" lon="-4.40648996271193">
        <ele>846.05100000000004</ele>
        <time>2021-07-22T09:12:04Z</time>
      </trkpt>
      <trkpt lat="42.10314997471869" lon="-4.407460000365973">
        <ele>844.08199999999999</ele>
        <time>2021-07-22T09:12:23Z</time>
      </trkpt>
      <trkpt lat="42.102810004726052" lon="-4.407910024747253">
        <ele>845.05200000000002</ele>
        <time>2021-07-22T09:12:32Z</time>
      </trkpt>
      <trkpt lat="42.102610012516379" lon="-4.40827002748847">
        <ele>844.04700000000003</ele>
        <time>2021-07-22T09:12:38Z</time>
      </trkpt>
      <trkpt lat="42.101950021460652" lon="-4.410779988393188">
        <ele>839.02099999999996</ele>
        <time>2021-07-22T09:13:13Z</time>
      </trkpt>
      <trkpt lat="42.101739970967174" lon="-4.411260019987822">
        <ele>837.053</ele>
        <time>2021-07-22T09:13:20Z</time>
      </trkpt>
      <trkpt lat="42.101400000974536" lon="-4.411660004407167">
        <ele>836.08500000000004</ele>
        <time>2021-07-22T09:13:28Z</time>
      </trkpt>
      <trkpt lat="42.100789966061711" lon="-4.412199966609478">
        <ele>836.07399999999996</ele>
        <time>2021-07-22T09:13:41Z</time>
      </trkpt>
      <trkpt lat="42.100600032135844" lon="-4.412470031529665">
        <ele>836.07899999999995</ele>
        <time>2021-07-22T09:13:46Z</time>
      </trkpt>
      <trkpt lat="42.099910033866763" lon="-4.413609970360994">
        <ele>831.005</ele>
        <time>2021-07-22T09:14:06Z</time>
      </trkpt>
      <trkpt lat="42.099729990586638" lon="-4.413820020854473">
        <ele>831.02499999999998</ele>
        <time>2021-07-22T09:14:10Z</time>
      </trkpt>
      <trkpt lat="42.099469983950257" lon="-4.414010038599372">
        <ele>831.00800000000004</ele>
        <time>2021-07-22T09:14:15Z</time>
      </trkpt>
      <trkpt lat="42.098549986258149" lon="-4.4144800119102">
        <ele>830.06399999999996</ele>
        <time>2021-07-22T09:14:33Z</time>
      </trkpt>
      <trkpt lat="42.098319986835122" lon="-4.414619989693165">
        <ele>829.03499999999997</ele>
        <time>2021-07-22T09:14:37Z</time>
      </trkpt>
      <trkpt lat="42.097959984093904" lon="-4.414919978007674">
        <ele>827.07500000000005</ele>
        <time>2021-07-22T09:14:45Z</time>
      </trkpt>
      <trkpt lat="42.096739998087287" lon="-4.416269967332482">
        <ele>832.08000000000004</ele>
        <time>2021-07-22T09:15:13Z</time>
      </trkpt>
      <trkpt lat="42.096370020881295" lon="-4.416610021144152">
        <ele>832.06399999999996</ele>
        <time>2021-07-22T09:15:21Z</time>
      </trkpt>
      <trkpt lat="42.094019986689091" lon="-4.418510030955076">
        <ele>829.03599999999994</ele>
        <time>2021-07-22T09:16:09Z</time>
      </trkpt>
      <trkpt lat="42.093669958412647" lon="-4.418900040909648">
        <ele>828.05799999999999</ele>
        <time>2021-07-22T09:16:17Z</time>
      </trkpt>
      <trkpt lat="42.093359995633364" lon="-4.419349981471896">
        <ele>826.05700000000002</ele>
        <time>2021-07-22T09:16:26Z</time>
      </trkpt>
      <trkpt lat="42.091859970241785" lon="-4.421890033408999">
        <ele>826.07299999999998</ele>
        <time>2021-07-22T09:17:08Z</time>
      </trkpt>
      <trkpt lat="42.089930037036538" lon="-4.425089992582798">
        <ele>812.08500000000004</ele>
        <time>2021-07-22T09:18:03Z</time>
      </trkpt>
      <trkpt lat="42.089529968798161" lon="-4.425619980320334">
        <ele>813.01300000000003</ele>
        <time>2021-07-22T09:18:13Z</time>
      </trkpt>
      <trkpt lat="42.08853998221457" lon="-4.426699988543987">
        <ele>814.00800000000004</ele>
        <time>2021-07-22T09:18:36Z</time>
      </trkpt>
      <trkpt lat="42.087889965623617" lon="-4.427480008453131">
        <ele>812.024</ele>
        <time>2021-07-22T09:18:51Z</time>
      </trkpt>
      <trkpt lat="42.087389985099435" lon="-4.428330017253757">
        <ele>814.07500000000005</ele>
        <time>2021-07-22T09:19:05Z</time>
      </trkpt>
      <trkpt lat="42.086650030687451" lon="-4.429670032113791">
        <ele>810.03499999999997</ele>
        <time>2021-07-22T09:19:27Z</time>
      </trkpt>
      <trkpt lat="42.085779989138246" lon="-4.431029995903373">
        <ele>809.00999999999999</ele>
        <time>2021-07-22T09:19:51Z</time>
      </trkpt>
      <trkpt lat="42.085570022463799" lon="-4.431320009753108">
        <ele>809.01400000000001</ele>
        <time>2021-07-22T09:19:56Z</time>
      </trkpt>
      <trkpt lat="42.085370030254126" lon="-4.431510027498007">
        <ele>810.04600000000005</ele>
        <time>2021-07-22T09:20:01Z</time>
      </trkpt>
      <trkpt lat="42.084739962592721" lon="-4.431940019130707">
        <ele>812.05799999999999</ele>
        <time>2021-07-22T09:20:13Z</time>
      </trkpt>
      <trkpt lat="42.08462999202311" lon="-4.432040015235543">
        <ele>812.09699999999998</ele>
        <time>2021-07-22T09:20:16Z</time>
      </trkpt>
      <trkpt lat="42.084529995918274" lon="-4.432179993018508">
        <ele>813.072</ele>
        <time>2021-07-22T09:20:18Z</time>
      </trkpt>
      <trkpt lat="42.084339978173375" lon="-4.4325499702245">
        <ele>813.01300000000003</ele>
        <time>2021-07-22T09:20:24Z</time>
      </trkpt>
      <trkpt lat="42.083979975432158" lon="-4.434600016102195">
        <ele>809.01400000000001</ele>
        <time>2021-07-22T09:20:52Z</time>
      </trkpt>
      <trkpt lat="42.083670012652874" lon="-4.435759987682104">
        <ele>810.00800000000004</ele>
        <time>2021-07-22T09:21:08Z</time>
      </trkpt>
      <trkpt lat="42.083349991589785" lon="-4.43660999648273">
        <ele>806.04399999999998</ele>
        <time>2021-07-22T09:21:21Z</time>
      </trkpt>
      <trkpt lat="42.082620011642575" lon="-4.438310014083982">
        <ele>801.03499999999997</ele>
        <time>2021-07-22T09:21:47Z</time>
      </trkpt>
      <trkpt lat="42.082439968362451" lon="-4.438659958541393">
        <ele>801.08500000000004</ele>
        <time>2021-07-22T09:21:52Z</time>
      </trkpt>
      <trkpt lat="42.077019978314638" lon="-4.448050037026405">
        <ele>804.01999999999998</ele>
        <time>2021-07-22T09:24:30Z</time>
      </trkpt>
      <trkpt lat="42.076489990577102" lon="-4.448799965903163">
        <ele>805.07399999999996</ele>
        <time>2021-07-22T09:24:43Z</time>
      </trkpt>
      <trkpt lat="42.072040038183331" lon="-4.454079978168011">
        <ele>783.01599999999996</ele>
        <time>2021-07-22T09:26:29Z</time>
      </trkpt>
      <trkpt lat="42.071799980476499" lon="-4.45442003197968">
        <ele>782.06799999999998</ele>
        <time>2021-07-22T09:26:35Z</time>
      </trkpt>
      <trkpt lat="42.07122003659606" lon="-4.455500040203333">
        <ele>780.077</ele>
        <time>2021-07-22T09:26:53Z</time>
      </trkpt>
      <trkpt lat="42.064660023897886" lon="-4.46812997572124">
        <ele>772.01900000000001</ele>
        <time>2021-07-22T09:30:16Z</time>
      </trkpt>
      <trkpt lat="42.064330028370023" lon="-4.468670021742582">
        <ele>772.00900000000001</ele>
        <time>2021-07-22T09:30:25Z</time>
      </trkpt>
      <trkpt lat="42.054669968783855" lon="-4.482439979910851">
        <ele>763.01900000000001</ele>
        <time>2021-07-22T09:34:36Z</time>
      </trkpt>
      <trkpt lat="42.054320024326444" lon="-4.482850022614002">
        <ele>763.00800000000004</ele>
        <time>2021-07-22T09:34:44Z</time>
      </trkpt>
      <trkpt lat="42.041190024465322" lon="-4.496040036901832">
        <ele>753.06799999999998</ele>
        <time>2021-07-22T09:39:35Z</time>
      </trkpt>
      <trkpt lat="42.040549982339144" lon="-4.496589973568916">
        <ele>754.05899999999997</ele>
        <time>2021-07-22T09:39:49Z</time>
      </trkpt>
      <trkpt lat="42.036079997196794" lon="-4.500220008194447">
        <ele>751.06899999999996</ele>
        <time>2021-07-22T09:41:22Z</time>
      </trkpt>
      <trkpt lat="42.035900037735701" lon="-4.500320004299283">
        <ele>750.03399999999999</ele>
        <time>2021-07-22T09:41:25Z</time>
      </trkpt>
      <trkpt lat="42.035459987819195" lon="-4.500480014830828">
        <ele>750.09799999999996</ele>
        <time>2021-07-22T09:41:33Z</time>
      </trkpt>
      <trkpt lat="42.034230027347803" lon="-4.500719988718629">
        <ele>749.00999999999999</ele>
        <time>2021-07-22T09:41:55Z</time>
      </trkpt>
      <trkpt lat="42.032409980893135" lon="-4.501130031421781">
        <ele>748.06200000000001</ele>
        <time>2021-07-22T09:42:28Z</time>
      </trkpt>
      <trkpt lat="42.032379973679781" lon="-4.501240001991391">
        <ele>748.09100000000001</ele>
        <time>2021-07-22T09:42:30Z</time>
      </trkpt>
      <trkpt lat="42.032330017536879" lon="-4.501279983669519">
        <ele>748.096</ele>
        <time>2021-07-22T09:42:31Z</time>
      </trkpt>
      <trkpt lat="42.03227000311017" lon="-4.501270009204745">
        <ele>748.03099999999995</ele>
        <time>2021-07-22T09:42:32Z</time>
      </trkpt>
      <trkpt lat="42.032219963148236" lon="-4.501170013099909">
        <ele>748.024</ele>
        <time>2021-07-22T09:42:34Z</time>
      </trkpt>
      <trkpt lat="42.029319992288947" lon="-4.501799996942282">
        <ele>749.00800000000004</ele>
        <time>2021-07-22T09:43:26Z</time>
      </trkpt>
      <trkpt lat="42.029140032827854" lon="-4.501850036904216">
        <ele>749.03599999999994</ele>
        <time>2021-07-22T09:43:29Z</time>
      </trkpt>
      <trkpt lat="42.028780030086637" lon="-4.502029996365309">
        <ele>749.077</ele>
        <time>2021-07-22T09:43:36Z</time>
      </trkpt>
      <trkpt lat="42.028399994596839" lon="-4.50231003575027">
        <ele>747.05700000000002</ele>
        <time>2021-07-22T09:43:44Z</time>
      </trkpt>
      <trkpt lat="42.026989990845323" lon="-4.50360001064837">
        <ele>747.04200000000003</ele>
        <time>2021-07-22T09:44:14Z</time>
      </trkpt>
      <trkpt lat="42.026820005849004" lon="-4.503849959000945">
        <ele>746.02599999999995</ele>
        <time>2021-07-22T09:44:18Z</time>
      </trkpt>
      <trkpt lat="42.02681003138423" lon="-4.503939980641007">
        <ele>746.03800000000001</ele>
        <time>2021-07-22T09:44:20Z</time>
      </trkpt>
      <trkpt lat="42.026759991422296" lon="-4.503999995067716">
        <ele>746.00999999999999</ele>
        <time>2021-07-22T09:44:21Z</time>
      </trkpt>
      <trkpt lat="42.026720009744167" lon="-4.504020027816296">
        <ele>746.08900000000006</ele>
        <time>2021-07-22T09:44:22Z</time>
      </trkpt>
      <trkpt lat="42.026659995317459" lon="-4.50400996953249">
        <ele>746.07899999999995</ele>
        <time>2021-07-22T09:44:23Z</time>
      </trkpt>
      <trkpt lat="42.026399988681078" lon="-4.504129998385906">
        <ele>746.005</ele>
        <time>2021-07-22T09:44:28Z</time>
      </trkpt>
      <trkpt lat="42.020889976993203" lon="-4.509029975160956">
        <ele>743.02499999999998</ele>
        <time>2021-07-22T09:46:25Z</time>
      </trkpt>
      <trkpt lat="42.020670035853982" lon="-4.509329963475466">
        <ele>743.00800000000004</ele>
        <time>2021-07-22T09:46:31Z</time>
      </trkpt>
      <trkpt lat="42.020670035853982" lon="-4.509429959580302">
        <ele>743.03399999999999</ele>
        <time>2021-07-22T09:46:32Z</time>
      </trkpt>
      <trkpt lat="42.020619995892048" lon="-4.50953003950417">
        <ele>743.09500000000003</ele>
        <time>2021-07-22T09:46:34Z</time>
      </trkpt>
      <trkpt lat="42.020529974251986" lon="-4.509589970111847">
        <ele>743.05499999999995</ele>
        <time>2021-07-22T09:46:35Z</time>
      </trkpt>
      <trkpt lat="42.020440036430955" lon="-4.509570021182299">
        <ele>743.07000000000005</ele>
        <time>2021-07-22T09:46:37Z</time>
      </trkpt>
      <trkpt lat="42.020329982042313" lon="-4.509579995647073">
        <ele>744.05399999999997</ele>
        <time>2021-07-22T09:46:39Z</time>
      </trkpt>
      <trkpt lat="42.019799994304776" lon="-4.510000012814999">
        <ele>743.03599999999994</ele>
        <time>2021-07-22T09:46:50Z</time>
      </trkpt>
      <trkpt lat="42.019620034843683" lon="-4.51026001945138">
        <ele>742.07799999999997</ele>
        <time>2021-07-22T09:46:55Z</time>
      </trkpt>
      <trkpt lat="42.019620034843683" lon="-4.510360015556216">
        <ele>742.06700000000001</ele>
        <time>2021-07-22T09:46:56Z</time>
      </trkpt>
      <trkpt lat="42.019569994881749" lon="-4.510469986125827">
        <ele>741.04200000000003</ele>
        <time>2021-07-22T09:46:58Z</time>
      </trkpt>
      <trkpt lat="42.019479973241687" lon="-4.510530000552535">
        <ele>741.02200000000005</ele>
        <time>2021-07-22T09:46:59Z</time>
      </trkpt>
      <trkpt lat="42.01937997713685" lon="-4.510509967803955">
        <ele>741.01400000000001</ele>
        <time>2021-07-22T09:47:01Z</time>
      </trkpt>
      <trkpt lat="42.019230024889112" lon="-4.510580040514469">
        <ele>741.00800000000004</ele>
        <time>2021-07-22T09:47:04Z</time>
      </trkpt>
      <trkpt lat="42.018229980021715" lon="-4.511440023779869">
        <ele>742.07100000000003</ele>
        <time>2021-07-22T09:47:25Z</time>
      </trkpt>
      <trkpt lat="42.017860002815723" lon="-4.511830033734441">
        <ele>743.072</ele>
        <time>2021-07-22T09:47:33Z</time>
      </trkpt>
      <trkpt lat="42.017609970644116" lon="-4.512160029262304">
        <ele>744.01199999999994</ele>
        <time>2021-07-22T09:47:40Z</time>
      </trkpt>
      <trkpt lat="42.017379971221089" lon="-4.512520032003522">
        <ele>744.077</ele>
        <time>2021-07-22T09:47:46Z</time>
      </trkpt>
      <trkpt lat="42.017149971798062" lon="-4.512980030849576">
        <ele>745.02099999999996</ele>
        <time>2021-07-22T09:47:53Z</time>
      </trkpt>
      <trkpt lat="42.015599990263581" lon="-4.516390040516853">
        <ele>738.03300000000002</ele>
        <time>2021-07-22T09:48:46Z</time>
      </trkpt>
      <trkpt lat="42.015550034120679" lon="-4.516649963334203">
        <ele>739.05499999999995</ele>
        <time>2021-07-22T09:48:50Z</time>
      </trkpt>
      <trkpt lat="42.015580041334033" lon="-4.516749959439039">
        <ele>739.04399999999998</ele>
        <time>2021-07-22T09:48:51Z</time>
      </trkpt>
      <trkpt lat="42.015569983050227" lon="-4.516830006614327">
        <ele>739.09900000000005</ele>
        <time>2021-07-22T09:48:52Z</time>
      </trkpt>
      <trkpt lat="42.015479961410165" lon="-4.51692002825439">
        <ele>739.00699999999995</ele>
        <time>2021-07-22T09:48:54Z</time>
      </trkpt>
      <trkpt lat="42.015399998053908" lon="-4.51692002825439">
        <ele>739.02700000000004</ele>
        <time>2021-07-22T09:48:56Z</time>
      </trkpt>
      <trkpt lat="42.015379965305328" lon="-4.51689999550581">
        <ele>739.00800000000004</ele>
        <time>2021-07-22T09:48:56Z</time>
      </trkpt>
      <trkpt lat="42.013550028204918" lon="-4.52096002176404">
        <ele>740.07600000000002</ele>
        <time>2021-07-22T09:49:59Z</time>
      </trkpt>
      <trkpt lat="42.01349001377821" lon="-4.521139981225133">
        <ele>739.01700000000005</ele>
        <time>2021-07-22T09:50:01Z</time>
      </trkpt>
      <trkpt lat="42.013550028204918" lon="-4.521239977329969">
        <ele>738.01700000000005</ele>
        <time>2021-07-22T09:50:03Z</time>
      </trkpt>
      <trkpt lat="42.013560002669692" lon="-4.521339973434806">
        <ele>738.04200000000003</ele>
        <time>2021-07-22T09:50:04Z</time>
      </trkpt>
      <trkpt lat="42.013529995456338" lon="-4.521450027823448">
        <ele>737.096</ele>
        <time>2021-07-22T09:50:06Z</time>
      </trkpt>
      <trkpt lat="42.01346998102963" lon="-4.521520016714931">
        <ele>737.01800000000003</ele>
        <time>2021-07-22T09:50:07Z</time>
      </trkpt>
      <trkpt lat="42.013379959389567" lon="-4.521550023928285">
        <ele>737.09000000000003</ele>
        <time>2021-07-22T09:50:09Z</time>
      </trkpt>
      <trkpt lat="42.013209974393249" lon="-4.521720008924604">
        <ele>737.01900000000001</ele>
        <time>2021-07-22T09:50:13Z</time>
      </trkpt>
      <trkpt lat="42.012670012190938" lon="-4.522939994931221">
        <ele>738.08399999999995</ele>
        <time>2021-07-22T09:50:32Z</time>
      </trkpt>
      <trkpt lat="42.011959981173277" lon="-4.524349998682737">
        <ele>740.00699999999995</ele>
        <time>2021-07-22T09:50:54Z</time>
      </trkpt>
      <trkpt lat="42.011799970641732" lon="-4.524879986420274">
        <ele>740.01700000000005</ele>
        <time>2021-07-22T09:51:02Z</time>
      </trkpt>
      <trkpt lat="42.011820003390312" lon="-4.524960033595562">
        <ele>740.00800000000004</ele>
        <time>2021-07-22T09:51:03Z</time>
      </trkpt>
      <trkpt lat="42.011769963428378" lon="-4.525130018591881">
        <ele>740.05499999999995</ele>
        <time>2021-07-22T09:51:05Z</time>
      </trkpt>
      <trkpt lat="42.011740040034056" lon="-4.525179974734783">
        <ele>740.04600000000005</ele>
        <time>2021-07-22T09:51:06Z</time>
      </trkpt>
      <trkpt lat="42.011669967323542" lon="-4.525209981948137">
        <ele>740.05600000000004</ele>
        <time>2021-07-22T09:51:07Z</time>
      </trkpt>
      <trkpt lat="42.01142999343574" lon="-4.525420032441616">
        <ele>739.07100000000003</ele>
        <time>2021-07-22T09:51:12Z</time>
      </trkpt>
      <trkpt lat="42.009950000792742" lon="-4.528289996087551">
        <ele>749.04499999999996</ele>
        <time>2021-07-22T09:51:59Z</time>
      </trkpt>
      <trkpt lat="42.009880011901259" lon="-4.528629966080189">
        <ele>749.01700000000005</ele>
        <time>2021-07-22T09:52:03Z</time>
      </trkpt>
      <trkpt lat="42.009799964725971" lon="-4.528859965503216">
        <ele>749.06899999999996</ele>
        <time>2021-07-22T09:52:07Z</time>
      </trkpt>
      <trkpt lat="42.009789990261197" lon="-4.528979994356632">
        <ele>749.06799999999998</ele>
        <time>2021-07-22T09:52:08Z</time>
      </trkpt>
      <trkpt lat="42.009740034118295" lon="-4.529070015996695">
        <ele>749.08299999999997</ele>
        <time>2021-07-22T09:52:10Z</time>
      </trkpt>
      <trkpt lat="42.009689994156361" lon="-4.529100023210049">
        <ele>748.02499999999998</ele>
        <time>2021-07-22T09:52:11Z</time>
      </trkpt>
      <trkpt lat="42.009659986943007" lon="-4.530150024220347">
        <ele>744.01700000000005</ele>
        <time>2021-07-22T09:52:25Z</time>
      </trkpt>
      <trkpt lat="42.009710026904941" lon="-4.530789982527494">
        <ele>746.00800000000004</ele>
        <time>2021-07-22T09:52:33Z</time>
      </trkpt>
      <trkpt lat="42.009819997474551" lon="-4.531590035185218">
        <ele>745.03499999999997</ele>
        <time>2021-07-22T09:52:44Z</time>
      </trkpt>
      <trkpt lat="42.009589998051524" lon="-4.532959973439574">
        <ele>745.05600000000004</ele>
        <time>2021-07-22T09:53:02Z</time>
      </trkpt>
      <trkpt lat="42.009520009160042" lon="-4.533820040524006">
        <ele>744.02599999999995</ele>
        <time>2021-07-22T09:53:14Z</time>
      </trkpt>
      <trkpt lat="42.009540041908622" lon="-4.533920036628842">
        <ele>744.05100000000004</ele>
        <time>2021-07-22T09:53:15Z</time>
      </trkpt>
      <trkpt lat="42.009490001946688" lon="-4.534069988876581">
        <ele>744.07500000000005</ele>
        <time>2021-07-22T09:53:17Z</time>
      </trkpt>
      <trkpt lat="42.009309958666563" lon="-4.534190017729998">
        <ele>743.03700000000003</ele>
        <time>2021-07-22T09:53:21Z</time>
      </trkpt>
      <trkpt lat="42.008990021422505" lon="-4.53468999825418">
        <ele>741.09900000000005</ele>
        <time>2021-07-22T09:53:30Z</time>
      </trkpt>
      <trkpt lat="42.008449975401163" lon="-4.53554998151958">
        <ele>737.09799999999996</ele>
        <time>2021-07-22T09:53:45Z</time>
      </trkpt>
      <trkpt lat="42.008409993723035" lon="-4.535679984837771">
        <ele>736.07399999999996</ele>
        <time>2021-07-22T09:53:47Z</time>
      </trkpt>
      <trkpt lat="42.008170019835234" lon="-4.536079969257116">
        <ele>733.05600000000004</ele>
        <time>2021-07-22T09:53:53Z</time>
      </trkpt>
      <trkpt lat="42.008519964292645" lon="-4.536469979211688">
        <ele>734.02099999999996</ele>
        <time>2021-07-22T09:54:01Z</time>
      </trkpt>
      <trkpt lat="42.008730014786124" lon="-4.536769967526197">
        <ele>734.00800000000004</ele>
        <time>2021-07-22T09:54:07Z</time>
      </trkpt>
      <trkpt lat="42.00824998319149" lon="-4.537939997389913">
        <ele>730.07399999999996</ele>
        <time>2021-07-22T09:54:25Z</time>
      </trkpt>
      <trkpt lat="42.008219975978136" lon="-4.538070000708103">
        <ele>730.09500000000003</ele>
        <time>2021-07-22T09:54:26Z</time>
      </trkpt>
      <trkpt lat="42.008440000936389" lon="-4.538829987868667">
        <ele>729.07500000000005</ele>
        <time>2021-07-22T09:54:37Z</time>
      </trkpt>
      <trkpt lat="42.008560029789805" lon="-4.539140034466982">
        <ele>728.01999999999998</ele>
        <time>2021-07-22T09:54:42Z</time>
      </trkpt>
      <trkpt lat="42.008609985932708" lon="-4.539429964497685">
        <ele>729.03399999999999</ele>
        <time>2021-07-22T09:54:46Z</time>
      </trkpt>
      <trkpt lat="42.00859003700316" lon="-4.539949977770448">
        <ele>731.06600000000003</ele>
        <time>2021-07-22T09:54:53Z</time>
      </trkpt>
      <trkpt lat="42.008379986509681" lon="-4.540569987148047">
        <ele>732.048</ele>
        <time>2021-07-22T09:55:02Z</time>
      </trkpt>
      <trkpt lat="42.008360037580132" lon="-4.540939964354038">
        <ele>732.05700000000002</ele>
        <time>2021-07-22T09:55:06Z</time>
      </trkpt>
      <trkpt lat="42.008389960974455" lon="-4.540980029851198">
        <ele>732.07600000000002</ele>
        <time>2021-07-22T09:55:07Z</time>
      </trkpt>
      <trkpt lat="42.008400019258261" lon="-4.541069967672229">
        <ele>732.09000000000003</ele>
        <time>2021-07-22T09:55:08Z</time>
      </trkpt>
      <trkpt lat="42.008379986509681" lon="-4.541140040382743">
        <ele>732.01900000000001</ele>
        <time>2021-07-22T09:55:09Z</time>
      </trkpt>
      <trkpt lat="42.008330030366778" lon="-4.541180022060871">
        <ele>732.00800000000004</ele>
        <time>2021-07-22T09:55:10Z</time>
      </trkpt>
      <trkpt lat="42.008279990404844" lon="-4.541189996525645">
        <ele>733.05399999999997</ele>
        <time>2021-07-22T09:55:11Z</time>
      </trkpt>
      <trkpt lat="42.00824998319149" lon="-4.541169963777065">
        <ele>733.02499999999998</ele>
        <time>2021-07-22T09:55:12Z</time>
      </trkpt>
      <trkpt lat="42.008130038157105" lon="-4.541250010952354">
        <ele>733.07500000000005</ele>
        <time>2021-07-22T09:55:14Z</time>
      </trkpt>
      <trkpt lat="42.008000034838915" lon="-4.541519992053509">
        <ele>734.07000000000005</ele>
        <time>2021-07-22T09:55:19Z</time>
      </trkpt>
      <trkpt lat="42.006920026615262" lon="-4.544449970126152">
        <ele>731.08399999999995</ele>
        <time>2021-07-22T09:56:02Z</time>
      </trkpt>
      <trkpt lat="42.004880039021373" lon="-4.550570016726852">
        <ele>732.03599999999994</ele>
        <time>2021-07-22T09:57:30Z</time>
      </trkpt>
      <trkpt lat="42.004469996318221" lon="-4.551539970561862">
        <ele>731.08799999999997</ele>
        <time>2021-07-22T09:57:45Z</time>
      </trkpt>
      <trkpt lat="42.004070011898875" lon="-4.552259976044297">
        <ele>732.05700000000002</ele>
        <time>2021-07-22T09:57:57Z</time>
      </trkpt>
      <trkpt lat="42.000829987227917" lon="-4.55767996609211">
        <ele>738.024</ele>
        <time>2021-07-22T09:59:29Z</time>
      </trkpt>
      <trkpt lat="42.000390021130443" lon="-4.558359989896417">
        <ele>740.00400000000002</ele>
        <time>2021-07-22T09:59:41Z</time>
      </trkpt>
      <trkpt lat="41.99989004060626" lon="-4.559070020914078">
        <ele>741.01400000000001</ele>
        <time>2021-07-22T09:59:54Z</time>
      </trkpt>
      <trkpt lat="41.999459965154529" lon="-4.559630015864968">
        <ele>742.00800000000004</ele>
        <time>2021-07-22T10:00:05Z</time>
      </trkpt>
      <trkpt lat="41.998840039595962" lon="-4.560350021347404">
        <ele>744.07899999999995</ele>
        <time>2021-07-22T10:00:19Z</time>
      </trkpt>
      <trkpt lat="41.997489966452122" lon="-4.561820039525628">
        <ele>749.02999999999997</ele>
        <time>2021-07-22T10:00:50Z</time>
      </trkpt>
      <trkpt lat="41.996840033680201" lon="-4.562569968402386">
        <ele>751.07000000000005</ele>
        <time>2021-07-22T10:01:05Z</time>
      </trkpt>
      <trkpt lat="41.996030006557703" lon="-4.56358996219933">
        <ele>754.06500000000005</ele>
        <time>2021-07-22T10:01:25Z</time>
      </trkpt>
      <trkpt lat="41.991079989820719" lon="-4.570100018754602">
        <ele>771.09900000000005</ele>
        <time>2021-07-22T10:03:28Z</time>
      </trkpt>
      <trkpt lat="41.990749994292855" lon="-4.570490028709173">
        <ele>773.02099999999996</ele>
        <time>2021-07-22T10:03:36Z</time>
      </trkpt>
      <trkpt lat="41.989569989964366" lon="-4.571659974753857">
        <ele>777.07299999999998</ele>
        <time>2021-07-22T10:04:02Z</time>
      </trkpt>
      <trkpt lat="41.989279976114631" lon="-4.572000028565526">
        <ele>777.08199999999999</ele>
        <time>2021-07-22T10:04:09Z</time>
      </trkpt>
      <trkpt lat="41.988940006121993" lon="-4.572530016303062">
        <ele>778.08799999999997</ele>
        <time>2021-07-22T10:04:18Z</time>
      </trkpt>
      <trkpt lat="41.987090036273003" lon="-4.575750008225441">
        <ele>790.024</ele>
        <time>2021-07-22T10:05:12Z</time>
      </trkpt>
      <trkpt lat="41.986300041899085" lon="-4.577060015872121">
        <ele>793.02599999999995</ele>
        <time>2021-07-22T10:05:34Z</time>
      </trkpt>
      <trkpt lat="41.985759995877743" lon="-4.577869959175587">
        <ele>796.00800000000004</ele>
        <time>2021-07-22T10:05:49Z</time>
      </trkpt>
      <trkpt lat="41.983859986066818" lon="-4.580519981682301">
        <ele>808.07500000000005</ele>
        <time>2021-07-22T10:06:37Z</time>
      </trkpt>
      <trkpt lat="41.983520016074181" lon="-4.581030020490289">
        <ele>809.01599999999996</ele>
        <time>2021-07-22T10:06:46Z</time>
      </trkpt>
      <trkpt lat="41.983309965580702" lon="-4.581420030444861">
        <ele>809.02599999999995</ele>
        <time>2021-07-22T10:06:53Z</time>
      </trkpt>
      <trkpt lat="41.983130006119609" lon="-4.581859996542335">
        <ele>813.06100000000004</ele>
        <time>2021-07-22T10:07:00Z</time>
      </trkpt>
      <trkpt lat="41.982770003378391" lon="-4.58303002640605">
        <ele>821.04499999999996</ele>
        <time>2021-07-22T10:07:16Z</time>
      </trkpt>
      <trkpt lat="41.982679981738329" lon="-4.58346001803875">
        <ele>823.077</ele>
        <time>2021-07-22T10:07:22Z</time>
      </trkpt>
      <trkpt lat="41.982389967888594" lon="-4.58565004169941">
        <ele>827.01900000000001</ele>
        <time>2021-07-22T10:07:52Z</time>
      </trkpt>
      <trkpt lat="41.982289971783757" lon="-4.586250018328428">
        <ele>832.05799999999999</ele>
        <time>2021-07-22T10:08:00Z</time>
      </trkpt>
      <trkpt lat="41.982210008427501" lon="-4.58661999553442">
        <ele>834.029</ele>
        <time>2021-07-22T10:08:05Z</time>
      </trkpt>
      <trkpt lat="41.981989983469248" lon="-4.587249979376793">
        <ele>834</ele>
        <time>2021-07-22T10:08:14Z</time>
      </trkpt>
      <trkpt lat="41.981870038434863" lon="-4.587509986013174">
        <ele>833.01999999999998</ele>
        <time>2021-07-22T10:08:18Z</time>
      </trkpt>
      <trkpt lat="41.981469970196486" lon="-4.588169977068901">
        <ele>835.00800000000004</ele>
        <time>2021-07-22T10:08:29Z</time>
      </trkpt>
      <trkpt lat="41.980509990826249" lon="-4.589309999719262">
        <ele>847.029</ele>
        <time>2021-07-22T10:08:52Z</time>
      </trkpt>
      <trkpt lat="41.980140013620257" lon="-4.589920034632087">
        <ele>851.08000000000004</ele>
        <time>2021-07-22T10:09:03Z</time>
      </trkpt>
      <trkpt lat="41.979870032519102" lon="-4.590520011261106">
        <ele>856.00999999999999</ele>
        <time>2021-07-22T10:09:12Z</time>
      </trkpt>
      <trkpt lat="41.979339960962534" lon="-4.592279959470034">
        <ele>864.06500000000005</ele>
        <time>2021-07-22T10:09:37Z</time>
      </trkpt>
      <trkpt lat="41.979150027036667" lon="-4.592729983851314">
        <ele>865.08900000000006</ele>
        <time>2021-07-22T10:09:44Z</time>
      </trkpt>
      <trkpt lat="41.978869987651706" lon="-4.59325997158885">
        <ele>867.06100000000004</ele>
        <time>2021-07-22T10:09:52Z</time>
      </trkpt>
      <trkpt lat="41.978249978274107" lon="-4.594100005924702">
        <ele>867.06299999999999</ele>
        <time>2021-07-22T10:10:08Z</time>
      </trkpt>
      <trkpt lat="41.976839974522591" lon="-4.595870012417436">
        <ele>868.05200000000002</ele>
        <time>2021-07-22T10:10:42Z</time>
      </trkpt>
      <trkpt lat="41.976339993998408" lon="-4.596539977937937">
        <ele>868.03099999999995</ele>
        <time>2021-07-22T10:10:55Z</time>
      </trkpt>
      <trkpt lat="41.951350020244718" lon="-4.632890028879046">
        <ele>861.06100000000004</ele>
        <time>2021-07-22T10:21:50Z</time>
      </trkpt>
      <trkpt lat="41.950809974223375" lon="-4.633729979395866">
        <ele>862.00699999999995</ele>
        <time>2021-07-22T10:22:05Z</time>
      </trkpt>
      <trkpt lat="41.950390040874481" lon="-4.634440010413528">
        <ele>861.00800000000004</ele>
        <time>2021-07-22T10:22:17Z</time>
      </trkpt>
      <trkpt lat="41.950010005384684" lon="-4.635130008682609">
        <ele>860.09000000000003</ele>
        <time>2021-07-22T10:22:28Z</time>
      </trkpt>
      <trkpt lat="41.949020018801093" lon="-4.637049967423081">
        <ele>860.05100000000004</ele>
        <time>2021-07-22T10:22:59Z</time>
      </trkpt>
      <trkpt lat="41.948140002787113" lon="-4.638659963384271">
        <ele>859.02099999999996</ele>
        <time>2021-07-22T10:23:25Z</time>
      </trkpt>
      <trkpt lat="41.945630041882396" lon="-4.642269965261221">
        <ele>856.04600000000005</ele>
        <time>2021-07-22T10:24:31Z</time>
      </trkpt>
      <trkpt lat="41.945010032504797" lon="-4.643100025132299">
        <ele>858.00999999999999</ele>
        <time>2021-07-22T10:24:46Z</time>
      </trkpt>
      <trkpt lat="41.944149965420365" lon="-4.643999990075827">
        <ele>859.072</ele>
        <time>2021-07-22T10:25:06Z</time>
      </trkpt>
      <trkpt lat="41.93491998128593" lon="-4.653380010277033">
        <ele>859.08399999999995</ele>
        <time>2021-07-22T10:28:32Z</time>
      </trkpt>
      <trkpt lat="41.934729963541031" lon="-4.65361000970006">
        <ele>858.06299999999999</ele>
        <time>2021-07-22T10:28:36Z</time>
      </trkpt>
      <trkpt lat="41.934499964118004" lon="-4.653970012441278">
        <ele>856.096</ele>
        <time>2021-07-22T10:28:42Z</time>
      </trkpt>
      <trkpt lat="41.934299971908331" lon="-4.654460018500686">
        <ele>853.03099999999995</ele>
        <time>2021-07-22T10:28:50Z</time>
      </trkpt>
      <trkpt lat="41.93416996859014" lon="-4.655069969594479">
        <ele>850.024</ele>
        <time>2021-07-22T10:28:58Z</time>
      </trkpt>
      <trkpt lat="41.934150019660592" lon="-4.655320001766086">
        <ele>849.00800000000004</ele>
        <time>2021-07-22T10:29:01Z</time>
      </trkpt>
      <trkpt lat="41.93416996859014" lon="-4.655940011143684">
        <ele>845.096</ele>
        <time>2021-07-22T10:29:10Z</time>
      </trkpt>
      <trkpt lat="41.934289997443557" lon="-4.656509980559349">
        <ele>841.03700000000003</ele>
        <time>2021-07-22T10:29:18Z</time>
      </trkpt>
      <trkpt lat="41.93451002240181" lon="-4.657290000468493">
        <ele>838.02700000000004</ele>
        <time>2021-07-22T10:29:29Z</time>
      </trkpt>
      <trkpt lat="41.934519996866584" lon="-4.657380022108555">
        <ele>837.08199999999999</ele>
        <time>2021-07-22T10:29:30Z</time>
      </trkpt>
      <trkpt lat="41.93448998965323" lon="-4.657570039853454">
        <ele>837.02599999999995</ele>
        <time>2021-07-22T10:29:32Z</time>
      </trkpt>
      <trkpt lat="41.934450007975101" lon="-4.657659977674484">
        <ele>838.048</ele>
        <time>2021-07-22T10:29:34Z</time>
      </trkpt>
      <trkpt lat="41.934369960799813" lon="-4.657749999314547">
        <ele>838.05999999999995</ele>
        <time>2021-07-22T10:29:36Z</time>
      </trkpt>
      <trkpt lat="41.934099979698658" lon="-4.657979998737574">
        <ele>838.05899999999997</ele>
        <time>2021-07-22T10:29:41Z</time>
      </trkpt>
      <trkpt lat="41.93373997695744" lon="-4.658539993688464">
        <ele>839.02200000000005</ele>
        <time>2021-07-22T10:29:51Z</time>
      </trkpt>
      <trkpt lat="41.933409981429577" lon="-4.658969985321164">
        <ele>839.06200000000001</ele>
        <time>2021-07-22T10:29:59Z</time>
      </trkpt>
      <trkpt lat="41.93285996094346" lon="-4.659559987485409">
        <ele>840.00800000000004</ele>
        <time>2021-07-22T10:30:12Z</time>
      </trkpt>
      <trkpt lat="41.932730041444302" lon="-4.659670041874051">
        <ele>839.00800000000004</ele>
        <time>2021-07-22T10:30:14Z</time>
      </trkpt>
      <trkpt lat="41.932670027017593" lon="-4.659759979695082">
        <ele>839.07899999999995</ele>
        <time>2021-07-22T10:30:16Z</time>
      </trkpt>
      <trkpt lat="41.932610012590885" lon="-4.659859975799918">
        <ele>839.02999999999997</ele>
        <time>2021-07-22T10:30:18Z</time>
      </trkpt>
      <trkpt lat="41.932570030912757" lon="-4.660010011866689">
        <ele>839.07000000000005</ele>
        <time>2021-07-22T10:30:20Z</time>
      </trkpt>
      <trkpt lat="41.932350005954504" lon="-4.660999998450279">
        <ele>838.03499999999997</ele>
        <time>2021-07-22T10:30:34Z</time>
      </trkpt>
      <trkpt lat="41.932289991527796" lon="-4.661199990659952">
        <ele>838.06899999999996</ele>
        <time>2021-07-22T10:30:36Z</time>
      </trkpt>
      <trkpt lat="41.932189995422959" lon="-4.661390008404851">
        <ele>837.09100000000001</ele>
        <time>2021-07-22T10:30:40Z</time>
      </trkpt>
      <trkpt lat="41.932129980996251" lon="-4.661459997296333">
        <ele>837.02300000000002</ele>
        <time>2021-07-22T10:30:41Z</time>
      </trkpt>
      <trkpt lat="41.931880032643676" lon="-4.661650015041232">
        <ele>836.04200000000003</ele>
        <time>2021-07-22T10:30:46Z</time>
      </trkpt>
      <trkpt lat="41.930830031633377" lon="-4.662410002201796">
        <ele>839.03700000000003</ele>
        <time>2021-07-22T10:31:07Z</time>
      </trkpt>
      <trkpt lat="41.930370032787323" lon="-4.662670008838177">
        <ele>838.04899999999998</ele>
        <time>2021-07-22T10:31:16Z</time>
      </trkpt>
      <trkpt lat="41.929910033941269" lon="-4.662779979407787">
        <ele>837.01300000000003</ele>
        <time>2021-07-22T10:31:24Z</time>
      </trkpt>
      <trkpt lat="41.9291399884969" lon="-4.662839993834496">
        <ele>834.00800000000004</ele>
        <time>2021-07-22T10:31:38Z</time>
      </trkpt>
      <trkpt lat="41.928519979119301" lon="-4.662939989939332">
        <ele>833.01999999999998</ele>
        <time>2021-07-22T10:31:49Z</time>
      </trkpt>
      <trkpt lat="41.928200041875243" lon="-4.663069993257523">
        <ele>833.09100000000001</ele>
        <time>2021-07-22T10:31:55Z</time>
      </trkpt>
      <trkpt lat="41.928010024130344" lon="-4.663179963827133">
        <ele>834.08100000000002</ele>
        <time>2021-07-22T10:31:59Z</time>
      </trkpt>
      <trkpt lat="41.927669970318675" lon="-4.66345002874732">
        <ele>833.05600000000004</ele>
        <time>2021-07-22T10:32:06Z</time>
      </trkpt>
      <trkpt lat="41.927290018647909" lon="-4.663929976522923">
        <ele>833.07000000000005</ele>
        <time>2021-07-22T10:32:15Z</time>
      </trkpt>
      <trkpt lat="41.92654000595212" lon="-4.665360013023019">
        <ele>832.03200000000004</ele>
        <time>2021-07-22T10:32:38Z</time>
      </trkpt>
      <trkpt lat="41.926040025427938" lon="-4.666389981284738">
        <ele>832.04399999999998</ele>
        <time>2021-07-22T10:32:55Z</time>
      </trkpt>
      <trkpt lat="41.925940029323101" lon="-4.666659962385893">
        <ele>831.053</ele>
        <time>2021-07-22T10:32:59Z</time>
      </trkpt>
      <trkpt lat="41.925610033795238" lon="-4.668210027739406">
        <ele>834.03200000000004</ele>
        <time>2021-07-22T10:33:20Z</time>
      </trkpt>
      <trkpt lat="41.925510037690401" lon="-4.668559972196817">
        <ele>834.09199999999998</ele>
        <time>2021-07-22T10:33:25Z</time>
      </trkpt>
      <trkpt lat="41.923439959064126" lon="-4.67399999499321">
        <ele>830.01099999999997</ele>
        <time>2021-07-22T10:34:46Z</time>
      </trkpt>
      <trkpt lat="41.923150029033422" lon="-4.674669960513711">
        <ele>830.00800000000004</ele>
        <time>2021-07-22T10:34:56Z</time>
      </trkpt>
      <trkpt lat="41.922539994120598" lon="-4.675730019807816">
        <ele>831.09000000000003</ele>
        <time>2021-07-22T10:35:14Z</time>
      </trkpt>
      <trkpt lat="41.922240005806088" lon="-4.67632002197206">
        <ele>833.02099999999996</ele>
        <time>2021-07-22T10:35:23Z</time>
      </trkpt>
      <trkpt lat="41.92204998806119" lon="-4.676820002496243">
        <ele>832.06100000000004</ele>
        <time>2021-07-22T10:35:31Z</time>
      </trkpt>
      <trkpt lat="41.920479973778129" lon="-4.681510012596846">
        <ele>820.06600000000003</ele>
        <time>2021-07-22T10:36:39Z</time>
      </trkpt>
      <trkpt lat="41.920209992676973" lon="-4.682639976963401">
        <ele>823.05999999999995</ele>
        <time>2021-07-22T10:36:55Z</time>
      </trkpt>
      <trkpt lat="41.920079989358783" lon="-4.683870021253824">
        <ele>821.04200000000003</ele>
        <time>2021-07-22T10:37:11Z</time>
      </trkpt>
      <trkpt lat="41.919220006093383" lon="-4.693539971485734">
        <ele>822.08399999999995</ele>
        <time>2021-07-22T10:39:20Z</time>
      </trkpt>
      <trkpt lat="41.919039962813258" lon="-4.69499004073441">
        <ele>824.01300000000003</ele>
        <time>2021-07-22T10:39:39Z</time>
      </trkpt>
      <trkpt lat="41.918760007247329" lon="-4.696350004523993">
        <ele>821.02700000000004</ele>
        <time>2021-07-22T10:39:58Z</time>
      </trkpt>
      <trkpt lat="41.917350003495812" lon="-4.701460031792522">
        <ele>812.06799999999998</ele>
        <time>2021-07-22T10:41:10Z</time>
      </trkpt>
      <trkpt lat="41.917250007390976" lon="-4.702320015057921">
        <ele>813.01400000000001</ele>
        <time>2021-07-22T10:41:22Z</time>
      </trkpt>
      <trkpt lat="41.917250007390976" lon="-4.703179998323321">
        <ele>812.00800000000004</ele>
        <time>2021-07-22T10:41:33Z</time>
      </trkpt>
      <trkpt lat="41.917319996282458" lon="-4.703809982165694">
        <ele>811.01900000000001</ele>
        <time>2021-07-22T10:41:42Z</time>
      </trkpt>
      <trkpt lat="41.917470032349229" lon="-4.704550020396709">
        <ele>811.08000000000004</ele>
        <time>2021-07-22T10:41:52Z</time>
      </trkpt>
      <trkpt lat="41.917759962379932" lon="-4.705430036410689">
        <ele>812.00999999999999</ele>
        <time>2021-07-22T10:42:04Z</time>
      </trkpt>
      <trkpt lat="41.919689979404211" lon="-4.709909996017814">
        <ele>808.08500000000004</ele>
        <time>2021-07-22T10:43:13Z</time>
      </trkpt>
      <trkpt lat="41.920409984886646" lon="-4.71172995865345">
        <ele>813.07899999999995</ele>
        <time>2021-07-22T10:43:40Z</time>
      </trkpt>
      <trkpt lat="41.920630009844899" lon="-4.71260997466743">
        <ele>815.03099999999995</ele>
        <time>2021-07-22T10:43:53Z</time>
      </trkpt>
      <trkpt lat="41.920730005949736" lon="-4.713239958509803">
        <ele>815.06299999999999</ele>
        <time>2021-07-22T10:44:01Z</time>
      </trkpt>
      <trkpt lat="41.920820027589798" lon="-4.714449970051646">
        <ele>812.08199999999999</ele>
        <time>2021-07-22T10:44:17Z</time>
      </trkpt>
      <trkpt lat="41.920790020376444" lon="-4.715320011600852">
        <ele>813.01900000000001</ele>
        <time>2021-07-22T10:44:29Z</time>
      </trkpt>
      <trkpt lat="41.920019974932075" lon="-4.722129972651601">
        <ele>801.00900000000001</ele>
        <time>2021-07-22T10:46:00Z</time>
      </trkpt>
      <trkpt lat="41.919670030474663" lon="-4.724810002371669">
        <ele>802.01900000000001</ele>
        <time>2021-07-22T10:46:36Z</time>
      </trkpt>
      <trkpt lat="41.919180024415255" lon="-4.727600002661347">
        <ele>799.00800000000004</ele>
        <time>2021-07-22T10:47:14Z</time>
      </trkpt>
      <trkpt lat="41.918190037831664" lon="-4.732220023870468">
        <ele>796.07799999999997</ele>
        <time>2021-07-22T10:48:18Z</time>
      </trkpt>
      <trkpt lat="41.91811996512115" lon="-4.732929971069098">
        <ele>796.04899999999998</ele>
        <time>2021-07-22T10:48:27Z</time>
      </trkpt>
      <trkpt lat="41.918149972334504" lon="-4.733909983187914">
        <ele>794.029</ele>
        <time>2021-07-22T10:48:40Z</time>
      </trkpt>
      <trkpt lat="41.918650036677718" lon="-4.738690014928579">
        <ele>793.024</ele>
        <time>2021-07-22T10:49:44Z</time>
      </trkpt>
      <trkpt lat="41.918820021674037" lon="-4.739759964868426">
        <ele>794.048</ele>
        <time>2021-07-22T10:49:58Z</time>
      </trkpt>
      <trkpt lat="41.921610021963716" lon="-4.748970000073314">
        <ele>790.09000000000003</ele>
        <time>2021-07-22T10:52:10Z</time>
      </trkpt>
      <trkpt lat="41.923710023984313" lon="-4.755699997767806">
        <ele>795.01199999999994</ele>
        <time>2021-07-22T10:53:47Z</time>
      </trkpt>
      <trkpt lat="41.92391999065876" lon="-4.756580013781786">
        <ele>794.01099999999997</ele>
        <time>2021-07-22T10:53:59Z</time>
      </trkpt>
      <trkpt lat="41.924920035526156" lon="-4.762989990413189">
        <ele>788.08100000000002</ele>
        <time>2021-07-22T10:55:26Z</time>
      </trkpt>
      <trkpt lat="41.924999998882413" lon="-4.763630032539368">
        <ele>788.06100000000004</ele>
        <time>2021-07-22T10:55:34Z</time>
      </trkpt>
      <trkpt lat="41.925009973347187" lon="-4.764490015804768">
        <ele>788.01700000000005</ele>
        <time>2021-07-22T10:55:46Z</time>
      </trkpt>
      <trkpt lat="41.924920035526156" lon="-4.765340024605393">
        <ele>789.00800000000004</ele>
        <time>2021-07-22T10:55:57Z</time>
      </trkpt>
      <trkpt lat="41.924769999459386" lon="-4.766039997339249">
        <ele>787.06500000000005</ele>
        <time>2021-07-22T10:56:07Z</time>
      </trkpt>
      <trkpt lat="41.923680016770959" lon="-4.768999982625246">
        <ele>788.096</ele>
        <time>2021-07-22T10:56:50Z</time>
      </trkpt>
      <trkpt lat="41.923410035669804" lon="-4.769589984789491">
        <ele>788.08600000000001</ele>
        <time>2021-07-22T10:57:00Z</time>
      </trkpt>
      <trkpt lat="41.92306000739336" lon="-4.77018996141851">
        <ele>789.08100000000002</ele>
        <time>2021-07-22T10:57:10Z</time>
      </trkpt>
      <trkpt lat="41.922309994697571" lon="-4.771109959110618">
        <ele>790.06500000000005</ele>
        <time>2021-07-22T10:57:28Z</time>
      </trkpt>
      <trkpt lat="41.919210031628609" lon="-4.77470001205802">
        <ele>794.06700000000001</ele>
        <time>2021-07-22T10:58:40Z</time>
      </trkpt>
      <trkpt lat="41.918769981712103" lon="-4.775069989264011">
        <ele>795.07899999999995</ele>
        <time>2021-07-22T10:58:50Z</time>
      </trkpt>
      <trkpt lat="41.918100016191602" lon="-4.775510039180517">
        <ele>795.02800000000002</ele>
        <time>2021-07-22T10:59:03Z</time>
      </trkpt>
      <trkpt lat="41.917659966275096" lon="-4.775919998064637">
        <ele>795.02099999999996</ele>
        <time>2021-07-22T10:59:13Z</time>
      </trkpt>
      <trkpt lat="41.917029982432723" lon="-4.776660036295652">
        <ele>794.04100000000005</ele>
        <time>2021-07-22T10:59:27Z</time>
      </trkpt>
      <trkpt lat="41.916939960792661" lon="-4.776900010183454">
        <ele>794.005</ele>
        <time>2021-07-22T10:59:31Z</time>
      </trkpt>
      <trkpt lat="41.916890004649758" lon="-4.777199998497963">
        <ele>793.00800000000004</ele>
        <time>2021-07-22T10:59:35Z</time>
      </trkpt>
      <trkpt lat="41.916859997436404" lon="-4.777279961854219">
        <ele>793.08900000000006</ele>
        <time>2021-07-22T10:59:36Z</time>
      </trkpt>
      <trkpt lat="41.916799983009696" lon="-4.777330001816154">
        <ele>793.04999999999995</ele>
        <time>2021-07-22T10:59:37Z</time>
      </trkpt>
      <trkpt lat="41.916660005226731" lon="-4.777330001816154">
        <ele>793.04999999999995</ele>
        <time>2021-07-22T10:59:40Z</time>
      </trkpt>
      <trkpt lat="41.916509969159961" lon="-4.777380041778088">
        <ele>794.03499999999997</ele>
        <time>2021-07-22T10:59:43Z</time>
      </trkpt>
      <trkpt lat="41.916339984163642" lon="-4.777380041778088">
        <ele>794.03899999999999</ele>
        <time>2021-07-22T10:59:46Z</time>
      </trkpt>
      <trkpt lat="41.914390018209815" lon="-4.77788002230227">
        <ele>801.09100000000001</ele>
        <time>2021-07-22T11:00:21Z</time>
      </trkpt>
      <trkpt lat="41.913640005514026" lon="-4.777920003980398">
        <ele>801.02300000000002</ele>
        <time>2021-07-22T11:00:34Z</time>
      </trkpt>
      <trkpt lat="41.913389973342419" lon="-4.777920003980398">
        <ele>800.08199999999999</ele>
        <time>2021-07-22T11:00:39Z</time>
      </trkpt>
      <trkpt lat="41.913180006667972" lon="-4.777889996767044">
        <ele>800.02499999999998</ele>
        <time>2021-07-22T11:00:43Z</time>
      </trkpt>
      <trkpt lat="41.912980014458299" lon="-4.777780026197434">
        <ele>801.02599999999995</ele>
        <time>2021-07-22T11:00:46Z</time>
      </trkpt>
      <trkpt lat="41.912209969013929" lon="-4.77702003903687">
        <ele>806.00800000000004</ele>
        <time>2021-07-22T11:01:03Z</time>
      </trkpt>
      <trkpt lat="41.911930013448" lon="-4.776560040190816">
        <ele>808.00800000000004</ele>
        <time>2021-07-22T11:01:11Z</time>
      </trkpt>
      <trkpt lat="41.911040022969246" lon="-4.774630023166537">
        <ele>817.07899999999995</ele>
        <time>2021-07-22T11:01:41Z</time>
      </trkpt>
      <trkpt lat="41.910859979689121" lon="-4.774340009316802">
        <ele>818.09000000000003</ele>
        <time>2021-07-22T11:01:46Z</time>
      </trkpt>
      <trkpt lat="41.910499976947904" lon="-4.774080002680421">
        <ele>821.05999999999995</ele>
        <time>2021-07-22T11:01:54Z</time>
      </trkpt>
      <trkpt lat="41.909660026431084" lon="-4.773829970508814">
        <ele>825.08500000000004</ele>
        <time>2021-07-22T11:02:09Z</time>
      </trkpt>
      <trkpt lat="41.909170020371675" lon="-4.773780014365912">
        <ele>828.04899999999998</ele>
        <time>2021-07-22T11:02:18Z</time>
      </trkpt>
      <trkpt lat="41.90875000320375" lon="-4.773870036005974">
        <ele>829.08100000000002</ele>
        <time>2021-07-22T11:02:25Z</time>
      </trkpt>
      <trkpt lat="41.907990016043186" lon="-4.774170024320483">
        <ele>832.02300000000002</ele>
        <time>2021-07-22T11:02:39Z</time>
      </trkpt>
      <trkpt lat="41.90756999887526" lon="-4.774409998208284">
        <ele>835.072</ele>
        <time>2021-07-22T11:02:48Z</time>
      </trkpt>
      <trkpt lat="41.906949989497662" lon="-4.774920037016273">
        <ele>837.04100000000005</ele>
        <time>2021-07-22T11:03:00Z</time>
      </trkpt>
      <trkpt lat="41.905669989064336" lon="-4.776449985802174">
        <ele>846.08100000000002</ele>
        <time>2021-07-22T11:03:31Z</time>
      </trkpt>
      <trkpt lat="41.905300011858344" lon="-4.776779981330037">
        <ele>848.00900000000001</ele>
        <time>2021-07-22T11:03:39Z</time>
      </trkpt>
      <trkpt lat="41.905019972473383" lon="-4.776909984648228">
        <ele>850.00800000000004</ele>
        <time>2021-07-22T11:03:44Z</time>
      </trkpt>
      <trkpt lat="41.904830038547516" lon="-4.776879977434874">
        <ele>850.08100000000002</ele>
        <time>2021-07-22T11:03:47Z</time>
      </trkpt>
      <trkpt lat="41.904629962518811" lon="-4.776770006865263">
        <ele>851.05200000000002</ele>
        <time>2021-07-22T11:03:51Z</time>
      </trkpt>
      <trkpt lat="41.904169963672757" lon="-4.776249993592501">
        <ele>853.05200000000002</ele>
        <time>2021-07-22T11:04:02Z</time>
      </trkpt>
      <trkpt lat="41.903850026428699" lon="-4.775980012491345">
        <ele>854.06700000000001</ele>
        <time>2021-07-22T11:04:09Z</time>
      </trkpt>
      <trkpt lat="41.903160028159618" lon="-4.775659991428256">
        <ele>854.02099999999996</ele>
        <time>2021-07-22T11:04:22Z</time>
      </trkpt>
      <trkpt lat="41.902749985456467" lon="-4.775380035862327">
        <ele>854.02300000000002</ele>
        <time>2021-07-22T11:04:30Z</time>
      </trkpt>
      <trkpt lat="41.902289986610413" lon="-4.774939985945821">
        <ele>855.05499999999995</ele>
        <time>2021-07-22T11:04:40Z</time>
      </trkpt>
      <trkpt lat="41.901969965547323" lon="-4.774479987099767">
        <ele>856.03399999999999</ele>
        <time>2021-07-22T11:04:48Z</time>
      </trkpt>
      <trkpt lat="41.88397997058928" lon="-4.746010014787316">
        <ele>859.09299999999996</ele>
        <time>2021-07-22T11:13:03Z</time>
      </trkpt>
      <trkpt lat="41.857870006933808" lon="-4.704820001497865">
        <ele>855.06500000000005</ele>
        <time>2021-07-22T11:25:00Z</time>
      </trkpt>
      <trkpt lat="41.857649981975555" lon="-4.704329995438457">
        <ele>855.02099999999996</ele>
        <time>2021-07-22T11:25:07Z</time>
      </trkpt>
      <trkpt lat="41.857570018619299" lon="-4.704060014337301">
        <ele>855.00800000000004</ele>
        <time>2021-07-22T11:25:11Z</time>
      </trkpt>
      <trkpt lat="41.854439964517951" lon="-4.681189991533756">
        <ele>846.04600000000005</ele>
        <time>2021-07-22T11:30:19Z</time>
      </trkpt>
      <trkpt lat="41.854429990053177" lon="-4.678889997303486">
        <ele>840.03700000000003</ele>
        <time>2021-07-22T11:30:50Z</time>
      </trkpt>
      <trkpt lat="41.854269979521632" lon="-4.677259968593717">
        <ele>832.05700000000002</ele>
        <time>2021-07-22T11:31:12Z</time>
      </trkpt>
      <trkpt lat="41.854269979521632" lon="-4.676369978114963">
        <ele>829.05200000000002</ele>
        <time>2021-07-22T11:31:23Z</time>
      </trkpt>
      <trkpt lat="41.854680022224784" lon="-4.672819990664721">
        <ele>815.05600000000004</ele>
        <time>2021-07-22T11:32:11Z</time>
      </trkpt>
      <trkpt lat="41.854799967259169" lon="-4.672489995136857">
        <ele>813.08799999999997</ele>
        <time>2021-07-22T11:32:16Z</time>
      </trkpt>
      <trkpt lat="41.855279998853803" lon="-4.67183000408113">
        <ele>811.08000000000004</ele>
        <time>2021-07-22T11:32:28Z</time>
      </trkpt>
      <trkpt lat="41.855370020493865" lon="-4.671509983018041">
        <ele>810.01900000000001</ele>
        <time>2021-07-22T11:32:33Z</time>
      </trkpt>
      <trkpt lat="41.855379994958639" lon="-4.671000028029084">
        <ele>809.06500000000005</ele>
        <time>2021-07-22T11:32:39Z</time>
      </trkpt>
      <trkpt lat="41.855270024389029" lon="-4.670599959790707">
        <ele>808.06799999999998</ele>
        <time>2021-07-22T11:32:45Z</time>
      </trkpt>
      <trkpt lat="41.854299986734986" lon="-4.669500002637506">
        <ele>804.01400000000001</ele>
        <time>2021-07-22T11:33:08Z</time>
      </trkpt>
      <trkpt lat="41.854190016165376" lon="-4.669279977679253">
        <ele>803.00800000000004</ele>
        <time>2021-07-22T11:33:11Z</time>
      </trkpt>
      <trkpt lat="41.854180041700602" lon="-4.668949982151389">
        <ele>801.03300000000002</ele>
        <time>2021-07-22T11:33:15Z</time>
      </trkpt>
      <trkpt lat="41.854899963364005" lon="-4.6664800029248">
        <ele>795.01400000000001</ele>
        <time>2021-07-22T11:33:51Z</time>
      </trkpt>
      <trkpt lat="41.854940028861165" lon="-4.665959989652038">
        <ele>794.07399999999996</ele>
        <time>2021-07-22T11:33:58Z</time>
      </trkpt>
      <trkpt lat="41.854799967259169" lon="-4.665450034663081">
        <ele>792.08900000000006</ele>
        <time>2021-07-22T11:34:05Z</time>
      </trkpt>
      <trkpt lat="41.851760018616915" lon="-4.659120021387935">
        <ele>778.01300000000003</ele>
        <time>2021-07-22T11:35:45Z</time>
      </trkpt>
      <trkpt lat="41.851630015298724" lon="-4.65893997810781">
        <ele>777.03499999999997</ele>
        <time>2021-07-22T11:35:48Z</time>
      </trkpt>
      <trkpt lat="41.851509986445308" lon="-4.658830007538199">
        <ele>776.01700000000005</ele>
        <time>2021-07-22T11:35:50Z</time>
      </trkpt>
      <trkpt lat="41.851379983127117" lon="-4.658739985898137">
        <ele>776.05600000000004</ele>
        <time>2021-07-22T11:35:53Z</time>
      </trkpt>
      <trkpt lat="41.85114998370409" lon="-4.658660022541881">
        <ele>776.07600000000002</ele>
        <time>2021-07-22T11:35:57Z</time>
      </trkpt>
      <trkpt lat="41.850680010393262" lon="-4.658609982579947">
        <ele>777.09000000000003</ele>
        <time>2021-07-22T11:36:06Z</time>
      </trkpt>
      <trkpt lat="41.845279969274998" lon="-4.658289961516857">
        <ele>773.01900000000001</ele>
        <time>2021-07-22T11:37:42Z</time>
      </trkpt>
      <trkpt lat="41.844930024817586" lon="-4.658289961516857">
        <ele>773.00800000000004</ele>
        <time>2021-07-22T11:37:48Z</time>
      </trkpt>
      <trkpt lat="41.844709999859333" lon="-4.658340001478791">
        <ele>773.09400000000005</ele>
        <time>2021-07-22T11:37:52Z</time>
      </trkpt>
      <trkpt lat="41.84453004039824" lon="-4.658409990370274">
        <ele>773.05499999999995</ele>
        <time>2021-07-22T11:37:55Z</time>
      </trkpt>
      <trkpt lat="41.840800009667873" lon="-4.660400021821261">
        <ele>768.08500000000004</ele>
        <time>2021-07-22T11:39:07Z</time>
      </trkpt>
      <trkpt lat="41.840560035780072" lon="-4.660470010712743">
        <ele>769.01999999999998</ele>
        <time>2021-07-22T11:39:11Z</time>
      </trkpt>
      <trkpt lat="41.840430032461882" lon="-4.660430029034615">
        <ele>768.07399999999996</ele>
        <time>2021-07-22T11:39:14Z</time>
      </trkpt>
      <trkpt lat="41.840289970859885" lon="-4.660300025716424">
        <ele>767.06600000000003</ele>
        <time>2021-07-22T11:39:17Z</time>
      </trkpt>
      <trkpt lat="41.839880011975765" lon="-4.659480024129152">
        <ele>765.01800000000003</ele>
        <time>2021-07-22T11:39:30Z</time>
      </trkpt>
      <trkpt lat="41.839740034192801" lon="-4.659280031919479">
        <ele>766.05700000000002</ele>
        <time>2021-07-22T11:39:33Z</time>
      </trkpt>
      <trkpt lat="41.839599972590804" lon="-4.659180035814643">
        <ele>766.048</ele>
        <time>2021-07-22T11:39:36Z</time>
      </trkpt>
      <trkpt lat="41.839439962059259" lon="-4.659169977530837">
        <ele>767.06100000000004</ele>
        <time>2021-07-22T11:39:39Z</time>
      </trkpt>
      <trkpt lat="41.838040016591549" lon="-4.659280031919479">
        <ele>769.01700000000005</ele>
        <time>2021-07-22T11:40:04Z</time>
      </trkpt>
      <trkpt lat="41.837770035490394" lon="-4.659229991957545">
        <ele>768.00800000000004</ele>
        <time>2021-07-22T11:40:09Z</time>
      </trkpt>
      <trkpt lat="41.837559984996915" lon="-4.659150028601289">
        <ele>769.08100000000002</ele>
        <time>2021-07-22T11:40:13Z</time>
      </trkpt>
      <trkpt lat="41.835050024092197" lon="-4.657359989359975">
        <ele>766.04200000000003</ele>
        <time>2021-07-22T11:41:03Z</time>
      </trkpt>
      <trkpt lat="41.834549959748983" lon="-4.656929997727275">
        <ele>765.05200000000002</ele>
        <time>2021-07-22T11:41:14Z</time>
      </trkpt>
      <trkpt lat="41.832309979945421" lon="-4.65406003408134">
        <ele>758.03700000000003</ele>
        <time>2021-07-22T11:42:09Z</time>
      </trkpt>
      <trkpt lat="41.832219958305359" lon="-4.653989961370826">
        <ele>758.01099999999997</ele>
        <time>2021-07-22T11:42:11Z</time>
      </trkpt>
      <trkpt lat="41.832130020484328" lon="-4.653960037976503">
        <ele>758.04300000000001</ele>
        <time>2021-07-22T11:42:12Z</time>
      </trkpt>
      <trkpt lat="41.83204997330904" lon="-4.653979986906052">
        <ele>757.07500000000005</ele>
        <time>2021-07-22T11:42:14Z</time>
      </trkpt>
      <trkpt lat="41.831940002739429" lon="-4.654070008546114">
        <ele>756.06399999999996</ele>
        <time>2021-07-22T11:42:16Z</time>
      </trkpt>
      <trkpt lat="41.829700022935867" lon="-4.656690023839474">
        <ele>757.05700000000002</ele>
        <time>2021-07-22T11:43:09Z</time>
      </trkpt>
      <trkpt lat="41.829559961333871" lon="-4.656999986618757">
        <ele>759</ele>
        <time>2021-07-22T11:43:14Z</time>
      </trkpt>
      <trkpt lat="41.829489972442389" lon="-4.657559981569648">
        <ele>762.01999999999998</ele>
        <time>2021-07-22T11:43:21Z</time>
      </trkpt>
      <trkpt lat="41.829280005767941" lon="-4.657910009846091">
        <ele>762.00800000000004</ele>
        <time>2021-07-22T11:43:27Z</time>
      </trkpt>
      <trkpt lat="41.827370021492243" lon="-4.660100033506751">
        <ele>768.02200000000005</ele>
        <time>2021-07-22T11:44:12Z</time>
      </trkpt>
      <trkpt lat="41.824659984558821" lon="-4.663150040432811">
        <ele>783.02300000000002</ele>
        <time>2021-07-22T11:45:15Z</time>
      </trkpt>
      <trkpt lat="41.823749961331487" lon="-4.664210015907884">
        <ele>787.09299999999996</ele>
        <time>2021-07-22T11:45:36Z</time>
      </trkpt>
      <trkpt lat="41.822940018028021" lon="-4.664990035817027">
        <ele>789.048</ele>
        <time>2021-07-22T11:45:54Z</time>
      </trkpt>
      <trkpt lat="41.811950001865625" lon="-4.672589991241694">
        <ele>800.072</ele>
        <time>2021-07-22T11:49:34Z</time>
      </trkpt>
      <trkpt lat="41.811339966952801" lon="-4.673049990087748">
        <ele>797.09400000000005</ele>
        <time>2021-07-22T11:49:47Z</time>
      </trkpt>
      <trkpt lat="41.810999996960163" lon="-4.673419967293739">
        <ele>795.08600000000001</ele>
        <time>2021-07-22T11:49:54Z</time>
      </trkpt>
      <trkpt lat="41.808620039373636" lon="-4.676820002496243">
        <ele>789.08500000000004</ele>
        <time>2021-07-22T11:50:56Z</time>
      </trkpt>
      <trkpt lat="41.808509984984994" lon="-4.677240019664168">
        <ele>789.04700000000003</ele>
        <time>2021-07-22T11:51:02Z</time>
      </trkpt>
      <trkpt lat="41.808449970558286" lon="-4.678690005093813">
        <ele>787.029</ele>
        <time>2021-07-22T11:51:21Z</time>
      </trkpt>
      <trkpt lat="41.808430021628737" lon="-4.679889958351851">
        <ele>788.02099999999996</ele>
        <time>2021-07-22T11:51:37Z</time>
      </trkpt>
      <trkpt lat="41.808490036055446" lon="-4.680590014904738">
        <ele>790.00800000000004</ele>
        <time>2021-07-22T11:51:47Z</time>
      </trkpt>
      <trkpt lat="41.808899994939566" lon="-4.683789974078536">
        <ele>784.06100000000004</ele>
        <time>2021-07-22T11:52:30Z</time>
      </trkpt>
      <trkpt lat="41.808860013261437" lon="-4.684019973501563">
        <ele>782.04200000000003</ele>
        <time>2021-07-22T11:52:33Z</time>
      </trkpt>
      <trkpt lat="41.808709977194667" lon="-4.684300012886524">
        <ele>781.072</ele>
        <time>2021-07-22T11:52:37Z</time>
      </trkpt>
      <trkpt lat="41.808519959449768" lon="-4.684460023418069">
        <ele>780.09699999999998</ele>
        <time>2021-07-22T11:52:41Z</time>
      </trkpt>
      <trkpt lat="41.808000029996037" lon="-4.684660015627742">
        <ele>778.07100000000003</ele>
        <time>2021-07-22T11:52:51Z</time>
      </trkpt>
      <trkpt lat="41.80774999782443" lon="-4.684869982302189">
        <ele>777.02300000000002</ele>
        <time>2021-07-22T11:52:56Z</time>
      </trkpt>
      <trkpt lat="41.807589987292886" lon="-4.685159996151924">
        <ele>777.02499999999998</ele>
        <time>2021-07-22T11:53:01Z</time>
      </trkpt>
      <trkpt lat="41.806869981810451" lon="-4.687659982591867">
        <ele>784.08399999999995</ele>
        <time>2021-07-22T11:53:37Z</time>
      </trkpt>
      <trkpt lat="41.80585996247828" lon="-4.690900007262826">
        <ele>792.02499999999998</ele>
        <time>2021-07-22T11:54:23Z</time>
      </trkpt>
      <trkpt lat="41.805640021339059" lon="-4.691469976678491">
        <ele>795.02599999999995</ele>
        <time>2021-07-22T11:54:32Z</time>
      </trkpt>
      <trkpt lat="41.805459978058934" lon="-4.691720008850098">
        <ele>796.00800000000004</ele>
        <time>2021-07-22T11:54:36Z</time>
      </trkpt>
      <trkpt lat="41.805250011384487" lon="-4.691859986633062">
        <ele>798.00800000000004</ele>
        <time>2021-07-22T11:54:40Z</time>
      </trkpt>
      <trkpt lat="41.804929990321398" lon="-4.691959982737899">
        <ele>800.07899999999995</ele>
        <time>2021-07-22T11:54:46Z</time>
      </trkpt>
      <trkpt lat="41.797210006043315" lon="-4.693880025297403">
        <ele>791.09000000000003</ele>
        <time>2021-07-22T11:57:06Z</time>
      </trkpt>
      <trkpt lat="41.785669969394803" lon="-4.696859959512949">
        <ele>775.04999999999995</ele>
        <time>2021-07-22T12:00:35Z</time>
      </trkpt>
      <trkpt lat="41.785090025514364" lon="-4.696960039436817">
        <ele>770.03499999999997</ele>
        <time>2021-07-22T12:00:45Z</time>
      </trkpt>
      <trkpt lat="41.781640034168959" lon="-4.696380011737347">
        <ele>754.04899999999998</ele>
        <time>2021-07-22T12:01:47Z</time>
      </trkpt>
      <trkpt lat="41.781009966507554" lon="-4.696340030059218">
        <ele>748.04100000000005</ele>
        <time>2021-07-22T12:01:59Z</time>
      </trkpt>
      <trkpt lat="41.769939986988902" lon="-4.699430018663406">
        <ele>767.08299999999997</ele>
        <time>2021-07-22T12:05:20Z</time>
      </trkpt>
      <trkpt lat="41.769790034741163" lon="-4.699419960379601">
        <ele>769.05200000000002</ele>
        <time>2021-07-22T12:05:22Z</time>
      </trkpt>
      <trkpt lat="41.769630024209619" lon="-4.699319964274764">
        <ele>771.03099999999995</ele>
        <time>2021-07-22T12:05:26Z</time>
      </trkpt>
      <trkpt lat="41.7694600392133" lon="-4.699089964851737">
        <ele>772.06100000000004</ele>
        <time>2021-07-22T12:05:30Z</time>
      </trkpt>
      <trkpt lat="41.769080003723502" lon="-4.698700038716197">
        <ele>774.00699999999995</ele>
        <time>2021-07-22T12:05:38Z</time>
      </trkpt>
      <trkpt lat="41.768840029835701" lon="-4.698559977114201">
        <ele>775.00800000000004</ele>
        <time>2021-07-22T12:05:43Z</time>
      </trkpt>
      <trkpt lat="41.76855999045074" lon="-4.698510020971298">
        <ele>776.02999999999997</ele>
        <time>2021-07-22T12:05:48Z</time>
      </trkpt>
      <trkpt lat="41.765750041231513" lon="-4.69887999817729">
        <ele>773.09100000000001</ele>
        <time>2021-07-22T12:06:38Z</time>
      </trkpt>
      <trkpt lat="41.765360031276941" lon="-4.698979994282126">
        <ele>770.09100000000001</ele>
        <time>2021-07-22T12:06:45Z</time>
      </trkpt>
      <trkpt lat="41.764900032430887" lon="-4.699240000918508">
        <ele>769.07600000000002</ele>
        <time>2021-07-22T12:06:54Z</time>
      </trkpt>
      <trkpt lat="41.756879976019263" lon="-4.705459959805012">
        <ele>753.02999999999997</ele>
        <time>2021-07-22T12:09:39Z</time>
      </trkpt>
      <trkpt lat="41.756630027666688" lon="-4.705709991976619">
        <ele>753.03200000000004</ele>
        <time>2021-07-22T12:09:45Z</time>
      </trkpt>
      <trkpt lat="41.756410002708435" lon="-4.70599003136158">
        <ele>754.06399999999996</ele>
        <time>2021-07-22T12:09:50Z</time>
      </trkpt>
      <trkpt lat="41.756219984963536" lon="-4.706369983032346">
        <ele>755.053</ele>
        <time>2021-07-22T12:09:56Z</time>
      </trkpt>
      <trkpt lat="41.75523997284472" lon="-4.709770018234849">
        <ele>756.08199999999999</ele>
        <time>2021-07-22T12:10:45Z</time>
      </trkpt>
      <trkpt lat="41.755209965631366" lon="-4.710019966587424">
        <ele>754.04300000000001</ele>
        <time>2021-07-22T12:10:48Z</time>
      </trkpt>
      <trkpt lat="41.755269980058074" lon="-4.710190035402775">
        <ele>752.01700000000005</ele>
        <time>2021-07-22T12:10:50Z</time>
      </trkpt>
      <trkpt lat="41.755380034446716" lon="-4.710279973223805">
        <ele>752.00800000000004</ele>
        <time>2021-07-22T12:10:53Z</time>
      </trkpt>
      <trkpt lat="41.75614002160728" lon="-4.710720023140311">
        <ele>753.08500000000004</ele>
        <time>2021-07-22T12:11:07Z</time>
      </trkpt>
      <trkpt lat="41.75627002492547" lon="-4.710850026458502">
        <ele>753.03599999999994</ele>
        <time>2021-07-22T12:11:10Z</time>
      </trkpt>
      <trkpt lat="41.756319981068373" lon="-4.711050018668175">
        <ele>753.07600000000002</ele>
        <time>2021-07-22T12:11:13Z</time>
      </trkpt>
      <trkpt lat="41.756279999390244" lon="-4.711259985342622">
        <ele>752.08100000000002</ele>
        <time>2021-07-22T12:11:16Z</time>
      </trkpt>
      <trkpt lat="41.755940029397607" lon="-4.711889969184995">
        <ele>746.08500000000004</ele>
        <time>2021-07-22T12:11:26Z</time>
      </trkpt>
      <trkpt lat="41.75582000054419" lon="-4.712190041318536">
        <ele>745.04700000000003</ele>
        <time>2021-07-22T12:11:31Z</time>
      </trkpt>
      <trkpt lat="41.755569968372583" lon="-4.713589986786246">
        <ele>742.05899999999997</ele>
        <time>2021-07-22T12:11:50Z</time>
      </trkpt>
      <trkpt lat="41.755450023338199" lon="-4.713949989527464">
        <ele>740.02800000000002</ele>
        <time>2021-07-22T12:11:55Z</time>
      </trkpt>
      <trkpt lat="41.755139976739883" lon="-4.71437000669539">
        <ele>737.08199999999999</ele>
        <time>2021-07-22T12:12:03Z</time>
      </trkpt>
      <trkpt lat="41.753710024058819" lon="-4.715959969907999">
        <ele>739.04300000000001</ele>
        <time>2021-07-22T12:12:36Z</time>
      </trkpt>
      <trkpt lat="41.753320014104247" lon="-4.716530023142695">
        <ele>740.01700000000005</ele>
        <time>2021-07-22T12:12:46Z</time>
      </trkpt>
      <trkpt lat="41.753139970824122" lon="-4.716979963704944">
        <ele>740.00800000000004</ele>
        <time>2021-07-22T12:12:53Z</time>
      </trkpt>
      <trkpt lat="41.752749960869551" lon="-4.718270022422075">
        <ele>741.01499999999999</ele>
        <time>2021-07-22T12:13:12Z</time>
      </trkpt>
      <trkpt lat="41.752130035310984" lon="-4.720489969477058">
        <ele>742.04600000000005</ele>
        <time>2021-07-22T12:13:43Z</time>
      </trkpt>
      <trkpt lat="41.749350009486079" lon="-4.730030000209808">
        <ele>755.03599999999994</ele>
        <time>2021-07-22T12:15:59Z</time>
      </trkpt>
      <trkpt lat="41.748880036175251" lon="-4.73170998506248">
        <ele>758.08100000000002</ele>
        <time>2021-07-22T12:16:23Z</time>
      </trkpt>
      <trkpt lat="41.743540009483695" lon="-4.749999968335033">
        <ele>747.03499999999997</ele>
        <time>2021-07-22T12:20:44Z</time>
      </trkpt>
      <trkpt lat="41.743029970675707" lon="-4.751850022003055">
        <ele>749.02700000000004</ele>
        <time>2021-07-22T12:21:10Z</time>
      </trkpt>
      <trkpt lat="41.742869960144162" lon="-4.752740012481809">
        <ele>751.01900000000001</ele>
        <time>2021-07-22T12:21:22Z</time>
      </trkpt>
      <trkpt lat="41.742039984092116" lon="-4.762350032106042">
        <ele>756.07799999999997</ele>
        <time>2021-07-22T12:23:30Z</time>
      </trkpt>
      <trkpt lat="41.741990027949214" lon="-4.762450028210878">
        <ele>756.02499999999998</ele>
        <time>2021-07-22T12:23:32Z</time>
      </trkpt>
      <trkpt lat="41.741909980773926" lon="-4.762509958818555">
        <ele>756.02599999999995</ele>
        <time>2021-07-22T12:23:34Z</time>
      </trkpt>
      <trkpt lat="41.741760028526187" lon="-4.762499984353781">
        <ele>756.00800000000004</ele>
        <time>2021-07-22T12:23:36Z</time>
      </trkpt>
      <trkpt lat="41.741649974137545" lon="-4.763609999790788">
        <ele>757.00800000000004</ele>
        <time>2021-07-22T12:23:51Z</time>
      </trkpt>
      <trkpt lat="41.741549978032708" lon="-4.764339979737997">
        <ele>757.029</ele>
        <time>2021-07-22T12:24:01Z</time>
      </trkpt>
      <trkpt lat="41.741479989141226" lon="-4.765299959108234">
        <ele>757.04999999999995</ele>
        <time>2021-07-22T12:24:14Z</time>
      </trkpt>
      <trkpt lat="41.741519970819354" lon="-4.765500035136938">
        <ele>756.01999999999998</ele>
        <time>2021-07-22T12:24:16Z</time>
      </trkpt>
      <trkpt lat="41.741600017994642" lon="-4.765730034559965">
        <ele>756.07500000000005</ele>
        <time>2021-07-22T12:24:20Z</time>
      </trkpt>
      <trkpt lat="41.741709988564253" lon="-4.765919968485832">
        <ele>756.06899999999996</ele>
        <time>2021-07-22T12:24:23Z</time>
      </trkpt>
      <trkpt lat="41.746650030836463" lon="-4.773269975557923">
        <ele>767.07100000000003</ele>
        <time>2021-07-22T12:26:34Z</time>
      </trkpt>
      <trkpt lat="41.748079983517528" lon="-4.775380035862327">
        <ele>770.08299999999997</ele>
        <time>2021-07-22T12:27:12Z</time>
      </trkpt>
      <trkpt lat="41.748179979622364" lon="-4.775490006431937">
        <ele>771.02200000000005</ele>
        <time>2021-07-22T12:27:15Z</time>
      </trkpt>
      <trkpt lat="41.748379971832037" lon="-4.775610035285354">
        <ele>771.03399999999999</ele>
        <time>2021-07-22T12:27:18Z</time>
      </trkpt>
      <trkpt lat="41.748539982363582" lon="-4.775629984214902">
        <ele>772.05499999999995</ele>
        <time>2021-07-22T12:27:21Z</time>
      </trkpt>
      <trkpt lat="41.750409984961152" lon="-4.77553996257484">
        <ele>782.00999999999999</ele>
        <time>2021-07-22T12:27:55Z</time>
      </trkpt>
      <trkpt lat="41.750630009919405" lon="-4.77555999532342">
        <ele>783.00800000000004</ele>
        <time>2021-07-22T12:27:58Z</time>
      </trkpt>
      <trkpt lat="41.750709973275661" lon="-4.775599977001548">
        <ele>783.02999999999997</ele>
        <time>2021-07-22T12:28:00Z</time>
      </trkpt>
      <trkpt lat="41.754219979047775" lon="-4.779499992728233">
        <ele>809.07100000000003</ele>
        <time>2021-07-22T12:29:21Z</time>
      </trkpt>
      <trkpt lat="41.754409996792674" lon="-4.779669977724552">
        <ele>810.04100000000005</ele>
        <time>2021-07-22T12:29:25Z</time>
      </trkpt>
      <trkpt lat="41.754679977893829" lon="-4.779780032113195">
        <ele>812.05600000000004</ele>
        <time>2021-07-22T12:29:30Z</time>
      </trkpt>
      <trkpt lat="41.756890034303069" lon="-4.779959991574287">
        <ele>826.04999999999995</ele>
        <time>2021-07-22T12:30:10Z</time>
      </trkpt>
      <trkpt lat="41.757060019299388" lon="-4.780110027641058">
        <ele>827.01199999999994</ele>
        <time>2021-07-22T12:30:13Z</time>
      </trkpt>
      <trkpt lat="41.757120033726096" lon="-4.780229972675443">
        <ele>827.08399999999995</ele>
        <time>2021-07-22T12:30:15Z</time>
      </trkpt>
      <trkpt lat="41.757250037044287" lon="-4.780740011483431">
        <ele>829.03300000000002</ele>
        <time>2021-07-22T12:30:22Z</time>
      </trkpt>
      <trkpt lat="41.757290018722415" lon="-4.781200010329485">
        <ele>831.04700000000003</ele>
        <time>2021-07-22T12:30:28Z</time>
      </trkpt>
      <trkpt lat="41.757230004295707" lon="-4.781509973108769">
        <ele>832.029</ele>
        <time>2021-07-22T12:30:33Z</time>
      </trkpt>
      <trkpt lat="41.756419977173209" lon="-4.784199977293611">
        <ele>844.02099999999996</ele>
        <time>2021-07-22T12:31:11Z</time>
      </trkpt>
      <trkpt lat="41.756410002708435" lon="-4.784489991143346">
        <ele>845.00800000000004</ele>
        <time>2021-07-22T12:31:15Z</time>
      </trkpt>
      <trkpt lat="41.756449984386563" lon="-4.784659976139665">
        <ele>846.06100000000004</ele>
        <time>2021-07-22T12:31:17Z</time>
      </trkpt>
      <trkpt lat="41.75657001323998" lon="-4.784880001097918">
        <ele>847.02200000000005</ele>
        <time>2021-07-22T12:31:21Z</time>
      </trkpt>
      <trkpt lat="41.775519987568259" lon="-4.807769972831011">
        <ele>850.01199999999994</ele>
        <time>2021-07-22T12:38:55Z</time>
      </trkpt>
      <trkpt lat="41.78372997790575" lon="-4.817739995196462">
        <ele>851.03700000000003</ele>
        <time>2021-07-22T12:42:12Z</time>
      </trkpt>
      <trkpt lat="41.790029983967543" lon="-4.825459979474545">
        <ele>853.02099999999996</ele>
        <time>2021-07-22T12:44:44Z</time>
      </trkpt>
      <trkpt lat="41.790450001135468" lon="-4.825930036604404">
        <ele>853.07299999999998</ele>
        <time>2021-07-22T12:44:54Z</time>
      </trkpt>
      <trkpt lat="41.790629960596561" lon="-4.826070014387369">
        <ele>853.06500000000005</ele>
        <time>2021-07-22T12:44:57Z</time>
      </trkpt>
      <trkpt lat="41.790810003876686" lon="-4.826160036027432">
        <ele>853.01400000000001</ele>
        <time>2021-07-22T12:45:01Z</time>
      </trkpt>
      <trkpt lat="41.793960006907582" lon="-4.827380022034049">
        <ele>849.05899999999997</ele>
        <time>2021-07-22T12:45:59Z</time>
      </trkpt>
      <trkpt lat="41.797119984403253" lon="-4.828639989718795">
        <ele>853.00300000000004</ele>
        <time>2021-07-22T12:46:58Z</time>
      </trkpt>
      <trkpt lat="41.798160010948777" lon="-4.829109963029623">
        <ele>853.02300000000002</ele>
        <time>2021-07-22T12:47:17Z</time>
      </trkpt>
      <trkpt lat="41.798959979787469" lon="-4.829529980197549">
        <ele>854.00800000000004</ele>
        <time>2021-07-22T12:47:32Z</time>
      </trkpt>
      <trkpt lat="41.802039993926883" lon="-4.831490004435182">
        <ele>854.05200000000002</ele>
        <time>2021-07-22T12:48:33Z</time>
      </trkpt>
      <trkpt lat="41.802320033311844" lon="-4.831689996644855">
        <ele>854.02300000000002</ele>
        <time>2021-07-22T12:48:39Z</time>
      </trkpt>
      <trkpt lat="41.803040038794279" lon="-4.83238996937871">
        <ele>855.07299999999998</ele>
        <time>2021-07-22T12:48:55Z</time>
      </trkpt>
      <trkpt lat="41.803449997678399" lon="-4.832730023190379">
        <ele>854.03800000000001</ele>
        <time>2021-07-22T12:49:03Z</time>
      </trkpt>
      <trkpt lat="41.803700029850006" lon="-4.83286002650857">
        <ele>854.072</ele>
        <time>2021-07-22T12:49:08Z</time>
      </trkpt>
      <trkpt lat="41.810979964211583" lon="-4.835260016843677">
        <ele>854.07399999999996</ele>
        <time>2021-07-22T12:51:21Z</time>
      </trkpt>
      <trkpt lat="41.83378997258842" lon="-4.842599965631962">
        <ele>853.01599999999996</ele>
        <time>2021-07-22T12:58:19Z</time>
      </trkpt>
      <trkpt lat="41.84713002294302" lon="-4.846859984099865">
        <ele>855.07500000000005</ele>
        <time>2021-07-22T13:02:23Z</time>
      </trkpt>
      <trkpt lat="41.848600041121244" lon="-4.847340015694499">
        <ele>853.07299999999998</ele>
        <time>2021-07-22T13:02:50Z</time>
      </trkpt>
      <trkpt lat="41.848949985578656" lon="-4.84747001901269">
        <ele>853.08500000000004</ele>
        <time>2021-07-22T13:02:56Z</time>
      </trkpt>
      <trkpt lat="41.849249973893166" lon="-4.847619971260428">
        <ele>852.01300000000003</ele>
        <time>2021-07-22T13:03:02Z</time>
      </trkpt>
      <trkpt lat="41.849639983847737" lon="-4.847909985110164">
        <ele>852.00800000000004</ele>
        <time>2021-07-22T13:03:10Z</time>
      </trkpt>
      <trkpt lat="41.849999986588955" lon="-4.84830996952951">
        <ele>852.024</ele>
        <time>2021-07-22T13:03:18Z</time>
      </trkpt>
      <trkpt lat="41.851500011980534" lon="-4.850120041519404">
        <ele>854.04499999999996</ele>
        <time>2021-07-22T13:03:54Z</time>
      </trkpt>
      <trkpt lat="41.853579981252551" lon="-4.852339988574386">
        <ele>852.08500000000004</ele>
        <time>2021-07-22T13:04:41Z</time>
      </trkpt>
      <trkpt lat="41.855470016598701" lon="-4.854189958423376">
        <ele>854.03999999999996</ele>
        <time>2021-07-22T13:05:23Z</time>
      </trkpt>
      <trkpt lat="41.855860026553273" lon="-4.854500005021691">
        <ele>854.01400000000001</ele>
        <time>2021-07-22T13:05:31Z</time>
      </trkpt>
      <trkpt lat="41.858569979667664" lon="-4.85643002204597">
        <ele>855.07600000000002</ele>
        <time>2021-07-22T13:06:25Z</time>
      </trkpt>
      <trkpt lat="41.858929982408881" lon="-4.856749959290028">
        <ele>855.05799999999999</ele>
        <time>2021-07-22T13:06:33Z</time>
      </trkpt>
      <trkpt lat="41.860049972310662" lon="-4.858330031856895">
        <ele>853.05700000000002</ele>
        <time>2021-07-22T13:07:02Z</time>
      </trkpt>
      <trkpt lat="41.860300004482269" lon="-4.858739990741015">
        <ele>852.05100000000004</ele>
        <time>2021-07-22T13:07:09Z</time>
      </trkpt>
      <trkpt lat="41.861410019919276" lon="-4.861130006611347">
        <ele>849.00099999999998</ele>
        <time>2021-07-22T13:07:46Z</time>
      </trkpt>
      <trkpt lat="41.862109992653131" lon="-4.862470021471381">
        <ele>849.01099999999997</ele>
        <time>2021-07-22T13:08:08Z</time>
      </trkpt>
      <trkpt lat="41.862850030884147" lon="-4.863739963620901">
        <ele>850.00800000000004</ele>
        <time>2021-07-22T13:08:29Z</time>
      </trkpt>
      <trkpt lat="41.86348001472652" lon="-4.86494000069797">
        <ele>848.06200000000001</ele>
        <time>2021-07-22T13:08:49Z</time>
      </trkpt>
      <trkpt lat="41.863770028576255" lon="-4.86536999233067">
        <ele>850.08299999999997</ele>
        <time>2021-07-22T13:08:57Z</time>
      </trkpt>
      <trkpt lat="41.879590032622218" lon="-4.88739000633359">
        <ele>844.07299999999998</ele>
        <time>2021-07-22T13:15:42Z</time>
      </trkpt>
      <trkpt lat="41.88079996034503" lon="-4.889049958437681">
        <ele>845.048</ele>
        <time>2021-07-22T13:16:13Z</time>
      </trkpt>
      <trkpt lat="41.880919989198446" lon="-4.889199994504452">
        <ele>845.04200000000003</ele>
        <time>2021-07-22T13:16:16Z</time>
      </trkpt>
      <trkpt lat="41.881089974194765" lon="-4.889339972287417">
        <ele>844.024</ele>
        <time>2021-07-22T13:16:19Z</time>
      </trkpt>
      <trkpt lat="41.881409995257854" lon="-4.889490008354187">
        <ele>843.05600000000004</ele>
        <time>2021-07-22T13:16:25Z</time>
      </trkpt>
      <trkpt lat="41.882819999009371" lon="-4.889740040525794">
        <ele>843.02499999999998</ele>
        <time>2021-07-22T13:16:51Z</time>
      </trkpt>
      <trkpt lat="41.884299991652369" lon="-4.890040028840303">
        <ele>844.053</ele>
        <time>2021-07-22T13:17:17Z</time>
      </trkpt>
      <trkpt lat="41.884580031037331" lon="-4.890070036053658">
        <ele>844.00400000000002</ele>
        <time>2021-07-22T13:17:22Z</time>
      </trkpt>
      <trkpt lat="41.887670019641519" lon="-4.890630031004548">
        <ele>845.01400000000001</ele>
        <time>2021-07-22T13:18:18Z</time>
      </trkpt>
      <trkpt lat="41.888079978525639" lon="-4.890730027109385">
        <ele>846.00800000000004</ele>
        <time>2021-07-22T13:18:25Z</time>
      </trkpt>
      <trkpt lat="41.888330010697246" lon="-4.890819964930415">
        <ele>846.01199999999994</ele>
        <time>2021-07-22T13:18:30Z</time>
      </trkpt>
      <trkpt lat="41.888669980689883" lon="-4.89100000821054">
        <ele>846.02300000000002</ele>
        <time>2021-07-22T13:18:36Z</time>
      </trkpt>
      <trkpt lat="41.889040041714907" lon="-4.891260014846921">
        <ele>846.07299999999998</ele>
        <time>2021-07-22T13:18:44Z</time>
      </trkpt>
      <trkpt lat="41.891680005937815" lon="-4.893460012972355">
        <ele>829.08799999999997</ele>
        <time>2021-07-22T13:19:39Z</time>
      </trkpt>
      <trkpt lat="41.891889972612262" lon="-4.89359999075532">
        <ele>827.06200000000001</ele>
        <time>2021-07-22T13:19:43Z</time>
      </trkpt>
      <trkpt lat="41.892349971458316" lon="-4.893820015713573">
        <ele>825.01400000000001</ele>
        <time>2021-07-22T13:19:52Z</time>
      </trkpt>
      <trkpt lat="41.896530026569963" lon="-4.895420037209988">
        <ele>814.05600000000004</ele>
        <time>2021-07-22T13:21:09Z</time>
      </trkpt>
      <trkpt lat="41.902570025995374" lon="-4.897290039807558">
        <ele>806.01499999999999</ele>
        <time>2021-07-22T13:22:59Z</time>
      </trkpt>
      <trkpt lat="41.902879988774657" lon="-4.897409984841943">
        <ele>803.04899999999998</ele>
        <time>2021-07-22T13:23:05Z</time>
      </trkpt>
      <trkpt lat="41.922100028023124" lon="-4.906379962339997">
        <ele>754.00199999999995</ele>
        <time>2021-07-22T13:29:07Z</time>
      </trkpt>
      <trkpt lat="41.922240005806088" lon="-4.906439976766706">
        <ele>753.02200000000005</ele>
        <time>2021-07-22T13:29:10Z</time>
      </trkpt>
      <trkpt lat="41.922300020232797" lon="-4.906350038945675">
        <ele>753.00800000000004</ele>
        <time>2021-07-22T13:29:11Z</time>
      </trkpt>
      <trkpt lat="41.922400016337633" lon="-4.906360013410449">
        <ele>753.04100000000005</ele>
        <time>2021-07-22T13:29:13Z</time>
      </trkpt>
      <trkpt lat="41.908239964395761" lon="-4.940230026841164">
        <ele>755.09199999999998</ele>
        <time>2021-07-22T13:37:47Z</time>
      </trkpt>
      <trkpt lat="41.907860012724996" lon="-4.941180031746626">
        <ele>756.02200000000005</ele>
        <time>2021-07-22T13:38:02Z</time>
      </trkpt>
      <trkpt lat="41.906190002337098" lon="-4.944359958171845">
        <ele>763.03700000000003</ele>
        <time>2021-07-22T13:38:53Z</time>
      </trkpt>
      <trkpt lat="41.905590025708079" lon="-4.945669965818524">
        <ele>763.03099999999995</ele>
        <time>2021-07-22T13:39:14Z</time>
      </trkpt>
      <trkpt lat="41.903369994834065" lon="-4.950759960338473">
        <ele>752.02300000000002</ele>
        <time>2021-07-22T13:40:32Z</time>
      </trkpt>
      <trkpt lat="41.903179977089167" lon="-4.951109988614917">
        <ele>752.03499999999997</ele>
        <time>2021-07-22T13:40:38Z</time>
      </trkpt>
      <trkpt lat="41.870419979095459" lon="-4.999020025134087">
        <ele>753.08399999999995</ele>
        <time>2021-07-22T13:54:59Z</time>
      </trkpt>
      <trkpt lat="41.870259968563914" lon="-4.999280031770468">
        <ele>753.08900000000006</ele>
        <time>2021-07-22T13:55:04Z</time>
      </trkpt>
      <trkpt lat="41.869950005784631" lon="-4.999929964542389">
        <ele>753.00599999999997</ele>
        <time>2021-07-22T13:55:14Z</time>
      </trkpt>
      <trkpt lat="41.866890024393797" lon="-5.007369993254542">
        <ele>753.02599999999995</ele>
        <time>2021-07-22T13:57:07Z</time>
      </trkpt>
      <trkpt lat="41.86679002828896" lon="-5.00770996324718">
        <ele>752.00800000000004</ele>
        <time>2021-07-22T13:57:11Z</time>
      </trkpt>
      <trkpt lat="41.865550009533763" lon="-5.013590035960078">
        <ele>749.06500000000005</ele>
        <time>2021-07-22T13:58:32Z</time>
      </trkpt>
      <trkpt lat="41.865469962358475" lon="-5.014169979840517">
        <ele>747.04600000000005</ele>
        <time>2021-07-22T13:58:40Z</time>
      </trkpt>
      <trkpt lat="41.865740027278662" lon="-5.017459960654378">
        <ele>747.02599999999995</ele>
        <time>2021-07-22T13:59:24Z</time>
      </trkpt>
      <trkpt lat="41.865810016170144" lon="-5.0180200394243">
        <ele>746.07100000000003</ele>
        <time>2021-07-22T13:59:32Z</time>
      </trkpt>
      <trkpt lat="41.865889979526401" lon="-5.018450031057">
        <ele>745.04499999999996</ele>
        <time>2021-07-22T13:59:37Z</time>
      </trkpt>
      <trkpt lat="41.866089971736073" lon="-5.019020000472665">
        <ele>746.08699999999999</ele>
        <time>2021-07-22T13:59:46Z</time>
      </trkpt>
      <trkpt lat="41.866430025547743" lon="-5.01976003870368">
        <ele>747.029</ele>
        <time>2021-07-22T13:59:57Z</time>
      </trkpt>
      <trkpt lat="41.866649966686964" lon="-5.020390022546053">
        <ele>748.09799999999996</ele>
        <time>2021-07-22T14:00:06Z</time>
      </trkpt>
      <trkpt lat="41.86794999986887" lon="-5.028100032359362">
        <ele>739.024</ele>
        <time>2021-07-22T14:01:51Z</time>
      </trkpt>
      <trkpt lat="41.867989981546998" lon="-5.028539998456836">
        <ele>739.00400000000002</ele>
        <time>2021-07-22T14:01:57Z</time>
      </trkpt>
      <trkpt lat="41.869230000302196" lon="-5.031290017068386">
        <ele>735.01400000000001</ele>
        <time>2021-07-22T14:02:40Z</time>
      </trkpt>
      <trkpt lat="41.86971003189683" lon="-5.032210014760494">
        <ele>735.00800000000004</ele>
        <time>2021-07-22T14:02:55Z</time>
      </trkpt>
      <trkpt lat="41.870779981836677" lon="-5.033910032361746">
        <ele>734.04899999999998</ele>
        <time>2021-07-22T14:03:24Z</time>
      </trkpt>
      <trkpt lat="41.870960025116801" lon="-5.034159980714321">
        <ele>734.05999999999995</ele>
        <time>2021-07-22T14:03:29Z</time>
      </trkpt>
      <trkpt lat="41.871350035071373" lon="-5.034600030630827">
        <ele>735.01999999999998</ele>
        <time>2021-07-22T14:03:38Z</time>
      </trkpt>
      <trkpt lat="41.873890003189445" lon="-5.036510014906526">
        <ele>733.05499999999995</ele>
        <time>2021-07-22T14:04:30Z</time>
      </trkpt>
      <trkpt lat="41.875009993091226" lon="-5.037230020388961">
        <ele>734.08900000000006</ele>
        <time>2021-07-22T14:04:52Z</time>
      </trkpt>
      <trkpt lat="41.875260025262833" lon="-5.037449961528182">
        <ele>734.01099999999997</ele>
        <time>2021-07-22T14:04:57Z</time>
      </trkpt>
      <trkpt lat="41.8754499591887" lon="-5.037660012021661">
        <ele>734.04300000000001</ele>
        <time>2021-07-22T14:05:01Z</time>
      </trkpt>
      <trkpt lat="41.875959997996688" lon="-5.038459980860353">
        <ele>733.08199999999999</ele>
        <time>2021-07-22T14:05:15Z</time>
      </trkpt>
      <trkpt lat="41.876529967412353" lon="-5.039109997451305">
        <ele>734.01499999999999</ele>
        <time>2021-07-22T14:05:29Z</time>
      </trkpt>
      <trkpt lat="41.87720999121666" lon="-5.03967996686697">
        <ele>733.06500000000005</ele>
        <time>2021-07-22T14:05:43Z</time>
      </trkpt>
      <trkpt lat="41.878559980541468" lon="-5.040710018947721">
        <ele>731.01099999999997</ele>
        <time>2021-07-22T14:06:10Z</time>
      </trkpt>
      <trkpt lat="41.87862996943295" lon="-5.040789982303977">
        <ele>731.00800000000004</ele>
        <time>2021-07-22T14:06:12Z</time>
      </trkpt>
      <trkpt lat="41.878729965537786" lon="-5.041110003367066">
        <ele>732.03800000000001</ele>
        <time>2021-07-22T14:06:17Z</time>
      </trkpt>
      <trkpt lat="41.878749998286366" lon="-5.041400017216802">
        <ele>733.06899999999996</ele>
        <time>2021-07-22T14:06:21Z</time>
      </trkpt>
      <trkpt lat="41.878540031611919" lon="-5.044320020824671">
        <ele>734.06899999999996</ele>
        <time>2021-07-22T14:06:59Z</time>
      </trkpt>
      <trkpt lat="41.878540031611919" lon="-5.044559994712472">
        <ele>734.09400000000005</ele>
        <time>2021-07-22T14:07:03Z</time>
      </trkpt>
      <trkpt lat="41.878589987754822" lon="-5.044789994135499">
        <ele>735.02800000000002</ele>
        <time>2021-07-22T14:07:06Z</time>
      </trkpt>
      <trkpt lat="41.878699958324432" lon="-5.045010019093752">
        <ele>735.09000000000003</ele>
        <time>2021-07-22T14:07:09Z</time>
      </trkpt>
      <trkpt lat="41.878840019926429" lon="-5.045180004090071">
        <ele>736.09199999999998</ele>
        <time>2021-07-22T14:07:13Z</time>
      </trkpt>
      <trkpt lat="41.879000030457973" lon="-5.045270025730133">
        <ele>737.05100000000004</ele>
        <time>2021-07-22T14:07:16Z</time>
      </trkpt>
      <trkpt lat="41.879219971597195" lon="-5.045280000194907">
        <ele>737.03899999999999</ele>
        <time>2021-07-22T14:07:20Z</time>
      </trkpt>
      <trkpt lat="41.882480029016733" lon="-5.045189978554845">
        <ele>749.00099999999998</ele>
        <time>2021-07-22T14:08:18Z</time>
      </trkpt>
      <trkpt lat="41.882599974051118" lon="-5.045180004090071">
        <ele>749.02099999999996</ele>
        <time>2021-07-22T14:08:20Z</time>
      </trkpt>
      <trkpt lat="41.882789991796017" lon="-5.045119989663363">
        <ele>749.00800000000004</ele>
        <time>2021-07-22T14:08:23Z</time>
      </trkpt>
      <trkpt lat="41.883019991219044" lon="-5.044999960809946">
        <ele>749.07000000000005</ele>
        <time>2021-07-22T14:08:28Z</time>
      </trkpt>
      <trkpt lat="41.883159969002008" lon="-5.044959979131818">
        <ele>749.02099999999996</ele>
        <time>2021-07-22T14:08:30Z</time>
      </trkpt>
      <trkpt lat="41.883330037817359" lon="-5.044989986345172">
        <ele>749.03099999999995</ele>
        <time>2021-07-22T14:08:33Z</time>
      </trkpt>
      <trkpt lat="41.883410001173615" lon="-5.04507003352046">
        <ele>748.07600000000002</ele>
        <time>2021-07-22T14:08:35Z</time>
      </trkpt>
      <trkpt lat="41.885389974340796" lon="-5.047879982739687">
        <ele>744.00999999999999</ele>
        <time>2021-07-22T14:09:26Z</time>
      </trkpt>
      <trkpt lat="41.885649980977178" lon="-5.048179971054196">
        <ele>745.01199999999994</ele>
        <time>2021-07-22T14:09:32Z</time>
      </trkpt>
      <trkpt lat="41.901989998295903" lon="-5.062889959663153">
        <ele>781.05399999999997</ele>
        <time>2021-07-22T14:15:22Z</time>
      </trkpt>
      <trkpt lat="41.90264998935163" lon="-5.063420031219721">
        <ele>781.04300000000001</ele>
        <time>2021-07-22T14:15:36Z</time>
      </trkpt>
      <trkpt lat="41.90973998978734" lon="-5.068589989095926">
        <ele>769.04499999999996</ele>
        <time>2021-07-22T14:18:00Z</time>
      </trkpt>
      <trkpt lat="41.912139980122447" lon="-5.07038002833724">
        <ele>763.04700000000003</ele>
        <time>2021-07-22T14:18:48Z</time>
      </trkpt>
      <trkpt lat="41.922990018501878" lon="-5.078320037573576">
        <ele>776.01099999999997</ele>
        <time>2021-07-22T14:22:28Z</time>
      </trkpt>
      <trkpt lat="41.923710023984313" lon="-5.07878003641963">
        <ele>775.00800000000004</ele>
        <time>2021-07-22T14:22:42Z</time>
      </trkpt>
      <trkpt lat="41.938150031492114" lon="-5.087079964578152">
        <ele>774.08100000000002</ele>
        <time>2021-07-22T14:27:22Z</time>
      </trkpt>
      <trkpt lat="41.93898000754416" lon="-5.087520014494658">
        <ele>777.04200000000003</ele>
        <time>2021-07-22T14:27:38Z</time>
      </trkpt>
      <trkpt lat="41.939479988068342" lon="-5.087850010022521">
        <ele>777.06200000000001</ele>
        <time>2021-07-22T14:27:48Z</time>
      </trkpt>
      <trkpt lat="41.939930012449622" lon="-5.088200038298965">
        <ele>776.08699999999999</ele>
        <time>2021-07-22T14:27:57Z</time>
      </trkpt>
      <trkpt lat="41.951529979705811" lon="-5.099400021135807">
        <ele>773.03099999999995</ele>
        <time>2021-07-22T14:32:11Z</time>
      </trkpt>
      <trkpt lat="41.964819990098476" lon="-5.112349977716804">
        <ele>787.04300000000001</ele>
        <time>2021-07-22T14:37:03Z</time>
      </trkpt>
      <trkpt lat="41.965630017220974" lon="-5.113060008734465">
        <ele>788.06500000000005</ele>
        <time>2021-07-22T14:37:20Z</time>
      </trkpt>
      <trkpt lat="41.966039976105094" lon="-5.11332998983562">
        <ele>787.06399999999996</ele>
        <time>2021-07-22T14:37:28Z</time>
      </trkpt>
      <trkpt lat="41.966499974951148" lon="-5.113559989258647">
        <ele>786.07899999999995</ele>
        <time>2021-07-22T14:37:37Z</time>
      </trkpt>
      <trkpt lat="41.966970032081008" lon="-5.11375998146832">
        <ele>785.005</ele>
        <time>2021-07-22T14:37:46Z</time>
      </trkpt>
      <trkpt lat="41.977550005540252" lon="-5.117899971082807">
        <ele>782.02499999999998</ele>
        <time>2021-07-22T14:41:02Z</time>
      </trkpt>
      <trkpt lat="41.986930025741458" lon="-5.121620027348399">
        <ele>776.00800000000004</ele>
        <time>2021-07-22T14:43:56Z</time>
      </trkpt>
      <trkpt lat="41.986900018528104" lon="-5.121009992435575">
        <ele>776.06399999999996</ele>
        <time>2021-07-22T14:44:04Z</time>
      </trkpt>
      <trkpt lat="41.986930025741458" lon="-5.121620027348399">
        <ele>776.06500000000005</ele>
        <time>2021-07-22T14:44:12Z</time>
      </trkpt>
      <trkpt lat="41.992829963564873" lon="-5.123980036005378">
        <ele>789.03499999999997</ele>
        <time>2021-07-22T14:46:02Z</time>
      </trkpt>
      <trkpt lat="41.999270031228662" lon="-5.126610025763512">
        <ele>786.07000000000005</ele>
        <time>2021-07-22T14:48:01Z</time>
      </trkpt>
      <trkpt lat="42.010749969631433" lon="-5.131589965894818">
        <ele>775.01400000000001</ele>
        <time>2021-07-22T14:51:36Z</time>
      </trkpt>
      <trkpt lat="42.011520015075803" lon="-5.131970001384616">
        <ele>776.07600000000002</ele>
        <time>2021-07-22T14:51:51Z</time>
      </trkpt>
      <trkpt lat="42.01940000988543" lon="-5.136369997635484">
        <ele>764.048</ele>
        <time>2021-07-22T14:54:22Z</time>
      </trkpt>
      <trkpt lat="42.021000031381845" lon="-5.137310028076172">
        <ele>766.09699999999998</ele>
        <time>2021-07-22T14:54:53Z</time>
      </trkpt>
      <trkpt lat="42.02159003354609" lon="-5.137830041348934">
        <ele>767.03899999999999</ele>
        <time>2021-07-22T14:55:06Z</time>
      </trkpt>
      <trkpt lat="42.022190010175109" lon="-5.138400010764599">
        <ele>766.00099999999998</ele>
        <time>2021-07-22T14:55:19Z</time>
      </trkpt>
      <trkpt lat="42.029080018401146" lon="-5.146229965612292">
        <ele>771.02099999999996</ele>
        <time>2021-07-22T14:57:59Z</time>
      </trkpt>
      <trkpt lat="42.029589973390102" lon="-5.146789960563183">
        <ele>775.00800000000004</ele>
        <time>2021-07-22T14:58:11Z</time>
      </trkpt>
      <trkpt lat="42.029840005561709" lon="-5.146979978308082">
        <ele>776.00999999999999</ele>
        <time>2021-07-22T14:58:16Z</time>
      </trkpt>
      <trkpt lat="42.030320037156343" lon="-5.147230010479689">
        <ele>774.06100000000004</ele>
        <time>2021-07-22T14:58:25Z</time>
      </trkpt>
      <trkpt lat="42.032409980893135" lon="-5.147959990426898">
        <ele>772.07100000000003</ele>
        <time>2021-07-22T14:59:04Z</time>
      </trkpt>
      <trkpt lat="42.032920019701123" lon="-5.148040037602186">
        <ele>772.07600000000002</ele>
        <time>2021-07-22T14:59:13Z</time>
      </trkpt>
      <trkpt lat="42.033180026337504" lon="-5.147989997640252">
        <ele>773.05999999999995</ele>
        <time>2021-07-22T14:59:18Z</time>
      </trkpt>
      <trkpt lat="42.033800035715103" lon="-5.147759998217225">
        <ele>772.072</ele>
        <time>2021-07-22T14:59:29Z</time>
      </trkpt>
      <trkpt lat="42.034040009602904" lon="-5.147739965468645">
        <ele>771.05399999999997</ele>
        <time>2021-07-22T14:59:33Z</time>
      </trkpt>
      <trkpt lat="42.034260034561157" lon="-5.147790005430579">
        <ele>771.06299999999999</ele>
        <time>2021-07-22T14:59:37Z</time>
      </trkpt>
      <trkpt lat="42.035229988396168" lon="-5.148099968209863">
        <ele>766.05399999999997</ele>
        <time>2021-07-22T14:59:55Z</time>
      </trkpt>
      <trkpt lat="42.035610023885965" lon="-5.14832996763289">
        <ele>764.05600000000004</ele>
        <time>2021-07-22T15:00:03Z</time>
      </trkpt>
      <trkpt lat="42.035900037735701" lon="-5.148649988695979">
        <ele>763.01099999999997</ele>
        <time>2021-07-22T15:00:09Z</time>
      </trkpt>
      <trkpt lat="42.058579958975315" lon="-5.1759800221771">
        <ele>786.00800000000004</ele>
        <time>2021-07-22T15:09:11Z</time>
      </trkpt>
      <trkpt lat="42.059059990569949" lon="-5.176480002701283">
        <ele>785.05200000000002</ele>
        <time>2021-07-22T15:09:22Z</time>
      </trkpt>
      <trkpt lat="42.061440031975508" lon="-5.178649993613362">
        <ele>775.01300000000003</ele>
        <time>2021-07-22T15:10:13Z</time>
      </trkpt>
      <trkpt lat="42.064979961141944" lon="-5.181999988853931">
        <ele>775.053</ele>
        <time>2021-07-22T15:11:30Z</time>
      </trkpt>
      <trkpt lat="42.067320020869374" lon="-5.184160005301237">
        <ele>771.08799999999997</ele>
        <time>2021-07-22T15:12:20Z</time>
      </trkpt>
      <trkpt lat="42.087199967354536" lon="-5.202709995210171">
        <ele>730.09199999999998</ele>
        <time>2021-07-22T15:19:30Z</time>
      </trkpt>
      <trkpt lat="42.087989961728454" lon="-5.203360011801124">
        <ele>729.07399999999996</ele>
        <time>2021-07-22T15:19:47Z</time>
      </trkpt>
      <trkpt lat="42.090179985389113" lon="-5.205349959433079">
        <ele>731.01599999999996</ele>
        <time>2021-07-22T15:20:34Z</time>
      </trkpt>
      <trkpt lat="42.096340013667941" lon="-5.211609983816743">
        <ele>720.07500000000005</ele>
        <time>2021-07-22T15:22:51Z</time>
      </trkpt>
      <trkpt lat="42.097260011360049" lon="-5.212529981508851">
        <ele>722.03099999999995</ele>
        <time>2021-07-22T15:23:11Z</time>
      </trkpt>
      <trkpt lat="42.098749978467822" lon="-5.213930010795593">
        <ele>726.06100000000004</ele>
        <time>2021-07-22T15:23:44Z</time>
      </trkpt>
      <trkpt lat="42.099980022758245" lon="-5.215189978480339">
        <ele>727.00699999999995</ele>
        <time>2021-07-22T15:24:11Z</time>
      </trkpt>
      <trkpt lat="42.100749984383583" lon="-5.216020038351417">
        <ele>730.00800000000004</ele>
        <time>2021-07-22T15:24:29Z</time>
      </trkpt>
      <trkpt lat="42.101539978757501" lon="-5.217199958860874">
        <ele>730.05999999999995</ele>
        <time>2021-07-22T15:24:50Z</time>
      </trkpt>
      <trkpt lat="42.109849965199828" lon="-5.228349985554814">
        <ele>763.09100000000001</ele>
        <time>2021-07-22T15:28:18Z</time>
      </trkpt>
      <trkpt lat="42.113779988139868" lon="-5.232579996809363">
        <ele>760.03099999999995</ele>
        <time>2021-07-22T15:29:48Z</time>
      </trkpt>
      <trkpt lat="42.135700006037951" lon="-5.255850004032254">
        <ele>777.07600000000002</ele>
        <time>2021-07-22T15:38:04Z</time>
      </trkpt>
      <trkpt lat="42.136320015415549" lon="-5.256409998983145">
        <ele>779.08000000000004</ele>
        <time>2021-07-22T15:38:18Z</time>
      </trkpt>
      <trkpt lat="42.136750007048249" lon="-5.256709987297654">
        <ele>781.08199999999999</ele>
        <time>2021-07-22T15:38:26Z</time>
      </trkpt>
      <trkpt lat="42.137690037488937" lon="-5.257120030000806">
        <ele>783.024</ele>
        <time>2021-07-22T15:38:44Z</time>
      </trkpt>
      <trkpt lat="42.146070012822747" lon="-5.259980019181967">
        <ele>778.053</ele>
        <time>2021-07-22T15:41:18Z</time>
      </trkpt>
      <trkpt lat="42.146769985556602" lon="-5.260240025818348">
        <ele>780.03599999999994</ele>
        <time>2021-07-22T15:41:31Z</time>
      </trkpt>
      <trkpt lat="42.158889966085553" lon="-5.266489991918206">
        <ele>774.01700000000005</ele>
        <time>2021-07-22T15:45:21Z</time>
      </trkpt>
      <trkpt lat="42.162269968539476" lon="-5.26825999841094">
        <ele>768.01800000000003</ele>
        <time>2021-07-22T15:46:26Z</time>
      </trkpt>
      <trkpt lat="42.162220012396574" lon="-5.268339961767197">
        <ele>768.00800000000004</ele>
        <time>2021-07-22T15:46:27Z</time>
      </trkpt>
      <trkpt lat="42.162139965221286" lon="-5.268369968980551">
        <ele>768.09000000000003</ele>
        <time>2021-07-22T15:46:29Z</time>
      </trkpt>
      <trkpt lat="42.161850035190582" lon="-5.268599968403578">
        <ele>768.08100000000002</ele>
        <time>2021-07-22T15:46:35Z</time>
      </trkpt>
      <trkpt lat="42.161969980224967" lon="-5.268359994515777">
        <ele>769.05100000000004</ele>
        <time>2021-07-22T15:46:39Z</time>
      </trkpt>
      <trkpt lat="42.161999987438321" lon="-5.26812999509275">
        <ele>769.03599999999994</ele>
        <time>2021-07-22T15:46:42Z</time>
      </trkpt>
      <trkpt lat="42.164030000567436" lon="-5.269179996103048">
        <ele>760.08000000000004</ele>
        <time>2021-07-22T15:47:20Z</time>
      </trkpt>
      <trkpt lat="42.165890028700233" lon="-5.270099993795157">
        <ele>761.01199999999994</ele>
        <time>2021-07-22T15:47:56Z</time>
      </trkpt>
      <trkpt lat="42.166320020332932" lon="-5.270280037075281">
        <ele>760.09400000000005</ele>
        <time>2021-07-22T15:48:04Z</time>
      </trkpt>
      <trkpt lat="42.166729979217052" lon="-5.270410040393472">
        <ele>758.07299999999998</ele>
        <time>2021-07-22T15:48:11Z</time>
      </trkpt>
      <trkpt lat="42.167289974167943" lon="-5.270510036498308">
        <ele>757.02599999999995</ele>
        <time>2021-07-22T15:48:21Z</time>
      </trkpt>
      <trkpt lat="42.167640002444386" lon="-5.270510036498308">
        <ele>756.04700000000003</ele>
        <time>2021-07-22T15:48:27Z</time>
      </trkpt>
      <trkpt lat="42.168720010668039" lon="-5.270459996536374">
        <ele>750.01099999999997</ele>
        <time>2021-07-22T15:48:47Z</time>
      </trkpt>
      <trkpt lat="42.169579993933439" lon="-5.270390007644892">
        <ele>750.00800000000004</ele>
        <time>2021-07-22T15:49:02Z</time>
      </trkpt>
      <trkpt lat="42.173450002446771" lon="-5.269969990476966">
        <ele>747.01900000000001</ele>
        <time>2021-07-22T15:50:11Z</time>
      </trkpt>
      <trkpt lat="42.174119967967272" lon="-5.269760023802519">
        <ele>749.08000000000004</ele>
        <time>2021-07-22T15:50:23Z</time>
      </trkpt>
      <trkpt lat="42.174370000138879" lon="-5.269619962200522">
        <ele>748.07000000000005</ele>
        <time>2021-07-22T15:50:28Z</time>
      </trkpt>
      <trkpt lat="42.174839973449707" lon="-5.268949996680021">
        <ele>748.05499999999995</ele>
        <time>2021-07-22T15:50:40Z</time>
      </trkpt>
      <trkpt lat="42.175009958446026" lon="-5.268819993361831">
        <ele>748.01900000000001</ele>
        <time>2021-07-22T15:50:44Z</time>
      </trkpt>
      <trkpt lat="42.175190001726151" lon="-5.268810018897057">
        <ele>748.03099999999995</ele>
        <time>2021-07-22T15:50:47Z</time>
      </trkpt>
      <trkpt lat="42.175359986722469" lon="-5.268910015001893">
        <ele>748.053</ele>
        <time>2021-07-22T15:50:50Z</time>
      </trkpt>
      <trkpt lat="42.175450008362532" lon="-5.269049992784858">
        <ele>747.09199999999998</ele>
        <time>2021-07-22T15:50:53Z</time>
      </trkpt>
      <trkpt lat="42.175519997254014" lon="-5.269259959459305">
        <ele>747.04200000000003</ele>
        <time>2021-07-22T15:50:56Z</time>
      </trkpt>
      <trkpt lat="42.175749996677041" lon="-5.271010017022491">
        <ele>748.02200000000005</ele>
        <time>2021-07-22T15:51:19Z</time>
      </trkpt>
      <trkpt lat="42.175859967246652" lon="-5.271379994228482">
        <ele>748.01400000000001</ele>
        <time>2021-07-22T15:51:24Z</time>
      </trkpt>
      <trkpt lat="42.176010003313422" lon="-5.271770004183054">
        <ele>747.00800000000004</ele>
        <time>2021-07-22T15:51:30Z</time>
      </trkpt>
      <trkpt lat="42.17637000605464" lon="-5.272369980812073">
        <ele>748.05100000000004</ele>
        <time>2021-07-22T15:51:40Z</time>
      </trkpt>
      <trkpt lat="42.183759994804859" lon="-5.283629978075624">
        <ele>765.05200000000002</ele>
        <time>2021-07-22T15:54:59Z</time>
      </trkpt>
      <trkpt lat="42.184380004182458" lon="-5.284619964659214">
        <ele>770.08199999999999</ele>
        <time>2021-07-22T15:55:16Z</time>
      </trkpt>
      <trkpt lat="42.185019962489605" lon="-5.285729980096221">
        <ele>776.09699999999998</ele>
        <time>2021-07-22T15:55:34Z</time>
      </trkpt>
      <trkpt lat="42.192949997261167" lon="-5.300190020352602">
        <ele>784.05100000000004</ele>
        <time>2021-07-22T15:59:31Z</time>
      </trkpt>
      <trkpt lat="42.193240011110902" lon="-5.300810029730201">
        <ele>783.053</ele>
        <time>2021-07-22T15:59:41Z</time>
      </trkpt>
      <trkpt lat="42.193479984998703" lon="-5.3014300391078">
        <ele>783.07500000000005</ele>
        <time>2021-07-22T15:59:50Z</time>
      </trkpt>
      <trkpt lat="42.193619962781668" lon="-5.30199003405869">
        <ele>782.01400000000001</ele>
        <time>2021-07-22T15:59:58Z</time>
      </trkpt>
      <trkpt lat="42.19370998442173" lon="-5.302539970725775">
        <ele>780.06799999999998</ele>
        <time>2021-07-22T16:00:06Z</time>
      </trkpt>
      <trkpt lat="42.193790031597018" lon="-5.303429961204529">
        <ele>780.04200000000003</ele>
        <time>2021-07-22T16:00:17Z</time>
      </trkpt>
      <trkpt lat="42.193690035492182" lon="-5.306130023673177">
        <ele>772.02599999999995</ele>
        <time>2021-07-22T16:00:53Z</time>
      </trkpt>
      <trkpt lat="42.193739991635084" lon="-5.306860003620386">
        <ele>773.00800000000004</ele>
        <time>2021-07-22T16:01:03Z</time>
      </trkpt>
      <trkpt lat="42.193860020488501" lon="-5.307529969140887">
        <ele>774.09299999999996</ele>
        <time>2021-07-22T16:01:12Z</time>
      </trkpt>
      <trkpt lat="42.194020031020045" lon="-5.30817998573184">
        <ele>774.04399999999998</ele>
        <time>2021-07-22T16:01:21Z</time>
      </trkpt>
      <trkpt lat="42.194199990481138" lon="-5.308679966256023">
        <ele>777.024</ele>
        <time>2021-07-22T16:01:28Z</time>
      </trkpt>
      <trkpt lat="42.194699971005321" lon="-5.309629971161485">
        <ele>780.01900000000001</ele>
        <time>2021-07-22T16:01:44Z</time>
      </trkpt>
      <trkpt lat="42.21684998832643" lon="-5.345890000462532">
        <ele>815.03300000000002</ele>
        <time>2021-07-22T16:12:03Z</time>
      </trkpt>
      <trkpt lat="42.22915998660028" lon="-5.365239959210157">
        <ele>824.06500000000005</ele>
        <time>2021-07-22T16:17:39Z</time>
      </trkpt>
      <trkpt lat="42.231180025264621" lon="-5.368470009416342">
        <ele>810.03700000000003</ele>
        <time>2021-07-22T16:18:35Z</time>
      </trkpt>
      <trkpt lat="42.231689980253577" lon="-5.369309959933162">
        <ele>799.05600000000004</ele>
        <time>2021-07-22T16:18:49Z</time>
      </trkpt>
      <trkpt lat="42.232400011271238" lon="-5.370560036972165">
        <ele>800.06799999999998</ele>
        <time>2021-07-22T16:19:10Z</time>
      </trkpt>
      <trkpt lat="42.233389997854829" lon="-5.372370025143027">
        <ele>815.04200000000003</ele>
        <time>2021-07-22T16:19:39Z</time>
      </trkpt>
      <trkpt lat="42.234579976648092" lon="-5.374640012159944">
        <ele>824.02599999999995</ele>
        <time>2021-07-22T16:20:16Z</time>
      </trkpt>
      <trkpt lat="42.235080040991306" lon="-5.375499995425344">
        <ele>825.00800000000004</ele>
        <time>2021-07-22T16:20:31Z</time>
      </trkpt>
      <trkpt lat="42.2354999743402" lon="-5.376159986481071">
        <ele>826.04300000000001</ele>
        <time>2021-07-22T16:20:42Z</time>
      </trkpt>
      <trkpt lat="42.235940024256706" lon="-5.376740014180541">
        <ele>827.07399999999996</ele>
        <time>2021-07-22T16:20:53Z</time>
      </trkpt>
      <trkpt lat="42.236360041424632" lon="-5.377230020239949">
        <ele>827.04399999999998</ele>
        <time>2021-07-22T16:21:03Z</time>
      </trkpt>
      <trkpt lat="42.236770000308752" lon="-5.377660011872649">
        <ele>826.06899999999996</ele>
        <time>2021-07-22T16:21:12Z</time>
      </trkpt>
      <trkpt lat="42.237160010263324" lon="-5.378010040149093">
        <ele>825.06299999999999</ele>
        <time>2021-07-22T16:21:20Z</time>
      </trkpt>
      <trkpt lat="42.237959979102015" lon="-5.378640023991466">
        <ele>821.06500000000005</ele>
        <time>2021-07-22T16:21:37Z</time>
      </trkpt>
      <trkpt lat="42.240099962800741" lon="-5.380190005525947">
        <ele>808.09699999999998</ele>
        <time>2021-07-22T16:22:20Z</time>
      </trkpt>
      <trkpt lat="42.240870008245111" lon="-5.380789982154965">
        <ele>807.08600000000001</ele>
        <time>2021-07-22T16:22:36Z</time>
      </trkpt>
      <trkpt lat="42.241330007091165" lon="-5.381209999322891">
        <ele>806.02800000000002</ele>
        <time>2021-07-22T16:22:46Z</time>
      </trkpt>
      <trkpt lat="42.241780031472445" lon="-5.381690030917525">
        <ele>804.08900000000006</ele>
        <time>2021-07-22T16:22:56Z</time>
      </trkpt>
      <trkpt lat="42.242219997569919" lon="-5.38226000033319">
        <ele>804.01700000000005</ele>
        <time>2021-07-22T16:23:07Z</time>
      </trkpt>
      <trkpt lat="42.242529960349202" lon="-5.382729973644018">
        <ele>804.00800000000004</ele>
        <time>2021-07-22T16:23:15Z</time>
      </trkpt>
      <trkpt lat="42.242909995839" lon="-5.383430030196905">
        <ele>805.09900000000005</ele>
        <time>2021-07-22T16:23:27Z</time>
      </trkpt>
      <trkpt lat="42.243230016902089" lon="-5.384139977395535">
        <ele>806.04999999999995</ele>
        <time>2021-07-22T16:23:37Z</time>
      </trkpt>
      <trkpt lat="42.243509972468019" lon="-5.384940030053258">
        <ele>805.05999999999995</ele>
        <time>2021-07-22T16:23:49Z</time>
      </trkpt>
      <trkpt lat="42.243680041283369" lon="-5.385489966720343">
        <ele>805.06500000000005</ele>
        <time>2021-07-22T16:23:57Z</time>
      </trkpt>
      <trkpt lat="42.243809960782528" lon="-5.386039987206459">
        <ele>806.06899999999996</ele>
        <time>2021-07-22T16:24:05Z</time>
      </trkpt>
      <trkpt lat="42.245049979537725" lon="-5.393470041453838">
        <ele>820.05100000000004</ele>
        <time>2021-07-22T16:25:45Z</time>
      </trkpt>
      <trkpt lat="42.24510001949966" lon="-5.393949989229441">
        <ele>821.01300000000003</ele>
        <time>2021-07-22T16:25:51Z</time>
      </trkpt>
      <trkpt lat="42.245070012286305" lon="-5.395589992403984">
        <ele>826.01199999999994</ele>
        <time>2021-07-22T16:26:13Z</time>
      </trkpt>
      <trkpt lat="42.244879994541407" lon="-5.40179000236094">
        <ele>845.05600000000004</ele>
        <time>2021-07-22T16:27:35Z</time>
      </trkpt>
      <trkpt lat="42.244910001754761" lon="-5.402510007843375">
        <ele>845.05899999999997</ele>
        <time>2021-07-22T16:27:44Z</time>
      </trkpt>
      <trkpt lat="42.245009997859597" lon="-5.403269995003939">
        <ele>848.01400000000001</ele>
        <time>2021-07-22T16:27:54Z</time>
      </trkpt>
      <trkpt lat="42.245200015604496" lon="-5.4039800260216">
        <ele>848.00800000000004</ele>
        <time>2021-07-22T16:28:04Z</time>
      </trkpt>
      <trkpt lat="42.245430015027523" lon="-5.404580002650619">
        <ele>848.01199999999994</ele>
        <time>2021-07-22T16:28:13Z</time>
      </trkpt>
      <trkpt lat="42.246059998869896" lon="-5.405920017510653">
        <ele>851.06299999999999</ele>
        <time>2021-07-22T16:28:34Z</time>
      </trkpt>
      <trkpt lat="42.25146003998816" lon="-5.41695998981595">
        <ele>838.07299999999998</ele>
        <time>2021-07-22T16:31:28Z</time>
      </trkpt>
      <trkpt lat="42.252079965546727" lon="-5.418179975822568">
        <ele>833.02800000000002</ele>
        <time>2021-07-22T16:31:48Z</time>
      </trkpt>
      <trkpt lat="42.252399986609817" lon="-5.418929988518357">
        <ele>827.06200000000001</ele>
        <time>2021-07-22T16:31:59Z</time>
      </trkpt>
      <trkpt lat="42.255259975790977" lon="-5.42651996947825">
        <ele>820.08399999999995</ele>
        <time>2021-07-22T16:33:51Z</time>
      </trkpt>
      <trkpt lat="42.255449993535876" lon="-5.42696999385953">
        <ele>820.03599999999994</ele>
        <time>2021-07-22T16:33:58Z</time>
      </trkpt>
      <trkpt lat="42.255679992958903" lon="-5.427420018240809">
        <ele>820.09500000000003</ele>
        <time>2021-07-22T16:34:05Z</time>
      </trkpt>
      <trkpt lat="42.255939999595284" lon="-5.427820002660155">
        <ele>820.09400000000005</ele>
        <time>2021-07-22T16:34:12Z</time>
      </trkpt>
      <trkpt lat="42.25623001344502" lon="-5.428189979866147">
        <ele>821.05700000000002</ele>
        <time>2021-07-22T16:34:20Z</time>
      </trkpt>
      <trkpt lat="42.257020007818937" lon="-5.428919959813356">
        <ele>819.02200000000005</ele>
        <time>2021-07-22T16:34:37Z</time>
      </trkpt>
      <trkpt lat="42.257570028305054" lon="-5.429250039160252">
        <ele>818.00800000000004</ele>
        <time>2021-07-22T16:34:47Z</time>
      </trkpt>
      <trkpt lat="42.258279975503683" lon="-5.429620016366243">
        <ele>820.08600000000001</ele>
        <time>2021-07-22T16:35:01Z</time>
      </trkpt>
      <trkpt lat="42.258699992671609" lon="-5.429929979145527">
        <ele>819.04700000000003</ele>
        <time>2021-07-22T16:35:09Z</time>
      </trkpt>
      <trkpt lat="42.259169965982437" lon="-5.430349996313453">
        <ele>821.08699999999999</ele>
        <time>2021-07-22T16:35:19Z</time>
      </trkpt>
      <trkpt lat="42.260760013014078" lon="-5.432250006124377">
        <ele>831.03200000000004</ele>
        <time>2021-07-22T16:35:57Z</time>
      </trkpt>
      <trkpt lat="42.263829968869686" lon="-5.436009960249066">
        <ele>844.01599999999996</ele>
        <time>2021-07-22T16:37:11Z</time>
      </trkpt>
      <trkpt lat="42.264170022681355" lon="-5.436519999057055">
        <ele>847.01800000000003</ele>
        <time>2021-07-22T16:37:20Z</time>
      </trkpt>
      <trkpt lat="42.264460036531091" lon="-5.437070019543171">
        <ele>848.05999999999995</ele>
        <time>2021-07-22T16:37:29Z</time>
      </trkpt>
      <trkpt lat="42.264700010418892" lon="-5.437639988958836">
        <ele>849.03899999999999</ele>
        <time>2021-07-22T16:37:37Z</time>
      </trkpt>
      <trkpt lat="42.265160009264946" lon="-5.439360039308667">
        <ele>851.08500000000004</ele>
        <time>2021-07-22T16:38:01Z</time>
      </trkpt>
      <trkpt lat="42.265350027009845" lon="-5.439979964867234">
        <ele>853.08900000000006</ele>
        <time>2021-07-22T16:38:10Z</time>
      </trkpt>
      <trkpt lat="42.265629982575774" lon="-5.440620006993413">
        <ele>854.01700000000005</ele>
        <time>2021-07-22T16:38:20Z</time>
      </trkpt>
      <trkpt lat="42.265929970890284" lon="-5.441149994730949">
        <ele>855.00800000000004</ele>
        <time>2021-07-22T16:38:29Z</time>
      </trkpt>
      <trkpt lat="42.26880001835525" lon="-5.445600030943751">
        <ele>855.08500000000004</ele>
        <time>2021-07-22T16:39:47Z</time>
      </trkpt>
      <trkpt lat="42.26912003941834" lon="-5.446160025894642">
        <ele>855.07600000000002</ele>
        <time>2021-07-22T16:39:56Z</time>
      </trkpt>
      <trkpt lat="42.272500041872263" lon="-5.455160010606051">
        <ele>862.08600000000001</ele>
        <time>2021-07-22T16:42:09Z</time>
      </trkpt>
      <trkpt lat="42.273869980126619" lon="-5.458709998056293">
        <ele>855.08100000000002</ele>
        <time>2021-07-22T16:43:02Z</time>
      </trkpt>
      <trkpt lat="42.274169968441129" lon="-5.459260018542409">
        <ele>850.01499999999999</ele>
        <time>2021-07-22T16:43:11Z</time>
      </trkpt>
      <trkpt lat="42.274570036679506" lon="-5.459859995171428">
        <ele>849.09699999999998</ele>
        <time>2021-07-22T16:43:21Z</time>
      </trkpt>
      <trkpt lat="42.275500008836389" lon="-5.461000017821789">
        <ele>843.029</ele>
        <time>2021-07-22T16:43:44Z</time>
      </trkpt>
      <trkpt lat="42.275950033217669" lon="-5.461729997768998">
        <ele>838.06799999999998</ele>
        <time>2021-07-22T16:43:56Z</time>
      </trkpt>
      <trkpt lat="42.276280028745532" lon="-5.46252996660769">
        <ele>834.02700000000004</ele>
        <time>2021-07-22T16:44:08Z</time>
      </trkpt>
      <trkpt lat="42.279230039566755" lon="-5.473579997196794">
        <ele>803.06799999999998</ele>
        <time>2021-07-22T16:46:43Z</time>
      </trkpt>
      <trkpt lat="42.284439979121089" lon="-5.493370005860925">
        <ele>785.01400000000001</ele>
        <time>2021-07-22T16:51:19Z</time>
      </trkpt>
      <trkpt lat="42.284890003502369" lon="-5.494880005717278">
        <ele>782.00800000000004</ele>
        <time>2021-07-22T16:51:41Z</time>
      </trkpt>
      <trkpt lat="42.285610008984804" lon="-5.497589958831668">
        <ele>782.01900000000001</ele>
        <time>2021-07-22T16:52:19Z</time>
      </trkpt>
      <trkpt lat="42.285970011726022" lon="-5.49901002086699">
        <ele>779.00999999999999</ele>
        <time>2021-07-22T16:52:38Z</time>
      </trkpt>
      <trkpt lat="42.286190036684275" lon="-5.499990032985807">
        <ele>777.04999999999995</ele>
        <time>2021-07-22T16:52:52Z</time>
      </trkpt>
      <trkpt lat="42.289050025865436" lon="-5.510790031403303">
        <ele>769.07500000000005</ele>
        <time>2021-07-22T16:55:23Z</time>
      </trkpt>
      <trkpt lat="42.290209997445345" lon="-5.515260016545653">
        <ele>768.09900000000005</ele>
        <time>2021-07-22T16:56:25Z</time>
      </trkpt>
      <trkpt lat="42.290270011872053" lon="-5.515279965475202">
        <ele>768.02099999999996</ele>
        <time>2021-07-22T16:56:26Z</time>
      </trkpt>
      <trkpt lat="42.290309993550181" lon="-5.51536001265049">
        <ele>768.053</ele>
        <time>2021-07-22T16:56:28Z</time>
      </trkpt>
      <trkpt lat="42.291220016777515" lon="-5.515160020440817">
        <ele>768.01199999999994</ele>
        <time>2021-07-22T16:56:44Z</time>
      </trkpt>
      <trkpt lat="42.292930008843541" lon="-5.514839999377728">
        <ele>768.09699999999998</ele>
        <time>2021-07-22T16:57:15Z</time>
      </trkpt>
      <trkpt lat="42.292939983308315" lon="-5.514760036021471">
        <ele>768.02300000000002</ele>
        <time>2021-07-22T16:57:16Z</time>
      </trkpt>
      <trkpt lat="42.292990023270249" lon="-5.514689963310957">
        <ele>768.02499999999998</ele>
        <time>2021-07-22T16:57:17Z</time>
      </trkpt>
      <trkpt lat="42.293069986626506" lon="-5.514689963310957">
        <ele>768.00800000000004</ele>
        <time>2021-07-22T16:57:18Z</time>
      </trkpt>
      <trkpt lat="42.293130001053214" lon="-5.514809992164373">
        <ele>767.096</ele>
        <time>2021-07-22T16:57:20Z</time>
      </trkpt>
      <trkpt lat="42.293510036543012" lon="-5.514830024912953">
        <ele>766.05700000000002</ele>
        <time>2021-07-22T16:57:27Z</time>
      </trkpt>
      <trkpt lat="42.293850006535649" lon="-5.514879981055856">
        <ele>767.03700000000003</ele>
        <time>2021-07-22T16:57:33Z</time>
      </trkpt>
      <trkpt lat="42.295069992542267" lon="-5.515260016545653">
        <ele>768.02200000000005</ele>
        <time>2021-07-22T16:57:55Z</time>
      </trkpt>
      <trkpt lat="42.29529001750052" lon="-5.515309972688556">
        <ele>768.02599999999995</ele>
        <time>2021-07-22T16:57:59Z</time>
      </trkpt>
      <trkpt lat="42.295390013605356" lon="-5.515320030972362">
        <ele>768.07799999999997</ele>
        <time>2021-07-22T16:58:01Z</time>
      </trkpt>
      <trkpt lat="42.295460002496839" lon="-5.515190027654171">
        <ele>768.00999999999999</ele>
        <time>2021-07-22T16:58:03Z</time>
      </trkpt>
      <trkpt lat="42.295509958639741" lon="-5.515179969370365">
        <ele>768.03899999999999</ele>
        <time>2021-07-22T16:58:04Z</time>
      </trkpt>
      <trkpt lat="42.295559998601675" lon="-5.515209976583719">
        <ele>767.03200000000004</ele>
        <time>2021-07-22T16:58:05Z</time>
      </trkpt>
      <trkpt lat="42.295610038563609" lon="-5.515320030972362">
        <ele>767.09199999999998</ele>
        <time>2021-07-22T16:58:07Z</time>
      </trkpt>
      <trkpt lat="42.295590005815029" lon="-5.515399994328618">
        <ele>767.01099999999997</ele>
        <time>2021-07-22T16:58:08Z</time>
      </trkpt>
      <trkpt lat="42.2974600084126" lon="-5.515999970957637">
        <ele>768.00800000000004</ele>
        <time>2021-07-22T16:58:42Z</time>
      </trkpt>
      <trkpt lat="42.298129973933101" lon="-5.516189988702536">
        <ele>766.05999999999995</ele>
        <time>2021-07-22T16:58:54Z</time>
      </trkpt>
      <trkpt lat="42.298180013895035" lon="-5.516099967062473">
        <ele>766.05100000000004</ele>
        <time>2021-07-22T16:58:56Z</time>
      </trkpt>
      <trkpt lat="42.298259977251291" lon="-5.516099967062473">
        <ele>766.07100000000003</ele>
        <time>2021-07-22T16:58:57Z</time>
      </trkpt>
      <trkpt lat="42.29829995892942" lon="-5.516140032559633">
        <ele>766.07600000000002</ele>
        <time>2021-07-22T16:58:58Z</time>
      </trkpt>
      <trkpt lat="42.298310017213225" lon="-5.516259977594018">
        <ele>766.05999999999995</ele>
        <time>2021-07-22T16:59:00Z</time>
      </trkpt>
      <trkpt lat="42.298700027167797" lon="-5.516400039196014">
        <ele>765.01199999999994</ele>
        <time>2021-07-22T16:59:07Z</time>
      </trkpt>
      <trkpt lat="42.299090037122369" lon="-5.51664998754859">
        <ele>763.03399999999999</ele>
        <time>2021-07-22T16:59:15Z</time>
      </trkpt>
      <trkpt lat="42.299509970471263" lon="-5.517109986394644">
        <ele>762.07299999999998</ele>
        <time>2021-07-22T16:59:24Z</time>
      </trkpt>
      <trkpt lat="42.301009995862842" lon="-5.519119966775179">
        <ele>754.05100000000004</ele>
        <time>2021-07-22T17:00:02Z</time>
      </trkpt>
      <trkpt lat="42.301490027457476" lon="-5.519549958407879">
        <ele>751.00099999999998</ele>
        <time>2021-07-22T17:00:12Z</time>
      </trkpt>
      <trkpt lat="42.301509976387024" lon="-5.519500002264977">
        <ele>751.01099999999997</ele>
        <time>2021-07-22T17:00:13Z</time>
      </trkpt>
      <trkpt lat="42.301550041884184" lon="-5.519479969516397">
        <ele>751.00800000000004</ele>
        <time>2021-07-22T17:00:14Z</time>
      </trkpt>
      <trkpt lat="42.301620030775666" lon="-5.519500002264977">
        <ele>750.03200000000004</ele>
        <time>2021-07-22T17:00:15Z</time>
      </trkpt>
      <trkpt lat="42.301669986918569" lon="-5.519590023905039">
        <ele>749.01300000000003</ele>
        <time>2021-07-22T17:00:16Z</time>
      </trkpt>
      <trkpt lat="42.301660012453794" lon="-5.519639980047941">
        <ele>749.03300000000002</ele>
        <time>2021-07-22T17:00:17Z</time>
      </trkpt>
      <trkpt lat="42.302399966865778" lon="-5.51980996504426">
        <ele>748.07799999999997</ele>
        <time>2021-07-22T17:00:30Z</time>
      </trkpt>
      <trkpt lat="42.303149979561567" lon="-5.520020015537739">
        <ele>747.08199999999999</ele>
        <time>2021-07-22T17:00:44Z</time>
      </trkpt>
      <trkpt lat="42.30366999283433" lon="-5.520240040495992">
        <ele>747.07399999999996</ele>
        <time>2021-07-22T17:00:54Z</time>
      </trkpt>
      <trkpt lat="42.304369965568185" lon="-5.520610017701984">
        <ele>749.05600000000004</ele>
        <time>2021-07-22T17:01:07Z</time>
      </trkpt>
      <trkpt lat="42.304810015484691" lon="-5.520800035446882">
        <ele>750.08500000000004</ele>
        <time>2021-07-22T17:01:15Z</time>
      </trkpt>
      <trkpt lat="42.305869990959764" lon="-5.521330023184419">
        <ele>750.02300000000002</ele>
        <time>2021-07-22T17:01:35Z</time>
      </trkpt>
      <trkpt lat="42.306039975956082" lon="-5.521390037611127">
        <ele>750.08299999999997</ele>
        <time>2021-07-22T17:01:39Z</time>
      </trkpt>
      <trkpt lat="42.306429985910654" lon="-5.521449968218803">
        <ele>750.01099999999997</ele>
        <time>2021-07-22T17:01:45Z</time>
      </trkpt>
      <trkpt lat="42.307340009137988" lon="-5.521330023184419">
        <ele>753.00800000000004</ele>
        <time>2021-07-22T17:02:02Z</time>
      </trkpt>
      <trkpt lat="42.30773001909256" lon="-5.521200019866228">
        <ele>753.04899999999998</ele>
        <time>2021-07-22T17:02:09Z</time>
      </trkpt>
      <trkpt lat="42.30856996960938" lon="-5.520789977163076">
        <ele>749.00999999999999</ele>
        <time>2021-07-22T17:02:25Z</time>
      </trkpt>
      <trkpt lat="42.308859983459115" lon="-5.520719988271594">
        <ele>748.08000000000004</ele>
        <time>2021-07-22T17:02:30Z</time>
      </trkpt>
      <trkpt lat="42.312070000916719" lon="-5.520159993320704">
        <ele>749.01499999999999</ele>
        <time>2021-07-22T17:03:28Z</time>
      </trkpt>
      <trkpt lat="42.341470029205084" lon="-5.519369998946786">
        <ele>757.08900000000006</ele>
        <time>2021-07-22T17:12:11Z</time>
      </trkpt>
      <trkpt lat="42.344060037285089" lon="-5.51924997009337">
        <ele>757.01099999999997</ele>
        <time>2021-07-22T17:12:57Z</time>
      </trkpt>
      <trkpt lat="42.381220031529665" lon="-5.515420027077198">
        <ele>765.02300000000002</ele>
        <time>2021-07-22T17:24:00Z</time>
      </trkpt>
      <trkpt lat="42.383580040186644" lon="-5.515160020440817">
        <ele>763.09199999999998</ele>
        <time>2021-07-22T17:24:42Z</time>
      </trkpt>
      <trkpt lat="42.40942002274096" lon="-5.507469959557056">
        <ele>770.04499999999996</ele>
        <time>2021-07-22T17:32:33Z</time>
      </trkpt>
      <trkpt lat="42.413660008460283" lon="-5.506679965183139">
        <ele>769.04700000000003</ele>
        <time>2021-07-22T17:33:49Z</time>
      </trkpt>
      <trkpt lat="42.41461998783052" lon="-5.506479972973466">
        <ele>771.01099999999997</ele>
        <time>2021-07-22T17:34:06Z</time>
      </trkpt>
      <trkpt lat="42.415009997785091" lon="-5.506300013512373">
        <ele>772.00800000000004</ele>
        <time>2021-07-22T17:34:14Z</time>
      </trkpt>
      <trkpt lat="42.4150700122118" lon="-5.506319962441921">
        <ele>772.07100000000003</ele>
        <time>2021-07-22T17:34:15Z</time>
      </trkpt>
      <trkpt lat="42.415119968354702" lon="-5.506390035152435">
        <ele>772.06200000000001</ele>
        <time>2021-07-22T17:34:16Z</time>
      </trkpt>
      <trkpt lat="42.432330027222633" lon="-5.503140036016703">
        <ele>776.09199999999998</ele>
        <time>2021-07-22T17:39:25Z</time>
      </trkpt>
      <trkpt lat="42.432319968938828" lon="-5.502999974414706">
        <ele>776.03700000000003</ele>
        <time>2021-07-22T17:39:27Z</time>
      </trkpt>
      <trkpt lat="42.434310000389814" lon="-5.502609964460135">
        <ele>775.07100000000003</ele>
        <time>2021-07-22T17:40:03Z</time>
      </trkpt>
      <trkpt lat="42.437620013952255" lon="-5.50201996229589">
        <ele>775.06299999999999</ele>
        <time>2021-07-22T17:41:02Z</time>
      </trkpt>
      <trkpt lat="42.440779991447926" lon="-5.501389978453517">
        <ele>775.05499999999995</ele>
        <time>2021-07-22T17:41:59Z</time>
      </trkpt>
      <trkpt lat="42.441750029101968" lon="-5.501170037314296">
        <ele>776.06399999999996</ele>
        <time>2021-07-22T17:42:17Z</time>
      </trkpt>
      <trkpt lat="42.441890006884933" lon="-5.501010026782751">
        <ele>776.05799999999999</ele>
        <time>2021-07-22T17:42:20Z</time>
      </trkpt>
      <trkpt lat="42.442189995199442" lon="-5.500920005142689">
        <ele>776.05200000000002</ele>
        <time>2021-07-22T17:42:25Z</time>
      </trkpt>
      <trkpt lat="42.444570036605" lon="-5.500480039045215">
        <ele>776.01700000000005</ele>
        <time>2021-07-22T17:43:08Z</time>
      </trkpt>
      <trkpt lat="42.444570036605" lon="-5.500810034573078">
        <ele>776.00800000000004</ele>
        <time>2021-07-22T17:43:12Z</time>
      </trkpt>
      <trkpt lat="42.450559996068478" lon="-5.499670011922717">
        <ele>779.072</ele>
        <time>2021-07-22T17:45:00Z</time>
      </trkpt>
      <trkpt lat="42.451170030981302" lon="-5.499510001391172">
        <ele>780.07299999999998</ele>
        <time>2021-07-22T17:45:11Z</time>
      </trkpt>
      <trkpt lat="42.451189979910851" lon="-5.499400030821562">
        <ele>780.07299999999998</ele>
        <time>2021-07-22T17:45:13Z</time>
      </trkpt>
      <trkpt lat="42.451249994337559" lon="-5.499319983646274">
        <ele>780.08799999999997</ele>
        <time>2021-07-22T17:45:14Z</time>
      </trkpt>
      <trkpt lat="42.451370023190975" lon="-5.499329958111048">
        <ele>780.09199999999998</ele>
        <time>2021-07-22T17:45:16Z</time>
      </trkpt>
      <trkpt lat="42.451430037617683" lon="-5.499389972537756">
        <ele>780.03399999999999</ele>
        <time>2021-07-22T17:45:18Z</time>
      </trkpt>
      <trkpt lat="42.451459961012006" lon="-5.499489968642592">
        <ele>781.08600000000001</ele>
        <time>2021-07-22T17:45:19Z</time>
      </trkpt>
      <trkpt lat="42.452439973130822" lon="-5.499329958111048">
        <ele>780.02499999999998</ele>
        <time>2021-07-22T17:45:37Z</time>
      </trkpt>
      <trkpt lat="42.45252002030611" lon="-5.499200038611889">
        <ele>780.01199999999994</ele>
        <time>2021-07-22T17:45:39Z</time>
      </trkpt>
      <trkpt lat="42.452639965340495" lon="-5.499200038611889">
        <ele>780.03200000000004</ele>
        <time>2021-07-22T17:45:41Z</time>
      </trkpt>
      <trkpt lat="42.452710038051009" lon="-5.499319983646274">
        <ele>780.005</ele>
        <time>2021-07-22T17:45:43Z</time>
      </trkpt>
      <trkpt lat="42.45325000025332" lon="-5.499159973114729">
        <ele>778.00800000000004</ele>
        <time>2021-07-22T17:45:53Z</time>
      </trkpt>
      <trkpt lat="42.45991000905633" lon="-5.497890030965209">
        <ele>776.05799999999999</ele>
        <time>2021-07-22T17:47:52Z</time>
      </trkpt>
      <trkpt lat="42.459970023483038" lon="-5.497890030965209">
        <ele>776.01900000000001</ele>
        <time>2021-07-22T17:47:53Z</time>
      </trkpt>
      <trkpt lat="42.460049986839294" lon="-5.497969994321466">
        <ele>776.03899999999999</ele>
        <time>2021-07-22T17:47:55Z</time>
      </trkpt>
      <trkpt lat="42.46087996289134" lon="-5.499319983646274">
        <ele>774.04399999999998</ele>
        <time>2021-07-22T17:48:18Z</time>
      </trkpt>
      <trkpt lat="42.461090013384819" lon="-5.499459961429238">
        <ele>774.01800000000003</ele>
        <time>2021-07-22T17:48:22Z</time>
      </trkpt>
      <trkpt lat="42.46132998727262" lon="-5.499489968642592">
        <ele>774.07000000000005</ele>
        <time>2021-07-22T17:48:27Z</time>
      </trkpt>
      <trkpt lat="42.461550012230873" lon="-5.499359965324402">
        <ele>774.03200000000004</ele>
        <time>2021-07-22T17:48:31Z</time>
      </trkpt>
      <trkpt lat="42.461699964478612" lon="-5.499119991436601">
        <ele>774.02099999999996</ele>
        <time>2021-07-22T17:48:35Z</time>
      </trkpt>
      <trkpt lat="42.461740029975772" lon="-5.498999962583184">
        <ele>775.07299999999998</ele>
        <time>2021-07-22T17:48:37Z</time>
      </trkpt>
      <trkpt lat="42.461770037189126" lon="-5.498729981482029">
        <ele>775.08500000000004</ele>
        <time>2021-07-22T17:48:40Z</time>
      </trkpt>
      <trkpt lat="42.46167004108429" lon="-5.497540002688766">
        <ele>777.01300000000003</ele>
        <time>2021-07-22T17:48:56Z</time>
      </trkpt>
      <trkpt lat="42.461719997227192" lon="-5.497440006583929">
        <ele>777.00800000000004</ele>
        <time>2021-07-22T17:48:58Z</time>
      </trkpt>
      <trkpt lat="42.461819993332028" lon="-5.497430032119155">
        <ele>776.05399999999997</ele>
        <time>2021-07-22T17:49:00Z</time>
      </trkpt>
      <trkpt lat="42.462760023772717" lon="-5.499549983069301">
        <ele>773.06500000000005</ele>
        <time>2021-07-22T17:49:32Z</time>
      </trkpt>
      <trkpt lat="42.462950041517615" lon="-5.500039989128709">
        <ele>772.03499999999997</ele>
        <time>2021-07-22T17:49:39Z</time>
      </trkpt>
      <trkpt lat="42.463060012087226" lon="-5.500659998506308">
        <ele>771.07000000000005</ele>
        <time>2021-07-22T17:49:48Z</time>
      </trkpt>
      <trkpt lat="42.463599974289536" lon="-5.505320001393557">
        <ele>772.04399999999998</ele>
        <time>2021-07-22T17:50:50Z</time>
      </trkpt>
      <trkpt lat="42.463669963181019" lon="-5.505659971386194">
        <ele>772.07600000000002</ele>
        <time>2021-07-22T17:50:54Z</time>
      </trkpt>
      <trkpt lat="42.46874000877142" lon="-5.518210027366877">
        <ele>772.07799999999997</ele>
        <time>2021-07-22T17:54:02Z</time>
      </trkpt>
      <trkpt lat="42.471839971840382" lon="-5.525800008326769">
        <ele>773.09699999999998</ele>
        <time>2021-07-22T17:55:56Z</time>
      </trkpt>
      <trkpt lat="42.473409986123443" lon="-5.529559962451458">
        <ele>773.05399999999997</ele>
        <time>2021-07-22T17:56:53Z</time>
      </trkpt>
      <trkpt lat="42.473920024931431" lon="-5.530450036749244">
        <ele>773.05600000000004</ele>
        <time>2021-07-22T17:57:07Z</time>
      </trkpt>
      <trkpt lat="42.474290002137423" lon="-5.531029980629683">
        <ele>775.01099999999997</ele>
        <time>2021-07-22T17:57:17Z</time>
      </trkpt>
      <trkpt lat="42.474719993770123" lon="-5.531380008906126">
        <ele>776.00800000000004</ele>
        <time>2021-07-22T17:57:26Z</time>
      </trkpt>
      <trkpt lat="42.475000033155084" lon="-5.531549993902445">
        <ele>777.09199999999998</ele>
        <time>2021-07-22T17:57:32Z</time>
      </trkpt>
      <trkpt lat="42.476160004734993" lon="-5.532079981639981">
        <ele>778.08299999999997</ele>
        <time>2021-07-22T17:57:54Z</time>
      </trkpt>
      <trkpt lat="42.476209960877895" lon="-5.532300006598234">
        <ele>778.01300000000003</ele>
        <time>2021-07-22T17:57:57Z</time>
      </trkpt>
      <trkpt lat="42.4768400285393" lon="-5.532439984381199">
        <ele>777.07799999999997</ele>
        <time>2021-07-22T17:58:08Z</time>
      </trkpt>
      <trkpt lat="42.478120028972626" lon="-5.532639976590872">
        <ele>779.03200000000004</ele>
        <time>2021-07-22T17:58:31Z</time>
      </trkpt>
      <trkpt lat="42.478329995647073" lon="-5.532709965482354">
        <ele>780.05399999999997</ele>
        <time>2021-07-22T17:58:35Z</time>
      </trkpt>
      <trkpt lat="42.478699972853065" lon="-5.533010037615895">
        <ele>780.04600000000005</ele>
        <time>2021-07-22T17:58:42Z</time>
      </trkpt>
      <trkpt lat="42.47901001945138" lon="-5.533350007608533">
        <ele>781.07500000000005</ele>
        <time>2021-07-22T17:58:50Z</time>
      </trkpt>
      <trkpt lat="42.479129964485765" lon="-5.533419996500015">
        <ele>781.029</ele>
        <time>2021-07-22T17:58:52Z</time>
      </trkpt>
      <trkpt lat="42.479270026087761" lon="-5.533429970964789">
        <ele>781</ele>
        <time>2021-07-22T17:58:54Z</time>
      </trkpt>
      <trkpt lat="42.479760032147169" lon="-5.533189997076988">
        <ele>780.01999999999998</ele>
        <time>2021-07-22T17:59:04Z</time>
      </trkpt>
      <trkpt lat="42.479879977181554" lon="-5.533169964328408">
        <ele>780.00800000000004</ele>
        <time>2021-07-22T17:59:06Z</time>
      </trkpt>
      <trkpt lat="42.480899970978498" lon="-5.533329974859953">
        <ele>780.06899999999996</ele>
        <time>2021-07-22T17:59:24Z</time>
      </trkpt>
      <trkpt lat="42.481070039793849" lon="-5.533310025930405">
        <ele>780.03999999999996</ele>
        <time>2021-07-22T17:59:27Z</time>
      </trkpt>
      <trkpt lat="42.481270032003522" lon="-5.533240037038922">
        <ele>780.05999999999995</ele>
        <time>2021-07-22T17:59:31Z</time>
      </trkpt>
      <trkpt lat="42.481540013104677" lon="-5.533220004290342">
        <ele>780.07500000000005</ele>
        <time>2021-07-22T17:59:36Z</time>
      </trkpt>
      <trkpt lat="42.483270037919283" lon="-5.533789973706007">
        <ele>779.08900000000006</ele>
        <time>2021-07-22T18:00:07Z</time>
      </trkpt>
      <trkpt lat="42.483740011230111" lon="-5.534000024199486">
        <ele>780.03099999999995</ele>
        <time>2021-07-22T18:00:16Z</time>
      </trkpt>
      <trkpt lat="42.484179977327585" lon="-5.534260030835867">
        <ele>782.053</ele>
        <time>2021-07-22T18:00:25Z</time>
      </trkpt>
      <trkpt lat="42.484369995072484" lon="-5.53446002304554">
        <ele>782.03200000000004</ele>
        <time>2021-07-22T18:00:29Z</time>
      </trkpt>
      <trkpt lat="42.484860001131892" lon="-5.535220010206103">
        <ele>781.077</ele>
        <time>2021-07-22T18:00:42Z</time>
      </trkpt>
      <trkpt lat="42.48537003993988" lon="-5.535780005156994">
        <ele>781.06100000000004</ele>
        <time>2021-07-22T18:00:54Z</time>
      </trkpt>
      <trkpt lat="42.485470036044717" lon="-5.53585996851325">
        <ele>781.02700000000004</ele>
        <time>2021-07-22T18:00:56Z</time>
      </trkpt>
      <trkpt lat="42.486379975453019" lon="-5.536470003426075">
        <ele>780.00800000000004</ele>
        <time>2021-07-22T18:01:14Z</time>
      </trkpt>
      <trkpt lat="42.486579967662692" lon="-5.536569999530911">
        <ele>780.03399999999999</ele>
        <time>2021-07-22T18:01:18Z</time>
      </trkpt>
      <trkpt lat="42.486790018156171" lon="-5.536649962887168">
        <ele>779.02499999999998</ele>
        <time>2021-07-22T18:01:22Z</time>
      </trkpt>
      <trkpt lat="42.487469958141446" lon="-5.536839980632067">
        <ele>780.08500000000004</ele>
        <time>2021-07-22T18:01:34Z</time>
      </trkpt>
      <trkpt lat="42.487979996949434" lon="-5.53706000559032">
        <ele>783.03999999999996</ele>
        <time>2021-07-22T18:01:43Z</time>
      </trkpt>
      <trkpt lat="42.488660020753741" lon="-5.537420008331537">
        <ele>782.06399999999996</ele>
        <time>2021-07-22T18:01:56Z</time>
      </trkpt>
      <trkpt lat="42.48971002176404" lon="-5.538270017132163">
        <ele>779.01599999999996</ele>
        <time>2021-07-22T18:02:18Z</time>
      </trkpt>
      <trkpt lat="42.490600012242794" lon="-5.539260003715754">
        <ele>781.03800000000001</ele>
        <time>2021-07-22T18:02:39Z</time>
      </trkpt>
      <trkpt lat="42.49115003272891" lon="-5.539919994771481">
        <ele>782.01700000000005</ele>
        <time>2021-07-22T18:02:52Z</time>
      </trkpt>
      <trkpt lat="42.493269983679056" lon="-5.543000008910894">
        <ele>782.09799999999996</ele>
        <time>2021-07-22T18:03:47Z</time>
      </trkpt>
      <trkpt lat="42.493699975311756" lon="-5.543350037187338">
        <ele>783.01499999999999</ele>
        <time>2021-07-22T18:03:56Z</time>
      </trkpt>
      <trkpt lat="42.496930025517941" lon="-5.545790009200573">
        <ele>785.02599999999995</ele>
        <time>2021-07-22T18:05:02Z</time>
      </trkpt>
      <trkpt lat="42.497750027105212" lon="-5.546610010787845">
        <ele>786.00800000000004</ele>
        <time>2021-07-22T18:05:20Z</time>
      </trkpt>
      <trkpt lat="42.49811002984643" lon="-5.547070009633899">
        <ele>786.04600000000005</ele>
        <time>2021-07-22T18:05:29Z</time>
      </trkpt>
      <trkpt lat="42.498250007629395" lon="-5.547149972990155">
        <ele>786.05700000000002</ele>
        <time>2021-07-22T18:05:31Z</time>
      </trkpt>
      <trkpt lat="42.498380010947585" lon="-5.547160031273961">
        <ele>786.077</ele>
        <time>2021-07-22T18:05:34Z</time>
      </trkpt>
      <trkpt lat="42.498500039801002" lon="-5.547089958563447">
        <ele>786.03200000000004</ele>
        <time>2021-07-22T18:05:36Z</time>
      </trkpt>
      <trkpt lat="42.49864999204874" lon="-5.546789970248938">
        <ele>787.05600000000004</ele>
        <time>2021-07-22T18:05:41Z</time>
      </trkpt>
      <trkpt lat="42.498689973726869" lon="-5.546770021319389">
        <ele>787.03800000000001</ele>
        <time>2021-07-22T18:05:42Z</time>
      </trkpt>
      <trkpt lat="42.498840009793639" lon="-5.546849984675646">
        <ele>787.07000000000005</ele>
        <time>2021-07-22T18:05:44Z</time>
      </trkpt>
      <trkpt lat="42.498909998685122" lon="-5.546919973567128">
        <ele>787.06899999999996</ele>
        <time>2021-07-22T18:05:46Z</time>
      </trkpt>
      <trkpt lat="42.499239994212985" lon="-5.547049976885319">
        <ele>787.09299999999996</ele>
        <time>2021-07-22T18:05:52Z</time>
      </trkpt>
      <trkpt lat="42.50028002075851" lon="-5.54786997847259">
        <ele>786.06500000000005</ele>
        <time>2021-07-22T18:06:13Z</time>
      </trkpt>
      <trkpt lat="42.500480012968183" lon="-5.547999981790781">
        <ele>786.02099999999996</ele>
        <time>2021-07-22T18:06:17Z</time>
      </trkpt>
      <trkpt lat="42.501400010660291" lon="-5.548470038920641">
        <ele>788.00800000000004</ele>
        <time>2021-07-22T18:06:35Z</time>
      </trkpt>
      <trkpt lat="42.502190005034208" lon="-5.54877002723515">
        <ele>788.02599999999995</ele>
        <time>2021-07-22T18:06:49Z</time>
      </trkpt>
      <trkpt lat="42.503089969977736" lon="-5.549170011654496">
        <ele>788.02700000000004</ele>
        <time>2021-07-22T18:07:06Z</time>
      </trkpt>
      <trkpt lat="42.503470005467534" lon="-5.549449967220426">
        <ele>788.09699999999998</ele>
        <time>2021-07-22T18:07:14Z</time>
      </trkpt>
      <trkpt lat="42.503600008785725" lon="-5.549639984965324">
        <ele>788.08199999999999</ele>
        <time>2021-07-22T18:07:17Z</time>
      </trkpt>
      <trkpt lat="42.503700004890561" lon="-5.549899991601706">
        <ele>788.096</ele>
        <time>2021-07-22T18:07:21Z</time>
      </trkpt>
      <trkpt lat="42.503839982673526" lon="-5.550099983811379">
        <ele>788.02800000000002</ele>
        <time>2021-07-22T18:07:25Z</time>
      </trkpt>
      <trkpt lat="42.504269974306226" lon="-5.550420004874468">
        <ele>789.05999999999995</ele>
        <time>2021-07-22T18:07:34Z</time>
      </trkpt>
      <trkpt lat="42.504659984260798" lon="-5.550640029832721">
        <ele>789.01900000000001</ele>
        <time>2021-07-22T18:07:41Z</time>
      </trkpt>
      <trkpt lat="42.505779974162579" lon="-5.55046996101737">
        <ele>790.09199999999998</ele>
        <time>2021-07-22T18:08:01Z</time>
      </trkpt>
      <trkpt lat="42.505999999120831" lon="-5.55048999376595">
        <ele>790.07299999999998</ele>
        <time>2021-07-22T18:08:05Z</time>
      </trkpt>
      <trkpt lat="42.506450023502111" lon="-5.550580015406013">
        <ele>789.01999999999998</ele>
        <time>2021-07-22T18:08:13Z</time>
      </trkpt>
      <trkpt lat="42.50702996738255" lon="-5.550859970971942">
        <ele>789.00800000000004</ele>
        <time>2021-07-22T18:08:24Z</time>
      </trkpt>
      <trkpt lat="42.507080007344484" lon="-5.55094001814723">
        <ele>789.03599999999994</ele>
        <time>2021-07-22T18:08:26Z</time>
      </trkpt>
      <trkpt lat="42.507119989022613" lon="-5.551079995930195">
        <ele>789.01700000000005</ele>
        <time>2021-07-22T18:08:27Z</time>
      </trkpt>
      <trkpt lat="42.50705000013113" lon="-5.551449973136187">
        <ele>789.04700000000003</ele>
        <time>2021-07-22T18:08:33Z</time>
      </trkpt>
      <trkpt lat="42.50705000013113" lon="-5.551790026947856">
        <ele>789.072</ele>
        <time>2021-07-22T18:08:37Z</time>
      </trkpt>
      <trkpt lat="42.507159970700741" lon="-5.552529981359839">
        <ele>788.07600000000002</ele>
        <time>2021-07-22T18:08:47Z</time>
      </trkpt>
      <trkpt lat="42.507330039516091" lon="-5.553389964625239">
        <ele>788.09799999999996</ele>
        <time>2021-07-22T18:08:59Z</time>
      </trkpt>
      <trkpt lat="42.507470017299056" lon="-5.553800007328391">
        <ele>788.04999999999995</ele>
        <time>2021-07-22T18:09:04Z</time>
      </trkpt>
      <trkpt lat="42.508000005036592" lon="-5.554580027237535">
        <ele>788.08900000000006</ele>
        <time>2021-07-22T18:09:18Z</time>
      </trkpt>
      <trkpt lat="42.508429996669292" lon="-5.555059975013137">
        <ele>788.05499999999995</ele>
        <time>2021-07-22T18:09:28Z</time>
      </trkpt>
      <trkpt lat="42.509259972721338" lon="-5.555589962750673">
        <ele>788.00699999999995</ele>
        <time>2021-07-22T18:09:45Z</time>
      </trkpt>
      <trkpt lat="42.509779985994101" lon="-5.555890034884214">
        <ele>787.01700000000005</ele>
        <time>2021-07-22T18:09:55Z</time>
      </trkpt>
      <trkpt lat="42.510190028697252" lon="-5.555979972705245">
        <ele>787.00800000000004</ele>
        <time>2021-07-22T18:10:02Z</time>
      </trkpt>
      <trkpt lat="42.517529977485538" lon="-5.55701999925077">
        <ele>791.04200000000003</ele>
        <time>2021-07-22T18:12:13Z</time>
      </trkpt>
      <trkpt lat="42.518059965223074" lon="-5.557219991460443">
        <ele>791.08299999999997</ele>
        <time>2021-07-22T18:12:23Z</time>
      </trkpt>
      <trkpt lat="42.519329991191626" lon="-5.557189984247088">
        <ele>790.04300000000001</ele>
        <time>2021-07-22T18:12:46Z</time>
      </trkpt>
      <trkpt lat="42.519650012254715" lon="-5.557219991460443">
        <ele>791.06799999999998</ele>
        <time>2021-07-22T18:12:51Z</time>
      </trkpt>
      <trkpt lat="42.521030008792877" lon="-5.557530038058758">
        <ele>791.06200000000001</ele>
        <time>2021-07-22T18:13:16Z</time>
      </trkpt>
      <trkpt lat="42.523230006918311" lon="-5.557610001415014">
        <ele>794.06399999999996</ele>
        <time>2021-07-22T18:13:56Z</time>
      </trkpt>
      <trkpt lat="42.523989994078875" lon="-5.557660041376948">
        <ele>795.096</ele>
        <time>2021-07-22T18:14:09Z</time>
      </trkpt>
      <trkpt lat="42.524419985711575" lon="-5.55757999420166">
        <ele>795.09500000000003</ele>
        <time>2021-07-22T18:14:17Z</time>
      </trkpt>
      <trkpt lat="42.524630036205053" lon="-5.557489972561598">
        <ele>795.048</ele>
        <time>2021-07-22T18:14:21Z</time>
      </trkpt>
      <trkpt lat="42.52511995844543" lon="-5.557180009782314">
        <ele>795.06100000000004</ele>
        <time>2021-07-22T18:14:30Z</time>
      </trkpt>
      <trkpt lat="42.525460012257099" lon="-5.557050006464124">
        <ele>796.01700000000005</ele>
        <time>2021-07-22T18:14:37Z</time>
      </trkpt>
      <trkpt lat="42.525709960609674" lon="-5.55699996650219">
        <ele>796.00800000000004</ele>
        <time>2021-07-22T18:14:41Z</time>
      </trkpt>
      <trkpt lat="42.525880029425025" lon="-5.557010024785996">
        <ele>796.01099999999997</ele>
        <time>2021-07-22T18:14:44Z</time>
      </trkpt>
      <trkpt lat="42.525929985567927" lon="-5.557029973715544">
        <ele>796.01199999999994</ele>
        <time>2021-07-22T18:14:45Z</time>
      </trkpt>
      <trkpt lat="42.526029981672764" lon="-5.55715000256896">
        <ele>796.06200000000001</ele>
        <time>2021-07-22T18:14:47Z</time>
      </trkpt>
      <trkpt lat="42.526649991050363" lon="-5.558360014110804">
        <ele>795.077</ele>
        <time>2021-07-22T18:15:07Z</time>
      </trkpt>
      <trkpt lat="42.526779994368553" lon="-5.558550031855702">
        <ele>795.06100000000004</ele>
        <time>2021-07-22T18:15:10Z</time>
      </trkpt>
      <trkpt lat="42.527019968256354" lon="-5.558780031278729">
        <ele>795.01300000000003</ele>
        <time>2021-07-22T18:15:15Z</time>
      </trkpt>
      <trkpt lat="42.527820020914078" lon="-5.559370033442974">
        <ele>796.07500000000005</ele>
        <time>2021-07-22T18:15:32Z</time>
      </trkpt>
      <trkpt lat="42.528600040823221" lon="-5.559819974005222">
        <ele>798.01400000000001</ele>
        <time>2021-07-22T18:15:47Z</time>
      </trkpt>
      <trkpt lat="42.528900029137731" lon="-5.559940002858639">
        <ele>798.07500000000005</ele>
        <time>2021-07-22T18:15:52Z</time>
      </trkpt>
      <trkpt lat="42.529820026829839" lon="-5.560109987854958">
        <ele>799.02800000000002</ele>
        <time>2021-07-22T18:16:09Z</time>
      </trkpt>
      <trkpt lat="42.530259992927313" lon="-5.560239991173148">
        <ele>798.01999999999998</ele>
        <time>2021-07-22T18:16:17Z</time>
      </trkpt>
      <trkpt lat="42.530770031735301" lon="-5.560330012813211">
        <ele>797.00800000000004</ele>
        <time>2021-07-22T18:16:26Z</time>
      </trkpt>
      <trkpt lat="42.532439958304167" lon="-5.560839967802167">
        <ele>797.08399999999995</ele>
        <time>2021-07-22T18:16:56Z</time>
      </trkpt>
      <trkpt lat="42.532840026542544" lon="-5.561029985547066">
        <ele>796.09500000000003</ele>
        <time>2021-07-22T18:17:04Z</time>
      </trkpt>
      <trkpt lat="42.537879981100559" lon="-5.564070018008351">
        <ele>798.04499999999996</ele>
        <time>2021-07-22T18:18:42Z</time>
      </trkpt>
      <trkpt lat="42.538339979946613" lon="-5.564490035176277">
        <ele>798.08000000000004</ele>
        <time>2021-07-22T18:18:52Z</time>
      </trkpt>
      <trkpt lat="42.538650026544929" lon="-5.564700001850724">
        <ele>798.09400000000005</ele>
        <time>2021-07-22T18:18:58Z</time>
      </trkpt>
      <trkpt lat="42.539640013128519" lon="-5.565229989588261">
        <ele>799.06600000000003</ele>
        <time>2021-07-22T18:19:17Z</time>
      </trkpt>
      <trkpt lat="42.540070004761219" lon="-5.565429981797934">
        <ele>799.06799999999998</ele>
        <time>2021-07-22T18:19:25Z</time>
      </trkpt>
      <trkpt lat="42.540859999135137" lon="-5.565640032291412">
        <ele>801.01700000000005</ele>
        <time>2021-07-22T18:19:39Z</time>
      </trkpt>
      <trkpt lat="42.541470034047961" lon="-5.565689988434315">
        <ele>801.02300000000002</ele>
        <time>2021-07-22T18:19:50Z</time>
      </trkpt>
      <trkpt lat="42.542160032317042" lon="-5.566119980067015">
        <ele>801.08299999999997</ele>
        <time>2021-07-22T18:20:04Z</time>
      </trkpt>
      <trkpt lat="42.542469995096326" lon="-5.566360037773848">
        <ele>801.01099999999997</ele>
        <time>2021-07-22T18:20:10Z</time>
      </trkpt>
      <trkpt lat="42.542690020054579" lon="-5.566490041092038">
        <ele>801.00800000000004</ele>
        <time>2021-07-22T18:20:14Z</time>
      </trkpt>
      <trkpt lat="42.543139960616827" lon="-5.566630018875003">
        <ele>802.04899999999998</ele>
        <time>2021-07-22T18:20:23Z</time>
      </trkpt>
      <trkpt lat="42.543329978361726" lon="-5.566709982231259">
        <ele>802.05999999999995</ele>
        <time>2021-07-22T18:20:26Z</time>
      </trkpt>
      <trkpt lat="42.54351002164185" lon="-5.566820036619902">
        <ele>802.08000000000004</ele>
        <time>2021-07-22T18:20:30Z</time>
      </trkpt>
      <trkpt lat="42.544419961050153" lon="-5.567160006612539">
        <ele>802.08500000000004</ele>
        <time>2021-07-22T18:20:46Z</time>
      </trkpt>
      <trkpt lat="42.544679967686534" lon="-5.567229995504022">
        <ele>803.03899999999999</ele>
        <time>2021-07-22T18:20:51Z</time>
      </trkpt>
      <trkpt lat="42.545329984277487" lon="-5.56726997718215">
        <ele>803.05100000000004</ele>
        <time>2021-07-22T18:21:03Z</time>
      </trkpt>
      <trkpt lat="42.545750001445413" lon="-5.567369973286986">
        <ele>802.02300000000002</ele>
        <time>2021-07-22T18:21:10Z</time>
      </trkpt>
      <trkpt lat="42.546319970861077" lon="-5.56742001324892">
        <ele>801.09199999999998</ele>
        <time>2021-07-22T18:21:21Z</time>
      </trkpt>
      <trkpt lat="42.548330035060644" lon="-5.567490002140403">
        <ele>803.07399999999996</ele>
        <time>2021-07-22T18:21:56Z</time>
      </trkpt>
      <trkpt lat="42.548809982836246" lon="-5.567689994350076">
        <ele>804.05600000000004</ele>
        <time>2021-07-22T18:22:05Z</time>
      </trkpt>
      <trkpt lat="42.549120029434562" lon="-5.567899961024523">
        <ele>804.02099999999996</ele>
        <time>2021-07-22T18:22:11Z</time>
      </trkpt>
      <trkpt lat="42.549309963360429" lon="-5.568080004304647">
        <ele>804.00800000000004</ele>
        <time>2021-07-22T18:22:16Z</time>
      </trkpt>
      <trkpt lat="42.549950005486608" lon="-5.568849965929985">
        <ele>803.07399999999996</ele>
        <time>2021-07-22T18:22:31Z</time>
      </trkpt>
      <trkpt lat="42.551139984279871" lon="-5.569599978625774">
        <ele>805.09500000000003</ele>
        <time>2021-07-22T18:22:54Z</time>
      </trkpt>
      <trkpt lat="42.55146000534296" lon="-5.56988999247551">
        <ele>804.07500000000005</ele>
        <time>2021-07-22T18:23:01Z</time>
      </trkpt>
      <trkpt lat="42.552349995821714" lon="-5.571190025657415">
        <ele>805.07000000000005</ele>
        <time>2021-07-22T18:23:24Z</time>
      </trkpt>
      <trkpt lat="42.552489973604679" lon="-5.571320028975606">
        <ele>805.01400000000001</ele>
        <time>2021-07-22T18:23:27Z</time>
      </trkpt>
      <trkpt lat="42.552670016884804" lon="-5.571379959583283">
        <ele>805.07600000000002</ele>
        <time>2021-07-22T18:23:31Z</time>
      </trkpt>
      <trkpt lat="42.552870009094477" lon="-5.571339977905154">
        <ele>806.048</ele>
        <time>2021-07-22T18:23:34Z</time>
      </trkpt>
      <trkpt lat="42.553019961342216" lon="-5.571230007335544">
        <ele>806.06700000000001</ele>
        <time>2021-07-22T18:23:37Z</time>
      </trkpt>
      <trkpt lat="42.553759999573231" lon="-5.570349991321564">
        <ele>804.04700000000003</ele>
        <time>2021-07-22T18:23:55Z</time>
      </trkpt>
      <trkpt lat="42.553829988464713" lon="-5.570300035178661">
        <ele>804.029</ele>
        <time>2021-07-22T18:23:56Z</time>
      </trkpt>
      <trkpt lat="42.553969966247678" lon="-5.570249995216727">
        <ele>803.02099999999996</ele>
        <time>2021-07-22T18:23:59Z</time>
      </trkpt>
      <trkpt lat="42.554280012845993" lon="-5.57031998410821">
        <ele>803.00800000000004</ele>
        <time>2021-07-22T18:24:04Z</time>
      </trkpt>
      <trkpt lat="42.554350001737475" lon="-5.570219988003373">
        <ele>803.04100000000005</ele>
        <time>2021-07-22T18:24:06Z</time>
      </trkpt>
      <trkpt lat="42.554459972307086" lon="-5.570189980790019">
        <ele>804.072</ele>
        <time>2021-07-22T18:24:08Z</time>
      </trkpt>
      <trkpt lat="42.554529961198568" lon="-5.570200039073825">
        <ele>804.03200000000004</ele>
        <time>2021-07-22T18:24:09Z</time>
      </trkpt>
      <trkpt lat="42.554640015587211" lon="-5.570300035178661">
        <ele>804.03700000000003</ele>
        <time>2021-07-22T18:24:12Z</time>
      </trkpt>
      <trkpt lat="42.554679997265339" lon="-5.570400031283498">
        <ele>804.03099999999995</ele>
        <time>2021-07-22T18:24:13Z</time>
      </trkpt>
      <trkpt lat="42.554700030013919" lon="-5.570510001853108">
        <ele>804.07299999999998</ele>
        <time>2021-07-22T18:24:15Z</time>
      </trkpt>
      <trkpt lat="42.554679997265339" lon="-5.570630030706525">
        <ele>805.05499999999995</ele>
        <time>2021-07-22T18:24:16Z</time>
      </trkpt>
      <trkpt lat="42.554630041122437" lon="-5.570719968527556">
        <ele>805.08399999999995</ele>
        <time>2021-07-22T18:24:18Z</time>
      </trkpt>
      <trkpt lat="42.554640015587211" lon="-5.571009982377291">
        <ele>805.029</ele>
        <time>2021-07-22T18:24:21Z</time>
      </trkpt>
      <trkpt lat="42.554900022223592" lon="-5.57178002782166">
        <ele>804</ele>
        <time>2021-07-22T18:24:33Z</time>
      </trkpt>
      <trkpt lat="42.555060032755136" lon="-5.571989994496107">
        <ele>804.01999999999998</ele>
        <time>2021-07-22T18:24:37Z</time>
      </trkpt>
      <trkpt lat="42.555160028859973" lon="-5.572010027244687">
        <ele>804.00800000000004</ele>
        <time>2021-07-22T18:24:38Z</time>
      </trkpt>
      <trkpt lat="42.555239992216229" lon="-5.572089990600944">
        <ele>805.07899999999995</ele>
        <time>2021-07-22T18:24:40Z</time>
      </trkpt>
      <trkpt lat="42.555290032178164" lon="-5.57221001945436">
        <ele>805.03999999999996</ele>
        <time>2021-07-22T18:24:42Z</time>
      </trkpt>
      <trkpt lat="42.555300006642938" lon="-5.572319990023971">
        <ele>805.07000000000005</ele>
        <time>2021-07-22T18:24:43Z</time>
      </trkpt>
      <trkpt lat="42.555239992216229" lon="-5.572519982233644">
        <ele>805.09500000000003</ele>
        <time>2021-07-22T18:24:46Z</time>
      </trkpt>
      <trkpt lat="42.555170003324747" lon="-5.572579996660352">
        <ele>805.01900000000001</ele>
        <time>2021-07-22T18:24:48Z</time>
      </trkpt>
      <trkpt lat="42.555090039968491" lon="-5.572610003873706">
        <ele>805.07100000000003</ele>
        <time>2021-07-22T18:24:49Z</time>
      </trkpt>
      <trkpt lat="42.555049974471331" lon="-5.572900017723441">
        <ele>806.01300000000003</ele>
        <time>2021-07-22T18:24:53Z</time>
      </trkpt>
      <trkpt lat="42.554970011115074" lon="-5.573109984397888">
        <ele>806.09199999999998</ele>
        <time>2021-07-22T18:24:56Z</time>
      </trkpt>
      <trkpt lat="42.554860040545464" lon="-5.573279969394207">
        <ele>807.01300000000003</ele>
        <time>2021-07-22T18:24:59Z</time>
      </trkpt>
      <trkpt lat="42.55435997620225" lon="-5.573780033737421">
        <ele>806.04300000000001</ele>
        <time>2021-07-22T18:25:10Z</time>
      </trkpt>
      <trkpt lat="42.554229972884059" lon="-5.573980025947094">
        <ele>807.00699999999995</ele>
        <time>2021-07-22T18:25:14Z</time>
      </trkpt>
      <trkpt lat="42.554140035063028" lon="-5.574180018156767">
        <ele>807.00800000000004</ele>
        <time>2021-07-22T18:25:17Z</time>
      </trkpt>
      <trkpt lat="42.554069962352514" lon="-5.574399959295988">
        <ele>807.01800000000003</ele>
        <time>2021-07-22T18:25:20Z</time>
      </trkpt>
      <trkpt lat="42.554020006209612" lon="-5.574689973145723">
        <ele>807.03899999999999</ele>
        <time>2021-07-22T18:25:24Z</time>
      </trkpt>
      <trkpt lat="42.554040038958192" lon="-5.575209986418486">
        <ele>807.01900000000001</ele>
        <time>2021-07-22T18:25:31Z</time>
      </trkpt>
      <trkpt lat="42.554120002314448" lon="-5.575500000268221">
        <ele>807.01400000000001</ele>
        <time>2021-07-22T18:25:35Z</time>
      </trkpt>
      <trkpt lat="42.554340027272701" lon="-5.575969973579049">
        <ele>806.03800000000001</ele>
        <time>2021-07-22T18:25:42Z</time>
      </trkpt>
      <trkpt lat="42.555439984425902" lon="-5.577690023928881">
        <ele>807.02999999999997</ele>
        <time>2021-07-22T18:26:12Z</time>
      </trkpt>
      <trkpt lat="42.555829994380474" lon="-5.578129990026355">
        <ele>807.01199999999994</ele>
        <time>2021-07-22T18:26:21Z</time>
      </trkpt>
      <trkpt lat="42.556289993226528" lon="-5.578469960018992">
        <ele>806.02099999999996</ele>
        <time>2021-07-22T18:26:30Z</time>
      </trkpt>
      <trkpt lat="42.556770024821162" lon="-5.578710017725825">
        <ele>806.024</ele>
        <time>2021-07-22T18:26:39Z</time>
      </trkpt>
      <trkpt lat="42.557509979233146" lon="-5.578979998826981">
        <ele>808.00400000000002</ele>
        <time>2021-07-22T18:26:53Z</time>
      </trkpt>
      <trkpt lat="42.559939976781607" lon="-5.579110002145171">
        <ele>809.01400000000001</ele>
        <time>2021-07-22T18:27:36Z</time>
      </trkpt>
      <trkpt lat="42.562079960480332" lon="-5.579170016571879">
        <ele>809.00800000000004</ele>
        <time>2021-07-22T18:28:14Z</time>
      </trkpt>
      <trkpt lat="42.563939988613129" lon="-5.579000031575561">
        <ele>812.06899999999996</ele>
        <time>2021-07-22T18:28:47Z</time>
      </trkpt>
      <trkpt lat="42.565099960193038" lon="-5.578770032152534">
        <ele>810.00999999999999</ele>
        <time>2021-07-22T18:29:08Z</time>
      </trkpt>
      <trkpt lat="42.566239982843399" lon="-5.578259993344545">
        <ele>812.00999999999999</ele>
        <time>2021-07-22T18:29:30Z</time>
      </trkpt>
      <trkpt lat="42.56692998111248" lon="-5.578029993921518">
        <ele>812.02499999999998</ele>
        <time>2021-07-22T18:29:42Z</time>
      </trkpt>
      <trkpt lat="42.567949974909425" lon="-5.577779961749911">
        <ele>812.04899999999998</ele>
        <time>2021-07-22T18:30:01Z</time>
      </trkpt>
      <trkpt lat="42.568399999290705" lon="-5.577590027824044">
        <ele>811.03099999999995</ele>
        <time>2021-07-22T18:30:09Z</time>
      </trkpt>
      <trkpt lat="42.569779995828867" lon="-5.576780000701547">
        <ele>812.09299999999996</ele>
        <time>2021-07-22T18:30:36Z</time>
      </trkpt>
      <trkpt lat="42.571889972314239" lon="-5.575599996373057">
        <ele>810.08199999999999</ele>
        <time>2021-07-22T18:31:16Z</time>
      </trkpt>
      <trkpt lat="42.572470000013709" lon="-5.575439985841513">
        <ele>810.06899999999996</ele>
        <time>2021-07-22T18:31:27Z</time>
      </trkpt>
      <trkpt lat="42.579429997131228" lon="-5.574020007625222">
        <ele>815.00400000000002</ele>
        <time>2021-07-22T18:33:32Z</time>
      </trkpt>
      <trkpt lat="42.57969000376761" lon="-5.573939960449934">
        <ele>816.024</ele>
        <time>2021-07-22T18:33:37Z</time>
      </trkpt>
      <trkpt lat="42.579880021512508" lon="-5.573769975453615">
        <ele>817.00800000000004</ele>
        <time>2021-07-22T18:33:41Z</time>
      </trkpt>
      <trkpt lat="42.579959984868765" lon="-5.573109984397888">
        <ele>816.053</ele>
        <time>2021-07-22T18:33:50Z</time>
      </trkpt>
      <trkpt lat="42.579989992082119" lon="-5.572630036622286">
        <ele>815.05399999999997</ele>
        <time>2021-07-22T18:33:56Z</time>
      </trkpt>
      <trkpt lat="42.579980017617345" lon="-5.572489975020289">
        <ele>815.05399999999997</ele>
        <time>2021-07-22T18:33:58Z</time>
      </trkpt>
      <trkpt lat="42.579880021512508" lon="-5.572289982810617">
        <ele>815.04899999999998</ele>
        <time>2021-07-22T18:34:01Z</time>
      </trkpt>
      <trkpt lat="42.579889995977283" lon="-5.572050008922815">
        <ele>816.07299999999998</ele>
        <time>2021-07-22T18:34:04Z</time>
      </trkpt>
      <trkpt lat="42.579969959333539" lon="-5.571859991177917">
        <ele>816.03499999999997</ele>
        <time>2021-07-22T18:34:07Z</time>
      </trkpt>
      <trkpt lat="42.580040032044053" lon="-5.571799976751208">
        <ele>816.09699999999998</ele>
        <time>2021-07-22T18:34:09Z</time>
      </trkpt>
      <trkpt lat="42.580189984291792" lon="-5.571750020608306">
        <ele>815.01599999999996</ele>
        <time>2021-07-22T18:34:11Z</time>
      </trkpt>
      <trkpt lat="42.580319987609982" lon="-5.571799976751208">
        <ele>815.08799999999997</ele>
        <time>2021-07-22T18:34:14Z</time>
      </trkpt>
      <trkpt lat="42.580440016463399" lon="-5.571950012817979">
        <ele>815.024</ele>
        <time>2021-07-22T18:34:17Z</time>
      </trkpt>
      <trkpt lat="42.580459965392947" lon="-5.572010027244687">
        <ele>815.02599999999995</ele>
        <time>2021-07-22T18:34:17Z</time>
      </trkpt>
      <trkpt lat="42.580559961497784" lon="-5.572110023349524">
        <ele>815.00800000000004</ele>
        <time>2021-07-22T18:34:20Z</time>
      </trkpt>
      <trkpt lat="42.580709997564554" lon="-5.572180012241006">
        <ele>815.05499999999995</ele>
        <time>2021-07-22T18:34:23Z</time>
      </trkpt>
      <trkpt lat="42.581139989197254" lon="-5.572229968383908">
        <ele>815.04600000000005</ele>
        <time>2021-07-22T18:34:30Z</time>
      </trkpt>
      <trkpt lat="42.585009997710586" lon="-5.574210025370121">
        <ele>815.04600000000005</ele>
        <time>2021-07-22T18:35:44Z</time>
      </trkpt>
      <trkpt lat="42.585279978811741" lon="-5.574449999257922">
        <ele>817.05100000000004</ele>
        <time>2021-07-22T18:35:50Z</time>
      </trkpt>
      <trkpt lat="42.585390033200383" lon="-5.574429966509342">
        <ele>817.05499999999995</ele>
        <time>2021-07-22T18:35:51Z</time>
      </trkpt>
      <trkpt lat="42.58544996380806" lon="-5.574459973722696">
        <ele>817.04700000000003</ele>
        <time>2021-07-22T18:35:53Z</time>
      </trkpt>
      <trkpt lat="42.585520036518574" lon="-5.574570028111339">
        <ele>818.08900000000006</ele>
        <time>2021-07-22T18:35:55Z</time>
      </trkpt>
      <trkpt lat="42.58592002093792" lon="-5.574740013107657">
        <ele>818.048</ele>
        <time>2021-07-22T18:36:02Z</time>
      </trkpt>
      <trkpt lat="42.586589986458421" lon="-5.575090041384101">
        <ele>815.048</ele>
        <time>2021-07-22T18:36:15Z</time>
      </trkpt>
      <trkpt lat="42.586719989776611" lon="-5.575230019167066">
        <ele>815.06100000000004</ele>
        <time>2021-07-22T18:36:18Z</time>
      </trkpt>
      <trkpt lat="42.586840018630028" lon="-5.57523999363184">
        <ele>815.01700000000005</ele>
        <time>2021-07-22T18:36:20Z</time>
      </trkpt>
      <trkpt lat="42.586880000308156" lon="-5.575279975309968">
        <ele>816.00800000000004</ele>
        <time>2021-07-22T18:36:21Z</time>
      </trkpt>
      <trkpt lat="42.595819970592856" lon="-5.579930003732443">
        <ele>827.02099999999996</ele>
        <time>2021-07-22T18:39:11Z</time>
      </trkpt>
      <trkpt lat="42.595900017768145" lon="-5.579950036481023">
        <ele>827.072</ele>
        <time>2021-07-22T18:39:13Z</time>
      </trkpt>
      <trkpt lat="42.595770014449954" lon="-5.580520005896688">
        <ele>830.05200000000002</ele>
        <time>2021-07-22T18:39:20Z</time>
      </trkpt>
      <trkpt lat="42.595459967851639" lon="-5.58157998137176">
        <ele>827.04700000000003</ele>
        <time>2021-07-22T18:39:35Z</time>
      </trkpt>
      <trkpt lat="42.595189986750484" lon="-5.582620007917285">
        <ele>824.06100000000004</ele>
        <time>2021-07-22T18:39:50Z</time>
      </trkpt>
      <trkpt lat="42.595150005072355" lon="-5.582970036193728">
        <ele>824.03300000000002</ele>
        <time>2021-07-22T18:39:54Z</time>
      </trkpt>
      <trkpt lat="42.595240026712418" lon="-5.583219984546304">
        <ele>824.02499999999998</ele>
        <time>2021-07-22T18:39:58Z</time>
      </trkpt>
      <trkpt lat="42.595199961215258" lon="-5.583470016717911">
        <ele>825.07399999999996</ele>
        <time>2021-07-22T18:40:01Z</time>
      </trkpt>
      <trkpt lat="42.595029976218939" lon="-5.58361996896565">
        <ele>824.07899999999995</ele>
        <time>2021-07-22T18:40:05Z</time>
      </trkpt>
      <trkpt lat="42.594780027866364" lon="-5.584460003301501">
        <ele>826.005</ele>
        <time>2021-07-22T18:40:17Z</time>
      </trkpt>
      <trkpt lat="42.594659999012947" lon="-5.584999965503812">
        <ele>827.02499999999998</ele>
        <time>2021-07-22T18:40:24Z</time>
      </trkpt>
      <trkpt lat="42.594710038974881" lon="-5.585119994357228">
        <ele>827.00800000000004</ele>
        <time>2021-07-22T18:40:26Z</time>
      </trkpt>
      <trkpt lat="42.59967003017664" lon="-5.585619974881411">
        <ele>834.08399999999995</ele>
        <time>2021-07-22T18:41:55Z</time>
      </trkpt>
      <trkpt lat="42.600409984588623" lon="-5.585630033165216">
        <ele>832.01499999999999</ele>
        <time>2021-07-22T18:42:08Z</time>
      </trkpt>
      <trkpt lat="42.600449966266751" lon="-5.585900014266372">
        <ele>832.06500000000005</ele>
        <time>2021-07-22T18:42:11Z</time>
      </trkpt>
      <trkpt lat="42.600630009546876" lon="-5.586169995367527">
        <ele>830.03999999999996</ele>
        <time>2021-07-22T18:42:16Z</time>
      </trkpt>
      <trkpt lat="42.601659977808595" lon="-5.587470028549433">
        <ele>833.03399999999999</ele>
        <time>2021-07-22T18:42:41Z</time>
      </trkpt>
      <trkpt lat="42.60192995890975" lon="-5.587909994646907">
        <ele>833.07600000000002</ele>
        <time>2021-07-22T18:42:49Z</time>
      </trkpt>
      <trkpt lat="42.602149983868003" lon="-5.588160026818514">
        <ele>832.02800000000002</ele>
        <time>2021-07-22T18:42:54Z</time>
      </trkpt>
      <trkpt lat="42.602349976077676" lon="-5.588190034031868">
        <ele>832.03700000000003</ele>
        <time>2021-07-22T18:42:57Z</time>
      </trkpt>
      <trkpt lat="42.602430023252964" lon="-5.588379967957735">
        <ele>831.09699999999998</ele>
        <time>2021-07-22T18:43:00Z</time>
      </trkpt>
      <trkpt lat="42.603970030322671" lon="-5.589619986712933">
        <ele>834.02300000000002</ele>
        <time>2021-07-22T18:43:32Z</time>
      </trkpt>
      <trkpt lat="42.60588001459837" lon="-5.591459982097149">
        <ele>836.02499999999998</ele>
        <time>2021-07-22T18:44:14Z</time>
      </trkpt>
      <trkpt lat="42.607529992237687" lon="-5.593380024656653">
        <ele>834.00800000000004</ele>
        <time>2021-07-22T18:44:52Z</time>
      </trkpt>
      <trkpt lat="42.608349993824959" lon="-5.594210000708699">
        <ele>838.07600000000002</ele>
        <time>2021-07-22T18:45:10Z</time>
      </trkpt>
      <trkpt lat="42.60858996771276" lon="-5.594400018453598">
        <ele>836.01700000000005</ele>
        <time>2021-07-22T18:45:15Z</time>
      </trkpt>
      <trkpt lat="42.608779985457659" lon="-5.594400018453598">
        <ele>836.09699999999998</ele>
        <time>2021-07-22T18:45:19Z</time>
      </trkpt>
      <trkpt lat="42.608930021524429" lon="-5.594479981809855">
        <ele>835.06200000000001</ele>
        <time>2021-07-22T18:45:22Z</time>
      </trkpt>
      <trkpt lat="42.60901995934546" lon="-5.594660025089979">
        <ele>834.02599999999995</ele>
        <time>2021-07-22T18:45:25Z</time>
      </trkpt>
      <trkpt lat="42.608939995989203" lon="-5.594930006191135">
        <ele>833.02800000000002</ele>
        <time>2021-07-22T18:45:28Z</time>
      </trkpt>
      <trkpt lat="42.60916999541223" lon="-5.59519998729229">
        <ele>832.05999999999995</ele>
        <time>2021-07-22T18:45:34Z</time>
      </trkpt>
      <trkpt lat="42.609950015321374" lon="-5.595919992774725">
        <ele>833.08900000000006</ele>
        <time>2021-07-22T18:45:51Z</time>
      </trkpt>
      <trkpt lat="42.611009990796447" lon="-5.597299989312887">
        <ele>833.077</ele>
        <time>2021-07-22T18:46:17Z</time>
      </trkpt>
      <trkpt lat="42.611650032922626" lon="-5.598560040816665">
        <ele>834.06100000000004</ele>
        <time>2021-07-22T18:46:37Z</time>
      </trkpt>
      <trkpt lat="42.611920014023781" lon="-5.598949966952205">
        <ele>834.02700000000004</ele>
        <time>2021-07-22T18:46:44Z</time>
      </trkpt>
      <trkpt lat="42.612150013446808" lon="-5.599090028554201">
        <ele>834.00800000000004</ele>
        <time>2021-07-22T18:46:48Z</time>
      </trkpt>
      <trkpt lat="42.61224003508687" lon="-5.599020039662719">
        <ele>834.03399999999999</ele>
        <time>2021-07-22T18:46:50Z</time>
      </trkpt>
      <trkpt lat="42.612480008974671" lon="-5.599049963057041">
        <ele>835.05499999999995</ele>
        <time>2021-07-22T18:46:54Z</time>
      </trkpt>
      <trkpt lat="42.612570030614734" lon="-5.599230006337166">
        <ele>835.09500000000003</ele>
        <time>2021-07-22T18:46:57Z</time>
      </trkpt>
      <trkpt lat="42.612549997866154" lon="-5.599399991333485">
        <ele>835.01999999999998</ele>
        <time>2021-07-22T18:46:59Z</time>
      </trkpt>
      <trkpt lat="42.612640019506216" lon="-5.599620016291738">
        <ele>835.03399999999999</ele>
        <time>2021-07-22T18:47:03Z</time>
      </trkpt>
      <trkpt lat="42.612830037251115" lon="-5.599599983543158">
        <ele>834.02599999999995</ele>
        <time>2021-07-22T18:47:06Z</time>
      </trkpt>
      <trkpt lat="42.61353000998497" lon="-5.599920004606247">
        <ele>833.08799999999997</ele>
        <time>2021-07-22T18:47:19Z</time>
      </trkpt>
      <trkpt lat="42.617289964109659" lon="-5.602380009368062">
        <ele>837.04700000000003</ele>
        <time>2021-07-22T18:48:33Z</time>
      </trkpt>
      <trkpt lat="42.618989981710911" lon="-5.603379970416427">
        <ele>838.09500000000003</ele>
        <time>2021-07-22T18:49:06Z</time>
      </trkpt>
      <trkpt lat="42.619319977238774" lon="-5.60327997431159">
        <ele>838.04899999999998</ele>
        <time>2021-07-22T18:49:12Z</time>
      </trkpt>
      <trkpt lat="42.619389966130257" lon="-5.603499999269843">
        <ele>838.02300000000002</ele>
        <time>2021-07-22T18:49:16Z</time>
      </trkpt>
      <trkpt lat="42.619370017200708" lon="-5.603650035336614">
        <ele>839.00800000000004</ele>
        <time>2021-07-22T18:49:18Z</time>
      </trkpt>
      <trkpt lat="42.621589964255691" lon="-5.605209991335869">
        <ele>840.02599999999995</ele>
        <time>2021-07-22T18:50:02Z</time>
      </trkpt>
      <trkpt lat="42.622420024126768" lon="-5.605720030143857">
        <ele>840.04700000000003</ele>
        <time>2021-07-22T18:50:18Z</time>
      </trkpt>
      <trkpt lat="42.624399997293949" lon="-5.606550006195903">
        <ele>841.04700000000003</ele>
        <time>2021-07-22T18:50:55Z</time>
      </trkpt>
      <trkpt lat="42.626190036535263" lon="-5.60718996450305">
        <ele>843.09199999999998</ele>
        <time>2021-07-22T18:51:28Z</time>
      </trkpt>
      <trkpt lat="42.62958001345396" lon="-5.608109962195158">
        <ele>844.08600000000001</ele>
        <time>2021-07-22T18:52:30Z</time>
      </trkpt>
      <trkpt lat="42.63434998691082" lon="-5.609890026971698">
        <ele>846.02800000000002</ele>
        <time>2021-07-22T18:53:58Z</time>
      </trkpt>
      <trkpt lat="42.635989990085363" lon="-5.610999958589673">
        <ele>845.03999999999996</ele>
        <time>2021-07-22T18:54:30Z</time>
      </trkpt>
      <trkpt lat="42.636270029470325" lon="-5.611089980229735">
        <ele>845.08900000000006</ele>
        <time>2021-07-22T18:54:35Z</time>
      </trkpt>
      <trkpt lat="42.636419981718063" lon="-5.611010016873479">
        <ele>845.08100000000002</ele>
        <time>2021-07-22T18:54:38Z</time>
      </trkpt>
      <trkpt lat="42.63654001057148" lon="-5.611070031300187">
        <ele>845.06100000000004</ele>
        <time>2021-07-22T18:54:40Z</time>
      </trkpt>
      <trkpt lat="42.636660039424896" lon="-5.611460041254759">
        <ele>846.01700000000005</ele>
        <time>2021-07-22T18:54:46Z</time>
      </trkpt>
      <trkpt lat="42.637929981574416" lon="-5.612339973449707">
        <ele>848.00800000000004</ele>
        <time>2021-07-22T18:55:11Z</time>
      </trkpt>
      <trkpt lat="42.639609966427088" lon="-5.613449988886714">
        <ele>849.03499999999997</ele>
        <time>2021-07-22T18:55:45Z</time>
      </trkpt>
      <trkpt lat="42.641530008986592" lon="-5.614239983260632">
        <ele>849.07600000000002</ele>
        <time>2021-07-22T18:56:20Z</time>
      </trkpt>
      <trkpt lat="42.643530014902353" lon="-5.613640006631613">
        <ele>850.01599999999996</ele>
        <time>2021-07-22T18:56:57Z</time>
      </trkpt>
      <trkpt lat="42.647019987925887" lon="-5.613660039380193">
        <ele>853.04100000000005</ele>
        <time>2021-07-22T18:57:59Z</time>
      </trkpt>
      <trkpt lat="42.651519980281591" lon="-5.616490021348">
        <ele>855.09500000000003</ele>
        <time>2021-07-22T18:59:27Z</time>
      </trkpt>
      <trkpt lat="42.653679996728897" lon="-5.618660012260079">
        <ele>857.077</ele>
        <time>2021-07-22T19:00:15Z</time>
      </trkpt>
      <trkpt lat="42.654490023851395" lon="-5.619210032746196">
        <ele>857.03899999999999</ele>
        <time>2021-07-22T19:00:31Z</time>
      </trkpt>
      <trkpt lat="42.654590019956231" lon="-5.619369959458709">
        <ele>857.08799999999997</ele>
        <time>2021-07-22T19:00:34Z</time>
      </trkpt>
      <trkpt lat="42.654820019379258" lon="-5.61964999884367">
        <ele>857.06100000000004</ele>
        <time>2021-07-22T19:00:39Z</time>
      </trkpt>
      <trkpt lat="42.658279985189438" lon="-5.622639991343021">
        <ele>860.02099999999996</ele>
        <time>2021-07-22T19:01:52Z</time>
      </trkpt>
      <trkpt lat="42.659350018948317" lon="-5.623359996825457">
        <ele>861.01300000000003</ele>
        <time>2021-07-22T19:02:13Z</time>
      </trkpt>
      <trkpt lat="42.661539958789945" lon="-5.624609990045428">
        <ele>861.00800000000004</ele>
        <time>2021-07-22T19:02:56Z</time>
      </trkpt>
      <trkpt lat="42.663420019671321" lon="-5.625599976629019">
        <ele>863.04300000000001</ele>
        <time>2021-07-22T19:03:32Z</time>
      </trkpt>
      <trkpt lat="42.663840036839247" lon="-5.625759987160564">
        <ele>863.01400000000001</ele>
        <time>2021-07-22T19:03:39Z</time>
      </trkpt>
      <trkpt lat="42.664440013468266" lon="-5.625840034335852">
        <ele>863.05399999999997</ele>
        <time>2021-07-22T19:03:50Z</time>
      </trkpt>
      <trkpt lat="42.664800016209483" lon="-5.625940030440688">
        <ele>864.03899999999999</ele>
        <time>2021-07-22T19:03:57Z</time>
      </trkpt>
      <trkpt lat="42.665100004523993" lon="-5.626200037077069">
        <ele>866.06299999999999</ele>
        <time>2021-07-22T19:04:03Z</time>
      </trkpt>
      <trkpt lat="42.665230007842183" lon="-5.626459959894419">
        <ele>867.08500000000004</ele>
        <time>2021-07-22T19:04:07Z</time>
      </trkpt>
      <trkpt lat="42.665399992838502" lon="-5.62719002366066">
        <ele>869.03700000000003</ele>
        <time>2021-07-22T19:04:17Z</time>
      </trkpt>
      <trkpt lat="42.665520021691918" lon="-5.627480037510395">
        <ele>869.06600000000003</ele>
        <time>2021-07-22T19:04:21Z</time>
      </trkpt>
      <trkpt lat="42.666219994425774" lon="-5.62807003967464">
        <ele>871.09400000000005</ele>
        <time>2021-07-22T19:04:36Z</time>
      </trkpt>
      <trkpt lat="42.666559964418411" lon="-5.628519980236888">
        <ele>872.05700000000002</ele>
        <time>2021-07-22T19:04:44Z</time>
      </trkpt>
      <trkpt lat="42.666779989376664" lon="-5.628860034048557">
        <ele>873.02200000000005</ele>
        <time>2021-07-22T19:04:50Z</time>
      </trkpt>
      <trkpt lat="42.667950019240379" lon="-5.630270037800074">
        <ele>877.00800000000004</ele>
        <time>2021-07-22T19:05:18Z</time>
      </trkpt>
      <trkpt lat="42.668220000341535" lon="-5.630700029432774">
        <ele>878.05600000000004</ele>
        <time>2021-07-22T19:05:26Z</time>
      </trkpt>
      <trkpt lat="42.668909998610616" lon="-5.632020011544228">
        <ele>883.06700000000001</ele>
        <time>2021-07-22T19:05:47Z</time>
      </trkpt>
      <trkpt lat="42.669060034677386" lon="-5.632459977641702">
        <ele>885.04700000000003</ele>
        <time>2021-07-22T19:05:53Z</time>
      </trkpt>
      <trkpt lat="42.669249968603253" lon="-5.633609974756837">
        <ele>887.072</ele>
        <time>2021-07-22T19:06:09Z</time>
      </trkpt>
      <trkpt lat="42.669409979134798" lon="-5.633929995819926">
        <ele>887.02599999999995</ele>
        <time>2021-07-22T19:06:14Z</time>
      </trkpt>
      <trkpt lat="42.6742900069803" lon="-5.63958995975554">
        <ele>897.09799999999996</ele>
        <time>2021-07-22T19:08:08Z</time>
      </trkpt>
      <trkpt lat="42.675570007413626" lon="-5.641170032322407">
        <ele>899.04999999999995</ele>
        <time>2021-07-22T19:08:38Z</time>
      </trkpt>
      <trkpt lat="42.679150002077222" lon="-5.647369958460331">
        <ele>905.05899999999997</ele>
        <time>2021-07-22T19:10:22Z</time>
      </trkpt>
      <trkpt lat="42.679579993709922" lon="-5.648070015013218">
        <ele>905.06899999999996</ele>
        <time>2021-07-22T19:10:34Z</time>
      </trkpt>
      <trkpt lat="42.680030018091202" lon="-5.64854996278882">
        <ele>906.00400000000002</ele>
        <time>2021-07-22T19:10:44Z</time>
      </trkpt>
      <trkpt lat="42.681329967454076" lon="-5.649380022659898">
        <ele>913.024</ele>
        <time>2021-07-22T19:11:09Z</time>
      </trkpt>
      <trkpt lat="42.681730035692453" lon="-5.649780007079244">
        <ele>916.00800000000004</ele>
        <time>2021-07-22T19:11:18Z</time>
      </trkpt>
      <trkpt lat="42.682209983468056" lon="-5.650500012561679">
        <ele>922.08299999999997</ele>
        <time>2021-07-22T19:11:31Z</time>
      </trkpt>
      <trkpt lat="42.682620026171207" lon="-5.651239966973662">
        <ele>926.05399999999997</ele>
        <time>2021-07-22T19:11:43Z</time>
      </trkpt>
      <trkpt lat="42.682860000059009" lon="-5.651770038530231">
        <ele>929.03399999999999</ele>
        <time>2021-07-22T19:11:51Z</time>
      </trkpt>
      <trkpt lat="42.68312000669539" lon="-5.652709985151887">
        <ele>934.05899999999997</ele>
        <time>2021-07-22T19:12:04Z</time>
      </trkpt>
      <trkpt lat="42.683389987796545" lon="-5.654110014438629">
        <ele>939.053</ele>
        <time>2021-07-22T19:12:23Z</time>
      </trkpt>
      <trkpt lat="42.683689976111054" lon="-5.65525003708899">
        <ele>942.07500000000005</ele>
        <time>2021-07-22T19:12:39Z</time>
      </trkpt>
      <trkpt lat="42.683949982747436" lon="-5.65611002035439">
        <ele>947.077</ele>
        <time>2021-07-22T19:12:51Z</time>
      </trkpt>
      <trkpt lat="42.68413002602756" lon="-5.656600026413798">
        <ele>952.06600000000003</ele>
        <time>2021-07-22T19:12:58Z</time>
      </trkpt>
      <trkpt lat="42.684420039877295" lon="-5.657109981402755">
        <ele>955.04300000000001</ele>
        <time>2021-07-22T19:13:07Z</time>
      </trkpt>
      <trkpt lat="42.685450008139014" lon="-5.658350000157952">
        <ele>965.06399999999996</ele>
        <time>2021-07-22T19:13:31Z</time>
      </trkpt>
      <trkpt lat="42.686089966446161" lon="-5.659249965101481">
        <ele>969.00999999999999</ele>
        <time>2021-07-22T19:13:48Z</time>
      </trkpt>
      <trkpt lat="42.691169986501336" lon="-5.667779976502061">
        <ele>998.00800000000004</ele>
        <time>2021-07-22T19:16:11Z</time>
      </trkpt>
      <trkpt lat="42.692219987511635" lon="-5.669579990208149">
        <ele>1005.011</ele>
        <time>2021-07-22T19:16:41Z</time>
      </trkpt>
      <trkpt lat="42.692370023578405" lon="-5.669970000162721">
        <ele>1007.082</ele>
        <time>2021-07-22T19:16:47Z</time>
      </trkpt>
      <trkpt lat="42.692470019683242" lon="-5.670360010117292">
        <ele>1008.0119999999999</ele>
        <time>2021-07-22T19:16:52Z</time>
      </trkpt>
      <trkpt lat="42.692560041323304" lon="-5.670929979532957">
        <ele>1009.057</ele>
        <time>2021-07-22T19:17:00Z</time>
      </trkpt>
      <trkpt lat="42.692549983039498" lon="-5.671610003337264">
        <ele>1011.021</ele>
        <time>2021-07-22T19:17:09Z</time>
      </trkpt>
      <trkpt lat="42.692470019683242" lon="-5.672499993816018">
        <ele>1016.013</ele>
        <time>2021-07-22T19:17:21Z</time>
      </trkpt>
      <trkpt lat="42.692449986934662" lon="-5.673110028728843">
        <ele>1017.015</ele>
        <time>2021-07-22T19:17:29Z</time>
      </trkpt>
      <trkpt lat="42.692830022424459" lon="-5.67722998559475">
        <ele>1026.0340000000001</ele>
        <time>2021-07-22T19:18:23Z</time>
      </trkpt>
      <trkpt lat="42.693030014634132" lon="-5.678160041570664">
        <ele>1029.087</ele>
        <time>2021-07-22T19:18:36Z</time>
      </trkpt>
      <trkpt lat="42.693290021270514" lon="-5.679029999300838">
        <ele>1034.0419999999999</ele>
        <time>2021-07-22T19:18:48Z</time>
      </trkpt>
      <trkpt lat="42.695230012759566" lon="-5.683859987184405">
        <ele>1049.0260000000001</ele>
        <time>2021-07-22T19:20:00Z</time>
      </trkpt>
      <trkpt lat="42.695950018242002" lon="-5.685590011999011">
        <ele>1057.008</ele>
        <time>2021-07-22T19:20:26Z</time>
      </trkpt>
      <trkpt lat="42.696350002661347" lon="-5.68674998357892">
        <ele>1063.095</ele>
        <time>2021-07-22T19:20:43Z</time>
      </trkpt>
      <trkpt lat="42.697550039738417" lon="-5.691430019214749">
        <ele>1072.046</ele>
        <time>2021-07-22T19:21:47Z</time>
      </trkpt>
      <trkpt lat="42.698959959670901" lon="-5.695070028305054">
        <ele>1077.046</ele>
        <time>2021-07-22T19:22:41Z</time>
      </trkpt>
      <trkpt lat="42.702599968761206" lon="-5.704119969159365">
        <ele>1089.0509999999999</ele>
        <time>2021-07-22T19:24:56Z</time>
      </trkpt>
      <trkpt lat="42.705549979582429" lon="-5.710679981857538">
        <ele>1101.0150000000001</ele>
        <time>2021-07-22T19:26:37Z</time>
      </trkpt>
      <trkpt lat="42.705920040607452" lon="-5.711390012875199">
        <ele>1103.0170000000001</ele>
        <time>2021-07-22T19:26:48Z</time>
      </trkpt>
      <trkpt lat="42.710239989683032" lon="-5.717460019513965">
        <ele>1112.059</ele>
        <time>2021-07-22T19:28:39Z</time>
      </trkpt>
      <trkpt lat="42.71062002517283" lon="-5.717960000038147">
        <ele>1112.068</ele>
        <time>2021-07-22T19:28:48Z</time>
      </trkpt>
      <trkpt lat="42.710660006850958" lon="-5.719779962673783">
        <ele>1113.057</ele>
        <time>2021-07-22T19:29:12Z</time>
      </trkpt>
      <trkpt lat="42.710929987952113" lon="-5.728190029039979">
        <ele>1115</ele>
        <time>2021-07-22T19:31:02Z</time>
      </trkpt>
      <trkpt lat="42.710990002378821" lon="-5.728680035099387">
        <ele>1113.02</ele>
        <time>2021-07-22T19:31:08Z</time>
      </trkpt>
      <trkpt lat="42.711150012910366" lon="-5.729319993406534">
        <ele>1109.008</ele>
        <time>2021-07-22T19:31:17Z</time>
      </trkpt>
      <trkpt lat="42.711410019546747" lon="-5.729949977248907">
        <ele>1105.0319999999999</ele>
        <time>2021-07-22T19:31:27Z</time>
      </trkpt>
      <trkpt lat="42.711619986221194" lon="-5.730330012738705">
        <ele>1102.0830000000001</ele>
        <time>2021-07-22T19:31:33Z</time>
      </trkpt>
      <trkpt lat="42.711979988962412" lon="-5.730780037119985">
        <ele>1100.0830000000001</ele>
        <time>2021-07-22T19:31:41Z</time>
      </trkpt>
      <trkpt lat="42.712239995598793" lon="-5.73102998547256">
        <ele>1098.028</ele>
        <time>2021-07-22T19:31:47Z</time>
      </trkpt>
      <trkpt lat="42.713369959965348" lon="-5.731810005381703">
        <ele>1089.0820000000001</ele>
        <time>2021-07-22T19:32:10Z</time>
      </trkpt>
      <trkpt lat="42.713680006563663" lon="-5.732140000909567">
        <ele>1085.0640000000001</ele>
        <time>2021-07-22T19:32:17Z</time>
      </trkpt>
      <trkpt lat="42.713840017095208" lon="-5.732400007545948">
        <ele>1082.0160000000001</ele>
        <time>2021-07-22T19:32:21Z</time>
      </trkpt>
      <trkpt lat="42.714000027626753" lon="-5.732809966430068">
        <ele>1081.0150000000001</ele>
        <time>2021-07-22T19:32:27Z</time>
      </trkpt>
      <trkpt lat="42.714119972661138" lon="-5.733320005238056">
        <ele>1082.0229999999999</ele>
        <time>2021-07-22T19:32:34Z</time>
      </trkpt>
      <trkpt lat="42.714140005409718" lon="-5.733910007402301">
        <ele>1083.0830000000001</ele>
        <time>2021-07-22T19:32:42Z</time>
      </trkpt>
      <trkpt lat="42.714079990983009" lon="-5.734439995139837">
        <ele>1086.011</ele>
        <time>2021-07-22T19:32:49Z</time>
      </trkpt>
      <trkpt lat="42.713930038735271" lon="-5.734890019521117">
        <ele>1091.008</ele>
        <time>2021-07-22T19:32:55Z</time>
      </trkpt>
      <trkpt lat="42.713789977133274" lon="-5.735190007835627">
        <ele>1094.029</ele>
        <time>2021-07-22T19:33:00Z</time>
      </trkpt>
      <trkpt lat="42.713369959965348" lon="-5.735889980569482">
        <ele>1098.0699999999999</ele>
        <time>2021-07-22T19:33:12Z</time>
      </trkpt>
      <trkpt lat="42.713220007717609" lon="-5.736219976097345">
        <ele>1102.02</ele>
        <time>2021-07-22T19:33:17Z</time>
      </trkpt>
      <trkpt lat="42.713080029934645" lon="-5.736849959939718">
        <ele>1108.0550000000001</ele>
        <time>2021-07-22T19:33:26Z</time>
      </trkpt>
      <trkpt lat="42.713080029934645" lon="-5.73726000264287">
        <ele>1111.019</ele>
        <time>2021-07-22T19:33:31Z</time>
      </trkpt>
      <trkpt lat="42.713159993290901" lon="-5.737819997593761">
        <ele>1113.0909999999999</ele>
        <time>2021-07-22T19:33:38Z</time>
      </trkpt>
      <trkpt lat="42.713359985500574" lon="-5.738560035824776">
        <ele>1115.0730000000001</ele>
        <time>2021-07-22T19:33:49Z</time>
      </trkpt>
      <trkpt lat="42.719639958813787" lon="-5.764170018956065">
        <ele>1122.0719999999999</ele>
        <time>2021-07-22T19:39:42Z</time>
      </trkpt>
      <trkpt lat="42.719859983772039" lon="-5.764730013906956">
        <ele>1121.049</ele>
        <time>2021-07-22T19:39:50Z</time>
      </trkpt>
      <trkpt lat="42.720909984782338" lon="-5.766679979860783">
        <ele>1110.002</ele>
        <time>2021-07-22T19:40:22Z</time>
      </trkpt>
      <trkpt lat="42.721069995313883" lon="-5.766860023140907">
        <ele>1109.0219999999999</ele>
        <time>2021-07-22T19:40:25Z</time>
      </trkpt>
      <trkpt lat="42.721250038594007" lon="-5.767000000923872">
        <ele>1107.008</ele>
        <time>2021-07-22T19:40:29Z</time>
      </trkpt>
      <trkpt lat="42.723269993439317" lon="-5.767840035259724">
        <ele>1088.0809999999999</ele>
        <time>2021-07-22T19:41:06Z</time>
      </trkpt>
      <trkpt lat="42.723420029506087" lon="-5.767989987507463">
        <ele>1087.0119999999999</ele>
        <time>2021-07-22T19:41:10Z</time>
      </trkpt>
      <trkpt lat="42.723520025610924" lon="-5.768170030787587">
        <ele>1087.0219999999999</ele>
        <time>2021-07-22T19:41:13Z</time>
      </trkpt>
      <trkpt lat="42.723569981753826" lon="-5.768359964713454">
        <ele>1088.067</ele>
        <time>2021-07-22T19:41:15Z</time>
      </trkpt>
      <trkpt lat="42.723590014502406" lon="-5.768640004098415">
        <ele>1083.0609999999999</ele>
        <time>2021-07-22T19:41:19Z</time>
      </trkpt>
      <trkpt lat="42.723530000075698" lon="-5.768879977986217">
        <ele>1081.0930000000001</ele>
        <time>2021-07-22T19:41:22Z</time>
      </trkpt>
      <trkpt lat="42.723409971222281" lon="-5.769090028479695">
        <ele>1081.0650000000001</ele>
        <time>2021-07-22T19:41:26Z</time>
      </trkpt>
      <trkpt lat="42.723070001229644" lon="-5.769509961828589">
        <ele>1082.0840000000001</ele>
        <time>2021-07-22T19:41:34Z</time>
      </trkpt>
      <trkpt lat="42.722990037873387" lon="-5.76965999789536">
        <ele>1082.079</ele>
        <time>2021-07-22T19:41:36Z</time>
      </trkpt>
      <trkpt lat="42.722939997911453" lon="-5.769850015640259">
        <ele>1081.0050000000001</ele>
        <time>2021-07-22T19:41:39Z</time>
      </trkpt>
      <trkpt lat="42.722919965162873" lon="-5.770719973370433">
        <ele>1071.0250000000001</ele>
        <time>2021-07-22T19:41:50Z</time>
      </trkpt>
      <trkpt lat="42.722830027341843" lon="-5.77099003829062">
        <ele>1070.008</ele>
        <time>2021-07-22T19:41:54Z</time>
      </trkpt>
      <trkpt lat="42.722649984061718" lon="-5.771390022709966">
        <ele>1070.0840000000001</ele>
        <time>2021-07-22T19:42:00Z</time>
      </trkpt>
      <trkpt lat="42.72261000238359" lon="-5.771629996597767">
        <ele>1068.0150000000001</ele>
        <time>2021-07-22T19:42:04Z</time>
      </trkpt>
      <trkpt lat="42.72261000238359" lon="-5.77195999212563">
        <ele>1068.075</ele>
        <time>2021-07-22T19:42:08Z</time>
      </trkpt>
      <trkpt lat="42.722689965739846" lon="-5.772250005975366">
        <ele>1067.02</ele>
        <time>2021-07-22T19:42:12Z</time>
      </trkpt>
      <trkpt lat="42.723090033978224" lon="-5.772930029779673">
        <ele>1060.0440000000001</ele>
        <time>2021-07-22T19:42:23Z</time>
      </trkpt>
      <trkpt lat="42.723320033401251" lon="-5.773479966446757">
        <ele>1056.096</ele>
        <time>2021-07-22T19:42:32Z</time>
      </trkpt>
      <trkpt lat="42.72346998564899" lon="-5.77412998303771">
        <ele>1049.068</ele>
        <time>2021-07-22T19:42:41Z</time>
      </trkpt>
      <trkpt lat="42.723550032824278" lon="-5.77498996630311">
        <ele>1044.037</ele>
        <time>2021-07-22T19:42:52Z</time>
      </trkpt>
      <trkpt lat="42.723759999498725" lon="-5.775579968467355">
        <ele>1041.019</ele>
        <time>2021-07-22T19:43:01Z</time>
      </trkpt>
      <trkpt lat="42.723850021138787" lon="-5.775920022279024">
        <ele>1039.009</ele>
        <time>2021-07-22T19:43:05Z</time>
      </trkpt>
      <trkpt lat="42.723880028352141" lon="-5.776599962264299">
        <ele>1035.019</ele>
        <time>2021-07-22T19:43:14Z</time>
      </trkpt>
      <trkpt lat="42.723939958959818" lon="-5.776959965005517">
        <ele>1035.008</ele>
        <time>2021-07-22T19:43:19Z</time>
      </trkpt>
      <trkpt lat="42.724189991131425" lon="-5.777660021558404">
        <ele>1030.018</ele>
        <time>2021-07-22T19:43:29Z</time>
      </trkpt>
      <trkpt lat="42.724270038306713" lon="-5.77819000929594">
        <ele>1028.049</ele>
        <time>2021-07-22T19:43:36Z</time>
      </trkpt>
      <trkpt lat="42.724270038306713" lon="-5.778670040890575">
        <ele>1026.029</ele>
        <time>2021-07-22T19:43:42Z</time>
      </trkpt>
      <trkpt lat="42.724099969491363" lon="-5.779519965872169">
        <ele>1025.0940000000001</ele>
        <time>2021-07-22T19:43:54Z</time>
      </trkpt>
      <trkpt lat="42.724080020561814" lon="-5.779739990830421">
        <ele>1024.058</ele>
        <time>2021-07-22T19:43:57Z</time>
      </trkpt>
      <trkpt lat="42.724110027775168" lon="-5.780120026320219">
        <ele>1021.08</ele>
        <time>2021-07-22T19:44:02Z</time>
      </trkpt>
      <trkpt lat="42.724180016666651" lon="-5.780539959669113">
        <ele>1020.022</ele>
        <time>2021-07-22T19:44:08Z</time>
      </trkpt>
      <trkpt lat="42.724159983918071" lon="-5.78121998347342">
        <ele>1021.061</ele>
        <time>2021-07-22T19:44:16Z</time>
      </trkpt>
      <trkpt lat="42.724389983341098" lon="-5.782160013914108">
        <ele>1015.093</ele>
        <time>2021-07-22T19:44:29Z</time>
      </trkpt>
      <trkpt lat="42.724519986659288" lon="-5.782999964430928">
        <ele>1012.0650000000001</ele>
        <time>2021-07-22T19:44:41Z</time>
      </trkpt>
      <trkpt lat="42.72475996054709" lon="-5.784039990976453">
        <ele>1006.021</ele>
        <time>2021-07-22T19:44:55Z</time>
      </trkpt>
      <trkpt lat="42.724879989400506" lon="-5.784390019252896">
        <ele>1002.008</ele>
        <time>2021-07-22T19:45:00Z</time>
      </trkpt>
      <trkpt lat="42.72523001767695" lon="-5.78517003916204">
        <ele>996.02599999999995</ele>
        <time>2021-07-22T19:45:12Z</time>
      </trkpt>
      <trkpt lat="42.72536002099514" lon="-5.785540016368032">
        <ele>993.08699999999999</ele>
        <time>2021-07-22T19:45:17Z</time>
      </trkpt>
      <trkpt lat="42.725560013204813" lon="-5.786320036277175">
        <ele>988.09699999999998</ele>
        <time>2021-07-22T19:45:28Z</time>
      </trkpt>
      <trkpt lat="42.725839968770742" lon="-5.78704004175961">
        <ele>982.072</ele>
        <time>2021-07-22T19:45:39Z</time>
      </trkpt>
      <trkpt lat="42.727309986948967" lon="-5.790019975975156">
        <ele>962.05600000000004</ele>
        <time>2021-07-22T19:46:26Z</time>
      </trkpt>
      <trkpt lat="42.727820025756955" lon="-5.790400011464953">
        <ele>958.02800000000002</ele>
        <time>2021-07-22T19:46:36Z</time>
      </trkpt>
      <trkpt lat="42.727969978004694" lon="-5.790679967030883">
        <ele>957.01999999999998</ele>
        <time>2021-07-22T19:46:40Z</time>
      </trkpt>
      <trkpt lat="42.728289999067783" lon="-5.791750000789762">
        <ele>954.03899999999999</ele>
        <time>2021-07-22T19:46:56Z</time>
      </trkpt>
      <trkpt lat="42.728440035134554" lon="-5.792100029066205">
        <ele>953.03499999999997</ele>
        <time>2021-07-22T19:47:01Z</time>
      </trkpt>
      <trkpt lat="42.727760011330247" lon="-5.792660024017096">
        <ele>949.08600000000001</ele>
        <time>2021-07-22T19:47:15Z</time>
      </trkpt>
      <trkpt lat="42.725539980456233" lon="-5.793710025027394">
        <ele>945.01400000000001</ele>
        <time>2021-07-22T19:47:57Z</time>
      </trkpt>
      <trkpt lat="42.722199959680438" lon="-5.79451996833086">
        <ele>949.00800000000004</ele>
        <time>2021-07-22T19:48:57Z</time>
      </trkpt>
      <trkpt lat="42.721999967470765" lon="-5.794609989970923">
        <ele>950.03999999999996</ele>
        <time>2021-07-22T19:49:01Z</time>
      </trkpt>
      <trkpt lat="42.721799975261092" lon="-5.794779974967241">
        <ele>950.03099999999995</ele>
        <time>2021-07-22T19:49:05Z</time>
      </trkpt>
      <trkpt lat="42.7210000064224" lon="-5.795889990404248">
        <ele>948.02099999999996</ele>
        <time>2021-07-22T19:49:25Z</time>
      </trkpt>
      <trkpt lat="42.718400023877621" lon="-5.798119995743036">
        <ele>943.01599999999996</ele>
        <time>2021-07-22T19:50:20Z</time>
      </trkpt>
      <trkpt lat="42.713069971650839" lon="-5.805739983916283">
        <ele>940.01999999999998</ele>
        <time>2021-07-22T19:52:38Z</time>
      </trkpt>
      <trkpt lat="42.712669987231493" lon="-5.806280029937625">
        <ele>940.01199999999994</ele>
        <time>2021-07-22T19:52:48Z</time>
      </trkpt>
      <trkpt lat="42.712460020557046" lon="-5.80644004046917">
        <ele>939.024</ele>
        <time>2021-07-22T19:52:52Z</time>
      </trkpt>
      <trkpt lat="42.712249970063567" lon="-5.80655001103878">
        <ele>939.07299999999998</ele>
        <time>2021-07-22T19:52:56Z</time>
      </trkpt>
      <trkpt lat="42.710629999637604" lon="-5.80700003542006">
        <ele>938.01800000000003</ele>
        <time>2021-07-22T19:53:25Z</time>
      </trkpt>
      <trkpt lat="42.710230015218258" lon="-5.807140013203025">
        <ele>937.09799999999996</ele>
        <time>2021-07-22T19:53:33Z</time>
      </trkpt>
      <trkpt lat="42.704130001366138" lon="-5.810740040615201">
        <ele>931.01700000000005</ele>
        <time>2021-07-22T19:55:31Z</time>
      </trkpt>
      <trkpt lat="42.703219978138804" lon="-5.811229962855578">
        <ele>933.00800000000004</ele>
        <time>2021-07-22T19:55:48Z</time>
      </trkpt>
      <trkpt lat="42.702840026468039" lon="-5.81134001724422">
        <ele>932.048</ele>
        <time>2021-07-22T19:55:55Z</time>
      </trkpt>
      <trkpt lat="42.70179002545774" lon="-5.811379998922348">
        <ele>932.07899999999995</ele>
        <time>2021-07-22T19:56:14Z</time>
      </trkpt>
      <trkpt lat="42.70136003382504" lon="-5.811510002240539">
        <ele>933.05899999999997</ele>
        <time>2021-07-22T19:56:22Z</time>
      </trkpt>
      <trkpt lat="42.701160041615367" lon="-5.811640005558729">
        <ele>933.024</ele>
        <time>2021-07-22T19:56:26Z</time>
      </trkpt>
      <trkpt lat="42.700900034978986" lon="-5.811890037730336">
        <ele>933.06799999999998</ele>
        <time>2021-07-22T19:56:31Z</time>
      </trkpt>
      <trkpt lat="42.700180029496551" lon="-5.812790002673864">
        <ele>931.02999999999997</ele>
        <time>2021-07-22T19:56:49Z</time>
      </trkpt>
      <trkpt lat="42.699060039594769" lon="-5.814039995893836">
        <ele>934.09199999999998</ele>
        <time>2021-07-22T19:57:15Z</time>
      </trkpt>
      <trkpt lat="42.698759967461228" lon="-5.814320035278797">
        <ele>934.08100000000002</ele>
        <time>2021-07-22T19:57:21Z</time>
      </trkpt>
      <trkpt lat="42.697769980877638" lon="-5.81482001580298">
        <ele>935.01300000000003</ele>
        <time>2021-07-22T19:57:40Z</time>
      </trkpt>
      <trkpt lat="42.69727997481823" lon="-5.81495001912117">
        <ele>936.04300000000001</ele>
        <time>2021-07-22T19:57:49Z</time>
      </trkpt>
      <trkpt lat="42.697200011461973" lon="-5.815020008012652">
        <ele>936.00699999999995</ele>
        <time>2021-07-22T19:57:50Z</time>
      </trkpt>
      <trkpt lat="42.697090040892363" lon="-5.815280014649034">
        <ele>934.00800000000004</ele>
        <time>2021-07-22T19:57:54Z</time>
      </trkpt>
      <trkpt lat="42.69684998318553" lon="-5.815610010176897">
        <ele>932.01800000000003</ele>
        <time>2021-07-22T19:58:00Z</time>
      </trkpt>
      <trkpt lat="42.696329969912767" lon="-5.815919972956181">
        <ele>928.04899999999998</ele>
        <time>2021-07-22T19:58:11Z</time>
      </trkpt>
      <trkpt lat="42.695680037140846" lon="-5.816049976274371">
        <ele>926.09900000000005</ele>
        <time>2021-07-22T19:58:22Z</time>
      </trkpt>
      <trkpt lat="42.694960031658411" lon="-5.816040001809597">
        <ele>926.024</ele>
        <time>2021-07-22T19:58:35Z</time>
      </trkpt>
      <trkpt lat="42.694600028917193" lon="-5.816149972379208">
        <ele>928.06799999999998</ele>
        <time>2021-07-22T19:58:42Z</time>
      </trkpt>
      <trkpt lat="42.692890036851168" lon="-5.816959999501705">
        <ele>924.01999999999998</ele>
        <time>2021-07-22T19:59:14Z</time>
      </trkpt>
      <trkpt lat="42.690630024299026" lon="-5.817559976130724">
        <ele>925.09199999999998</ele>
        <time>2021-07-22T19:59:55Z</time>
      </trkpt>
      <trkpt lat="42.686980040743947" lon="-5.818270007148385">
        <ele>925.09100000000001</ele>
        <time>2021-07-22T20:01:00Z</time>
      </trkpt>
      <trkpt lat="42.683410020545125" lon="-5.81939997151494">
        <ele>922.08199999999999</ele>
        <time>2021-07-22T20:02:06Z</time>
      </trkpt>
      <trkpt lat="42.683059992268682" lon="-5.819480018690229">
        <ele>923.04300000000001</ele>
        <time>2021-07-22T20:02:12Z</time>
      </trkpt>
      <trkpt lat="42.681679995730519" lon="-5.81931003369391">
        <ele>931.01700000000005</ele>
        <time>2021-07-22T20:02:37Z</time>
      </trkpt>
      <trkpt lat="42.680399995297194" lon="-5.819469960406423">
        <ele>931.00800000000004</ele>
        <time>2021-07-22T20:03:00Z</time>
      </trkpt>
      <trkpt lat="42.679500030353665" lon="-5.819670036435127">
        <ele>929.02499999999998</ele>
        <time>2021-07-22T20:03:16Z</time>
      </trkpt>
      <trkpt lat="42.678120033815503" lon="-5.820219973102212">
        <ele>924.07600000000002</ele>
        <time>2021-07-22T20:03:41Z</time>
      </trkpt>
      <trkpt lat="42.677909983322024" lon="-5.820270013064146">
        <ele>923.08600000000001</ele>
        <time>2021-07-22T20:03:45Z</time>
      </trkpt>
      <trkpt lat="42.677700016647577" lon="-5.820270013064146">
        <ele>923.06100000000004</ele>
        <time>2021-07-22T20:03:49Z</time>
      </trkpt>
      <trkpt lat="42.671160036697984" lon="-5.819650003686547">
        <ele>921.08500000000004</ele>
        <time>2021-07-22T20:05:45Z</time>
      </trkpt>
      <trkpt lat="42.668629959225655" lon="-5.819380022585392">
        <ele>917.05700000000002</ele>
        <time>2021-07-22T20:06:31Z</time>
      </trkpt>
      <trkpt lat="42.668429967015982" lon="-5.819389997050166">
        <ele>916.05899999999997</ele>
        <time>2021-07-22T20:06:34Z</time>
      </trkpt>
      <trkpt lat="42.667320035398006" lon="-5.819629970937967">
        <ele>914.05799999999999</ele>
        <time>2021-07-22T20:06:54Z</time>
      </trkpt>
      <trkpt lat="42.667070003226399" lon="-5.819640029221773">
        <ele>914.08399999999995</ele>
        <time>2021-07-22T20:06:59Z</time>
      </trkpt>
      <trkpt lat="42.666909992694855" lon="-5.819550007581711">
        <ele>914.00699999999995</ele>
        <time>2021-07-22T20:07:02Z</time>
      </trkpt>
      <trkpt lat="42.666779989376664" lon="-5.8194400370121">
        <ele>915.01700000000005</ele>
        <time>2021-07-22T20:07:04Z</time>
      </trkpt>
      <trkpt lat="42.666740007698536" lon="-5.819359989836812">
        <ele>915.00800000000004</ele>
        <time>2021-07-22T20:07:06Z</time>
      </trkpt>
      <trkpt lat="42.666429961100221" lon="-5.819039968773723">
        <ele>915.06500000000005</ele>
        <time>2021-07-22T20:07:13Z</time>
      </trkpt>
      <trkpt lat="42.664479995146394" lon="-5.817780001088977">
        <ele>916.03599999999994</ele>
        <time>2021-07-22T20:07:51Z</time>
      </trkpt>
      <trkpt lat="42.66316001303494" lon="-5.817010039463639">
        <ele>918.096</ele>
        <time>2021-07-22T20:08:17Z</time>
      </trkpt>
      <trkpt lat="42.662500021979213" lon="-5.816739974543452">
        <ele>916.05100000000004</ele>
        <time>2021-07-22T20:08:29Z</time>
      </trkpt>
      <trkpt lat="42.661369973793626" lon="-5.816539982333779">
        <ele>914.08500000000004</ele>
        <time>2021-07-22T20:08:49Z</time>
      </trkpt>
      <trkpt lat="42.660040017217398" lon="-5.81621996127069">
        <ele>914.077</ele>
        <time>2021-07-22T20:09:13Z</time>
      </trkpt>
      <trkpt lat="42.65534003265202" lon="-5.814260020852089">
        <ele>910.029</ele>
        <time>2021-07-22T20:10:41Z</time>
      </trkpt>
      <trkpt lat="42.653840007260442" lon="-5.813150005415082">
        <ele>912.06799999999998</ele>
        <time>2021-07-22T20:11:11Z</time>
      </trkpt>
      <trkpt lat="42.653640015050769" lon="-5.813069958239794">
        <ele>913.07500000000005</ele>
        <time>2021-07-22T20:11:15Z</time>
      </trkpt>
      <trkpt lat="42.653459971770644" lon="-5.813069958239794">
        <ele>913.02800000000002</ele>
        <time>2021-07-22T20:11:18Z</time>
      </trkpt>
      <trkpt lat="42.652750024572015" lon="-5.813250001519918">
        <ele>908.01999999999998</ele>
        <time>2021-07-22T20:11:31Z</time>
      </trkpt>
      <trkpt lat="42.652469985187054" lon="-5.813289983198047">
        <ele>908.00800000000004</ele>
        <time>2021-07-22T20:11:36Z</time>
      </trkpt>
      <trkpt lat="42.652200004085898" lon="-5.813250001519918">
        <ele>908.01400000000001</ele>
        <time>2021-07-22T20:11:41Z</time>
      </trkpt>
      <trkpt lat="42.650790000334382" lon="-5.812580035999417">
        <ele>911.01499999999999</ele>
        <time>2021-07-22T20:12:07Z</time>
      </trkpt>
      <trkpt lat="42.650529993698001" lon="-5.812529996037483">
        <ele>911.02499999999998</ele>
        <time>2021-07-22T20:12:12Z</time>
      </trkpt>
      <trkpt lat="42.647949960082769" lon="-5.812360011041164">
        <ele>905.05999999999995</ele>
        <time>2021-07-22T20:12:58Z</time>
      </trkpt>
      <trkpt lat="42.647530026733875" lon="-5.812290022149682">
        <ele>905.03399999999999</ele>
        <time>2021-07-22T20:13:05Z</time>
      </trkpt>
      <trkpt lat="42.639539977535605" lon="-5.809359960258007">
        <ele>907.03599999999994</ele>
        <time>2021-07-22T20:15:33Z</time>
      </trkpt>
      <trkpt lat="42.637599986046553" lon="-5.808689994737506">
        <ele>904.05799999999999</ele>
        <time>2021-07-22T20:16:08Z</time>
      </trkpt>
      <trkpt lat="42.634129961952567" lon="-5.808039978146553">
        <ele>896.05700000000002</ele>
        <time>2021-07-22T20:17:11Z</time>
      </trkpt>
      <trkpt lat="42.624580040574074" lon="-5.806169975548983">
        <ele>893.03599999999994</ele>
        <time>2021-07-22T20:20:02Z</time>
      </trkpt>
      <trkpt lat="42.621519975364208" lon="-5.805600006133318">
        <ele>898.01700000000005</ele>
        <time>2021-07-22T20:20:57Z</time>
      </trkpt>
      <trkpt lat="42.621270027011633" lon="-5.805569998919964">
        <ele>899.01800000000003</ele>
        <time>2021-07-22T20:21:02Z</time>
      </trkpt>
      <trkpt lat="42.621019994840026" lon="-5.805569998919964">
        <ele>900.00800000000004</ele>
        <time>2021-07-22T20:21:06Z</time>
      </trkpt>
      <trkpt lat="42.616889979690313" lon="-5.806689988821745">
        <ele>896.00999999999999</ele>
        <time>2021-07-22T20:22:21Z</time>
      </trkpt>
      <trkpt lat="42.615370005369186" lon="-5.806759977713227">
        <ele>893.04100000000005</ele>
        <time>2021-07-22T20:22:48Z</time>
      </trkpt>
      <trkpt lat="42.60858996771276" lon="-5.807159962132573">
        <ele>882.09100000000001</ele>
        <time>2021-07-22T20:24:49Z</time>
      </trkpt>
      <trkpt lat="42.60820004157722" lon="-5.807200027629733">
        <ele>882.05600000000004</ele>
        <time>2021-07-22T20:24:56Z</time>
      </trkpt>
      <trkpt lat="42.599949985742569" lon="-5.809909980744124">
        <ele>877.07000000000005</ele>
        <time>2021-07-22T20:27:27Z</time>
      </trkpt>
      <trkpt lat="42.59006998501718" lon="-5.814439980313182">
        <ele>873.06200000000001</ele>
        <time>2021-07-22T20:30:32Z</time>
      </trkpt>
      <trkpt lat="42.589839985594153" lon="-5.81452002748847">
        <ele>873.05399999999997</ele>
        <time>2021-07-22T20:30:37Z</time>
      </trkpt>
      <trkpt lat="42.589019984006882" lon="-5.814599990844727">
        <ele>874.09299999999996</ele>
        <time>2021-07-22T20:30:51Z</time>
      </trkpt>
      <trkpt lat="42.588770035654306" lon="-5.814839964732528">
        <ele>874.072</ele>
        <time>2021-07-22T20:30:57Z</time>
      </trkpt>
      <trkpt lat="42.588750002905726" lon="-5.814980026334524">
        <ele>874.01300000000003</ele>
        <time>2021-07-22T20:30:59Z</time>
      </trkpt>
      <trkpt lat="42.588610025122762" lon="-5.815180018544197">
        <ele>873.01400000000001</ele>
        <time>2021-07-22T20:31:02Z</time>
      </trkpt>
      <trkpt lat="42.588529977947474" lon="-5.815220000222325">
        <ele>873.00800000000004</ele>
        <time>2021-07-22T20:31:04Z</time>
      </trkpt>
      <trkpt lat="42.588359992951155" lon="-5.815199967473745">
        <ele>874.08399999999995</ele>
        <time>2021-07-22T20:31:07Z</time>
      </trkpt>
      <trkpt lat="42.588239964097738" lon="-5.815080022439361">
        <ele>874.06500000000005</ele>
        <time>2021-07-22T20:31:09Z</time>
      </trkpt>
      <trkpt lat="42.588039971888065" lon="-5.815210025757551">
        <ele>873.08500000000004</ele>
        <time>2021-07-22T20:31:13Z</time>
      </trkpt>
      <trkpt lat="42.58779002353549" lon="-5.815440025180578">
        <ele>873.05999999999995</ele>
        <time>2021-07-22T20:31:19Z</time>
      </trkpt>
      <trkpt lat="42.587430020794272" lon="-5.815659966319799">
        <ele>873.01400000000001</ele>
        <time>2021-07-22T20:31:26Z</time>
      </trkpt>
      <trkpt lat="42.58372999727726" lon="-5.817359983921051">
        <ele>875.04600000000005</ele>
        <time>2021-07-22T20:32:35Z</time>
      </trkpt>
      <trkpt lat="42.583560012280941" lon="-5.817499961704016">
        <ele>876.06799999999998</ele>
        <time>2021-07-22T20:32:39Z</time>
      </trkpt>
      <trkpt lat="42.583490023389459" lon="-5.817589983344078">
        <ele>876.02700000000004</ele>
        <time>2021-07-22T20:32:40Z</time>
      </trkpt>
      <trkpt lat="42.583420034497976" lon="-5.817810008302331">
        <ele>876.08199999999999</ele>
        <time>2021-07-22T20:32:44Z</time>
      </trkpt>
      <trkpt lat="42.583460016176105" lon="-5.818179985508323">
        <ele>875.04300000000001</ele>
        <time>2021-07-22T20:32:49Z</time>
      </trkpt>
      <trkpt lat="42.584789972752333" lon="-5.822730017825961">
        <ele>872.01700000000005</ele>
        <time>2021-07-22T20:33:53Z</time>
      </trkpt>
      <trkpt lat="42.584949983283877" lon="-5.82332999445498">
        <ele>873.00800000000004</ele>
        <time>2021-07-22T20:34:01Z</time>
      </trkpt>
      <trkpt lat="42.585009997710586" lon="-5.823699971660972">
        <ele>873.02499999999998</ele>
        <time>2021-07-22T20:34:06Z</time>
      </trkpt>
      <trkpt lat="42.585009997710586" lon="-5.824019992724061">
        <ele>873.01599999999996</ele>
        <time>2021-07-22T20:34:10Z</time>
      </trkpt>
      <trkpt lat="42.584930034354329" lon="-5.824449984356761">
        <ele>873.08600000000001</ele>
        <time>2021-07-22T20:34:16Z</time>
      </trkpt>
      <trkpt lat="42.584050018340349" lon="-5.82870002835989">
        <ele>874.07100000000003</ele>
        <time>2021-07-22T20:35:14Z</time>
      </trkpt>
      <trkpt lat="42.58383996784687" lon="-5.829339986667037">
        <ele>875.02499999999998</ele>
        <time>2021-07-22T20:35:23Z</time>
      </trkpt>
      <trkpt lat="42.583620026707649" lon="-5.829780036583543">
        <ele>875.08699999999999</ele>
        <time>2021-07-22T20:35:30Z</time>
      </trkpt>
      <trkpt lat="42.583360020071268" lon="-5.830199969932437">
        <ele>875.05899999999997</ele>
        <time>2021-07-22T20:35:37Z</time>
      </trkpt>
      <trkpt lat="42.576879970729351" lon="-5.840160017833114">
        <ele>866.09799999999996</ele>
        <time>2021-07-22T20:38:31Z</time>
      </trkpt>
      <trkpt lat="42.576579982414842" lon="-5.840840041637421">
        <ele>866.06899999999996</ele>
        <time>2021-07-22T20:38:42Z</time>
      </trkpt>
      <trkpt lat="42.576690036803484" lon="-5.840940037742257">
        <ele>866.00400000000002</ele>
        <time>2021-07-22T20:38:44Z</time>
      </trkpt>
      <trkpt lat="42.576739992946386" lon="-5.841089989989996">
        <ele>865.024</ele>
        <time>2021-07-22T20:38:46Z</time>
      </trkpt>
      <trkpt lat="42.576690036803484" lon="-5.841319989413023">
        <ele>865.00800000000004</ele>
        <time>2021-07-22T20:38:49Z</time>
      </trkpt>
      <trkpt lat="42.576570007950068" lon="-5.841410011053085">
        <ele>865.04300000000001</ele>
        <time>2021-07-22T20:38:52Z</time>
      </trkpt>
      <trkpt lat="42.576500019058585" lon="-5.84141998551786">
        <ele>865.01400000000001</ele>
        <time>2021-07-22T20:38:53Z</time>
      </trkpt>
      <trkpt lat="42.576440004631877" lon="-5.841389978304505">
        <ele>865.04399999999998</ele>
        <time>2021-07-22T20:38:54Z</time>
      </trkpt>
      <trkpt lat="42.576149990782142" lon="-5.841540014371276">
        <ele>865.05899999999997</ele>
        <time>2021-07-22T20:39:00Z</time>
      </trkpt>
      <trkpt lat="42.575669959187508" lon="-5.842030020430684">
        <ele>866.04300000000001</ele>
        <time>2021-07-22T20:39:10Z</time>
      </trkpt>
      <trkpt lat="42.572690024971962" lon="-5.846560019999743">
        <ele>869.03499999999997</ele>
        <time>2021-07-22T20:40:30Z</time>
      </trkpt>
      <trkpt lat="42.572249975055456" lon="-5.847080033272505">
        <ele>869.08699999999999</ele>
        <time>2021-07-22T20:40:40Z</time>
      </trkpt>
      <trkpt lat="42.559660021215677" lon="-5.858680000528693">
        <ele>860.02599999999995</ele>
        <time>2021-07-22T20:45:11Z</time>
      </trkpt>
      <trkpt lat="42.557799993082881" lon="-5.860429974272847">
        <ele>862.01099999999997</ele>
        <time>2021-07-22T20:45:51Z</time>
      </trkpt>
      <trkpt lat="42.557049980387092" lon="-5.861089965328574">
        <ele>861.02099999999996</ele>
        <time>2021-07-22T20:46:07Z</time>
      </trkpt>
      <trkpt lat="42.553469985723495" lon="-5.864429986104369">
        <ele>860.00300000000004</ele>
        <time>2021-07-22T20:47:24Z</time>
      </trkpt>
      <trkpt lat="42.55261997692287" lon="-5.865149991586804">
        <ele>859.00800000000004</ele>
        <time>2021-07-22T20:47:42Z</time>
      </trkpt>
      <trkpt lat="42.552170036360621" lon="-5.86546003818512">
        <ele>858.09799999999996</ele>
        <time>2021-07-22T20:47:51Z</time>
      </trkpt>
      <trkpt lat="42.537050005048513" lon="-5.874769985675812">
        <ele>853.029</ele>
        <time>2021-07-22T20:52:47Z</time>
      </trkpt>
      <trkpt lat="42.535920040681958" lon="-5.875489991158247">
        <ele>852.08900000000006</ele>
        <time>2021-07-22T20:53:09Z</time>
      </trkpt>
      <trkpt lat="42.535359961912036" lon="-5.875970022752881">
        <ele>852.09400000000005</ele>
        <time>2021-07-22T20:53:21Z</time>
      </trkpt>
      <trkpt lat="42.534659989178181" lon="-5.876739984378219">
        <ele>850.01800000000003</ele>
        <time>2021-07-22T20:53:37Z</time>
      </trkpt>
      <trkpt lat="42.533010011538863" lon="-5.878059966489673">
        <ele>849.00999999999999</ele>
        <time>2021-07-22T20:54:11Z</time>
      </trkpt>
      <trkpt lat="42.520460039377213" lon="-5.88598002679646">
        <ele>846.04200000000003</ele>
        <time>2021-07-22T20:58:17Z</time>
      </trkpt>
      <trkpt lat="42.512369994074106" lon="-5.891019981354475">
        <ele>840.06100000000004</ele>
        <time>2021-07-22T21:00:55Z</time>
      </trkpt>
      <trkpt lat="42.507210010662675" lon="-5.893530026078224">
        <ele>840.03099999999995</ele>
        <time>2021-07-22T21:02:33Z</time>
      </trkpt>
      <trkpt lat="42.506499979645014" lon="-5.893839988857508">
        <ele>839.06100000000004</ele>
        <time>2021-07-22T21:02:46Z</time>
      </trkpt>
      <trkpt lat="42.505110008642077" lon="-5.894429991021752">
        <ele>837.00699999999995</ele>
        <time>2021-07-22T21:03:12Z</time>
      </trkpt>
      <trkpt lat="42.503110002726316" lon="-5.89521998539567">
        <ele>842.00800000000004</ele>
        <time>2021-07-22T21:03:49Z</time>
      </trkpt>
      <trkpt lat="42.502210037782788" lon="-5.895619969815016">
        <ele>844.05999999999995</ele>
        <time>2021-07-22T21:04:06Z</time>
      </trkpt>
      <trkpt lat="42.502039968967438" lon="-5.89567000977695">
        <ele>844.07100000000003</ele>
        <time>2021-07-22T21:04:09Z</time>
      </trkpt>
      <trkpt lat="42.501409985125065" lon="-5.895779980346561">
        <ele>844.08100000000002</ele>
        <time>2021-07-22T21:04:21Z</time>
      </trkpt>
      <trkpt lat="42.500770026817918" lon="-5.895979972556233">
        <ele>841.02599999999995</ele>
        <time>2021-07-22T21:04:32Z</time>
      </trkpt>
      <trkpt lat="42.499230019748211" lon="-5.896880021318793">
        <ele>836.03999999999996</ele>
        <time>2021-07-22T21:05:02Z</time>
      </trkpt>
      <trkpt lat="42.49862995930016" lon="-5.897180009633303">
        <ele>839.02200000000005</ele>
        <time>2021-07-22T21:05:13Z</time>
      </trkpt>
      <trkpt lat="42.497880030423403" lon="-5.897359969094396">
        <ele>840.08399999999995</ele>
        <time>2021-07-22T21:05:27Z</time>
      </trkpt>
      <trkpt lat="42.49014001339674" lon="-5.898499991744757">
        <ele>829.09299999999996</ele>
        <time>2021-07-22T21:07:45Z</time>
      </trkpt>
      <trkpt lat="42.488010004162788" lon="-5.898750023916364">
        <ele>827.04899999999998</ele>
        <time>2021-07-22T21:08:24Z</time>
      </trkpt>
      <trkpt lat="42.481530038639903" lon="-5.899440022185445">
        <ele>825.00199999999995</ele>
        <time>2021-07-22T21:10:19Z</time>
      </trkpt>
      <trkpt lat="42.481300039216876" lon="-5.899449996650219">
        <ele>825.02200000000005</ele>
        <time>2021-07-22T21:10:23Z</time>
      </trkpt>
      <trkpt lat="42.480130009353161" lon="-5.899340026080608">
        <ele>825.00800000000004</ele>
        <time>2021-07-22T21:10:44Z</time>
      </trkpt>
      <trkpt lat="42.475300021469593" lon="-5.898880027234554">
        <ele>825.09100000000001</ele>
        <time>2021-07-22T21:12:10Z</time>
      </trkpt>
      <trkpt lat="42.47494999319315" lon="-5.898820012807846">
        <ele>825.05200000000002</ele>
        <time>2021-07-22T21:12:17Z</time>
      </trkpt>
      <trkpt lat="42.474710019305348" lon="-5.898729991167784">
        <ele>825.04200000000003</ele>
        <time>2021-07-22T21:12:21Z</time>
      </trkpt>
      <trkpt lat="42.474369965493679" lon="-5.8984200283885">
        <ele>824.077</ele>
        <time>2021-07-22T21:12:28Z</time>
      </trkpt>
      <trkpt lat="42.473439993336797" lon="-5.897170035168529">
        <ele>823.04100000000005</ele>
        <time>2021-07-22T21:12:52Z</time>
      </trkpt>
      <trkpt lat="42.464839993044734" lon="-5.885149966925383">
        <ele>820.06299999999999</ele>
        <time>2021-07-22T21:16:31Z</time>
      </trkpt>
      <trkpt lat="42.464630026370287" lon="-5.884919967502356">
        <ele>820.09500000000003</ele>
        <time>2021-07-22T21:16:36Z</time>
      </trkpt>
      <trkpt lat="42.464410001412034" lon="-5.884730033576489">
        <ele>821.024</ele>
        <time>2021-07-22T21:16:41Z</time>
      </trkpt>
      <trkpt lat="42.464140020310879" lon="-5.884619979187846">
        <ele>821.072</ele>
        <time>2021-07-22T21:16:46Z</time>
      </trkpt>
      <trkpt lat="42.462839987128973" lon="-5.884389979764819">
        <ele>823.01300000000003</ele>
        <time>2021-07-22T21:17:09Z</time>
      </trkpt>
      <trkpt lat="42.458869982510805" lon="-5.884500034153462">
        <ele>819.01400000000001</ele>
        <time>2021-07-22T21:18:20Z</time>
      </trkpt>
      <trkpt lat="42.458549961447716" lon="-5.884570023044944">
        <ele>819.00800000000004</ele>
        <time>2021-07-22T21:18:26Z</time>
      </trkpt>
      <trkpt lat="42.458419958129525" lon="-5.884740008041263">
        <ele>819.08399999999995</ele>
        <time>2021-07-22T21:18:29Z</time>
      </trkpt>
      <trkpt lat="42.45830001309514" lon="-5.884960032999516">
        <ele>819.01499999999999</ele>
        <time>2021-07-22T21:18:32Z</time>
      </trkpt>
      <trkpt lat="42.458030031993985" lon="-5.886429967358708">
        <ele>819.04499999999996</ele>
        <time>2021-07-22T21:18:52Z</time>
      </trkpt>
      <trkpt lat="42.452260013669729" lon="-5.918689984828234">
        <ele>824.05999999999995</ele>
        <time>2021-07-22T21:26:08Z</time>
      </trkpt>
      <trkpt lat="42.452279962599277" lon="-5.918819988146424">
        <ele>825.04399999999998</ele>
        <time>2021-07-22T21:26:10Z</time>
      </trkpt>
      <trkpt lat="42.452130010351539" lon="-5.919739985838532">
        <ele>826.05600000000004</ele>
        <time>2021-07-22T21:26:22Z</time>
      </trkpt>
      <trkpt lat="42.452120035886765" lon="-5.920020025223494">
        <ele>827.09799999999996</ele>
        <time>2021-07-22T21:26:26Z</time>
      </trkpt>
      <trkpt lat="42.452149959281087" lon="-5.920320013538003">
        <ele>828.08699999999999</ele>
        <time>2021-07-22T21:26:30Z</time>
      </trkpt>
      <trkpt lat="42.452130010351539" lon="-5.920410035178065">
        <ele>828.07600000000002</ele>
        <time>2021-07-22T21:26:31Z</time>
      </trkpt>
      <trkpt lat="42.45191995985806" lon="-5.920870034024119">
        <ele>828.09000000000003</ele>
        <time>2021-07-22T21:26:38Z</time>
      </trkpt>
      <trkpt lat="42.451779982075095" lon="-5.921639995649457">
        <ele>829.01900000000001</ele>
        <time>2021-07-22T21:26:49Z</time>
      </trkpt>
      <trkpt lat="42.451600022614002" lon="-5.922390008345246">
        <ele>827.00800000000004</ele>
        <time>2021-07-22T21:26:59Z</time>
      </trkpt>
      <trkpt lat="42.449679980054498" lon="-5.933029996231198">
        <ele>854.06399999999996</ele>
        <time>2021-07-22T21:29:23Z</time>
      </trkpt>
      <trkpt lat="42.449310002848506" lon="-5.934679973870516">
        <ele>859.02499999999998</ele>
        <time>2021-07-22T21:29:45Z</time>
      </trkpt>
      <trkpt lat="42.447389960289001" lon="-5.942040039226413">
        <ele>848.05499999999995</ele>
        <time>2021-07-22T21:31:28Z</time>
      </trkpt>
      <trkpt lat="42.447400018572807" lon="-5.942140035331249">
        <ele>848.01999999999998</ele>
        <time>2021-07-22T21:31:29Z</time>
      </trkpt>
      <trkpt lat="42.447159960865974" lon="-5.943149970844388">
        <ele>848.09400000000005</ele>
        <time>2021-07-22T21:31:43Z</time>
      </trkpt>
      <trkpt lat="42.44717001914978" lon="-5.943550039082766">
        <ele>848.096</ele>
        <time>2021-07-22T21:31:48Z</time>
      </trkpt>
      <trkpt lat="42.447119979187846" lon="-5.943699991330504">
        <ele>848.048</ele>
        <time>2021-07-22T21:31:51Z</time>
      </trkpt>
      <trkpt lat="42.446929961442947" lon="-5.94399000518024">
        <ele>848.08699999999999</ele>
        <time>2021-07-22T21:31:56Z</time>
      </trkpt>
      <trkpt lat="42.4467199947685" lon="-5.944819981232286">
        <ele>849.02499999999998</ele>
        <time>2021-07-22T21:32:07Z</time>
      </trkpt>
      <trkpt lat="42.446540035307407" lon="-5.945660015568137">
        <ele>852.02599999999995</ele>
        <time>2021-07-22T21:32:19Z</time>
      </trkpt>
      <trkpt lat="42.446510028094053" lon="-5.945999985560775">
        <ele>853.00800000000004</ele>
        <time>2021-07-22T21:32:23Z</time>
      </trkpt>
      <trkpt lat="42.446499969810247" lon="-5.946369962766767">
        <ele>854.00800000000004</ele>
        <time>2021-07-22T21:32:28Z</time>
      </trkpt>
      <trkpt lat="42.446540035307407" lon="-5.947439996525645">
        <ele>858.03899999999999</ele>
        <time>2021-07-22T21:32:42Z</time>
      </trkpt>
      <trkpt lat="42.447100030258298" lon="-5.955610005185008">
        <ele>884.04999999999995</ele>
        <time>2021-07-22T21:34:30Z</time>
      </trkpt>
      <trkpt lat="42.44835002347827" lon="-5.979340011253953">
        <ele>905.02999999999997</ele>
        <time>2021-07-22T21:39:42Z</time>
      </trkpt>
      <trkpt lat="42.448420012369752" lon="-5.980150038376451">
        <ele>909.04499999999996</ele>
        <time>2021-07-22T21:39:53Z</time>
      </trkpt>
      <trkpt lat="42.448559990152717" lon="-5.98088001832366">
        <ele>911.03899999999999</ele>
        <time>2021-07-22T21:40:03Z</time>
      </trkpt>
      <trkpt lat="42.448669960722327" lon="-5.981240021064878">
        <ele>911.09100000000001</ele>
        <time>2021-07-22T21:40:08Z</time>
      </trkpt>
      <trkpt lat="42.448880011215806" lon="-5.981800016015768">
        <ele>911.04300000000001</ele>
        <time>2021-07-22T21:40:16Z</time>
      </trkpt>
      <trkpt lat="42.449080003425479" lon="-5.982200000435114">
        <ele>910.01199999999994</ele>
        <time>2021-07-22T21:40:22Z</time>
      </trkpt>
      <trkpt lat="42.451730025932193" lon="-5.986479967832565">
        <ele>913.02700000000004</ele>
        <time>2021-07-22T21:41:36Z</time>
      </trkpt>
      <trkpt lat="42.45206999592483" lon="-5.987080028280616">
        <ele>912.06799999999998</ele>
        <time>2021-07-22T21:41:46Z</time>
      </trkpt>
      <trkpt lat="42.452309969812632" lon="-5.987559976056218">
        <ele>912.01400000000001</ele>
        <time>2021-07-22T21:41:53Z</time>
      </trkpt>
      <trkpt lat="42.45252002030611" lon="-5.988070014864206">
        <ele>914.00800000000004</ele>
        <time>2021-07-22T21:42:01Z</time>
      </trkpt>
      <trkpt lat="42.45279997587204" lon="-5.988969979807735">
        <ele>914.08900000000006</ele>
        <time>2021-07-22T21:42:14Z</time>
      </trkpt>
      <trkpt lat="42.452959986403584" lon="-5.989699959754944">
        <ele>914.04999999999995</ele>
        <time>2021-07-22T21:42:24Z</time>
      </trkpt>
      <trkpt lat="42.453089989721775" lon="-5.990579975768924">
        <ele>913.08000000000004</ele>
        <time>2021-07-22T21:42:36Z</time>
      </trkpt>
      <trkpt lat="42.453129971399903" lon="-5.991180036216974">
        <ele>912.06500000000005</ele>
        <time>2021-07-22T21:42:44Z</time>
      </trkpt>
      <trkpt lat="42.453140029683709" lon="-5.991819994524121">
        <ele>912.08900000000006</ele>
        <time>2021-07-22T21:42:52Z</time>
      </trkpt>
      <trkpt lat="42.453070040792227" lon="-5.992879969999194">
        <ele>913.08100000000002</ele>
        <time>2021-07-22T21:43:06Z</time>
      </trkpt>
      <trkpt lat="42.452869964763522" lon="-5.994189977645874">
        <ele>912.053</ele>
        <time>2021-07-22T21:43:23Z</time>
      </trkpt>
      <trkpt lat="42.452439973130822" lon="-5.99559998139739">
        <ele>913.05200000000002</ele>
        <time>2021-07-22T21:43:43Z</time>
      </trkpt>
      <trkpt lat="42.452339977025986" lon="-5.996540011838079">
        <ele>912.08500000000004</ele>
        <time>2021-07-22T21:43:56Z</time>
      </trkpt>
      <trkpt lat="42.452290020883083" lon="-5.996760036796331">
        <ele>911.08900000000006</ele>
        <time>2021-07-22T21:43:59Z</time>
      </trkpt>
      <trkpt lat="42.452149959281087" lon="-5.997109981253743">
        <ele>911.01700000000005</ele>
        <time>2021-07-22T21:44:04Z</time>
      </trkpt>
      <trkpt lat="42.451819963753223" lon="-5.99763996899128">
        <ele>910.00800000000004</ele>
        <time>2021-07-22T21:44:13Z</time>
      </trkpt>
      <trkpt lat="42.450840035453439" lon="-5.998900020495057">
        <ele>907.06500000000005</ele>
        <time>2021-07-22T21:44:37Z</time>
      </trkpt>
      <trkpt lat="42.450009975582361" lon="-6.000080024823546">
        <ele>899.08600000000001</ele>
        <time>2021-07-22T21:44:59Z</time>
      </trkpt>
      <trkpt lat="42.449839990586042" lon="-6.000440027564764">
        <ele>899.01599999999996</ele>
        <time>2021-07-22T21:45:04Z</time>
      </trkpt>
      <trkpt lat="42.44974996894598" lon="-6.000789972022176">
        <ele>899.06100000000004</ele>
        <time>2021-07-22T21:45:09Z</time>
      </trkpt>
      <trkpt lat="42.449709987267852" lon="-6.001089960336685">
        <ele>897.04499999999996</ele>
        <time>2021-07-22T21:45:13Z</time>
      </trkpt>
      <trkpt lat="42.449730020016432" lon="-6.001520035788417">
        <ele>896.03700000000003</ele>
        <time>2021-07-22T21:45:19Z</time>
      </trkpt>
      <trkpt lat="42.449820041656494" lon="-6.001969976350665">
        <ele>893.08900000000006</ele>
        <time>2021-07-22T21:45:25Z</time>
      </trkpt>
      <trkpt lat="42.449960019439459" lon="-6.00228002294898">
        <ele>891.05799999999999</ele>
        <time>2021-07-22T21:45:30Z</time>
      </trkpt>
      <trkpt lat="42.450520014390349" lon="-6.003059959039092">
        <ele>887.06299999999999</ele>
        <time>2021-07-22T21:45:44Z</time>
      </trkpt>
      <trkpt lat="42.450710032135248" lon="-6.003360031172633">
        <ele>885.04399999999998</ele>
        <time>2021-07-22T21:45:49Z</time>
      </trkpt>
      <trkpt lat="42.451029969379306" lon="-6.003750041127205">
        <ele>882.01800000000003</ele>
        <time>2021-07-22T21:45:57Z</time>
      </trkpt>
      <trkpt lat="42.451319983229041" lon="-6.004029996693134">
        <ele>880.00800000000004</ele>
        <time>2021-07-22T21:46:03Z</time>
      </trkpt>
      <trkpt lat="42.451719967648387" lon="-6.00432001054287">
        <ele>879.03300000000002</ele>
        <time>2021-07-22T21:46:11Z</time>
      </trkpt>
      <trkpt lat="42.453050008043647" lon="-6.005110004916787">
        <ele>871.06399999999996</ele>
        <time>2021-07-22T21:46:37Z</time>
      </trkpt>
      <trkpt lat="42.453410010784864" lon="-6.005419967696071">
        <ele>868.024</ele>
        <time>2021-07-22T21:46:45Z</time>
      </trkpt>
      <trkpt lat="42.453730031847954" lon="-6.005809977650642">
        <ele>866.09900000000005</ele>
        <time>2021-07-22T21:46:52Z</time>
      </trkpt>
      <trkpt lat="42.453960031270981" lon="-6.006209962069988">
        <ele>864.053</ele>
        <time>2021-07-22T21:46:59Z</time>
      </trkpt>
      <trkpt lat="42.454149965196848" lon="-6.006680019199848">
        <ele>862.06500000000005</ele>
        <time>2021-07-22T21:47:06Z</time>
      </trkpt>
      <trkpt lat="42.454249961301684" lon="-6.007059970870614">
        <ele>862.06700000000001</ele>
        <time>2021-07-22T21:47:11Z</time>
      </trkpt>
      <trkpt lat="42.454300001263618" lon="-6.007560035213828">
        <ele>861.01599999999996</ele>
        <time>2021-07-22T21:47:18Z</time>
      </trkpt>
      <trkpt lat="42.454320034012198" lon="-6.007949961349368">
        <ele>860.053</ele>
        <time>2021-07-22T21:47:23Z</time>
      </trkpt>
      <trkpt lat="42.454309975728393" lon="-6.008650017902255">
        <ele>857.00400000000002</ele>
        <time>2021-07-22T21:47:32Z</time>
      </trkpt>
      <trkpt lat="42.454190030694008" lon="-6.014799987897277">
        <ele>852.01400000000001</ele>
        <time>2021-07-22T21:48:53Z</time>
      </trkpt>
      <trkpt lat="42.454330008476973" lon="-6.016089962795377">
        <ele>850.00800000000004</ele>
        <time>2021-07-22T21:49:10Z</time>
      </trkpt>
      <trkpt lat="42.454360015690327" lon="-6.017540032044053">
        <ele>847.04200000000003</ele>
        <time>2021-07-22T21:49:29Z</time>
      </trkpt>
      <trkpt lat="42.454609964042902" lon="-6.022259965538979">
        <ele>839.053</ele>
        <time>2021-07-22T21:50:31Z</time>
      </trkpt>
      <trkpt lat="42.454550033435225" lon="-6.02269004099071">
        <ele>839.02300000000002</ele>
        <time>2021-07-22T21:50:37Z</time>
      </trkpt>
      <trkpt lat="42.454430004581809" lon="-6.022860025987029">
        <ele>839.048</ele>
        <time>2021-07-22T21:50:40Z</time>
      </trkpt>
      <trkpt lat="42.453909991309047" lon="-6.023409962654114">
        <ele>840.04200000000003</ele>
        <time>2021-07-22T21:50:52Z</time>
      </trkpt>
      <trkpt lat="42.453819969668984" lon="-6.023639962077141">
        <ele>840.03399999999999</ele>
        <time>2021-07-22T21:50:55Z</time>
      </trkpt>
      <trkpt lat="42.45378996245563" lon="-6.023950008675456">
        <ele>840.07600000000002</ele>
        <time>2021-07-22T21:50:59Z</time>
      </trkpt>
      <trkpt lat="42.454409971833229" lon="-6.03861004114151">
        <ele>840.04499999999996</ele>
        <time>2021-07-22T21:54:12Z</time>
      </trkpt>
      <trkpt lat="42.454479960724711" lon="-6.039050007238984">
        <ele>839.06700000000001</ele>
        <time>2021-07-22T21:54:18Z</time>
      </trkpt>
      <trkpt lat="42.454590015113354" lon="-6.039400035515428">
        <ele>840.08100000000002</ele>
        <time>2021-07-22T21:54:23Z</time>
      </trkpt>
      <trkpt lat="42.454609964042902" lon="-6.039540013298392">
        <ele>840.01900000000001</ele>
        <time>2021-07-22T21:54:25Z</time>
      </trkpt>
      <trkpt lat="42.454569982364774" lon="-6.039649983868003">
        <ele>841.00800000000004</ele>
        <time>2021-07-22T21:54:27Z</time>
      </trkpt>
      <trkpt lat="42.454460011795163" lon="-6.039730031043291">
        <ele>841.09299999999996</ele>
        <time>2021-07-22T21:54:29Z</time>
      </trkpt>
      <trkpt lat="42.45410998351872" lon="-6.039600027725101">
        <ele>841.024</ele>
        <time>2021-07-22T21:54:35Z</time>
      </trkpt>
      <trkpt lat="42.453939998522401" lon="-6.039579994976521">
        <ele>840.024</ele>
        <time>2021-07-22T21:54:38Z</time>
      </trkpt>
      <trkpt lat="42.453619977459311" lon="-6.039709998294711">
        <ele>841.08900000000006</ele>
        <time>2021-07-22T21:54:44Z</time>
      </trkpt>
      <trkpt lat="42.453259974718094" lon="-6.039970004931092">
        <ele>841.01300000000003</ele>
        <time>2021-07-22T21:54:52Z</time>
      </trkpt>
      <trkpt lat="42.452910030260682" lon="-6.040300000458956">
        <ele>840.04499999999996</ele>
        <time>2021-07-22T21:54:59Z</time>
      </trkpt>
      <trkpt lat="42.452590009197593" lon="-6.04073996655643">
        <ele>840.04700000000003</ele>
        <time>2021-07-22T21:55:07Z</time>
      </trkpt>
      <trkpt lat="42.452360009774566" lon="-6.041250005364418">
        <ele>840.06600000000003</ele>
        <time>2021-07-22T21:55:15Z</time>
      </trkpt>
      <trkpt lat="42.452250039204955" lon="-6.04161998257041">
        <ele>840.03599999999994</ele>
        <time>2021-07-22T21:55:20Z</time>
      </trkpt>
      <trkpt lat="42.452169992029667" lon="-6.042279973626137">
        <ele>840.01700000000005</ele>
        <time>2021-07-22T21:55:29Z</time>
      </trkpt>
      <trkpt lat="42.452179966494441" lon="-6.0430399607867">
        <ele>840.01800000000003</ele>
        <time>2021-07-22T21:55:39Z</time>
      </trkpt>
      <trkpt lat="42.452250039204955" lon="-6.043440029025078">
        <ele>839.00800000000004</ele>
        <time>2021-07-22T21:55:44Z</time>
      </trkpt>
      <trkpt lat="42.452429998666048" lon="-6.044019972905517">
        <ele>840.09000000000003</ele>
        <time>2021-07-22T21:55:53Z</time>
      </trkpt>
      <trkpt lat="42.452729986980557" lon="-6.044660015031695">
        <ele>840.01099999999997</ele>
        <time>2021-07-22T21:56:03Z</time>
      </trkpt>
      <trkpt lat="42.454249961301684" lon="-6.047480022534728">
        <ele>841.08100000000002</ele>
        <time>2021-07-22T21:56:49Z</time>
      </trkpt>
      <trkpt lat="42.454450037330389" lon="-6.047919988632202">
        <ele>841.01599999999996</ele>
        <time>2021-07-22T21:56:55Z</time>
      </trkpt>
      <trkpt lat="42.454490019008517" lon="-6.047889981418848">
        <ele>841.03999999999996</ele>
        <time>2021-07-22T21:56:56Z</time>
      </trkpt>
      <trkpt lat="42.454599989578128" lon="-6.047880006954074">
        <ele>841.06200000000001</ele>
        <time>2021-07-22T21:56:58Z</time>
      </trkpt>
      <trkpt lat="42.454680036753416" lon="-6.04795997031033">
        <ele>841.024</ele>
        <time>2021-07-22T21:57:00Z</time>
      </trkpt>
      <trkpt lat="42.454729992896318" lon="-6.048079999163747">
        <ele>841.08299999999997</ele>
        <time>2021-07-22T21:57:02Z</time>
      </trkpt>
      <trkpt lat="42.45469001121819" lon="-6.04827999137342">
        <ele>841.06600000000003</ele>
        <time>2021-07-22T21:57:04Z</time>
      </trkpt>
      <trkpt lat="42.45597998611629" lon="-6.049980008974671">
        <ele>846.029</ele>
        <time>2021-07-22T21:57:36Z</time>
      </trkpt>
      <trkpt lat="42.456460017710924" lon="-6.050570011138916">
        <ele>850.02099999999996</ele>
        <time>2021-07-22T21:57:48Z</time>
      </trkpt>
      <trkpt lat="42.456590021029115" lon="-6.05090000666678">
        <ele>852.00800000000004</ele>
        <time>2021-07-22T21:57:53Z</time>
      </trkpt>
      <trkpt lat="42.456699991598725" lon="-6.051810029894114">
        <ele>858.04300000000001</ele>
        <time>2021-07-22T21:58:05Z</time>
      </trkpt>
      <trkpt lat="42.456760006025434" lon="-6.052600024268031">
        <ele>863.06399999999996</ele>
        <time>2021-07-22T21:58:15Z</time>
      </trkpt>
      <trkpt lat="42.45688003487885" lon="-6.052890038117766">
        <ele>864.09400000000005</ele>
        <time>2021-07-22T21:58:20Z</time>
      </trkpt>
      <trkpt lat="42.457169964909554" lon="-6.053069997578859">
        <ele>863.07899999999995</ele>
        <time>2021-07-22T21:58:25Z</time>
      </trkpt>
      <trkpt lat="42.457440029829741" lon="-6.053139986470342">
        <ele>861.02300000000002</ele>
        <time>2021-07-22T21:58:30Z</time>
      </trkpt>
      <trkpt lat="42.45771998539567" lon="-6.05317996814847">
        <ele>861.03499999999997</ele>
        <time>2021-07-22T21:58:35Z</time>
      </trkpt>
      <trkpt lat="42.457770025357604" lon="-6.05322003364563">
        <ele>862.01700000000005</ele>
        <time>2021-07-22T21:58:36Z</time>
      </trkpt>
      <trkpt lat="42.457889970391989" lon="-6.053250040858984">
        <ele>862.07600000000002</ele>
        <time>2021-07-22T21:58:39Z</time>
      </trkpt>
      <trkpt lat="42.457930035889149" lon="-6.053290022537112">
        <ele>862.07399999999996</ele>
        <time>2021-07-22T21:58:39Z</time>
      </trkpt>
      <trkpt lat="42.458019973710179" lon="-6.05365002527833">
        <ele>863.05600000000004</ele>
        <time>2021-07-22T21:58:44Z</time>
      </trkpt>
      <trkpt lat="42.458219965919852" lon="-6.054180013015866">
        <ele>863.02099999999996</ele>
        <time>2021-07-22T21:58:52Z</time>
      </trkpt>
      <trkpt lat="42.458379976451397" lon="-6.054700026288629">
        <ele>864.00800000000004</ele>
        <time>2021-07-22T21:59:00Z</time>
      </trkpt>
      <trkpt lat="42.459110040217638" lon="-6.057409979403019">
        <ele>872.09400000000005</ele>
        <time>2021-07-22T21:59:37Z</time>
      </trkpt>
      <trkpt lat="42.459110040217638" lon="-6.057720026001334">
        <ele>872.08500000000004</ele>
        <time>2021-07-22T21:59:42Z</time>
      </trkpt>
      <trkpt lat="42.458609975874424" lon="-6.057929992675781">
        <ele>873.07500000000005</ele>
        <time>2021-07-22T21:59:51Z</time>
      </trkpt>
      <trkpt lat="42.457649996504188" lon="-6.058689979836345">
        <ele>873.08000000000004</ele>
        <time>2021-07-22T22:00:11Z</time>
      </trkpt>
      <trkpt lat="42.456569988280535" lon="-6.059939973056316">
        <ele>871.06399999999996</ele>
        <time>2021-07-22T22:00:36Z</time>
      </trkpt>
      <trkpt lat="42.455779993906617" lon="-6.060800040140748">
        <ele>866.07600000000002</ele>
        <time>2021-07-22T22:00:54Z</time>
      </trkpt>
      <trkpt lat="42.453970005735755" lon="-6.058189999312162">
        <ele>852.02800000000002</ele>
        <time>2021-07-22T22:01:41Z</time>
      </trkpt>
      <trkpt lat="42.453329963609576" lon="-6.057190038263798">
        <ele>849.09699999999998</ele>
        <time>2021-07-22T22:01:58Z</time>
      </trkpt>
      <trkpt lat="42.452079970389605" lon="-6.055360017344356">
        <ele>845.096</ele>
        <time>2021-07-22T22:02:31Z</time>
      </trkpt>
      <trkpt lat="42.452160017564893" lon="-6.055130017921329">
        <ele>845.03099999999995</ele>
        <time>2021-07-22T22:02:34Z</time>
      </trkpt>
      <trkpt lat="42.451969999819994" lon="-6.054949974641204">
        <ele>845.024</ele>
        <time>2021-07-22T22:02:39Z</time>
      </trkpt>
      <trkpt lat="42.451849970966578" lon="-6.05496003292501">
        <ele>846.00800000000004</ele>
        <time>2021-07-22T22:02:41Z</time>
      </trkpt>
      <trkpt lat="42.451760033145547" lon="-6.055130017921329">
        <ele>846.03599999999994</ele>
        <time>2021-07-22T22:02:43Z</time>
      </trkpt>
      <trkpt lat="42.451790040358901" lon="-6.055360017344356">
        <ele>845.09699999999998</ele>
        <time>2021-07-22T22:02:46Z</time>
      </trkpt>
      <trkpt lat="42.451890036463737" lon="-6.055450038984418">
        <ele>845.08699999999999</ele>
        <time>2021-07-22T22:02:49Z</time>
      </trkpt>
      <trkpt lat="42.451449986547232" lon="-6.058259988203645">
        <ele>846.072</ele>
        <time>2021-07-22T22:03:26Z</time>
      </trkpt>
    </trkseg>
  </trk>
</gpx>
